<?xml version="1.0" encoding="UTF-8" standalone="no" ?>
<gpx xmlns="http://www.topografix.com/GPX/1/1" xmlns:xsi="http://www.w3.org/2001/XMLSchema-instance" xsi:schemaLocation="http://www.topografix.com/GPX/1/1 http://www.topografix.com/GPX/1/1/gpx.xsd" version="1.1" creator="VisuGPX - https://www.visugpx.com">
  <metadata>
    <name>The Vernois</name>
    <desc><![CDATA[The Vernois]]></desc>
  </metadata>
  <wpt lat="47.50223" lon="6.76685">
    <ele>401</ele>
    <name><![CDATA[Point de cheminement 1]]></name>
    <desc><![CDATA[]]></desc>
  </wpt>
  <wpt lat="47.49315" lon="6.7513">
    <ele>344</ele>
    <name><![CDATA[Point de cheminement 2]]></name>
    <desc><![CDATA[]]></desc>
  </wpt>
  <wpt lat="47.51034" lon="6.72531">
    <ele>425</ele>
    <name><![CDATA[Point de cheminement 3]]></name>
    <desc><![CDATA[]]></desc>
  </wpt>
  <wpt lat="47.52777" lon="6.70615">
    <ele>351</ele>
    <name><![CDATA[Point de cheminement 4]]></name>
    <desc><![CDATA[]]></desc>
  </wpt>
  <wpt lat="47.53051" lon="6.68493">
    <ele>377</ele>
    <name><![CDATA[Point de cheminement 5]]></name>
    <desc><![CDATA[]]></desc>
  </wpt>
  <wpt lat="47.55242" lon="6.67561">
    <ele>439</ele>
    <name><![CDATA[Point de cheminement 6]]></name>
    <desc><![CDATA[]]></desc>
  </wpt>
  <wpt lat="47.55731" lon="6.66989">
    <ele>503</ele>
    <name><![CDATA[Point de cheminement 7]]></name>
    <desc><![CDATA[]]></desc>
  </wpt>
  <wpt lat="47.53765" lon="6.64981">
    <ele>476</ele>
    <name><![CDATA[Point de cheminement 8]]></name>
    <desc><![CDATA[]]></desc>
  </wpt>
  <wpt lat="47.52301" lon="6.68576">
    <ele>367</ele>
    <name><![CDATA[Point de cheminement 9]]></name>
    <desc><![CDATA[]]></desc>
  </wpt>
  <wpt lat="47.51024" lon="6.70575">
    <ele>388</ele>
    <name><![CDATA[Point de cheminement 10]]></name>
    <desc><![CDATA[]]></desc>
  </wpt>
  <wpt lat="47.50936" lon="6.70986">
    <ele>381</ele>
    <name><![CDATA[Point de cheminement 11]]></name>
    <desc><![CDATA[]]></desc>
  </wpt>
  <wpt lat="47.50177" lon="6.74242">
    <ele>366</ele>
    <name><![CDATA[Point de cheminement 12]]></name>
    <desc><![CDATA[]]></desc>
  </wpt>
  <wpt lat="47.50522" lon="6.76658">
    <ele>399</ele>
    <name><![CDATA[Point de cheminement 13]]></name>
    <desc><![CDATA[]]></desc>
  </wpt>
  <wpt lat="47.51812" lon="6.7748">
    <ele>388</ele>
    <name><![CDATA[Point de cheminement 14]]></name>
    <desc><![CDATA[]]></desc>
  </wpt>
  <trk>
    <name><![CDATA[20/03/2016 9:11]]></name>
    <desc><![CDATA[]]></desc>
    <trkseg>
      <trkpt lat="47.51796" lon="6.77478">
        <ele>388</ele>
        <time>2016-03-20T08:16:39.000Z</time>
      </trkpt>
      <trkpt lat="47.518" lon="6.77476">
        <ele>388</ele>
        <time>2016-03-20T08:17:30.000Z</time>
      </trkpt>
      <trkpt lat="47.518" lon="6.77476">
        <ele>388</ele>
        <time>2016-03-20T08:17:31.000Z</time>
      </trkpt>
      <trkpt lat="47.51802" lon="6.77482">
        <ele>388</ele>
        <time>2016-03-20T08:19:25.000Z</time>
      </trkpt>
      <trkpt lat="47.51803" lon="6.77482">
        <ele>388</ele>
        <time>2016-03-20T08:19:26.000Z</time>
      </trkpt>
      <trkpt lat="47.51802" lon="6.77487">
        <ele>388</ele>
        <time>2016-03-20T08:19:57.000Z</time>
      </trkpt>
      <trkpt lat="47.51804" lon="6.77489">
        <ele>388</ele>
        <time>2016-03-20T08:19:58.000Z</time>
      </trkpt>
      <trkpt lat="47.51808" lon="6.77493">
        <ele>388</ele>
        <time>2016-03-20T08:20:00.000Z</time>
      </trkpt>
      <trkpt lat="47.51808" lon="6.77494">
        <ele>388</ele>
        <time>2016-03-20T08:20:01.000Z</time>
      </trkpt>
      <trkpt lat="47.51805" lon="6.77495">
        <ele>388</ele>
        <time>2016-03-20T08:20:03.000Z</time>
      </trkpt>
      <trkpt lat="47.51802" lon="6.77495">
        <ele>388</ele>
        <time>2016-03-20T08:20:04.000Z</time>
      </trkpt>
      <trkpt lat="47.51799" lon="6.77494">
        <ele>388</ele>
        <time>2016-03-20T08:20:05.000Z</time>
      </trkpt>
      <trkpt lat="47.51796" lon="6.77493">
        <ele>388</ele>
        <time>2016-03-20T08:20:06.000Z</time>
      </trkpt>
      <trkpt lat="47.51792" lon="6.77492">
        <ele>388</ele>
        <time>2016-03-20T08:20:07.000Z</time>
      </trkpt>
      <trkpt lat="47.51789" lon="6.77491">
        <ele>388</ele>
        <time>2016-03-20T08:20:08.000Z</time>
      </trkpt>
      <trkpt lat="47.51786" lon="6.77489">
        <ele>388</ele>
        <time>2016-03-20T08:20:09.000Z</time>
      </trkpt>
      <trkpt lat="47.51783" lon="6.77488">
        <ele>388</ele>
        <time>2016-03-20T08:20:10.000Z</time>
      </trkpt>
      <trkpt lat="47.5178" lon="6.77487">
        <ele>388</ele>
        <time>2016-03-20T08:20:11.000Z</time>
      </trkpt>
      <trkpt lat="47.51776" lon="6.77486">
        <ele>388</ele>
        <time>2016-03-20T08:20:12.000Z</time>
      </trkpt>
      <trkpt lat="47.51773" lon="6.77485">
        <ele>388</ele>
        <time>2016-03-20T08:20:13.000Z</time>
      </trkpt>
      <trkpt lat="47.5177" lon="6.77484">
        <ele>389</ele>
        <time>2016-03-20T08:20:14.000Z</time>
      </trkpt>
      <trkpt lat="47.51766" lon="6.77484">
        <ele>389</ele>
        <time>2016-03-20T08:20:15.000Z</time>
      </trkpt>
      <trkpt lat="47.51762" lon="6.77484">
        <ele>389</ele>
        <time>2016-03-20T08:20:16.000Z</time>
      </trkpt>
      <trkpt lat="47.51759" lon="6.77484">
        <ele>389</ele>
        <time>2016-03-20T08:20:17.000Z</time>
      </trkpt>
      <trkpt lat="47.51755" lon="6.77485">
        <ele>389</ele>
        <time>2016-03-20T08:20:18.000Z</time>
      </trkpt>
      <trkpt lat="47.51752" lon="6.77484">
        <ele>389</ele>
        <time>2016-03-20T08:20:19.000Z</time>
      </trkpt>
      <trkpt lat="47.51748" lon="6.77483">
        <ele>389</ele>
        <time>2016-03-20T08:20:20.000Z</time>
      </trkpt>
      <trkpt lat="47.51743" lon="6.77482">
        <ele>389</ele>
        <time>2016-03-20T08:20:21.000Z</time>
      </trkpt>
      <trkpt lat="47.51739" lon="6.77481">
        <ele>389</ele>
        <time>2016-03-20T08:20:22.000Z</time>
      </trkpt>
      <trkpt lat="47.51735" lon="6.77481">
        <ele>389</ele>
        <time>2016-03-20T08:20:23.000Z</time>
      </trkpt>
      <trkpt lat="47.51731" lon="6.77483">
        <ele>389</ele>
        <time>2016-03-20T08:20:24.000Z</time>
      </trkpt>
      <trkpt lat="47.51728" lon="6.77487">
        <ele>389</ele>
        <time>2016-03-20T08:20:25.000Z</time>
      </trkpt>
      <trkpt lat="47.51725" lon="6.77491">
        <ele>389</ele>
        <time>2016-03-20T08:20:26.000Z</time>
      </trkpt>
      <trkpt lat="47.51723" lon="6.77497">
        <ele>389</ele>
        <time>2016-03-20T08:20:27.000Z</time>
      </trkpt>
      <trkpt lat="47.51721" lon="6.77504">
        <ele>390</ele>
        <time>2016-03-20T08:20:28.000Z</time>
      </trkpt>
      <trkpt lat="47.51721" lon="6.77515">
        <ele>390</ele>
        <time>2016-03-20T08:20:29.000Z</time>
      </trkpt>
      <trkpt lat="47.5172" lon="6.77522">
        <ele>390</ele>
        <time>2016-03-20T08:20:30.000Z</time>
      </trkpt>
      <trkpt lat="47.51719" lon="6.77529">
        <ele>390</ele>
        <time>2016-03-20T08:20:31.000Z</time>
      </trkpt>
      <trkpt lat="47.51718" lon="6.77536">
        <ele>390</ele>
        <time>2016-03-20T08:20:32.000Z</time>
      </trkpt>
      <trkpt lat="47.51717" lon="6.77542">
        <ele>390</ele>
        <time>2016-03-20T08:20:33.000Z</time>
      </trkpt>
      <trkpt lat="47.51715" lon="6.77547">
        <ele>390</ele>
        <time>2016-03-20T08:20:34.000Z</time>
      </trkpt>
      <trkpt lat="47.51712" lon="6.7755">
        <ele>390</ele>
        <time>2016-03-20T08:20:35.000Z</time>
      </trkpt>
      <trkpt lat="47.51709" lon="6.7755">
        <ele>390</ele>
        <time>2016-03-20T08:20:36.000Z</time>
      </trkpt>
      <trkpt lat="47.51703" lon="6.77543">
        <ele>390</ele>
        <time>2016-03-20T08:20:37.000Z</time>
      </trkpt>
      <trkpt lat="47.51698" lon="6.7754">
        <ele>390</ele>
        <time>2016-03-20T08:20:38.000Z</time>
      </trkpt>
      <trkpt lat="47.51694" lon="6.77536">
        <ele>390</ele>
        <time>2016-03-20T08:20:39.000Z</time>
      </trkpt>
      <trkpt lat="47.5169" lon="6.7753">
        <ele>390</ele>
        <time>2016-03-20T08:20:40.000Z</time>
      </trkpt>
      <trkpt lat="47.51685" lon="6.77525">
        <ele>390</ele>
        <time>2016-03-20T08:20:41.000Z</time>
      </trkpt>
      <trkpt lat="47.51679" lon="6.77519">
        <ele>390</ele>
        <time>2016-03-20T08:20:42.000Z</time>
      </trkpt>
      <trkpt lat="47.51674" lon="6.77514">
        <ele>389</ele>
        <time>2016-03-20T08:20:43.000Z</time>
      </trkpt>
      <trkpt lat="47.51668" lon="6.77507">
        <ele>389</ele>
        <time>2016-03-20T08:20:44.000Z</time>
      </trkpt>
      <trkpt lat="47.51663" lon="6.77501">
        <ele>389</ele>
        <time>2016-03-20T08:20:45.000Z</time>
      </trkpt>
      <trkpt lat="47.51657" lon="6.77495">
        <ele>388</ele>
        <time>2016-03-20T08:20:46.000Z</time>
      </trkpt>
      <trkpt lat="47.51651" lon="6.77487">
        <ele>387</ele>
        <time>2016-03-20T08:20:47.000Z</time>
      </trkpt>
      <trkpt lat="47.51646" lon="6.77481">
        <ele>387</ele>
        <time>2016-03-20T08:20:48.000Z</time>
      </trkpt>
      <trkpt lat="47.5164" lon="6.77474">
        <ele>386</ele>
        <time>2016-03-20T08:20:49.000Z</time>
      </trkpt>
      <trkpt lat="47.51635" lon="6.77466">
        <ele>386</ele>
        <time>2016-03-20T08:20:50.000Z</time>
      </trkpt>
      <trkpt lat="47.5163" lon="6.77459">
        <ele>386</ele>
        <time>2016-03-20T08:20:51.000Z</time>
      </trkpt>
      <trkpt lat="47.51624" lon="6.77452">
        <ele>386</ele>
        <time>2016-03-20T08:20:52.000Z</time>
      </trkpt>
      <trkpt lat="47.51618" lon="6.77446">
        <ele>385</ele>
        <time>2016-03-20T08:20:53.000Z</time>
      </trkpt>
      <trkpt lat="47.51612" lon="6.77438">
        <ele>385</ele>
        <time>2016-03-20T08:20:54.000Z</time>
      </trkpt>
      <trkpt lat="47.51605" lon="6.77431">
        <ele>385</ele>
        <time>2016-03-20T08:20:55.000Z</time>
      </trkpt>
      <trkpt lat="47.51599" lon="6.77423">
        <ele>384</ele>
        <time>2016-03-20T08:20:56.000Z</time>
      </trkpt>
      <trkpt lat="47.51592" lon="6.77415">
        <ele>383</ele>
        <time>2016-03-20T08:20:57.000Z</time>
      </trkpt>
      <trkpt lat="47.51586" lon="6.77407">
        <ele>383</ele>
        <time>2016-03-20T08:20:58.000Z</time>
      </trkpt>
      <trkpt lat="47.5158" lon="6.77399">
        <ele>382</ele>
        <time>2016-03-20T08:20:59.000Z</time>
      </trkpt>
      <trkpt lat="47.51573" lon="6.77392">
        <ele>381</ele>
        <time>2016-03-20T08:21:00.000Z</time>
      </trkpt>
      <trkpt lat="47.51566" lon="6.77384">
        <ele>381</ele>
        <time>2016-03-20T08:21:01.000Z</time>
      </trkpt>
      <trkpt lat="47.5156" lon="6.77376">
        <ele>381</ele>
        <time>2016-03-20T08:21:02.000Z</time>
      </trkpt>
      <trkpt lat="47.51553" lon="6.77368">
        <ele>381</ele>
        <time>2016-03-20T08:21:03.000Z</time>
      </trkpt>
      <trkpt lat="47.51546" lon="6.7736">
        <ele>380</ele>
        <time>2016-03-20T08:21:04.000Z</time>
      </trkpt>
      <trkpt lat="47.51539" lon="6.77352">
        <ele>380</ele>
        <time>2016-03-20T08:21:05.000Z</time>
      </trkpt>
      <trkpt lat="47.51531" lon="6.77343">
        <ele>380</ele>
        <time>2016-03-20T08:21:06.000Z</time>
      </trkpt>
      <trkpt lat="47.51524" lon="6.77335">
        <ele>380</ele>
        <time>2016-03-20T08:21:07.000Z</time>
      </trkpt>
      <trkpt lat="47.51517" lon="6.77326">
        <ele>378</ele>
        <time>2016-03-20T08:21:08.000Z</time>
      </trkpt>
      <trkpt lat="47.51509" lon="6.77317">
        <ele>378</ele>
        <time>2016-03-20T08:21:09.000Z</time>
      </trkpt>
      <trkpt lat="47.51502" lon="6.77307">
        <ele>378</ele>
        <time>2016-03-20T08:21:10.000Z</time>
      </trkpt>
      <trkpt lat="47.51498" lon="6.77295">
        <ele>377</ele>
        <time>2016-03-20T08:21:11.000Z</time>
      </trkpt>
      <trkpt lat="47.51493" lon="6.77283">
        <ele>377</ele>
        <time>2016-03-20T08:21:12.000Z</time>
      </trkpt>
      <trkpt lat="47.51491" lon="6.77269">
        <ele>376</ele>
        <time>2016-03-20T08:21:13.000Z</time>
      </trkpt>
      <trkpt lat="47.51489" lon="6.77256">
        <ele>376</ele>
        <time>2016-03-20T08:21:14.000Z</time>
      </trkpt>
      <trkpt lat="47.51489" lon="6.77243">
        <ele>376</ele>
        <time>2016-03-20T08:21:15.000Z</time>
      </trkpt>
      <trkpt lat="47.51487" lon="6.77231">
        <ele>375</ele>
        <time>2016-03-20T08:21:16.000Z</time>
      </trkpt>
      <trkpt lat="47.51487" lon="6.77219">
        <ele>375</ele>
        <time>2016-03-20T08:21:17.000Z</time>
      </trkpt>
      <trkpt lat="47.51485" lon="6.77208">
        <ele>375</ele>
        <time>2016-03-20T08:21:18.000Z</time>
      </trkpt>
      <trkpt lat="47.5148" lon="6.77201">
        <ele>375</ele>
        <time>2016-03-20T08:21:19.000Z</time>
      </trkpt>
      <trkpt lat="47.51473" lon="6.77199">
        <ele>375</ele>
        <time>2016-03-20T08:21:20.000Z</time>
      </trkpt>
      <trkpt lat="47.51465" lon="6.772">
        <ele>375</ele>
        <time>2016-03-20T08:21:21.000Z</time>
      </trkpt>
      <trkpt lat="47.51457" lon="6.77203">
        <ele>375</ele>
        <time>2016-03-20T08:21:22.000Z</time>
      </trkpt>
      <trkpt lat="47.51449" lon="6.77206">
        <ele>375</ele>
        <time>2016-03-20T08:21:23.000Z</time>
      </trkpt>
      <trkpt lat="47.51441" lon="6.77209">
        <ele>375</ele>
        <time>2016-03-20T08:21:24.000Z</time>
      </trkpt>
      <trkpt lat="47.51434" lon="6.77213">
        <ele>375</ele>
        <time>2016-03-20T08:21:25.000Z</time>
      </trkpt>
      <trkpt lat="47.51426" lon="6.77217">
        <ele>375</ele>
        <time>2016-03-20T08:21:26.000Z</time>
      </trkpt>
      <trkpt lat="47.5142" lon="6.77221">
        <ele>375</ele>
        <time>2016-03-20T08:21:27.000Z</time>
      </trkpt>
      <trkpt lat="47.51413" lon="6.77224">
        <ele>376</ele>
        <time>2016-03-20T08:21:28.000Z</time>
      </trkpt>
      <trkpt lat="47.51407" lon="6.77227">
        <ele>376</ele>
        <time>2016-03-20T08:21:29.000Z</time>
      </trkpt>
      <trkpt lat="47.51401" lon="6.77229">
        <ele>376</ele>
        <time>2016-03-20T08:21:30.000Z</time>
      </trkpt>
      <trkpt lat="47.51396" lon="6.77232">
        <ele>376</ele>
        <time>2016-03-20T08:21:31.000Z</time>
      </trkpt>
      <trkpt lat="47.51391" lon="6.77234">
        <ele>376</ele>
        <time>2016-03-20T08:21:32.000Z</time>
      </trkpt>
      <trkpt lat="47.51386" lon="6.77236">
        <ele>376</ele>
        <time>2016-03-20T08:21:33.000Z</time>
      </trkpt>
      <trkpt lat="47.51382" lon="6.77239">
        <ele>376</ele>
        <time>2016-03-20T08:21:34.000Z</time>
      </trkpt>
      <trkpt lat="47.51378" lon="6.77241">
        <ele>376</ele>
        <time>2016-03-20T08:21:35.000Z</time>
      </trkpt>
      <trkpt lat="47.51374" lon="6.77244">
        <ele>376</ele>
        <time>2016-03-20T08:21:36.000Z</time>
      </trkpt>
      <trkpt lat="47.5137" lon="6.77247">
        <ele>376</ele>
        <time>2016-03-20T08:21:37.000Z</time>
      </trkpt>
      <trkpt lat="47.51367" lon="6.77249">
        <ele>376</ele>
        <time>2016-03-20T08:21:38.000Z</time>
      </trkpt>
      <trkpt lat="47.51363" lon="6.77252">
        <ele>378</ele>
        <time>2016-03-20T08:21:39.000Z</time>
      </trkpt>
      <trkpt lat="47.5136" lon="6.77254">
        <ele>378</ele>
        <time>2016-03-20T08:21:40.000Z</time>
      </trkpt>
      <trkpt lat="47.51357" lon="6.77257">
        <ele>378</ele>
        <time>2016-03-20T08:21:41.000Z</time>
      </trkpt>
      <trkpt lat="47.51354" lon="6.77261">
        <ele>378</ele>
        <time>2016-03-20T08:21:42.000Z</time>
      </trkpt>
      <trkpt lat="47.51351" lon="6.77262">
        <ele>378</ele>
        <time>2016-03-20T08:21:43.000Z</time>
      </trkpt>
      <trkpt lat="47.51348" lon="6.77265">
        <ele>378</ele>
        <time>2016-03-20T08:21:44.000Z</time>
      </trkpt>
      <trkpt lat="47.51345" lon="6.77268">
        <ele>378</ele>
        <time>2016-03-20T08:21:45.000Z</time>
      </trkpt>
      <trkpt lat="47.51342" lon="6.7727">
        <ele>378</ele>
        <time>2016-03-20T08:21:46.000Z</time>
      </trkpt>
      <trkpt lat="47.51339" lon="6.77272">
        <ele>378</ele>
        <time>2016-03-20T08:21:47.000Z</time>
      </trkpt>
      <trkpt lat="47.51336" lon="6.77274">
        <ele>378</ele>
        <time>2016-03-20T08:21:48.000Z</time>
      </trkpt>
      <trkpt lat="47.51333" lon="6.77276">
        <ele>378</ele>
        <time>2016-03-20T08:21:49.000Z</time>
      </trkpt>
      <trkpt lat="47.5133" lon="6.77277">
        <ele>377</ele>
        <time>2016-03-20T08:21:50.000Z</time>
      </trkpt>
      <trkpt lat="47.51327" lon="6.77277">
        <ele>377</ele>
        <time>2016-03-20T08:21:51.000Z</time>
      </trkpt>
      <trkpt lat="47.51324" lon="6.77278">
        <ele>377</ele>
        <time>2016-03-20T08:21:52.000Z</time>
      </trkpt>
      <trkpt lat="47.51321" lon="6.77277">
        <ele>377</ele>
        <time>2016-03-20T08:21:53.000Z</time>
      </trkpt>
      <trkpt lat="47.51317" lon="6.77277">
        <ele>377</ele>
        <time>2016-03-20T08:21:54.000Z</time>
      </trkpt>
      <trkpt lat="47.51314" lon="6.77276">
        <ele>377</ele>
        <time>2016-03-20T08:21:55.000Z</time>
      </trkpt>
      <trkpt lat="47.5131" lon="6.77275">
        <ele>377</ele>
        <time>2016-03-20T08:21:56.000Z</time>
      </trkpt>
      <trkpt lat="47.51307" lon="6.77273">
        <ele>377</ele>
        <time>2016-03-20T08:21:57.000Z</time>
      </trkpt>
      <trkpt lat="47.51303" lon="6.77272">
        <ele>377</ele>
        <time>2016-03-20T08:21:58.000Z</time>
      </trkpt>
      <trkpt lat="47.513" lon="6.7727">
        <ele>377</ele>
        <time>2016-03-20T08:21:59.000Z</time>
      </trkpt>
      <trkpt lat="47.51296" lon="6.77268">
        <ele>377</ele>
        <time>2016-03-20T08:22:00.000Z</time>
      </trkpt>
      <trkpt lat="47.51293" lon="6.77267">
        <ele>377</ele>
        <time>2016-03-20T08:22:01.000Z</time>
      </trkpt>
      <trkpt lat="47.51289" lon="6.77264">
        <ele>377</ele>
        <time>2016-03-20T08:22:02.000Z</time>
      </trkpt>
      <trkpt lat="47.51286" lon="6.77262">
        <ele>377</ele>
        <time>2016-03-20T08:22:03.000Z</time>
      </trkpt>
      <trkpt lat="47.51282" lon="6.7726">
        <ele>377</ele>
        <time>2016-03-20T08:22:04.000Z</time>
      </trkpt>
      <trkpt lat="47.51279" lon="6.77257">
        <ele>377</ele>
        <time>2016-03-20T08:22:05.000Z</time>
      </trkpt>
      <trkpt lat="47.51275" lon="6.77254">
        <ele>377</ele>
        <time>2016-03-20T08:22:06.000Z</time>
      </trkpt>
      <trkpt lat="47.51272" lon="6.77251">
        <ele>378</ele>
        <time>2016-03-20T08:22:07.000Z</time>
      </trkpt>
      <trkpt lat="47.51269" lon="6.77247">
        <ele>378</ele>
        <time>2016-03-20T08:22:08.000Z</time>
      </trkpt>
      <trkpt lat="47.51265" lon="6.77244">
        <ele>378</ele>
        <time>2016-03-20T08:22:09.000Z</time>
      </trkpt>
      <trkpt lat="47.51262" lon="6.77241">
        <ele>378</ele>
        <time>2016-03-20T08:22:10.000Z</time>
      </trkpt>
      <trkpt lat="47.51259" lon="6.77234">
        <ele>378</ele>
        <time>2016-03-20T08:22:11.000Z</time>
      </trkpt>
      <trkpt lat="47.51256" lon="6.7723">
        <ele>378</ele>
        <time>2016-03-20T08:22:12.000Z</time>
      </trkpt>
      <trkpt lat="47.51253" lon="6.77225">
        <ele>378</ele>
        <time>2016-03-20T08:22:13.000Z</time>
      </trkpt>
      <trkpt lat="47.5125" lon="6.7722">
        <ele>378</ele>
        <time>2016-03-20T08:22:14.000Z</time>
      </trkpt>
      <trkpt lat="47.51247" lon="6.77214">
        <ele>376</ele>
        <time>2016-03-20T08:22:15.000Z</time>
      </trkpt>
      <trkpt lat="47.51245" lon="6.77208">
        <ele>376</ele>
        <time>2016-03-20T08:22:16.000Z</time>
      </trkpt>
      <trkpt lat="47.51242" lon="6.77201">
        <ele>376</ele>
        <time>2016-03-20T08:22:17.000Z</time>
      </trkpt>
      <trkpt lat="47.51239" lon="6.77194">
        <ele>377</ele>
        <time>2016-03-20T08:22:18.000Z</time>
      </trkpt>
      <trkpt lat="47.51235" lon="6.77188">
        <ele>377</ele>
        <time>2016-03-20T08:22:19.000Z</time>
      </trkpt>
      <trkpt lat="47.51232" lon="6.77181">
        <ele>377</ele>
        <time>2016-03-20T08:22:20.000Z</time>
      </trkpt>
      <trkpt lat="47.51228" lon="6.77174">
        <ele>377</ele>
        <time>2016-03-20T08:22:21.000Z</time>
      </trkpt>
      <trkpt lat="47.51224" lon="6.77167">
        <ele>377</ele>
        <time>2016-03-20T08:22:22.000Z</time>
      </trkpt>
      <trkpt lat="47.51221" lon="6.7716">
        <ele>378</ele>
        <time>2016-03-20T08:22:23.000Z</time>
      </trkpt>
      <trkpt lat="47.51217" lon="6.77153">
        <ele>378</ele>
        <time>2016-03-20T08:22:24.000Z</time>
      </trkpt>
      <trkpt lat="47.51213" lon="6.77145">
        <ele>378</ele>
        <time>2016-03-20T08:22:25.000Z</time>
      </trkpt>
      <trkpt lat="47.51209" lon="6.77137">
        <ele>378</ele>
        <time>2016-03-20T08:22:26.000Z</time>
      </trkpt>
      <trkpt lat="47.51204" lon="6.77129">
        <ele>378</ele>
        <time>2016-03-20T08:22:27.000Z</time>
      </trkpt>
      <trkpt lat="47.51199" lon="6.7712">
        <ele>378</ele>
        <time>2016-03-20T08:22:28.000Z</time>
      </trkpt>
      <trkpt lat="47.51194" lon="6.77112">
        <ele>378</ele>
        <time>2016-03-20T08:22:29.000Z</time>
      </trkpt>
      <trkpt lat="47.5119" lon="6.77102">
        <ele>378</ele>
        <time>2016-03-20T08:22:30.000Z</time>
      </trkpt>
      <trkpt lat="47.51186" lon="6.77093">
        <ele>378</ele>
        <time>2016-03-20T08:22:31.000Z</time>
      </trkpt>
      <trkpt lat="47.51181" lon="6.77085">
        <ele>378</ele>
        <time>2016-03-20T08:22:32.000Z</time>
      </trkpt>
      <trkpt lat="47.51176" lon="6.77076">
        <ele>377</ele>
        <time>2016-03-20T08:22:33.000Z</time>
      </trkpt>
      <trkpt lat="47.5117" lon="6.77069">
        <ele>377</ele>
        <time>2016-03-20T08:22:34.000Z</time>
      </trkpt>
      <trkpt lat="47.51164" lon="6.77061">
        <ele>376</ele>
        <time>2016-03-20T08:22:35.000Z</time>
      </trkpt>
      <trkpt lat="47.51158" lon="6.77055">
        <ele>376</ele>
        <time>2016-03-20T08:22:36.000Z</time>
      </trkpt>
      <trkpt lat="47.51151" lon="6.77048">
        <ele>376</ele>
        <time>2016-03-20T08:22:37.000Z</time>
      </trkpt>
      <trkpt lat="47.51144" lon="6.77042">
        <ele>376</ele>
        <time>2016-03-20T08:22:38.000Z</time>
      </trkpt>
      <trkpt lat="47.51137" lon="6.77036">
        <ele>375</ele>
        <time>2016-03-20T08:22:39.000Z</time>
      </trkpt>
      <trkpt lat="47.5113" lon="6.7703">
        <ele>375</ele>
        <time>2016-03-20T08:22:40.000Z</time>
      </trkpt>
      <trkpt lat="47.51124" lon="6.77024">
        <ele>375</ele>
        <time>2016-03-20T08:22:41.000Z</time>
      </trkpt>
      <trkpt lat="47.51117" lon="6.7702">
        <ele>375</ele>
        <time>2016-03-20T08:22:42.000Z</time>
      </trkpt>
      <trkpt lat="47.5111" lon="6.77014">
        <ele>375</ele>
        <time>2016-03-20T08:22:43.000Z</time>
      </trkpt>
      <trkpt lat="47.51104" lon="6.77009">
        <ele>375</ele>
        <time>2016-03-20T08:22:44.000Z</time>
      </trkpt>
      <trkpt lat="47.51097" lon="6.77003">
        <ele>375</ele>
        <time>2016-03-20T08:22:45.000Z</time>
      </trkpt>
      <trkpt lat="47.5109" lon="6.76997">
        <ele>375</ele>
        <time>2016-03-20T08:22:46.000Z</time>
      </trkpt>
      <trkpt lat="47.51084" lon="6.76991">
        <ele>375</ele>
        <time>2016-03-20T08:22:47.000Z</time>
      </trkpt>
      <trkpt lat="47.51077" lon="6.76985">
        <ele>375</ele>
        <time>2016-03-20T08:22:48.000Z</time>
      </trkpt>
      <trkpt lat="47.5107" lon="6.76979">
        <ele>375</ele>
        <time>2016-03-20T08:22:49.000Z</time>
      </trkpt>
      <trkpt lat="47.51065" lon="6.76975">
        <ele>375</ele>
        <time>2016-03-20T08:22:50.000Z</time>
      </trkpt>
      <trkpt lat="47.51059" lon="6.76968">
        <ele>375</ele>
        <time>2016-03-20T08:22:51.000Z</time>
      </trkpt>
      <trkpt lat="47.51052" lon="6.76962">
        <ele>375</ele>
        <time>2016-03-20T08:22:52.000Z</time>
      </trkpt>
      <trkpt lat="47.51047" lon="6.76957">
        <ele>375</ele>
        <time>2016-03-20T08:22:53.000Z</time>
      </trkpt>
      <trkpt lat="47.51041" lon="6.76952">
        <ele>375</ele>
        <time>2016-03-20T08:22:54.000Z</time>
      </trkpt>
      <trkpt lat="47.51034" lon="6.76947">
        <ele>375</ele>
        <time>2016-03-20T08:22:55.000Z</time>
      </trkpt>
      <trkpt lat="47.51028" lon="6.76943">
        <ele>375</ele>
        <time>2016-03-20T08:22:56.000Z</time>
      </trkpt>
      <trkpt lat="47.51024" lon="6.76939">
        <ele>375</ele>
        <time>2016-03-20T08:22:57.000Z</time>
      </trkpt>
      <trkpt lat="47.51019" lon="6.76932">
        <ele>375</ele>
        <time>2016-03-20T08:22:58.000Z</time>
      </trkpt>
      <trkpt lat="47.51016" lon="6.76925">
        <ele>375</ele>
        <time>2016-03-20T08:22:59.000Z</time>
      </trkpt>
      <trkpt lat="47.5101" lon="6.76922">
        <ele>375</ele>
        <time>2016-03-20T08:23:00.000Z</time>
      </trkpt>
      <trkpt lat="47.51006" lon="6.76919">
        <ele>376</ele>
        <time>2016-03-20T08:23:01.000Z</time>
      </trkpt>
      <trkpt lat="47.51002" lon="6.76916">
        <ele>376</ele>
        <time>2016-03-20T08:23:02.000Z</time>
      </trkpt>
      <trkpt lat="47.50997" lon="6.7691">
        <ele>376</ele>
        <time>2016-03-20T08:23:03.000Z</time>
      </trkpt>
      <trkpt lat="47.50994" lon="6.76901">
        <ele>377</ele>
        <time>2016-03-20T08:23:04.000Z</time>
      </trkpt>
      <trkpt lat="47.5099" lon="6.769">
        <ele>377</ele>
        <time>2016-03-20T08:23:05.000Z</time>
      </trkpt>
      <trkpt lat="47.50984" lon="6.76898">
        <ele>377</ele>
        <time>2016-03-20T08:23:06.000Z</time>
      </trkpt>
      <trkpt lat="47.50978" lon="6.76897">
        <ele>377</ele>
        <time>2016-03-20T08:23:07.000Z</time>
      </trkpt>
      <trkpt lat="47.50973" lon="6.76897">
        <ele>377</ele>
        <time>2016-03-20T08:23:08.000Z</time>
      </trkpt>
      <trkpt lat="47.50968" lon="6.76894">
        <ele>377</ele>
        <time>2016-03-20T08:23:09.000Z</time>
      </trkpt>
      <trkpt lat="47.50963" lon="6.76891">
        <ele>377</ele>
        <time>2016-03-20T08:23:10.000Z</time>
      </trkpt>
      <trkpt lat="47.50958" lon="6.76887">
        <ele>377</ele>
        <time>2016-03-20T08:23:11.000Z</time>
      </trkpt>
      <trkpt lat="47.50953" lon="6.76886">
        <ele>378</ele>
        <time>2016-03-20T08:23:12.000Z</time>
      </trkpt>
      <trkpt lat="47.5095" lon="6.76883">
        <ele>378</ele>
        <time>2016-03-20T08:23:13.000Z</time>
      </trkpt>
      <trkpt lat="47.50944" lon="6.76878">
        <ele>378</ele>
        <time>2016-03-20T08:23:14.000Z</time>
      </trkpt>
      <trkpt lat="47.50941" lon="6.76873">
        <ele>378</ele>
        <time>2016-03-20T08:23:15.000Z</time>
      </trkpt>
      <trkpt lat="47.50937" lon="6.76866">
        <ele>378</ele>
        <time>2016-03-20T08:23:16.000Z</time>
      </trkpt>
      <trkpt lat="47.50934" lon="6.7686">
        <ele>378</ele>
        <time>2016-03-20T08:23:17.000Z</time>
      </trkpt>
      <trkpt lat="47.50931" lon="6.76855">
        <ele>378</ele>
        <time>2016-03-20T08:23:18.000Z</time>
      </trkpt>
      <trkpt lat="47.50928" lon="6.76849">
        <ele>379</ele>
        <time>2016-03-20T08:23:19.000Z</time>
      </trkpt>
      <trkpt lat="47.50924" lon="6.76844">
        <ele>379</ele>
        <time>2016-03-20T08:23:20.000Z</time>
      </trkpt>
      <trkpt lat="47.50921" lon="6.76837">
        <ele>379</ele>
        <time>2016-03-20T08:23:21.000Z</time>
      </trkpt>
      <trkpt lat="47.50919" lon="6.76831">
        <ele>380</ele>
        <time>2016-03-20T08:23:22.000Z</time>
      </trkpt>
      <trkpt lat="47.50917" lon="6.76826">
        <ele>379</ele>
        <time>2016-03-20T08:23:23.000Z</time>
      </trkpt>
      <trkpt lat="47.50915" lon="6.7682">
        <ele>381</ele>
        <time>2016-03-20T08:23:24.000Z</time>
      </trkpt>
      <trkpt lat="47.50912" lon="6.76816">
        <ele>381</ele>
        <time>2016-03-20T08:23:25.000Z</time>
      </trkpt>
      <trkpt lat="47.50907" lon="6.76811">
        <ele>381</ele>
        <time>2016-03-20T08:23:26.000Z</time>
      </trkpt>
      <trkpt lat="47.50904" lon="6.76805">
        <ele>381</ele>
        <time>2016-03-20T08:23:27.000Z</time>
      </trkpt>
      <trkpt lat="47.50902" lon="6.768">
        <ele>381</ele>
        <time>2016-03-20T08:23:28.000Z</time>
      </trkpt>
      <trkpt lat="47.509" lon="6.76793">
        <ele>381</ele>
        <time>2016-03-20T08:23:29.000Z</time>
      </trkpt>
      <trkpt lat="47.50898" lon="6.76787">
        <ele>381</ele>
        <time>2016-03-20T08:23:30.000Z</time>
      </trkpt>
      <trkpt lat="47.50896" lon="6.7678">
        <ele>381</ele>
        <time>2016-03-20T08:23:31.000Z</time>
      </trkpt>
      <trkpt lat="47.50894" lon="6.76774">
        <ele>381</ele>
        <time>2016-03-20T08:23:32.000Z</time>
      </trkpt>
      <trkpt lat="47.50892" lon="6.76767">
        <ele>381</ele>
        <time>2016-03-20T08:23:33.000Z</time>
      </trkpt>
      <trkpt lat="47.50889" lon="6.7676">
        <ele>381</ele>
        <time>2016-03-20T08:23:34.000Z</time>
      </trkpt>
      <trkpt lat="47.50886" lon="6.76752">
        <ele>381</ele>
        <time>2016-03-20T08:23:35.000Z</time>
      </trkpt>
      <trkpt lat="47.50884" lon="6.76746">
        <ele>382</ele>
        <time>2016-03-20T08:23:36.000Z</time>
      </trkpt>
      <trkpt lat="47.50882" lon="6.76739">
        <ele>382</ele>
        <time>2016-03-20T08:23:37.000Z</time>
      </trkpt>
      <trkpt lat="47.50881" lon="6.76733">
        <ele>383</ele>
        <time>2016-03-20T08:23:38.000Z</time>
      </trkpt>
      <trkpt lat="47.50879" lon="6.76725">
        <ele>383</ele>
        <time>2016-03-20T08:23:39.000Z</time>
      </trkpt>
      <trkpt lat="47.50878" lon="6.76717">
        <ele>383</ele>
        <time>2016-03-20T08:23:40.000Z</time>
      </trkpt>
      <trkpt lat="47.50876" lon="6.7671">
        <ele>383</ele>
        <time>2016-03-20T08:23:41.001Z</time>
      </trkpt>
      <trkpt lat="47.50874" lon="6.7671">
        <ele>383</ele>
        <time>2016-03-20T08:23:42.000Z</time>
      </trkpt>
      <trkpt lat="47.50872" lon="6.76705">
        <ele>383</ele>
        <time>2016-03-20T08:23:43.000Z</time>
      </trkpt>
      <trkpt lat="47.50869" lon="6.76699">
        <ele>384</ele>
        <time>2016-03-20T08:23:44.000Z</time>
      </trkpt>
      <trkpt lat="47.50868" lon="6.76695">
        <ele>384</ele>
        <time>2016-03-20T08:23:45.000Z</time>
      </trkpt>
      <trkpt lat="47.50865" lon="6.76688">
        <ele>384</ele>
        <time>2016-03-20T08:23:46.000Z</time>
      </trkpt>
      <trkpt lat="47.50863" lon="6.76682">
        <ele>384</ele>
        <time>2016-03-20T08:23:47.000Z</time>
      </trkpt>
      <trkpt lat="47.50862" lon="6.76675">
        <ele>385</ele>
        <time>2016-03-20T08:23:48.000Z</time>
      </trkpt>
      <trkpt lat="47.50859" lon="6.7667">
        <ele>385</ele>
        <time>2016-03-20T08:23:49.000Z</time>
      </trkpt>
      <trkpt lat="47.50857" lon="6.76666">
        <ele>387</ele>
        <time>2016-03-20T08:23:50.000Z</time>
      </trkpt>
      <trkpt lat="47.50855" lon="6.76659">
        <ele>387</ele>
        <time>2016-03-20T08:23:51.000Z</time>
      </trkpt>
      <trkpt lat="47.50854" lon="6.76653">
        <ele>387</ele>
        <time>2016-03-20T08:23:52.000Z</time>
      </trkpt>
      <trkpt lat="47.50851" lon="6.76648">
        <ele>387</ele>
        <time>2016-03-20T08:23:53.000Z</time>
      </trkpt>
      <trkpt lat="47.50848" lon="6.76642">
        <ele>387</ele>
        <time>2016-03-20T08:23:54.000Z</time>
      </trkpt>
      <trkpt lat="47.50847" lon="6.76638">
        <ele>387</ele>
        <time>2016-03-20T08:23:55.000Z</time>
      </trkpt>
      <trkpt lat="47.50845" lon="6.76634">
        <ele>387</ele>
        <time>2016-03-20T08:23:56.000Z</time>
      </trkpt>
      <trkpt lat="47.50843" lon="6.76629">
        <ele>387</ele>
        <time>2016-03-20T08:23:57.000Z</time>
      </trkpt>
      <trkpt lat="47.50841" lon="6.76626">
        <ele>387</ele>
        <time>2016-03-20T08:23:58.000Z</time>
      </trkpt>
      <trkpt lat="47.5084" lon="6.76622">
        <ele>387</ele>
        <time>2016-03-20T08:23:59.000Z</time>
      </trkpt>
      <trkpt lat="47.50839" lon="6.76617">
        <ele>387</ele>
        <time>2016-03-20T08:24:00.000Z</time>
      </trkpt>
      <trkpt lat="47.50838" lon="6.76613">
        <ele>387</ele>
        <time>2016-03-20T08:24:01.000Z</time>
      </trkpt>
      <trkpt lat="47.50837" lon="6.76608">
        <ele>387</ele>
        <time>2016-03-20T08:24:02.000Z</time>
      </trkpt>
      <trkpt lat="47.50835" lon="6.76604">
        <ele>388</ele>
        <time>2016-03-20T08:24:03.000Z</time>
      </trkpt>
      <trkpt lat="47.50833" lon="6.766">
        <ele>388</ele>
        <time>2016-03-20T08:24:04.000Z</time>
      </trkpt>
      <trkpt lat="47.50831" lon="6.76596">
        <ele>390</ele>
        <time>2016-03-20T08:24:05.000Z</time>
      </trkpt>
      <trkpt lat="47.50829" lon="6.76592">
        <ele>390</ele>
        <time>2016-03-20T08:24:06.000Z</time>
      </trkpt>
      <trkpt lat="47.50827" lon="6.76589">
        <ele>390</ele>
        <time>2016-03-20T08:24:07.000Z</time>
      </trkpt>
      <trkpt lat="47.50825" lon="6.76586">
        <ele>390</ele>
        <time>2016-03-20T08:24:08.000Z</time>
      </trkpt>
      <trkpt lat="47.50822" lon="6.76585">
        <ele>390</ele>
        <time>2016-03-20T08:24:09.000Z</time>
      </trkpt>
      <trkpt lat="47.5082" lon="6.76585">
        <ele>390</ele>
        <time>2016-03-20T08:24:10.000Z</time>
      </trkpt>
      <trkpt lat="47.50817" lon="6.76586">
        <ele>390</ele>
        <time>2016-03-20T08:24:11.000Z</time>
      </trkpt>
      <trkpt lat="47.50815" lon="6.76586">
        <ele>390</ele>
        <time>2016-03-20T08:24:12.000Z</time>
      </trkpt>
      <trkpt lat="47.50811" lon="6.76582">
        <ele>391</ele>
        <time>2016-03-20T08:24:14.000Z</time>
      </trkpt>
      <trkpt lat="47.50809" lon="6.76579">
        <ele>391</ele>
        <time>2016-03-20T08:24:15.000Z</time>
      </trkpt>
      <trkpt lat="47.50807" lon="6.76578">
        <ele>391</ele>
        <time>2016-03-20T08:24:16.000Z</time>
      </trkpt>
      <trkpt lat="47.50804" lon="6.76578">
        <ele>391</ele>
        <time>2016-03-20T08:24:17.000Z</time>
      </trkpt>
      <trkpt lat="47.50801" lon="6.76578">
        <ele>391</ele>
        <time>2016-03-20T08:24:18.000Z</time>
      </trkpt>
      <trkpt lat="47.50797" lon="6.7658">
        <ele>392</ele>
        <time>2016-03-20T08:24:19.000Z</time>
      </trkpt>
      <trkpt lat="47.50794" lon="6.76581">
        <ele>392</ele>
        <time>2016-03-20T08:24:20.000Z</time>
      </trkpt>
      <trkpt lat="47.50792" lon="6.76581">
        <ele>392</ele>
        <time>2016-03-20T08:24:21.000Z</time>
      </trkpt>
      <trkpt lat="47.50788" lon="6.76583">
        <ele>392</ele>
        <time>2016-03-20T08:24:23.000Z</time>
      </trkpt>
      <trkpt lat="47.50786" lon="6.76583">
        <ele>391</ele>
        <time>2016-03-20T08:24:23.999Z</time>
      </trkpt>
      <trkpt lat="47.50784" lon="6.76587">
        <ele>391</ele>
        <time>2016-03-20T08:24:35.000Z</time>
      </trkpt>
      <trkpt lat="47.5078" lon="6.76589">
        <ele>392</ele>
        <time>2016-03-20T08:24:36.000Z</time>
      </trkpt>
      <trkpt lat="47.50777" lon="6.76591">
        <ele>392</ele>
        <time>2016-03-20T08:24:37.000Z</time>
      </trkpt>
      <trkpt lat="47.50775" lon="6.76594">
        <ele>392</ele>
        <time>2016-03-20T08:24:38.000Z</time>
      </trkpt>
      <trkpt lat="47.50772" lon="6.76596">
        <ele>392</ele>
        <time>2016-03-20T08:24:39.000Z</time>
      </trkpt>
      <trkpt lat="47.5077" lon="6.76599">
        <ele>392</ele>
        <time>2016-03-20T08:24:40.000Z</time>
      </trkpt>
      <trkpt lat="47.50767" lon="6.766">
        <ele>392</ele>
        <time>2016-03-20T08:24:41.000Z</time>
      </trkpt>
      <trkpt lat="47.50763" lon="6.766">
        <ele>392</ele>
        <time>2016-03-20T08:24:42.000Z</time>
      </trkpt>
      <trkpt lat="47.5076" lon="6.766">
        <ele>392</ele>
        <time>2016-03-20T08:24:43.000Z</time>
      </trkpt>
      <trkpt lat="47.50756" lon="6.76602">
        <ele>392</ele>
        <time>2016-03-20T08:24:44.000Z</time>
      </trkpt>
      <trkpt lat="47.50753" lon="6.76604">
        <ele>392</ele>
        <time>2016-03-20T08:24:45.000Z</time>
      </trkpt>
      <trkpt lat="47.5075" lon="6.76607">
        <ele>394</ele>
        <time>2016-03-20T08:24:46.000Z</time>
      </trkpt>
      <trkpt lat="47.50747" lon="6.76609">
        <ele>394</ele>
        <time>2016-03-20T08:24:47.000Z</time>
      </trkpt>
      <trkpt lat="47.50745" lon="6.7661">
        <ele>394</ele>
        <time>2016-03-20T08:24:48.000Z</time>
      </trkpt>
      <trkpt lat="47.50742" lon="6.76609">
        <ele>394</ele>
        <time>2016-03-20T08:24:49.000Z</time>
      </trkpt>
      <trkpt lat="47.50739" lon="6.76608">
        <ele>394</ele>
        <time>2016-03-20T08:24:50.000Z</time>
      </trkpt>
      <trkpt lat="47.50735" lon="6.76606">
        <ele>394</ele>
        <time>2016-03-20T08:24:51.000Z</time>
      </trkpt>
      <trkpt lat="47.50731" lon="6.76605">
        <ele>394</ele>
        <time>2016-03-20T08:24:52.000Z</time>
      </trkpt>
      <trkpt lat="47.50726" lon="6.76603">
        <ele>394</ele>
        <time>2016-03-20T08:24:53.000Z</time>
      </trkpt>
      <trkpt lat="47.50722" lon="6.76601">
        <ele>394</ele>
        <time>2016-03-20T08:24:54.000Z</time>
      </trkpt>
      <trkpt lat="47.50717" lon="6.76599">
        <ele>394</ele>
        <time>2016-03-20T08:24:55.000Z</time>
      </trkpt>
      <trkpt lat="47.50713" lon="6.76598">
        <ele>395</ele>
        <time>2016-03-20T08:24:56.000Z</time>
      </trkpt>
      <trkpt lat="47.50709" lon="6.76596">
        <ele>395</ele>
        <time>2016-03-20T08:24:57.000Z</time>
      </trkpt>
      <trkpt lat="47.50705" lon="6.76595">
        <ele>395</ele>
        <time>2016-03-20T08:24:58.000Z</time>
      </trkpt>
      <trkpt lat="47.50702" lon="6.76594">
        <ele>395</ele>
        <time>2016-03-20T08:24:59.000Z</time>
      </trkpt>
      <trkpt lat="47.50698" lon="6.76594">
        <ele>395</ele>
        <time>2016-03-20T08:25:00.000Z</time>
      </trkpt>
      <trkpt lat="47.50695" lon="6.76594">
        <ele>395</ele>
        <time>2016-03-20T08:25:01.000Z</time>
      </trkpt>
      <trkpt lat="47.50691" lon="6.76595">
        <ele>395</ele>
        <time>2016-03-20T08:25:02.000Z</time>
      </trkpt>
      <trkpt lat="47.50688" lon="6.76595">
        <ele>395</ele>
        <time>2016-03-20T08:25:02.999Z</time>
      </trkpt>
      <trkpt lat="47.50684" lon="6.76596">
        <ele>395</ele>
        <time>2016-03-20T08:25:04.000Z</time>
      </trkpt>
      <trkpt lat="47.50681" lon="6.76596">
        <ele>396</ele>
        <time>2016-03-20T08:25:05.000Z</time>
      </trkpt>
      <trkpt lat="47.50678" lon="6.76597">
        <ele>396</ele>
        <time>2016-03-20T08:25:06.000Z</time>
      </trkpt>
      <trkpt lat="47.50675" lon="6.76597">
        <ele>396</ele>
        <time>2016-03-20T08:25:07.000Z</time>
      </trkpt>
      <trkpt lat="47.50672" lon="6.76597">
        <ele>396</ele>
        <time>2016-03-20T08:25:08.000Z</time>
      </trkpt>
      <trkpt lat="47.50669" lon="6.76598">
        <ele>396</ele>
        <time>2016-03-20T08:25:09.000Z</time>
      </trkpt>
      <trkpt lat="47.50665" lon="6.76599">
        <ele>397</ele>
        <time>2016-03-20T08:25:10.000Z</time>
      </trkpt>
      <trkpt lat="47.50661" lon="6.76597">
        <ele>397</ele>
        <time>2016-03-20T08:25:11.000Z</time>
      </trkpt>
      <trkpt lat="47.50658" lon="6.76598">
        <ele>397</ele>
        <time>2016-03-20T08:25:12.000Z</time>
      </trkpt>
      <trkpt lat="47.50655" lon="6.766">
        <ele>397</ele>
        <time>2016-03-20T08:25:13.000Z</time>
      </trkpt>
      <trkpt lat="47.50651" lon="6.76602">
        <ele>397</ele>
        <time>2016-03-20T08:25:14.000Z</time>
      </trkpt>
      <trkpt lat="47.50648" lon="6.76603">
        <ele>397</ele>
        <time>2016-03-20T08:25:15.000Z</time>
      </trkpt>
      <trkpt lat="47.50644" lon="6.76604">
        <ele>397</ele>
        <time>2016-03-20T08:25:16.000Z</time>
      </trkpt>
      <trkpt lat="47.50641" lon="6.76606">
        <ele>397</ele>
        <time>2016-03-20T08:25:17.000Z</time>
      </trkpt>
      <trkpt lat="47.50638" lon="6.76607">
        <ele>397</ele>
        <time>2016-03-20T08:25:18.000Z</time>
      </trkpt>
      <trkpt lat="47.50635" lon="6.76607">
        <ele>397</ele>
        <time>2016-03-20T08:25:19.000Z</time>
      </trkpt>
      <trkpt lat="47.50632" lon="6.76609">
        <ele>397</ele>
        <time>2016-03-20T08:25:20.000Z</time>
      </trkpt>
      <trkpt lat="47.50629" lon="6.76611">
        <ele>397</ele>
        <time>2016-03-20T08:25:21.000Z</time>
      </trkpt>
      <trkpt lat="47.50626" lon="6.76614">
        <ele>397</ele>
        <time>2016-03-20T08:25:22.000Z</time>
      </trkpt>
      <trkpt lat="47.50622" lon="6.76616">
        <ele>397</ele>
        <time>2016-03-20T08:25:23.000Z</time>
      </trkpt>
      <trkpt lat="47.50619" lon="6.76618">
        <ele>397</ele>
        <time>2016-03-20T08:25:24.000Z</time>
      </trkpt>
      <trkpt lat="47.50615" lon="6.76621">
        <ele>397</ele>
        <time>2016-03-20T08:25:25.000Z</time>
      </trkpt>
      <trkpt lat="47.50611" lon="6.76623">
        <ele>397</ele>
        <time>2016-03-20T08:25:26.000Z</time>
      </trkpt>
      <trkpt lat="47.50607" lon="6.76624">
        <ele>398</ele>
        <time>2016-03-20T08:25:27.000Z</time>
      </trkpt>
      <trkpt lat="47.50603" lon="6.76624">
        <ele>398</ele>
        <time>2016-03-20T08:25:28.000Z</time>
      </trkpt>
      <trkpt lat="47.50599" lon="6.76624">
        <ele>398</ele>
        <time>2016-03-20T08:25:29.000Z</time>
      </trkpt>
      <trkpt lat="47.50596" lon="6.76624">
        <ele>398</ele>
        <time>2016-03-20T08:25:30.000Z</time>
      </trkpt>
      <trkpt lat="47.50593" lon="6.76624">
        <ele>398</ele>
        <time>2016-03-20T08:25:31.000Z</time>
      </trkpt>
      <trkpt lat="47.50589" lon="6.76624">
        <ele>398</ele>
        <time>2016-03-20T08:25:32.000Z</time>
      </trkpt>
      <trkpt lat="47.50586" lon="6.76625">
        <ele>398</ele>
        <time>2016-03-20T08:25:33.000Z</time>
      </trkpt>
      <trkpt lat="47.50582" lon="6.76626">
        <ele>399</ele>
        <time>2016-03-20T08:25:34.000Z</time>
      </trkpt>
      <trkpt lat="47.50579" lon="6.76628">
        <ele>399</ele>
        <time>2016-03-20T08:25:35.000Z</time>
      </trkpt>
      <trkpt lat="47.50575" lon="6.7663">
        <ele>399</ele>
        <time>2016-03-20T08:25:36.000Z</time>
      </trkpt>
      <trkpt lat="47.50572" lon="6.76632">
        <ele>399</ele>
        <time>2016-03-20T08:25:37.000Z</time>
      </trkpt>
      <trkpt lat="47.50568" lon="6.76634">
        <ele>399</ele>
        <time>2016-03-20T08:25:38.000Z</time>
      </trkpt>
      <trkpt lat="47.50565" lon="6.76634">
        <ele>399</ele>
        <time>2016-03-20T08:25:39.000Z</time>
      </trkpt>
      <trkpt lat="47.50561" lon="6.76635">
        <ele>399</ele>
        <time>2016-03-20T08:25:40.000Z</time>
      </trkpt>
      <trkpt lat="47.50557" lon="6.76635">
        <ele>399</ele>
        <time>2016-03-20T08:25:41.000Z</time>
      </trkpt>
      <trkpt lat="47.50553" lon="6.76635">
        <ele>399</ele>
        <time>2016-03-20T08:25:42.000Z</time>
      </trkpt>
      <trkpt lat="47.50549" lon="6.76636">
        <ele>399</ele>
        <time>2016-03-20T08:25:43.000Z</time>
      </trkpt>
      <trkpt lat="47.50545" lon="6.76636">
        <ele>399</ele>
        <time>2016-03-20T08:25:44.000Z</time>
      </trkpt>
      <trkpt lat="47.50542" lon="6.76637">
        <ele>399</ele>
        <time>2016-03-20T08:25:45.000Z</time>
      </trkpt>
      <trkpt lat="47.50538" lon="6.76637">
        <ele>399</ele>
        <time>2016-03-20T08:25:46.000Z</time>
      </trkpt>
      <trkpt lat="47.50534" lon="6.76636">
        <ele>399</ele>
        <time>2016-03-20T08:25:47.000Z</time>
      </trkpt>
      <trkpt lat="47.50529" lon="6.76638">
        <ele>399</ele>
        <time>2016-03-20T08:25:48.000Z</time>
      </trkpt>
      <trkpt lat="47.50524" lon="6.76638">
        <ele>399</ele>
        <time>2016-03-20T08:25:49.000Z</time>
      </trkpt>
      <trkpt lat="47.50518" lon="6.76637">
        <ele>399</ele>
        <time>2016-03-20T08:25:50.000Z</time>
      </trkpt>
      <trkpt lat="47.50513" lon="6.76639">
        <ele>399</ele>
        <time>2016-03-20T08:25:51.000Z</time>
      </trkpt>
      <trkpt lat="47.50509" lon="6.76641">
        <ele>399</ele>
        <time>2016-03-20T08:25:52.000Z</time>
      </trkpt>
      <trkpt lat="47.50503" lon="6.76642">
        <ele>399</ele>
        <time>2016-03-20T08:25:53.000Z</time>
      </trkpt>
      <trkpt lat="47.50497" lon="6.76644">
        <ele>399</ele>
        <time>2016-03-20T08:25:54.000Z</time>
      </trkpt>
      <trkpt lat="47.50492" lon="6.76646">
        <ele>399</ele>
        <time>2016-03-20T08:25:55.000Z</time>
      </trkpt>
      <trkpt lat="47.50487" lon="6.76648">
        <ele>399</ele>
        <time>2016-03-20T08:25:56.000Z</time>
      </trkpt>
      <trkpt lat="47.5048" lon="6.76649">
        <ele>399</ele>
        <time>2016-03-20T08:25:57.000Z</time>
      </trkpt>
      <trkpt lat="47.50475" lon="6.76653">
        <ele>398</ele>
        <time>2016-03-20T08:25:58.000Z</time>
      </trkpt>
      <trkpt lat="47.5047" lon="6.76657">
        <ele>398</ele>
        <time>2016-03-20T08:25:59.000Z</time>
      </trkpt>
      <trkpt lat="47.50464" lon="6.76659">
        <ele>398</ele>
        <time>2016-03-20T08:26:00.000Z</time>
      </trkpt>
      <trkpt lat="47.50459" lon="6.76662">
        <ele>398</ele>
        <time>2016-03-20T08:26:01.000Z</time>
      </trkpt>
      <trkpt lat="47.50454" lon="6.76667">
        <ele>397</ele>
        <time>2016-03-20T08:26:02.000Z</time>
      </trkpt>
      <trkpt lat="47.50449" lon="6.76671">
        <ele>397</ele>
        <time>2016-03-20T08:26:03.000Z</time>
      </trkpt>
      <trkpt lat="47.50443" lon="6.76674">
        <ele>397</ele>
        <time>2016-03-20T08:26:04.000Z</time>
      </trkpt>
      <trkpt lat="47.50437" lon="6.76677">
        <ele>397</ele>
        <time>2016-03-20T08:26:05.000Z</time>
      </trkpt>
      <trkpt lat="47.50431" lon="6.76678">
        <ele>397</ele>
        <time>2016-03-20T08:26:06.000Z</time>
      </trkpt>
      <trkpt lat="47.50425" lon="6.76679">
        <ele>397</ele>
        <time>2016-03-20T08:26:07.000Z</time>
      </trkpt>
      <trkpt lat="47.50419" lon="6.7668">
        <ele>397</ele>
        <time>2016-03-20T08:26:07.999Z</time>
      </trkpt>
      <trkpt lat="47.50415" lon="6.76684">
        <ele>397</ele>
        <time>2016-03-20T08:26:09.000Z</time>
      </trkpt>
      <trkpt lat="47.5041" lon="6.76686">
        <ele>397</ele>
        <time>2016-03-20T08:26:10.000Z</time>
      </trkpt>
      <trkpt lat="47.50404" lon="6.76688">
        <ele>397</ele>
        <time>2016-03-20T08:26:11.000Z</time>
      </trkpt>
      <trkpt lat="47.50398" lon="6.7669">
        <ele>397</ele>
        <time>2016-03-20T08:26:12.000Z</time>
      </trkpt>
      <trkpt lat="47.50393" lon="6.76693">
        <ele>397</ele>
        <time>2016-03-20T08:26:13.000Z</time>
      </trkpt>
      <trkpt lat="47.50388" lon="6.76695">
        <ele>397</ele>
        <time>2016-03-20T08:26:14.000Z</time>
      </trkpt>
      <trkpt lat="47.50382" lon="6.76696">
        <ele>397</ele>
        <time>2016-03-20T08:26:15.000Z</time>
      </trkpt>
      <trkpt lat="47.50377" lon="6.76698">
        <ele>397</ele>
        <time>2016-03-20T08:26:16.000Z</time>
      </trkpt>
      <trkpt lat="47.50373" lon="6.76701">
        <ele>397</ele>
        <time>2016-03-20T08:26:17.000Z</time>
      </trkpt>
      <trkpt lat="47.50368" lon="6.76703">
        <ele>397</ele>
        <time>2016-03-20T08:26:18.000Z</time>
      </trkpt>
      <trkpt lat="47.50364" lon="6.76704">
        <ele>397</ele>
        <time>2016-03-20T08:26:19.000Z</time>
      </trkpt>
      <trkpt lat="47.50359" lon="6.76705">
        <ele>397</ele>
        <time>2016-03-20T08:26:20.000Z</time>
      </trkpt>
      <trkpt lat="47.50355" lon="6.76708">
        <ele>397</ele>
        <time>2016-03-20T08:26:21.000Z</time>
      </trkpt>
      <trkpt lat="47.5035" lon="6.7671">
        <ele>398</ele>
        <time>2016-03-20T08:26:22.000Z</time>
      </trkpt>
      <trkpt lat="47.50344" lon="6.76716">
        <ele>398</ele>
        <time>2016-03-20T08:26:23.000Z</time>
      </trkpt>
      <trkpt lat="47.50339" lon="6.76717">
        <ele>398</ele>
        <time>2016-03-20T08:26:24.000Z</time>
      </trkpt>
      <trkpt lat="47.50334" lon="6.76718">
        <ele>398</ele>
        <time>2016-03-20T08:26:25.000Z</time>
      </trkpt>
      <trkpt lat="47.5033" lon="6.76718">
        <ele>398</ele>
        <time>2016-03-20T08:26:26.000Z</time>
      </trkpt>
      <trkpt lat="47.50325" lon="6.76721">
        <ele>398</ele>
        <time>2016-03-20T08:26:27.000Z</time>
      </trkpt>
      <trkpt lat="47.5032" lon="6.76726">
        <ele>398</ele>
        <time>2016-03-20T08:26:28.000Z</time>
      </trkpt>
      <trkpt lat="47.50314" lon="6.76727">
        <ele>398</ele>
        <time>2016-03-20T08:26:29.000Z</time>
      </trkpt>
      <trkpt lat="47.50309" lon="6.76727">
        <ele>398</ele>
        <time>2016-03-20T08:26:30.000Z</time>
      </trkpt>
      <trkpt lat="47.50304" lon="6.76729">
        <ele>398</ele>
        <time>2016-03-20T08:26:31.000Z</time>
      </trkpt>
      <trkpt lat="47.50299" lon="6.7673">
        <ele>399</ele>
        <time>2016-03-20T08:26:32.000Z</time>
      </trkpt>
      <trkpt lat="47.50296" lon="6.76731">
        <ele>399</ele>
        <time>2016-03-20T08:26:33.000Z</time>
      </trkpt>
      <trkpt lat="47.50291" lon="6.76732">
        <ele>399</ele>
        <time>2016-03-20T08:26:34.000Z</time>
      </trkpt>
      <trkpt lat="47.50288" lon="6.76734">
        <ele>399</ele>
        <time>2016-03-20T08:26:35.000Z</time>
      </trkpt>
      <trkpt lat="47.50283" lon="6.76734">
        <ele>399</ele>
        <time>2016-03-20T08:26:36.000Z</time>
      </trkpt>
      <trkpt lat="47.50278" lon="6.76733">
        <ele>399</ele>
        <time>2016-03-20T08:26:37.000Z</time>
      </trkpt>
      <trkpt lat="47.50273" lon="6.76734">
        <ele>399</ele>
        <time>2016-03-20T08:26:38.000Z</time>
      </trkpt>
      <trkpt lat="47.50272" lon="6.76739">
        <ele>399</ele>
        <time>2016-03-20T08:26:39.000Z</time>
      </trkpt>
      <trkpt lat="47.50268" lon="6.7674">
        <ele>399</ele>
        <time>2016-03-20T08:26:40.000Z</time>
      </trkpt>
      <trkpt lat="47.50265" lon="6.76741">
        <ele>399</ele>
        <time>2016-03-20T08:26:41.000Z</time>
      </trkpt>
      <trkpt lat="47.50262" lon="6.76741">
        <ele>399</ele>
        <time>2016-03-20T08:26:42.000Z</time>
      </trkpt>
      <trkpt lat="47.50258" lon="6.76742">
        <ele>399</ele>
        <time>2016-03-20T08:26:43.000Z</time>
      </trkpt>
      <trkpt lat="47.50255" lon="6.7674">
        <ele>399</ele>
        <time>2016-03-20T08:26:44.000Z</time>
      </trkpt>
      <trkpt lat="47.50251" lon="6.76739">
        <ele>399</ele>
        <time>2016-03-20T08:26:45.000Z</time>
      </trkpt>
      <trkpt lat="47.50247" lon="6.76737">
        <ele>401</ele>
        <time>2016-03-20T08:26:45.999Z</time>
      </trkpt>
      <trkpt lat="47.50246" lon="6.76733">
        <ele>401</ele>
        <time>2016-03-20T08:26:47.000Z</time>
      </trkpt>
      <trkpt lat="47.50243" lon="6.76727">
        <ele>401</ele>
        <time>2016-03-20T08:26:48.000Z</time>
      </trkpt>
      <trkpt lat="47.5024" lon="6.76724">
        <ele>401</ele>
        <time>2016-03-20T08:26:49.000Z</time>
      </trkpt>
      <trkpt lat="47.50238" lon="6.7672">
        <ele>401</ele>
        <time>2016-03-20T08:26:50.000Z</time>
      </trkpt>
      <trkpt lat="47.50235" lon="6.76716">
        <ele>401</ele>
        <time>2016-03-20T08:26:51.000Z</time>
      </trkpt>
      <trkpt lat="47.50233" lon="6.76712">
        <ele>402</ele>
        <time>2016-03-20T08:26:52.000Z</time>
      </trkpt>
      <trkpt lat="47.50231" lon="6.76708">
        <ele>402</ele>
        <time>2016-03-20T08:26:53.000Z</time>
      </trkpt>
      <trkpt lat="47.50229" lon="6.76704">
        <ele>402</ele>
        <time>2016-03-20T08:26:54.001Z</time>
      </trkpt>
      <trkpt lat="47.50227" lon="6.76699">
        <ele>402</ele>
        <time>2016-03-20T08:26:55.000Z</time>
      </trkpt>
      <trkpt lat="47.50226" lon="6.76695">
        <ele>402</ele>
        <time>2016-03-20T08:26:56.000Z</time>
      </trkpt>
      <trkpt lat="47.50224" lon="6.7669">
        <ele>401</ele>
        <time>2016-03-20T08:26:57.000Z</time>
      </trkpt>
      <trkpt lat="47.50223" lon="6.76685">
        <ele>401</ele>
        <time>2016-03-20T08:26:58.000Z</time>
      </trkpt>
      <trkpt lat="47.50223" lon="6.76679">
        <ele>401</ele>
        <time>2016-03-20T08:26:59.000Z</time>
      </trkpt>
      <trkpt lat="47.50222" lon="6.76674">
        <ele>401</ele>
        <time>2016-03-20T08:27:00.000Z</time>
      </trkpt>
      <trkpt lat="47.50223" lon="6.76667">
        <ele>401</ele>
        <time>2016-03-20T08:27:01.000Z</time>
      </trkpt>
      <trkpt lat="47.50221" lon="6.7666">
        <ele>401</ele>
        <time>2016-03-20T08:27:02.000Z</time>
      </trkpt>
      <trkpt lat="47.5022" lon="6.76654">
        <ele>401</ele>
        <time>2016-03-20T08:27:03.000Z</time>
      </trkpt>
      <trkpt lat="47.50219" lon="6.76648">
        <ele>401</ele>
        <time>2016-03-20T08:27:04.000Z</time>
      </trkpt>
      <trkpt lat="47.50219" lon="6.76643">
        <ele>401</ele>
        <time>2016-03-20T08:27:05.000Z</time>
      </trkpt>
      <trkpt lat="47.50216" lon="6.76639">
        <ele>402</ele>
        <time>2016-03-20T08:27:06.000Z</time>
      </trkpt>
      <trkpt lat="47.50214" lon="6.76634">
        <ele>402</ele>
        <time>2016-03-20T08:27:07.000Z</time>
      </trkpt>
      <trkpt lat="47.50214" lon="6.76627">
        <ele>402</ele>
        <time>2016-03-20T08:27:08.000Z</time>
      </trkpt>
      <trkpt lat="47.50213" lon="6.76621">
        <ele>402</ele>
        <time>2016-03-20T08:27:09.000Z</time>
      </trkpt>
      <trkpt lat="47.50211" lon="6.76616">
        <ele>402</ele>
        <time>2016-03-20T08:27:10.000Z</time>
      </trkpt>
      <trkpt lat="47.5021" lon="6.76611">
        <ele>402</ele>
        <time>2016-03-20T08:27:11.000Z</time>
      </trkpt>
      <trkpt lat="47.50209" lon="6.76606">
        <ele>402</ele>
        <time>2016-03-20T08:27:12.000Z</time>
      </trkpt>
      <trkpt lat="47.50209" lon="6.766">
        <ele>402</ele>
        <time>2016-03-20T08:27:13.000Z</time>
      </trkpt>
      <trkpt lat="47.50208" lon="6.76595">
        <ele>402</ele>
        <time>2016-03-20T08:27:14.000Z</time>
      </trkpt>
      <trkpt lat="47.50207" lon="6.76591">
        <ele>402</ele>
        <time>2016-03-20T08:27:15.000Z</time>
      </trkpt>
      <trkpt lat="47.50206" lon="6.76587">
        <ele>402</ele>
        <time>2016-03-20T08:27:16.000Z</time>
      </trkpt>
      <trkpt lat="47.50205" lon="6.76583">
        <ele>402</ele>
        <time>2016-03-20T08:27:17.000Z</time>
      </trkpt>
      <trkpt lat="47.50204" lon="6.7658">
        <ele>402</ele>
        <time>2016-03-20T08:27:18.000Z</time>
      </trkpt>
      <trkpt lat="47.50204" lon="6.76576">
        <ele>402</ele>
        <time>2016-03-20T08:27:19.000Z</time>
      </trkpt>
      <trkpt lat="47.50205" lon="6.76572">
        <ele>402</ele>
        <time>2016-03-20T08:27:20.000Z</time>
      </trkpt>
      <trkpt lat="47.50207" lon="6.7657">
        <ele>401</ele>
        <time>2016-03-20T08:27:21.000Z</time>
      </trkpt>
      <trkpt lat="47.50209" lon="6.76567">
        <ele>401</ele>
        <time>2016-03-20T08:27:22.000Z</time>
      </trkpt>
      <trkpt lat="47.5021" lon="6.76564">
        <ele>401</ele>
        <time>2016-03-20T08:27:23.000Z</time>
      </trkpt>
      <trkpt lat="47.50211" lon="6.7656">
        <ele>401</ele>
        <time>2016-03-20T08:27:24.000Z</time>
      </trkpt>
      <trkpt lat="47.5021" lon="6.76554">
        <ele>401</ele>
        <time>2016-03-20T08:27:25.000Z</time>
      </trkpt>
      <trkpt lat="47.5021" lon="6.76548">
        <ele>401</ele>
        <time>2016-03-20T08:27:26.000Z</time>
      </trkpt>
      <trkpt lat="47.5021" lon="6.76543">
        <ele>401</ele>
        <time>2016-03-20T08:27:27.000Z</time>
      </trkpt>
      <trkpt lat="47.5021" lon="6.76538">
        <ele>401</ele>
        <time>2016-03-20T08:27:28.000Z</time>
      </trkpt>
      <trkpt lat="47.50211" lon="6.76534">
        <ele>400</ele>
        <time>2016-03-20T08:27:29.000Z</time>
      </trkpt>
      <trkpt lat="47.50211" lon="6.7653">
        <ele>400</ele>
        <time>2016-03-20T08:27:30.000Z</time>
      </trkpt>
      <trkpt lat="47.50214" lon="6.76526">
        <ele>400</ele>
        <time>2016-03-20T08:27:31.000Z</time>
      </trkpt>
      <trkpt lat="47.50216" lon="6.7652">
        <ele>400</ele>
        <time>2016-03-20T08:27:32.000Z</time>
      </trkpt>
      <trkpt lat="47.50218" lon="6.76514">
        <ele>399</ele>
        <time>2016-03-20T08:27:33.000Z</time>
      </trkpt>
      <trkpt lat="47.50221" lon="6.76495">
        <ele>395</ele>
        <time>2016-03-20T08:27:34.000Z</time>
      </trkpt>
      <trkpt lat="47.50219" lon="6.76488">
        <ele>395</ele>
        <time>2016-03-20T08:27:35.000Z</time>
      </trkpt>
      <trkpt lat="47.50213" lon="6.76477">
        <ele>396</ele>
        <time>2016-03-20T08:27:36.000Z</time>
      </trkpt>
      <trkpt lat="47.5021" lon="6.76468">
        <ele>395</ele>
        <time>2016-03-20T08:27:37.000Z</time>
      </trkpt>
      <trkpt lat="47.50207" lon="6.76459">
        <ele>395</ele>
        <time>2016-03-20T08:27:38.000Z</time>
      </trkpt>
      <trkpt lat="47.50202" lon="6.76448">
        <ele>395</ele>
        <time>2016-03-20T08:27:39.000Z</time>
      </trkpt>
      <trkpt lat="47.50199" lon="6.76437">
        <ele>395</ele>
        <time>2016-03-20T08:27:39.999Z</time>
      </trkpt>
      <trkpt lat="47.50198" lon="6.76428">
        <ele>395</ele>
        <time>2016-03-20T08:27:41.000Z</time>
      </trkpt>
      <trkpt lat="47.50202" lon="6.76421">
        <ele>395</ele>
        <time>2016-03-20T08:27:42.000Z</time>
      </trkpt>
      <trkpt lat="47.50205" lon="6.76413">
        <ele>390</ele>
        <time>2016-03-20T08:27:43.000Z</time>
      </trkpt>
      <trkpt lat="47.50208" lon="6.76404">
        <ele>390</ele>
        <time>2016-03-20T08:27:44.000Z</time>
      </trkpt>
      <trkpt lat="47.50192" lon="6.76393">
        <ele>391</ele>
        <time>2016-03-20T08:27:45.000Z</time>
      </trkpt>
      <trkpt lat="47.50186" lon="6.76384">
        <ele>391</ele>
        <time>2016-03-20T08:27:46.000Z</time>
      </trkpt>
      <trkpt lat="47.50184" lon="6.76375">
        <ele>391</ele>
        <time>2016-03-20T08:27:47.000Z</time>
      </trkpt>
      <trkpt lat="47.50182" lon="6.76367">
        <ele>390</ele>
        <time>2016-03-20T08:27:47.999Z</time>
      </trkpt>
      <trkpt lat="47.5018" lon="6.76356">
        <ele>390</ele>
        <time>2016-03-20T08:27:49.000Z</time>
      </trkpt>
      <trkpt lat="47.50178" lon="6.76344">
        <ele>390</ele>
        <time>2016-03-20T08:27:50.000Z</time>
      </trkpt>
      <trkpt lat="47.50177" lon="6.76334">
        <ele>390</ele>
        <time>2016-03-20T08:27:51.000Z</time>
      </trkpt>
      <trkpt lat="47.50177" lon="6.76324">
        <ele>388</ele>
        <time>2016-03-20T08:27:52.000Z</time>
      </trkpt>
      <trkpt lat="47.50177" lon="6.76315">
        <ele>387</ele>
        <time>2016-03-20T08:27:53.001Z</time>
      </trkpt>
      <trkpt lat="47.50174" lon="6.76302">
        <ele>387</ele>
        <time>2016-03-20T08:27:54.000Z</time>
      </trkpt>
      <trkpt lat="47.50171" lon="6.76289">
        <ele>386</ele>
        <time>2016-03-20T08:27:55.000Z</time>
      </trkpt>
      <trkpt lat="47.50166" lon="6.76279">
        <ele>393</ele>
        <time>2016-03-20T08:27:56.000Z</time>
      </trkpt>
      <trkpt lat="47.50162" lon="6.7627">
        <ele>392</ele>
        <time>2016-03-20T08:27:57.000Z</time>
      </trkpt>
      <trkpt lat="47.50157" lon="6.76255">
        <ele>390</ele>
        <time>2016-03-20T08:27:58.000Z</time>
      </trkpt>
      <trkpt lat="47.50155" lon="6.76243">
        <ele>388</ele>
        <time>2016-03-20T08:27:58.999Z</time>
      </trkpt>
      <trkpt lat="47.50153" lon="6.76231">
        <ele>388</ele>
        <time>2016-03-20T08:28:00.000Z</time>
      </trkpt>
      <trkpt lat="47.50153" lon="6.76221">
        <ele>388</ele>
        <time>2016-03-20T08:28:01.000Z</time>
      </trkpt>
      <trkpt lat="47.50152" lon="6.76211">
        <ele>388</ele>
        <time>2016-03-20T08:28:02.001Z</time>
      </trkpt>
      <trkpt lat="47.50148" lon="6.76195">
        <ele>387</ele>
        <time>2016-03-20T08:28:02.999Z</time>
      </trkpt>
      <trkpt lat="47.50149" lon="6.76182">
        <ele>385</ele>
        <time>2016-03-20T08:28:04.000Z</time>
      </trkpt>
      <trkpt lat="47.50149" lon="6.7617">
        <ele>384</ele>
        <time>2016-03-20T08:28:04.999Z</time>
      </trkpt>
      <trkpt lat="47.50144" lon="6.76154">
        <ele>382</ele>
        <time>2016-03-20T08:28:06.000Z</time>
      </trkpt>
      <trkpt lat="47.50141" lon="6.76143">
        <ele>383</ele>
        <time>2016-03-20T08:28:07.000Z</time>
      </trkpt>
      <trkpt lat="47.50138" lon="6.76131">
        <ele>383</ele>
        <time>2016-03-20T08:28:08.000Z</time>
      </trkpt>
      <trkpt lat="47.50134" lon="6.76118">
        <ele>383</ele>
        <time>2016-03-20T08:28:09.000Z</time>
      </trkpt>
      <trkpt lat="47.50133" lon="6.76107">
        <ele>383</ele>
        <time>2016-03-20T08:28:10.000Z</time>
      </trkpt>
      <trkpt lat="47.50129" lon="6.76098">
        <ele>383</ele>
        <time>2016-03-20T08:28:10.999Z</time>
      </trkpt>
      <trkpt lat="47.50125" lon="6.76085">
        <ele>383</ele>
        <time>2016-03-20T08:28:12.000Z</time>
      </trkpt>
      <trkpt lat="47.50123" lon="6.76072">
        <ele>380</ele>
        <time>2016-03-20T08:28:13.000Z</time>
      </trkpt>
      <trkpt lat="47.50123" lon="6.76058">
        <ele>379</ele>
        <time>2016-03-20T08:28:14.000Z</time>
      </trkpt>
      <trkpt lat="47.50118" lon="6.76045">
        <ele>379</ele>
        <time>2016-03-20T08:28:15.000Z</time>
      </trkpt>
      <trkpt lat="47.50115" lon="6.76034">
        <ele>379</ele>
        <time>2016-03-20T08:28:16.001Z</time>
      </trkpt>
      <trkpt lat="47.50115" lon="6.76018">
        <ele>378</ele>
        <time>2016-03-20T08:28:17.000Z</time>
      </trkpt>
      <trkpt lat="47.5011" lon="6.76005">
        <ele>379</ele>
        <time>2016-03-20T08:28:18.000Z</time>
      </trkpt>
      <trkpt lat="47.50114" lon="6.75996">
        <ele>374</ele>
        <time>2016-03-20T08:28:19.000Z</time>
      </trkpt>
      <trkpt lat="47.50114" lon="6.75986">
        <ele>374</ele>
        <time>2016-03-20T08:28:19.999Z</time>
      </trkpt>
      <trkpt lat="47.50099" lon="6.75976">
        <ele>375</ele>
        <time>2016-03-20T08:28:21.000Z</time>
      </trkpt>
      <trkpt lat="47.50093" lon="6.75964">
        <ele>374</ele>
        <time>2016-03-20T08:28:22.000Z</time>
      </trkpt>
      <trkpt lat="47.50088" lon="6.75956">
        <ele>374</ele>
        <time>2016-03-20T08:28:23.000Z</time>
      </trkpt>
      <trkpt lat="47.50082" lon="6.75945">
        <ele>377</ele>
        <time>2016-03-20T08:28:24.000Z</time>
      </trkpt>
      <trkpt lat="47.50077" lon="6.75935">
        <ele>377</ele>
        <time>2016-03-20T08:28:24.999Z</time>
      </trkpt>
      <trkpt lat="47.50071" lon="6.75927">
        <ele>376</ele>
        <time>2016-03-20T08:28:26.000Z</time>
      </trkpt>
      <trkpt lat="47.50064" lon="6.75919">
        <ele>376</ele>
        <time>2016-03-20T08:28:27.000Z</time>
      </trkpt>
      <trkpt lat="47.50059" lon="6.75913">
        <ele>375</ele>
        <time>2016-03-20T08:28:28.000Z</time>
      </trkpt>
      <trkpt lat="47.50052" lon="6.75904">
        <ele>376</ele>
        <time>2016-03-20T08:28:29.000Z</time>
      </trkpt>
      <trkpt lat="47.50048" lon="6.75895">
        <ele>376</ele>
        <time>2016-03-20T08:28:30.001Z</time>
      </trkpt>
      <trkpt lat="47.50039" lon="6.75886">
        <ele>376</ele>
        <time>2016-03-20T08:28:31.000Z</time>
      </trkpt>
      <trkpt lat="47.50034" lon="6.75877">
        <ele>376</ele>
        <time>2016-03-20T08:28:32.000Z</time>
      </trkpt>
      <trkpt lat="47.50027" lon="6.75868">
        <ele>376</ele>
        <time>2016-03-20T08:28:33.000Z</time>
      </trkpt>
      <trkpt lat="47.50021" lon="6.75859">
        <ele>377</ele>
        <time>2016-03-20T08:28:34.000Z</time>
      </trkpt>
      <trkpt lat="47.50015" lon="6.75848">
        <ele>377</ele>
        <time>2016-03-20T08:28:35.000Z</time>
      </trkpt>
      <trkpt lat="47.5001" lon="6.75837">
        <ele>378</ele>
        <time>2016-03-20T08:28:36.000Z</time>
      </trkpt>
      <trkpt lat="47.50005" lon="6.75827">
        <ele>378</ele>
        <time>2016-03-20T08:28:37.000Z</time>
      </trkpt>
      <trkpt lat="47.49999" lon="6.75817">
        <ele>377</ele>
        <time>2016-03-20T08:28:38.000Z</time>
      </trkpt>
      <trkpt lat="47.49993" lon="6.75806">
        <ele>376</ele>
        <time>2016-03-20T08:28:39.000Z</time>
      </trkpt>
      <trkpt lat="47.49986" lon="6.75797">
        <ele>375</ele>
        <time>2016-03-20T08:28:40.000Z</time>
      </trkpt>
      <trkpt lat="47.49981" lon="6.75786">
        <ele>375</ele>
        <time>2016-03-20T08:28:41.000Z</time>
      </trkpt>
      <trkpt lat="47.49974" lon="6.75776">
        <ele>374</ele>
        <time>2016-03-20T08:28:42.000Z</time>
      </trkpt>
      <trkpt lat="47.49968" lon="6.75767">
        <ele>374</ele>
        <time>2016-03-20T08:28:43.000Z</time>
      </trkpt>
      <trkpt lat="47.49959" lon="6.75756">
        <ele>374</ele>
        <time>2016-03-20T08:28:44.000Z</time>
      </trkpt>
      <trkpt lat="47.49953" lon="6.75747">
        <ele>371</ele>
        <time>2016-03-20T08:28:45.000Z</time>
      </trkpt>
      <trkpt lat="47.49946" lon="6.75735">
        <ele>370</ele>
        <time>2016-03-20T08:28:46.000Z</time>
      </trkpt>
      <trkpt lat="47.49939" lon="6.75726">
        <ele>370</ele>
        <time>2016-03-20T08:28:47.000Z</time>
      </trkpt>
      <trkpt lat="47.49934" lon="6.75716">
        <ele>370</ele>
        <time>2016-03-20T08:28:48.000Z</time>
      </trkpt>
      <trkpt lat="47.49928" lon="6.75707">
        <ele>370</ele>
        <time>2016-03-20T08:28:49.000Z</time>
      </trkpt>
      <trkpt lat="47.49918" lon="6.75703">
        <ele>369</ele>
        <time>2016-03-20T08:28:50.000Z</time>
      </trkpt>
      <trkpt lat="47.49909" lon="6.75699">
        <ele>365</ele>
        <time>2016-03-20T08:28:51.000Z</time>
      </trkpt>
      <trkpt lat="47.499" lon="6.757">
        <ele>364</ele>
        <time>2016-03-20T08:28:52.000Z</time>
      </trkpt>
      <trkpt lat="47.4989" lon="6.75702">
        <ele>364</ele>
        <time>2016-03-20T08:28:53.000Z</time>
      </trkpt>
      <trkpt lat="47.49879" lon="6.75704">
        <ele>363</ele>
        <time>2016-03-20T08:28:54.000Z</time>
      </trkpt>
      <trkpt lat="47.49869" lon="6.75705">
        <ele>362</ele>
        <time>2016-03-20T08:28:55.000Z</time>
      </trkpt>
      <trkpt lat="47.49858" lon="6.75709">
        <ele>361</ele>
        <time>2016-03-20T08:28:56.000Z</time>
      </trkpt>
      <trkpt lat="47.49847" lon="6.75713">
        <ele>361</ele>
        <time>2016-03-20T08:28:57.000Z</time>
      </trkpt>
      <trkpt lat="47.49837" lon="6.75717">
        <ele>361</ele>
        <time>2016-03-20T08:28:58.000Z</time>
      </trkpt>
      <trkpt lat="47.49827" lon="6.75723">
        <ele>354</ele>
        <time>2016-03-20T08:28:59.000Z</time>
      </trkpt>
      <trkpt lat="47.49817" lon="6.75729">
        <ele>354</ele>
        <time>2016-03-20T08:29:00.000Z</time>
      </trkpt>
      <trkpt lat="47.49806" lon="6.75728">
        <ele>353</ele>
        <time>2016-03-20T08:29:01.000Z</time>
      </trkpt>
      <trkpt lat="47.49796" lon="6.75733">
        <ele>352</ele>
        <time>2016-03-20T08:29:02.000Z</time>
      </trkpt>
      <trkpt lat="47.49786" lon="6.75738">
        <ele>351</ele>
        <time>2016-03-20T08:29:03.000Z</time>
      </trkpt>
      <trkpt lat="47.49776" lon="6.7574">
        <ele>351</ele>
        <time>2016-03-20T08:29:04.000Z</time>
      </trkpt>
      <trkpt lat="47.49766" lon="6.75741">
        <ele>351</ele>
        <time>2016-03-20T08:29:05.000Z</time>
      </trkpt>
      <trkpt lat="47.49756" lon="6.75742">
        <ele>351</ele>
        <time>2016-03-20T08:29:06.000Z</time>
      </trkpt>
      <trkpt lat="47.49746" lon="6.75743">
        <ele>348</ele>
        <time>2016-03-20T08:29:07.000Z</time>
      </trkpt>
      <trkpt lat="47.49737" lon="6.75746">
        <ele>346</ele>
        <time>2016-03-20T08:29:08.000Z</time>
      </trkpt>
      <trkpt lat="47.49727" lon="6.75751">
        <ele>353</ele>
        <time>2016-03-20T08:29:09.000Z</time>
      </trkpt>
      <trkpt lat="47.49718" lon="6.75755">
        <ele>353</ele>
        <time>2016-03-20T08:29:10.000Z</time>
      </trkpt>
      <trkpt lat="47.4971" lon="6.75754">
        <ele>352</ele>
        <time>2016-03-20T08:29:11.000Z</time>
      </trkpt>
      <trkpt lat="47.49701" lon="6.75757">
        <ele>352</ele>
        <time>2016-03-20T08:29:12.000Z</time>
      </trkpt>
      <trkpt lat="47.49693" lon="6.75763">
        <ele>351</ele>
        <time>2016-03-20T08:29:13.000Z</time>
      </trkpt>
      <trkpt lat="47.49683" lon="6.75765">
        <ele>350</ele>
        <time>2016-03-20T08:29:14.000Z</time>
      </trkpt>
      <trkpt lat="47.49674" lon="6.75769">
        <ele>350</ele>
        <time>2016-03-20T08:29:15.000Z</time>
      </trkpt>
      <trkpt lat="47.49666" lon="6.75773">
        <ele>346</ele>
        <time>2016-03-20T08:29:16.000Z</time>
      </trkpt>
      <trkpt lat="47.49657" lon="6.75773">
        <ele>346</ele>
        <time>2016-03-20T08:29:17.000Z</time>
      </trkpt>
      <trkpt lat="47.4965" lon="6.75771">
        <ele>346</ele>
        <time>2016-03-20T08:29:18.000Z</time>
      </trkpt>
      <trkpt lat="47.49643" lon="6.75771">
        <ele>345</ele>
        <time>2016-03-20T08:29:19.000Z</time>
      </trkpt>
      <trkpt lat="47.4963" lon="6.75765">
        <ele>344</ele>
        <time>2016-03-20T08:29:20.000Z</time>
      </trkpt>
      <trkpt lat="47.49622" lon="6.7576">
        <ele>344</ele>
        <time>2016-03-20T08:29:21.000Z</time>
      </trkpt>
      <trkpt lat="47.4961" lon="6.75758">
        <ele>342</ele>
        <time>2016-03-20T08:29:22.000Z</time>
      </trkpt>
      <trkpt lat="47.49601" lon="6.75756">
        <ele>340</ele>
        <time>2016-03-20T08:29:23.000Z</time>
      </trkpt>
      <trkpt lat="47.49592" lon="6.75759">
        <ele>339</ele>
        <time>2016-03-20T08:29:24.000Z</time>
      </trkpt>
      <trkpt lat="47.49585" lon="6.75758">
        <ele>338</ele>
        <time>2016-03-20T08:29:25.000Z</time>
      </trkpt>
      <trkpt lat="47.49581" lon="6.75757">
        <ele>335</ele>
        <time>2016-03-20T08:29:26.000Z</time>
      </trkpt>
      <trkpt lat="47.49574" lon="6.75755">
        <ele>335</ele>
        <time>2016-03-20T08:29:27.000Z</time>
      </trkpt>
      <trkpt lat="47.4957" lon="6.75752">
        <ele>335</ele>
        <time>2016-03-20T08:29:28.000Z</time>
      </trkpt>
      <trkpt lat="47.49567" lon="6.75751">
        <ele>335</ele>
        <time>2016-03-20T08:29:29.000Z</time>
      </trkpt>
      <trkpt lat="47.49563" lon="6.7575">
        <ele>329</ele>
        <time>2016-03-20T08:29:30.000Z</time>
      </trkpt>
      <trkpt lat="47.49565" lon="6.75744">
        <ele>329</ele>
        <time>2016-03-20T08:29:34.000Z</time>
      </trkpt>
      <trkpt lat="47.49566" lon="6.75743">
        <ele>329</ele>
        <time>2016-03-20T08:29:35.000Z</time>
      </trkpt>
      <trkpt lat="47.49571" lon="6.7574">
        <ele>330</ele>
        <time>2016-03-20T08:29:36.000Z</time>
      </trkpt>
      <trkpt lat="47.49574" lon="6.75738">
        <ele>330</ele>
        <time>2016-03-20T08:29:37.000Z</time>
      </trkpt>
      <trkpt lat="47.49578" lon="6.75736">
        <ele>330</ele>
        <time>2016-03-20T08:29:38.000Z</time>
      </trkpt>
      <trkpt lat="47.49582" lon="6.75731">
        <ele>329</ele>
        <time>2016-03-20T08:29:39.000Z</time>
      </trkpt>
      <trkpt lat="47.49586" lon="6.75724">
        <ele>332</ele>
        <time>2016-03-20T08:29:40.000Z</time>
      </trkpt>
      <trkpt lat="47.49589" lon="6.75717">
        <ele>331</ele>
        <time>2016-03-20T08:29:41.000Z</time>
      </trkpt>
      <trkpt lat="47.49593" lon="6.75711">
        <ele>330</ele>
        <time>2016-03-20T08:29:42.000Z</time>
      </trkpt>
      <trkpt lat="47.49596" lon="6.75705">
        <ele>330</ele>
        <time>2016-03-20T08:29:43.000Z</time>
      </trkpt>
      <trkpt lat="47.496" lon="6.75699">
        <ele>329</ele>
        <time>2016-03-20T08:29:44.000Z</time>
      </trkpt>
      <trkpt lat="47.496" lon="6.75688">
        <ele>328</ele>
        <time>2016-03-20T08:29:45.000Z</time>
      </trkpt>
      <trkpt lat="47.49596" lon="6.75681">
        <ele>327</ele>
        <time>2016-03-20T08:29:46.000Z</time>
      </trkpt>
      <trkpt lat="47.49592" lon="6.75675">
        <ele>325</ele>
        <time>2016-03-20T08:29:47.000Z</time>
      </trkpt>
      <trkpt lat="47.49589" lon="6.75668">
        <ele>323</ele>
        <time>2016-03-20T08:29:48.000Z</time>
      </trkpt>
      <trkpt lat="47.49585" lon="6.75663">
        <ele>321</ele>
        <time>2016-03-20T08:29:49.000Z</time>
      </trkpt>
      <trkpt lat="47.49579" lon="6.7566">
        <ele>321</ele>
        <time>2016-03-20T08:29:50.000Z</time>
      </trkpt>
      <trkpt lat="47.49573" lon="6.75659">
        <ele>321</ele>
        <time>2016-03-20T08:29:51.000Z</time>
      </trkpt>
      <trkpt lat="47.49568" lon="6.75666">
        <ele>321</ele>
        <time>2016-03-20T08:29:52.000Z</time>
      </trkpt>
      <trkpt lat="47.49562" lon="6.75672">
        <ele>323</ele>
        <time>2016-03-20T08:29:53.000Z</time>
      </trkpt>
      <trkpt lat="47.49558" lon="6.75679">
        <ele>324</ele>
        <time>2016-03-20T08:29:54.000Z</time>
      </trkpt>
      <trkpt lat="47.49554" lon="6.75685">
        <ele>324</ele>
        <time>2016-03-20T08:29:55.000Z</time>
      </trkpt>
      <trkpt lat="47.49549" lon="6.75692">
        <ele>324</ele>
        <time>2016-03-20T08:29:55.999Z</time>
      </trkpt>
      <trkpt lat="47.49544" lon="6.75696">
        <ele>324</ele>
        <time>2016-03-20T08:29:57.000Z</time>
      </trkpt>
      <trkpt lat="47.49539" lon="6.75701">
        <ele>325</ele>
        <time>2016-03-20T08:29:58.000Z</time>
      </trkpt>
      <trkpt lat="47.49533" lon="6.75705">
        <ele>325</ele>
        <time>2016-03-20T08:29:59.000Z</time>
      </trkpt>
      <trkpt lat="47.49528" lon="6.75709">
        <ele>325</ele>
        <time>2016-03-20T08:30:00.000Z</time>
      </trkpt>
      <trkpt lat="47.49523" lon="6.75714">
        <ele>325</ele>
        <time>2016-03-20T08:30:01.000Z</time>
      </trkpt>
      <trkpt lat="47.49518" lon="6.75718">
        <ele>325</ele>
        <time>2016-03-20T08:30:02.000Z</time>
      </trkpt>
      <trkpt lat="47.49514" lon="6.75723">
        <ele>325</ele>
        <time>2016-03-20T08:30:03.000Z</time>
      </trkpt>
      <trkpt lat="47.49508" lon="6.75725">
        <ele>325</ele>
        <time>2016-03-20T08:30:04.000Z</time>
      </trkpt>
      <trkpt lat="47.49502" lon="6.75727">
        <ele>324</ele>
        <time>2016-03-20T08:30:05.000Z</time>
      </trkpt>
      <trkpt lat="47.49496" lon="6.75729">
        <ele>322</ele>
        <time>2016-03-20T08:30:06.000Z</time>
      </trkpt>
      <trkpt lat="47.4949" lon="6.75729">
        <ele>322</ele>
        <time>2016-03-20T08:30:07.000Z</time>
      </trkpt>
      <trkpt lat="47.49485" lon="6.75729">
        <ele>322</ele>
        <time>2016-03-20T08:30:08.000Z</time>
      </trkpt>
      <trkpt lat="47.49482" lon="6.75722">
        <ele>322</ele>
        <time>2016-03-20T08:30:09.000Z</time>
      </trkpt>
      <trkpt lat="47.4948" lon="6.75716">
        <ele>322</ele>
        <time>2016-03-20T08:30:10.000Z</time>
      </trkpt>
      <trkpt lat="47.49478" lon="6.75709">
        <ele>321</ele>
        <time>2016-03-20T08:30:11.001Z</time>
      </trkpt>
      <trkpt lat="47.49475" lon="6.75702">
        <ele>321</ele>
        <time>2016-03-20T08:30:12.000Z</time>
      </trkpt>
      <trkpt lat="47.49472" lon="6.75696">
        <ele>321</ele>
        <time>2016-03-20T08:30:13.000Z</time>
      </trkpt>
      <trkpt lat="47.49469" lon="6.7569">
        <ele>321</ele>
        <time>2016-03-20T08:30:14.000Z</time>
      </trkpt>
      <trkpt lat="47.49463" lon="6.75689">
        <ele>321</ele>
        <time>2016-03-20T08:30:15.000Z</time>
      </trkpt>
      <trkpt lat="47.49458" lon="6.75691">
        <ele>321</ele>
        <time>2016-03-20T08:30:16.000Z</time>
      </trkpt>
      <trkpt lat="47.49453" lon="6.75694">
        <ele>321</ele>
        <time>2016-03-20T08:30:17.000Z</time>
      </trkpt>
      <trkpt lat="47.49447" lon="6.75694">
        <ele>321</ele>
        <time>2016-03-20T08:30:18.000Z</time>
      </trkpt>
      <trkpt lat="47.49443" lon="6.75693">
        <ele>321</ele>
        <time>2016-03-20T08:30:19.000Z</time>
      </trkpt>
      <trkpt lat="47.4944" lon="6.75688">
        <ele>320</ele>
        <time>2016-03-20T08:30:20.000Z</time>
      </trkpt>
      <trkpt lat="47.49439" lon="6.75682">
        <ele>320</ele>
        <time>2016-03-20T08:30:21.000Z</time>
      </trkpt>
      <trkpt lat="47.49438" lon="6.75675">
        <ele>320</ele>
        <time>2016-03-20T08:30:22.000Z</time>
      </trkpt>
      <trkpt lat="47.49436" lon="6.75667">
        <ele>320</ele>
        <time>2016-03-20T08:30:23.000Z</time>
      </trkpt>
      <trkpt lat="47.49433" lon="6.75665">
        <ele>320</ele>
        <time>2016-03-20T08:30:24.000Z</time>
      </trkpt>
      <trkpt lat="47.49427" lon="6.75662">
        <ele>320</ele>
        <time>2016-03-20T08:30:25.000Z</time>
      </trkpt>
      <trkpt lat="47.49421" lon="6.75663">
        <ele>319</ele>
        <time>2016-03-20T08:30:26.000Z</time>
      </trkpt>
      <trkpt lat="47.49415" lon="6.75668">
        <ele>319</ele>
        <time>2016-03-20T08:30:27.000Z</time>
      </trkpt>
      <trkpt lat="47.4941" lon="6.75672">
        <ele>319</ele>
        <time>2016-03-20T08:30:28.000Z</time>
      </trkpt>
      <trkpt lat="47.49403" lon="6.75674">
        <ele>319</ele>
        <time>2016-03-20T08:30:29.000Z</time>
      </trkpt>
      <trkpt lat="47.49398" lon="6.75679">
        <ele>319</ele>
        <time>2016-03-20T08:30:30.000Z</time>
      </trkpt>
      <trkpt lat="47.49394" lon="6.7568">
        <ele>319</ele>
        <time>2016-03-20T08:30:31.000Z</time>
      </trkpt>
      <trkpt lat="47.49388" lon="6.75685">
        <ele>319</ele>
        <time>2016-03-20T08:30:32.000Z</time>
      </trkpt>
      <trkpt lat="47.49383" lon="6.75688">
        <ele>319</ele>
        <time>2016-03-20T08:30:33.000Z</time>
      </trkpt>
      <trkpt lat="47.49378" lon="6.75693">
        <ele>319</ele>
        <time>2016-03-20T08:30:34.000Z</time>
      </trkpt>
      <trkpt lat="47.49372" lon="6.75694">
        <ele>319</ele>
        <time>2016-03-20T08:30:35.000Z</time>
      </trkpt>
      <trkpt lat="47.49368" lon="6.75696">
        <ele>319</ele>
        <time>2016-03-20T08:30:36.000Z</time>
      </trkpt>
      <trkpt lat="47.49364" lon="6.757">
        <ele>319</ele>
        <time>2016-03-20T08:30:37.000Z</time>
      </trkpt>
      <trkpt lat="47.49359" lon="6.75704">
        <ele>319</ele>
        <time>2016-03-20T08:30:38.000Z</time>
      </trkpt>
      <trkpt lat="47.49356" lon="6.75708">
        <ele>319</ele>
        <time>2016-03-20T08:30:40.000Z</time>
      </trkpt>
      <trkpt lat="47.49353" lon="6.7571">
        <ele>319</ele>
        <time>2016-03-20T08:30:41.000Z</time>
      </trkpt>
      <trkpt lat="47.49349" lon="6.75712">
        <ele>319</ele>
        <time>2016-03-20T08:30:43.000Z</time>
      </trkpt>
      <trkpt lat="47.49341" lon="6.75716">
        <ele>318</ele>
        <time>2016-03-20T08:30:44.000Z</time>
      </trkpt>
      <trkpt lat="47.49338" lon="6.75719">
        <ele>318</ele>
        <time>2016-03-20T08:30:45.000Z</time>
      </trkpt>
      <trkpt lat="47.49333" lon="6.75721">
        <ele>319</ele>
        <time>2016-03-20T08:30:46.000Z</time>
      </trkpt>
      <trkpt lat="47.49328" lon="6.75724">
        <ele>319</ele>
        <time>2016-03-20T08:30:47.000Z</time>
      </trkpt>
      <trkpt lat="47.49323" lon="6.75727">
        <ele>319</ele>
        <time>2016-03-20T08:30:48.000Z</time>
      </trkpt>
      <trkpt lat="47.49319" lon="6.7573">
        <ele>319</ele>
        <time>2016-03-20T08:30:49.000Z</time>
      </trkpt>
      <trkpt lat="47.49314" lon="6.75734">
        <ele>319</ele>
        <time>2016-03-20T08:30:50.000Z</time>
      </trkpt>
      <trkpt lat="47.4931" lon="6.75737">
        <ele>319</ele>
        <time>2016-03-20T08:30:51.000Z</time>
      </trkpt>
      <trkpt lat="47.49305" lon="6.75742">
        <ele>319</ele>
        <time>2016-03-20T08:30:52.000Z</time>
      </trkpt>
      <trkpt lat="47.49301" lon="6.75748">
        <ele>319</ele>
        <time>2016-03-20T08:30:53.000Z</time>
      </trkpt>
      <trkpt lat="47.49297" lon="6.75752">
        <ele>318</ele>
        <time>2016-03-20T08:30:54.000Z</time>
      </trkpt>
      <trkpt lat="47.49293" lon="6.75754">
        <ele>318</ele>
        <time>2016-03-20T08:30:55.000Z</time>
      </trkpt>
      <trkpt lat="47.49289" lon="6.75759">
        <ele>318</ele>
        <time>2016-03-20T08:30:56.000Z</time>
      </trkpt>
      <trkpt lat="47.49285" lon="6.75764">
        <ele>318</ele>
        <time>2016-03-20T08:30:57.000Z</time>
      </trkpt>
      <trkpt lat="47.49282" lon="6.75771">
        <ele>318</ele>
        <time>2016-03-20T08:30:58.000Z</time>
      </trkpt>
      <trkpt lat="47.49278" lon="6.75777">
        <ele>318</ele>
        <time>2016-03-20T08:30:59.000Z</time>
      </trkpt>
      <trkpt lat="47.49274" lon="6.75781">
        <ele>318</ele>
        <time>2016-03-20T08:31:00.000Z</time>
      </trkpt>
      <trkpt lat="47.4927" lon="6.75787">
        <ele>318</ele>
        <time>2016-03-20T08:31:01.000Z</time>
      </trkpt>
      <trkpt lat="47.49266" lon="6.75793">
        <ele>317</ele>
        <time>2016-03-20T08:31:02.000Z</time>
      </trkpt>
      <trkpt lat="47.49262" lon="6.75799">
        <ele>317</ele>
        <time>2016-03-20T08:31:03.000Z</time>
      </trkpt>
      <trkpt lat="47.49258" lon="6.75804">
        <ele>317</ele>
        <time>2016-03-20T08:31:04.000Z</time>
      </trkpt>
      <trkpt lat="47.49254" lon="6.75811">
        <ele>316</ele>
        <time>2016-03-20T08:31:05.000Z</time>
      </trkpt>
      <trkpt lat="47.49251" lon="6.7582">
        <ele>315</ele>
        <time>2016-03-20T08:31:06.000Z</time>
      </trkpt>
      <trkpt lat="47.49247" lon="6.75826">
        <ele>316</ele>
        <time>2016-03-20T08:31:07.000Z</time>
      </trkpt>
      <trkpt lat="47.49243" lon="6.7583">
        <ele>316</ele>
        <time>2016-03-20T08:31:08.000Z</time>
      </trkpt>
      <trkpt lat="47.4924" lon="6.75837">
        <ele>315</ele>
        <time>2016-03-20T08:31:09.000Z</time>
      </trkpt>
      <trkpt lat="47.49238" lon="6.75847">
        <ele>316</ele>
        <time>2016-03-20T08:31:10.000Z</time>
      </trkpt>
      <trkpt lat="47.49235" lon="6.75853">
        <ele>317</ele>
        <time>2016-03-20T08:31:11.000Z</time>
      </trkpt>
      <trkpt lat="47.49232" lon="6.75861">
        <ele>318</ele>
        <time>2016-03-20T08:31:12.000Z</time>
      </trkpt>
      <trkpt lat="47.49228" lon="6.75866">
        <ele>318</ele>
        <time>2016-03-20T08:31:13.000Z</time>
      </trkpt>
      <trkpt lat="47.49224" lon="6.75875">
        <ele>319</ele>
        <time>2016-03-20T08:31:14.000Z</time>
      </trkpt>
      <trkpt lat="47.49221" lon="6.7588">
        <ele>319</ele>
        <time>2016-03-20T08:31:15.000Z</time>
      </trkpt>
      <trkpt lat="47.49219" lon="6.75885">
        <ele>319</ele>
        <time>2016-03-20T08:31:16.000Z</time>
      </trkpt>
      <trkpt lat="47.49216" lon="6.75893">
        <ele>319</ele>
        <time>2016-03-20T08:31:17.000Z</time>
      </trkpt>
      <trkpt lat="47.49214" lon="6.759">
        <ele>319</ele>
        <time>2016-03-20T08:31:18.000Z</time>
      </trkpt>
      <trkpt lat="47.49211" lon="6.75908">
        <ele>319</ele>
        <time>2016-03-20T08:31:19.000Z</time>
      </trkpt>
      <trkpt lat="47.49211" lon="6.75917">
        <ele>320</ele>
        <time>2016-03-20T08:31:20.000Z</time>
      </trkpt>
      <trkpt lat="47.49211" lon="6.75928">
        <ele>320</ele>
        <time>2016-03-20T08:31:21.000Z</time>
      </trkpt>
      <trkpt lat="47.4921" lon="6.75934">
        <ele>320</ele>
        <time>2016-03-20T08:31:22.000Z</time>
      </trkpt>
      <trkpt lat="47.49209" lon="6.75939">
        <ele>320</ele>
        <time>2016-03-20T08:31:23.000Z</time>
      </trkpt>
      <trkpt lat="47.49205" lon="6.75944">
        <ele>320</ele>
        <time>2016-03-20T08:31:24.000Z</time>
      </trkpt>
      <trkpt lat="47.49201" lon="6.75949">
        <ele>320</ele>
        <time>2016-03-20T08:31:25.000Z</time>
      </trkpt>
      <trkpt lat="47.49198" lon="6.75955">
        <ele>320</ele>
        <time>2016-03-20T08:31:26.000Z</time>
      </trkpt>
      <trkpt lat="47.49192" lon="6.75959">
        <ele>320</ele>
        <time>2016-03-20T08:31:27.000Z</time>
      </trkpt>
      <trkpt lat="47.49189" lon="6.75967">
        <ele>320</ele>
        <time>2016-03-20T08:31:28.000Z</time>
      </trkpt>
      <trkpt lat="47.49186" lon="6.75971">
        <ele>320</ele>
        <time>2016-03-20T08:31:29.000Z</time>
      </trkpt>
      <trkpt lat="47.49183" lon="6.75978">
        <ele>320</ele>
        <time>2016-03-20T08:31:30.000Z</time>
      </trkpt>
      <trkpt lat="47.49178" lon="6.75983">
        <ele>320</ele>
        <time>2016-03-20T08:31:31.000Z</time>
      </trkpt>
      <trkpt lat="47.49175" lon="6.75988">
        <ele>320</ele>
        <time>2016-03-20T08:31:32.000Z</time>
      </trkpt>
      <trkpt lat="47.49171" lon="6.75995">
        <ele>319</ele>
        <time>2016-03-20T08:31:33.000Z</time>
      </trkpt>
      <trkpt lat="47.49168" lon="6.76006">
        <ele>319</ele>
        <time>2016-03-20T08:31:34.000Z</time>
      </trkpt>
      <trkpt lat="47.49166" lon="6.7601">
        <ele>321</ele>
        <time>2016-03-20T08:31:35.000Z</time>
      </trkpt>
      <trkpt lat="47.49164" lon="6.76015">
        <ele>321</ele>
        <time>2016-03-20T08:31:36.000Z</time>
      </trkpt>
      <trkpt lat="47.49163" lon="6.76025">
        <ele>322</ele>
        <time>2016-03-20T08:31:37.000Z</time>
      </trkpt>
      <trkpt lat="47.49159" lon="6.76031">
        <ele>322</ele>
        <time>2016-03-20T08:31:38.000Z</time>
      </trkpt>
      <trkpt lat="47.49157" lon="6.76038">
        <ele>323</ele>
        <time>2016-03-20T08:31:39.000Z</time>
      </trkpt>
      <trkpt lat="47.49156" lon="6.76044">
        <ele>323</ele>
        <time>2016-03-20T08:31:40.000Z</time>
      </trkpt>
      <trkpt lat="47.49151" lon="6.76055">
        <ele>322</ele>
        <time>2016-03-20T08:31:41.000Z</time>
      </trkpt>
      <trkpt lat="47.4915" lon="6.76062">
        <ele>322</ele>
        <time>2016-03-20T08:31:42.000Z</time>
      </trkpt>
      <trkpt lat="47.49147" lon="6.76068">
        <ele>322</ele>
        <time>2016-03-20T08:31:43.000Z</time>
      </trkpt>
      <trkpt lat="47.49145" lon="6.76075">
        <ele>322</ele>
        <time>2016-03-20T08:31:44.000Z</time>
      </trkpt>
      <trkpt lat="47.49144" lon="6.76085">
        <ele>321</ele>
        <time>2016-03-20T08:31:45.000Z</time>
      </trkpt>
      <trkpt lat="47.49143" lon="6.76096">
        <ele>321</ele>
        <time>2016-03-20T08:31:46.000Z</time>
      </trkpt>
      <trkpt lat="47.49143" lon="6.76103">
        <ele>321</ele>
        <time>2016-03-20T08:31:47.000Z</time>
      </trkpt>
      <trkpt lat="47.4914" lon="6.76114">
        <ele>322</ele>
        <time>2016-03-20T08:31:48.000Z</time>
      </trkpt>
      <trkpt lat="47.49139" lon="6.76121">
        <ele>322</ele>
        <time>2016-03-20T08:31:49.000Z</time>
      </trkpt>
      <trkpt lat="47.4914" lon="6.76127">
        <ele>322</ele>
        <time>2016-03-20T08:31:50.000Z</time>
      </trkpt>
      <trkpt lat="47.4914" lon="6.76136">
        <ele>322</ele>
        <time>2016-03-20T08:31:51.000Z</time>
      </trkpt>
      <trkpt lat="47.49139" lon="6.76143">
        <ele>321</ele>
        <time>2016-03-20T08:31:52.000Z</time>
      </trkpt>
      <trkpt lat="47.49137" lon="6.76149">
        <ele>321</ele>
        <time>2016-03-20T08:31:53.000Z</time>
      </trkpt>
      <trkpt lat="47.49135" lon="6.76158">
        <ele>322</ele>
        <time>2016-03-20T08:31:54.000Z</time>
      </trkpt>
      <trkpt lat="47.49134" lon="6.76167">
        <ele>321</ele>
        <time>2016-03-20T08:31:55.000Z</time>
      </trkpt>
      <trkpt lat="47.49131" lon="6.76175">
        <ele>321</ele>
        <time>2016-03-20T08:31:56.000Z</time>
      </trkpt>
      <trkpt lat="47.4913" lon="6.76182">
        <ele>321</ele>
        <time>2016-03-20T08:31:57.000Z</time>
      </trkpt>
      <trkpt lat="47.49127" lon="6.76191">
        <ele>321</ele>
        <time>2016-03-20T08:31:58.000Z</time>
      </trkpt>
      <trkpt lat="47.49126" lon="6.76199">
        <ele>321</ele>
        <time>2016-03-20T08:31:59.000Z</time>
      </trkpt>
      <trkpt lat="47.49124" lon="6.76205">
        <ele>321</ele>
        <time>2016-03-20T08:32:00.000Z</time>
      </trkpt>
      <trkpt lat="47.49125" lon="6.76214">
        <ele>321</ele>
        <time>2016-03-20T08:32:01.000Z</time>
      </trkpt>
      <trkpt lat="47.49124" lon="6.76221">
        <ele>321</ele>
        <time>2016-03-20T08:32:02.000Z</time>
      </trkpt>
      <trkpt lat="47.49124" lon="6.76228">
        <ele>321</ele>
        <time>2016-03-20T08:32:03.000Z</time>
      </trkpt>
      <trkpt lat="47.49124" lon="6.76234">
        <ele>321</ele>
        <time>2016-03-20T08:32:04.000Z</time>
      </trkpt>
      <trkpt lat="47.49124" lon="6.7624">
        <ele>321</ele>
        <time>2016-03-20T08:32:05.000Z</time>
      </trkpt>
      <trkpt lat="47.49123" lon="6.76249">
        <ele>321</ele>
        <time>2016-03-20T08:32:06.000Z</time>
      </trkpt>
      <trkpt lat="47.49124" lon="6.76257">
        <ele>320</ele>
        <time>2016-03-20T08:32:07.000Z</time>
      </trkpt>
      <trkpt lat="47.49125" lon="6.76268">
        <ele>320</ele>
        <time>2016-03-20T08:32:08.000Z</time>
      </trkpt>
      <trkpt lat="47.49124" lon="6.76273">
        <ele>320</ele>
        <time>2016-03-20T08:32:09.000Z</time>
      </trkpt>
      <trkpt lat="47.49123" lon="6.76278">
        <ele>320</ele>
        <time>2016-03-20T08:32:10.000Z</time>
      </trkpt>
      <trkpt lat="47.49122" lon="6.76285">
        <ele>320</ele>
        <time>2016-03-20T08:32:11.000Z</time>
      </trkpt>
      <trkpt lat="47.49123" lon="6.76296">
        <ele>320</ele>
        <time>2016-03-20T08:32:12.000Z</time>
      </trkpt>
      <trkpt lat="47.49123" lon="6.76304">
        <ele>319</ele>
        <time>2016-03-20T08:32:13.000Z</time>
      </trkpt>
      <trkpt lat="47.49123" lon="6.76313">
        <ele>319</ele>
        <time>2016-03-20T08:32:14.000Z</time>
      </trkpt>
      <trkpt lat="47.49124" lon="6.76319">
        <ele>319</ele>
        <time>2016-03-20T08:32:15.000Z</time>
      </trkpt>
      <trkpt lat="47.49123" lon="6.76328">
        <ele>319</ele>
        <time>2016-03-20T08:32:16.000Z</time>
      </trkpt>
      <trkpt lat="47.49123" lon="6.76336">
        <ele>318</ele>
        <time>2016-03-20T08:32:17.000Z</time>
      </trkpt>
      <trkpt lat="47.49122" lon="6.76343">
        <ele>318</ele>
        <time>2016-03-20T08:32:18.000Z</time>
      </trkpt>
      <trkpt lat="47.49122" lon="6.7635">
        <ele>318</ele>
        <time>2016-03-20T08:32:19.000Z</time>
      </trkpt>
      <trkpt lat="47.49121" lon="6.76359">
        <ele>318</ele>
        <time>2016-03-20T08:32:20.000Z</time>
      </trkpt>
      <trkpt lat="47.49121" lon="6.76366">
        <ele>318</ele>
        <time>2016-03-20T08:32:21.000Z</time>
      </trkpt>
      <trkpt lat="47.49123" lon="6.76377">
        <ele>318</ele>
        <time>2016-03-20T08:32:22.000Z</time>
      </trkpt>
      <trkpt lat="47.49124" lon="6.76385">
        <ele>318</ele>
        <time>2016-03-20T08:32:23.000Z</time>
      </trkpt>
      <trkpt lat="47.49125" lon="6.76396">
        <ele>318</ele>
        <time>2016-03-20T08:32:23.999Z</time>
      </trkpt>
      <trkpt lat="47.49124" lon="6.76403">
        <ele>318</ele>
        <time>2016-03-20T08:32:25.000Z</time>
      </trkpt>
      <trkpt lat="47.49124" lon="6.76412">
        <ele>318</ele>
        <time>2016-03-20T08:32:26.000Z</time>
      </trkpt>
      <trkpt lat="47.49124" lon="6.7642">
        <ele>317</ele>
        <time>2016-03-20T08:32:27.000Z</time>
      </trkpt>
      <trkpt lat="47.49124" lon="6.76428">
        <ele>317</ele>
        <time>2016-03-20T08:32:28.000Z</time>
      </trkpt>
      <trkpt lat="47.49125" lon="6.76435">
        <ele>317</ele>
        <time>2016-03-20T08:32:29.000Z</time>
      </trkpt>
      <trkpt lat="47.49124" lon="6.76443">
        <ele>317</ele>
        <time>2016-03-20T08:32:30.000Z</time>
      </trkpt>
      <trkpt lat="47.49125" lon="6.76451">
        <ele>317</ele>
        <time>2016-03-20T08:32:31.000Z</time>
      </trkpt>
      <trkpt lat="47.49124" lon="6.76457">
        <ele>317</ele>
        <time>2016-03-20T08:32:32.000Z</time>
      </trkpt>
      <trkpt lat="47.49124" lon="6.76466">
        <ele>317</ele>
        <time>2016-03-20T08:32:33.000Z</time>
      </trkpt>
      <trkpt lat="47.49123" lon="6.76475">
        <ele>317</ele>
        <time>2016-03-20T08:32:34.000Z</time>
      </trkpt>
      <trkpt lat="47.49123" lon="6.76483">
        <ele>317</ele>
        <time>2016-03-20T08:32:35.000Z</time>
      </trkpt>
      <trkpt lat="47.49122" lon="6.7649">
        <ele>317</ele>
        <time>2016-03-20T08:32:36.000Z</time>
      </trkpt>
      <trkpt lat="47.4912" lon="6.76496">
        <ele>317</ele>
        <time>2016-03-20T08:32:37.000Z</time>
      </trkpt>
      <trkpt lat="47.4912" lon="6.76503">
        <ele>317</ele>
        <time>2016-03-20T08:32:38.000Z</time>
      </trkpt>
      <trkpt lat="47.49122" lon="6.76512">
        <ele>316</ele>
        <time>2016-03-20T08:32:39.000Z</time>
      </trkpt>
      <trkpt lat="47.49127" lon="6.76513">
        <ele>316</ele>
        <time>2016-03-20T08:32:40.000Z</time>
      </trkpt>
      <trkpt lat="47.49132" lon="6.76514">
        <ele>316</ele>
        <time>2016-03-20T08:32:41.000Z</time>
      </trkpt>
      <trkpt lat="47.49138" lon="6.76514">
        <ele>315</ele>
        <time>2016-03-20T08:32:42.000Z</time>
      </trkpt>
      <trkpt lat="47.49143" lon="6.76515">
        <ele>315</ele>
        <time>2016-03-20T08:32:43.000Z</time>
      </trkpt>
      <trkpt lat="47.49147" lon="6.76513">
        <ele>315</ele>
        <time>2016-03-20T08:32:44.000Z</time>
      </trkpt>
      <trkpt lat="47.49152" lon="6.76511">
        <ele>315</ele>
        <time>2016-03-20T08:32:45.000Z</time>
      </trkpt>
      <trkpt lat="47.49157" lon="6.76509">
        <ele>314</ele>
        <time>2016-03-20T08:32:46.000Z</time>
      </trkpt>
      <trkpt lat="47.49161" lon="6.76507">
        <ele>314</ele>
        <time>2016-03-20T08:32:47.000Z</time>
      </trkpt>
      <trkpt lat="47.49163" lon="6.76507">
        <ele>314</ele>
        <time>2016-03-20T08:32:48.000Z</time>
      </trkpt>
      <trkpt lat="47.49167" lon="6.76506">
        <ele>314</ele>
        <time>2016-03-20T08:32:49.000Z</time>
      </trkpt>
      <trkpt lat="47.4917" lon="6.76504">
        <ele>314</ele>
        <time>2016-03-20T08:32:50.000Z</time>
      </trkpt>
      <trkpt lat="47.49173" lon="6.76503">
        <ele>314</ele>
        <time>2016-03-20T08:32:51.000Z</time>
      </trkpt>
      <trkpt lat="47.49175" lon="6.76501">
        <ele>314</ele>
        <time>2016-03-20T08:32:52.000Z</time>
      </trkpt>
      <trkpt lat="47.49178" lon="6.765">
        <ele>315</ele>
        <time>2016-03-20T08:32:53.000Z</time>
      </trkpt>
      <trkpt lat="47.4918" lon="6.76496">
        <ele>315</ele>
        <time>2016-03-20T08:32:54.000Z</time>
      </trkpt>
      <trkpt lat="47.49183" lon="6.76494">
        <ele>315</ele>
        <time>2016-03-20T08:32:55.000Z</time>
      </trkpt>
      <trkpt lat="47.49181" lon="6.76488">
        <ele>316</ele>
        <time>2016-03-20T08:32:58.001Z</time>
      </trkpt>
      <trkpt lat="47.49179" lon="6.76489">
        <ele>315</ele>
        <time>2016-03-20T08:32:59.000Z</time>
      </trkpt>
      <trkpt lat="47.49183" lon="6.7649">
        <ele>316</ele>
        <time>2016-03-20T08:34:31.000Z</time>
      </trkpt>
      <trkpt lat="47.49183" lon="6.76489">
        <ele>316</ele>
        <time>2016-03-20T08:34:32.000Z</time>
      </trkpt>
      <trkpt lat="47.49179" lon="6.7649">
        <ele>315</ele>
        <time>2016-03-20T08:35:47.000Z</time>
      </trkpt>
      <trkpt lat="47.49179" lon="6.76489">
        <ele>315</ele>
        <time>2016-03-20T08:35:48.000Z</time>
      </trkpt>
      <trkpt lat="47.49178" lon="6.76494">
        <ele>315</ele>
        <time>2016-03-20T08:37:19.000Z</time>
      </trkpt>
      <trkpt lat="47.49176" lon="6.76496">
        <ele>315</ele>
        <time>2016-03-20T08:37:20.000Z</time>
      </trkpt>
      <trkpt lat="47.49172" lon="6.76499">
        <ele>314</ele>
        <time>2016-03-20T08:37:22.000Z</time>
      </trkpt>
      <trkpt lat="47.4917" lon="6.765">
        <ele>314</ele>
        <time>2016-03-20T08:37:23.000Z</time>
      </trkpt>
      <trkpt lat="47.49168" lon="6.76501">
        <ele>313</ele>
        <time>2016-03-20T08:37:24.000Z</time>
      </trkpt>
      <trkpt lat="47.49165" lon="6.76502">
        <ele>313</ele>
        <time>2016-03-20T08:37:25.000Z</time>
      </trkpt>
      <trkpt lat="47.49162" lon="6.76504">
        <ele>314</ele>
        <time>2016-03-20T08:37:26.000Z</time>
      </trkpt>
      <trkpt lat="47.49159" lon="6.76506">
        <ele>314</ele>
        <time>2016-03-20T08:37:27.000Z</time>
      </trkpt>
      <trkpt lat="47.49154" lon="6.76508">
        <ele>314</ele>
        <time>2016-03-20T08:37:28.000Z</time>
      </trkpt>
      <trkpt lat="47.4915" lon="6.76509">
        <ele>315</ele>
        <time>2016-03-20T08:37:29.000Z</time>
      </trkpt>
      <trkpt lat="47.49145" lon="6.76509">
        <ele>315</ele>
        <time>2016-03-20T08:37:30.000Z</time>
      </trkpt>
      <trkpt lat="47.4914" lon="6.76509">
        <ele>315</ele>
        <time>2016-03-20T08:37:31.000Z</time>
      </trkpt>
      <trkpt lat="47.49136" lon="6.76509">
        <ele>315</ele>
        <time>2016-03-20T08:37:32.000Z</time>
      </trkpt>
      <trkpt lat="47.49132" lon="6.76509">
        <ele>316</ele>
        <time>2016-03-20T08:37:33.000Z</time>
      </trkpt>
      <trkpt lat="47.49128" lon="6.76509">
        <ele>316</ele>
        <time>2016-03-20T08:37:34.000Z</time>
      </trkpt>
      <trkpt lat="47.49125" lon="6.76508">
        <ele>316</ele>
        <time>2016-03-20T08:37:35.000Z</time>
      </trkpt>
      <trkpt lat="47.49122" lon="6.76506">
        <ele>316</ele>
        <time>2016-03-20T08:37:36.000Z</time>
      </trkpt>
      <trkpt lat="47.4912" lon="6.76504">
        <ele>317</ele>
        <time>2016-03-20T08:37:37.000Z</time>
      </trkpt>
      <trkpt lat="47.49118" lon="6.765">
        <ele>317</ele>
        <time>2016-03-20T08:37:38.000Z</time>
      </trkpt>
      <trkpt lat="47.49118" lon="6.76496">
        <ele>318</ele>
        <time>2016-03-20T08:37:39.000Z</time>
      </trkpt>
      <trkpt lat="47.49118" lon="6.76492">
        <ele>317</ele>
        <time>2016-03-20T08:37:40.000Z</time>
      </trkpt>
      <trkpt lat="47.4912" lon="6.76489">
        <ele>317</ele>
        <time>2016-03-20T08:37:41.000Z</time>
      </trkpt>
      <trkpt lat="47.49121" lon="6.76485">
        <ele>317</ele>
        <time>2016-03-20T08:37:42.000Z</time>
      </trkpt>
      <trkpt lat="47.49123" lon="6.76481">
        <ele>317</ele>
        <time>2016-03-20T08:37:43.000Z</time>
      </trkpt>
      <trkpt lat="47.49124" lon="6.76477">
        <ele>317</ele>
        <time>2016-03-20T08:37:44.000Z</time>
      </trkpt>
      <trkpt lat="47.49124" lon="6.76472">
        <ele>317</ele>
        <time>2016-03-20T08:37:45.000Z</time>
      </trkpt>
      <trkpt lat="47.49125" lon="6.76468">
        <ele>317</ele>
        <time>2016-03-20T08:37:46.000Z</time>
      </trkpt>
      <trkpt lat="47.49125" lon="6.76464">
        <ele>317</ele>
        <time>2016-03-20T08:37:47.000Z</time>
      </trkpt>
      <trkpt lat="47.49125" lon="6.7646">
        <ele>317</ele>
        <time>2016-03-20T08:37:48.000Z</time>
      </trkpt>
      <trkpt lat="47.49126" lon="6.76456">
        <ele>317</ele>
        <time>2016-03-20T08:37:49.000Z</time>
      </trkpt>
      <trkpt lat="47.49126" lon="6.76451">
        <ele>317</ele>
        <time>2016-03-20T08:37:50.000Z</time>
      </trkpt>
      <trkpt lat="47.49127" lon="6.76447">
        <ele>317</ele>
        <time>2016-03-20T08:37:51.000Z</time>
      </trkpt>
      <trkpt lat="47.49127" lon="6.76442">
        <ele>317</ele>
        <time>2016-03-20T08:37:52.000Z</time>
      </trkpt>
      <trkpt lat="47.49127" lon="6.76438">
        <ele>317</ele>
        <time>2016-03-20T08:37:53.000Z</time>
      </trkpt>
      <trkpt lat="47.49127" lon="6.76434">
        <ele>317</ele>
        <time>2016-03-20T08:37:54.000Z</time>
      </trkpt>
      <trkpt lat="47.49126" lon="6.76429">
        <ele>317</ele>
        <time>2016-03-20T08:37:55.000Z</time>
      </trkpt>
      <trkpt lat="47.49125" lon="6.76426">
        <ele>317</ele>
        <time>2016-03-20T08:37:56.000Z</time>
      </trkpt>
      <trkpt lat="47.49123" lon="6.76424">
        <ele>317</ele>
        <time>2016-03-20T08:37:57.000Z</time>
      </trkpt>
      <trkpt lat="47.4912" lon="6.76424">
        <ele>317</ele>
        <time>2016-03-20T08:37:58.000Z</time>
      </trkpt>
      <trkpt lat="47.49117" lon="6.76424">
        <ele>318</ele>
        <time>2016-03-20T08:37:59.000Z</time>
      </trkpt>
      <trkpt lat="47.49114" lon="6.76425">
        <ele>318</ele>
        <time>2016-03-20T08:38:00.000Z</time>
      </trkpt>
      <trkpt lat="47.49112" lon="6.76425">
        <ele>318</ele>
        <time>2016-03-20T08:38:01.000Z</time>
      </trkpt>
      <trkpt lat="47.49109" lon="6.76424">
        <ele>318</ele>
        <time>2016-03-20T08:38:02.000Z</time>
      </trkpt>
      <trkpt lat="47.49107" lon="6.76423">
        <ele>318</ele>
        <time>2016-03-20T08:38:03.000Z</time>
      </trkpt>
      <trkpt lat="47.49105" lon="6.76419">
        <ele>319</ele>
        <time>2016-03-20T08:38:05.000Z</time>
      </trkpt>
      <trkpt lat="47.49105" lon="6.76415">
        <ele>319</ele>
        <time>2016-03-20T08:38:06.000Z</time>
      </trkpt>
      <trkpt lat="47.49106" lon="6.76411">
        <ele>319</ele>
        <time>2016-03-20T08:38:07.000Z</time>
      </trkpt>
      <trkpt lat="47.49107" lon="6.76406">
        <ele>319</ele>
        <time>2016-03-20T08:38:08.000Z</time>
      </trkpt>
      <trkpt lat="47.49108" lon="6.76401">
        <ele>319</ele>
        <time>2016-03-20T08:38:09.000Z</time>
      </trkpt>
      <trkpt lat="47.4911" lon="6.76397">
        <ele>318</ele>
        <time>2016-03-20T08:38:10.000Z</time>
      </trkpt>
      <trkpt lat="47.49111" lon="6.76393">
        <ele>318</ele>
        <time>2016-03-20T08:38:11.000Z</time>
      </trkpt>
      <trkpt lat="47.49112" lon="6.76389">
        <ele>318</ele>
        <time>2016-03-20T08:38:12.000Z</time>
      </trkpt>
      <trkpt lat="47.49113" lon="6.76386">
        <ele>318</ele>
        <time>2016-03-20T08:38:13.000Z</time>
      </trkpt>
      <trkpt lat="47.49113" lon="6.76383">
        <ele>318</ele>
        <time>2016-03-20T08:38:14.000Z</time>
      </trkpt>
      <trkpt lat="47.49114" lon="6.7638">
        <ele>318</ele>
        <time>2016-03-20T08:38:15.000Z</time>
      </trkpt>
      <trkpt lat="47.49115" lon="6.76376">
        <ele>318</ele>
        <time>2016-03-20T08:38:16.000Z</time>
      </trkpt>
      <trkpt lat="47.49115" lon="6.76373">
        <ele>318</ele>
        <time>2016-03-20T08:38:17.000Z</time>
      </trkpt>
      <trkpt lat="47.49116" lon="6.76368">
        <ele>318</ele>
        <time>2016-03-20T08:38:18.000Z</time>
      </trkpt>
      <trkpt lat="47.49116" lon="6.76363">
        <ele>318</ele>
        <time>2016-03-20T08:38:19.000Z</time>
      </trkpt>
      <trkpt lat="47.49116" lon="6.76358">
        <ele>318</ele>
        <time>2016-03-20T08:38:20.000Z</time>
      </trkpt>
      <trkpt lat="47.49115" lon="6.76353">
        <ele>319</ele>
        <time>2016-03-20T08:38:21.000Z</time>
      </trkpt>
      <trkpt lat="47.49115" lon="6.76347">
        <ele>319</ele>
        <time>2016-03-20T08:38:22.000Z</time>
      </trkpt>
      <trkpt lat="47.49115" lon="6.7634">
        <ele>319</ele>
        <time>2016-03-20T08:38:23.000Z</time>
      </trkpt>
      <trkpt lat="47.49116" lon="6.76333">
        <ele>320</ele>
        <time>2016-03-20T08:38:24.000Z</time>
      </trkpt>
      <trkpt lat="47.49116" lon="6.76326">
        <ele>320</ele>
        <time>2016-03-20T08:38:25.000Z</time>
      </trkpt>
      <trkpt lat="47.49116" lon="6.7632">
        <ele>320</ele>
        <time>2016-03-20T08:38:26.000Z</time>
      </trkpt>
      <trkpt lat="47.49116" lon="6.76315">
        <ele>320</ele>
        <time>2016-03-20T08:38:27.000Z</time>
      </trkpt>
      <trkpt lat="47.49116" lon="6.76311">
        <ele>320</ele>
        <time>2016-03-20T08:38:28.000Z</time>
      </trkpt>
      <trkpt lat="47.49115" lon="6.76308">
        <ele>320</ele>
        <time>2016-03-20T08:38:29.000Z</time>
      </trkpt>
      <trkpt lat="47.49115" lon="6.76304">
        <ele>320</ele>
        <time>2016-03-20T08:38:30.000Z</time>
      </trkpt>
      <trkpt lat="47.49115" lon="6.76299">
        <ele>320</ele>
        <time>2016-03-20T08:38:31.000Z</time>
      </trkpt>
      <trkpt lat="47.49115" lon="6.76294">
        <ele>320</ele>
        <time>2016-03-20T08:38:32.000Z</time>
      </trkpt>
      <trkpt lat="47.49115" lon="6.7629">
        <ele>320</ele>
        <time>2016-03-20T08:38:33.000Z</time>
      </trkpt>
      <trkpt lat="47.49114" lon="6.76285">
        <ele>320</ele>
        <time>2016-03-20T08:38:34.000Z</time>
      </trkpt>
      <trkpt lat="47.49114" lon="6.76281">
        <ele>320</ele>
        <time>2016-03-20T08:38:35.000Z</time>
      </trkpt>
      <trkpt lat="47.49114" lon="6.76277">
        <ele>320</ele>
        <time>2016-03-20T08:38:36.000Z</time>
      </trkpt>
      <trkpt lat="47.49113" lon="6.76272">
        <ele>320</ele>
        <time>2016-03-20T08:38:37.000Z</time>
      </trkpt>
      <trkpt lat="47.49113" lon="6.76268">
        <ele>321</ele>
        <time>2016-03-20T08:38:38.000Z</time>
      </trkpt>
      <trkpt lat="47.49113" lon="6.76264">
        <ele>321</ele>
        <time>2016-03-20T08:38:39.000Z</time>
      </trkpt>
      <trkpt lat="47.49113" lon="6.76259">
        <ele>321</ele>
        <time>2016-03-20T08:38:40.000Z</time>
      </trkpt>
      <trkpt lat="47.49113" lon="6.76255">
        <ele>321</ele>
        <time>2016-03-20T08:38:41.000Z</time>
      </trkpt>
      <trkpt lat="47.49113" lon="6.76251">
        <ele>321</ele>
        <time>2016-03-20T08:38:42.000Z</time>
      </trkpt>
      <trkpt lat="47.49112" lon="6.76247">
        <ele>322</ele>
        <time>2016-03-20T08:38:43.000Z</time>
      </trkpt>
      <trkpt lat="47.49112" lon="6.76243">
        <ele>322</ele>
        <time>2016-03-20T08:38:44.000Z</time>
      </trkpt>
      <trkpt lat="47.49111" lon="6.76239">
        <ele>322</ele>
        <time>2016-03-20T08:38:45.000Z</time>
      </trkpt>
      <trkpt lat="47.49111" lon="6.76235">
        <ele>322</ele>
        <time>2016-03-20T08:38:46.000Z</time>
      </trkpt>
      <trkpt lat="47.4911" lon="6.76231">
        <ele>322</ele>
        <time>2016-03-20T08:38:47.000Z</time>
      </trkpt>
      <trkpt lat="47.4911" lon="6.76227">
        <ele>322</ele>
        <time>2016-03-20T08:38:48.000Z</time>
      </trkpt>
      <trkpt lat="47.4911" lon="6.76222">
        <ele>322</ele>
        <time>2016-03-20T08:38:49.000Z</time>
      </trkpt>
      <trkpt lat="47.4911" lon="6.76217">
        <ele>322</ele>
        <time>2016-03-20T08:38:50.000Z</time>
      </trkpt>
      <trkpt lat="47.4911" lon="6.76211">
        <ele>322</ele>
        <time>2016-03-20T08:38:51.000Z</time>
      </trkpt>
      <trkpt lat="47.49109" lon="6.76204">
        <ele>322</ele>
        <time>2016-03-20T08:38:52.000Z</time>
      </trkpt>
      <trkpt lat="47.49108" lon="6.76198">
        <ele>322</ele>
        <time>2016-03-20T08:38:53.000Z</time>
      </trkpt>
      <trkpt lat="47.49108" lon="6.76192">
        <ele>322</ele>
        <time>2016-03-20T08:38:54.000Z</time>
      </trkpt>
      <trkpt lat="47.49108" lon="6.76185">
        <ele>322</ele>
        <time>2016-03-20T08:38:55.000Z</time>
      </trkpt>
      <trkpt lat="47.49108" lon="6.76179">
        <ele>322</ele>
        <time>2016-03-20T08:38:56.000Z</time>
      </trkpt>
      <trkpt lat="47.49108" lon="6.76173">
        <ele>322</ele>
        <time>2016-03-20T08:38:57.000Z</time>
      </trkpt>
      <trkpt lat="47.49109" lon="6.76166">
        <ele>323</ele>
        <time>2016-03-20T08:38:58.000Z</time>
      </trkpt>
      <trkpt lat="47.49111" lon="6.76159">
        <ele>323</ele>
        <time>2016-03-20T08:38:59.000Z</time>
      </trkpt>
      <trkpt lat="47.49113" lon="6.76152">
        <ele>323</ele>
        <time>2016-03-20T08:39:00.000Z</time>
      </trkpt>
      <trkpt lat="47.49115" lon="6.76145">
        <ele>323</ele>
        <time>2016-03-20T08:39:01.000Z</time>
      </trkpt>
      <trkpt lat="47.49117" lon="6.76138">
        <ele>322</ele>
        <time>2016-03-20T08:39:02.000Z</time>
      </trkpt>
      <trkpt lat="47.49118" lon="6.76132">
        <ele>322</ele>
        <time>2016-03-20T08:39:03.000Z</time>
      </trkpt>
      <trkpt lat="47.49119" lon="6.76125">
        <ele>323</ele>
        <time>2016-03-20T08:39:04.000Z</time>
      </trkpt>
      <trkpt lat="47.4912" lon="6.76118">
        <ele>323</ele>
        <time>2016-03-20T08:39:05.000Z</time>
      </trkpt>
      <trkpt lat="47.49121" lon="6.76111">
        <ele>323</ele>
        <time>2016-03-20T08:39:06.000Z</time>
      </trkpt>
      <trkpt lat="47.49122" lon="6.76104">
        <ele>323</ele>
        <time>2016-03-20T08:39:07.000Z</time>
      </trkpt>
      <trkpt lat="47.49122" lon="6.76098">
        <ele>323</ele>
        <time>2016-03-20T08:39:08.000Z</time>
      </trkpt>
      <trkpt lat="47.49123" lon="6.76092">
        <ele>323</ele>
        <time>2016-03-20T08:39:09.000Z</time>
      </trkpt>
      <trkpt lat="47.49124" lon="6.76088">
        <ele>323</ele>
        <time>2016-03-20T08:39:10.000Z</time>
      </trkpt>
      <trkpt lat="47.49124" lon="6.76082">
        <ele>324</ele>
        <time>2016-03-20T08:39:11.000Z</time>
      </trkpt>
      <trkpt lat="47.49124" lon="6.76077">
        <ele>324</ele>
        <time>2016-03-20T08:39:12.000Z</time>
      </trkpt>
      <trkpt lat="47.49124" lon="6.76071">
        <ele>324</ele>
        <time>2016-03-20T08:39:13.000Z</time>
      </trkpt>
      <trkpt lat="47.49123" lon="6.76065">
        <ele>324</ele>
        <time>2016-03-20T08:39:14.000Z</time>
      </trkpt>
      <trkpt lat="47.49124" lon="6.76061">
        <ele>324</ele>
        <time>2016-03-20T08:39:15.000Z</time>
      </trkpt>
      <trkpt lat="47.49124" lon="6.76056">
        <ele>324</ele>
        <time>2016-03-20T08:39:16.000Z</time>
      </trkpt>
      <trkpt lat="47.49125" lon="6.76052">
        <ele>324</ele>
        <time>2016-03-20T08:39:17.000Z</time>
      </trkpt>
      <trkpt lat="47.49126" lon="6.76047">
        <ele>324</ele>
        <time>2016-03-20T08:39:18.000Z</time>
      </trkpt>
      <trkpt lat="47.49128" lon="6.76042">
        <ele>324</ele>
        <time>2016-03-20T08:39:19.000Z</time>
      </trkpt>
      <trkpt lat="47.4913" lon="6.76036">
        <ele>324</ele>
        <time>2016-03-20T08:39:20.000Z</time>
      </trkpt>
      <trkpt lat="47.49132" lon="6.7603">
        <ele>324</ele>
        <time>2016-03-20T08:39:21.000Z</time>
      </trkpt>
      <trkpt lat="47.49134" lon="6.76025">
        <ele>324</ele>
        <time>2016-03-20T08:39:22.000Z</time>
      </trkpt>
      <trkpt lat="47.49135" lon="6.76021">
        <ele>324</ele>
        <time>2016-03-20T08:39:23.000Z</time>
      </trkpt>
      <trkpt lat="47.49138" lon="6.76019">
        <ele>324</ele>
        <time>2016-03-20T08:39:24.000Z</time>
      </trkpt>
      <trkpt lat="47.49141" lon="6.76018">
        <ele>323</ele>
        <time>2016-03-20T08:39:25.000Z</time>
      </trkpt>
      <trkpt lat="47.49145" lon="6.76018">
        <ele>323</ele>
        <time>2016-03-20T08:39:26.000Z</time>
      </trkpt>
      <trkpt lat="47.49148" lon="6.76017">
        <ele>323</ele>
        <time>2016-03-20T08:39:27.000Z</time>
      </trkpt>
      <trkpt lat="47.49149" lon="6.76015">
        <ele>322</ele>
        <time>2016-03-20T08:39:28.000Z</time>
      </trkpt>
      <trkpt lat="47.4915" lon="6.76011">
        <ele>322</ele>
        <time>2016-03-20T08:39:29.000Z</time>
      </trkpt>
      <trkpt lat="47.4915" lon="6.76008">
        <ele>322</ele>
        <time>2016-03-20T08:39:30.000Z</time>
      </trkpt>
      <trkpt lat="47.4915" lon="6.76003">
        <ele>322</ele>
        <time>2016-03-20T08:39:31.000Z</time>
      </trkpt>
      <trkpt lat="47.4915" lon="6.75997">
        <ele>324</ele>
        <time>2016-03-20T08:39:32.000Z</time>
      </trkpt>
      <trkpt lat="47.4915" lon="6.7599">
        <ele>324</ele>
        <time>2016-03-20T08:39:33.000Z</time>
      </trkpt>
      <trkpt lat="47.4915" lon="6.75983">
        <ele>325</ele>
        <time>2016-03-20T08:39:34.000Z</time>
      </trkpt>
      <trkpt lat="47.49149" lon="6.75976">
        <ele>325</ele>
        <time>2016-03-20T08:39:35.000Z</time>
      </trkpt>
      <trkpt lat="47.49149" lon="6.7597">
        <ele>326</ele>
        <time>2016-03-20T08:39:36.000Z</time>
      </trkpt>
      <trkpt lat="47.49148" lon="6.75965">
        <ele>326</ele>
        <time>2016-03-20T08:39:37.000Z</time>
      </trkpt>
      <trkpt lat="47.49148" lon="6.75961">
        <ele>326</ele>
        <time>2016-03-20T08:39:38.000Z</time>
      </trkpt>
      <trkpt lat="47.49149" lon="6.75957">
        <ele>326</ele>
        <time>2016-03-20T08:39:39.000Z</time>
      </trkpt>
      <trkpt lat="47.4915" lon="6.75953">
        <ele>326</ele>
        <time>2016-03-20T08:39:40.000Z</time>
      </trkpt>
      <trkpt lat="47.49151" lon="6.75949">
        <ele>326</ele>
        <time>2016-03-20T08:39:41.000Z</time>
      </trkpt>
      <trkpt lat="47.49153" lon="6.75944">
        <ele>326</ele>
        <time>2016-03-20T08:39:42.000Z</time>
      </trkpt>
      <trkpt lat="47.49154" lon="6.7594">
        <ele>326</ele>
        <time>2016-03-20T08:39:43.000Z</time>
      </trkpt>
      <trkpt lat="47.49156" lon="6.75935">
        <ele>326</ele>
        <time>2016-03-20T08:39:44.000Z</time>
      </trkpt>
      <trkpt lat="47.49157" lon="6.75931">
        <ele>326</ele>
        <time>2016-03-20T08:39:45.000Z</time>
      </trkpt>
      <trkpt lat="47.49158" lon="6.75926">
        <ele>325</ele>
        <time>2016-03-20T08:39:46.000Z</time>
      </trkpt>
      <trkpt lat="47.49159" lon="6.75921">
        <ele>325</ele>
        <time>2016-03-20T08:39:47.000Z</time>
      </trkpt>
      <trkpt lat="47.49161" lon="6.75916">
        <ele>325</ele>
        <time>2016-03-20T08:39:48.000Z</time>
      </trkpt>
      <trkpt lat="47.49163" lon="6.75911">
        <ele>325</ele>
        <time>2016-03-20T08:39:49.000Z</time>
      </trkpt>
      <trkpt lat="47.49164" lon="6.75905">
        <ele>327</ele>
        <time>2016-03-20T08:39:50.000Z</time>
      </trkpt>
      <trkpt lat="47.49166" lon="6.75898">
        <ele>328</ele>
        <time>2016-03-20T08:39:51.000Z</time>
      </trkpt>
      <trkpt lat="47.49169" lon="6.75891">
        <ele>321</ele>
        <time>2016-03-20T08:39:52.000Z</time>
      </trkpt>
      <trkpt lat="47.49171" lon="6.75885">
        <ele>321</ele>
        <time>2016-03-20T08:39:53.000Z</time>
      </trkpt>
      <trkpt lat="47.49174" lon="6.75877">
        <ele>321</ele>
        <time>2016-03-20T08:39:54.000Z</time>
      </trkpt>
      <trkpt lat="47.49178" lon="6.75858">
        <ele>322</ele>
        <time>2016-03-20T08:39:55.000Z</time>
      </trkpt>
      <trkpt lat="47.49179" lon="6.7585">
        <ele>322</ele>
        <time>2016-03-20T08:39:56.000Z</time>
      </trkpt>
      <trkpt lat="47.49181" lon="6.75844">
        <ele>322</ele>
        <time>2016-03-20T08:39:57.000Z</time>
      </trkpt>
      <trkpt lat="47.49184" lon="6.75837">
        <ele>322</ele>
        <time>2016-03-20T08:39:58.000Z</time>
      </trkpt>
      <trkpt lat="47.49185" lon="6.75827">
        <ele>324</ele>
        <time>2016-03-20T08:39:59.000Z</time>
      </trkpt>
      <trkpt lat="47.49187" lon="6.75817">
        <ele>324</ele>
        <time>2016-03-20T08:40:00.000Z</time>
      </trkpt>
      <trkpt lat="47.49191" lon="6.7581">
        <ele>324</ele>
        <time>2016-03-20T08:40:01.000Z</time>
      </trkpt>
      <trkpt lat="47.49195" lon="6.75803">
        <ele>324</ele>
        <time>2016-03-20T08:40:02.000Z</time>
      </trkpt>
      <trkpt lat="47.49201" lon="6.75798">
        <ele>324</ele>
        <time>2016-03-20T08:40:03.000Z</time>
      </trkpt>
      <trkpt lat="47.49203" lon="6.7579">
        <ele>324</ele>
        <time>2016-03-20T08:40:04.000Z</time>
      </trkpt>
      <trkpt lat="47.49204" lon="6.75781">
        <ele>324</ele>
        <time>2016-03-20T08:40:05.000Z</time>
      </trkpt>
      <trkpt lat="47.49207" lon="6.75774">
        <ele>324</ele>
        <time>2016-03-20T08:40:06.000Z</time>
      </trkpt>
      <trkpt lat="47.4921" lon="6.75769">
        <ele>324</ele>
        <time>2016-03-20T08:40:07.000Z</time>
      </trkpt>
      <trkpt lat="47.49211" lon="6.75761">
        <ele>324</ele>
        <time>2016-03-20T08:40:08.000Z</time>
      </trkpt>
      <trkpt lat="47.4921" lon="6.75751">
        <ele>324</ele>
        <time>2016-03-20T08:40:09.000Z</time>
      </trkpt>
      <trkpt lat="47.49211" lon="6.75746">
        <ele>329</ele>
        <time>2016-03-20T08:40:10.000Z</time>
      </trkpt>
      <trkpt lat="47.49212" lon="6.75736">
        <ele>329</ele>
        <time>2016-03-20T08:40:11.000Z</time>
      </trkpt>
      <trkpt lat="47.49213" lon="6.75727">
        <ele>330</ele>
        <time>2016-03-20T08:40:12.000Z</time>
      </trkpt>
      <trkpt lat="47.49216" lon="6.75722">
        <ele>330</ele>
        <time>2016-03-20T08:40:13.000Z</time>
      </trkpt>
      <trkpt lat="47.49219" lon="6.75717">
        <ele>330</ele>
        <time>2016-03-20T08:40:14.000Z</time>
      </trkpt>
      <trkpt lat="47.49221" lon="6.75713">
        <ele>330</ele>
        <time>2016-03-20T08:40:15.000Z</time>
      </trkpt>
      <trkpt lat="47.49223" lon="6.75707">
        <ele>330</ele>
        <time>2016-03-20T08:40:16.000Z</time>
      </trkpt>
      <trkpt lat="47.49225" lon="6.75702">
        <ele>329</ele>
        <time>2016-03-20T08:40:17.000Z</time>
      </trkpt>
      <trkpt lat="47.49228" lon="6.75699">
        <ele>329</ele>
        <time>2016-03-20T08:40:18.000Z</time>
      </trkpt>
      <trkpt lat="47.49229" lon="6.75694">
        <ele>329</ele>
        <time>2016-03-20T08:40:19.000Z</time>
      </trkpt>
      <trkpt lat="47.49231" lon="6.75688">
        <ele>329</ele>
        <time>2016-03-20T08:40:20.000Z</time>
      </trkpt>
      <trkpt lat="47.49234" lon="6.75683">
        <ele>328</ele>
        <time>2016-03-20T08:40:21.000Z</time>
      </trkpt>
      <trkpt lat="47.49232" lon="6.75675">
        <ele>328</ele>
        <time>2016-03-20T08:40:22.000Z</time>
      </trkpt>
      <trkpt lat="47.49234" lon="6.75673">
        <ele>327</ele>
        <time>2016-03-20T08:40:23.000Z</time>
      </trkpt>
      <trkpt lat="47.49236" lon="6.7567">
        <ele>327</ele>
        <time>2016-03-20T08:40:24.000Z</time>
      </trkpt>
      <trkpt lat="47.49238" lon="6.75666">
        <ele>330</ele>
        <time>2016-03-20T08:40:25.000Z</time>
      </trkpt>
      <trkpt lat="47.4924" lon="6.75663">
        <ele>329</ele>
        <time>2016-03-20T08:40:26.000Z</time>
      </trkpt>
      <trkpt lat="47.49242" lon="6.7566">
        <ele>329</ele>
        <time>2016-03-20T08:40:27.000Z</time>
      </trkpt>
      <trkpt lat="47.49244" lon="6.75656">
        <ele>330</ele>
        <time>2016-03-20T08:40:28.000Z</time>
      </trkpt>
      <trkpt lat="47.49246" lon="6.75651">
        <ele>331</ele>
        <time>2016-03-20T08:40:29.000Z</time>
      </trkpt>
      <trkpt lat="47.49248" lon="6.75645">
        <ele>332</ele>
        <time>2016-03-20T08:40:30.000Z</time>
      </trkpt>
      <trkpt lat="47.4925" lon="6.75638">
        <ele>324</ele>
        <time>2016-03-20T08:40:31.000Z</time>
      </trkpt>
      <trkpt lat="47.49252" lon="6.7563">
        <ele>325</ele>
        <time>2016-03-20T08:40:32.000Z</time>
      </trkpt>
      <trkpt lat="47.49253" lon="6.75611">
        <ele>326</ele>
        <time>2016-03-20T08:40:33.000Z</time>
      </trkpt>
      <trkpt lat="47.49254" lon="6.75602">
        <ele>328</ele>
        <time>2016-03-20T08:40:34.000Z</time>
      </trkpt>
      <trkpt lat="47.49255" lon="6.75593">
        <ele>329</ele>
        <time>2016-03-20T08:40:35.000Z</time>
      </trkpt>
      <trkpt lat="47.49254" lon="6.75583">
        <ele>332</ele>
        <time>2016-03-20T08:40:36.000Z</time>
      </trkpt>
      <trkpt lat="47.49256" lon="6.75579">
        <ele>332</ele>
        <time>2016-03-20T08:40:37.000Z</time>
      </trkpt>
      <trkpt lat="47.49257" lon="6.7557">
        <ele>331</ele>
        <time>2016-03-20T08:40:38.000Z</time>
      </trkpt>
      <trkpt lat="47.49259" lon="6.75564">
        <ele>331</ele>
        <time>2016-03-20T08:40:39.000Z</time>
      </trkpt>
      <trkpt lat="47.49261" lon="6.75557">
        <ele>331</ele>
        <time>2016-03-20T08:40:40.000Z</time>
      </trkpt>
      <trkpt lat="47.49261" lon="6.75547">
        <ele>331</ele>
        <time>2016-03-20T08:40:41.000Z</time>
      </trkpt>
      <trkpt lat="47.49261" lon="6.75542">
        <ele>331</ele>
        <time>2016-03-20T08:40:42.000Z</time>
      </trkpt>
      <trkpt lat="47.49262" lon="6.75536">
        <ele>331</ele>
        <time>2016-03-20T08:40:43.000Z</time>
      </trkpt>
      <trkpt lat="47.49261" lon="6.75528">
        <ele>332</ele>
        <time>2016-03-20T08:40:44.000Z</time>
      </trkpt>
      <trkpt lat="47.49262" lon="6.75518">
        <ele>333</ele>
        <time>2016-03-20T08:40:45.000Z</time>
      </trkpt>
      <trkpt lat="47.49263" lon="6.75512">
        <ele>334</ele>
        <time>2016-03-20T08:40:46.000Z</time>
      </trkpt>
      <trkpt lat="47.49265" lon="6.75506">
        <ele>334</ele>
        <time>2016-03-20T08:40:47.000Z</time>
      </trkpt>
      <trkpt lat="47.49266" lon="6.75499">
        <ele>337</ele>
        <time>2016-03-20T08:40:48.000Z</time>
      </trkpt>
      <trkpt lat="47.49267" lon="6.75495">
        <ele>337</ele>
        <time>2016-03-20T08:40:49.000Z</time>
      </trkpt>
      <trkpt lat="47.49269" lon="6.7549">
        <ele>336</ele>
        <time>2016-03-20T08:40:50.000Z</time>
      </trkpt>
      <trkpt lat="47.4927" lon="6.75486">
        <ele>336</ele>
        <time>2016-03-20T08:40:51.000Z</time>
      </trkpt>
      <trkpt lat="47.49272" lon="6.75481">
        <ele>336</ele>
        <time>2016-03-20T08:40:52.000Z</time>
      </trkpt>
      <trkpt lat="47.49274" lon="6.75476">
        <ele>336</ele>
        <time>2016-03-20T08:40:53.000Z</time>
      </trkpt>
      <trkpt lat="47.49276" lon="6.75471">
        <ele>336</ele>
        <time>2016-03-20T08:40:54.000Z</time>
      </trkpt>
      <trkpt lat="47.49277" lon="6.75465">
        <ele>336</ele>
        <time>2016-03-20T08:40:55.000Z</time>
      </trkpt>
      <trkpt lat="47.49279" lon="6.7546">
        <ele>336</ele>
        <time>2016-03-20T08:40:56.000Z</time>
      </trkpt>
      <trkpt lat="47.4928" lon="6.75454">
        <ele>336</ele>
        <time>2016-03-20T08:40:57.000Z</time>
      </trkpt>
      <trkpt lat="47.49282" lon="6.75449">
        <ele>336</ele>
        <time>2016-03-20T08:40:58.000Z</time>
      </trkpt>
      <trkpt lat="47.49283" lon="6.75444">
        <ele>336</ele>
        <time>2016-03-20T08:40:59.000Z</time>
      </trkpt>
      <trkpt lat="47.49285" lon="6.75435">
        <ele>336</ele>
        <time>2016-03-20T08:41:01.000Z</time>
      </trkpt>
      <trkpt lat="47.49286" lon="6.7543">
        <ele>336</ele>
        <time>2016-03-20T08:41:02.000Z</time>
      </trkpt>
      <trkpt lat="47.49288" lon="6.75424">
        <ele>336</ele>
        <time>2016-03-20T08:41:03.000Z</time>
      </trkpt>
      <trkpt lat="47.4929" lon="6.75418">
        <ele>336</ele>
        <time>2016-03-20T08:41:04.000Z</time>
      </trkpt>
      <trkpt lat="47.49291" lon="6.75412">
        <ele>338</ele>
        <time>2016-03-20T08:41:05.000Z</time>
      </trkpt>
      <trkpt lat="47.49293" lon="6.75406">
        <ele>338</ele>
        <time>2016-03-20T08:41:06.000Z</time>
      </trkpt>
      <trkpt lat="47.49294" lon="6.75399">
        <ele>338</ele>
        <time>2016-03-20T08:41:07.000Z</time>
      </trkpt>
      <trkpt lat="47.49295" lon="6.75393">
        <ele>338</ele>
        <time>2016-03-20T08:41:08.000Z</time>
      </trkpt>
      <trkpt lat="47.49296" lon="6.75387">
        <ele>338</ele>
        <time>2016-03-20T08:41:09.000Z</time>
      </trkpt>
      <trkpt lat="47.49296" lon="6.75382">
        <ele>338</ele>
        <time>2016-03-20T08:41:10.000Z</time>
      </trkpt>
      <trkpt lat="47.49297" lon="6.75377">
        <ele>338</ele>
        <time>2016-03-20T08:41:11.000Z</time>
      </trkpt>
      <trkpt lat="47.49297" lon="6.75374">
        <ele>338</ele>
        <time>2016-03-20T08:41:12.000Z</time>
      </trkpt>
      <trkpt lat="47.49298" lon="6.7537">
        <ele>338</ele>
        <time>2016-03-20T08:41:13.000Z</time>
      </trkpt>
      <trkpt lat="47.49299" lon="6.75365">
        <ele>338</ele>
        <time>2016-03-20T08:41:14.000Z</time>
      </trkpt>
      <trkpt lat="47.49301" lon="6.75359">
        <ele>337</ele>
        <time>2016-03-20T08:41:15.000Z</time>
      </trkpt>
      <trkpt lat="47.49302" lon="6.75354">
        <ele>337</ele>
        <time>2016-03-20T08:41:16.000Z</time>
      </trkpt>
      <trkpt lat="47.49303" lon="6.75349">
        <ele>337</ele>
        <time>2016-03-20T08:41:17.000Z</time>
      </trkpt>
      <trkpt lat="47.49304" lon="6.75344">
        <ele>337</ele>
        <time>2016-03-20T08:41:18.000Z</time>
      </trkpt>
      <trkpt lat="47.49305" lon="6.75339">
        <ele>336</ele>
        <time>2016-03-20T08:41:19.000Z</time>
      </trkpt>
      <trkpt lat="47.49306" lon="6.75333">
        <ele>337</ele>
        <time>2016-03-20T08:41:20.000Z</time>
      </trkpt>
      <trkpt lat="47.49306" lon="6.75326">
        <ele>337</ele>
        <time>2016-03-20T08:41:21.000Z</time>
      </trkpt>
      <trkpt lat="47.49306" lon="6.7532">
        <ele>337</ele>
        <time>2016-03-20T08:41:22.000Z</time>
      </trkpt>
      <trkpt lat="47.49306" lon="6.75314">
        <ele>338</ele>
        <time>2016-03-20T08:41:23.000Z</time>
      </trkpt>
      <trkpt lat="47.49307" lon="6.75308">
        <ele>338</ele>
        <time>2016-03-20T08:41:24.000Z</time>
      </trkpt>
      <trkpt lat="47.49307" lon="6.75303">
        <ele>338</ele>
        <time>2016-03-20T08:41:25.000Z</time>
      </trkpt>
      <trkpt lat="47.49307" lon="6.75298">
        <ele>338</ele>
        <time>2016-03-20T08:41:26.000Z</time>
      </trkpt>
      <trkpt lat="47.49308" lon="6.75293">
        <ele>338</ele>
        <time>2016-03-20T08:41:27.000Z</time>
      </trkpt>
      <trkpt lat="47.49308" lon="6.75288">
        <ele>338</ele>
        <time>2016-03-20T08:41:28.000Z</time>
      </trkpt>
      <trkpt lat="47.49308" lon="6.75283">
        <ele>338</ele>
        <time>2016-03-20T08:41:29.000Z</time>
      </trkpt>
      <trkpt lat="47.49307" lon="6.75279">
        <ele>338</ele>
        <time>2016-03-20T08:41:30.000Z</time>
      </trkpt>
      <trkpt lat="47.49307" lon="6.75275">
        <ele>338</ele>
        <time>2016-03-20T08:41:31.000Z</time>
      </trkpt>
      <trkpt lat="47.49307" lon="6.75271">
        <ele>338</ele>
        <time>2016-03-20T08:41:32.000Z</time>
      </trkpt>
      <trkpt lat="47.49307" lon="6.75265">
        <ele>338</ele>
        <time>2016-03-20T08:41:33.000Z</time>
      </trkpt>
      <trkpt lat="47.49307" lon="6.75259">
        <ele>338</ele>
        <time>2016-03-20T08:41:34.000Z</time>
      </trkpt>
      <trkpt lat="47.49308" lon="6.75252">
        <ele>338</ele>
        <time>2016-03-20T08:41:35.000Z</time>
      </trkpt>
      <trkpt lat="47.49308" lon="6.75245">
        <ele>339</ele>
        <time>2016-03-20T08:41:36.000Z</time>
      </trkpt>
      <trkpt lat="47.49308" lon="6.75239">
        <ele>340</ele>
        <time>2016-03-20T08:41:37.000Z</time>
      </trkpt>
      <trkpt lat="47.49309" lon="6.75233">
        <ele>340</ele>
        <time>2016-03-20T08:41:38.000Z</time>
      </trkpt>
      <trkpt lat="47.4931" lon="6.75228">
        <ele>340</ele>
        <time>2016-03-20T08:41:39.000Z</time>
      </trkpt>
      <trkpt lat="47.49311" lon="6.75223">
        <ele>340</ele>
        <time>2016-03-20T08:41:40.000Z</time>
      </trkpt>
      <trkpt lat="47.49312" lon="6.75219">
        <ele>341</ele>
        <time>2016-03-20T08:41:41.000Z</time>
      </trkpt>
      <trkpt lat="47.49313" lon="6.75214">
        <ele>341</ele>
        <time>2016-03-20T08:41:42.000Z</time>
      </trkpt>
      <trkpt lat="47.49313" lon="6.75209">
        <ele>341</ele>
        <time>2016-03-20T08:41:43.000Z</time>
      </trkpt>
      <trkpt lat="47.49313" lon="6.75204">
        <ele>341</ele>
        <time>2016-03-20T08:41:44.000Z</time>
      </trkpt>
      <trkpt lat="47.49313" lon="6.75199">
        <ele>341</ele>
        <time>2016-03-20T08:41:45.000Z</time>
      </trkpt>
      <trkpt lat="47.49312" lon="6.75192">
        <ele>341</ele>
        <time>2016-03-20T08:41:46.000Z</time>
      </trkpt>
      <trkpt lat="47.49311" lon="6.75185">
        <ele>341</ele>
        <time>2016-03-20T08:41:47.000Z</time>
      </trkpt>
      <trkpt lat="47.49311" lon="6.75178">
        <ele>341</ele>
        <time>2016-03-20T08:41:48.000Z</time>
      </trkpt>
      <trkpt lat="47.4931" lon="6.75172">
        <ele>341</ele>
        <time>2016-03-20T08:41:49.000Z</time>
      </trkpt>
      <trkpt lat="47.4931" lon="6.75167">
        <ele>341</ele>
        <time>2016-03-20T08:41:50.000Z</time>
      </trkpt>
      <trkpt lat="47.4931" lon="6.75161">
        <ele>343</ele>
        <time>2016-03-20T08:41:51.000Z</time>
      </trkpt>
      <trkpt lat="47.4931" lon="6.75156">
        <ele>344</ele>
        <time>2016-03-20T08:41:52.000Z</time>
      </trkpt>
      <trkpt lat="47.49311" lon="6.7515">
        <ele>344</ele>
        <time>2016-03-20T08:41:53.000Z</time>
      </trkpt>
      <trkpt lat="47.49312" lon="6.75145">
        <ele>344</ele>
        <time>2016-03-20T08:41:54.000Z</time>
      </trkpt>
      <trkpt lat="47.49313" lon="6.7514">
        <ele>344</ele>
        <time>2016-03-20T08:41:55.000Z</time>
      </trkpt>
      <trkpt lat="47.49314" lon="6.75135">
        <ele>344</ele>
        <time>2016-03-20T08:41:56.000Z</time>
      </trkpt>
      <trkpt lat="47.49315" lon="6.7513">
        <ele>344</ele>
        <time>2016-03-20T08:41:57.000Z</time>
      </trkpt>
      <trkpt lat="47.49317" lon="6.75125">
        <ele>344</ele>
        <time>2016-03-20T08:41:58.000Z</time>
      </trkpt>
      <trkpt lat="47.49319" lon="6.75121">
        <ele>344</ele>
        <time>2016-03-20T08:41:59.000Z</time>
      </trkpt>
      <trkpt lat="47.49321" lon="6.75116">
        <ele>344</ele>
        <time>2016-03-20T08:42:00.000Z</time>
      </trkpt>
      <trkpt lat="47.49324" lon="6.75111">
        <ele>344</ele>
        <time>2016-03-20T08:42:01.000Z</time>
      </trkpt>
      <trkpt lat="47.49326" lon="6.75106">
        <ele>343</ele>
        <time>2016-03-20T08:42:02.000Z</time>
      </trkpt>
      <trkpt lat="47.4933" lon="6.751">
        <ele>342</ele>
        <time>2016-03-20T08:42:03.000Z</time>
      </trkpt>
      <trkpt lat="47.4934" lon="6.7509">
        <ele>338</ele>
        <time>2016-03-20T08:42:04.000Z</time>
      </trkpt>
      <trkpt lat="47.49344" lon="6.75081">
        <ele>338</ele>
        <time>2016-03-20T08:42:05.000Z</time>
      </trkpt>
      <trkpt lat="47.49343" lon="6.75061">
        <ele>338</ele>
        <time>2016-03-20T08:42:06.000Z</time>
      </trkpt>
      <trkpt lat="47.49345" lon="6.75054">
        <ele>338</ele>
        <time>2016-03-20T08:42:07.000Z</time>
      </trkpt>
      <trkpt lat="47.49346" lon="6.75046">
        <ele>339</ele>
        <time>2016-03-20T08:42:08.000Z</time>
      </trkpt>
      <trkpt lat="47.49348" lon="6.7504">
        <ele>339</ele>
        <time>2016-03-20T08:42:09.000Z</time>
      </trkpt>
      <trkpt lat="47.49348" lon="6.75033">
        <ele>339</ele>
        <time>2016-03-20T08:42:10.000Z</time>
      </trkpt>
      <trkpt lat="47.49349" lon="6.75029">
        <ele>339</ele>
        <time>2016-03-20T08:42:11.000Z</time>
      </trkpt>
      <trkpt lat="47.49348" lon="6.75025">
        <ele>339</ele>
        <time>2016-03-20T08:42:12.000Z</time>
      </trkpt>
      <trkpt lat="47.49347" lon="6.75021">
        <ele>340</ele>
        <time>2016-03-20T08:42:13.000Z</time>
      </trkpt>
      <trkpt lat="47.49346" lon="6.75019">
        <ele>340</ele>
        <time>2016-03-20T08:42:14.000Z</time>
      </trkpt>
      <trkpt lat="47.49346" lon="6.75014">
        <ele>340</ele>
        <time>2016-03-20T08:42:15.000Z</time>
      </trkpt>
      <trkpt lat="47.49346" lon="6.7501">
        <ele>341</ele>
        <time>2016-03-20T08:42:16.000Z</time>
      </trkpt>
      <trkpt lat="47.49345" lon="6.75007">
        <ele>341</ele>
        <time>2016-03-20T08:42:17.000Z</time>
      </trkpt>
      <trkpt lat="47.49345" lon="6.75003">
        <ele>341</ele>
        <time>2016-03-20T08:42:18.000Z</time>
      </trkpt>
      <trkpt lat="47.49345" lon="6.74999">
        <ele>342</ele>
        <time>2016-03-20T08:42:19.000Z</time>
      </trkpt>
      <trkpt lat="47.49345" lon="6.74995">
        <ele>342</ele>
        <time>2016-03-20T08:42:20.000Z</time>
      </trkpt>
      <trkpt lat="47.49344" lon="6.74989">
        <ele>342</ele>
        <time>2016-03-20T08:42:22.000Z</time>
      </trkpt>
      <trkpt lat="47.49343" lon="6.74987">
        <ele>342</ele>
        <time>2016-03-20T08:42:23.000Z</time>
      </trkpt>
      <trkpt lat="47.49343" lon="6.7498">
        <ele>342</ele>
        <time>2016-03-20T08:42:26.000Z</time>
      </trkpt>
      <trkpt lat="47.49343" lon="6.74979">
        <ele>342</ele>
        <time>2016-03-20T08:42:27.000Z</time>
      </trkpt>
      <trkpt lat="47.49342" lon="6.74974">
        <ele>342</ele>
        <time>2016-03-20T08:42:31.000Z</time>
      </trkpt>
      <trkpt lat="47.49342" lon="6.74971">
        <ele>342</ele>
        <time>2016-03-20T08:42:32.000Z</time>
      </trkpt>
      <trkpt lat="47.49342" lon="6.74968">
        <ele>342</ele>
        <time>2016-03-20T08:42:33.000Z</time>
      </trkpt>
      <trkpt lat="47.49343" lon="6.74964">
        <ele>342</ele>
        <time>2016-03-20T08:42:34.000Z</time>
      </trkpt>
      <trkpt lat="47.49344" lon="6.7496">
        <ele>342</ele>
        <time>2016-03-20T08:42:35.000Z</time>
      </trkpt>
      <trkpt lat="47.49345" lon="6.74957">
        <ele>342</ele>
        <time>2016-03-20T08:42:36.000Z</time>
      </trkpt>
      <trkpt lat="47.49346" lon="6.74953">
        <ele>342</ele>
        <time>2016-03-20T08:42:37.000Z</time>
      </trkpt>
      <trkpt lat="47.49347" lon="6.74949">
        <ele>342</ele>
        <time>2016-03-20T08:42:38.000Z</time>
      </trkpt>
      <trkpt lat="47.49348" lon="6.74946">
        <ele>342</ele>
        <time>2016-03-20T08:42:39.000Z</time>
      </trkpt>
      <trkpt lat="47.49349" lon="6.74942">
        <ele>342</ele>
        <time>2016-03-20T08:42:40.000Z</time>
      </trkpt>
      <trkpt lat="47.4935" lon="6.74938">
        <ele>343</ele>
        <time>2016-03-20T08:42:42.000Z</time>
      </trkpt>
      <trkpt lat="47.4935" lon="6.74935">
        <ele>343</ele>
        <time>2016-03-20T08:42:43.000Z</time>
      </trkpt>
      <trkpt lat="47.49349" lon="6.7493">
        <ele>343</ele>
        <time>2016-03-20T08:42:45.000Z</time>
      </trkpt>
      <trkpt lat="47.49348" lon="6.74927">
        <ele>344</ele>
        <time>2016-03-20T08:42:46.000Z</time>
      </trkpt>
      <trkpt lat="47.49351" lon="6.74922">
        <ele>344</ele>
        <time>2016-03-20T08:42:48.000Z</time>
      </trkpt>
      <trkpt lat="47.49353" lon="6.74919">
        <ele>343</ele>
        <time>2016-03-20T08:42:49.000Z</time>
      </trkpt>
      <trkpt lat="47.49355" lon="6.74916">
        <ele>344</ele>
        <time>2016-03-20T08:42:50.000Z</time>
      </trkpt>
      <trkpt lat="47.49357" lon="6.74914">
        <ele>343</ele>
        <time>2016-03-20T08:42:51.000Z</time>
      </trkpt>
      <trkpt lat="47.49359" lon="6.74911">
        <ele>343</ele>
        <time>2016-03-20T08:42:52.000Z</time>
      </trkpt>
      <trkpt lat="47.49361" lon="6.74908">
        <ele>343</ele>
        <time>2016-03-20T08:42:53.000Z</time>
      </trkpt>
      <trkpt lat="47.49363" lon="6.74904">
        <ele>342</ele>
        <time>2016-03-20T08:42:54.000Z</time>
      </trkpt>
      <trkpt lat="47.49365" lon="6.74901">
        <ele>342</ele>
        <time>2016-03-20T08:42:55.000Z</time>
      </trkpt>
      <trkpt lat="47.49367" lon="6.74897">
        <ele>342</ele>
        <time>2016-03-20T08:42:56.000Z</time>
      </trkpt>
      <trkpt lat="47.49368" lon="6.74893">
        <ele>342</ele>
        <time>2016-03-20T08:42:57.000Z</time>
      </trkpt>
      <trkpt lat="47.4937" lon="6.74889">
        <ele>341</ele>
        <time>2016-03-20T08:42:58.000Z</time>
      </trkpt>
      <trkpt lat="47.49372" lon="6.74885">
        <ele>341</ele>
        <time>2016-03-20T08:42:59.000Z</time>
      </trkpt>
      <trkpt lat="47.49373" lon="6.74881">
        <ele>341</ele>
        <time>2016-03-20T08:43:00.000Z</time>
      </trkpt>
      <trkpt lat="47.49375" lon="6.74877">
        <ele>341</ele>
        <time>2016-03-20T08:43:01.000Z</time>
      </trkpt>
      <trkpt lat="47.49377" lon="6.74872">
        <ele>341</ele>
        <time>2016-03-20T08:43:02.000Z</time>
      </trkpt>
      <trkpt lat="47.49378" lon="6.74867">
        <ele>341</ele>
        <time>2016-03-20T08:43:03.000Z</time>
      </trkpt>
      <trkpt lat="47.49379" lon="6.74862">
        <ele>341</ele>
        <time>2016-03-20T08:43:04.000Z</time>
      </trkpt>
      <trkpt lat="47.4938" lon="6.74857">
        <ele>341</ele>
        <time>2016-03-20T08:43:05.000Z</time>
      </trkpt>
      <trkpt lat="47.49381" lon="6.74851">
        <ele>340</ele>
        <time>2016-03-20T08:43:06.000Z</time>
      </trkpt>
      <trkpt lat="47.49382" lon="6.74845">
        <ele>340</ele>
        <time>2016-03-20T08:43:07.000Z</time>
      </trkpt>
      <trkpt lat="47.49383" lon="6.74838">
        <ele>340</ele>
        <time>2016-03-20T08:43:08.000Z</time>
      </trkpt>
      <trkpt lat="47.49384" lon="6.74832">
        <ele>342</ele>
        <time>2016-03-20T08:43:09.000Z</time>
      </trkpt>
      <trkpt lat="47.49386" lon="6.74827">
        <ele>342</ele>
        <time>2016-03-20T08:43:10.000Z</time>
      </trkpt>
      <trkpt lat="47.49387" lon="6.74822">
        <ele>342</ele>
        <time>2016-03-20T08:43:11.000Z</time>
      </trkpt>
      <trkpt lat="47.49389" lon="6.74818">
        <ele>342</ele>
        <time>2016-03-20T08:43:12.000Z</time>
      </trkpt>
      <trkpt lat="47.4939" lon="6.74813">
        <ele>342</ele>
        <time>2016-03-20T08:43:13.000Z</time>
      </trkpt>
      <trkpt lat="47.49391" lon="6.74808">
        <ele>342</ele>
        <time>2016-03-20T08:43:14.000Z</time>
      </trkpt>
      <trkpt lat="47.49392" lon="6.74803">
        <ele>342</ele>
        <time>2016-03-20T08:43:15.000Z</time>
      </trkpt>
      <trkpt lat="47.49393" lon="6.74799">
        <ele>342</ele>
        <time>2016-03-20T08:43:16.000Z</time>
      </trkpt>
      <trkpt lat="47.49395" lon="6.74792">
        <ele>343</ele>
        <time>2016-03-20T08:43:17.000Z</time>
      </trkpt>
      <trkpt lat="47.49397" lon="6.74786">
        <ele>343</ele>
        <time>2016-03-20T08:43:18.000Z</time>
      </trkpt>
      <trkpt lat="47.49399" lon="6.74779">
        <ele>343</ele>
        <time>2016-03-20T08:43:19.000Z</time>
      </trkpt>
      <trkpt lat="47.494" lon="6.74771">
        <ele>343</ele>
        <time>2016-03-20T08:43:20.000Z</time>
      </trkpt>
      <trkpt lat="47.49402" lon="6.74763">
        <ele>342</ele>
        <time>2016-03-20T08:43:21.000Z</time>
      </trkpt>
      <trkpt lat="47.49403" lon="6.74754">
        <ele>342</ele>
        <time>2016-03-20T08:43:22.000Z</time>
      </trkpt>
      <trkpt lat="47.49404" lon="6.74745">
        <ele>344</ele>
        <time>2016-03-20T08:43:23.000Z</time>
      </trkpt>
      <trkpt lat="47.49405" lon="6.74737">
        <ele>344</ele>
        <time>2016-03-20T08:43:24.000Z</time>
      </trkpt>
      <trkpt lat="47.49406" lon="6.74729">
        <ele>345</ele>
        <time>2016-03-20T08:43:25.000Z</time>
      </trkpt>
      <trkpt lat="47.49407" lon="6.74722">
        <ele>345</ele>
        <time>2016-03-20T08:43:26.000Z</time>
      </trkpt>
      <trkpt lat="47.49408" lon="6.74716">
        <ele>345</ele>
        <time>2016-03-20T08:43:27.000Z</time>
      </trkpt>
      <trkpt lat="47.49409" lon="6.7471">
        <ele>346</ele>
        <time>2016-03-20T08:43:28.000Z</time>
      </trkpt>
      <trkpt lat="47.49411" lon="6.74705">
        <ele>346</ele>
        <time>2016-03-20T08:43:29.000Z</time>
      </trkpt>
      <trkpt lat="47.49411" lon="6.74701">
        <ele>345</ele>
        <time>2016-03-20T08:43:30.000Z</time>
      </trkpt>
      <trkpt lat="47.49411" lon="6.74696">
        <ele>345</ele>
        <time>2016-03-20T08:43:31.000Z</time>
      </trkpt>
      <trkpt lat="47.49411" lon="6.74692">
        <ele>345</ele>
        <time>2016-03-20T08:43:32.000Z</time>
      </trkpt>
      <trkpt lat="47.49406" lon="6.74678">
        <ele>344</ele>
        <time>2016-03-20T08:43:33.000Z</time>
      </trkpt>
      <trkpt lat="47.49405" lon="6.74673">
        <ele>344</ele>
        <time>2016-03-20T08:43:34.000Z</time>
      </trkpt>
      <trkpt lat="47.49405" lon="6.74669">
        <ele>343</ele>
        <time>2016-03-20T08:43:35.000Z</time>
      </trkpt>
      <trkpt lat="47.49406" lon="6.74665">
        <ele>344</ele>
        <time>2016-03-20T08:43:36.000Z</time>
      </trkpt>
      <trkpt lat="47.49407" lon="6.7466">
        <ele>344</ele>
        <time>2016-03-20T08:43:37.000Z</time>
      </trkpt>
      <trkpt lat="47.49408" lon="6.74652">
        <ele>345</ele>
        <time>2016-03-20T08:43:38.000Z</time>
      </trkpt>
      <trkpt lat="47.4941" lon="6.74645">
        <ele>346</ele>
        <time>2016-03-20T08:43:39.000Z</time>
      </trkpt>
      <trkpt lat="47.49411" lon="6.74639">
        <ele>346</ele>
        <time>2016-03-20T08:43:40.000Z</time>
      </trkpt>
      <trkpt lat="47.49412" lon="6.74634">
        <ele>347</ele>
        <time>2016-03-20T08:43:41.000Z</time>
      </trkpt>
      <trkpt lat="47.49413" lon="6.74631">
        <ele>347</ele>
        <time>2016-03-20T08:43:42.000Z</time>
      </trkpt>
      <trkpt lat="47.49413" lon="6.74627">
        <ele>347</ele>
        <time>2016-03-20T08:43:43.000Z</time>
      </trkpt>
      <trkpt lat="47.49414" lon="6.74623">
        <ele>347</ele>
        <time>2016-03-20T08:43:44.000Z</time>
      </trkpt>
      <trkpt lat="47.49414" lon="6.74619">
        <ele>347</ele>
        <time>2016-03-20T08:43:45.000Z</time>
      </trkpt>
      <trkpt lat="47.49415" lon="6.74615">
        <ele>347</ele>
        <time>2016-03-20T08:43:46.000Z</time>
      </trkpt>
      <trkpt lat="47.49415" lon="6.74611">
        <ele>347</ele>
        <time>2016-03-20T08:43:47.000Z</time>
      </trkpt>
      <trkpt lat="47.49415" lon="6.74605">
        <ele>346</ele>
        <time>2016-03-20T08:43:48.000Z</time>
      </trkpt>
      <trkpt lat="47.49415" lon="6.746">
        <ele>346</ele>
        <time>2016-03-20T08:43:49.000Z</time>
      </trkpt>
      <trkpt lat="47.49415" lon="6.74594">
        <ele>345</ele>
        <time>2016-03-20T08:43:50.000Z</time>
      </trkpt>
      <trkpt lat="47.49415" lon="6.74588">
        <ele>343</ele>
        <time>2016-03-20T08:43:51.000Z</time>
      </trkpt>
      <trkpt lat="47.49416" lon="6.74583">
        <ele>342</ele>
        <time>2016-03-20T08:43:52.000Z</time>
      </trkpt>
      <trkpt lat="47.49416" lon="6.74578">
        <ele>344</ele>
        <time>2016-03-20T08:43:53.000Z</time>
      </trkpt>
      <trkpt lat="47.49417" lon="6.74573">
        <ele>344</ele>
        <time>2016-03-20T08:43:54.000Z</time>
      </trkpt>
      <trkpt lat="47.49418" lon="6.74567">
        <ele>345</ele>
        <time>2016-03-20T08:43:55.000Z</time>
      </trkpt>
      <trkpt lat="47.49418" lon="6.74561">
        <ele>346</ele>
        <time>2016-03-20T08:43:56.000Z</time>
      </trkpt>
      <trkpt lat="47.49418" lon="6.74554">
        <ele>347</ele>
        <time>2016-03-20T08:43:57.000Z</time>
      </trkpt>
      <trkpt lat="47.49418" lon="6.74547">
        <ele>347</ele>
        <time>2016-03-20T08:43:58.000Z</time>
      </trkpt>
      <trkpt lat="47.49417" lon="6.7454">
        <ele>348</ele>
        <time>2016-03-20T08:43:59.000Z</time>
      </trkpt>
      <trkpt lat="47.49418" lon="6.74527">
        <ele>348</ele>
        <time>2016-03-20T08:44:01.000Z</time>
      </trkpt>
      <trkpt lat="47.49418" lon="6.74521">
        <ele>348</ele>
        <time>2016-03-20T08:44:02.000Z</time>
      </trkpt>
      <trkpt lat="47.49419" lon="6.74516">
        <ele>348</ele>
        <time>2016-03-20T08:44:03.000Z</time>
      </trkpt>
      <trkpt lat="47.49419" lon="6.7451">
        <ele>348</ele>
        <time>2016-03-20T08:44:04.000Z</time>
      </trkpt>
      <trkpt lat="47.49419" lon="6.74505">
        <ele>347</ele>
        <time>2016-03-20T08:44:05.000Z</time>
      </trkpt>
      <trkpt lat="47.49418" lon="6.745">
        <ele>347</ele>
        <time>2016-03-20T08:44:06.000Z</time>
      </trkpt>
      <trkpt lat="47.49418" lon="6.74495">
        <ele>348</ele>
        <time>2016-03-20T08:44:07.000Z</time>
      </trkpt>
      <trkpt lat="47.49418" lon="6.7449">
        <ele>349</ele>
        <time>2016-03-20T08:44:08.000Z</time>
      </trkpt>
      <trkpt lat="47.49418" lon="6.74485">
        <ele>350</ele>
        <time>2016-03-20T08:44:09.000Z</time>
      </trkpt>
      <trkpt lat="47.49417" lon="6.7448">
        <ele>351</ele>
        <time>2016-03-20T08:44:10.000Z</time>
      </trkpt>
      <trkpt lat="47.49417" lon="6.74474">
        <ele>351</ele>
        <time>2016-03-20T08:44:11.000Z</time>
      </trkpt>
      <trkpt lat="47.49417" lon="6.74468">
        <ele>351</ele>
        <time>2016-03-20T08:44:12.000Z</time>
      </trkpt>
      <trkpt lat="47.49418" lon="6.74461">
        <ele>351</ele>
        <time>2016-03-20T08:44:13.000Z</time>
      </trkpt>
      <trkpt lat="47.49419" lon="6.74455">
        <ele>351</ele>
        <time>2016-03-20T08:44:14.000Z</time>
      </trkpt>
      <trkpt lat="47.4942" lon="6.74448">
        <ele>351</ele>
        <time>2016-03-20T08:44:15.000Z</time>
      </trkpt>
      <trkpt lat="47.49422" lon="6.74441">
        <ele>351</ele>
        <time>2016-03-20T08:44:16.000Z</time>
      </trkpt>
      <trkpt lat="47.49423" lon="6.74435">
        <ele>350</ele>
        <time>2016-03-20T08:44:17.000Z</time>
      </trkpt>
      <trkpt lat="47.49424" lon="6.74429">
        <ele>350</ele>
        <time>2016-03-20T08:44:18.000Z</time>
      </trkpt>
      <trkpt lat="47.49424" lon="6.74423">
        <ele>349</ele>
        <time>2016-03-20T08:44:19.000Z</time>
      </trkpt>
      <trkpt lat="47.49424" lon="6.74417">
        <ele>348</ele>
        <time>2016-03-20T08:44:20.000Z</time>
      </trkpt>
      <trkpt lat="47.49424" lon="6.74411">
        <ele>349</ele>
        <time>2016-03-20T08:44:21.000Z</time>
      </trkpt>
      <trkpt lat="47.49424" lon="6.74405">
        <ele>349</ele>
        <time>2016-03-20T08:44:22.000Z</time>
      </trkpt>
      <trkpt lat="47.49424" lon="6.744">
        <ele>350</ele>
        <time>2016-03-20T08:44:23.000Z</time>
      </trkpt>
      <trkpt lat="47.49424" lon="6.74395">
        <ele>350</ele>
        <time>2016-03-20T08:44:24.000Z</time>
      </trkpt>
      <trkpt lat="47.49425" lon="6.74389">
        <ele>351</ele>
        <time>2016-03-20T08:44:25.000Z</time>
      </trkpt>
      <trkpt lat="47.49425" lon="6.74382">
        <ele>351</ele>
        <time>2016-03-20T08:44:26.000Z</time>
      </trkpt>
      <trkpt lat="47.49426" lon="6.74376">
        <ele>351</ele>
        <time>2016-03-20T08:44:27.000Z</time>
      </trkpt>
      <trkpt lat="47.49427" lon="6.7437">
        <ele>351</ele>
        <time>2016-03-20T08:44:28.000Z</time>
      </trkpt>
      <trkpt lat="47.49428" lon="6.74366">
        <ele>351</ele>
        <time>2016-03-20T08:44:29.000Z</time>
      </trkpt>
      <trkpt lat="47.49429" lon="6.74361">
        <ele>351</ele>
        <time>2016-03-20T08:44:30.000Z</time>
      </trkpt>
      <trkpt lat="47.4943" lon="6.74358">
        <ele>351</ele>
        <time>2016-03-20T08:44:31.000Z</time>
      </trkpt>
      <trkpt lat="47.49431" lon="6.74355">
        <ele>351</ele>
        <time>2016-03-20T08:44:32.000Z</time>
      </trkpt>
      <trkpt lat="47.49431" lon="6.74351">
        <ele>350</ele>
        <time>2016-03-20T08:44:33.000Z</time>
      </trkpt>
      <trkpt lat="47.4943" lon="6.74349">
        <ele>350</ele>
        <time>2016-03-20T08:44:34.000Z</time>
      </trkpt>
      <trkpt lat="47.49429" lon="6.74343">
        <ele>349</ele>
        <time>2016-03-20T08:44:36.000Z</time>
      </trkpt>
      <trkpt lat="47.49429" lon="6.7434">
        <ele>349</ele>
        <time>2016-03-20T08:44:37.000Z</time>
      </trkpt>
      <trkpt lat="47.49428" lon="6.74334">
        <ele>348</ele>
        <time>2016-03-20T08:44:39.000Z</time>
      </trkpt>
      <trkpt lat="47.49429" lon="6.7433">
        <ele>348</ele>
        <time>2016-03-20T08:44:40.000Z</time>
      </trkpt>
      <trkpt lat="47.49429" lon="6.74326">
        <ele>349</ele>
        <time>2016-03-20T08:44:41.000Z</time>
      </trkpt>
      <trkpt lat="47.4943" lon="6.74322">
        <ele>349</ele>
        <time>2016-03-20T08:44:42.000Z</time>
      </trkpt>
      <trkpt lat="47.49432" lon="6.74317">
        <ele>350</ele>
        <time>2016-03-20T08:44:43.000Z</time>
      </trkpt>
      <trkpt lat="47.49434" lon="6.74312">
        <ele>350</ele>
        <time>2016-03-20T08:44:44.000Z</time>
      </trkpt>
      <trkpt lat="47.49436" lon="6.74305">
        <ele>351</ele>
        <time>2016-03-20T08:44:45.000Z</time>
      </trkpt>
      <trkpt lat="47.49432" lon="6.74282">
        <ele>350</ele>
        <time>2016-03-20T08:44:46.000Z</time>
      </trkpt>
      <trkpt lat="47.49433" lon="6.74273">
        <ele>350</ele>
        <time>2016-03-20T08:44:47.000Z</time>
      </trkpt>
      <trkpt lat="47.49434" lon="6.74265">
        <ele>350</ele>
        <time>2016-03-20T08:44:48.000Z</time>
      </trkpt>
      <trkpt lat="47.49433" lon="6.74259">
        <ele>349</ele>
        <time>2016-03-20T08:44:49.000Z</time>
      </trkpt>
      <trkpt lat="47.49434" lon="6.74253">
        <ele>349</ele>
        <time>2016-03-20T08:44:50.000Z</time>
      </trkpt>
      <trkpt lat="47.49434" lon="6.7425">
        <ele>348</ele>
        <time>2016-03-20T08:44:51.000Z</time>
      </trkpt>
      <trkpt lat="47.49435" lon="6.74243">
        <ele>349</ele>
        <time>2016-03-20T08:44:52.000Z</time>
      </trkpt>
      <trkpt lat="47.49435" lon="6.74233">
        <ele>350</ele>
        <time>2016-03-20T08:44:53.000Z</time>
      </trkpt>
      <trkpt lat="47.49436" lon="6.74222">
        <ele>350</ele>
        <time>2016-03-20T08:44:54.000Z</time>
      </trkpt>
      <trkpt lat="47.49431" lon="6.7422">
        <ele>350</ele>
        <time>2016-03-20T08:44:55.000Z</time>
      </trkpt>
      <trkpt lat="47.4943" lon="6.74213">
        <ele>350</ele>
        <time>2016-03-20T08:44:56.000Z</time>
      </trkpt>
      <trkpt lat="47.49429" lon="6.74205">
        <ele>350</ele>
        <time>2016-03-20T08:44:57.000Z</time>
      </trkpt>
      <trkpt lat="47.49428" lon="6.742">
        <ele>350</ele>
        <time>2016-03-20T08:44:58.000Z</time>
      </trkpt>
      <trkpt lat="47.49428" lon="6.74194">
        <ele>350</ele>
        <time>2016-03-20T08:44:59.000Z</time>
      </trkpt>
      <trkpt lat="47.49428" lon="6.74188">
        <ele>349</ele>
        <time>2016-03-20T08:45:00.000Z</time>
      </trkpt>
      <trkpt lat="47.49429" lon="6.74182">
        <ele>349</ele>
        <time>2016-03-20T08:45:01.000Z</time>
      </trkpt>
      <trkpt lat="47.49429" lon="6.74176">
        <ele>348</ele>
        <time>2016-03-20T08:45:02.000Z</time>
      </trkpt>
      <trkpt lat="47.4943" lon="6.74169">
        <ele>348</ele>
        <time>2016-03-20T08:45:03.000Z</time>
      </trkpt>
      <trkpt lat="47.4943" lon="6.74162">
        <ele>348</ele>
        <time>2016-03-20T08:45:04.000Z</time>
      </trkpt>
      <trkpt lat="47.4943" lon="6.74156">
        <ele>349</ele>
        <time>2016-03-20T08:45:05.000Z</time>
      </trkpt>
      <trkpt lat="47.49429" lon="6.74151">
        <ele>349</ele>
        <time>2016-03-20T08:45:06.000Z</time>
      </trkpt>
      <trkpt lat="47.49428" lon="6.74146">
        <ele>349</ele>
        <time>2016-03-20T08:45:07.000Z</time>
      </trkpt>
      <trkpt lat="47.49426" lon="6.74142">
        <ele>349</ele>
        <time>2016-03-20T08:45:08.000Z</time>
      </trkpt>
      <trkpt lat="47.49425" lon="6.74138">
        <ele>350</ele>
        <time>2016-03-20T08:45:09.000Z</time>
      </trkpt>
      <trkpt lat="47.49424" lon="6.74133">
        <ele>350</ele>
        <time>2016-03-20T08:45:10.000Z</time>
      </trkpt>
      <trkpt lat="47.49424" lon="6.74129">
        <ele>350</ele>
        <time>2016-03-20T08:45:11.000Z</time>
      </trkpt>
      <trkpt lat="47.49425" lon="6.74125">
        <ele>350</ele>
        <time>2016-03-20T08:45:12.000Z</time>
      </trkpt>
      <trkpt lat="47.49425" lon="6.74121">
        <ele>350</ele>
        <time>2016-03-20T08:45:13.000Z</time>
      </trkpt>
      <trkpt lat="47.49426" lon="6.74116">
        <ele>350</ele>
        <time>2016-03-20T08:45:14.000Z</time>
      </trkpt>
      <trkpt lat="47.49427" lon="6.74113">
        <ele>350</ele>
        <time>2016-03-20T08:45:15.000Z</time>
      </trkpt>
      <trkpt lat="47.49428" lon="6.74109">
        <ele>350</ele>
        <time>2016-03-20T08:45:16.000Z</time>
      </trkpt>
      <trkpt lat="47.49429" lon="6.74104">
        <ele>350</ele>
        <time>2016-03-20T08:45:17.000Z</time>
      </trkpt>
      <trkpt lat="47.4943" lon="6.741">
        <ele>350</ele>
        <time>2016-03-20T08:45:18.000Z</time>
      </trkpt>
      <trkpt lat="47.4943" lon="6.74096">
        <ele>350</ele>
        <time>2016-03-20T08:45:19.000Z</time>
      </trkpt>
      <trkpt lat="47.4943" lon="6.74092">
        <ele>349</ele>
        <time>2016-03-20T08:45:20.000Z</time>
      </trkpt>
      <trkpt lat="47.4943" lon="6.74088">
        <ele>349</ele>
        <time>2016-03-20T08:45:21.000Z</time>
      </trkpt>
      <trkpt lat="47.4943" lon="6.74085">
        <ele>349</ele>
        <time>2016-03-20T08:45:22.000Z</time>
      </trkpt>
      <trkpt lat="47.49429" lon="6.74081">
        <ele>349</ele>
        <time>2016-03-20T08:45:23.000Z</time>
      </trkpt>
      <trkpt lat="47.49429" lon="6.74077">
        <ele>349</ele>
        <time>2016-03-20T08:45:24.000Z</time>
      </trkpt>
      <trkpt lat="47.49428" lon="6.74074">
        <ele>349</ele>
        <time>2016-03-20T08:45:25.000Z</time>
      </trkpt>
      <trkpt lat="47.49428" lon="6.74071">
        <ele>349</ele>
        <time>2016-03-20T08:45:26.000Z</time>
      </trkpt>
      <trkpt lat="47.49428" lon="6.74067">
        <ele>349</ele>
        <time>2016-03-20T08:45:27.000Z</time>
      </trkpt>
      <trkpt lat="47.49428" lon="6.74062">
        <ele>350</ele>
        <time>2016-03-20T08:45:28.000Z</time>
      </trkpt>
      <trkpt lat="47.49428" lon="6.74056">
        <ele>350</ele>
        <time>2016-03-20T08:45:29.000Z</time>
      </trkpt>
      <trkpt lat="47.49429" lon="6.74049">
        <ele>350</ele>
        <time>2016-03-20T08:45:30.000Z</time>
      </trkpt>
      <trkpt lat="47.49431" lon="6.74043">
        <ele>350</ele>
        <time>2016-03-20T08:45:31.000Z</time>
      </trkpt>
      <trkpt lat="47.49433" lon="6.74038">
        <ele>350</ele>
        <time>2016-03-20T08:45:32.000Z</time>
      </trkpt>
      <trkpt lat="47.49435" lon="6.74033">
        <ele>350</ele>
        <time>2016-03-20T08:45:33.000Z</time>
      </trkpt>
      <trkpt lat="47.49437" lon="6.74028">
        <ele>350</ele>
        <time>2016-03-20T08:45:34.000Z</time>
      </trkpt>
      <trkpt lat="47.49439" lon="6.74013">
        <ele>350</ele>
        <time>2016-03-20T08:45:35.000Z</time>
      </trkpt>
      <trkpt lat="47.49439" lon="6.74006">
        <ele>350</ele>
        <time>2016-03-20T08:45:36.000Z</time>
      </trkpt>
      <trkpt lat="47.49439" lon="6.73998">
        <ele>348</ele>
        <time>2016-03-20T08:45:37.000Z</time>
      </trkpt>
      <trkpt lat="47.4944" lon="6.73992">
        <ele>348</ele>
        <time>2016-03-20T08:45:38.000Z</time>
      </trkpt>
      <trkpt lat="47.49441" lon="6.73986">
        <ele>348</ele>
        <time>2016-03-20T08:45:39.000Z</time>
      </trkpt>
      <trkpt lat="47.4944" lon="6.73981">
        <ele>348</ele>
        <time>2016-03-20T08:45:40.000Z</time>
      </trkpt>
      <trkpt lat="47.49443" lon="6.73974">
        <ele>348</ele>
        <time>2016-03-20T08:45:41.000Z</time>
      </trkpt>
      <trkpt lat="47.49443" lon="6.73967">
        <ele>347</ele>
        <time>2016-03-20T08:45:42.000Z</time>
      </trkpt>
      <trkpt lat="47.49445" lon="6.73961">
        <ele>347</ele>
        <time>2016-03-20T08:45:43.000Z</time>
      </trkpt>
      <trkpt lat="47.49444" lon="6.73955">
        <ele>347</ele>
        <time>2016-03-20T08:45:44.000Z</time>
      </trkpt>
      <trkpt lat="47.49443" lon="6.73943">
        <ele>347</ele>
        <time>2016-03-20T08:45:45.000Z</time>
      </trkpt>
      <trkpt lat="47.49443" lon="6.73933">
        <ele>346</ele>
        <time>2016-03-20T08:45:46.000Z</time>
      </trkpt>
      <trkpt lat="47.49443" lon="6.73928">
        <ele>346</ele>
        <time>2016-03-20T08:45:47.000Z</time>
      </trkpt>
      <trkpt lat="47.49443" lon="6.73923">
        <ele>346</ele>
        <time>2016-03-20T08:45:48.000Z</time>
      </trkpt>
      <trkpt lat="47.49444" lon="6.73917">
        <ele>343</ele>
        <time>2016-03-20T08:45:49.000Z</time>
      </trkpt>
      <trkpt lat="47.49445" lon="6.73908">
        <ele>343</ele>
        <time>2016-03-20T08:45:50.000Z</time>
      </trkpt>
      <trkpt lat="47.49445" lon="6.73899">
        <ele>343</ele>
        <time>2016-03-20T08:45:51.000Z</time>
      </trkpt>
      <trkpt lat="47.49443" lon="6.73891">
        <ele>342</ele>
        <time>2016-03-20T08:45:52.000Z</time>
      </trkpt>
      <trkpt lat="47.49443" lon="6.73885">
        <ele>342</ele>
        <time>2016-03-20T08:45:53.000Z</time>
      </trkpt>
      <trkpt lat="47.49444" lon="6.73879">
        <ele>342</ele>
        <time>2016-03-20T08:45:54.000Z</time>
      </trkpt>
      <trkpt lat="47.49445" lon="6.73874">
        <ele>342</ele>
        <time>2016-03-20T08:45:55.000Z</time>
      </trkpt>
      <trkpt lat="47.49446" lon="6.73869">
        <ele>342</ele>
        <time>2016-03-20T08:45:56.000Z</time>
      </trkpt>
      <trkpt lat="47.49447" lon="6.73863">
        <ele>341</ele>
        <time>2016-03-20T08:45:57.000Z</time>
      </trkpt>
      <trkpt lat="47.49448" lon="6.73858">
        <ele>341</ele>
        <time>2016-03-20T08:45:58.000Z</time>
      </trkpt>
      <trkpt lat="47.4945" lon="6.73853">
        <ele>341</ele>
        <time>2016-03-20T08:45:59.000Z</time>
      </trkpt>
      <trkpt lat="47.49451" lon="6.73847">
        <ele>341</ele>
        <time>2016-03-20T08:46:00.000Z</time>
      </trkpt>
      <trkpt lat="47.49452" lon="6.73841">
        <ele>341</ele>
        <time>2016-03-20T08:46:01.000Z</time>
      </trkpt>
      <trkpt lat="47.49452" lon="6.73835">
        <ele>341</ele>
        <time>2016-03-20T08:46:02.000Z</time>
      </trkpt>
      <trkpt lat="47.49452" lon="6.73828">
        <ele>339</ele>
        <time>2016-03-20T08:46:03.000Z</time>
      </trkpt>
      <trkpt lat="47.49452" lon="6.73823">
        <ele>339</ele>
        <time>2016-03-20T08:46:04.000Z</time>
      </trkpt>
      <trkpt lat="47.49452" lon="6.73817">
        <ele>339</ele>
        <time>2016-03-20T08:46:05.000Z</time>
      </trkpt>
      <trkpt lat="47.49452" lon="6.73811">
        <ele>339</ele>
        <time>2016-03-20T08:46:06.000Z</time>
      </trkpt>
      <trkpt lat="47.49452" lon="6.73805">
        <ele>339</ele>
        <time>2016-03-20T08:46:07.000Z</time>
      </trkpt>
      <trkpt lat="47.49453" lon="6.738">
        <ele>339</ele>
        <time>2016-03-20T08:46:08.000Z</time>
      </trkpt>
      <trkpt lat="47.49455" lon="6.73795">
        <ele>338</ele>
        <time>2016-03-20T08:46:09.000Z</time>
      </trkpt>
      <trkpt lat="47.49457" lon="6.73789">
        <ele>338</ele>
        <time>2016-03-20T08:46:10.000Z</time>
      </trkpt>
      <trkpt lat="47.49459" lon="6.73784">
        <ele>338</ele>
        <time>2016-03-20T08:46:11.000Z</time>
      </trkpt>
      <trkpt lat="47.49461" lon="6.7378">
        <ele>338</ele>
        <time>2016-03-20T08:46:12.000Z</time>
      </trkpt>
      <trkpt lat="47.49464" lon="6.73775">
        <ele>338</ele>
        <time>2016-03-20T08:46:13.000Z</time>
      </trkpt>
      <trkpt lat="47.49466" lon="6.73769">
        <ele>337</ele>
        <time>2016-03-20T08:46:14.000Z</time>
      </trkpt>
      <trkpt lat="47.4947" lon="6.73757">
        <ele>337</ele>
        <time>2016-03-20T08:46:15.000Z</time>
      </trkpt>
      <trkpt lat="47.49474" lon="6.73751">
        <ele>336</ele>
        <time>2016-03-20T08:46:16.000Z</time>
      </trkpt>
      <trkpt lat="47.49477" lon="6.73744">
        <ele>336</ele>
        <time>2016-03-20T08:46:17.000Z</time>
      </trkpt>
      <trkpt lat="47.4948" lon="6.73738">
        <ele>336</ele>
        <time>2016-03-20T08:46:18.000Z</time>
      </trkpt>
      <trkpt lat="47.49481" lon="6.73726">
        <ele>336</ele>
        <time>2016-03-20T08:46:19.000Z</time>
      </trkpt>
      <trkpt lat="47.49484" lon="6.73717">
        <ele>336</ele>
        <time>2016-03-20T08:46:20.000Z</time>
      </trkpt>
      <trkpt lat="47.49486" lon="6.7371">
        <ele>336</ele>
        <time>2016-03-20T08:46:21.000Z</time>
      </trkpt>
      <trkpt lat="47.49489" lon="6.73704">
        <ele>336</ele>
        <time>2016-03-20T08:46:22.000Z</time>
      </trkpt>
      <trkpt lat="47.4949" lon="6.73697">
        <ele>336</ele>
        <time>2016-03-20T08:46:23.000Z</time>
      </trkpt>
      <trkpt lat="47.49493" lon="6.73688">
        <ele>335</ele>
        <time>2016-03-20T08:46:24.000Z</time>
      </trkpt>
      <trkpt lat="47.49495" lon="6.73679">
        <ele>334</ele>
        <time>2016-03-20T08:46:25.000Z</time>
      </trkpt>
      <trkpt lat="47.49496" lon="6.73671">
        <ele>333</ele>
        <time>2016-03-20T08:46:26.000Z</time>
      </trkpt>
      <trkpt lat="47.49499" lon="6.73665">
        <ele>332</ele>
        <time>2016-03-20T08:46:27.000Z</time>
      </trkpt>
      <trkpt lat="47.49501" lon="6.73658">
        <ele>331</ele>
        <time>2016-03-20T08:46:28.000Z</time>
      </trkpt>
      <trkpt lat="47.49505" lon="6.73652">
        <ele>331</ele>
        <time>2016-03-20T08:46:29.000Z</time>
      </trkpt>
      <trkpt lat="47.49507" lon="6.73646">
        <ele>331</ele>
        <time>2016-03-20T08:46:30.000Z</time>
      </trkpt>
      <trkpt lat="47.4951" lon="6.7364">
        <ele>332</ele>
        <time>2016-03-20T08:46:31.000Z</time>
      </trkpt>
      <trkpt lat="47.49513" lon="6.73634">
        <ele>332</ele>
        <time>2016-03-20T08:46:32.000Z</time>
      </trkpt>
      <trkpt lat="47.49516" lon="6.73627">
        <ele>332</ele>
        <time>2016-03-20T08:46:33.000Z</time>
      </trkpt>
      <trkpt lat="47.4952" lon="6.73622">
        <ele>332</ele>
        <time>2016-03-20T08:46:34.000Z</time>
      </trkpt>
      <trkpt lat="47.49523" lon="6.73616">
        <ele>332</ele>
        <time>2016-03-20T08:46:35.000Z</time>
      </trkpt>
      <trkpt lat="47.49527" lon="6.73611">
        <ele>332</ele>
        <time>2016-03-20T08:46:36.000Z</time>
      </trkpt>
      <trkpt lat="47.4953" lon="6.73606">
        <ele>332</ele>
        <time>2016-03-20T08:46:37.000Z</time>
      </trkpt>
      <trkpt lat="47.49534" lon="6.73601">
        <ele>332</ele>
        <time>2016-03-20T08:46:38.000Z</time>
      </trkpt>
      <trkpt lat="47.49538" lon="6.73598">
        <ele>332</ele>
        <time>2016-03-20T08:46:39.000Z</time>
      </trkpt>
      <trkpt lat="47.49542" lon="6.73593">
        <ele>332</ele>
        <time>2016-03-20T08:46:40.000Z</time>
      </trkpt>
      <trkpt lat="47.49545" lon="6.73588">
        <ele>332</ele>
        <time>2016-03-20T08:46:41.000Z</time>
      </trkpt>
      <trkpt lat="47.49549" lon="6.73584">
        <ele>331</ele>
        <time>2016-03-20T08:46:42.000Z</time>
      </trkpt>
      <trkpt lat="47.49554" lon="6.73579">
        <ele>333</ele>
        <time>2016-03-20T08:46:43.000Z</time>
      </trkpt>
      <trkpt lat="47.49557" lon="6.73574">
        <ele>333</ele>
        <time>2016-03-20T08:46:44.000Z</time>
      </trkpt>
      <trkpt lat="47.49561" lon="6.7357">
        <ele>333</ele>
        <time>2016-03-20T08:46:45.000Z</time>
      </trkpt>
      <trkpt lat="47.49565" lon="6.73566">
        <ele>333</ele>
        <time>2016-03-20T08:46:46.000Z</time>
      </trkpt>
      <trkpt lat="47.4957" lon="6.73562">
        <ele>333</ele>
        <time>2016-03-20T08:46:47.000Z</time>
      </trkpt>
      <trkpt lat="47.49574" lon="6.73557">
        <ele>333</ele>
        <time>2016-03-20T08:46:48.000Z</time>
      </trkpt>
      <trkpt lat="47.49578" lon="6.73553">
        <ele>333</ele>
        <time>2016-03-20T08:46:49.000Z</time>
      </trkpt>
      <trkpt lat="47.49583" lon="6.7355">
        <ele>333</ele>
        <time>2016-03-20T08:46:50.000Z</time>
      </trkpt>
      <trkpt lat="47.49587" lon="6.73545">
        <ele>331</ele>
        <time>2016-03-20T08:46:51.000Z</time>
      </trkpt>
      <trkpt lat="47.49591" lon="6.73541">
        <ele>332</ele>
        <time>2016-03-20T08:46:52.000Z</time>
      </trkpt>
      <trkpt lat="47.49595" lon="6.73537">
        <ele>332</ele>
        <time>2016-03-20T08:46:53.000Z</time>
      </trkpt>
      <trkpt lat="47.49599" lon="6.73533">
        <ele>332</ele>
        <time>2016-03-20T08:46:54.000Z</time>
      </trkpt>
      <trkpt lat="47.49603" lon="6.73529">
        <ele>332</ele>
        <time>2016-03-20T08:46:55.000Z</time>
      </trkpt>
      <trkpt lat="47.49607" lon="6.73524">
        <ele>332</ele>
        <time>2016-03-20T08:46:56.000Z</time>
      </trkpt>
      <trkpt lat="47.49611" lon="6.7352">
        <ele>332</ele>
        <time>2016-03-20T08:46:57.000Z</time>
      </trkpt>
      <trkpt lat="47.49615" lon="6.73515">
        <ele>332</ele>
        <time>2016-03-20T08:46:58.000Z</time>
      </trkpt>
      <trkpt lat="47.49618" lon="6.73511">
        <ele>332</ele>
        <time>2016-03-20T08:46:59.000Z</time>
      </trkpt>
      <trkpt lat="47.49625" lon="6.73503">
        <ele>332</ele>
        <time>2016-03-20T08:47:01.000Z</time>
      </trkpt>
      <trkpt lat="47.49629" lon="6.73498">
        <ele>333</ele>
        <time>2016-03-20T08:47:02.000Z</time>
      </trkpt>
      <trkpt lat="47.49632" lon="6.73493">
        <ele>333</ele>
        <time>2016-03-20T08:47:03.000Z</time>
      </trkpt>
      <trkpt lat="47.49636" lon="6.73489">
        <ele>333</ele>
        <time>2016-03-20T08:47:04.000Z</time>
      </trkpt>
      <trkpt lat="47.49639" lon="6.73483">
        <ele>333</ele>
        <time>2016-03-20T08:47:05.000Z</time>
      </trkpt>
      <trkpt lat="47.49642" lon="6.73478">
        <ele>333</ele>
        <time>2016-03-20T08:47:06.000Z</time>
      </trkpt>
      <trkpt lat="47.49646" lon="6.73473">
        <ele>333</ele>
        <time>2016-03-20T08:47:07.000Z</time>
      </trkpt>
      <trkpt lat="47.49649" lon="6.73467">
        <ele>334</ele>
        <time>2016-03-20T08:47:08.000Z</time>
      </trkpt>
      <trkpt lat="47.49653" lon="6.73462">
        <ele>334</ele>
        <time>2016-03-20T08:47:09.000Z</time>
      </trkpt>
      <trkpt lat="47.49656" lon="6.73457">
        <ele>334</ele>
        <time>2016-03-20T08:47:10.000Z</time>
      </trkpt>
      <trkpt lat="47.4966" lon="6.73453">
        <ele>334</ele>
        <time>2016-03-20T08:47:11.000Z</time>
      </trkpt>
      <trkpt lat="47.49663" lon="6.73449">
        <ele>334</ele>
        <time>2016-03-20T08:47:12.000Z</time>
      </trkpt>
      <trkpt lat="47.49666" lon="6.73445">
        <ele>334</ele>
        <time>2016-03-20T08:47:13.000Z</time>
      </trkpt>
      <trkpt lat="47.49672" lon="6.73438">
        <ele>333</ele>
        <time>2016-03-20T08:47:14.000Z</time>
      </trkpt>
      <trkpt lat="47.49675" lon="6.73433">
        <ele>333</ele>
        <time>2016-03-20T08:47:15.000Z</time>
      </trkpt>
      <trkpt lat="47.49679" lon="6.73429">
        <ele>333</ele>
        <time>2016-03-20T08:47:16.001Z</time>
      </trkpt>
      <trkpt lat="47.49682" lon="6.73423">
        <ele>333</ele>
        <time>2016-03-20T08:47:17.000Z</time>
      </trkpt>
      <trkpt lat="47.49686" lon="6.73418">
        <ele>333</ele>
        <time>2016-03-20T08:47:18.000Z</time>
      </trkpt>
      <trkpt lat="47.49689" lon="6.73412">
        <ele>334</ele>
        <time>2016-03-20T08:47:19.000Z</time>
      </trkpt>
      <trkpt lat="47.49692" lon="6.73408">
        <ele>334</ele>
        <time>2016-03-20T08:47:20.000Z</time>
      </trkpt>
      <trkpt lat="47.49696" lon="6.73404">
        <ele>334</ele>
        <time>2016-03-20T08:47:21.000Z</time>
      </trkpt>
      <trkpt lat="47.49699" lon="6.73399">
        <ele>334</ele>
        <time>2016-03-20T08:47:22.000Z</time>
      </trkpt>
      <trkpt lat="47.49701" lon="6.73394">
        <ele>334</ele>
        <time>2016-03-20T08:47:23.000Z</time>
      </trkpt>
      <trkpt lat="47.49703" lon="6.7339">
        <ele>334</ele>
        <time>2016-03-20T08:47:24.000Z</time>
      </trkpt>
      <trkpt lat="47.49708" lon="6.73385">
        <ele>334</ele>
        <time>2016-03-20T08:47:25.000Z</time>
      </trkpt>
      <trkpt lat="47.49711" lon="6.7338">
        <ele>334</ele>
        <time>2016-03-20T08:47:26.000Z</time>
      </trkpt>
      <trkpt lat="47.49714" lon="6.73377">
        <ele>334</ele>
        <time>2016-03-20T08:47:27.000Z</time>
      </trkpt>
      <trkpt lat="47.49718" lon="6.73372">
        <ele>334</ele>
        <time>2016-03-20T08:47:28.000Z</time>
      </trkpt>
      <trkpt lat="47.49722" lon="6.73366">
        <ele>334</ele>
        <time>2016-03-20T08:47:29.000Z</time>
      </trkpt>
      <trkpt lat="47.49726" lon="6.73362">
        <ele>334</ele>
        <time>2016-03-20T08:47:30.000Z</time>
      </trkpt>
      <trkpt lat="47.49729" lon="6.73356">
        <ele>334</ele>
        <time>2016-03-20T08:47:31.000Z</time>
      </trkpt>
      <trkpt lat="47.49733" lon="6.7335">
        <ele>333</ele>
        <time>2016-03-20T08:47:32.000Z</time>
      </trkpt>
      <trkpt lat="47.49735" lon="6.73344">
        <ele>333</ele>
        <time>2016-03-20T08:47:33.000Z</time>
      </trkpt>
      <trkpt lat="47.4974" lon="6.73341">
        <ele>333</ele>
        <time>2016-03-20T08:47:34.000Z</time>
      </trkpt>
      <trkpt lat="47.49744" lon="6.73336">
        <ele>333</ele>
        <time>2016-03-20T08:47:35.000Z</time>
      </trkpt>
      <trkpt lat="47.49747" lon="6.73331">
        <ele>333</ele>
        <time>2016-03-20T08:47:36.000Z</time>
      </trkpt>
      <trkpt lat="47.4975" lon="6.73326">
        <ele>333</ele>
        <time>2016-03-20T08:47:37.000Z</time>
      </trkpt>
      <trkpt lat="47.49753" lon="6.73322">
        <ele>333</ele>
        <time>2016-03-20T08:47:38.000Z</time>
      </trkpt>
      <trkpt lat="47.49756" lon="6.73317">
        <ele>333</ele>
        <time>2016-03-20T08:47:39.000Z</time>
      </trkpt>
      <trkpt lat="47.49759" lon="6.73312">
        <ele>333</ele>
        <time>2016-03-20T08:47:40.000Z</time>
      </trkpt>
      <trkpt lat="47.49762" lon="6.73307">
        <ele>334</ele>
        <time>2016-03-20T08:47:41.000Z</time>
      </trkpt>
      <trkpt lat="47.49765" lon="6.73302">
        <ele>334</ele>
        <time>2016-03-20T08:47:42.000Z</time>
      </trkpt>
      <trkpt lat="47.49768" lon="6.73297">
        <ele>334</ele>
        <time>2016-03-20T08:47:43.000Z</time>
      </trkpt>
      <trkpt lat="47.49771" lon="6.73291">
        <ele>334</ele>
        <time>2016-03-20T08:47:44.000Z</time>
      </trkpt>
      <trkpt lat="47.49775" lon="6.73287">
        <ele>334</ele>
        <time>2016-03-20T08:47:45.000Z</time>
      </trkpt>
      <trkpt lat="47.49777" lon="6.73281">
        <ele>334</ele>
        <time>2016-03-20T08:47:46.000Z</time>
      </trkpt>
      <trkpt lat="47.49779" lon="6.73276">
        <ele>335</ele>
        <time>2016-03-20T08:47:47.000Z</time>
      </trkpt>
      <trkpt lat="47.49781" lon="6.73271">
        <ele>335</ele>
        <time>2016-03-20T08:47:47.999Z</time>
      </trkpt>
      <trkpt lat="47.49785" lon="6.73265">
        <ele>335</ele>
        <time>2016-03-20T08:47:49.000Z</time>
      </trkpt>
      <trkpt lat="47.49788" lon="6.73259">
        <ele>335</ele>
        <time>2016-03-20T08:47:50.000Z</time>
      </trkpt>
      <trkpt lat="47.49791" lon="6.73254">
        <ele>335</ele>
        <time>2016-03-20T08:47:51.000Z</time>
      </trkpt>
      <trkpt lat="47.49794" lon="6.73248">
        <ele>337</ele>
        <time>2016-03-20T08:47:52.000Z</time>
      </trkpt>
      <trkpt lat="47.49796" lon="6.73243">
        <ele>337</ele>
        <time>2016-03-20T08:47:53.000Z</time>
      </trkpt>
      <trkpt lat="47.49798" lon="6.73237">
        <ele>337</ele>
        <time>2016-03-20T08:47:54.000Z</time>
      </trkpt>
      <trkpt lat="47.49801" lon="6.73231">
        <ele>337</ele>
        <time>2016-03-20T08:47:55.000Z</time>
      </trkpt>
      <trkpt lat="47.49804" lon="6.73225">
        <ele>337</ele>
        <time>2016-03-20T08:47:56.000Z</time>
      </trkpt>
      <trkpt lat="47.49807" lon="6.7322">
        <ele>337</ele>
        <time>2016-03-20T08:47:57.000Z</time>
      </trkpt>
      <trkpt lat="47.49809" lon="6.73214">
        <ele>337</ele>
        <time>2016-03-20T08:47:58.000Z</time>
      </trkpt>
      <trkpt lat="47.49811" lon="6.73209">
        <ele>337</ele>
        <time>2016-03-20T08:47:59.000Z</time>
      </trkpt>
      <trkpt lat="47.49811" lon="6.73204">
        <ele>337</ele>
        <time>2016-03-20T08:48:00.000Z</time>
      </trkpt>
      <trkpt lat="47.49812" lon="6.73198">
        <ele>337</ele>
        <time>2016-03-20T08:48:01.000Z</time>
      </trkpt>
      <trkpt lat="47.49814" lon="6.73192">
        <ele>337</ele>
        <time>2016-03-20T08:48:02.000Z</time>
      </trkpt>
      <trkpt lat="47.49815" lon="6.73186">
        <ele>337</ele>
        <time>2016-03-20T08:48:03.000Z</time>
      </trkpt>
      <trkpt lat="47.49816" lon="6.7318">
        <ele>337</ele>
        <time>2016-03-20T08:48:04.000Z</time>
      </trkpt>
      <trkpt lat="47.49816" lon="6.73175">
        <ele>337</ele>
        <time>2016-03-20T08:48:05.002Z</time>
      </trkpt>
      <trkpt lat="47.49821" lon="6.73169">
        <ele>337</ele>
        <time>2016-03-20T08:48:06.001Z</time>
      </trkpt>
      <trkpt lat="47.49823" lon="6.73163">
        <ele>338</ele>
        <time>2016-03-20T08:48:07.000Z</time>
      </trkpt>
      <trkpt lat="47.49823" lon="6.73158">
        <ele>338</ele>
        <time>2016-03-20T08:48:08.000Z</time>
      </trkpt>
      <trkpt lat="47.49822" lon="6.73156">
        <ele>338</ele>
        <time>2016-03-20T08:48:09.000Z</time>
      </trkpt>
      <trkpt lat="47.49822" lon="6.7315">
        <ele>338</ele>
        <time>2016-03-20T08:48:10.000Z</time>
      </trkpt>
      <trkpt lat="47.49824" lon="6.73142">
        <ele>339</ele>
        <time>2016-03-20T08:48:11.000Z</time>
      </trkpt>
      <trkpt lat="47.49825" lon="6.73134">
        <ele>339</ele>
        <time>2016-03-20T08:48:11.999Z</time>
      </trkpt>
      <trkpt lat="47.49827" lon="6.7313">
        <ele>339</ele>
        <time>2016-03-20T08:48:13.000Z</time>
      </trkpt>
      <trkpt lat="47.49829" lon="6.73125">
        <ele>339</ele>
        <time>2016-03-20T08:48:14.000Z</time>
      </trkpt>
      <trkpt lat="47.4983" lon="6.7312">
        <ele>339</ele>
        <time>2016-03-20T08:48:15.000Z</time>
      </trkpt>
      <trkpt lat="47.49831" lon="6.73116">
        <ele>339</ele>
        <time>2016-03-20T08:48:16.000Z</time>
      </trkpt>
      <trkpt lat="47.49832" lon="6.73112">
        <ele>339</ele>
        <time>2016-03-20T08:48:17.000Z</time>
      </trkpt>
      <trkpt lat="47.49832" lon="6.73107">
        <ele>339</ele>
        <time>2016-03-20T08:48:18.000Z</time>
      </trkpt>
      <trkpt lat="47.49833" lon="6.73103">
        <ele>339</ele>
        <time>2016-03-20T08:48:19.000Z</time>
      </trkpt>
      <trkpt lat="47.49835" lon="6.731">
        <ele>339</ele>
        <time>2016-03-20T08:48:20.000Z</time>
      </trkpt>
      <trkpt lat="47.49835" lon="6.73096">
        <ele>339</ele>
        <time>2016-03-20T08:48:21.000Z</time>
      </trkpt>
      <trkpt lat="47.49836" lon="6.73092">
        <ele>339</ele>
        <time>2016-03-20T08:48:22.000Z</time>
      </trkpt>
      <trkpt lat="47.49837" lon="6.73088">
        <ele>340</ele>
        <time>2016-03-20T08:48:23.000Z</time>
      </trkpt>
      <trkpt lat="47.49838" lon="6.73084">
        <ele>340</ele>
        <time>2016-03-20T08:48:24.000Z</time>
      </trkpt>
      <trkpt lat="47.49839" lon="6.7308">
        <ele>340</ele>
        <time>2016-03-20T08:48:25.000Z</time>
      </trkpt>
      <trkpt lat="47.4984" lon="6.73076">
        <ele>340</ele>
        <time>2016-03-20T08:48:26.000Z</time>
      </trkpt>
      <trkpt lat="47.49842" lon="6.73071">
        <ele>340</ele>
        <time>2016-03-20T08:48:27.000Z</time>
      </trkpt>
      <trkpt lat="47.49844" lon="6.73066">
        <ele>340</ele>
        <time>2016-03-20T08:48:28.000Z</time>
      </trkpt>
      <trkpt lat="47.49846" lon="6.73062">
        <ele>340</ele>
        <time>2016-03-20T08:48:28.999Z</time>
      </trkpt>
      <trkpt lat="47.49848" lon="6.73057">
        <ele>340</ele>
        <time>2016-03-20T08:48:30.000Z</time>
      </trkpt>
      <trkpt lat="47.4985" lon="6.73052">
        <ele>340</ele>
        <time>2016-03-20T08:48:31.000Z</time>
      </trkpt>
      <trkpt lat="47.49852" lon="6.73048">
        <ele>340</ele>
        <time>2016-03-20T08:48:32.000Z</time>
      </trkpt>
      <trkpt lat="47.49853" lon="6.73043">
        <ele>340</ele>
        <time>2016-03-20T08:48:33.001Z</time>
      </trkpt>
      <trkpt lat="47.49856" lon="6.73038">
        <ele>340</ele>
        <time>2016-03-20T08:48:34.000Z</time>
      </trkpt>
      <trkpt lat="47.49858" lon="6.73033">
        <ele>340</ele>
        <time>2016-03-20T08:48:35.000Z</time>
      </trkpt>
      <trkpt lat="47.4986" lon="6.73028">
        <ele>341</ele>
        <time>2016-03-20T08:48:36.000Z</time>
      </trkpt>
      <trkpt lat="47.49862" lon="6.73022">
        <ele>341</ele>
        <time>2016-03-20T08:48:37.000Z</time>
      </trkpt>
      <trkpt lat="47.49864" lon="6.73017">
        <ele>341</ele>
        <time>2016-03-20T08:48:38.000Z</time>
      </trkpt>
      <trkpt lat="47.49867" lon="6.73012">
        <ele>341</ele>
        <time>2016-03-20T08:48:39.000Z</time>
      </trkpt>
      <trkpt lat="47.49869" lon="6.73007">
        <ele>341</ele>
        <time>2016-03-20T08:48:40.000Z</time>
      </trkpt>
      <trkpt lat="47.49871" lon="6.73002">
        <ele>341</ele>
        <time>2016-03-20T08:48:41.000Z</time>
      </trkpt>
      <trkpt lat="47.49873" lon="6.72996">
        <ele>342</ele>
        <time>2016-03-20T08:48:42.000Z</time>
      </trkpt>
      <trkpt lat="47.49874" lon="6.72991">
        <ele>342</ele>
        <time>2016-03-20T08:48:43.000Z</time>
      </trkpt>
      <trkpt lat="47.49876" lon="6.72985">
        <ele>342</ele>
        <time>2016-03-20T08:48:44.000Z</time>
      </trkpt>
      <trkpt lat="47.49877" lon="6.7298">
        <ele>342</ele>
        <time>2016-03-20T08:48:45.000Z</time>
      </trkpt>
      <trkpt lat="47.49879" lon="6.72974">
        <ele>342</ele>
        <time>2016-03-20T08:48:46.000Z</time>
      </trkpt>
      <trkpt lat="47.49881" lon="6.72969">
        <ele>342</ele>
        <time>2016-03-20T08:48:47.000Z</time>
      </trkpt>
      <trkpt lat="47.49883" lon="6.72964">
        <ele>342</ele>
        <time>2016-03-20T08:48:48.000Z</time>
      </trkpt>
      <trkpt lat="47.49885" lon="6.72959">
        <ele>342</ele>
        <time>2016-03-20T08:48:49.000Z</time>
      </trkpt>
      <trkpt lat="47.49888" lon="6.72954">
        <ele>342</ele>
        <time>2016-03-20T08:48:50.000Z</time>
      </trkpt>
      <trkpt lat="47.4989" lon="6.72949">
        <ele>342</ele>
        <time>2016-03-20T08:48:51.000Z</time>
      </trkpt>
      <trkpt lat="47.49893" lon="6.72944">
        <ele>342</ele>
        <time>2016-03-20T08:48:52.000Z</time>
      </trkpt>
      <trkpt lat="47.49896" lon="6.72941">
        <ele>342</ele>
        <time>2016-03-20T08:48:53.000Z</time>
      </trkpt>
      <trkpt lat="47.499" lon="6.72939">
        <ele>342</ele>
        <time>2016-03-20T08:48:54.000Z</time>
      </trkpt>
      <trkpt lat="47.49903" lon="6.72939">
        <ele>342</ele>
        <time>2016-03-20T08:48:55.000Z</time>
      </trkpt>
      <trkpt lat="47.49907" lon="6.7294">
        <ele>341</ele>
        <time>2016-03-20T08:48:56.000Z</time>
      </trkpt>
      <trkpt lat="47.49915" lon="6.72947">
        <ele>341</ele>
        <time>2016-03-20T08:48:57.000Z</time>
      </trkpt>
      <trkpt lat="47.4992" lon="6.72948">
        <ele>339</ele>
        <time>2016-03-20T08:48:58.000Z</time>
      </trkpt>
      <trkpt lat="47.49925" lon="6.72951">
        <ele>339</ele>
        <time>2016-03-20T08:48:59.000Z</time>
      </trkpt>
      <trkpt lat="47.49931" lon="6.72953">
        <ele>339</ele>
        <time>2016-03-20T08:49:00.000Z</time>
      </trkpt>
      <trkpt lat="47.49936" lon="6.72956">
        <ele>339</ele>
        <time>2016-03-20T08:49:01.000Z</time>
      </trkpt>
      <trkpt lat="47.49941" lon="6.72959">
        <ele>339</ele>
        <time>2016-03-20T08:49:02.000Z</time>
      </trkpt>
      <trkpt lat="47.49943" lon="6.72962">
        <ele>339</ele>
        <time>2016-03-20T08:49:03.000Z</time>
      </trkpt>
      <trkpt lat="47.49946" lon="6.72965">
        <ele>339</ele>
        <time>2016-03-20T08:49:04.000Z</time>
      </trkpt>
      <trkpt lat="47.4995" lon="6.72969">
        <ele>339</ele>
        <time>2016-03-20T08:49:05.000Z</time>
      </trkpt>
      <trkpt lat="47.49957" lon="6.72971">
        <ele>339</ele>
        <time>2016-03-20T08:49:06.000Z</time>
      </trkpt>
      <trkpt lat="47.49961" lon="6.72974">
        <ele>339</ele>
        <time>2016-03-20T08:49:07.000Z</time>
      </trkpt>
      <trkpt lat="47.49967" lon="6.72976">
        <ele>338</ele>
        <time>2016-03-20T08:49:08.000Z</time>
      </trkpt>
      <trkpt lat="47.49971" lon="6.7298">
        <ele>338</ele>
        <time>2016-03-20T08:49:09.000Z</time>
      </trkpt>
      <trkpt lat="47.49977" lon="6.72985">
        <ele>338</ele>
        <time>2016-03-20T08:49:10.000Z</time>
      </trkpt>
      <trkpt lat="47.49981" lon="6.7299">
        <ele>338</ele>
        <time>2016-03-20T08:49:11.000Z</time>
      </trkpt>
      <trkpt lat="47.49985" lon="6.72995">
        <ele>338</ele>
        <time>2016-03-20T08:49:12.000Z</time>
      </trkpt>
      <trkpt lat="47.49987" lon="6.73">
        <ele>337</ele>
        <time>2016-03-20T08:49:13.000Z</time>
      </trkpt>
      <trkpt lat="47.49991" lon="6.73005">
        <ele>337</ele>
        <time>2016-03-20T08:49:14.000Z</time>
      </trkpt>
      <trkpt lat="47.49994" lon="6.7301">
        <ele>337</ele>
        <time>2016-03-20T08:49:15.000Z</time>
      </trkpt>
      <trkpt lat="47.49997" lon="6.73015">
        <ele>337</ele>
        <time>2016-03-20T08:49:16.000Z</time>
      </trkpt>
      <trkpt lat="47.50001" lon="6.7302">
        <ele>337</ele>
        <time>2016-03-20T08:49:17.000Z</time>
      </trkpt>
      <trkpt lat="47.50004" lon="6.73024">
        <ele>337</ele>
        <time>2016-03-20T08:49:18.000Z</time>
      </trkpt>
      <trkpt lat="47.50007" lon="6.73029">
        <ele>337</ele>
        <time>2016-03-20T08:49:19.000Z</time>
      </trkpt>
      <trkpt lat="47.50011" lon="6.73033">
        <ele>337</ele>
        <time>2016-03-20T08:49:20.000Z</time>
      </trkpt>
      <trkpt lat="47.50014" lon="6.73037">
        <ele>337</ele>
        <time>2016-03-20T08:49:21.000Z</time>
      </trkpt>
      <trkpt lat="47.50016" lon="6.73043">
        <ele>337</ele>
        <time>2016-03-20T08:49:22.000Z</time>
      </trkpt>
      <trkpt lat="47.50019" lon="6.73048">
        <ele>337</ele>
        <time>2016-03-20T08:49:22.999Z</time>
      </trkpt>
      <trkpt lat="47.50024" lon="6.7305">
        <ele>337</ele>
        <time>2016-03-20T08:49:24.000Z</time>
      </trkpt>
      <trkpt lat="47.50029" lon="6.73054">
        <ele>337</ele>
        <time>2016-03-20T08:49:25.000Z</time>
      </trkpt>
      <trkpt lat="47.50033" lon="6.73058">
        <ele>337</ele>
        <time>2016-03-20T08:49:26.000Z</time>
      </trkpt>
      <trkpt lat="47.50036" lon="6.73062">
        <ele>337</ele>
        <time>2016-03-20T08:49:27.000Z</time>
      </trkpt>
      <trkpt lat="47.50038" lon="6.73067">
        <ele>337</ele>
        <time>2016-03-20T08:49:27.999Z</time>
      </trkpt>
      <trkpt lat="47.5004" lon="6.73073">
        <ele>337</ele>
        <time>2016-03-20T08:49:29.000Z</time>
      </trkpt>
      <trkpt lat="47.50043" lon="6.73076">
        <ele>337</ele>
        <time>2016-03-20T08:49:30.000Z</time>
      </trkpt>
      <trkpt lat="47.50046" lon="6.7308">
        <ele>337</ele>
        <time>2016-03-20T08:49:30.999Z</time>
      </trkpt>
      <trkpt lat="47.50051" lon="6.73081">
        <ele>337</ele>
        <time>2016-03-20T08:49:32.000Z</time>
      </trkpt>
      <trkpt lat="47.50055" lon="6.73084">
        <ele>337</ele>
        <time>2016-03-20T08:49:33.000Z</time>
      </trkpt>
      <trkpt lat="47.50059" lon="6.73088">
        <ele>337</ele>
        <time>2016-03-20T08:49:34.000Z</time>
      </trkpt>
      <trkpt lat="47.50062" lon="6.73092">
        <ele>337</ele>
        <time>2016-03-20T08:49:34.999Z</time>
      </trkpt>
      <trkpt lat="47.50064" lon="6.73097">
        <ele>337</ele>
        <time>2016-03-20T08:49:36.000Z</time>
      </trkpt>
      <trkpt lat="47.50065" lon="6.73103">
        <ele>337</ele>
        <time>2016-03-20T08:49:37.000Z</time>
      </trkpt>
      <trkpt lat="47.50067" lon="6.73108">
        <ele>337</ele>
        <time>2016-03-20T08:49:38.000Z</time>
      </trkpt>
      <trkpt lat="47.50072" lon="6.73111">
        <ele>337</ele>
        <time>2016-03-20T08:49:39.000Z</time>
      </trkpt>
      <trkpt lat="47.50076" lon="6.73115">
        <ele>337</ele>
        <time>2016-03-20T08:49:40.000Z</time>
      </trkpt>
      <trkpt lat="47.50081" lon="6.73117">
        <ele>337</ele>
        <time>2016-03-20T08:49:41.000Z</time>
      </trkpt>
      <trkpt lat="47.50085" lon="6.73118">
        <ele>339</ele>
        <time>2016-03-20T08:49:42.000Z</time>
      </trkpt>
      <trkpt lat="47.5009" lon="6.73118">
        <ele>339</ele>
        <time>2016-03-20T08:49:43.000Z</time>
      </trkpt>
      <trkpt lat="47.50096" lon="6.73118">
        <ele>339</ele>
        <time>2016-03-20T08:49:44.000Z</time>
      </trkpt>
      <trkpt lat="47.501" lon="6.73119">
        <ele>339</ele>
        <time>2016-03-20T08:49:45.000Z</time>
      </trkpt>
      <trkpt lat="47.50105" lon="6.73121">
        <ele>339</ele>
        <time>2016-03-20T08:49:46.000Z</time>
      </trkpt>
      <trkpt lat="47.50109" lon="6.73123">
        <ele>339</ele>
        <time>2016-03-20T08:49:47.000Z</time>
      </trkpt>
      <trkpt lat="47.50114" lon="6.73121">
        <ele>339</ele>
        <time>2016-03-20T08:49:48.000Z</time>
      </trkpt>
      <trkpt lat="47.50117" lon="6.73122">
        <ele>339</ele>
        <time>2016-03-20T08:49:49.000Z</time>
      </trkpt>
      <trkpt lat="47.50121" lon="6.73123">
        <ele>339</ele>
        <time>2016-03-20T08:49:50.000Z</time>
      </trkpt>
      <trkpt lat="47.50125" lon="6.73124">
        <ele>339</ele>
        <time>2016-03-20T08:49:51.000Z</time>
      </trkpt>
      <trkpt lat="47.50128" lon="6.73125">
        <ele>340</ele>
        <time>2016-03-20T08:49:52.000Z</time>
      </trkpt>
      <trkpt lat="47.50131" lon="6.73125">
        <ele>340</ele>
        <time>2016-03-20T08:49:53.000Z</time>
      </trkpt>
      <trkpt lat="47.50134" lon="6.73126">
        <ele>340</ele>
        <time>2016-03-20T08:49:54.000Z</time>
      </trkpt>
      <trkpt lat="47.50138" lon="6.73126">
        <ele>340</ele>
        <time>2016-03-20T08:49:55.000Z</time>
      </trkpt>
      <trkpt lat="47.50141" lon="6.73126">
        <ele>340</ele>
        <time>2016-03-20T08:49:56.000Z</time>
      </trkpt>
      <trkpt lat="47.50145" lon="6.73126">
        <ele>340</ele>
        <time>2016-03-20T08:49:57.000Z</time>
      </trkpt>
      <trkpt lat="47.50149" lon="6.73126">
        <ele>340</ele>
        <time>2016-03-20T08:49:58.000Z</time>
      </trkpt>
      <trkpt lat="47.50153" lon="6.73127">
        <ele>340</ele>
        <time>2016-03-20T08:49:59.000Z</time>
      </trkpt>
      <trkpt lat="47.50158" lon="6.73127">
        <ele>340</ele>
        <time>2016-03-20T08:49:59.999Z</time>
      </trkpt>
      <trkpt lat="47.50162" lon="6.73128">
        <ele>340</ele>
        <time>2016-03-20T08:50:00.999Z</time>
      </trkpt>
      <trkpt lat="47.50165" lon="6.73132">
        <ele>340</ele>
        <time>2016-03-20T08:50:02.000Z</time>
      </trkpt>
      <trkpt lat="47.50166" lon="6.73135">
        <ele>340</ele>
        <time>2016-03-20T08:50:03.000Z</time>
      </trkpt>
      <trkpt lat="47.50168" lon="6.73139">
        <ele>341</ele>
        <time>2016-03-20T08:50:04.000Z</time>
      </trkpt>
      <trkpt lat="47.5017" lon="6.73145">
        <ele>341</ele>
        <time>2016-03-20T08:50:06.000Z</time>
      </trkpt>
      <trkpt lat="47.50171" lon="6.73147">
        <ele>342</ele>
        <time>2016-03-20T08:50:07.000Z</time>
      </trkpt>
      <trkpt lat="47.50173" lon="6.73147">
        <ele>342</ele>
        <time>2016-03-20T08:50:09.000Z</time>
      </trkpt>
      <trkpt lat="47.50176" lon="6.73144">
        <ele>341</ele>
        <time>2016-03-20T08:50:10.000Z</time>
      </trkpt>
      <trkpt lat="47.50178" lon="6.73143">
        <ele>341</ele>
        <time>2016-03-20T08:50:11.001Z</time>
      </trkpt>
      <trkpt lat="47.50182" lon="6.73135">
        <ele>341</ele>
        <time>2016-03-20T08:50:12.000Z</time>
      </trkpt>
      <trkpt lat="47.50184" lon="6.73129">
        <ele>341</ele>
        <time>2016-03-20T08:50:13.000Z</time>
      </trkpt>
      <trkpt lat="47.50189" lon="6.73116">
        <ele>341</ele>
        <time>2016-03-20T08:50:14.000Z</time>
      </trkpt>
      <trkpt lat="47.50192" lon="6.73109">
        <ele>341</ele>
        <time>2016-03-20T08:50:15.000Z</time>
      </trkpt>
      <trkpt lat="47.50195" lon="6.73102">
        <ele>341</ele>
        <time>2016-03-20T08:50:16.000Z</time>
      </trkpt>
      <trkpt lat="47.50199" lon="6.73095">
        <ele>341</ele>
        <time>2016-03-20T08:50:17.000Z</time>
      </trkpt>
      <trkpt lat="47.50201" lon="6.7309">
        <ele>341</ele>
        <time>2016-03-20T08:50:18.000Z</time>
      </trkpt>
      <trkpt lat="47.50203" lon="6.73084">
        <ele>341</ele>
        <time>2016-03-20T08:50:19.000Z</time>
      </trkpt>
      <trkpt lat="47.50206" lon="6.73077">
        <ele>340</ele>
        <time>2016-03-20T08:50:20.000Z</time>
      </trkpt>
      <trkpt lat="47.50209" lon="6.73071">
        <ele>341</ele>
        <time>2016-03-20T08:50:21.001Z</time>
      </trkpt>
      <trkpt lat="47.5021" lon="6.73065">
        <ele>341</ele>
        <time>2016-03-20T08:50:22.001Z</time>
      </trkpt>
      <trkpt lat="47.50212" lon="6.73059">
        <ele>341</ele>
        <time>2016-03-20T08:50:22.999Z</time>
      </trkpt>
      <trkpt lat="47.50216" lon="6.73052">
        <ele>341</ele>
        <time>2016-03-20T08:50:24.000Z</time>
      </trkpt>
      <trkpt lat="47.50219" lon="6.73046">
        <ele>341</ele>
        <time>2016-03-20T08:50:25.000Z</time>
      </trkpt>
      <trkpt lat="47.50221" lon="6.73039">
        <ele>341</ele>
        <time>2016-03-20T08:50:26.000Z</time>
      </trkpt>
      <trkpt lat="47.50224" lon="6.73033">
        <ele>341</ele>
        <time>2016-03-20T08:50:27.000Z</time>
      </trkpt>
      <trkpt lat="47.50227" lon="6.73027">
        <ele>341</ele>
        <time>2016-03-20T08:50:28.000Z</time>
      </trkpt>
      <trkpt lat="47.50229" lon="6.7302">
        <ele>341</ele>
        <time>2016-03-20T08:50:29.001Z</time>
      </trkpt>
      <trkpt lat="47.50232" lon="6.73013">
        <ele>341</ele>
        <time>2016-03-20T08:50:30.000Z</time>
      </trkpt>
      <trkpt lat="47.50234" lon="6.73005">
        <ele>341</ele>
        <time>2016-03-20T08:50:31.000Z</time>
      </trkpt>
      <trkpt lat="47.50237" lon="6.72998">
        <ele>341</ele>
        <time>2016-03-20T08:50:32.000Z</time>
      </trkpt>
      <trkpt lat="47.5024" lon="6.72992">
        <ele>341</ele>
        <time>2016-03-20T08:50:33.000Z</time>
      </trkpt>
      <trkpt lat="47.50243" lon="6.72986">
        <ele>340</ele>
        <time>2016-03-20T08:50:34.000Z</time>
      </trkpt>
      <trkpt lat="47.50248" lon="6.72976">
        <ele>340</ele>
        <time>2016-03-20T08:50:35.000Z</time>
      </trkpt>
      <trkpt lat="47.50253" lon="6.72969">
        <ele>341</ele>
        <time>2016-03-20T08:50:36.000Z</time>
      </trkpt>
      <trkpt lat="47.50257" lon="6.7296">
        <ele>341</ele>
        <time>2016-03-20T08:50:37.000Z</time>
      </trkpt>
      <trkpt lat="47.50259" lon="6.72954">
        <ele>341</ele>
        <time>2016-03-20T08:50:38.000Z</time>
      </trkpt>
      <trkpt lat="47.50262" lon="6.72949">
        <ele>341</ele>
        <time>2016-03-20T08:50:39.000Z</time>
      </trkpt>
      <trkpt lat="47.50265" lon="6.72944">
        <ele>341</ele>
        <time>2016-03-20T08:50:40.000Z</time>
      </trkpt>
      <trkpt lat="47.50267" lon="6.72937">
        <ele>341</ele>
        <time>2016-03-20T08:50:41.000Z</time>
      </trkpt>
      <trkpt lat="47.50269" lon="6.72931">
        <ele>341</ele>
        <time>2016-03-20T08:50:42.000Z</time>
      </trkpt>
      <trkpt lat="47.50273" lon="6.72925">
        <ele>341</ele>
        <time>2016-03-20T08:50:43.000Z</time>
      </trkpt>
      <trkpt lat="47.50275" lon="6.72919">
        <ele>341</ele>
        <time>2016-03-20T08:50:44.000Z</time>
      </trkpt>
      <trkpt lat="47.50278" lon="6.72913">
        <ele>341</ele>
        <time>2016-03-20T08:50:45.000Z</time>
      </trkpt>
      <trkpt lat="47.50279" lon="6.72909">
        <ele>341</ele>
        <time>2016-03-20T08:50:46.000Z</time>
      </trkpt>
      <trkpt lat="47.50279" lon="6.72904">
        <ele>341</ele>
        <time>2016-03-20T08:50:47.000Z</time>
      </trkpt>
      <trkpt lat="47.50281" lon="6.729">
        <ele>341</ele>
        <time>2016-03-20T08:50:48.000Z</time>
      </trkpt>
      <trkpt lat="47.50284" lon="6.72896">
        <ele>341</ele>
        <time>2016-03-20T08:50:49.000Z</time>
      </trkpt>
      <trkpt lat="47.50287" lon="6.72894">
        <ele>341</ele>
        <time>2016-03-20T08:50:50.000Z</time>
      </trkpt>
      <trkpt lat="47.50291" lon="6.72894">
        <ele>341</ele>
        <time>2016-03-20T08:50:51.000Z</time>
      </trkpt>
      <trkpt lat="47.50295" lon="6.72895">
        <ele>342</ele>
        <time>2016-03-20T08:50:52.000Z</time>
      </trkpt>
      <trkpt lat="47.50299" lon="6.72898">
        <ele>342</ele>
        <time>2016-03-20T08:50:53.000Z</time>
      </trkpt>
      <trkpt lat="47.50303" lon="6.72899">
        <ele>342</ele>
        <time>2016-03-20T08:50:54.000Z</time>
      </trkpt>
      <trkpt lat="47.50307" lon="6.729">
        <ele>342</ele>
        <time>2016-03-20T08:50:55.000Z</time>
      </trkpt>
      <trkpt lat="47.5031" lon="6.72901">
        <ele>342</ele>
        <time>2016-03-20T08:50:56.000Z</time>
      </trkpt>
      <trkpt lat="47.50313" lon="6.72902">
        <ele>342</ele>
        <time>2016-03-20T08:50:57.000Z</time>
      </trkpt>
      <trkpt lat="47.50317" lon="6.72903">
        <ele>342</ele>
        <time>2016-03-20T08:50:58.000Z</time>
      </trkpt>
      <trkpt lat="47.50321" lon="6.72904">
        <ele>342</ele>
        <time>2016-03-20T08:50:59.000Z</time>
      </trkpt>
      <trkpt lat="47.50325" lon="6.72904">
        <ele>342</ele>
        <time>2016-03-20T08:51:00.000Z</time>
      </trkpt>
      <trkpt lat="47.50329" lon="6.72905">
        <ele>342</ele>
        <time>2016-03-20T08:51:01.000Z</time>
      </trkpt>
      <trkpt lat="47.50333" lon="6.72906">
        <ele>342</ele>
        <time>2016-03-20T08:51:02.000Z</time>
      </trkpt>
      <trkpt lat="47.50336" lon="6.72906">
        <ele>344</ele>
        <time>2016-03-20T08:51:03.000Z</time>
      </trkpt>
      <trkpt lat="47.50339" lon="6.72908">
        <ele>344</ele>
        <time>2016-03-20T08:51:04.000Z</time>
      </trkpt>
      <trkpt lat="47.50343" lon="6.72909">
        <ele>344</ele>
        <time>2016-03-20T08:51:05.000Z</time>
      </trkpt>
      <trkpt lat="47.50346" lon="6.72911">
        <ele>344</ele>
        <time>2016-03-20T08:51:06.000Z</time>
      </trkpt>
      <trkpt lat="47.50349" lon="6.72912">
        <ele>344</ele>
        <time>2016-03-20T08:51:07.000Z</time>
      </trkpt>
      <trkpt lat="47.50352" lon="6.72913">
        <ele>344</ele>
        <time>2016-03-20T08:51:08.000Z</time>
      </trkpt>
      <trkpt lat="47.50355" lon="6.72915">
        <ele>345</ele>
        <time>2016-03-20T08:51:09.000Z</time>
      </trkpt>
      <trkpt lat="47.50358" lon="6.72917">
        <ele>345</ele>
        <time>2016-03-20T08:51:10.000Z</time>
      </trkpt>
      <trkpt lat="47.5036" lon="6.72918">
        <ele>345</ele>
        <time>2016-03-20T08:51:11.000Z</time>
      </trkpt>
      <trkpt lat="47.50363" lon="6.72919">
        <ele>346</ele>
        <time>2016-03-20T08:51:12.000Z</time>
      </trkpt>
      <trkpt lat="47.50366" lon="6.7292">
        <ele>346</ele>
        <time>2016-03-20T08:51:13.000Z</time>
      </trkpt>
      <trkpt lat="47.50368" lon="6.7292">
        <ele>346</ele>
        <time>2016-03-20T08:51:14.000Z</time>
      </trkpt>
      <trkpt lat="47.50371" lon="6.7292">
        <ele>346</ele>
        <time>2016-03-20T08:51:15.000Z</time>
      </trkpt>
      <trkpt lat="47.50373" lon="6.72922">
        <ele>346</ele>
        <time>2016-03-20T08:51:16.000Z</time>
      </trkpt>
      <trkpt lat="47.50375" lon="6.72924">
        <ele>346</ele>
        <time>2016-03-20T08:51:17.000Z</time>
      </trkpt>
      <trkpt lat="47.50377" lon="6.72926">
        <ele>346</ele>
        <time>2016-03-20T08:51:18.000Z</time>
      </trkpt>
      <trkpt lat="47.50379" lon="6.72928">
        <ele>346</ele>
        <time>2016-03-20T08:51:19.000Z</time>
      </trkpt>
      <trkpt lat="47.50382" lon="6.7293">
        <ele>347</ele>
        <time>2016-03-20T08:51:20.000Z</time>
      </trkpt>
      <trkpt lat="47.50386" lon="6.7293">
        <ele>347</ele>
        <time>2016-03-20T08:51:21.000Z</time>
      </trkpt>
      <trkpt lat="47.50389" lon="6.7293">
        <ele>347</ele>
        <time>2016-03-20T08:51:22.000Z</time>
      </trkpt>
      <trkpt lat="47.50392" lon="6.7293">
        <ele>347</ele>
        <time>2016-03-20T08:51:23.000Z</time>
      </trkpt>
      <trkpt lat="47.50395" lon="6.7293">
        <ele>347</ele>
        <time>2016-03-20T08:51:24.000Z</time>
      </trkpt>
      <trkpt lat="47.50398" lon="6.72929">
        <ele>347</ele>
        <time>2016-03-20T08:51:25.000Z</time>
      </trkpt>
      <trkpt lat="47.50401" lon="6.72928">
        <ele>347</ele>
        <time>2016-03-20T08:51:26.000Z</time>
      </trkpt>
      <trkpt lat="47.50404" lon="6.72928">
        <ele>348</ele>
        <time>2016-03-20T08:51:27.000Z</time>
      </trkpt>
      <trkpt lat="47.50407" lon="6.72928">
        <ele>348</ele>
        <time>2016-03-20T08:51:28.000Z</time>
      </trkpt>
      <trkpt lat="47.50409" lon="6.72929">
        <ele>348</ele>
        <time>2016-03-20T08:51:29.000Z</time>
      </trkpt>
      <trkpt lat="47.50412" lon="6.7293">
        <ele>348</ele>
        <time>2016-03-20T08:51:30.000Z</time>
      </trkpt>
      <trkpt lat="47.50415" lon="6.72931">
        <ele>348</ele>
        <time>2016-03-20T08:51:31.001Z</time>
      </trkpt>
      <trkpt lat="47.50418" lon="6.72932">
        <ele>351</ele>
        <time>2016-03-20T08:51:32.000Z</time>
      </trkpt>
      <trkpt lat="47.50421" lon="6.72933">
        <ele>351</ele>
        <time>2016-03-20T08:51:33.000Z</time>
      </trkpt>
      <trkpt lat="47.50424" lon="6.72934">
        <ele>351</ele>
        <time>2016-03-20T08:51:34.000Z</time>
      </trkpt>
      <trkpt lat="47.50427" lon="6.72935">
        <ele>351</ele>
        <time>2016-03-20T08:51:34.999Z</time>
      </trkpt>
      <trkpt lat="47.50429" lon="6.72938">
        <ele>352</ele>
        <time>2016-03-20T08:51:36.000Z</time>
      </trkpt>
      <trkpt lat="47.50432" lon="6.7294">
        <ele>352</ele>
        <time>2016-03-20T08:51:37.001Z</time>
      </trkpt>
      <trkpt lat="47.50434" lon="6.72941">
        <ele>352</ele>
        <time>2016-03-20T08:51:38.000Z</time>
      </trkpt>
      <trkpt lat="47.50437" lon="6.72942">
        <ele>352</ele>
        <time>2016-03-20T08:51:39.000Z</time>
      </trkpt>
      <trkpt lat="47.50439" lon="6.72943">
        <ele>352</ele>
        <time>2016-03-20T08:51:40.000Z</time>
      </trkpt>
      <trkpt lat="47.50441" lon="6.72943">
        <ele>352</ele>
        <time>2016-03-20T08:51:41.000Z</time>
      </trkpt>
      <trkpt lat="47.50444" lon="6.72943">
        <ele>353</ele>
        <time>2016-03-20T08:51:42.000Z</time>
      </trkpt>
      <trkpt lat="47.50446" lon="6.72943">
        <ele>353</ele>
        <time>2016-03-20T08:51:43.000Z</time>
      </trkpt>
      <trkpt lat="47.50449" lon="6.72942">
        <ele>353</ele>
        <time>2016-03-20T08:51:44.000Z</time>
      </trkpt>
      <trkpt lat="47.50452" lon="6.72941">
        <ele>353</ele>
        <time>2016-03-20T08:51:45.000Z</time>
      </trkpt>
      <trkpt lat="47.50454" lon="6.7294">
        <ele>353</ele>
        <time>2016-03-20T08:51:46.000Z</time>
      </trkpt>
      <trkpt lat="47.50457" lon="6.72939">
        <ele>353</ele>
        <time>2016-03-20T08:51:47.000Z</time>
      </trkpt>
      <trkpt lat="47.50459" lon="6.72937">
        <ele>353</ele>
        <time>2016-03-20T08:51:48.000Z</time>
      </trkpt>
      <trkpt lat="47.50461" lon="6.72934">
        <ele>354</ele>
        <time>2016-03-20T08:51:49.000Z</time>
      </trkpt>
      <trkpt lat="47.50464" lon="6.72932">
        <ele>354</ele>
        <time>2016-03-20T08:51:50.000Z</time>
      </trkpt>
      <trkpt lat="47.50466" lon="6.72929">
        <ele>354</ele>
        <time>2016-03-20T08:51:51.000Z</time>
      </trkpt>
      <trkpt lat="47.50468" lon="6.72926">
        <ele>354</ele>
        <time>2016-03-20T08:51:52.000Z</time>
      </trkpt>
      <trkpt lat="47.5047" lon="6.72923">
        <ele>354</ele>
        <time>2016-03-20T08:51:53.000Z</time>
      </trkpt>
      <trkpt lat="47.50472" lon="6.72921">
        <ele>354</ele>
        <time>2016-03-20T08:51:54.000Z</time>
      </trkpt>
      <trkpt lat="47.50474" lon="6.72918">
        <ele>354</ele>
        <time>2016-03-20T08:51:55.000Z</time>
      </trkpt>
      <trkpt lat="47.50475" lon="6.72916">
        <ele>354</ele>
        <time>2016-03-20T08:51:56.000Z</time>
      </trkpt>
      <trkpt lat="47.50477" lon="6.72913">
        <ele>354</ele>
        <time>2016-03-20T08:51:57.000Z</time>
      </trkpt>
      <trkpt lat="47.5048" lon="6.72909">
        <ele>354</ele>
        <time>2016-03-20T08:51:59.000Z</time>
      </trkpt>
      <trkpt lat="47.50482" lon="6.72906">
        <ele>354</ele>
        <time>2016-03-20T08:52:00.000Z</time>
      </trkpt>
      <trkpt lat="47.50484" lon="6.72902">
        <ele>354</ele>
        <time>2016-03-20T08:52:02.000Z</time>
      </trkpt>
      <trkpt lat="47.50486" lon="6.729">
        <ele>354</ele>
        <time>2016-03-20T08:52:03.000Z</time>
      </trkpt>
      <trkpt lat="47.50489" lon="6.72897">
        <ele>354</ele>
        <time>2016-03-20T08:52:05.000Z</time>
      </trkpt>
      <trkpt lat="47.50491" lon="6.72895">
        <ele>354</ele>
        <time>2016-03-20T08:52:06.000Z</time>
      </trkpt>
      <trkpt lat="47.50494" lon="6.72893">
        <ele>354</ele>
        <time>2016-03-20T08:52:07.000Z</time>
      </trkpt>
      <trkpt lat="47.50496" lon="6.72891">
        <ele>354</ele>
        <time>2016-03-20T08:52:08.000Z</time>
      </trkpt>
      <trkpt lat="47.50498" lon="6.72889">
        <ele>354</ele>
        <time>2016-03-20T08:52:09.000Z</time>
      </trkpt>
      <trkpt lat="47.50501" lon="6.72887">
        <ele>362</ele>
        <time>2016-03-20T08:52:10.000Z</time>
      </trkpt>
      <trkpt lat="47.50503" lon="6.72885">
        <ele>362</ele>
        <time>2016-03-20T08:52:11.000Z</time>
      </trkpt>
      <trkpt lat="47.50506" lon="6.72882">
        <ele>362</ele>
        <time>2016-03-20T08:52:12.000Z</time>
      </trkpt>
      <trkpt lat="47.50508" lon="6.7288">
        <ele>363</ele>
        <time>2016-03-20T08:52:13.000Z</time>
      </trkpt>
      <trkpt lat="47.5051" lon="6.72878">
        <ele>363</ele>
        <time>2016-03-20T08:52:14.000Z</time>
      </trkpt>
      <trkpt lat="47.50512" lon="6.72876">
        <ele>363</ele>
        <time>2016-03-20T08:52:15.000Z</time>
      </trkpt>
      <trkpt lat="47.50514" lon="6.72873">
        <ele>363</ele>
        <time>2016-03-20T08:52:16.000Z</time>
      </trkpt>
      <trkpt lat="47.50516" lon="6.72871">
        <ele>363</ele>
        <time>2016-03-20T08:52:17.000Z</time>
      </trkpt>
      <trkpt lat="47.50519" lon="6.72869">
        <ele>363</ele>
        <time>2016-03-20T08:52:18.000Z</time>
      </trkpt>
      <trkpt lat="47.50521" lon="6.72867">
        <ele>363</ele>
        <time>2016-03-20T08:52:19.000Z</time>
      </trkpt>
      <trkpt lat="47.50523" lon="6.72865">
        <ele>363</ele>
        <time>2016-03-20T08:52:20.000Z</time>
      </trkpt>
      <trkpt lat="47.50526" lon="6.72863">
        <ele>364</ele>
        <time>2016-03-20T08:52:21.000Z</time>
      </trkpt>
      <trkpt lat="47.50528" lon="6.72861">
        <ele>364</ele>
        <time>2016-03-20T08:52:22.000Z</time>
      </trkpt>
      <trkpt lat="47.5053" lon="6.72859">
        <ele>364</ele>
        <time>2016-03-20T08:52:23.000Z</time>
      </trkpt>
      <trkpt lat="47.50533" lon="6.72857">
        <ele>364</ele>
        <time>2016-03-20T08:52:24.000Z</time>
      </trkpt>
      <trkpt lat="47.50535" lon="6.72855">
        <ele>364</ele>
        <time>2016-03-20T08:52:25.000Z</time>
      </trkpt>
      <trkpt lat="47.50537" lon="6.72854">
        <ele>365</ele>
        <time>2016-03-20T08:52:26.000Z</time>
      </trkpt>
      <trkpt lat="47.50541" lon="6.7285">
        <ele>365</ele>
        <time>2016-03-20T08:52:28.000Z</time>
      </trkpt>
      <trkpt lat="47.50542" lon="6.72849">
        <ele>365</ele>
        <time>2016-03-20T08:52:29.000Z</time>
      </trkpt>
      <trkpt lat="47.50545" lon="6.72846">
        <ele>365</ele>
        <time>2016-03-20T08:52:31.000Z</time>
      </trkpt>
      <trkpt lat="47.50547" lon="6.72845">
        <ele>366</ele>
        <time>2016-03-20T08:52:32.000Z</time>
      </trkpt>
      <trkpt lat="47.5055" lon="6.72843">
        <ele>366</ele>
        <time>2016-03-20T08:52:34.000Z</time>
      </trkpt>
      <trkpt lat="47.50552" lon="6.72842">
        <ele>366</ele>
        <time>2016-03-20T08:52:35.000Z</time>
      </trkpt>
      <trkpt lat="47.50555" lon="6.7284">
        <ele>367</ele>
        <time>2016-03-20T08:52:37.000Z</time>
      </trkpt>
      <trkpt lat="47.50556" lon="6.72839">
        <ele>367</ele>
        <time>2016-03-20T08:52:38.000Z</time>
      </trkpt>
      <trkpt lat="47.50559" lon="6.72836">
        <ele>367</ele>
        <time>2016-03-20T08:52:40.000Z</time>
      </trkpt>
      <trkpt lat="47.50561" lon="6.72835">
        <ele>367</ele>
        <time>2016-03-20T08:52:41.000Z</time>
      </trkpt>
      <trkpt lat="47.50563" lon="6.72832">
        <ele>366</ele>
        <time>2016-03-20T08:52:43.000Z</time>
      </trkpt>
      <trkpt lat="47.50564" lon="6.7283">
        <ele>367</ele>
        <time>2016-03-20T08:52:44.000Z</time>
      </trkpt>
      <trkpt lat="47.50568" lon="6.72826">
        <ele>367</ele>
        <time>2016-03-20T08:52:47.000Z</time>
      </trkpt>
      <trkpt lat="47.50569" lon="6.72825">
        <ele>367</ele>
        <time>2016-03-20T08:52:48.000Z</time>
      </trkpt>
      <trkpt lat="47.50572" lon="6.72823">
        <ele>367</ele>
        <time>2016-03-20T08:52:50.000Z</time>
      </trkpt>
      <trkpt lat="47.50574" lon="6.72822">
        <ele>367</ele>
        <time>2016-03-20T08:52:51.000Z</time>
      </trkpt>
      <trkpt lat="47.50577" lon="6.72821">
        <ele>368</ele>
        <time>2016-03-20T08:52:53.000Z</time>
      </trkpt>
      <trkpt lat="47.50578" lon="6.7282">
        <ele>368</ele>
        <time>2016-03-20T08:52:54.000Z</time>
      </trkpt>
      <trkpt lat="47.50582" lon="6.72818">
        <ele>368</ele>
        <time>2016-03-20T08:52:57.000Z</time>
      </trkpt>
      <trkpt lat="47.50583" lon="6.72818">
        <ele>368</ele>
        <time>2016-03-20T08:52:58.000Z</time>
      </trkpt>
      <trkpt lat="47.50587" lon="6.72818">
        <ele>375</ele>
        <time>2016-03-20T08:53:02.000Z</time>
      </trkpt>
      <trkpt lat="47.50588" lon="6.72818">
        <ele>375</ele>
        <time>2016-03-20T08:53:03.000Z</time>
      </trkpt>
      <trkpt lat="47.50592" lon="6.72817">
        <ele>375</ele>
        <time>2016-03-20T08:53:08.000Z</time>
      </trkpt>
      <trkpt lat="47.50593" lon="6.72817">
        <ele>375</ele>
        <time>2016-03-20T08:53:09.000Z</time>
      </trkpt>
      <trkpt lat="47.50596" lon="6.72815">
        <ele>376</ele>
        <time>2016-03-20T08:53:11.000Z</time>
      </trkpt>
      <trkpt lat="47.50598" lon="6.72814">
        <ele>376</ele>
        <time>2016-03-20T08:53:12.000Z</time>
      </trkpt>
      <trkpt lat="47.50602" lon="6.72811">
        <ele>377</ele>
        <time>2016-03-20T08:53:14.000Z</time>
      </trkpt>
      <trkpt lat="47.50604" lon="6.7281">
        <ele>377</ele>
        <time>2016-03-20T08:53:15.000Z</time>
      </trkpt>
      <trkpt lat="47.50607" lon="6.72809">
        <ele>378</ele>
        <time>2016-03-20T08:53:17.000Z</time>
      </trkpt>
      <trkpt lat="47.50609" lon="6.72808">
        <ele>378</ele>
        <time>2016-03-20T08:53:18.000Z</time>
      </trkpt>
      <trkpt lat="47.50613" lon="6.72805">
        <ele>378</ele>
        <time>2016-03-20T08:53:20.000Z</time>
      </trkpt>
      <trkpt lat="47.50615" lon="6.72804">
        <ele>379</ele>
        <time>2016-03-20T08:53:21.000Z</time>
      </trkpt>
      <trkpt lat="47.50619" lon="6.72802">
        <ele>379</ele>
        <time>2016-03-20T08:53:23.000Z</time>
      </trkpt>
      <trkpt lat="47.50621" lon="6.72801">
        <ele>379</ele>
        <time>2016-03-20T08:53:24.000Z</time>
      </trkpt>
      <trkpt lat="47.50625" lon="6.72798">
        <ele>380</ele>
        <time>2016-03-20T08:53:27.000Z</time>
      </trkpt>
      <trkpt lat="47.50626" lon="6.72797">
        <ele>380</ele>
        <time>2016-03-20T08:53:28.000Z</time>
      </trkpt>
      <trkpt lat="47.5063" lon="6.72794">
        <ele>380</ele>
        <time>2016-03-20T08:53:30.000Z</time>
      </trkpt>
      <trkpt lat="47.50632" lon="6.72793">
        <ele>381</ele>
        <time>2016-03-20T08:53:31.000Z</time>
      </trkpt>
      <trkpt lat="47.50636" lon="6.72791">
        <ele>381</ele>
        <time>2016-03-20T08:53:33.000Z</time>
      </trkpt>
      <trkpt lat="47.50638" lon="6.7279">
        <ele>381</ele>
        <time>2016-03-20T08:53:34.000Z</time>
      </trkpt>
      <trkpt lat="47.50641" lon="6.72787">
        <ele>381</ele>
        <time>2016-03-20T08:53:37.000Z</time>
      </trkpt>
      <trkpt lat="47.50642" lon="6.72786">
        <ele>382</ele>
        <time>2016-03-20T08:53:38.000Z</time>
      </trkpt>
      <trkpt lat="47.50644" lon="6.72784">
        <ele>382</ele>
        <time>2016-03-20T08:53:41.000Z</time>
      </trkpt>
      <trkpt lat="47.50646" lon="6.72782">
        <ele>382</ele>
        <time>2016-03-20T08:53:42.000Z</time>
      </trkpt>
      <trkpt lat="47.50648" lon="6.7278">
        <ele>382</ele>
        <time>2016-03-20T08:53:44.000Z</time>
      </trkpt>
      <trkpt lat="47.50649" lon="6.72778">
        <ele>382</ele>
        <time>2016-03-20T08:53:45.000Z</time>
      </trkpt>
      <trkpt lat="47.50652" lon="6.72775">
        <ele>383</ele>
        <time>2016-03-20T08:53:47.000Z</time>
      </trkpt>
      <trkpt lat="47.50653" lon="6.72774">
        <ele>383</ele>
        <time>2016-03-20T08:53:48.000Z</time>
      </trkpt>
      <trkpt lat="47.50656" lon="6.72772">
        <ele>383</ele>
        <time>2016-03-20T08:53:50.000Z</time>
      </trkpt>
      <trkpt lat="47.50658" lon="6.7277">
        <ele>384</ele>
        <time>2016-03-20T08:53:51.000Z</time>
      </trkpt>
      <trkpt lat="47.50661" lon="6.72768">
        <ele>384</ele>
        <time>2016-03-20T08:53:52.000Z</time>
      </trkpt>
      <trkpt lat="47.50663" lon="6.72767">
        <ele>384</ele>
        <time>2016-03-20T08:53:53.000Z</time>
      </trkpt>
      <trkpt lat="47.50665" lon="6.72765">
        <ele>385</ele>
        <time>2016-03-20T08:53:54.000Z</time>
      </trkpt>
      <trkpt lat="47.50667" lon="6.72763">
        <ele>392</ele>
        <time>2016-03-20T08:53:55.000Z</time>
      </trkpt>
      <trkpt lat="47.5067" lon="6.72762">
        <ele>391</ele>
        <time>2016-03-20T08:53:56.000Z</time>
      </trkpt>
      <trkpt lat="47.50672" lon="6.7276">
        <ele>391</ele>
        <time>2016-03-20T08:53:57.000Z</time>
      </trkpt>
      <trkpt lat="47.50675" lon="6.72756">
        <ele>391</ele>
        <time>2016-03-20T08:53:59.000Z</time>
      </trkpt>
      <trkpt lat="47.50677" lon="6.72752">
        <ele>391</ele>
        <time>2016-03-20T08:54:01.000Z</time>
      </trkpt>
      <trkpt lat="47.50679" lon="6.72748">
        <ele>390</ele>
        <time>2016-03-20T08:54:03.000Z</time>
      </trkpt>
      <trkpt lat="47.5068" lon="6.72746">
        <ele>390</ele>
        <time>2016-03-20T08:54:04.000Z</time>
      </trkpt>
      <trkpt lat="47.50683" lon="6.72741">
        <ele>390</ele>
        <time>2016-03-20T08:54:06.000Z</time>
      </trkpt>
      <trkpt lat="47.50684" lon="6.7274">
        <ele>391</ele>
        <time>2016-03-20T08:54:07.000Z</time>
      </trkpt>
      <trkpt lat="47.50687" lon="6.72736">
        <ele>391</ele>
        <time>2016-03-20T08:54:09.000Z</time>
      </trkpt>
      <trkpt lat="47.50689" lon="6.72734">
        <ele>391</ele>
        <time>2016-03-20T08:54:10.000Z</time>
      </trkpt>
      <trkpt lat="47.50691" lon="6.72732">
        <ele>391</ele>
        <time>2016-03-20T08:54:11.000Z</time>
      </trkpt>
      <trkpt lat="47.50693" lon="6.7273">
        <ele>391</ele>
        <time>2016-03-20T08:54:12.000Z</time>
      </trkpt>
      <trkpt lat="47.50695" lon="6.72727">
        <ele>392</ele>
        <time>2016-03-20T08:54:13.000Z</time>
      </trkpt>
      <trkpt lat="47.50698" lon="6.72725">
        <ele>392</ele>
        <time>2016-03-20T08:54:14.000Z</time>
      </trkpt>
      <trkpt lat="47.507" lon="6.72722">
        <ele>392</ele>
        <time>2016-03-20T08:54:15.000Z</time>
      </trkpt>
      <trkpt lat="47.50702" lon="6.7272">
        <ele>392</ele>
        <time>2016-03-20T08:54:16.000Z</time>
      </trkpt>
      <trkpt lat="47.50706" lon="6.72716">
        <ele>392</ele>
        <time>2016-03-20T08:54:18.000Z</time>
      </trkpt>
      <trkpt lat="47.50708" lon="6.72714">
        <ele>392</ele>
        <time>2016-03-20T08:54:19.000Z</time>
      </trkpt>
      <trkpt lat="47.50709" lon="6.72711">
        <ele>392</ele>
        <time>2016-03-20T08:54:20.000Z</time>
      </trkpt>
      <trkpt lat="47.50711" lon="6.72709">
        <ele>393</ele>
        <time>2016-03-20T08:54:21.000Z</time>
      </trkpt>
      <trkpt lat="47.50714" lon="6.72706">
        <ele>393</ele>
        <time>2016-03-20T08:54:22.000Z</time>
      </trkpt>
      <trkpt lat="47.50716" lon="6.72703">
        <ele>393</ele>
        <time>2016-03-20T08:54:23.000Z</time>
      </trkpt>
      <trkpt lat="47.50718" lon="6.72701">
        <ele>393</ele>
        <time>2016-03-20T08:54:24.000Z</time>
      </trkpt>
      <trkpt lat="47.5072" lon="6.72699">
        <ele>393</ele>
        <time>2016-03-20T08:54:25.000Z</time>
      </trkpt>
      <trkpt lat="47.50722" lon="6.72697">
        <ele>393</ele>
        <time>2016-03-20T08:54:26.000Z</time>
      </trkpt>
      <trkpt lat="47.50724" lon="6.72695">
        <ele>393</ele>
        <time>2016-03-20T08:54:27.000Z</time>
      </trkpt>
      <trkpt lat="47.50726" lon="6.72693">
        <ele>393</ele>
        <time>2016-03-20T08:54:28.000Z</time>
      </trkpt>
      <trkpt lat="47.50728" lon="6.72691">
        <ele>394</ele>
        <time>2016-03-20T08:54:29.000Z</time>
      </trkpt>
      <trkpt lat="47.5073" lon="6.72688">
        <ele>394</ele>
        <time>2016-03-20T08:54:30.000Z</time>
      </trkpt>
      <trkpt lat="47.50731" lon="6.72686">
        <ele>394</ele>
        <time>2016-03-20T08:54:31.000Z</time>
      </trkpt>
      <trkpt lat="47.50733" lon="6.72684">
        <ele>394</ele>
        <time>2016-03-20T08:54:32.000Z</time>
      </trkpt>
      <trkpt lat="47.50735" lon="6.72681">
        <ele>394</ele>
        <time>2016-03-20T08:54:33.000Z</time>
      </trkpt>
      <trkpt lat="47.50737" lon="6.72678">
        <ele>395</ele>
        <time>2016-03-20T08:54:34.000Z</time>
      </trkpt>
      <trkpt lat="47.5074" lon="6.72675">
        <ele>395</ele>
        <time>2016-03-20T08:54:35.000Z</time>
      </trkpt>
      <trkpt lat="47.50743" lon="6.72672">
        <ele>396</ele>
        <time>2016-03-20T08:54:36.000Z</time>
      </trkpt>
      <trkpt lat="47.50746" lon="6.72668">
        <ele>396</ele>
        <time>2016-03-20T08:54:37.000Z</time>
      </trkpt>
      <trkpt lat="47.50748" lon="6.72665">
        <ele>396</ele>
        <time>2016-03-20T08:54:38.000Z</time>
      </trkpt>
      <trkpt lat="47.50751" lon="6.72661">
        <ele>398</ele>
        <time>2016-03-20T08:54:39.000Z</time>
      </trkpt>
      <trkpt lat="47.50753" lon="6.72658">
        <ele>398</ele>
        <time>2016-03-20T08:54:40.000Z</time>
      </trkpt>
      <trkpt lat="47.50756" lon="6.72654">
        <ele>399</ele>
        <time>2016-03-20T08:54:41.000Z</time>
      </trkpt>
      <trkpt lat="47.50759" lon="6.72649">
        <ele>399</ele>
        <time>2016-03-20T08:54:42.000Z</time>
      </trkpt>
      <trkpt lat="47.50762" lon="6.72645">
        <ele>399</ele>
        <time>2016-03-20T08:54:43.000Z</time>
      </trkpt>
      <trkpt lat="47.50766" lon="6.7264">
        <ele>399</ele>
        <time>2016-03-20T08:54:44.000Z</time>
      </trkpt>
      <trkpt lat="47.50769" lon="6.72636">
        <ele>399</ele>
        <time>2016-03-20T08:54:45.000Z</time>
      </trkpt>
      <trkpt lat="47.50773" lon="6.72633">
        <ele>399</ele>
        <time>2016-03-20T08:54:46.000Z</time>
      </trkpt>
      <trkpt lat="47.50776" lon="6.72629">
        <ele>399</ele>
        <time>2016-03-20T08:54:47.000Z</time>
      </trkpt>
      <trkpt lat="47.5078" lon="6.72624">
        <ele>400</ele>
        <time>2016-03-20T08:54:48.000Z</time>
      </trkpt>
      <trkpt lat="47.50783" lon="6.7262">
        <ele>400</ele>
        <time>2016-03-20T08:54:49.000Z</time>
      </trkpt>
      <trkpt lat="47.50786" lon="6.72616">
        <ele>400</ele>
        <time>2016-03-20T08:54:50.000Z</time>
      </trkpt>
      <trkpt lat="47.5079" lon="6.72612">
        <ele>400</ele>
        <time>2016-03-20T08:54:51.000Z</time>
      </trkpt>
      <trkpt lat="47.50793" lon="6.72608">
        <ele>400</ele>
        <time>2016-03-20T08:54:52.000Z</time>
      </trkpt>
      <trkpt lat="47.50796" lon="6.72605">
        <ele>400</ele>
        <time>2016-03-20T08:54:53.000Z</time>
      </trkpt>
      <trkpt lat="47.50799" lon="6.72603">
        <ele>400</ele>
        <time>2016-03-20T08:54:54.000Z</time>
      </trkpt>
      <trkpt lat="47.50802" lon="6.726">
        <ele>400</ele>
        <time>2016-03-20T08:54:55.000Z</time>
      </trkpt>
      <trkpt lat="47.50805" lon="6.72596">
        <ele>400</ele>
        <time>2016-03-20T08:54:56.000Z</time>
      </trkpt>
      <trkpt lat="47.50808" lon="6.72593">
        <ele>401</ele>
        <time>2016-03-20T08:54:57.000Z</time>
      </trkpt>
      <trkpt lat="47.50812" lon="6.72589">
        <ele>401</ele>
        <time>2016-03-20T08:54:58.000Z</time>
      </trkpt>
      <trkpt lat="47.50815" lon="6.72586">
        <ele>401</ele>
        <time>2016-03-20T08:54:59.000Z</time>
      </trkpt>
      <trkpt lat="47.50817" lon="6.72583">
        <ele>396</ele>
        <time>2016-03-20T08:55:00.000Z</time>
      </trkpt>
      <trkpt lat="47.5082" lon="6.7258">
        <ele>397</ele>
        <time>2016-03-20T08:55:01.000Z</time>
      </trkpt>
      <trkpt lat="47.50823" lon="6.72577">
        <ele>397</ele>
        <time>2016-03-20T08:55:02.000Z</time>
      </trkpt>
      <trkpt lat="47.50827" lon="6.72574">
        <ele>398</ele>
        <time>2016-03-20T08:55:03.000Z</time>
      </trkpt>
      <trkpt lat="47.5083" lon="6.72572">
        <ele>397</ele>
        <time>2016-03-20T08:55:04.000Z</time>
      </trkpt>
      <trkpt lat="47.50833" lon="6.7257">
        <ele>397</ele>
        <time>2016-03-20T08:55:05.000Z</time>
      </trkpt>
      <trkpt lat="47.50835" lon="6.72568">
        <ele>403</ele>
        <time>2016-03-20T08:55:06.000Z</time>
      </trkpt>
      <trkpt lat="47.50838" lon="6.72567">
        <ele>403</ele>
        <time>2016-03-20T08:55:07.000Z</time>
      </trkpt>
      <trkpt lat="47.5084" lon="6.72565">
        <ele>403</ele>
        <time>2016-03-20T08:55:08.000Z</time>
      </trkpt>
      <trkpt lat="47.50844" lon="6.72564">
        <ele>403</ele>
        <time>2016-03-20T08:55:10.000Z</time>
      </trkpt>
      <trkpt lat="47.50845" lon="6.72564">
        <ele>403</ele>
        <time>2016-03-20T08:55:11.000Z</time>
      </trkpt>
      <trkpt lat="47.50849" lon="6.72562">
        <ele>403</ele>
        <time>2016-03-20T08:55:13.000Z</time>
      </trkpt>
      <trkpt lat="47.5085" lon="6.72561">
        <ele>403</ele>
        <time>2016-03-20T08:55:14.000Z</time>
      </trkpt>
      <trkpt lat="47.50854" lon="6.72562">
        <ele>404</ele>
        <time>2016-03-20T08:55:16.000Z</time>
      </trkpt>
      <trkpt lat="47.50855" lon="6.72562">
        <ele>404</ele>
        <time>2016-03-20T08:55:17.000Z</time>
      </trkpt>
      <trkpt lat="47.50859" lon="6.72562">
        <ele>404</ele>
        <time>2016-03-20T08:55:19.000Z</time>
      </trkpt>
      <trkpt lat="47.5086" lon="6.72562">
        <ele>404</ele>
        <time>2016-03-20T08:55:20.000Z</time>
      </trkpt>
      <trkpt lat="47.50863" lon="6.72559">
        <ele>404</ele>
        <time>2016-03-20T08:55:22.000Z</time>
      </trkpt>
      <trkpt lat="47.50864" lon="6.72558">
        <ele>404</ele>
        <time>2016-03-20T08:55:23.000Z</time>
      </trkpt>
      <trkpt lat="47.50867" lon="6.72555">
        <ele>405</ele>
        <time>2016-03-20T08:55:25.000Z</time>
      </trkpt>
      <trkpt lat="47.50869" lon="6.72554">
        <ele>405</ele>
        <time>2016-03-20T08:55:26.000Z</time>
      </trkpt>
      <trkpt lat="47.50872" lon="6.72551">
        <ele>405</ele>
        <time>2016-03-20T08:55:28.000Z</time>
      </trkpt>
      <trkpt lat="47.50874" lon="6.72549">
        <ele>405</ele>
        <time>2016-03-20T08:55:29.000Z</time>
      </trkpt>
      <trkpt lat="47.50877" lon="6.72545">
        <ele>405</ele>
        <time>2016-03-20T08:55:31.000Z</time>
      </trkpt>
      <trkpt lat="47.50878" lon="6.72544">
        <ele>405</ele>
        <time>2016-03-20T08:55:32.000Z</time>
      </trkpt>
      <trkpt lat="47.50882" lon="6.72543">
        <ele>405</ele>
        <time>2016-03-20T08:55:34.000Z</time>
      </trkpt>
      <trkpt lat="47.50884" lon="6.72543">
        <ele>406</ele>
        <time>2016-03-20T08:55:35.000Z</time>
      </trkpt>
      <trkpt lat="47.50888" lon="6.72542">
        <ele>406</ele>
        <time>2016-03-20T08:55:37.000Z</time>
      </trkpt>
      <trkpt lat="47.5089" lon="6.72542">
        <ele>406</ele>
        <time>2016-03-20T08:55:38.000Z</time>
      </trkpt>
      <trkpt lat="47.50894" lon="6.72539">
        <ele>406</ele>
        <time>2016-03-20T08:55:41.000Z</time>
      </trkpt>
      <trkpt lat="47.50895" lon="6.72539">
        <ele>406</ele>
        <time>2016-03-20T08:55:42.000Z</time>
      </trkpt>
      <trkpt lat="47.50899" lon="6.72541">
        <ele>407</ele>
        <time>2016-03-20T08:55:45.000Z</time>
      </trkpt>
      <trkpt lat="47.50901" lon="6.72541">
        <ele>407</ele>
        <time>2016-03-20T08:55:46.000Z</time>
      </trkpt>
      <trkpt lat="47.50904" lon="6.72541">
        <ele>407</ele>
        <time>2016-03-20T08:55:48.000Z</time>
      </trkpt>
      <trkpt lat="47.50906" lon="6.72541">
        <ele>407</ele>
        <time>2016-03-20T08:55:49.000Z</time>
      </trkpt>
      <trkpt lat="47.5091" lon="6.72542">
        <ele>407</ele>
        <time>2016-03-20T08:55:51.000Z</time>
      </trkpt>
      <trkpt lat="47.50911" lon="6.72542">
        <ele>408</ele>
        <time>2016-03-20T08:55:52.000Z</time>
      </trkpt>
      <trkpt lat="47.50915" lon="6.72542">
        <ele>408</ele>
        <time>2016-03-20T08:55:55.000Z</time>
      </trkpt>
      <trkpt lat="47.50917" lon="6.72541">
        <ele>415</ele>
        <time>2016-03-20T08:55:56.000Z</time>
      </trkpt>
      <trkpt lat="47.5092" lon="6.7254">
        <ele>415</ele>
        <time>2016-03-20T08:55:58.000Z</time>
      </trkpt>
      <trkpt lat="47.50922" lon="6.7254">
        <ele>415</ele>
        <time>2016-03-20T08:55:59.000Z</time>
      </trkpt>
      <trkpt lat="47.50926" lon="6.72541">
        <ele>416</ele>
        <time>2016-03-20T08:56:01.000Z</time>
      </trkpt>
      <trkpt lat="47.50928" lon="6.72542">
        <ele>416</ele>
        <time>2016-03-20T08:56:02.000Z</time>
      </trkpt>
      <trkpt lat="47.50931" lon="6.72542">
        <ele>416</ele>
        <time>2016-03-20T08:56:04.000Z</time>
      </trkpt>
      <trkpt lat="47.50933" lon="6.72541">
        <ele>416</ele>
        <time>2016-03-20T08:56:05.000Z</time>
      </trkpt>
      <trkpt lat="47.50937" lon="6.72539">
        <ele>416</ele>
        <time>2016-03-20T08:56:07.000Z</time>
      </trkpt>
      <trkpt lat="47.50939" lon="6.72537">
        <ele>416</ele>
        <time>2016-03-20T08:56:08.000Z</time>
      </trkpt>
      <trkpt lat="47.50942" lon="6.72535">
        <ele>416</ele>
        <time>2016-03-20T08:56:10.000Z</time>
      </trkpt>
      <trkpt lat="47.50944" lon="6.72534">
        <ele>416</ele>
        <time>2016-03-20T08:56:11.000Z</time>
      </trkpt>
      <trkpt lat="47.50947" lon="6.72533">
        <ele>416</ele>
        <time>2016-03-20T08:56:13.000Z</time>
      </trkpt>
      <trkpt lat="47.50949" lon="6.72533">
        <ele>416</ele>
        <time>2016-03-20T08:56:14.000Z</time>
      </trkpt>
      <trkpt lat="47.50953" lon="6.72531">
        <ele>416</ele>
        <time>2016-03-20T08:56:16.000Z</time>
      </trkpt>
      <trkpt lat="47.50955" lon="6.72531">
        <ele>416</ele>
        <time>2016-03-20T08:56:17.000Z</time>
      </trkpt>
      <trkpt lat="47.50959" lon="6.72531">
        <ele>416</ele>
        <time>2016-03-20T08:56:19.000Z</time>
      </trkpt>
      <trkpt lat="47.5096" lon="6.72532">
        <ele>416</ele>
        <time>2016-03-20T08:56:20.000Z</time>
      </trkpt>
      <trkpt lat="47.50964" lon="6.72535">
        <ele>417</ele>
        <time>2016-03-20T08:56:22.000Z</time>
      </trkpt>
      <trkpt lat="47.50967" lon="6.72535">
        <ele>417</ele>
        <time>2016-03-20T08:56:23.000Z</time>
      </trkpt>
      <trkpt lat="47.50969" lon="6.72535">
        <ele>417</ele>
        <time>2016-03-20T08:56:24.000Z</time>
      </trkpt>
      <trkpt lat="47.50971" lon="6.72536">
        <ele>417</ele>
        <time>2016-03-20T08:56:25.000Z</time>
      </trkpt>
      <trkpt lat="47.50975" lon="6.72538">
        <ele>418</ele>
        <time>2016-03-20T08:56:27.000Z</time>
      </trkpt>
      <trkpt lat="47.50977" lon="6.7254">
        <ele>418</ele>
        <time>2016-03-20T08:56:28.000Z</time>
      </trkpt>
      <trkpt lat="47.5098" lon="6.7254">
        <ele>418</ele>
        <time>2016-03-20T08:56:30.000Z</time>
      </trkpt>
      <trkpt lat="47.50981" lon="6.7254">
        <ele>418</ele>
        <time>2016-03-20T08:56:31.000Z</time>
      </trkpt>
      <trkpt lat="47.50985" lon="6.72537">
        <ele>418</ele>
        <time>2016-03-20T08:56:33.000Z</time>
      </trkpt>
      <trkpt lat="47.50988" lon="6.72535">
        <ele>418</ele>
        <time>2016-03-20T08:56:34.000Z</time>
      </trkpt>
      <trkpt lat="47.5099" lon="6.72533">
        <ele>418</ele>
        <time>2016-03-20T08:56:35.000Z</time>
      </trkpt>
      <trkpt lat="47.50992" lon="6.72531">
        <ele>418</ele>
        <time>2016-03-20T08:56:36.000Z</time>
      </trkpt>
      <trkpt lat="47.50995" lon="6.72529">
        <ele>418</ele>
        <time>2016-03-20T08:56:37.000Z</time>
      </trkpt>
      <trkpt lat="47.50997" lon="6.72528">
        <ele>418</ele>
        <time>2016-03-20T08:56:38.000Z</time>
      </trkpt>
      <trkpt lat="47.51001" lon="6.72527">
        <ele>423</ele>
        <time>2016-03-20T08:56:40.000Z</time>
      </trkpt>
      <trkpt lat="47.51004" lon="6.72527">
        <ele>423</ele>
        <time>2016-03-20T08:56:41.000Z</time>
      </trkpt>
      <trkpt lat="47.51008" lon="6.72526">
        <ele>423</ele>
        <time>2016-03-20T08:56:43.000Z</time>
      </trkpt>
      <trkpt lat="47.5101" lon="6.72525">
        <ele>423</ele>
        <time>2016-03-20T08:56:44.000Z</time>
      </trkpt>
      <trkpt lat="47.51013" lon="6.72524">
        <ele>423</ele>
        <time>2016-03-20T08:56:46.000Z</time>
      </trkpt>
      <trkpt lat="47.51014" lon="6.72525">
        <ele>423</ele>
        <time>2016-03-20T08:56:47.000Z</time>
      </trkpt>
      <trkpt lat="47.51018" lon="6.72526">
        <ele>423</ele>
        <time>2016-03-20T08:56:49.000Z</time>
      </trkpt>
      <trkpt lat="47.51019" lon="6.72526">
        <ele>423</ele>
        <time>2016-03-20T08:56:50.000Z</time>
      </trkpt>
      <trkpt lat="47.51022" lon="6.72526">
        <ele>424</ele>
        <time>2016-03-20T08:56:52.000Z</time>
      </trkpt>
      <trkpt lat="47.51025" lon="6.72526">
        <ele>424</ele>
        <time>2016-03-20T08:56:53.000Z</time>
      </trkpt>
      <trkpt lat="47.51027" lon="6.72527">
        <ele>424</ele>
        <time>2016-03-20T08:56:54.000Z</time>
      </trkpt>
      <trkpt lat="47.51029" lon="6.72528">
        <ele>424</ele>
        <time>2016-03-20T08:56:55.000Z</time>
      </trkpt>
      <trkpt lat="47.51033" lon="6.7253">
        <ele>425</ele>
        <time>2016-03-20T08:56:57.000Z</time>
      </trkpt>
      <trkpt lat="47.51034" lon="6.72531">
        <ele>425</ele>
        <time>2016-03-20T08:56:58.000Z</time>
      </trkpt>
      <trkpt lat="47.51037" lon="6.72534">
        <ele>425</ele>
        <time>2016-03-20T08:57:00.000Z</time>
      </trkpt>
      <trkpt lat="47.51039" lon="6.72535">
        <ele>425</ele>
        <time>2016-03-20T08:57:01.000Z</time>
      </trkpt>
      <trkpt lat="47.51042" lon="6.72537">
        <ele>425</ele>
        <time>2016-03-20T08:57:03.000Z</time>
      </trkpt>
      <trkpt lat="47.51043" lon="6.72539">
        <ele>426</ele>
        <time>2016-03-20T08:57:04.000Z</time>
      </trkpt>
      <trkpt lat="47.51046" lon="6.72541">
        <ele>426</ele>
        <time>2016-03-20T08:57:06.000Z</time>
      </trkpt>
      <trkpt lat="47.51048" lon="6.72543">
        <ele>426</ele>
        <time>2016-03-20T08:57:07.000Z</time>
      </trkpt>
      <trkpt lat="47.51051" lon="6.72545">
        <ele>426</ele>
        <time>2016-03-20T08:57:10.000Z</time>
      </trkpt>
      <trkpt lat="47.51052" lon="6.72547">
        <ele>426</ele>
        <time>2016-03-20T08:57:11.000Z</time>
      </trkpt>
      <trkpt lat="47.51055" lon="6.72549">
        <ele>426</ele>
        <time>2016-03-20T08:57:13.000Z</time>
      </trkpt>
      <trkpt lat="47.51057" lon="6.72551">
        <ele>426</ele>
        <time>2016-03-20T08:57:14.000Z</time>
      </trkpt>
      <trkpt lat="47.5106" lon="6.72553">
        <ele>427</ele>
        <time>2016-03-20T08:57:16.000Z</time>
      </trkpt>
      <trkpt lat="47.51061" lon="6.72554">
        <ele>427</ele>
        <time>2016-03-20T08:57:16.999Z</time>
      </trkpt>
      <trkpt lat="47.51064" lon="6.72555">
        <ele>427</ele>
        <time>2016-03-20T08:57:19.000Z</time>
      </trkpt>
      <trkpt lat="47.51066" lon="6.72555">
        <ele>427</ele>
        <time>2016-03-20T08:57:20.000Z</time>
      </trkpt>
      <trkpt lat="47.51069" lon="6.72556">
        <ele>427</ele>
        <time>2016-03-20T08:57:22.000Z</time>
      </trkpt>
      <trkpt lat="47.51072" lon="6.72556">
        <ele>427</ele>
        <time>2016-03-20T08:57:23.000Z</time>
      </trkpt>
      <trkpt lat="47.51076" lon="6.72556">
        <ele>427</ele>
        <time>2016-03-20T08:57:25.000Z</time>
      </trkpt>
      <trkpt lat="47.51077" lon="6.72557">
        <ele>427</ele>
        <time>2016-03-20T08:57:26.000Z</time>
      </trkpt>
      <trkpt lat="47.5108" lon="6.72559">
        <ele>427</ele>
        <time>2016-03-20T08:57:28.000Z</time>
      </trkpt>
      <trkpt lat="47.51082" lon="6.7256">
        <ele>427</ele>
        <time>2016-03-20T08:57:29.000Z</time>
      </trkpt>
      <trkpt lat="47.51085" lon="6.7256">
        <ele>430</ele>
        <time>2016-03-20T08:57:31.000Z</time>
      </trkpt>
      <trkpt lat="47.51086" lon="6.7256">
        <ele>430</ele>
        <time>2016-03-20T08:57:32.000Z</time>
      </trkpt>
      <trkpt lat="47.5109" lon="6.72561">
        <ele>430</ele>
        <time>2016-03-20T08:57:34.000Z</time>
      </trkpt>
      <trkpt lat="47.51091" lon="6.72562">
        <ele>430</ele>
        <time>2016-03-20T08:57:35.000Z</time>
      </trkpt>
      <trkpt lat="47.51095" lon="6.72562">
        <ele>430</ele>
        <time>2016-03-20T08:57:37.000Z</time>
      </trkpt>
      <trkpt lat="47.51097" lon="6.72563">
        <ele>430</ele>
        <time>2016-03-20T08:57:38.000Z</time>
      </trkpt>
      <trkpt lat="47.511" lon="6.72565">
        <ele>430</ele>
        <time>2016-03-20T08:57:40.000Z</time>
      </trkpt>
      <trkpt lat="47.51101" lon="6.72566">
        <ele>430</ele>
        <time>2016-03-20T08:57:41.000Z</time>
      </trkpt>
      <trkpt lat="47.51104" lon="6.72568">
        <ele>430</ele>
        <time>2016-03-20T08:57:43.000Z</time>
      </trkpt>
      <trkpt lat="47.51105" lon="6.72569">
        <ele>430</ele>
        <time>2016-03-20T08:57:44.000Z</time>
      </trkpt>
      <trkpt lat="47.51109" lon="6.72571">
        <ele>430</ele>
        <time>2016-03-20T08:57:47.000Z</time>
      </trkpt>
      <trkpt lat="47.5111" lon="6.72572">
        <ele>430</ele>
        <time>2016-03-20T08:57:48.000Z</time>
      </trkpt>
      <trkpt lat="47.51114" lon="6.72573">
        <ele>430</ele>
        <time>2016-03-20T08:57:51.000Z</time>
      </trkpt>
      <trkpt lat="47.51115" lon="6.72573">
        <ele>430</ele>
        <time>2016-03-20T08:57:52.000Z</time>
      </trkpt>
      <trkpt lat="47.51119" lon="6.72574">
        <ele>430</ele>
        <time>2016-03-20T08:57:55.000Z</time>
      </trkpt>
      <trkpt lat="47.51121" lon="6.72574">
        <ele>430</ele>
        <time>2016-03-20T08:57:56.000Z</time>
      </trkpt>
      <trkpt lat="47.51125" lon="6.72574">
        <ele>430</ele>
        <time>2016-03-20T08:57:59.000Z</time>
      </trkpt>
      <trkpt lat="47.51126" lon="6.72574">
        <ele>430</ele>
        <time>2016-03-20T08:58:00.000Z</time>
      </trkpt>
      <trkpt lat="47.5113" lon="6.72574">
        <ele>430</ele>
        <time>2016-03-20T08:58:04.000Z</time>
      </trkpt>
      <trkpt lat="47.51132" lon="6.72574">
        <ele>430</ele>
        <time>2016-03-20T08:58:05.000Z</time>
      </trkpt>
      <trkpt lat="47.51136" lon="6.72572">
        <ele>430</ele>
        <time>2016-03-20T08:58:09.000Z</time>
      </trkpt>
      <trkpt lat="47.51137" lon="6.72571">
        <ele>430</ele>
        <time>2016-03-20T08:58:10.000Z</time>
      </trkpt>
      <trkpt lat="47.51141" lon="6.72569">
        <ele>430</ele>
        <time>2016-03-20T08:59:02.000Z</time>
      </trkpt>
      <trkpt lat="47.51142" lon="6.72568">
        <ele>430</ele>
        <time>2016-03-20T08:59:03.000Z</time>
      </trkpt>
      <trkpt lat="47.51146" lon="6.72568">
        <ele>430</ele>
        <time>2016-03-20T08:59:40.000Z</time>
      </trkpt>
      <trkpt lat="47.51147" lon="6.72568">
        <ele>430</ele>
        <time>2016-03-20T08:59:41.000Z</time>
      </trkpt>
      <trkpt lat="47.5115" lon="6.72569">
        <ele>430</ele>
        <time>2016-03-20T08:59:45.000Z</time>
      </trkpt>
      <trkpt lat="47.51152" lon="6.7257">
        <ele>429</ele>
        <time>2016-03-20T08:59:46.000Z</time>
      </trkpt>
      <trkpt lat="47.51155" lon="6.72572">
        <ele>429</ele>
        <time>2016-03-20T08:59:48.000Z</time>
      </trkpt>
      <trkpt lat="47.51156" lon="6.72573">
        <ele>429</ele>
        <time>2016-03-20T08:59:49.000Z</time>
      </trkpt>
      <trkpt lat="47.51158" lon="6.72575">
        <ele>429</ele>
        <time>2016-03-20T08:59:50.000Z</time>
      </trkpt>
      <trkpt lat="47.5116" lon="6.72576">
        <ele>429</ele>
        <time>2016-03-20T08:59:51.000Z</time>
      </trkpt>
      <trkpt lat="47.51162" lon="6.72578">
        <ele>429</ele>
        <time>2016-03-20T08:59:52.000Z</time>
      </trkpt>
      <trkpt lat="47.51164" lon="6.7258">
        <ele>428</ele>
        <time>2016-03-20T08:59:53.000Z</time>
      </trkpt>
      <trkpt lat="47.51166" lon="6.72582">
        <ele>428</ele>
        <time>2016-03-20T08:59:54.000Z</time>
      </trkpt>
      <trkpt lat="47.51168" lon="6.72584">
        <ele>428</ele>
        <time>2016-03-20T08:59:55.000Z</time>
      </trkpt>
      <trkpt lat="47.51171" lon="6.72586">
        <ele>427</ele>
        <time>2016-03-20T08:59:56.000Z</time>
      </trkpt>
      <trkpt lat="47.51173" lon="6.72588">
        <ele>427</ele>
        <time>2016-03-20T08:59:57.000Z</time>
      </trkpt>
      <trkpt lat="47.51175" lon="6.72589">
        <ele>427</ele>
        <time>2016-03-20T08:59:58.000Z</time>
      </trkpt>
      <trkpt lat="47.51177" lon="6.7259">
        <ele>426</ele>
        <time>2016-03-20T08:59:59.000Z</time>
      </trkpt>
      <trkpt lat="47.51181" lon="6.72592">
        <ele>426</ele>
        <time>2016-03-20T09:00:01.000Z</time>
      </trkpt>
      <trkpt lat="47.51183" lon="6.72592">
        <ele>426</ele>
        <time>2016-03-20T09:00:02.000Z</time>
      </trkpt>
      <trkpt lat="47.51186" lon="6.72593">
        <ele>425</ele>
        <time>2016-03-20T09:00:03.000Z</time>
      </trkpt>
      <trkpt lat="47.51189" lon="6.72594">
        <ele>425</ele>
        <time>2016-03-20T09:00:04.000Z</time>
      </trkpt>
      <trkpt lat="47.51192" lon="6.72596">
        <ele>425</ele>
        <time>2016-03-20T09:00:05.000Z</time>
      </trkpt>
      <trkpt lat="47.51195" lon="6.72598">
        <ele>425</ele>
        <time>2016-03-20T09:00:06.000Z</time>
      </trkpt>
      <trkpt lat="47.512" lon="6.72599">
        <ele>425</ele>
        <time>2016-03-20T09:00:07.000Z</time>
      </trkpt>
      <trkpt lat="47.51204" lon="6.72599">
        <ele>425</ele>
        <time>2016-03-20T09:00:08.000Z</time>
      </trkpt>
      <trkpt lat="47.51208" lon="6.726">
        <ele>424</ele>
        <time>2016-03-20T09:00:09.000Z</time>
      </trkpt>
      <trkpt lat="47.51212" lon="6.726">
        <ele>424</ele>
        <time>2016-03-20T09:00:10.000Z</time>
      </trkpt>
      <trkpt lat="47.51216" lon="6.726">
        <ele>424</ele>
        <time>2016-03-20T09:00:11.000Z</time>
      </trkpt>
      <trkpt lat="47.51219" lon="6.726">
        <ele>424</ele>
        <time>2016-03-20T09:00:12.000Z</time>
      </trkpt>
      <trkpt lat="47.51222" lon="6.72599">
        <ele>424</ele>
        <time>2016-03-20T09:00:13.000Z</time>
      </trkpt>
      <trkpt lat="47.51226" lon="6.72599">
        <ele>424</ele>
        <time>2016-03-20T09:00:14.000Z</time>
      </trkpt>
      <trkpt lat="47.5123" lon="6.72598">
        <ele>424</ele>
        <time>2016-03-20T09:00:15.000Z</time>
      </trkpt>
      <trkpt lat="47.51234" lon="6.72598">
        <ele>425</ele>
        <time>2016-03-20T09:00:16.000Z</time>
      </trkpt>
      <trkpt lat="47.51238" lon="6.72599">
        <ele>425</ele>
        <time>2016-03-20T09:00:17.000Z</time>
      </trkpt>
      <trkpt lat="47.51243" lon="6.72601">
        <ele>425</ele>
        <time>2016-03-20T09:00:18.000Z</time>
      </trkpt>
      <trkpt lat="47.51248" lon="6.72603">
        <ele>425</ele>
        <time>2016-03-20T09:00:19.000Z</time>
      </trkpt>
      <trkpt lat="47.51252" lon="6.72605">
        <ele>424</ele>
        <time>2016-03-20T09:00:20.000Z</time>
      </trkpt>
      <trkpt lat="47.51256" lon="6.72607">
        <ele>424</ele>
        <time>2016-03-20T09:00:21.000Z</time>
      </trkpt>
      <trkpt lat="47.5126" lon="6.72609">
        <ele>424</ele>
        <time>2016-03-20T09:00:22.000Z</time>
      </trkpt>
      <trkpt lat="47.51263" lon="6.72611">
        <ele>424</ele>
        <time>2016-03-20T09:00:23.000Z</time>
      </trkpt>
      <trkpt lat="47.51266" lon="6.72613">
        <ele>423</ele>
        <time>2016-03-20T09:00:24.000Z</time>
      </trkpt>
      <trkpt lat="47.5127" lon="6.72614">
        <ele>423</ele>
        <time>2016-03-20T09:00:25.000Z</time>
      </trkpt>
      <trkpt lat="47.51273" lon="6.72615">
        <ele>423</ele>
        <time>2016-03-20T09:00:26.000Z</time>
      </trkpt>
      <trkpt lat="47.51277" lon="6.72616">
        <ele>423</ele>
        <time>2016-03-20T09:00:27.000Z</time>
      </trkpt>
      <trkpt lat="47.51281" lon="6.72615">
        <ele>423</ele>
        <time>2016-03-20T09:00:28.000Z</time>
      </trkpt>
      <trkpt lat="47.51285" lon="6.72615">
        <ele>423</ele>
        <time>2016-03-20T09:00:29.000Z</time>
      </trkpt>
      <trkpt lat="47.51289" lon="6.72615">
        <ele>423</ele>
        <time>2016-03-20T09:00:30.000Z</time>
      </trkpt>
      <trkpt lat="47.51293" lon="6.72616">
        <ele>423</ele>
        <time>2016-03-20T09:00:31.000Z</time>
      </trkpt>
      <trkpt lat="47.51296" lon="6.72618">
        <ele>423</ele>
        <time>2016-03-20T09:00:32.000Z</time>
      </trkpt>
      <trkpt lat="47.51299" lon="6.7262">
        <ele>423</ele>
        <time>2016-03-20T09:00:33.000Z</time>
      </trkpt>
      <trkpt lat="47.51302" lon="6.72623">
        <ele>423</ele>
        <time>2016-03-20T09:00:34.000Z</time>
      </trkpt>
      <trkpt lat="47.51305" lon="6.72625">
        <ele>423</ele>
        <time>2016-03-20T09:00:35.000Z</time>
      </trkpt>
      <trkpt lat="47.51308" lon="6.72628">
        <ele>423</ele>
        <time>2016-03-20T09:00:36.000Z</time>
      </trkpt>
      <trkpt lat="47.51311" lon="6.7263">
        <ele>423</ele>
        <time>2016-03-20T09:00:37.000Z</time>
      </trkpt>
      <trkpt lat="47.51313" lon="6.72632">
        <ele>423</ele>
        <time>2016-03-20T09:00:38.000Z</time>
      </trkpt>
      <trkpt lat="47.51316" lon="6.72633">
        <ele>423</ele>
        <time>2016-03-20T09:00:39.000Z</time>
      </trkpt>
      <trkpt lat="47.51318" lon="6.72635">
        <ele>423</ele>
        <time>2016-03-20T09:00:40.000Z</time>
      </trkpt>
      <trkpt lat="47.5132" lon="6.72636">
        <ele>423</ele>
        <time>2016-03-20T09:00:41.000Z</time>
      </trkpt>
      <trkpt lat="47.51322" lon="6.72637">
        <ele>423</ele>
        <time>2016-03-20T09:00:42.000Z</time>
      </trkpt>
      <trkpt lat="47.51325" lon="6.72637">
        <ele>423</ele>
        <time>2016-03-20T09:00:43.000Z</time>
      </trkpt>
      <trkpt lat="47.51327" lon="6.72636">
        <ele>423</ele>
        <time>2016-03-20T09:00:44.000Z</time>
      </trkpt>
      <trkpt lat="47.51331" lon="6.72635">
        <ele>423</ele>
        <time>2016-03-20T09:00:46.000Z</time>
      </trkpt>
      <trkpt lat="47.51333" lon="6.72635">
        <ele>423</ele>
        <time>2016-03-20T09:00:47.000Z</time>
      </trkpt>
      <trkpt lat="47.51335" lon="6.72635">
        <ele>425</ele>
        <time>2016-03-20T09:00:48.000Z</time>
      </trkpt>
      <trkpt lat="47.51338" lon="6.72635">
        <ele>425</ele>
        <time>2016-03-20T09:00:49.000Z</time>
      </trkpt>
      <trkpt lat="47.51341" lon="6.72636">
        <ele>425</ele>
        <time>2016-03-20T09:00:50.000Z</time>
      </trkpt>
      <trkpt lat="47.51343" lon="6.72636">
        <ele>426</ele>
        <time>2016-03-20T09:00:51.000Z</time>
      </trkpt>
      <trkpt lat="47.51346" lon="6.72637">
        <ele>426</ele>
        <time>2016-03-20T09:00:52.000Z</time>
      </trkpt>
      <trkpt lat="47.51349" lon="6.72637">
        <ele>426</ele>
        <time>2016-03-20T09:00:53.000Z</time>
      </trkpt>
      <trkpt lat="47.51352" lon="6.72637">
        <ele>426</ele>
        <time>2016-03-20T09:00:54.000Z</time>
      </trkpt>
      <trkpt lat="47.51354" lon="6.72637">
        <ele>426</ele>
        <time>2016-03-20T09:00:55.000Z</time>
      </trkpt>
      <trkpt lat="47.51357" lon="6.72633">
        <ele>426</ele>
        <time>2016-03-20T09:00:57.000Z</time>
      </trkpt>
      <trkpt lat="47.51359" lon="6.7263">
        <ele>426</ele>
        <time>2016-03-20T09:00:58.000Z</time>
      </trkpt>
      <trkpt lat="47.5136" lon="6.72626">
        <ele>426</ele>
        <time>2016-03-20T09:00:59.000Z</time>
      </trkpt>
      <trkpt lat="47.51361" lon="6.72621">
        <ele>426</ele>
        <time>2016-03-20T09:01:00.000Z</time>
      </trkpt>
      <trkpt lat="47.51362" lon="6.72616">
        <ele>426</ele>
        <time>2016-03-20T09:01:01.000Z</time>
      </trkpt>
      <trkpt lat="47.51362" lon="6.72611">
        <ele>426</ele>
        <time>2016-03-20T09:01:02.000Z</time>
      </trkpt>
      <trkpt lat="47.51363" lon="6.72606">
        <ele>426</ele>
        <time>2016-03-20T09:01:03.000Z</time>
      </trkpt>
      <trkpt lat="47.51364" lon="6.72601">
        <ele>426</ele>
        <time>2016-03-20T09:01:04.000Z</time>
      </trkpt>
      <trkpt lat="47.51365" lon="6.72596">
        <ele>426</ele>
        <time>2016-03-20T09:01:05.000Z</time>
      </trkpt>
      <trkpt lat="47.51367" lon="6.72591">
        <ele>426</ele>
        <time>2016-03-20T09:01:06.000Z</time>
      </trkpt>
      <trkpt lat="47.51368" lon="6.72585">
        <ele>426</ele>
        <time>2016-03-20T09:01:07.000Z</time>
      </trkpt>
      <trkpt lat="47.5137" lon="6.7258">
        <ele>426</ele>
        <time>2016-03-20T09:01:08.000Z</time>
      </trkpt>
      <trkpt lat="47.51371" lon="6.72574">
        <ele>426</ele>
        <time>2016-03-20T09:01:09.000Z</time>
      </trkpt>
      <trkpt lat="47.51372" lon="6.72569">
        <ele>426</ele>
        <time>2016-03-20T09:01:10.000Z</time>
      </trkpt>
      <trkpt lat="47.51373" lon="6.72564">
        <ele>426</ele>
        <time>2016-03-20T09:01:11.000Z</time>
      </trkpt>
      <trkpt lat="47.51373" lon="6.72559">
        <ele>426</ele>
        <time>2016-03-20T09:01:12.000Z</time>
      </trkpt>
      <trkpt lat="47.51374" lon="6.72555">
        <ele>426</ele>
        <time>2016-03-20T09:01:13.000Z</time>
      </trkpt>
      <trkpt lat="47.51376" lon="6.7255">
        <ele>427</ele>
        <time>2016-03-20T09:01:14.000Z</time>
      </trkpt>
      <trkpt lat="47.51377" lon="6.72546">
        <ele>427</ele>
        <time>2016-03-20T09:01:15.000Z</time>
      </trkpt>
      <trkpt lat="47.51378" lon="6.72542">
        <ele>427</ele>
        <time>2016-03-20T09:01:16.000Z</time>
      </trkpt>
      <trkpt lat="47.51379" lon="6.72537">
        <ele>427</ele>
        <time>2016-03-20T09:01:17.000Z</time>
      </trkpt>
      <trkpt lat="47.5138" lon="6.72533">
        <ele>427</ele>
        <time>2016-03-20T09:01:18.000Z</time>
      </trkpt>
      <trkpt lat="47.5138" lon="6.72529">
        <ele>427</ele>
        <time>2016-03-20T09:01:19.000Z</time>
      </trkpt>
      <trkpt lat="47.51381" lon="6.72525">
        <ele>427</ele>
        <time>2016-03-20T09:01:20.000Z</time>
      </trkpt>
      <trkpt lat="47.51381" lon="6.7252">
        <ele>427</ele>
        <time>2016-03-20T09:01:21.000Z</time>
      </trkpt>
      <trkpt lat="47.51382" lon="6.72515">
        <ele>427</ele>
        <time>2016-03-20T09:01:22.000Z</time>
      </trkpt>
      <trkpt lat="47.51383" lon="6.7251">
        <ele>427</ele>
        <time>2016-03-20T09:01:23.000Z</time>
      </trkpt>
      <trkpt lat="47.51383" lon="6.72505">
        <ele>427</ele>
        <time>2016-03-20T09:01:24.000Z</time>
      </trkpt>
      <trkpt lat="47.51384" lon="6.725">
        <ele>427</ele>
        <time>2016-03-20T09:01:25.000Z</time>
      </trkpt>
      <trkpt lat="47.51384" lon="6.72495">
        <ele>427</ele>
        <time>2016-03-20T09:01:26.000Z</time>
      </trkpt>
      <trkpt lat="47.51385" lon="6.72491">
        <ele>427</ele>
        <time>2016-03-20T09:01:27.000Z</time>
      </trkpt>
      <trkpt lat="47.51385" lon="6.72487">
        <ele>427</ele>
        <time>2016-03-20T09:01:28.000Z</time>
      </trkpt>
      <trkpt lat="47.51385" lon="6.72483">
        <ele>427</ele>
        <time>2016-03-20T09:01:29.000Z</time>
      </trkpt>
      <trkpt lat="47.51385" lon="6.7248">
        <ele>427</ele>
        <time>2016-03-20T09:01:30.000Z</time>
      </trkpt>
      <trkpt lat="47.51384" lon="6.72476">
        <ele>427</ele>
        <time>2016-03-20T09:01:31.000Z</time>
      </trkpt>
      <trkpt lat="47.51384" lon="6.72473">
        <ele>427</ele>
        <time>2016-03-20T09:01:32.000Z</time>
      </trkpt>
      <trkpt lat="47.51382" lon="6.72467">
        <ele>427</ele>
        <time>2016-03-20T09:01:39.000Z</time>
      </trkpt>
      <trkpt lat="47.51382" lon="6.72466">
        <ele>427</ele>
        <time>2016-03-20T09:01:40.000Z</time>
      </trkpt>
      <trkpt lat="47.51386" lon="6.72466">
        <ele>427</ele>
        <time>2016-03-20T09:01:48.000Z</time>
      </trkpt>
      <trkpt lat="47.51387" lon="6.72466">
        <ele>427</ele>
        <time>2016-03-20T09:01:49.000Z</time>
      </trkpt>
      <trkpt lat="47.5139" lon="6.72468">
        <ele>427</ele>
        <time>2016-03-20T09:01:51.000Z</time>
      </trkpt>
      <trkpt lat="47.51392" lon="6.72469">
        <ele>427</ele>
        <time>2016-03-20T09:01:52.000Z</time>
      </trkpt>
      <trkpt lat="47.51395" lon="6.7247">
        <ele>427</ele>
        <time>2016-03-20T09:01:53.000Z</time>
      </trkpt>
      <trkpt lat="47.51398" lon="6.7247">
        <ele>426</ele>
        <time>2016-03-20T09:01:54.000Z</time>
      </trkpt>
      <trkpt lat="47.51402" lon="6.72471">
        <ele>426</ele>
        <time>2016-03-20T09:01:55.000Z</time>
      </trkpt>
      <trkpt lat="47.51406" lon="6.72472">
        <ele>426</ele>
        <time>2016-03-20T09:01:56.000Z</time>
      </trkpt>
      <trkpt lat="47.5141" lon="6.72473">
        <ele>426</ele>
        <time>2016-03-20T09:01:57.000Z</time>
      </trkpt>
      <trkpt lat="47.51414" lon="6.72473">
        <ele>426</ele>
        <time>2016-03-20T09:01:58.000Z</time>
      </trkpt>
      <trkpt lat="47.51429" lon="6.7246">
        <ele>422</ele>
        <time>2016-03-20T09:01:59.000Z</time>
      </trkpt>
      <trkpt lat="47.51437" lon="6.72455">
        <ele>422</ele>
        <time>2016-03-20T09:02:00.000Z</time>
      </trkpt>
      <trkpt lat="47.51445" lon="6.7245">
        <ele>422</ele>
        <time>2016-03-20T09:02:01.000Z</time>
      </trkpt>
      <trkpt lat="47.51454" lon="6.72445">
        <ele>421</ele>
        <time>2016-03-20T09:02:02.000Z</time>
      </trkpt>
      <trkpt lat="47.51458" lon="6.72445">
        <ele>421</ele>
        <time>2016-03-20T09:02:03.000Z</time>
      </trkpt>
      <trkpt lat="47.51462" lon="6.72441">
        <ele>421</ele>
        <time>2016-03-20T09:02:04.000Z</time>
      </trkpt>
      <trkpt lat="47.5146" lon="6.72443">
        <ele>421</ele>
        <time>2016-03-20T09:02:06.000Z</time>
      </trkpt>
      <trkpt lat="47.51467" lon="6.72432">
        <ele>420</ele>
        <time>2016-03-20T09:02:07.000Z</time>
      </trkpt>
      <trkpt lat="47.51471" lon="6.72426">
        <ele>420</ele>
        <time>2016-03-20T09:02:08.000Z</time>
      </trkpt>
      <trkpt lat="47.51474" lon="6.72422">
        <ele>419</ele>
        <time>2016-03-20T09:02:10.000Z</time>
      </trkpt>
      <trkpt lat="47.51475" lon="6.7242">
        <ele>419</ele>
        <time>2016-03-20T09:02:11.000Z</time>
      </trkpt>
      <trkpt lat="47.51475" lon="6.7242">
        <ele>419</ele>
        <time>2016-03-20T09:02:12.000Z</time>
      </trkpt>
      <trkpt lat="47.51479" lon="6.72412">
        <ele>415</ele>
        <time>2016-03-20T09:02:13.000Z</time>
      </trkpt>
      <trkpt lat="47.51482" lon="6.72408">
        <ele>415</ele>
        <time>2016-03-20T09:02:15.000Z</time>
      </trkpt>
      <trkpt lat="47.51482" lon="6.72406">
        <ele>415</ele>
        <time>2016-03-20T09:02:16.000Z</time>
      </trkpt>
      <trkpt lat="47.51483" lon="6.72402">
        <ele>415</ele>
        <time>2016-03-20T09:02:19.000Z</time>
      </trkpt>
      <trkpt lat="47.51483" lon="6.724">
        <ele>415</ele>
        <time>2016-03-20T09:02:20.000Z</time>
      </trkpt>
      <trkpt lat="47.51483" lon="6.72397">
        <ele>414</ele>
        <time>2016-03-20T09:02:21.000Z</time>
      </trkpt>
      <trkpt lat="47.51484" lon="6.72393">
        <ele>414</ele>
        <time>2016-03-20T09:02:22.000Z</time>
      </trkpt>
      <trkpt lat="47.51484" lon="6.72389">
        <ele>414</ele>
        <time>2016-03-20T09:02:23.000Z</time>
      </trkpt>
      <trkpt lat="47.51485" lon="6.72384">
        <ele>414</ele>
        <time>2016-03-20T09:02:24.000Z</time>
      </trkpt>
      <trkpt lat="47.51486" lon="6.7238">
        <ele>414</ele>
        <time>2016-03-20T09:02:25.000Z</time>
      </trkpt>
      <trkpt lat="47.51487" lon="6.72376">
        <ele>413</ele>
        <time>2016-03-20T09:02:26.000Z</time>
      </trkpt>
      <trkpt lat="47.51487" lon="6.72372">
        <ele>413</ele>
        <time>2016-03-20T09:02:27.000Z</time>
      </trkpt>
      <trkpt lat="47.51488" lon="6.72368">
        <ele>413</ele>
        <time>2016-03-20T09:02:28.000Z</time>
      </trkpt>
      <trkpt lat="47.51488" lon="6.72364">
        <ele>412</ele>
        <time>2016-03-20T09:02:29.000Z</time>
      </trkpt>
      <trkpt lat="47.51489" lon="6.72359">
        <ele>412</ele>
        <time>2016-03-20T09:02:30.000Z</time>
      </trkpt>
      <trkpt lat="47.5149" lon="6.72353">
        <ele>411</ele>
        <time>2016-03-20T09:02:31.000Z</time>
      </trkpt>
      <trkpt lat="47.51491" lon="6.72347">
        <ele>410</ele>
        <time>2016-03-20T09:02:32.000Z</time>
      </trkpt>
      <trkpt lat="47.51492" lon="6.72341">
        <ele>410</ele>
        <time>2016-03-20T09:02:33.000Z</time>
      </trkpt>
      <trkpt lat="47.51492" lon="6.72336">
        <ele>409</ele>
        <time>2016-03-20T09:02:34.000Z</time>
      </trkpt>
      <trkpt lat="47.51493" lon="6.72331">
        <ele>407</ele>
        <time>2016-03-20T09:02:35.000Z</time>
      </trkpt>
      <trkpt lat="47.51493" lon="6.72327">
        <ele>407</ele>
        <time>2016-03-20T09:02:36.000Z</time>
      </trkpt>
      <trkpt lat="47.51493" lon="6.72322">
        <ele>407</ele>
        <time>2016-03-20T09:02:37.000Z</time>
      </trkpt>
      <trkpt lat="47.51493" lon="6.72317">
        <ele>407</ele>
        <time>2016-03-20T09:02:38.000Z</time>
      </trkpt>
      <trkpt lat="47.51496" lon="6.72313">
        <ele>407</ele>
        <time>2016-03-20T09:02:43.000Z</time>
      </trkpt>
      <trkpt lat="47.51497" lon="6.72314">
        <ele>407</ele>
        <time>2016-03-20T09:02:44.000Z</time>
      </trkpt>
      <trkpt lat="47.51499" lon="6.72314">
        <ele>407</ele>
        <time>2016-03-20T09:02:45.000Z</time>
      </trkpt>
      <trkpt lat="47.51501" lon="6.72313">
        <ele>403</ele>
        <time>2016-03-20T09:02:46.000Z</time>
      </trkpt>
      <trkpt lat="47.51504" lon="6.72313">
        <ele>403</ele>
        <time>2016-03-20T09:02:47.000Z</time>
      </trkpt>
      <trkpt lat="47.51508" lon="6.72313">
        <ele>403</ele>
        <time>2016-03-20T09:02:48.000Z</time>
      </trkpt>
      <trkpt lat="47.51511" lon="6.72313">
        <ele>402</ele>
        <time>2016-03-20T09:02:49.000Z</time>
      </trkpt>
      <trkpt lat="47.51515" lon="6.72313">
        <ele>402</ele>
        <time>2016-03-20T09:02:50.000Z</time>
      </trkpt>
      <trkpt lat="47.51519" lon="6.72314">
        <ele>402</ele>
        <time>2016-03-20T09:02:51.000Z</time>
      </trkpt>
      <trkpt lat="47.51522" lon="6.72315">
        <ele>402</ele>
        <time>2016-03-20T09:02:52.000Z</time>
      </trkpt>
      <trkpt lat="47.51527" lon="6.72316">
        <ele>401</ele>
        <time>2016-03-20T09:02:53.000Z</time>
      </trkpt>
      <trkpt lat="47.51531" lon="6.72317">
        <ele>401</ele>
        <time>2016-03-20T09:02:54.000Z</time>
      </trkpt>
      <trkpt lat="47.51537" lon="6.72316">
        <ele>400</ele>
        <time>2016-03-20T09:02:55.000Z</time>
      </trkpt>
      <trkpt lat="47.51542" lon="6.72316">
        <ele>400</ele>
        <time>2016-03-20T09:02:56.000Z</time>
      </trkpt>
      <trkpt lat="47.51554" lon="6.72311">
        <ele>399</ele>
        <time>2016-03-20T09:02:57.000Z</time>
      </trkpt>
      <trkpt lat="47.51563" lon="6.72312">
        <ele>398</ele>
        <time>2016-03-20T09:02:58.000Z</time>
      </trkpt>
      <trkpt lat="47.51571" lon="6.72315">
        <ele>398</ele>
        <time>2016-03-20T09:02:59.000Z</time>
      </trkpt>
      <trkpt lat="47.51584" lon="6.72321">
        <ele>395</ele>
        <time>2016-03-20T09:03:01.000Z</time>
      </trkpt>
      <trkpt lat="47.51606" lon="6.72294">
        <ele>394</ele>
        <time>2016-03-20T09:03:02.000Z</time>
      </trkpt>
      <trkpt lat="47.51616" lon="6.72294">
        <ele>394</ele>
        <time>2016-03-20T09:03:03.000Z</time>
      </trkpt>
      <trkpt lat="47.51624" lon="6.72293">
        <ele>394</ele>
        <time>2016-03-20T09:03:04.000Z</time>
      </trkpt>
      <trkpt lat="47.51645" lon="6.7227">
        <ele>394</ele>
        <time>2016-03-20T09:03:05.000Z</time>
      </trkpt>
      <trkpt lat="47.51666" lon="6.72248">
        <ele>392</ele>
        <time>2016-03-20T09:03:06.000Z</time>
      </trkpt>
      <trkpt lat="47.51679" lon="6.72241">
        <ele>391</ele>
        <time>2016-03-20T09:03:07.000Z</time>
      </trkpt>
      <trkpt lat="47.51689" lon="6.72238">
        <ele>391</ele>
        <time>2016-03-20T09:03:08.000Z</time>
      </trkpt>
      <trkpt lat="47.51699" lon="6.72235">
        <ele>391</ele>
        <time>2016-03-20T09:03:09.000Z</time>
      </trkpt>
      <trkpt lat="47.51709" lon="6.72234">
        <ele>391</ele>
        <time>2016-03-20T09:03:10.000Z</time>
      </trkpt>
      <trkpt lat="47.51718" lon="6.7223">
        <ele>391</ele>
        <time>2016-03-20T09:03:11.000Z</time>
      </trkpt>
      <trkpt lat="47.51724" lon="6.72233">
        <ele>391</ele>
        <time>2016-03-20T09:03:12.000Z</time>
      </trkpt>
      <trkpt lat="47.5173" lon="6.72237">
        <ele>391</ele>
        <time>2016-03-20T09:03:13.000Z</time>
      </trkpt>
      <trkpt lat="47.51735" lon="6.72242">
        <ele>391</ele>
        <time>2016-03-20T09:03:14.000Z</time>
      </trkpt>
      <trkpt lat="47.51741" lon="6.72247">
        <ele>391</ele>
        <time>2016-03-20T09:03:15.000Z</time>
      </trkpt>
      <trkpt lat="47.51748" lon="6.72255">
        <ele>392</ele>
        <time>2016-03-20T09:03:16.000Z</time>
      </trkpt>
      <trkpt lat="47.51759" lon="6.72253">
        <ele>391</ele>
        <time>2016-03-20T09:03:17.000Z</time>
      </trkpt>
      <trkpt lat="47.51766" lon="6.72254">
        <ele>391</ele>
        <time>2016-03-20T09:03:18.000Z</time>
      </trkpt>
      <trkpt lat="47.5177" lon="6.7226">
        <ele>391</ele>
        <time>2016-03-20T09:03:19.000Z</time>
      </trkpt>
      <trkpt lat="47.51774" lon="6.72267">
        <ele>391</ele>
        <time>2016-03-20T09:03:20.000Z</time>
      </trkpt>
      <trkpt lat="47.51779" lon="6.72275">
        <ele>391</ele>
        <time>2016-03-20T09:03:21.000Z</time>
      </trkpt>
      <trkpt lat="47.51784" lon="6.72282">
        <ele>391</ele>
        <time>2016-03-20T09:03:22.000Z</time>
      </trkpt>
      <trkpt lat="47.51792" lon="6.72279">
        <ele>391</ele>
        <time>2016-03-20T09:03:23.000Z</time>
      </trkpt>
      <trkpt lat="47.51799" lon="6.7229">
        <ele>391</ele>
        <time>2016-03-20T09:03:24.000Z</time>
      </trkpt>
      <trkpt lat="47.51805" lon="6.72289">
        <ele>390</ele>
        <time>2016-03-20T09:03:25.000Z</time>
      </trkpt>
      <trkpt lat="47.5181" lon="6.72286">
        <ele>390</ele>
        <time>2016-03-20T09:03:26.000Z</time>
      </trkpt>
      <trkpt lat="47.5181" lon="6.72286">
        <ele>390</ele>
        <time>2016-03-20T09:03:28.000Z</time>
      </trkpt>
      <trkpt lat="47.51817" lon="6.7228">
        <ele>390</ele>
        <time>2016-03-20T09:03:29.000Z</time>
      </trkpt>
      <trkpt lat="47.51831" lon="6.7226">
        <ele>387</ele>
        <time>2016-03-20T09:03:30.000Z</time>
      </trkpt>
      <trkpt lat="47.51841" lon="6.72249">
        <ele>385</ele>
        <time>2016-03-20T09:03:31.000Z</time>
      </trkpt>
      <trkpt lat="47.51845" lon="6.7225">
        <ele>384</ele>
        <time>2016-03-20T09:03:33.000Z</time>
      </trkpt>
      <trkpt lat="47.51846" lon="6.7225">
        <ele>384</ele>
        <time>2016-03-20T09:03:34.000Z</time>
      </trkpt>
      <trkpt lat="47.51851" lon="6.7225">
        <ele>384</ele>
        <time>2016-03-20T09:03:36.000Z</time>
      </trkpt>
      <trkpt lat="47.51853" lon="6.72249">
        <ele>384</ele>
        <time>2016-03-20T09:03:37.000Z</time>
      </trkpt>
      <trkpt lat="47.51857" lon="6.72249">
        <ele>384</ele>
        <time>2016-03-20T09:03:38.000Z</time>
      </trkpt>
      <trkpt lat="47.5186" lon="6.72249">
        <ele>384</ele>
        <time>2016-03-20T09:03:39.000Z</time>
      </trkpt>
      <trkpt lat="47.51863" lon="6.72249">
        <ele>384</ele>
        <time>2016-03-20T09:03:40.000Z</time>
      </trkpt>
      <trkpt lat="47.51865" lon="6.72252">
        <ele>385</ele>
        <time>2016-03-20T09:03:41.000Z</time>
      </trkpt>
      <trkpt lat="47.51867" lon="6.72255">
        <ele>385</ele>
        <time>2016-03-20T09:03:42.000Z</time>
      </trkpt>
      <trkpt lat="47.51869" lon="6.72257">
        <ele>385</ele>
        <time>2016-03-20T09:03:43.000Z</time>
      </trkpt>
      <trkpt lat="47.51871" lon="6.7226">
        <ele>385</ele>
        <time>2016-03-20T09:03:44.000Z</time>
      </trkpt>
      <trkpt lat="47.51872" lon="6.72263">
        <ele>385</ele>
        <time>2016-03-20T09:03:45.000Z</time>
      </trkpt>
      <trkpt lat="47.51875" lon="6.72262">
        <ele>385</ele>
        <time>2016-03-20T09:03:46.000Z</time>
      </trkpt>
      <trkpt lat="47.51878" lon="6.72261">
        <ele>385</ele>
        <time>2016-03-20T09:03:47.000Z</time>
      </trkpt>
      <trkpt lat="47.51881" lon="6.72259">
        <ele>385</ele>
        <time>2016-03-20T09:03:48.000Z</time>
      </trkpt>
      <trkpt lat="47.51883" lon="6.72258">
        <ele>385</ele>
        <time>2016-03-20T09:03:49.000Z</time>
      </trkpt>
      <trkpt lat="47.51886" lon="6.72257">
        <ele>385</ele>
        <time>2016-03-20T09:03:50.000Z</time>
      </trkpt>
      <trkpt lat="47.51888" lon="6.72256">
        <ele>385</ele>
        <time>2016-03-20T09:03:51.000Z</time>
      </trkpt>
      <trkpt lat="47.51891" lon="6.72254">
        <ele>385</ele>
        <time>2016-03-20T09:03:52.000Z</time>
      </trkpt>
      <trkpt lat="47.51893" lon="6.72253">
        <ele>384</ele>
        <time>2016-03-20T09:03:53.000Z</time>
      </trkpt>
      <trkpt lat="47.51896" lon="6.72251">
        <ele>384</ele>
        <time>2016-03-20T09:03:54.000Z</time>
      </trkpt>
      <trkpt lat="47.51899" lon="6.72249">
        <ele>383</ele>
        <time>2016-03-20T09:03:55.000Z</time>
      </trkpt>
      <trkpt lat="47.51902" lon="6.72246">
        <ele>383</ele>
        <time>2016-03-20T09:03:56.000Z</time>
      </trkpt>
      <trkpt lat="47.51905" lon="6.72245">
        <ele>382</ele>
        <time>2016-03-20T09:03:57.000Z</time>
      </trkpt>
      <trkpt lat="47.51908" lon="6.72244">
        <ele>382</ele>
        <time>2016-03-20T09:03:58.000Z</time>
      </trkpt>
      <trkpt lat="47.5191" lon="6.72244">
        <ele>382</ele>
        <time>2016-03-20T09:03:59.000Z</time>
      </trkpt>
      <trkpt lat="47.51913" lon="6.72247">
        <ele>382</ele>
        <time>2016-03-20T09:04:01.000Z</time>
      </trkpt>
      <trkpt lat="47.51914" lon="6.7225">
        <ele>382</ele>
        <time>2016-03-20T09:04:02.000Z</time>
      </trkpt>
      <trkpt lat="47.51916" lon="6.72254">
        <ele>383</ele>
        <time>2016-03-20T09:04:04.000Z</time>
      </trkpt>
      <trkpt lat="47.51916" lon="6.72255">
        <ele>383</ele>
        <time>2016-03-20T09:04:05.000Z</time>
      </trkpt>
      <trkpt lat="47.51919" lon="6.72255">
        <ele>382</ele>
        <time>2016-03-20T09:04:07.000Z</time>
      </trkpt>
      <trkpt lat="47.51921" lon="6.72254">
        <ele>382</ele>
        <time>2016-03-20T09:04:08.000Z</time>
      </trkpt>
      <trkpt lat="47.51925" lon="6.72253">
        <ele>382</ele>
        <time>2016-03-20T09:04:10.000Z</time>
      </trkpt>
      <trkpt lat="47.51926" lon="6.72252">
        <ele>382</ele>
        <time>2016-03-20T09:04:11.000Z</time>
      </trkpt>
      <trkpt lat="47.5193" lon="6.72252">
        <ele>382</ele>
        <time>2016-03-20T09:04:14.000Z</time>
      </trkpt>
      <trkpt lat="47.51932" lon="6.72253">
        <ele>382</ele>
        <time>2016-03-20T09:04:15.000Z</time>
      </trkpt>
      <trkpt lat="47.51935" lon="6.72255">
        <ele>382</ele>
        <time>2016-03-20T09:04:17.000Z</time>
      </trkpt>
      <trkpt lat="47.51938" lon="6.72256">
        <ele>382</ele>
        <time>2016-03-20T09:04:18.000Z</time>
      </trkpt>
      <trkpt lat="47.51941" lon="6.72257">
        <ele>382</ele>
        <time>2016-03-20T09:04:20.000Z</time>
      </trkpt>
      <trkpt lat="47.51943" lon="6.72257">
        <ele>382</ele>
        <time>2016-03-20T09:04:21.000Z</time>
      </trkpt>
      <trkpt lat="47.51945" lon="6.72257">
        <ele>382</ele>
        <time>2016-03-20T09:04:22.000Z</time>
      </trkpt>
      <trkpt lat="47.51948" lon="6.72257">
        <ele>382</ele>
        <time>2016-03-20T09:04:23.000Z</time>
      </trkpt>
      <trkpt lat="47.51951" lon="6.72256">
        <ele>382</ele>
        <time>2016-03-20T09:04:24.000Z</time>
      </trkpt>
      <trkpt lat="47.51954" lon="6.72254">
        <ele>382</ele>
        <time>2016-03-20T09:04:25.000Z</time>
      </trkpt>
      <trkpt lat="47.51957" lon="6.72252">
        <ele>382</ele>
        <time>2016-03-20T09:04:26.000Z</time>
      </trkpt>
      <trkpt lat="47.51962" lon="6.72246">
        <ele>382</ele>
        <time>2016-03-20T09:04:27.000Z</time>
      </trkpt>
      <trkpt lat="47.51965" lon="6.72244">
        <ele>382</ele>
        <time>2016-03-20T09:04:28.000Z</time>
      </trkpt>
      <trkpt lat="47.51967" lon="6.72243">
        <ele>382</ele>
        <time>2016-03-20T09:04:29.000Z</time>
      </trkpt>
      <trkpt lat="47.5197" lon="6.72242">
        <ele>382</ele>
        <time>2016-03-20T09:04:31.000Z</time>
      </trkpt>
      <trkpt lat="47.51972" lon="6.72241">
        <ele>382</ele>
        <time>2016-03-20T09:04:32.000Z</time>
      </trkpt>
      <trkpt lat="47.51975" lon="6.72237">
        <ele>382</ele>
        <time>2016-03-20T09:04:34.000Z</time>
      </trkpt>
      <trkpt lat="47.51977" lon="6.72234">
        <ele>382</ele>
        <time>2016-03-20T09:04:35.000Z</time>
      </trkpt>
      <trkpt lat="47.5198" lon="6.7223">
        <ele>382</ele>
        <time>2016-03-20T09:04:37.000Z</time>
      </trkpt>
      <trkpt lat="47.51982" lon="6.72228">
        <ele>382</ele>
        <time>2016-03-20T09:04:38.000Z</time>
      </trkpt>
      <trkpt lat="47.51984" lon="6.72225">
        <ele>382</ele>
        <time>2016-03-20T09:04:40.000Z</time>
      </trkpt>
      <trkpt lat="47.51986" lon="6.72223">
        <ele>382</ele>
        <time>2016-03-20T09:04:41.000Z</time>
      </trkpt>
      <trkpt lat="47.51987" lon="6.72221">
        <ele>382</ele>
        <time>2016-03-20T09:04:42.000Z</time>
      </trkpt>
      <trkpt lat="47.51989" lon="6.72219">
        <ele>383</ele>
        <time>2016-03-20T09:04:43.000Z</time>
      </trkpt>
      <trkpt lat="47.51992" lon="6.72217">
        <ele>383</ele>
        <time>2016-03-20T09:04:44.000Z</time>
      </trkpt>
      <trkpt lat="47.51994" lon="6.72215">
        <ele>383</ele>
        <time>2016-03-20T09:04:45.000Z</time>
      </trkpt>
      <trkpt lat="47.51997" lon="6.72212">
        <ele>383</ele>
        <time>2016-03-20T09:04:47.000Z</time>
      </trkpt>
      <trkpt lat="47.51999" lon="6.72211">
        <ele>383</ele>
        <time>2016-03-20T09:04:48.000Z</time>
      </trkpt>
      <trkpt lat="47.52002" lon="6.72208">
        <ele>384</ele>
        <time>2016-03-20T09:04:50.000Z</time>
      </trkpt>
      <trkpt lat="47.52003" lon="6.72205">
        <ele>384</ele>
        <time>2016-03-20T09:04:51.000Z</time>
      </trkpt>
      <trkpt lat="47.52005" lon="6.72201">
        <ele>385</ele>
        <time>2016-03-20T09:04:53.000Z</time>
      </trkpt>
      <trkpt lat="47.52006" lon="6.72199">
        <ele>385</ele>
        <time>2016-03-20T09:04:54.000Z</time>
      </trkpt>
      <trkpt lat="47.52008" lon="6.72195">
        <ele>385</ele>
        <time>2016-03-20T09:04:56.000Z</time>
      </trkpt>
      <trkpt lat="47.52009" lon="6.72193">
        <ele>385</ele>
        <time>2016-03-20T09:04:57.000Z</time>
      </trkpt>
      <trkpt lat="47.52011" lon="6.72188">
        <ele>385</ele>
        <time>2016-03-20T09:04:59.000Z</time>
      </trkpt>
      <trkpt lat="47.52013" lon="6.72185">
        <ele>385</ele>
        <time>2016-03-20T09:05:00.000Z</time>
      </trkpt>
      <trkpt lat="47.52015" lon="6.72183">
        <ele>385</ele>
        <time>2016-03-20T09:05:01.000Z</time>
      </trkpt>
      <trkpt lat="47.52016" lon="6.7218">
        <ele>385</ele>
        <time>2016-03-20T09:05:02.000Z</time>
      </trkpt>
      <trkpt lat="47.52017" lon="6.72177">
        <ele>386</ele>
        <time>2016-03-20T09:05:03.000Z</time>
      </trkpt>
      <trkpt lat="47.52019" lon="6.72174">
        <ele>386</ele>
        <time>2016-03-20T09:05:04.000Z</time>
      </trkpt>
      <trkpt lat="47.5202" lon="6.7217">
        <ele>386</ele>
        <time>2016-03-20T09:05:05.000Z</time>
      </trkpt>
      <trkpt lat="47.52021" lon="6.72166">
        <ele>389</ele>
        <time>2016-03-20T09:05:06.000Z</time>
      </trkpt>
      <trkpt lat="47.52022" lon="6.72162">
        <ele>389</ele>
        <time>2016-03-20T09:05:07.000Z</time>
      </trkpt>
      <trkpt lat="47.52023" lon="6.72158">
        <ele>389</ele>
        <time>2016-03-20T09:05:08.000Z</time>
      </trkpt>
      <trkpt lat="47.52024" lon="6.72154">
        <ele>389</ele>
        <time>2016-03-20T09:05:09.000Z</time>
      </trkpt>
      <trkpt lat="47.52026" lon="6.7215">
        <ele>389</ele>
        <time>2016-03-20T09:05:10.000Z</time>
      </trkpt>
      <trkpt lat="47.52027" lon="6.72148">
        <ele>389</ele>
        <time>2016-03-20T09:05:11.000Z</time>
      </trkpt>
      <trkpt lat="47.52028" lon="6.72145">
        <ele>389</ele>
        <time>2016-03-20T09:05:12.000Z</time>
      </trkpt>
      <trkpt lat="47.5203" lon="6.7214">
        <ele>389</ele>
        <time>2016-03-20T09:05:14.000Z</time>
      </trkpt>
      <trkpt lat="47.5203" lon="6.72139">
        <ele>389</ele>
        <time>2016-03-20T09:05:15.000Z</time>
      </trkpt>
      <trkpt lat="47.5203" lon="6.72133">
        <ele>390</ele>
        <time>2016-03-20T09:05:18.000Z</time>
      </trkpt>
      <trkpt lat="47.52029" lon="6.72131">
        <ele>390</ele>
        <time>2016-03-20T09:05:19.000Z</time>
      </trkpt>
      <trkpt lat="47.52029" lon="6.72126">
        <ele>390</ele>
        <time>2016-03-20T09:05:21.000Z</time>
      </trkpt>
      <trkpt lat="47.52029" lon="6.72124">
        <ele>390</ele>
        <time>2016-03-20T09:05:22.000Z</time>
      </trkpt>
      <trkpt lat="47.5203" lon="6.72119">
        <ele>390</ele>
        <time>2016-03-20T09:05:24.000Z</time>
      </trkpt>
      <trkpt lat="47.5203" lon="6.72117">
        <ele>390</ele>
        <time>2016-03-20T09:05:25.000Z</time>
      </trkpt>
      <trkpt lat="47.5203" lon="6.72113">
        <ele>390</ele>
        <time>2016-03-20T09:05:26.000Z</time>
      </trkpt>
      <trkpt lat="47.5203" lon="6.7211">
        <ele>390</ele>
        <time>2016-03-20T09:05:27.000Z</time>
      </trkpt>
      <trkpt lat="47.52031" lon="6.72106">
        <ele>391</ele>
        <time>2016-03-20T09:05:28.000Z</time>
      </trkpt>
      <trkpt lat="47.52031" lon="6.72102">
        <ele>391</ele>
        <time>2016-03-20T09:05:29.000Z</time>
      </trkpt>
      <trkpt lat="47.52032" lon="6.72099">
        <ele>391</ele>
        <time>2016-03-20T09:05:30.000Z</time>
      </trkpt>
      <trkpt lat="47.52033" lon="6.72095">
        <ele>391</ele>
        <time>2016-03-20T09:05:31.000Z</time>
      </trkpt>
      <trkpt lat="47.52034" lon="6.7209">
        <ele>391</ele>
        <time>2016-03-20T09:05:33.000Z</time>
      </trkpt>
      <trkpt lat="47.52035" lon="6.72087">
        <ele>391</ele>
        <time>2016-03-20T09:05:34.000Z</time>
      </trkpt>
      <trkpt lat="47.52037" lon="6.72081">
        <ele>394</ele>
        <time>2016-03-20T09:05:36.000Z</time>
      </trkpt>
      <trkpt lat="47.52037" lon="6.72078">
        <ele>394</ele>
        <time>2016-03-20T09:05:37.000Z</time>
      </trkpt>
      <trkpt lat="47.52038" lon="6.72073">
        <ele>394</ele>
        <time>2016-03-20T09:05:39.000Z</time>
      </trkpt>
      <trkpt lat="47.52038" lon="6.72071">
        <ele>394</ele>
        <time>2016-03-20T09:05:40.000Z</time>
      </trkpt>
      <trkpt lat="47.52039" lon="6.72065">
        <ele>394</ele>
        <time>2016-03-20T09:05:42.000Z</time>
      </trkpt>
      <trkpt lat="47.5204" lon="6.72063">
        <ele>394</ele>
        <time>2016-03-20T09:05:43.000Z</time>
      </trkpt>
      <trkpt lat="47.52041" lon="6.72059">
        <ele>394</ele>
        <time>2016-03-20T09:05:45.000Z</time>
      </trkpt>
      <trkpt lat="47.52042" lon="6.72056">
        <ele>394</ele>
        <time>2016-03-20T09:05:46.000Z</time>
      </trkpt>
      <trkpt lat="47.5204" lon="6.72051">
        <ele>394</ele>
        <time>2016-03-20T09:05:48.000Z</time>
      </trkpt>
      <trkpt lat="47.5204" lon="6.72049">
        <ele>395</ele>
        <time>2016-03-20T09:05:49.000Z</time>
      </trkpt>
      <trkpt lat="47.5204" lon="6.72043">
        <ele>395</ele>
        <time>2016-03-20T09:05:51.000Z</time>
      </trkpt>
      <trkpt lat="47.52041" lon="6.7204">
        <ele>395</ele>
        <time>2016-03-20T09:05:52.000Z</time>
      </trkpt>
      <trkpt lat="47.52041" lon="6.72037">
        <ele>395</ele>
        <time>2016-03-20T09:05:53.000Z</time>
      </trkpt>
      <trkpt lat="47.52041" lon="6.72034">
        <ele>395</ele>
        <time>2016-03-20T09:05:54.000Z</time>
      </trkpt>
      <trkpt lat="47.52042" lon="6.72029">
        <ele>395</ele>
        <time>2016-03-20T09:05:55.000Z</time>
      </trkpt>
      <trkpt lat="47.52042" lon="6.72025">
        <ele>395</ele>
        <time>2016-03-20T09:05:56.000Z</time>
      </trkpt>
      <trkpt lat="47.52041" lon="6.72022">
        <ele>395</ele>
        <time>2016-03-20T09:05:57.000Z</time>
      </trkpt>
      <trkpt lat="47.52042" lon="6.72018">
        <ele>395</ele>
        <time>2016-03-20T09:05:58.000Z</time>
      </trkpt>
      <trkpt lat="47.52042" lon="6.72016">
        <ele>395</ele>
        <time>2016-03-20T09:05:59.000Z</time>
      </trkpt>
      <trkpt lat="47.52041" lon="6.72009">
        <ele>395</ele>
        <time>2016-03-20T09:06:01.000Z</time>
      </trkpt>
      <trkpt lat="47.52041" lon="6.72002">
        <ele>396</ele>
        <time>2016-03-20T09:06:03.000Z</time>
      </trkpt>
      <trkpt lat="47.52041" lon="6.71999">
        <ele>397</ele>
        <time>2016-03-20T09:06:04.000Z</time>
      </trkpt>
      <trkpt lat="47.52042" lon="6.71995">
        <ele>397</ele>
        <time>2016-03-20T09:06:05.000Z</time>
      </trkpt>
      <trkpt lat="47.52043" lon="6.71992">
        <ele>398</ele>
        <time>2016-03-20T09:06:06.000Z</time>
      </trkpt>
      <trkpt lat="47.52043" lon="6.71988">
        <ele>398</ele>
        <time>2016-03-20T09:06:07.000Z</time>
      </trkpt>
      <trkpt lat="47.52044" lon="6.71985">
        <ele>398</ele>
        <time>2016-03-20T09:06:08.000Z</time>
      </trkpt>
      <trkpt lat="47.52044" lon="6.71981">
        <ele>398</ele>
        <time>2016-03-20T09:06:09.000Z</time>
      </trkpt>
      <trkpt lat="47.52045" lon="6.71977">
        <ele>398</ele>
        <time>2016-03-20T09:06:10.000Z</time>
      </trkpt>
      <trkpt lat="47.52046" lon="6.71973">
        <ele>398</ele>
        <time>2016-03-20T09:06:11.000Z</time>
      </trkpt>
      <trkpt lat="47.52047" lon="6.7197">
        <ele>398</ele>
        <time>2016-03-20T09:06:12.000Z</time>
      </trkpt>
      <trkpt lat="47.52048" lon="6.71964">
        <ele>398</ele>
        <time>2016-03-20T09:06:14.000Z</time>
      </trkpt>
      <trkpt lat="47.52048" lon="6.71961">
        <ele>398</ele>
        <time>2016-03-20T09:06:15.000Z</time>
      </trkpt>
      <trkpt lat="47.52048" lon="6.71957">
        <ele>398</ele>
        <time>2016-03-20T09:06:16.000Z</time>
      </trkpt>
      <trkpt lat="47.52047" lon="6.71953">
        <ele>398</ele>
        <time>2016-03-20T09:06:17.000Z</time>
      </trkpt>
      <trkpt lat="47.52047" lon="6.7195">
        <ele>398</ele>
        <time>2016-03-20T09:06:18.000Z</time>
      </trkpt>
      <trkpt lat="47.52047" lon="6.71946">
        <ele>398</ele>
        <time>2016-03-20T09:06:19.000Z</time>
      </trkpt>
      <trkpt lat="47.52048" lon="6.71941">
        <ele>398</ele>
        <time>2016-03-20T09:06:21.000Z</time>
      </trkpt>
      <trkpt lat="47.52048" lon="6.71938">
        <ele>398</ele>
        <time>2016-03-20T09:06:22.000Z</time>
      </trkpt>
      <trkpt lat="47.52049" lon="6.71935">
        <ele>398</ele>
        <time>2016-03-20T09:06:23.000Z</time>
      </trkpt>
      <trkpt lat="47.5205" lon="6.71932">
        <ele>398</ele>
        <time>2016-03-20T09:06:24.000Z</time>
      </trkpt>
      <trkpt lat="47.52051" lon="6.71926">
        <ele>398</ele>
        <time>2016-03-20T09:06:26.000Z</time>
      </trkpt>
      <trkpt lat="47.52051" lon="6.71924">
        <ele>398</ele>
        <time>2016-03-20T09:06:27.000Z</time>
      </trkpt>
      <trkpt lat="47.52052" lon="6.71918">
        <ele>398</ele>
        <time>2016-03-20T09:06:29.000Z</time>
      </trkpt>
      <trkpt lat="47.52052" lon="6.71914">
        <ele>399</ele>
        <time>2016-03-20T09:06:30.000Z</time>
      </trkpt>
      <trkpt lat="47.52052" lon="6.71911">
        <ele>399</ele>
        <time>2016-03-20T09:06:31.000Z</time>
      </trkpt>
      <trkpt lat="47.52053" lon="6.71906">
        <ele>399</ele>
        <time>2016-03-20T09:06:32.000Z</time>
      </trkpt>
      <trkpt lat="47.52054" lon="6.71903">
        <ele>399</ele>
        <time>2016-03-20T09:06:33.000Z</time>
      </trkpt>
      <trkpt lat="47.52055" lon="6.71899">
        <ele>399</ele>
        <time>2016-03-20T09:06:34.000Z</time>
      </trkpt>
      <trkpt lat="47.52056" lon="6.71896">
        <ele>399</ele>
        <time>2016-03-20T09:06:35.000Z</time>
      </trkpt>
      <trkpt lat="47.52056" lon="6.71892">
        <ele>399</ele>
        <time>2016-03-20T09:06:36.000Z</time>
      </trkpt>
      <trkpt lat="47.52056" lon="6.71889">
        <ele>399</ele>
        <time>2016-03-20T09:06:37.000Z</time>
      </trkpt>
      <trkpt lat="47.52056" lon="6.71885">
        <ele>399</ele>
        <time>2016-03-20T09:06:38.000Z</time>
      </trkpt>
      <trkpt lat="47.52056" lon="6.71879">
        <ele>399</ele>
        <time>2016-03-20T09:06:40.000Z</time>
      </trkpt>
      <trkpt lat="47.52056" lon="6.71876">
        <ele>399</ele>
        <time>2016-03-20T09:06:41.000Z</time>
      </trkpt>
      <trkpt lat="47.52056" lon="6.71871">
        <ele>399</ele>
        <time>2016-03-20T09:06:43.000Z</time>
      </trkpt>
      <trkpt lat="47.52057" lon="6.71868">
        <ele>399</ele>
        <time>2016-03-20T09:06:44.000Z</time>
      </trkpt>
      <trkpt lat="47.52057" lon="6.71863">
        <ele>399</ele>
        <time>2016-03-20T09:06:46.000Z</time>
      </trkpt>
      <trkpt lat="47.52057" lon="6.71859">
        <ele>399</ele>
        <time>2016-03-20T09:06:47.000Z</time>
      </trkpt>
      <trkpt lat="47.52057" lon="6.71856">
        <ele>399</ele>
        <time>2016-03-20T09:06:48.000Z</time>
      </trkpt>
      <trkpt lat="47.52057" lon="6.71852">
        <ele>399</ele>
        <time>2016-03-20T09:06:49.000Z</time>
      </trkpt>
      <trkpt lat="47.52057" lon="6.71848">
        <ele>399</ele>
        <time>2016-03-20T09:06:50.000Z</time>
      </trkpt>
      <trkpt lat="47.52057" lon="6.71845">
        <ele>399</ele>
        <time>2016-03-20T09:06:51.000Z</time>
      </trkpt>
      <trkpt lat="47.52056" lon="6.71839">
        <ele>399</ele>
        <time>2016-03-20T09:06:53.000Z</time>
      </trkpt>
      <trkpt lat="47.52056" lon="6.71836">
        <ele>399</ele>
        <time>2016-03-20T09:06:54.000Z</time>
      </trkpt>
      <trkpt lat="47.52056" lon="6.71831">
        <ele>401</ele>
        <time>2016-03-20T09:06:56.000Z</time>
      </trkpt>
      <trkpt lat="47.52057" lon="6.71829">
        <ele>402</ele>
        <time>2016-03-20T09:06:57.000Z</time>
      </trkpt>
      <trkpt lat="47.52056" lon="6.71822">
        <ele>402</ele>
        <time>2016-03-20T09:07:00.000Z</time>
      </trkpt>
      <trkpt lat="47.52056" lon="6.71819">
        <ele>402</ele>
        <time>2016-03-20T09:07:01.000Z</time>
      </trkpt>
      <trkpt lat="47.52057" lon="6.71814">
        <ele>402</ele>
        <time>2016-03-20T09:07:03.000Z</time>
      </trkpt>
      <trkpt lat="47.52058" lon="6.71811">
        <ele>402</ele>
        <time>2016-03-20T09:07:04.000Z</time>
      </trkpt>
      <trkpt lat="47.52058" lon="6.71807">
        <ele>402</ele>
        <time>2016-03-20T09:07:05.000Z</time>
      </trkpt>
      <trkpt lat="47.52059" lon="6.71803">
        <ele>402</ele>
        <time>2016-03-20T09:07:06.000Z</time>
      </trkpt>
      <trkpt lat="47.5206" lon="6.71799">
        <ele>402</ele>
        <time>2016-03-20T09:07:07.000Z</time>
      </trkpt>
      <trkpt lat="47.5206" lon="6.71795">
        <ele>403</ele>
        <time>2016-03-20T09:07:08.000Z</time>
      </trkpt>
      <trkpt lat="47.52061" lon="6.7179">
        <ele>403</ele>
        <time>2016-03-20T09:07:09.000Z</time>
      </trkpt>
      <trkpt lat="47.52061" lon="6.71786">
        <ele>403</ele>
        <time>2016-03-20T09:07:10.000Z</time>
      </trkpt>
      <trkpt lat="47.52061" lon="6.71782">
        <ele>403</ele>
        <time>2016-03-20T09:07:11.000Z</time>
      </trkpt>
      <trkpt lat="47.52061" lon="6.71778">
        <ele>403</ele>
        <time>2016-03-20T09:07:12.000Z</time>
      </trkpt>
      <trkpt lat="47.52061" lon="6.71774">
        <ele>403</ele>
        <time>2016-03-20T09:07:13.000Z</time>
      </trkpt>
      <trkpt lat="47.52062" lon="6.7177">
        <ele>403</ele>
        <time>2016-03-20T09:07:14.000Z</time>
      </trkpt>
      <trkpt lat="47.52063" lon="6.71766">
        <ele>403</ele>
        <time>2016-03-20T09:07:15.000Z</time>
      </trkpt>
      <trkpt lat="47.52064" lon="6.71762">
        <ele>403</ele>
        <time>2016-03-20T09:07:16.000Z</time>
      </trkpt>
      <trkpt lat="47.52065" lon="6.71759">
        <ele>403</ele>
        <time>2016-03-20T09:07:17.000Z</time>
      </trkpt>
      <trkpt lat="47.52066" lon="6.71755">
        <ele>403</ele>
        <time>2016-03-20T09:07:18.000Z</time>
      </trkpt>
      <trkpt lat="47.52068" lon="6.71753">
        <ele>403</ele>
        <time>2016-03-20T09:07:19.000Z</time>
      </trkpt>
      <trkpt lat="47.52069" lon="6.7175">
        <ele>406</ele>
        <time>2016-03-20T09:07:20.000Z</time>
      </trkpt>
      <trkpt lat="47.52071" lon="6.71744">
        <ele>405</ele>
        <time>2016-03-20T09:07:22.000Z</time>
      </trkpt>
      <trkpt lat="47.52073" lon="6.71742">
        <ele>405</ele>
        <time>2016-03-20T09:07:23.000Z</time>
      </trkpt>
      <trkpt lat="47.52074" lon="6.71739">
        <ele>406</ele>
        <time>2016-03-20T09:07:24.000Z</time>
      </trkpt>
      <trkpt lat="47.52076" lon="6.71736">
        <ele>406</ele>
        <time>2016-03-20T09:07:25.000Z</time>
      </trkpt>
      <trkpt lat="47.52077" lon="6.71733">
        <ele>406</ele>
        <time>2016-03-20T09:07:26.000Z</time>
      </trkpt>
      <trkpt lat="47.52078" lon="6.71729">
        <ele>407</ele>
        <time>2016-03-20T09:07:27.000Z</time>
      </trkpt>
      <trkpt lat="47.52079" lon="6.71725">
        <ele>407</ele>
        <time>2016-03-20T09:07:28.000Z</time>
      </trkpt>
      <trkpt lat="47.5208" lon="6.71721">
        <ele>408</ele>
        <time>2016-03-20T09:07:29.000Z</time>
      </trkpt>
      <trkpt lat="47.52081" lon="6.71716">
        <ele>408</ele>
        <time>2016-03-20T09:07:30.000Z</time>
      </trkpt>
      <trkpt lat="47.52081" lon="6.71712">
        <ele>408</ele>
        <time>2016-03-20T09:07:31.000Z</time>
      </trkpt>
      <trkpt lat="47.52083" lon="6.71708">
        <ele>409</ele>
        <time>2016-03-20T09:07:32.000Z</time>
      </trkpt>
      <trkpt lat="47.52084" lon="6.71703">
        <ele>402</ele>
        <time>2016-03-20T09:07:33.000Z</time>
      </trkpt>
      <trkpt lat="47.52086" lon="6.71698">
        <ele>403</ele>
        <time>2016-03-20T09:07:34.000Z</time>
      </trkpt>
      <trkpt lat="47.52088" lon="6.71693">
        <ele>403</ele>
        <time>2016-03-20T09:07:35.000Z</time>
      </trkpt>
      <trkpt lat="47.5209" lon="6.71687">
        <ele>404</ele>
        <time>2016-03-20T09:07:36.000Z</time>
      </trkpt>
      <trkpt lat="47.52093" lon="6.71681">
        <ele>405</ele>
        <time>2016-03-20T09:07:37.000Z</time>
      </trkpt>
      <trkpt lat="47.52096" lon="6.71669">
        <ele>406</ele>
        <time>2016-03-20T09:07:38.000Z</time>
      </trkpt>
      <trkpt lat="47.52098" lon="6.71664">
        <ele>407</ele>
        <time>2016-03-20T09:07:39.000Z</time>
      </trkpt>
      <trkpt lat="47.52101" lon="6.7166">
        <ele>406</ele>
        <time>2016-03-20T09:07:40.000Z</time>
      </trkpt>
      <trkpt lat="47.52105" lon="6.71655">
        <ele>405</ele>
        <time>2016-03-20T09:07:41.000Z</time>
      </trkpt>
      <trkpt lat="47.52108" lon="6.7165">
        <ele>404</ele>
        <time>2016-03-20T09:07:42.000Z</time>
      </trkpt>
      <trkpt lat="47.52111" lon="6.71644">
        <ele>404</ele>
        <time>2016-03-20T09:07:43.000Z</time>
      </trkpt>
      <trkpt lat="47.52114" lon="6.71639">
        <ele>403</ele>
        <time>2016-03-20T09:07:44.000Z</time>
      </trkpt>
      <trkpt lat="47.52117" lon="6.71633">
        <ele>403</ele>
        <time>2016-03-20T09:07:45.000Z</time>
      </trkpt>
      <trkpt lat="47.5212" lon="6.71627">
        <ele>403</ele>
        <time>2016-03-20T09:07:46.000Z</time>
      </trkpt>
      <trkpt lat="47.52125" lon="6.71622">
        <ele>402</ele>
        <time>2016-03-20T09:07:47.000Z</time>
      </trkpt>
      <trkpt lat="47.52128" lon="6.71618">
        <ele>402</ele>
        <time>2016-03-20T09:07:48.000Z</time>
      </trkpt>
      <trkpt lat="47.52131" lon="6.71616">
        <ele>402</ele>
        <time>2016-03-20T09:07:49.000Z</time>
      </trkpt>
      <trkpt lat="47.52134" lon="6.71615">
        <ele>401</ele>
        <time>2016-03-20T09:07:50.000Z</time>
      </trkpt>
      <trkpt lat="47.5214" lon="6.71615">
        <ele>401</ele>
        <time>2016-03-20T09:07:51.000Z</time>
      </trkpt>
      <trkpt lat="47.52142" lon="6.71616">
        <ele>401</ele>
        <time>2016-03-20T09:07:52.000Z</time>
      </trkpt>
      <trkpt lat="47.52145" lon="6.71617">
        <ele>400</ele>
        <time>2016-03-20T09:07:53.000Z</time>
      </trkpt>
      <trkpt lat="47.52148" lon="6.71618">
        <ele>400</ele>
        <time>2016-03-20T09:07:54.000Z</time>
      </trkpt>
      <trkpt lat="47.52153" lon="6.71615">
        <ele>400</ele>
        <time>2016-03-20T09:07:55.000Z</time>
      </trkpt>
      <trkpt lat="47.52159" lon="6.71607">
        <ele>399</ele>
        <time>2016-03-20T09:07:56.000Z</time>
      </trkpt>
      <trkpt lat="47.52161" lon="6.716">
        <ele>398</ele>
        <time>2016-03-20T09:07:57.000Z</time>
      </trkpt>
      <trkpt lat="47.52162" lon="6.71592">
        <ele>397</ele>
        <time>2016-03-20T09:07:58.000Z</time>
      </trkpt>
      <trkpt lat="47.52165" lon="6.7158">
        <ele>396</ele>
        <time>2016-03-20T09:07:59.000Z</time>
      </trkpt>
      <trkpt lat="47.52166" lon="6.71569">
        <ele>398</ele>
        <time>2016-03-20T09:08:00.000Z</time>
      </trkpt>
      <trkpt lat="47.52168" lon="6.71558">
        <ele>392</ele>
        <time>2016-03-20T09:08:01.000Z</time>
      </trkpt>
      <trkpt lat="47.52169" lon="6.71547">
        <ele>391</ele>
        <time>2016-03-20T09:08:02.000Z</time>
      </trkpt>
      <trkpt lat="47.5217" lon="6.71538">
        <ele>391</ele>
        <time>2016-03-20T09:08:03.000Z</time>
      </trkpt>
      <trkpt lat="47.5217" lon="6.71529">
        <ele>391</ele>
        <time>2016-03-20T09:08:04.000Z</time>
      </trkpt>
      <trkpt lat="47.5217" lon="6.71519">
        <ele>392</ele>
        <time>2016-03-20T09:08:05.000Z</time>
      </trkpt>
      <trkpt lat="47.52172" lon="6.7151">
        <ele>392</ele>
        <time>2016-03-20T09:08:06.000Z</time>
      </trkpt>
      <trkpt lat="47.52172" lon="6.71499">
        <ele>393</ele>
        <time>2016-03-20T09:08:07.000Z</time>
      </trkpt>
      <trkpt lat="47.52171" lon="6.71489">
        <ele>391</ele>
        <time>2016-03-20T09:08:08.000Z</time>
      </trkpt>
      <trkpt lat="47.52168" lon="6.71477">
        <ele>389</ele>
        <time>2016-03-20T09:08:09.000Z</time>
      </trkpt>
      <trkpt lat="47.52167" lon="6.71467">
        <ele>388</ele>
        <time>2016-03-20T09:08:10.000Z</time>
      </trkpt>
      <trkpt lat="47.52167" lon="6.71455">
        <ele>388</ele>
        <time>2016-03-20T09:08:11.000Z</time>
      </trkpt>
      <trkpt lat="47.52166" lon="6.71444">
        <ele>392</ele>
        <time>2016-03-20T09:08:12.000Z</time>
      </trkpt>
      <trkpt lat="47.52164" lon="6.71433">
        <ele>391</ele>
        <time>2016-03-20T09:08:13.000Z</time>
      </trkpt>
      <trkpt lat="47.52161" lon="6.71422">
        <ele>389</ele>
        <time>2016-03-20T09:08:14.000Z</time>
      </trkpt>
      <trkpt lat="47.52158" lon="6.71411">
        <ele>388</ele>
        <time>2016-03-20T09:08:15.000Z</time>
      </trkpt>
      <trkpt lat="47.52155" lon="6.714">
        <ele>388</ele>
        <time>2016-03-20T09:08:16.000Z</time>
      </trkpt>
      <trkpt lat="47.52151" lon="6.7139">
        <ele>388</ele>
        <time>2016-03-20T09:08:17.000Z</time>
      </trkpt>
      <trkpt lat="47.52149" lon="6.71379">
        <ele>388</ele>
        <time>2016-03-20T09:08:18.000Z</time>
      </trkpt>
      <trkpt lat="47.52149" lon="6.71369">
        <ele>388</ele>
        <time>2016-03-20T09:08:19.000Z</time>
      </trkpt>
      <trkpt lat="47.52152" lon="6.71359">
        <ele>387</ele>
        <time>2016-03-20T09:08:20.000Z</time>
      </trkpt>
      <trkpt lat="47.52154" lon="6.7135">
        <ele>386</ele>
        <time>2016-03-20T09:08:21.000Z</time>
      </trkpt>
      <trkpt lat="47.52156" lon="6.7134">
        <ele>385</ele>
        <time>2016-03-20T09:08:22.000Z</time>
      </trkpt>
      <trkpt lat="47.52159" lon="6.71331">
        <ele>383</ele>
        <time>2016-03-20T09:08:23.000Z</time>
      </trkpt>
      <trkpt lat="47.52165" lon="6.71326">
        <ele>383</ele>
        <time>2016-03-20T09:08:24.000Z</time>
      </trkpt>
      <trkpt lat="47.52172" lon="6.71321">
        <ele>380</ele>
        <time>2016-03-20T09:08:25.000Z</time>
      </trkpt>
      <trkpt lat="47.52177" lon="6.71313">
        <ele>379</ele>
        <time>2016-03-20T09:08:26.000Z</time>
      </trkpt>
      <trkpt lat="47.52184" lon="6.71306">
        <ele>378</ele>
        <time>2016-03-20T09:08:27.000Z</time>
      </trkpt>
      <trkpt lat="47.52191" lon="6.713">
        <ele>377</ele>
        <time>2016-03-20T09:08:28.000Z</time>
      </trkpt>
      <trkpt lat="47.52197" lon="6.71294">
        <ele>377</ele>
        <time>2016-03-20T09:08:29.000Z</time>
      </trkpt>
      <trkpt lat="47.52203" lon="6.71288">
        <ele>376</ele>
        <time>2016-03-20T09:08:30.000Z</time>
      </trkpt>
      <trkpt lat="47.52212" lon="6.7128">
        <ele>376</ele>
        <time>2016-03-20T09:08:31.000Z</time>
      </trkpt>
      <trkpt lat="47.5222" lon="6.71271">
        <ele>375</ele>
        <time>2016-03-20T09:08:32.000Z</time>
      </trkpt>
      <trkpt lat="47.52229" lon="6.71264">
        <ele>374</ele>
        <time>2016-03-20T09:08:33.000Z</time>
      </trkpt>
      <trkpt lat="47.52234" lon="6.7126">
        <ele>374</ele>
        <time>2016-03-20T09:08:34.000Z</time>
      </trkpt>
      <trkpt lat="47.5224" lon="6.71255">
        <ele>373</ele>
        <time>2016-03-20T09:08:35.000Z</time>
      </trkpt>
      <trkpt lat="47.52247" lon="6.71251">
        <ele>372</ele>
        <time>2016-03-20T09:08:36.000Z</time>
      </trkpt>
      <trkpt lat="47.52253" lon="6.71248">
        <ele>371</ele>
        <time>2016-03-20T09:08:37.000Z</time>
      </trkpt>
      <trkpt lat="47.52255" lon="6.71248">
        <ele>370</ele>
        <time>2016-03-20T09:08:38.000Z</time>
      </trkpt>
      <trkpt lat="47.52262" lon="6.71241">
        <ele>369</ele>
        <time>2016-03-20T09:08:39.000Z</time>
      </trkpt>
      <trkpt lat="47.52267" lon="6.71238">
        <ele>369</ele>
        <time>2016-03-20T09:08:40.000Z</time>
      </trkpt>
      <trkpt lat="47.52271" lon="6.71237">
        <ele>369</ele>
        <time>2016-03-20T09:08:41.000Z</time>
      </trkpt>
      <trkpt lat="47.52276" lon="6.71231">
        <ele>368</ele>
        <time>2016-03-20T09:08:42.000Z</time>
      </trkpt>
      <trkpt lat="47.52285" lon="6.71219">
        <ele>368</ele>
        <time>2016-03-20T09:08:43.000Z</time>
      </trkpt>
      <trkpt lat="47.52292" lon="6.71211">
        <ele>368</ele>
        <time>2016-03-20T09:08:44.000Z</time>
      </trkpt>
      <trkpt lat="47.52298" lon="6.71202">
        <ele>367</ele>
        <time>2016-03-20T09:08:45.000Z</time>
      </trkpt>
      <trkpt lat="47.52303" lon="6.71194">
        <ele>367</ele>
        <time>2016-03-20T09:08:46.000Z</time>
      </trkpt>
      <trkpt lat="47.52308" lon="6.71188">
        <ele>367</ele>
        <time>2016-03-20T09:08:47.000Z</time>
      </trkpt>
      <trkpt lat="47.52314" lon="6.7118">
        <ele>367</ele>
        <time>2016-03-20T09:08:48.000Z</time>
      </trkpt>
      <trkpt lat="47.52319" lon="6.71174">
        <ele>367</ele>
        <time>2016-03-20T09:08:49.000Z</time>
      </trkpt>
      <trkpt lat="47.52324" lon="6.71169">
        <ele>367</ele>
        <time>2016-03-20T09:08:50.000Z</time>
      </trkpt>
      <trkpt lat="47.5233" lon="6.71164">
        <ele>367</ele>
        <time>2016-03-20T09:08:51.000Z</time>
      </trkpt>
      <trkpt lat="47.52336" lon="6.71163">
        <ele>367</ele>
        <time>2016-03-20T09:08:52.000Z</time>
      </trkpt>
      <trkpt lat="47.52341" lon="6.71163">
        <ele>367</ele>
        <time>2016-03-20T09:08:53.000Z</time>
      </trkpt>
      <trkpt lat="47.52346" lon="6.71166">
        <ele>366</ele>
        <time>2016-03-20T09:08:54.000Z</time>
      </trkpt>
      <trkpt lat="47.52351" lon="6.7117">
        <ele>365</ele>
        <time>2016-03-20T09:08:55.000Z</time>
      </trkpt>
      <trkpt lat="47.52355" lon="6.71173">
        <ele>365</ele>
        <time>2016-03-20T09:08:56.000Z</time>
      </trkpt>
      <trkpt lat="47.52359" lon="6.71178">
        <ele>365</ele>
        <time>2016-03-20T09:08:57.000Z</time>
      </trkpt>
      <trkpt lat="47.52362" lon="6.71181">
        <ele>365</ele>
        <time>2016-03-20T09:08:58.000Z</time>
      </trkpt>
      <trkpt lat="47.52366" lon="6.71185">
        <ele>365</ele>
        <time>2016-03-20T09:08:59.000Z</time>
      </trkpt>
      <trkpt lat="47.52371" lon="6.71186">
        <ele>364</ele>
        <time>2016-03-20T09:09:00.000Z</time>
      </trkpt>
      <trkpt lat="47.52375" lon="6.7119">
        <ele>364</ele>
        <time>2016-03-20T09:09:01.000Z</time>
      </trkpt>
      <trkpt lat="47.52381" lon="6.71192">
        <ele>364</ele>
        <time>2016-03-20T09:09:02.000Z</time>
      </trkpt>
      <trkpt lat="47.52386" lon="6.71193">
        <ele>364</ele>
        <time>2016-03-20T09:09:03.000Z</time>
      </trkpt>
      <trkpt lat="47.52393" lon="6.71193">
        <ele>364</ele>
        <time>2016-03-20T09:09:04.000Z</time>
      </trkpt>
      <trkpt lat="47.524" lon="6.71192">
        <ele>364</ele>
        <time>2016-03-20T09:09:05.000Z</time>
      </trkpt>
      <trkpt lat="47.52406" lon="6.71191">
        <ele>363</ele>
        <time>2016-03-20T09:09:06.000Z</time>
      </trkpt>
      <trkpt lat="47.52412" lon="6.7119">
        <ele>363</ele>
        <time>2016-03-20T09:09:07.000Z</time>
      </trkpt>
      <trkpt lat="47.52419" lon="6.71189">
        <ele>361</ele>
        <time>2016-03-20T09:09:08.000Z</time>
      </trkpt>
      <trkpt lat="47.52426" lon="6.71188">
        <ele>361</ele>
        <time>2016-03-20T09:09:09.000Z</time>
      </trkpt>
      <trkpt lat="47.52433" lon="6.71186">
        <ele>361</ele>
        <time>2016-03-20T09:09:10.000Z</time>
      </trkpt>
      <trkpt lat="47.5244" lon="6.71185">
        <ele>361</ele>
        <time>2016-03-20T09:09:11.000Z</time>
      </trkpt>
      <trkpt lat="47.52446" lon="6.71185">
        <ele>361</ele>
        <time>2016-03-20T09:09:12.000Z</time>
      </trkpt>
      <trkpt lat="47.52451" lon="6.71187">
        <ele>361</ele>
        <time>2016-03-20T09:09:13.000Z</time>
      </trkpt>
      <trkpt lat="47.52457" lon="6.71188">
        <ele>361</ele>
        <time>2016-03-20T09:09:14.000Z</time>
      </trkpt>
      <trkpt lat="47.52461" lon="6.7119">
        <ele>361</ele>
        <time>2016-03-20T09:09:15.000Z</time>
      </trkpt>
      <trkpt lat="47.52468" lon="6.71189">
        <ele>361</ele>
        <time>2016-03-20T09:09:16.000Z</time>
      </trkpt>
      <trkpt lat="47.52474" lon="6.71189">
        <ele>360</ele>
        <time>2016-03-20T09:09:17.000Z</time>
      </trkpt>
      <trkpt lat="47.52479" lon="6.71193">
        <ele>360</ele>
        <time>2016-03-20T09:09:18.000Z</time>
      </trkpt>
      <trkpt lat="47.52484" lon="6.71198">
        <ele>360</ele>
        <time>2016-03-20T09:09:19.000Z</time>
      </trkpt>
      <trkpt lat="47.52489" lon="6.71203">
        <ele>360</ele>
        <time>2016-03-20T09:09:20.000Z</time>
      </trkpt>
      <trkpt lat="47.52495" lon="6.71209">
        <ele>360</ele>
        <time>2016-03-20T09:09:21.000Z</time>
      </trkpt>
      <trkpt lat="47.525" lon="6.71213">
        <ele>360</ele>
        <time>2016-03-20T09:09:22.000Z</time>
      </trkpt>
      <trkpt lat="47.52504" lon="6.71219">
        <ele>360</ele>
        <time>2016-03-20T09:09:23.000Z</time>
      </trkpt>
      <trkpt lat="47.52505" lon="6.71228">
        <ele>359</ele>
        <time>2016-03-20T09:09:24.000Z</time>
      </trkpt>
      <trkpt lat="47.52511" lon="6.71233">
        <ele>359</ele>
        <time>2016-03-20T09:09:25.000Z</time>
      </trkpt>
      <trkpt lat="47.52517" lon="6.71237">
        <ele>359</ele>
        <time>2016-03-20T09:09:26.000Z</time>
      </trkpt>
      <trkpt lat="47.52524" lon="6.71241">
        <ele>360</ele>
        <time>2016-03-20T09:09:27.000Z</time>
      </trkpt>
      <trkpt lat="47.52529" lon="6.71245">
        <ele>360</ele>
        <time>2016-03-20T09:09:28.000Z</time>
      </trkpt>
      <trkpt lat="47.52532" lon="6.7125">
        <ele>360</ele>
        <time>2016-03-20T09:09:29.000Z</time>
      </trkpt>
      <trkpt lat="47.52536" lon="6.71253">
        <ele>361</ele>
        <time>2016-03-20T09:09:30.000Z</time>
      </trkpt>
      <trkpt lat="47.52542" lon="6.71256">
        <ele>361</ele>
        <time>2016-03-20T09:09:31.000Z</time>
      </trkpt>
      <trkpt lat="47.52548" lon="6.71259">
        <ele>361</ele>
        <time>2016-03-20T09:09:32.000Z</time>
      </trkpt>
      <trkpt lat="47.52553" lon="6.71262">
        <ele>362</ele>
        <time>2016-03-20T09:09:33.000Z</time>
      </trkpt>
      <trkpt lat="47.52558" lon="6.71265">
        <ele>362</ele>
        <time>2016-03-20T09:09:34.000Z</time>
      </trkpt>
      <trkpt lat="47.52561" lon="6.71268">
        <ele>362</ele>
        <time>2016-03-20T09:09:35.000Z</time>
      </trkpt>
      <trkpt lat="47.52564" lon="6.71272">
        <ele>362</ele>
        <time>2016-03-20T09:09:36.000Z</time>
      </trkpt>
      <trkpt lat="47.52569" lon="6.71274">
        <ele>362</ele>
        <time>2016-03-20T09:09:37.000Z</time>
      </trkpt>
      <trkpt lat="47.52573" lon="6.71279">
        <ele>363</ele>
        <time>2016-03-20T09:09:38.000Z</time>
      </trkpt>
      <trkpt lat="47.52577" lon="6.71283">
        <ele>363</ele>
        <time>2016-03-20T09:09:39.000Z</time>
      </trkpt>
      <trkpt lat="47.52582" lon="6.71287">
        <ele>363</ele>
        <time>2016-03-20T09:09:40.000Z</time>
      </trkpt>
      <trkpt lat="47.52591" lon="6.71283">
        <ele>365</ele>
        <time>2016-03-20T09:09:41.000Z</time>
      </trkpt>
      <trkpt lat="47.52598" lon="6.71284">
        <ele>365</ele>
        <time>2016-03-20T09:09:42.000Z</time>
      </trkpt>
      <trkpt lat="47.52605" lon="6.71285">
        <ele>365</ele>
        <time>2016-03-20T09:09:43.000Z</time>
      </trkpt>
      <trkpt lat="47.52612" lon="6.71287">
        <ele>365</ele>
        <time>2016-03-20T09:09:44.000Z</time>
      </trkpt>
      <trkpt lat="47.52619" lon="6.71288">
        <ele>365</ele>
        <time>2016-03-20T09:09:45.000Z</time>
      </trkpt>
      <trkpt lat="47.52619" lon="6.71297">
        <ele>366</ele>
        <time>2016-03-20T09:09:46.000Z</time>
      </trkpt>
      <trkpt lat="47.52624" lon="6.71299">
        <ele>366</ele>
        <time>2016-03-20T09:09:47.000Z</time>
      </trkpt>
      <trkpt lat="47.52629" lon="6.71304">
        <ele>366</ele>
        <time>2016-03-20T09:09:48.000Z</time>
      </trkpt>
      <trkpt lat="47.52634" lon="6.71309">
        <ele>366</ele>
        <time>2016-03-20T09:09:49.000Z</time>
      </trkpt>
      <trkpt lat="47.52638" lon="6.71312">
        <ele>366</ele>
        <time>2016-03-20T09:09:50.000Z</time>
      </trkpt>
      <trkpt lat="47.52642" lon="6.71311">
        <ele>366</ele>
        <time>2016-03-20T09:09:51.000Z</time>
      </trkpt>
      <trkpt lat="47.52649" lon="6.71317">
        <ele>367</ele>
        <time>2016-03-20T09:09:52.000Z</time>
      </trkpt>
      <trkpt lat="47.52655" lon="6.71324">
        <ele>368</ele>
        <time>2016-03-20T09:09:53.000Z</time>
      </trkpt>
      <trkpt lat="47.52664" lon="6.71322">
        <ele>368</ele>
        <time>2016-03-20T09:09:54.000Z</time>
      </trkpt>
      <trkpt lat="47.5267" lon="6.71324">
        <ele>369</ele>
        <time>2016-03-20T09:09:55.000Z</time>
      </trkpt>
      <trkpt lat="47.5268" lon="6.7132">
        <ele>368</ele>
        <time>2016-03-20T09:09:56.000Z</time>
      </trkpt>
      <trkpt lat="47.52687" lon="6.71318">
        <ele>367</ele>
        <time>2016-03-20T09:09:57.000Z</time>
      </trkpt>
      <trkpt lat="47.5269" lon="6.71305">
        <ele>366</ele>
        <time>2016-03-20T09:09:58.000Z</time>
      </trkpt>
      <trkpt lat="47.52694" lon="6.71292">
        <ele>365</ele>
        <time>2016-03-20T09:09:59.000Z</time>
      </trkpt>
      <trkpt lat="47.52713" lon="6.71251">
        <ele>364</ele>
        <time>2016-03-20T09:10:01.000Z</time>
      </trkpt>
      <trkpt lat="47.52715" lon="6.71246">
        <ele>361</ele>
        <time>2016-03-20T09:10:02.000Z</time>
      </trkpt>
      <trkpt lat="47.52718" lon="6.71243">
        <ele>361</ele>
        <time>2016-03-20T09:10:03.000Z</time>
      </trkpt>
      <trkpt lat="47.52718" lon="6.71238">
        <ele>361</ele>
        <time>2016-03-20T09:10:05.000Z</time>
      </trkpt>
      <trkpt lat="47.5272" lon="6.71237">
        <ele>361</ele>
        <time>2016-03-20T09:10:06.000Z</time>
      </trkpt>
      <trkpt lat="47.52723" lon="6.71234">
        <ele>361</ele>
        <time>2016-03-20T09:10:07.000Z</time>
      </trkpt>
      <trkpt lat="47.52725" lon="6.71232">
        <ele>361</ele>
        <time>2016-03-20T09:10:08.000Z</time>
      </trkpt>
      <trkpt lat="47.52726" lon="6.71227">
        <ele>361</ele>
        <time>2016-03-20T09:10:10.000Z</time>
      </trkpt>
      <trkpt lat="47.52726" lon="6.71224">
        <ele>361</ele>
        <time>2016-03-20T09:10:11.000Z</time>
      </trkpt>
      <trkpt lat="47.52728" lon="6.71219">
        <ele>361</ele>
        <time>2016-03-20T09:10:22.000Z</time>
      </trkpt>
      <trkpt lat="47.52729" lon="6.71218">
        <ele>361</ele>
        <time>2016-03-20T09:10:23.000Z</time>
      </trkpt>
      <trkpt lat="47.52732" lon="6.71214">
        <ele>361</ele>
        <time>2016-03-20T09:10:26.000Z</time>
      </trkpt>
      <trkpt lat="47.52734" lon="6.71211">
        <ele>361</ele>
        <time>2016-03-20T09:10:27.000Z</time>
      </trkpt>
      <trkpt lat="47.52736" lon="6.71208">
        <ele>361</ele>
        <time>2016-03-20T09:10:28.000Z</time>
      </trkpt>
      <trkpt lat="47.52738" lon="6.71203">
        <ele>361</ele>
        <time>2016-03-20T09:10:29.000Z</time>
      </trkpt>
      <trkpt lat="47.52742" lon="6.71195">
        <ele>361</ele>
        <time>2016-03-20T09:10:30.000Z</time>
      </trkpt>
      <trkpt lat="47.52749" lon="6.71155">
        <ele>360</ele>
        <time>2016-03-20T09:10:31.000Z</time>
      </trkpt>
      <trkpt lat="47.52753" lon="6.71137">
        <ele>356</ele>
        <time>2016-03-20T09:10:32.000Z</time>
      </trkpt>
      <trkpt lat="47.52757" lon="6.71119">
        <ele>355</ele>
        <time>2016-03-20T09:10:33.000Z</time>
      </trkpt>
      <trkpt lat="47.52757" lon="6.71105">
        <ele>355</ele>
        <time>2016-03-20T09:10:34.000Z</time>
      </trkpt>
      <trkpt lat="47.52758" lon="6.7109">
        <ele>354</ele>
        <time>2016-03-20T09:10:35.000Z</time>
      </trkpt>
      <trkpt lat="47.52759" lon="6.71077">
        <ele>354</ele>
        <time>2016-03-20T09:10:36.000Z</time>
      </trkpt>
      <trkpt lat="47.52763" lon="6.71065">
        <ele>354</ele>
        <time>2016-03-20T09:10:37.000Z</time>
      </trkpt>
      <trkpt lat="47.52764" lon="6.71056">
        <ele>354</ele>
        <time>2016-03-20T09:10:38.000Z</time>
      </trkpt>
      <trkpt lat="47.52762" lon="6.71044">
        <ele>354</ele>
        <time>2016-03-20T09:10:39.000Z</time>
      </trkpt>
      <trkpt lat="47.52762" lon="6.71034">
        <ele>354</ele>
        <time>2016-03-20T09:10:40.000Z</time>
      </trkpt>
      <trkpt lat="47.52758" lon="6.71027">
        <ele>354</ele>
        <time>2016-03-20T09:10:41.000Z</time>
      </trkpt>
      <trkpt lat="47.52758" lon="6.71022">
        <ele>354</ele>
        <time>2016-03-20T09:10:42.000Z</time>
      </trkpt>
      <trkpt lat="47.52757" lon="6.71016">
        <ele>353</ele>
        <time>2016-03-20T09:10:43.000Z</time>
      </trkpt>
      <trkpt lat="47.52758" lon="6.71011">
        <ele>353</ele>
        <time>2016-03-20T09:10:44.000Z</time>
      </trkpt>
      <trkpt lat="47.52758" lon="6.71006">
        <ele>353</ele>
        <time>2016-03-20T09:10:45.000Z</time>
      </trkpt>
      <trkpt lat="47.52758" lon="6.70999">
        <ele>352</ele>
        <time>2016-03-20T09:10:46.000Z</time>
      </trkpt>
      <trkpt lat="47.52758" lon="6.70992">
        <ele>353</ele>
        <time>2016-03-20T09:10:47.000Z</time>
      </trkpt>
      <trkpt lat="47.52758" lon="6.70987">
        <ele>353</ele>
        <time>2016-03-20T09:10:48.000Z</time>
      </trkpt>
      <trkpt lat="47.52759" lon="6.70981">
        <ele>353</ele>
        <time>2016-03-20T09:10:49.000Z</time>
      </trkpt>
      <trkpt lat="47.52759" lon="6.70974">
        <ele>353</ele>
        <time>2016-03-20T09:10:50.000Z</time>
      </trkpt>
      <trkpt lat="47.5276" lon="6.70968">
        <ele>353</ele>
        <time>2016-03-20T09:10:51.000Z</time>
      </trkpt>
      <trkpt lat="47.5276" lon="6.70963">
        <ele>353</ele>
        <time>2016-03-20T09:10:52.000Z</time>
      </trkpt>
      <trkpt lat="47.5276" lon="6.70958">
        <ele>353</ele>
        <time>2016-03-20T09:10:53.000Z</time>
      </trkpt>
      <trkpt lat="47.52761" lon="6.70953">
        <ele>353</ele>
        <time>2016-03-20T09:10:54.000Z</time>
      </trkpt>
      <trkpt lat="47.52761" lon="6.70948">
        <ele>353</ele>
        <time>2016-03-20T09:10:55.000Z</time>
      </trkpt>
      <trkpt lat="47.52762" lon="6.70943">
        <ele>353</ele>
        <time>2016-03-20T09:10:56.000Z</time>
      </trkpt>
      <trkpt lat="47.52764" lon="6.70938">
        <ele>353</ele>
        <time>2016-03-20T09:10:57.000Z</time>
      </trkpt>
      <trkpt lat="47.52765" lon="6.70932">
        <ele>352</ele>
        <time>2016-03-20T09:10:58.000Z</time>
      </trkpt>
      <trkpt lat="47.52767" lon="6.70926">
        <ele>352</ele>
        <time>2016-03-20T09:10:59.000Z</time>
      </trkpt>
      <trkpt lat="47.52772" lon="6.70916">
        <ele>353</ele>
        <time>2016-03-20T09:11:00.000Z</time>
      </trkpt>
      <trkpt lat="47.5277" lon="6.70908">
        <ele>353</ele>
        <time>2016-03-20T09:11:01.000Z</time>
      </trkpt>
      <trkpt lat="47.52769" lon="6.70901">
        <ele>353</ele>
        <time>2016-03-20T09:11:02.000Z</time>
      </trkpt>
      <trkpt lat="47.5277" lon="6.70896">
        <ele>353</ele>
        <time>2016-03-20T09:11:03.000Z</time>
      </trkpt>
      <trkpt lat="47.52765" lon="6.70888">
        <ele>353</ele>
        <time>2016-03-20T09:11:04.000Z</time>
      </trkpt>
      <trkpt lat="47.52766" lon="6.70883">
        <ele>353</ele>
        <time>2016-03-20T09:11:05.000Z</time>
      </trkpt>
      <trkpt lat="47.52762" lon="6.70875">
        <ele>353</ele>
        <time>2016-03-20T09:11:06.000Z</time>
      </trkpt>
      <trkpt lat="47.52762" lon="6.70868">
        <ele>353</ele>
        <time>2016-03-20T09:11:07.000Z</time>
      </trkpt>
      <trkpt lat="47.52762" lon="6.70864">
        <ele>354</ele>
        <time>2016-03-20T09:11:08.000Z</time>
      </trkpt>
      <trkpt lat="47.52765" lon="6.7086">
        <ele>354</ele>
        <time>2016-03-20T09:11:09.000Z</time>
      </trkpt>
      <trkpt lat="47.52766" lon="6.70854">
        <ele>354</ele>
        <time>2016-03-20T09:11:10.000Z</time>
      </trkpt>
      <trkpt lat="47.52767" lon="6.70849">
        <ele>354</ele>
        <time>2016-03-20T09:11:11.000Z</time>
      </trkpt>
      <trkpt lat="47.52768" lon="6.70844">
        <ele>354</ele>
        <time>2016-03-20T09:11:12.000Z</time>
      </trkpt>
      <trkpt lat="47.5277" lon="6.70838">
        <ele>354</ele>
        <time>2016-03-20T09:11:13.000Z</time>
      </trkpt>
      <trkpt lat="47.52771" lon="6.70833">
        <ele>354</ele>
        <time>2016-03-20T09:11:14.000Z</time>
      </trkpt>
      <trkpt lat="47.52772" lon="6.70827">
        <ele>354</ele>
        <time>2016-03-20T09:11:15.000Z</time>
      </trkpt>
      <trkpt lat="47.52773" lon="6.70822">
        <ele>354</ele>
        <time>2016-03-20T09:11:16.000Z</time>
      </trkpt>
      <trkpt lat="47.52774" lon="6.70817">
        <ele>354</ele>
        <time>2016-03-20T09:11:17.000Z</time>
      </trkpt>
      <trkpt lat="47.52774" lon="6.70811">
        <ele>354</ele>
        <time>2016-03-20T09:11:18.000Z</time>
      </trkpt>
      <trkpt lat="47.52775" lon="6.70806">
        <ele>355</ele>
        <time>2016-03-20T09:11:19.000Z</time>
      </trkpt>
      <trkpt lat="47.52775" lon="6.70801">
        <ele>355</ele>
        <time>2016-03-20T09:11:20.000Z</time>
      </trkpt>
      <trkpt lat="47.52775" lon="6.70796">
        <ele>355</ele>
        <time>2016-03-20T09:11:21.000Z</time>
      </trkpt>
      <trkpt lat="47.52774" lon="6.70791">
        <ele>355</ele>
        <time>2016-03-20T09:11:22.000Z</time>
      </trkpt>
      <trkpt lat="47.52775" lon="6.70785">
        <ele>355</ele>
        <time>2016-03-20T09:11:23.000Z</time>
      </trkpt>
      <trkpt lat="47.52775" lon="6.70768">
        <ele>355</ele>
        <time>2016-03-20T09:11:24.000Z</time>
      </trkpt>
      <trkpt lat="47.5278" lon="6.70759">
        <ele>355</ele>
        <time>2016-03-20T09:11:25.000Z</time>
      </trkpt>
      <trkpt lat="47.52782" lon="6.70752">
        <ele>355</ele>
        <time>2016-03-20T09:11:26.000Z</time>
      </trkpt>
      <trkpt lat="47.52784" lon="6.70746">
        <ele>354</ele>
        <time>2016-03-20T09:11:27.000Z</time>
      </trkpt>
      <trkpt lat="47.52785" lon="6.7074">
        <ele>354</ele>
        <time>2016-03-20T09:11:28.000Z</time>
      </trkpt>
      <trkpt lat="47.52789" lon="6.70735">
        <ele>354</ele>
        <time>2016-03-20T09:11:29.000Z</time>
      </trkpt>
      <trkpt lat="47.52789" lon="6.7073">
        <ele>354</ele>
        <time>2016-03-20T09:11:30.000Z</time>
      </trkpt>
      <trkpt lat="47.52794" lon="6.70724">
        <ele>354</ele>
        <time>2016-03-20T09:11:31.000Z</time>
      </trkpt>
      <trkpt lat="47.52798" lon="6.70718">
        <ele>354</ele>
        <time>2016-03-20T09:11:32.000Z</time>
      </trkpt>
      <trkpt lat="47.528" lon="6.70712">
        <ele>354</ele>
        <time>2016-03-20T09:11:33.000Z</time>
      </trkpt>
      <trkpt lat="47.52799" lon="6.70707">
        <ele>354</ele>
        <time>2016-03-20T09:11:34.000Z</time>
      </trkpt>
      <trkpt lat="47.52798" lon="6.70702">
        <ele>354</ele>
        <time>2016-03-20T09:11:35.000Z</time>
      </trkpt>
      <trkpt lat="47.52797" lon="6.70696">
        <ele>354</ele>
        <time>2016-03-20T09:11:36.000Z</time>
      </trkpt>
      <trkpt lat="47.52795" lon="6.70691">
        <ele>354</ele>
        <time>2016-03-20T09:11:37.000Z</time>
      </trkpt>
      <trkpt lat="47.52792" lon="6.70685">
        <ele>354</ele>
        <time>2016-03-20T09:11:38.000Z</time>
      </trkpt>
      <trkpt lat="47.52793" lon="6.70678">
        <ele>353</ele>
        <time>2016-03-20T09:11:39.000Z</time>
      </trkpt>
      <trkpt lat="47.52791" lon="6.70669">
        <ele>353</ele>
        <time>2016-03-20T09:11:40.000Z</time>
      </trkpt>
      <trkpt lat="47.52791" lon="6.70663">
        <ele>352</ele>
        <time>2016-03-20T09:11:41.000Z</time>
      </trkpt>
      <trkpt lat="47.52791" lon="6.70658">
        <ele>352</ele>
        <time>2016-03-20T09:11:42.000Z</time>
      </trkpt>
      <trkpt lat="47.52792" lon="6.70652">
        <ele>352</ele>
        <time>2016-03-20T09:11:43.000Z</time>
      </trkpt>
      <trkpt lat="47.52792" lon="6.70647">
        <ele>351</ele>
        <time>2016-03-20T09:11:44.000Z</time>
      </trkpt>
      <trkpt lat="47.52792" lon="6.70642">
        <ele>351</ele>
        <time>2016-03-20T09:11:45.000Z</time>
      </trkpt>
      <trkpt lat="47.52792" lon="6.70638">
        <ele>351</ele>
        <time>2016-03-20T09:11:46.000Z</time>
      </trkpt>
      <trkpt lat="47.52792" lon="6.70633">
        <ele>351</ele>
        <time>2016-03-20T09:11:47.000Z</time>
      </trkpt>
      <trkpt lat="47.52791" lon="6.70628">
        <ele>351</ele>
        <time>2016-03-20T09:11:48.000Z</time>
      </trkpt>
      <trkpt lat="47.5279" lon="6.70624">
        <ele>351</ele>
        <time>2016-03-20T09:11:49.000Z</time>
      </trkpt>
      <trkpt lat="47.52788" lon="6.70621">
        <ele>351</ele>
        <time>2016-03-20T09:11:50.000Z</time>
      </trkpt>
      <trkpt lat="47.52785" lon="6.70619">
        <ele>351</ele>
        <time>2016-03-20T09:11:51.000Z</time>
      </trkpt>
      <trkpt lat="47.52767" lon="6.70616">
        <ele>351</ele>
        <time>2016-03-20T09:11:52.000Z</time>
      </trkpt>
      <trkpt lat="47.52772" lon="6.70616">
        <ele>351</ele>
        <time>2016-03-20T09:11:53.000Z</time>
      </trkpt>
      <trkpt lat="47.52775" lon="6.70616">
        <ele>351</ele>
        <time>2016-03-20T09:11:54.000Z</time>
      </trkpt>
      <trkpt lat="47.52777" lon="6.70615">
        <ele>351</ele>
        <time>2016-03-20T09:11:55.000Z</time>
      </trkpt>
      <trkpt lat="47.52782" lon="6.70614">
        <ele>351</ele>
        <time>2016-03-20T09:11:57.000Z</time>
      </trkpt>
      <trkpt lat="47.52783" lon="6.70612">
        <ele>351</ele>
        <time>2016-03-20T09:11:58.000Z</time>
      </trkpt>
      <trkpt lat="47.52785" lon="6.70607">
        <ele>351</ele>
        <time>2016-03-20T09:11:59.000Z</time>
      </trkpt>
      <trkpt lat="47.52787" lon="6.70601">
        <ele>350</ele>
        <time>2016-03-20T09:12:00.000Z</time>
      </trkpt>
      <trkpt lat="47.52788" lon="6.70595">
        <ele>350</ele>
        <time>2016-03-20T09:12:01.000Z</time>
      </trkpt>
      <trkpt lat="47.5279" lon="6.70589">
        <ele>350</ele>
        <time>2016-03-20T09:12:02.000Z</time>
      </trkpt>
      <trkpt lat="47.52792" lon="6.70584">
        <ele>350</ele>
        <time>2016-03-20T09:12:03.000Z</time>
      </trkpt>
      <trkpt lat="47.52793" lon="6.70581">
        <ele>348</ele>
        <time>2016-03-20T09:12:04.000Z</time>
      </trkpt>
      <trkpt lat="47.52794" lon="6.70577">
        <ele>348</ele>
        <time>2016-03-20T09:12:06.000Z</time>
      </trkpt>
      <trkpt lat="47.52798" lon="6.70577">
        <ele>348</ele>
        <time>2016-03-20T09:12:10.000Z</time>
      </trkpt>
      <trkpt lat="47.528" lon="6.70577">
        <ele>349</ele>
        <time>2016-03-20T09:12:11.000Z</time>
      </trkpt>
      <trkpt lat="47.52802" lon="6.70578">
        <ele>349</ele>
        <time>2016-03-20T09:12:12.000Z</time>
      </trkpt>
      <trkpt lat="47.52803" lon="6.70582">
        <ele>349</ele>
        <time>2016-03-20T09:12:13.000Z</time>
      </trkpt>
      <trkpt lat="47.52806" lon="6.70585">
        <ele>350</ele>
        <time>2016-03-20T09:12:14.000Z</time>
      </trkpt>
      <trkpt lat="47.52808" lon="6.70589">
        <ele>350</ele>
        <time>2016-03-20T09:12:15.000Z</time>
      </trkpt>
      <trkpt lat="47.52811" lon="6.70592">
        <ele>350</ele>
        <time>2016-03-20T09:12:16.000Z</time>
      </trkpt>
      <trkpt lat="47.52814" lon="6.70595">
        <ele>350</ele>
        <time>2016-03-20T09:12:17.001Z</time>
      </trkpt>
      <trkpt lat="47.52817" lon="6.70598">
        <ele>350</ele>
        <time>2016-03-20T09:12:19.000Z</time>
      </trkpt>
      <trkpt lat="47.52818" lon="6.706">
        <ele>351</ele>
        <time>2016-03-20T09:12:20.000Z</time>
      </trkpt>
      <trkpt lat="47.5282" lon="6.70604">
        <ele>351</ele>
        <time>2016-03-20T09:12:24.000Z</time>
      </trkpt>
      <trkpt lat="47.52821" lon="6.70604">
        <ele>351</ele>
        <time>2016-03-20T09:12:25.000Z</time>
      </trkpt>
      <trkpt lat="47.52824" lon="6.70602">
        <ele>351</ele>
        <time>2016-03-20T09:12:28.000Z</time>
      </trkpt>
      <trkpt lat="47.52826" lon="6.706">
        <ele>350</ele>
        <time>2016-03-20T09:12:29.000Z</time>
      </trkpt>
      <trkpt lat="47.52828" lon="6.70597">
        <ele>350</ele>
        <time>2016-03-20T09:12:30.000Z</time>
      </trkpt>
      <trkpt lat="47.5283" lon="6.70595">
        <ele>350</ele>
        <time>2016-03-20T09:12:31.000Z</time>
      </trkpt>
      <trkpt lat="47.52832" lon="6.70591">
        <ele>350</ele>
        <time>2016-03-20T09:12:32.000Z</time>
      </trkpt>
      <trkpt lat="47.52834" lon="6.70588">
        <ele>352</ele>
        <time>2016-03-20T09:12:33.000Z</time>
      </trkpt>
      <trkpt lat="47.52836" lon="6.70584">
        <ele>351</ele>
        <time>2016-03-20T09:12:34.000Z</time>
      </trkpt>
      <trkpt lat="47.52837" lon="6.70581">
        <ele>351</ele>
        <time>2016-03-20T09:12:35.000Z</time>
      </trkpt>
      <trkpt lat="47.5284" lon="6.70577">
        <ele>352</ele>
        <time>2016-03-20T09:12:36.000Z</time>
      </trkpt>
      <trkpt lat="47.52842" lon="6.70573">
        <ele>353</ele>
        <time>2016-03-20T09:12:37.000Z</time>
      </trkpt>
      <trkpt lat="47.52844" lon="6.7057">
        <ele>353</ele>
        <time>2016-03-20T09:12:38.000Z</time>
      </trkpt>
      <trkpt lat="47.52844" lon="6.70566">
        <ele>354</ele>
        <time>2016-03-20T09:12:39.000Z</time>
      </trkpt>
      <trkpt lat="47.52845" lon="6.7056">
        <ele>354</ele>
        <time>2016-03-20T09:12:41.000Z</time>
      </trkpt>
      <trkpt lat="47.52845" lon="6.70556">
        <ele>354</ele>
        <time>2016-03-20T09:12:42.000Z</time>
      </trkpt>
      <trkpt lat="47.52846" lon="6.70553">
        <ele>355</ele>
        <time>2016-03-20T09:12:43.000Z</time>
      </trkpt>
      <trkpt lat="47.52846" lon="6.70549">
        <ele>355</ele>
        <time>2016-03-20T09:12:44.000Z</time>
      </trkpt>
      <trkpt lat="47.52846" lon="6.70545">
        <ele>355</ele>
        <time>2016-03-20T09:12:45.000Z</time>
      </trkpt>
      <trkpt lat="47.52847" lon="6.70541">
        <ele>355</ele>
        <time>2016-03-20T09:12:46.000Z</time>
      </trkpt>
      <trkpt lat="47.52848" lon="6.70537">
        <ele>355</ele>
        <time>2016-03-20T09:12:47.000Z</time>
      </trkpt>
      <trkpt lat="47.52849" lon="6.70533">
        <ele>355</ele>
        <time>2016-03-20T09:12:48.000Z</time>
      </trkpt>
      <trkpt lat="47.5285" lon="6.70529">
        <ele>355</ele>
        <time>2016-03-20T09:12:49.000Z</time>
      </trkpt>
      <trkpt lat="47.52851" lon="6.70526">
        <ele>355</ele>
        <time>2016-03-20T09:12:50.000Z</time>
      </trkpt>
      <trkpt lat="47.52852" lon="6.70523">
        <ele>354</ele>
        <time>2016-03-20T09:12:51.000Z</time>
      </trkpt>
      <trkpt lat="47.52852" lon="6.70519">
        <ele>354</ele>
        <time>2016-03-20T09:12:52.000Z</time>
      </trkpt>
      <trkpt lat="47.52853" lon="6.70516">
        <ele>354</ele>
        <time>2016-03-20T09:12:53.000Z</time>
      </trkpt>
      <trkpt lat="47.52853" lon="6.70512">
        <ele>354</ele>
        <time>2016-03-20T09:12:54.000Z</time>
      </trkpt>
      <trkpt lat="47.52853" lon="6.70508">
        <ele>354</ele>
        <time>2016-03-20T09:12:55.000Z</time>
      </trkpt>
      <trkpt lat="47.52854" lon="6.70505">
        <ele>354</ele>
        <time>2016-03-20T09:12:56.000Z</time>
      </trkpt>
      <trkpt lat="47.52854" lon="6.70501">
        <ele>354</ele>
        <time>2016-03-20T09:12:57.000Z</time>
      </trkpt>
      <trkpt lat="47.52854" lon="6.70498">
        <ele>351</ele>
        <time>2016-03-20T09:12:58.000Z</time>
      </trkpt>
      <trkpt lat="47.52855" lon="6.70494">
        <ele>351</ele>
        <time>2016-03-20T09:12:59.000Z</time>
      </trkpt>
      <trkpt lat="47.52855" lon="6.70491">
        <ele>351</ele>
        <time>2016-03-20T09:13:00.000Z</time>
      </trkpt>
      <trkpt lat="47.52854" lon="6.70484">
        <ele>351</ele>
        <time>2016-03-20T09:13:02.000Z</time>
      </trkpt>
      <trkpt lat="47.52854" lon="6.70481">
        <ele>351</ele>
        <time>2016-03-20T09:13:03.000Z</time>
      </trkpt>
      <trkpt lat="47.52853" lon="6.70475">
        <ele>351</ele>
        <time>2016-03-20T09:13:05.000Z</time>
      </trkpt>
      <trkpt lat="47.52853" lon="6.70473">
        <ele>351</ele>
        <time>2016-03-20T09:13:06.000Z</time>
      </trkpt>
      <trkpt lat="47.52852" lon="6.70467">
        <ele>351</ele>
        <time>2016-03-20T09:13:08.000Z</time>
      </trkpt>
      <trkpt lat="47.52852" lon="6.70463">
        <ele>351</ele>
        <time>2016-03-20T09:13:09.000Z</time>
      </trkpt>
      <trkpt lat="47.52856" lon="6.70464">
        <ele>351</ele>
        <time>2016-03-20T09:13:19.000Z</time>
      </trkpt>
      <trkpt lat="47.52856" lon="6.70465">
        <ele>351</ele>
        <time>2016-03-20T09:13:20.000Z</time>
      </trkpt>
      <trkpt lat="47.5286" lon="6.70465">
        <ele>352</ele>
        <time>2016-03-20T09:13:32.000Z</time>
      </trkpt>
      <trkpt lat="47.52861" lon="6.70465">
        <ele>352</ele>
        <time>2016-03-20T09:13:33.000Z</time>
      </trkpt>
      <trkpt lat="47.52865" lon="6.70463">
        <ele>352</ele>
        <time>2016-03-20T09:13:39.000Z</time>
      </trkpt>
      <trkpt lat="47.52865" lon="6.70463">
        <ele>352</ele>
        <time>2016-03-20T09:13:40.000Z</time>
      </trkpt>
      <trkpt lat="47.52869" lon="6.70462">
        <ele>352</ele>
        <time>2016-03-20T09:13:44.000Z</time>
      </trkpt>
      <trkpt lat="47.52871" lon="6.70461">
        <ele>352</ele>
        <time>2016-03-20T09:13:45.000Z</time>
      </trkpt>
      <trkpt lat="47.52874" lon="6.7046">
        <ele>352</ele>
        <time>2016-03-20T09:13:47.000Z</time>
      </trkpt>
      <trkpt lat="47.52875" lon="6.7046">
        <ele>352</ele>
        <time>2016-03-20T09:13:48.000Z</time>
      </trkpt>
      <trkpt lat="47.52879" lon="6.70462">
        <ele>353</ele>
        <time>2016-03-20T09:13:51.000Z</time>
      </trkpt>
      <trkpt lat="47.52881" lon="6.70462">
        <ele>353</ele>
        <time>2016-03-20T09:13:52.000Z</time>
      </trkpt>
      <trkpt lat="47.52885" lon="6.7046">
        <ele>353</ele>
        <time>2016-03-20T09:13:57.000Z</time>
      </trkpt>
      <trkpt lat="47.52885" lon="6.7046">
        <ele>353</ele>
        <time>2016-03-20T09:13:58.000Z</time>
      </trkpt>
      <trkpt lat="47.52888" lon="6.70458">
        <ele>353</ele>
        <time>2016-03-20T09:14:01.000Z</time>
      </trkpt>
      <trkpt lat="47.52889" lon="6.70457">
        <ele>353</ele>
        <time>2016-03-20T09:14:02.000Z</time>
      </trkpt>
      <trkpt lat="47.52893" lon="6.70455">
        <ele>353</ele>
        <time>2016-03-20T09:14:08.000Z</time>
      </trkpt>
      <trkpt lat="47.52894" lon="6.70455">
        <ele>353</ele>
        <time>2016-03-20T09:14:09.000Z</time>
      </trkpt>
      <trkpt lat="47.52897" lon="6.70455">
        <ele>353</ele>
        <time>2016-03-20T09:14:16.000Z</time>
      </trkpt>
      <trkpt lat="47.52899" lon="6.70455">
        <ele>353</ele>
        <time>2016-03-20T09:14:17.000Z</time>
      </trkpt>
      <trkpt lat="47.52902" lon="6.70455">
        <ele>353</ele>
        <time>2016-03-20T09:14:19.000Z</time>
      </trkpt>
      <trkpt lat="47.52903" lon="6.70455">
        <ele>353</ele>
        <time>2016-03-20T09:14:20.000Z</time>
      </trkpt>
      <trkpt lat="47.52907" lon="6.70456">
        <ele>354</ele>
        <time>2016-03-20T09:14:22.000Z</time>
      </trkpt>
      <trkpt lat="47.52909" lon="6.70455">
        <ele>354</ele>
        <time>2016-03-20T09:14:23.000Z</time>
      </trkpt>
      <trkpt lat="47.52913" lon="6.70454">
        <ele>354</ele>
        <time>2016-03-20T09:14:25.000Z</time>
      </trkpt>
      <trkpt lat="47.52914" lon="6.70453">
        <ele>354</ele>
        <time>2016-03-20T09:14:26.000Z</time>
      </trkpt>
      <trkpt lat="47.52918" lon="6.70453">
        <ele>360</ele>
        <time>2016-03-20T09:14:28.000Z</time>
      </trkpt>
      <trkpt lat="47.5292" lon="6.70453">
        <ele>360</ele>
        <time>2016-03-20T09:14:29.000Z</time>
      </trkpt>
      <trkpt lat="47.52923" lon="6.70454">
        <ele>360</ele>
        <time>2016-03-20T09:14:30.000Z</time>
      </trkpt>
      <trkpt lat="47.52925" lon="6.70455">
        <ele>361</ele>
        <time>2016-03-20T09:14:31.000Z</time>
      </trkpt>
      <trkpt lat="47.52927" lon="6.70456">
        <ele>361</ele>
        <time>2016-03-20T09:14:32.000Z</time>
      </trkpt>
      <trkpt lat="47.5293" lon="6.70457">
        <ele>361</ele>
        <time>2016-03-20T09:14:33.000Z</time>
      </trkpt>
      <trkpt lat="47.52932" lon="6.70457">
        <ele>361</ele>
        <time>2016-03-20T09:14:34.000Z</time>
      </trkpt>
      <trkpt lat="47.52934" lon="6.70458">
        <ele>361</ele>
        <time>2016-03-20T09:14:35.000Z</time>
      </trkpt>
      <trkpt lat="47.52936" lon="6.70459">
        <ele>362</ele>
        <time>2016-03-20T09:14:36.000Z</time>
      </trkpt>
      <trkpt lat="47.52938" lon="6.70459">
        <ele>362</ele>
        <time>2016-03-20T09:14:37.000Z</time>
      </trkpt>
      <trkpt lat="47.52942" lon="6.70461">
        <ele>362</ele>
        <time>2016-03-20T09:14:39.000Z</time>
      </trkpt>
      <trkpt lat="47.52945" lon="6.70462">
        <ele>362</ele>
        <time>2016-03-20T09:14:40.000Z</time>
      </trkpt>
      <trkpt lat="47.5295" lon="6.70462">
        <ele>363</ele>
        <time>2016-03-20T09:14:43.000Z</time>
      </trkpt>
      <trkpt lat="47.5295" lon="6.70464">
        <ele>363</ele>
        <time>2016-03-20T09:14:44.000Z</time>
      </trkpt>
      <trkpt lat="47.52954" lon="6.70466">
        <ele>363</ele>
        <time>2016-03-20T09:14:47.000Z</time>
      </trkpt>
      <trkpt lat="47.52956" lon="6.70466">
        <ele>363</ele>
        <time>2016-03-20T09:14:48.000Z</time>
      </trkpt>
      <trkpt lat="47.5296" lon="6.70467">
        <ele>364</ele>
        <time>2016-03-20T09:14:51.000Z</time>
      </trkpt>
      <trkpt lat="47.52961" lon="6.70467">
        <ele>364</ele>
        <time>2016-03-20T09:14:52.000Z</time>
      </trkpt>
      <trkpt lat="47.52965" lon="6.70468">
        <ele>364</ele>
        <time>2016-03-20T09:14:56.000Z</time>
      </trkpt>
      <trkpt lat="47.52966" lon="6.70468">
        <ele>364</ele>
        <time>2016-03-20T09:14:57.000Z</time>
      </trkpt>
      <trkpt lat="47.5297" lon="6.7047">
        <ele>365</ele>
        <time>2016-03-20T09:15:01.000Z</time>
      </trkpt>
      <trkpt lat="47.5297" lon="6.70471">
        <ele>365</ele>
        <time>2016-03-20T09:15:02.000Z</time>
      </trkpt>
      <trkpt lat="47.52973" lon="6.70474">
        <ele>365</ele>
        <time>2016-03-20T09:15:05.000Z</time>
      </trkpt>
      <trkpt lat="47.52974" lon="6.70475">
        <ele>365</ele>
        <time>2016-03-20T09:15:06.000Z</time>
      </trkpt>
      <trkpt lat="47.52978" lon="6.70475">
        <ele>366</ele>
        <time>2016-03-20T09:15:10.000Z</time>
      </trkpt>
      <trkpt lat="47.52979" lon="6.70475">
        <ele>366</ele>
        <time>2016-03-20T09:15:11.000Z</time>
      </trkpt>
      <trkpt lat="47.52983" lon="6.70477">
        <ele>366</ele>
        <time>2016-03-20T09:15:14.000Z</time>
      </trkpt>
      <trkpt lat="47.52984" lon="6.70477">
        <ele>366</ele>
        <time>2016-03-20T09:15:15.000Z</time>
      </trkpt>
      <trkpt lat="47.52988" lon="6.70479">
        <ele>367</ele>
        <time>2016-03-20T09:15:24.000Z</time>
      </trkpt>
      <trkpt lat="47.52989" lon="6.7048">
        <ele>367</ele>
        <time>2016-03-20T09:15:25.000Z</time>
      </trkpt>
      <trkpt lat="47.52991" lon="6.70483">
        <ele>368</ele>
        <time>2016-03-20T09:15:27.000Z</time>
      </trkpt>
      <trkpt lat="47.52993" lon="6.70485">
        <ele>368</ele>
        <time>2016-03-20T09:15:28.000Z</time>
      </trkpt>
      <trkpt lat="47.52996" lon="6.70487">
        <ele>369</ele>
        <time>2016-03-20T09:15:29.000Z</time>
      </trkpt>
      <trkpt lat="47.52998" lon="6.70489">
        <ele>369</ele>
        <time>2016-03-20T09:15:30.000Z</time>
      </trkpt>
      <trkpt lat="47.53" lon="6.70491">
        <ele>374</ele>
        <time>2016-03-20T09:15:31.000Z</time>
      </trkpt>
      <trkpt lat="47.53002" lon="6.70492">
        <ele>374</ele>
        <time>2016-03-20T09:15:32.000Z</time>
      </trkpt>
      <trkpt lat="47.53006" lon="6.70495">
        <ele>374</ele>
        <time>2016-03-20T09:15:34.000Z</time>
      </trkpt>
      <trkpt lat="47.53007" lon="6.70497">
        <ele>374</ele>
        <time>2016-03-20T09:15:35.000Z</time>
      </trkpt>
      <trkpt lat="47.5301" lon="6.70499">
        <ele>375</ele>
        <time>2016-03-20T09:15:37.000Z</time>
      </trkpt>
      <trkpt lat="47.53012" lon="6.705">
        <ele>377</ele>
        <time>2016-03-20T09:15:38.000Z</time>
      </trkpt>
      <trkpt lat="47.53015" lon="6.70502">
        <ele>378</ele>
        <time>2016-03-20T09:15:40.000Z</time>
      </trkpt>
      <trkpt lat="47.53016" lon="6.70502">
        <ele>379</ele>
        <time>2016-03-20T09:15:41.000Z</time>
      </trkpt>
      <trkpt lat="47.53019" lon="6.70504">
        <ele>380</ele>
        <time>2016-03-20T09:15:43.000Z</time>
      </trkpt>
      <trkpt lat="47.53021" lon="6.70504">
        <ele>380</ele>
        <time>2016-03-20T09:15:44.000Z</time>
      </trkpt>
      <trkpt lat="47.53025" lon="6.70505">
        <ele>381</ele>
        <time>2016-03-20T09:15:46.000Z</time>
      </trkpt>
      <trkpt lat="47.53027" lon="6.70505">
        <ele>381</ele>
        <time>2016-03-20T09:15:47.000Z</time>
      </trkpt>
      <trkpt lat="47.53031" lon="6.70504">
        <ele>382</ele>
        <time>2016-03-20T09:15:50.000Z</time>
      </trkpt>
      <trkpt lat="47.53032" lon="6.70504">
        <ele>382</ele>
        <time>2016-03-20T09:15:51.000Z</time>
      </trkpt>
      <trkpt lat="47.53035" lon="6.70507">
        <ele>383</ele>
        <time>2016-03-20T09:15:54.000Z</time>
      </trkpt>
      <trkpt lat="47.53036" lon="6.70508">
        <ele>383</ele>
        <time>2016-03-20T09:15:55.000Z</time>
      </trkpt>
      <trkpt lat="47.53039" lon="6.70509">
        <ele>383</ele>
        <time>2016-03-20T09:15:57.000Z</time>
      </trkpt>
      <trkpt lat="47.53041" lon="6.70509">
        <ele>384</ele>
        <time>2016-03-20T09:15:58.000Z</time>
      </trkpt>
      <trkpt lat="47.53044" lon="6.7051">
        <ele>384</ele>
        <time>2016-03-20T09:16:00.000Z</time>
      </trkpt>
      <trkpt lat="47.53046" lon="6.7051">
        <ele>384</ele>
        <time>2016-03-20T09:16:01.000Z</time>
      </trkpt>
      <trkpt lat="47.5305" lon="6.70511">
        <ele>385</ele>
        <time>2016-03-20T09:16:09.000Z</time>
      </trkpt>
      <trkpt lat="47.53051" lon="6.70511">
        <ele>385</ele>
        <time>2016-03-20T09:16:10.000Z</time>
      </trkpt>
      <trkpt lat="47.53055" lon="6.70512">
        <ele>385</ele>
        <time>2016-03-20T09:16:13.000Z</time>
      </trkpt>
      <trkpt lat="47.53056" lon="6.70512">
        <ele>386</ele>
        <time>2016-03-20T09:16:14.000Z</time>
      </trkpt>
      <trkpt lat="47.5306" lon="6.70511">
        <ele>386</ele>
        <time>2016-03-20T09:16:17.000Z</time>
      </trkpt>
      <trkpt lat="47.53061" lon="6.7051">
        <ele>386</ele>
        <time>2016-03-20T09:16:18.000Z</time>
      </trkpt>
      <trkpt lat="47.53064" lon="6.70508">
        <ele>387</ele>
        <time>2016-03-20T09:16:22.000Z</time>
      </trkpt>
      <trkpt lat="47.53065" lon="6.70507">
        <ele>387</ele>
        <time>2016-03-20T09:16:23.000Z</time>
      </trkpt>
      <trkpt lat="47.53068" lon="6.70506">
        <ele>387</ele>
        <time>2016-03-20T09:16:25.000Z</time>
      </trkpt>
      <trkpt lat="47.5307" lon="6.70506">
        <ele>387</ele>
        <time>2016-03-20T09:16:26.000Z</time>
      </trkpt>
      <trkpt lat="47.53074" lon="6.70504">
        <ele>388</ele>
        <time>2016-03-20T09:16:32.000Z</time>
      </trkpt>
      <trkpt lat="47.53074" lon="6.70504">
        <ele>388</ele>
        <time>2016-03-20T09:16:33.000Z</time>
      </trkpt>
      <trkpt lat="47.53078" lon="6.70501">
        <ele>389</ele>
        <time>2016-03-20T09:16:41.000Z</time>
      </trkpt>
      <trkpt lat="47.53079" lon="6.705">
        <ele>389</ele>
        <time>2016-03-20T09:16:42.000Z</time>
      </trkpt>
      <trkpt lat="47.53082" lon="6.70498">
        <ele>389</ele>
        <time>2016-03-20T09:16:44.000Z</time>
      </trkpt>
      <trkpt lat="47.53083" lon="6.70497">
        <ele>389</ele>
        <time>2016-03-20T09:16:45.000Z</time>
      </trkpt>
      <trkpt lat="47.53087" lon="6.70496">
        <ele>390</ele>
        <time>2016-03-20T09:16:49.000Z</time>
      </trkpt>
      <trkpt lat="47.53088" lon="6.70494">
        <ele>391</ele>
        <time>2016-03-20T09:16:50.000Z</time>
      </trkpt>
      <trkpt lat="47.53089" lon="6.70491">
        <ele>391</ele>
        <time>2016-03-20T09:16:51.000Z</time>
      </trkpt>
      <trkpt lat="47.5309" lon="6.70487">
        <ele>391</ele>
        <time>2016-03-20T09:16:52.000Z</time>
      </trkpt>
      <trkpt lat="47.53091" lon="6.70484">
        <ele>391</ele>
        <time>2016-03-20T09:16:53.000Z</time>
      </trkpt>
      <trkpt lat="47.53092" lon="6.70481">
        <ele>391</ele>
        <time>2016-03-20T09:16:54.000Z</time>
      </trkpt>
      <trkpt lat="47.53093" lon="6.70477">
        <ele>391</ele>
        <time>2016-03-20T09:16:56.000Z</time>
      </trkpt>
      <trkpt lat="47.53095" lon="6.70474">
        <ele>391</ele>
        <time>2016-03-20T09:16:57.000Z</time>
      </trkpt>
      <trkpt lat="47.53098" lon="6.70472">
        <ele>391</ele>
        <time>2016-03-20T09:16:59.000Z</time>
      </trkpt>
      <trkpt lat="47.53099" lon="6.70471">
        <ele>391</ele>
        <time>2016-03-20T09:17:00.000Z</time>
      </trkpt>
      <trkpt lat="47.53102" lon="6.70468">
        <ele>391</ele>
        <time>2016-03-20T09:17:02.000Z</time>
      </trkpt>
      <trkpt lat="47.53103" lon="6.70467">
        <ele>391</ele>
        <time>2016-03-20T09:17:03.000Z</time>
      </trkpt>
      <trkpt lat="47.53106" lon="6.70464">
        <ele>391</ele>
        <time>2016-03-20T09:17:05.000Z</time>
      </trkpt>
      <trkpt lat="47.53107" lon="6.70463">
        <ele>391</ele>
        <time>2016-03-20T09:17:06.000Z</time>
      </trkpt>
      <trkpt lat="47.53111" lon="6.7046">
        <ele>391</ele>
        <time>2016-03-20T09:17:09.000Z</time>
      </trkpt>
      <trkpt lat="47.53112" lon="6.70459">
        <ele>391</ele>
        <time>2016-03-20T09:17:10.000Z</time>
      </trkpt>
      <trkpt lat="47.53116" lon="6.70459">
        <ele>392</ele>
        <time>2016-03-20T09:17:13.000Z</time>
      </trkpt>
      <trkpt lat="47.53117" lon="6.70459">
        <ele>392</ele>
        <time>2016-03-20T09:17:14.000Z</time>
      </trkpt>
      <trkpt lat="47.53121" lon="6.70458">
        <ele>392</ele>
        <time>2016-03-20T09:17:17.000Z</time>
      </trkpt>
      <trkpt lat="47.53122" lon="6.70457">
        <ele>392</ele>
        <time>2016-03-20T09:17:18.000Z</time>
      </trkpt>
      <trkpt lat="47.53126" lon="6.70457">
        <ele>393</ele>
        <time>2016-03-20T09:17:21.000Z</time>
      </trkpt>
      <trkpt lat="47.53127" lon="6.70457">
        <ele>393</ele>
        <time>2016-03-20T09:17:22.000Z</time>
      </trkpt>
      <trkpt lat="47.5313" lon="6.70455">
        <ele>393</ele>
        <time>2016-03-20T09:17:24.000Z</time>
      </trkpt>
      <trkpt lat="47.53131" lon="6.70453">
        <ele>393</ele>
        <time>2016-03-20T09:17:25.000Z</time>
      </trkpt>
      <trkpt lat="47.53133" lon="6.70451">
        <ele>393</ele>
        <time>2016-03-20T09:17:26.000Z</time>
      </trkpt>
      <trkpt lat="47.53136" lon="6.7045">
        <ele>393</ele>
        <time>2016-03-20T09:17:27.000Z</time>
      </trkpt>
      <trkpt lat="47.53139" lon="6.70447">
        <ele>393</ele>
        <time>2016-03-20T09:17:29.000Z</time>
      </trkpt>
      <trkpt lat="47.53141" lon="6.70446">
        <ele>393</ele>
        <time>2016-03-20T09:17:30.000Z</time>
      </trkpt>
      <trkpt lat="47.53144" lon="6.70443">
        <ele>393</ele>
        <time>2016-03-20T09:17:32.000Z</time>
      </trkpt>
      <trkpt lat="47.53146" lon="6.70442">
        <ele>394</ele>
        <time>2016-03-20T09:17:33.000Z</time>
      </trkpt>
      <trkpt lat="47.5315" lon="6.70439">
        <ele>394</ele>
        <time>2016-03-20T09:17:36.000Z</time>
      </trkpt>
      <trkpt lat="47.5315" lon="6.70439">
        <ele>394</ele>
        <time>2016-03-20T09:17:37.000Z</time>
      </trkpt>
      <trkpt lat="47.53154" lon="6.70438">
        <ele>394</ele>
        <time>2016-03-20T09:17:41.000Z</time>
      </trkpt>
      <trkpt lat="47.53156" lon="6.70438">
        <ele>394</ele>
        <time>2016-03-20T09:17:42.000Z</time>
      </trkpt>
      <trkpt lat="47.53159" lon="6.70437">
        <ele>394</ele>
        <time>2016-03-20T09:17:46.000Z</time>
      </trkpt>
      <trkpt lat="47.5316" lon="6.70437">
        <ele>394</ele>
        <time>2016-03-20T09:17:47.000Z</time>
      </trkpt>
      <trkpt lat="47.53163" lon="6.70435">
        <ele>395</ele>
        <time>2016-03-20T09:17:51.000Z</time>
      </trkpt>
      <trkpt lat="47.53165" lon="6.70434">
        <ele>395</ele>
        <time>2016-03-20T09:17:52.000Z</time>
      </trkpt>
      <trkpt lat="47.53168" lon="6.70434">
        <ele>400</ele>
        <time>2016-03-20T09:17:55.000Z</time>
      </trkpt>
      <trkpt lat="47.53169" lon="6.70434">
        <ele>400</ele>
        <time>2016-03-20T09:17:56.000Z</time>
      </trkpt>
      <trkpt lat="47.53173" lon="6.70434">
        <ele>400</ele>
        <time>2016-03-20T09:17:59.000Z</time>
      </trkpt>
      <trkpt lat="47.53174" lon="6.70433">
        <ele>400</ele>
        <time>2016-03-20T09:18:00.000Z</time>
      </trkpt>
      <trkpt lat="47.53178" lon="6.70432">
        <ele>400</ele>
        <time>2016-03-20T09:18:03.000Z</time>
      </trkpt>
      <trkpt lat="47.53179" lon="6.70431">
        <ele>400</ele>
        <time>2016-03-20T09:18:04.000Z</time>
      </trkpt>
      <trkpt lat="47.53183" lon="6.70431">
        <ele>401</ele>
        <time>2016-03-20T09:18:06.000Z</time>
      </trkpt>
      <trkpt lat="47.53185" lon="6.7043">
        <ele>401</ele>
        <time>2016-03-20T09:18:07.000Z</time>
      </trkpt>
      <trkpt lat="47.53189" lon="6.70428">
        <ele>401</ele>
        <time>2016-03-20T09:18:10.000Z</time>
      </trkpt>
      <trkpt lat="47.5319" lon="6.70428">
        <ele>401</ele>
        <time>2016-03-20T09:18:11.000Z</time>
      </trkpt>
      <trkpt lat="47.53193" lon="6.70427">
        <ele>402</ele>
        <time>2016-03-20T09:18:13.000Z</time>
      </trkpt>
      <trkpt lat="47.53195" lon="6.70426">
        <ele>402</ele>
        <time>2016-03-20T09:18:14.000Z</time>
      </trkpt>
      <trkpt lat="47.53199" lon="6.70425">
        <ele>402</ele>
        <time>2016-03-20T09:18:16.000Z</time>
      </trkpt>
      <trkpt lat="47.532" lon="6.70424">
        <ele>402</ele>
        <time>2016-03-20T09:18:17.000Z</time>
      </trkpt>
      <trkpt lat="47.53204" lon="6.70422">
        <ele>403</ele>
        <time>2016-03-20T09:18:21.000Z</time>
      </trkpt>
      <trkpt lat="47.53205" lon="6.70421">
        <ele>403</ele>
        <time>2016-03-20T09:18:22.000Z</time>
      </trkpt>
      <trkpt lat="47.53208" lon="6.70417">
        <ele>403</ele>
        <time>2016-03-20T09:18:25.000Z</time>
      </trkpt>
      <trkpt lat="47.53209" lon="6.70416">
        <ele>398</ele>
        <time>2016-03-20T09:18:26.000Z</time>
      </trkpt>
      <trkpt lat="47.53212" lon="6.70412">
        <ele>398</ele>
        <time>2016-03-20T09:18:51.000Z</time>
      </trkpt>
      <trkpt lat="47.53214" lon="6.7041">
        <ele>398</ele>
        <time>2016-03-20T09:18:52.000Z</time>
      </trkpt>
      <trkpt lat="47.53217" lon="6.70407">
        <ele>398</ele>
        <time>2016-03-20T09:18:54.000Z</time>
      </trkpt>
      <trkpt lat="47.53219" lon="6.70406">
        <ele>399</ele>
        <time>2016-03-20T09:18:55.000Z</time>
      </trkpt>
      <trkpt lat="47.53222" lon="6.70405">
        <ele>399</ele>
        <time>2016-03-20T09:18:57.000Z</time>
      </trkpt>
      <trkpt lat="47.53224" lon="6.70404">
        <ele>399</ele>
        <time>2016-03-20T09:18:58.000Z</time>
      </trkpt>
      <trkpt lat="47.53228" lon="6.70403">
        <ele>399</ele>
        <time>2016-03-20T09:19:00.000Z</time>
      </trkpt>
      <trkpt lat="47.5323" lon="6.70402">
        <ele>399</ele>
        <time>2016-03-20T09:19:01.000Z</time>
      </trkpt>
      <trkpt lat="47.53232" lon="6.704">
        <ele>400</ele>
        <time>2016-03-20T09:19:02.000Z</time>
      </trkpt>
      <trkpt lat="47.53235" lon="6.70398">
        <ele>400</ele>
        <time>2016-03-20T09:19:03.000Z</time>
      </trkpt>
      <trkpt lat="47.53238" lon="6.70397">
        <ele>400</ele>
        <time>2016-03-20T09:19:04.000Z</time>
      </trkpt>
      <trkpt lat="47.5324" lon="6.70395">
        <ele>400</ele>
        <time>2016-03-20T09:19:05.000Z</time>
      </trkpt>
      <trkpt lat="47.53243" lon="6.70394">
        <ele>400</ele>
        <time>2016-03-20T09:19:06.000Z</time>
      </trkpt>
      <trkpt lat="47.53245" lon="6.70394">
        <ele>400</ele>
        <time>2016-03-20T09:19:07.000Z</time>
      </trkpt>
      <trkpt lat="47.53249" lon="6.70392">
        <ele>400</ele>
        <time>2016-03-20T09:19:09.000Z</time>
      </trkpt>
      <trkpt lat="47.53251" lon="6.70392">
        <ele>404</ele>
        <time>2016-03-20T09:19:10.000Z</time>
      </trkpt>
      <trkpt lat="47.53255" lon="6.70391">
        <ele>404</ele>
        <time>2016-03-20T09:19:12.000Z</time>
      </trkpt>
      <trkpt lat="47.53256" lon="6.70391">
        <ele>404</ele>
        <time>2016-03-20T09:19:13.000Z</time>
      </trkpt>
      <trkpt lat="47.5326" lon="6.70388">
        <ele>404</ele>
        <time>2016-03-20T09:19:16.000Z</time>
      </trkpt>
      <trkpt lat="47.53261" lon="6.70387">
        <ele>403</ele>
        <time>2016-03-20T09:19:17.000Z</time>
      </trkpt>
      <trkpt lat="47.53263" lon="6.70383">
        <ele>403</ele>
        <time>2016-03-20T09:19:19.000Z</time>
      </trkpt>
      <trkpt lat="47.53264" lon="6.7038">
        <ele>403</ele>
        <time>2016-03-20T09:19:20.000Z</time>
      </trkpt>
      <trkpt lat="47.53266" lon="6.70375">
        <ele>403</ele>
        <time>2016-03-20T09:19:22.000Z</time>
      </trkpt>
      <trkpt lat="47.53267" lon="6.70372">
        <ele>402</ele>
        <time>2016-03-20T09:19:23.000Z</time>
      </trkpt>
      <trkpt lat="47.53268" lon="6.70366">
        <ele>402</ele>
        <time>2016-03-20T09:19:25.000Z</time>
      </trkpt>
      <trkpt lat="47.53269" lon="6.70364">
        <ele>402</ele>
        <time>2016-03-20T09:19:26.000Z</time>
      </trkpt>
      <trkpt lat="47.53272" lon="6.7036">
        <ele>402</ele>
        <time>2016-03-20T09:19:29.000Z</time>
      </trkpt>
      <trkpt lat="47.53273" lon="6.70359">
        <ele>402</ele>
        <time>2016-03-20T09:19:30.000Z</time>
      </trkpt>
      <trkpt lat="47.53276" lon="6.70356">
        <ele>402</ele>
        <time>2016-03-20T09:19:32.000Z</time>
      </trkpt>
      <trkpt lat="47.53278" lon="6.70353">
        <ele>402</ele>
        <time>2016-03-20T09:19:33.000Z</time>
      </trkpt>
      <trkpt lat="47.5328" lon="6.7035">
        <ele>401</ele>
        <time>2016-03-20T09:19:34.000Z</time>
      </trkpt>
      <trkpt lat="47.53282" lon="6.70347">
        <ele>401</ele>
        <time>2016-03-20T09:19:35.000Z</time>
      </trkpt>
      <trkpt lat="47.53283" lon="6.70343">
        <ele>401</ele>
        <time>2016-03-20T09:19:36.000Z</time>
      </trkpt>
      <trkpt lat="47.53285" lon="6.70339">
        <ele>401</ele>
        <time>2016-03-20T09:19:37.000Z</time>
      </trkpt>
      <trkpt lat="47.53286" lon="6.70335">
        <ele>401</ele>
        <time>2016-03-20T09:19:38.000Z</time>
      </trkpt>
      <trkpt lat="47.53287" lon="6.70332">
        <ele>394</ele>
        <time>2016-03-20T09:19:39.000Z</time>
      </trkpt>
      <trkpt lat="47.53289" lon="6.7033">
        <ele>394</ele>
        <time>2016-03-20T09:19:40.000Z</time>
      </trkpt>
      <trkpt lat="47.5329" lon="6.70327">
        <ele>394</ele>
        <time>2016-03-20T09:19:41.000Z</time>
      </trkpt>
      <trkpt lat="47.53293" lon="6.70322">
        <ele>394</ele>
        <time>2016-03-20T09:19:43.000Z</time>
      </trkpt>
      <trkpt lat="47.53294" lon="6.7032">
        <ele>394</ele>
        <time>2016-03-20T09:19:44.000Z</time>
      </trkpt>
      <trkpt lat="47.53296" lon="6.70316">
        <ele>394</ele>
        <time>2016-03-20T09:19:46.000Z</time>
      </trkpt>
      <trkpt lat="47.53297" lon="6.70314">
        <ele>394</ele>
        <time>2016-03-20T09:19:47.000Z</time>
      </trkpt>
      <trkpt lat="47.53299" lon="6.70312">
        <ele>394</ele>
        <time>2016-03-20T09:19:48.000Z</time>
      </trkpt>
      <trkpt lat="47.533" lon="6.70309">
        <ele>394</ele>
        <time>2016-03-20T09:19:49.000Z</time>
      </trkpt>
      <trkpt lat="47.53301" lon="6.70306">
        <ele>394</ele>
        <time>2016-03-20T09:19:50.000Z</time>
      </trkpt>
      <trkpt lat="47.53303" lon="6.70302">
        <ele>393</ele>
        <time>2016-03-20T09:19:51.000Z</time>
      </trkpt>
      <trkpt lat="47.53305" lon="6.70297">
        <ele>393</ele>
        <time>2016-03-20T09:19:52.000Z</time>
      </trkpt>
      <trkpt lat="47.53307" lon="6.70292">
        <ele>393</ele>
        <time>2016-03-20T09:19:53.000Z</time>
      </trkpt>
      <trkpt lat="47.5331" lon="6.70287">
        <ele>392</ele>
        <time>2016-03-20T09:19:54.000Z</time>
      </trkpt>
      <trkpt lat="47.53312" lon="6.70281">
        <ele>392</ele>
        <time>2016-03-20T09:19:55.000Z</time>
      </trkpt>
      <trkpt lat="47.53314" lon="6.70275">
        <ele>391</ele>
        <time>2016-03-20T09:19:56.000Z</time>
      </trkpt>
      <trkpt lat="47.53317" lon="6.70268">
        <ele>391</ele>
        <time>2016-03-20T09:19:57.000Z</time>
      </trkpt>
      <trkpt lat="47.53323" lon="6.70245">
        <ele>385</ele>
        <time>2016-03-20T09:19:58.000Z</time>
      </trkpt>
      <trkpt lat="47.53328" lon="6.70233">
        <ele>383</ele>
        <time>2016-03-20T09:19:59.000Z</time>
      </trkpt>
      <trkpt lat="47.53332" lon="6.7022">
        <ele>381</ele>
        <time>2016-03-20T09:20:00.000Z</time>
      </trkpt>
      <trkpt lat="47.53345" lon="6.70214">
        <ele>384</ele>
        <time>2016-03-20T09:20:01.000Z</time>
      </trkpt>
      <trkpt lat="47.53346" lon="6.70205">
        <ele>383</ele>
        <time>2016-03-20T09:20:02.000Z</time>
      </trkpt>
      <trkpt lat="47.53348" lon="6.70198">
        <ele>382</ele>
        <time>2016-03-20T09:20:03.000Z</time>
      </trkpt>
      <trkpt lat="47.53349" lon="6.70189">
        <ele>381</ele>
        <time>2016-03-20T09:20:04.000Z</time>
      </trkpt>
      <trkpt lat="47.53346" lon="6.7018">
        <ele>380</ele>
        <time>2016-03-20T09:20:05.000Z</time>
      </trkpt>
      <trkpt lat="47.53346" lon="6.70175">
        <ele>379</ele>
        <time>2016-03-20T09:20:06.000Z</time>
      </trkpt>
      <trkpt lat="47.53339" lon="6.70167">
        <ele>377</ele>
        <time>2016-03-20T09:20:07.000Z</time>
      </trkpt>
      <trkpt lat="47.53337" lon="6.70161">
        <ele>375</ele>
        <time>2016-03-20T09:20:08.000Z</time>
      </trkpt>
      <trkpt lat="47.53334" lon="6.70155">
        <ele>374</ele>
        <time>2016-03-20T09:20:09.000Z</time>
      </trkpt>
      <trkpt lat="47.53337" lon="6.7014">
        <ele>373</ele>
        <time>2016-03-20T09:20:10.000Z</time>
      </trkpt>
      <trkpt lat="47.53338" lon="6.70134">
        <ele>373</ele>
        <time>2016-03-20T09:20:11.000Z</time>
      </trkpt>
      <trkpt lat="47.53341" lon="6.70124">
        <ele>372</ele>
        <time>2016-03-20T09:20:12.000Z</time>
      </trkpt>
      <trkpt lat="47.53343" lon="6.70114">
        <ele>372</ele>
        <time>2016-03-20T09:20:13.000Z</time>
      </trkpt>
      <trkpt lat="47.53345" lon="6.70106">
        <ele>371</ele>
        <time>2016-03-20T09:20:14.000Z</time>
      </trkpt>
      <trkpt lat="47.53347" lon="6.70098">
        <ele>370</ele>
        <time>2016-03-20T09:20:15.000Z</time>
      </trkpt>
      <trkpt lat="47.53348" lon="6.70091">
        <ele>370</ele>
        <time>2016-03-20T09:20:16.000Z</time>
      </trkpt>
      <trkpt lat="47.53347" lon="6.70084">
        <ele>369</ele>
        <time>2016-03-20T09:20:17.000Z</time>
      </trkpt>
      <trkpt lat="47.53347" lon="6.70078">
        <ele>367</ele>
        <time>2016-03-20T09:20:18.000Z</time>
      </trkpt>
      <trkpt lat="47.53345" lon="6.70071">
        <ele>367</ele>
        <time>2016-03-20T09:20:19.000Z</time>
      </trkpt>
      <trkpt lat="47.53343" lon="6.70064">
        <ele>367</ele>
        <time>2016-03-20T09:20:20.000Z</time>
      </trkpt>
      <trkpt lat="47.53342" lon="6.70059">
        <ele>367</ele>
        <time>2016-03-20T09:20:21.000Z</time>
      </trkpt>
      <trkpt lat="47.5334" lon="6.70053">
        <ele>367</ele>
        <time>2016-03-20T09:20:22.000Z</time>
      </trkpt>
      <trkpt lat="47.53339" lon="6.70048">
        <ele>367</ele>
        <time>2016-03-20T09:20:23.000Z</time>
      </trkpt>
      <trkpt lat="47.53338" lon="6.70044">
        <ele>367</ele>
        <time>2016-03-20T09:20:24.000Z</time>
      </trkpt>
      <trkpt lat="47.53338" lon="6.7004">
        <ele>366</ele>
        <time>2016-03-20T09:20:25.000Z</time>
      </trkpt>
      <trkpt lat="47.53337" lon="6.70036">
        <ele>366</ele>
        <time>2016-03-20T09:20:26.000Z</time>
      </trkpt>
      <trkpt lat="47.53337" lon="6.70031">
        <ele>366</ele>
        <time>2016-03-20T09:20:27.000Z</time>
      </trkpt>
      <trkpt lat="47.53336" lon="6.70026">
        <ele>366</ele>
        <time>2016-03-20T09:20:28.000Z</time>
      </trkpt>
      <trkpt lat="47.53335" lon="6.70021">
        <ele>366</ele>
        <time>2016-03-20T09:20:29.000Z</time>
      </trkpt>
      <trkpt lat="47.53334" lon="6.70015">
        <ele>365</ele>
        <time>2016-03-20T09:20:30.000Z</time>
      </trkpt>
      <trkpt lat="47.53333" lon="6.70009">
        <ele>364</ele>
        <time>2016-03-20T09:20:31.000Z</time>
      </trkpt>
      <trkpt lat="47.53332" lon="6.70004">
        <ele>364</ele>
        <time>2016-03-20T09:20:32.000Z</time>
      </trkpt>
      <trkpt lat="47.53331" lon="6.69999">
        <ele>364</ele>
        <time>2016-03-20T09:20:33.000Z</time>
      </trkpt>
      <trkpt lat="47.5333" lon="6.69994">
        <ele>363</ele>
        <time>2016-03-20T09:20:34.000Z</time>
      </trkpt>
      <trkpt lat="47.5333" lon="6.6999">
        <ele>363</ele>
        <time>2016-03-20T09:20:35.000Z</time>
      </trkpt>
      <trkpt lat="47.53329" lon="6.69985">
        <ele>362</ele>
        <time>2016-03-20T09:20:36.000Z</time>
      </trkpt>
      <trkpt lat="47.53329" lon="6.6998">
        <ele>362</ele>
        <time>2016-03-20T09:20:37.000Z</time>
      </trkpt>
      <trkpt lat="47.53329" lon="6.69975">
        <ele>361</ele>
        <time>2016-03-20T09:20:38.000Z</time>
      </trkpt>
      <trkpt lat="47.5333" lon="6.6997">
        <ele>361</ele>
        <time>2016-03-20T09:20:39.000Z</time>
      </trkpt>
      <trkpt lat="47.53331" lon="6.69966">
        <ele>361</ele>
        <time>2016-03-20T09:20:40.000Z</time>
      </trkpt>
      <trkpt lat="47.53334" lon="6.69961">
        <ele>363</ele>
        <time>2016-03-20T09:20:41.000Z</time>
      </trkpt>
      <trkpt lat="47.53337" lon="6.69957">
        <ele>363</ele>
        <time>2016-03-20T09:20:42.000Z</time>
      </trkpt>
      <trkpt lat="47.53339" lon="6.69953">
        <ele>363</ele>
        <time>2016-03-20T09:20:43.000Z</time>
      </trkpt>
      <trkpt lat="47.53341" lon="6.6995">
        <ele>362</ele>
        <time>2016-03-20T09:20:44.000Z</time>
      </trkpt>
      <trkpt lat="47.53343" lon="6.69947">
        <ele>362</ele>
        <time>2016-03-20T09:20:45.000Z</time>
      </trkpt>
      <trkpt lat="47.53343" lon="6.69944">
        <ele>362</ele>
        <time>2016-03-20T09:20:46.000Z</time>
      </trkpt>
      <trkpt lat="47.53344" lon="6.69938">
        <ele>362</ele>
        <time>2016-03-20T09:20:48.000Z</time>
      </trkpt>
      <trkpt lat="47.53344" lon="6.69936">
        <ele>362</ele>
        <time>2016-03-20T09:20:49.000Z</time>
      </trkpt>
      <trkpt lat="47.53345" lon="6.69931">
        <ele>361</ele>
        <time>2016-03-20T09:20:51.000Z</time>
      </trkpt>
      <trkpt lat="47.53345" lon="6.69927">
        <ele>361</ele>
        <time>2016-03-20T09:20:52.000Z</time>
      </trkpt>
      <trkpt lat="47.53344" lon="6.69922">
        <ele>361</ele>
        <time>2016-03-20T09:20:53.000Z</time>
      </trkpt>
      <trkpt lat="47.53344" lon="6.69916">
        <ele>359</ele>
        <time>2016-03-20T09:20:54.000Z</time>
      </trkpt>
      <trkpt lat="47.53343" lon="6.6991">
        <ele>358</ele>
        <time>2016-03-20T09:20:55.000Z</time>
      </trkpt>
      <trkpt lat="47.53343" lon="6.69902">
        <ele>358</ele>
        <time>2016-03-20T09:20:56.000Z</time>
      </trkpt>
      <trkpt lat="47.53343" lon="6.69895">
        <ele>358</ele>
        <time>2016-03-20T09:20:57.000Z</time>
      </trkpt>
      <trkpt lat="47.53343" lon="6.69889">
        <ele>358</ele>
        <time>2016-03-20T09:20:58.000Z</time>
      </trkpt>
      <trkpt lat="47.53344" lon="6.69884">
        <ele>357</ele>
        <time>2016-03-20T09:20:59.000Z</time>
      </trkpt>
      <trkpt lat="47.53343" lon="6.69881">
        <ele>357</ele>
        <time>2016-03-20T09:21:00.000Z</time>
      </trkpt>
      <trkpt lat="47.53343" lon="6.69877">
        <ele>357</ele>
        <time>2016-03-20T09:21:01.000Z</time>
      </trkpt>
      <trkpt lat="47.53343" lon="6.69872">
        <ele>356</ele>
        <time>2016-03-20T09:21:03.000Z</time>
      </trkpt>
      <trkpt lat="47.53342" lon="6.69869">
        <ele>356</ele>
        <time>2016-03-20T09:21:04.000Z</time>
      </trkpt>
      <trkpt lat="47.53342" lon="6.69865">
        <ele>356</ele>
        <time>2016-03-20T09:21:05.000Z</time>
      </trkpt>
      <trkpt lat="47.53343" lon="6.6986">
        <ele>355</ele>
        <time>2016-03-20T09:21:06.000Z</time>
      </trkpt>
      <trkpt lat="47.53343" lon="6.69856">
        <ele>355</ele>
        <time>2016-03-20T09:21:07.000Z</time>
      </trkpt>
      <trkpt lat="47.53343" lon="6.69851">
        <ele>355</ele>
        <time>2016-03-20T09:21:08.000Z</time>
      </trkpt>
      <trkpt lat="47.53344" lon="6.69845">
        <ele>354</ele>
        <time>2016-03-20T09:21:09.000Z</time>
      </trkpt>
      <trkpt lat="47.53344" lon="6.6984">
        <ele>354</ele>
        <time>2016-03-20T09:21:10.000Z</time>
      </trkpt>
      <trkpt lat="47.53346" lon="6.69834">
        <ele>353</ele>
        <time>2016-03-20T09:21:11.000Z</time>
      </trkpt>
      <trkpt lat="47.53347" lon="6.6983">
        <ele>350</ele>
        <time>2016-03-20T09:21:12.000Z</time>
      </trkpt>
      <trkpt lat="47.53349" lon="6.69825">
        <ele>350</ele>
        <time>2016-03-20T09:21:13.000Z</time>
      </trkpt>
      <trkpt lat="47.53349" lon="6.69822">
        <ele>350</ele>
        <time>2016-03-20T09:21:14.000Z</time>
      </trkpt>
      <trkpt lat="47.53349" lon="6.69818">
        <ele>350</ele>
        <time>2016-03-20T09:21:15.000Z</time>
      </trkpt>
      <trkpt lat="47.53348" lon="6.69814">
        <ele>350</ele>
        <time>2016-03-20T09:21:16.000Z</time>
      </trkpt>
      <trkpt lat="47.53347" lon="6.6981">
        <ele>350</ele>
        <time>2016-03-20T09:21:17.000Z</time>
      </trkpt>
      <trkpt lat="47.53346" lon="6.69805">
        <ele>350</ele>
        <time>2016-03-20T09:21:18.000Z</time>
      </trkpt>
      <trkpt lat="47.53344" lon="6.698">
        <ele>349</ele>
        <time>2016-03-20T09:21:19.000Z</time>
      </trkpt>
      <trkpt lat="47.53343" lon="6.69794">
        <ele>349</ele>
        <time>2016-03-20T09:21:20.000Z</time>
      </trkpt>
      <trkpt lat="47.53342" lon="6.69788">
        <ele>349</ele>
        <time>2016-03-20T09:21:21.000Z</time>
      </trkpt>
      <trkpt lat="47.53341" lon="6.69782">
        <ele>348</ele>
        <time>2016-03-20T09:21:22.000Z</time>
      </trkpt>
      <trkpt lat="47.53341" lon="6.69775">
        <ele>348</ele>
        <time>2016-03-20T09:21:23.000Z</time>
      </trkpt>
      <trkpt lat="47.5334" lon="6.69768">
        <ele>347</ele>
        <time>2016-03-20T09:21:24.000Z</time>
      </trkpt>
      <trkpt lat="47.53339" lon="6.69761">
        <ele>347</ele>
        <time>2016-03-20T09:21:25.000Z</time>
      </trkpt>
      <trkpt lat="47.53338" lon="6.69754">
        <ele>346</ele>
        <time>2016-03-20T09:21:26.000Z</time>
      </trkpt>
      <trkpt lat="47.53337" lon="6.69747">
        <ele>345</ele>
        <time>2016-03-20T09:21:27.000Z</time>
      </trkpt>
      <trkpt lat="47.53335" lon="6.69739">
        <ele>345</ele>
        <time>2016-03-20T09:21:28.000Z</time>
      </trkpt>
      <trkpt lat="47.53334" lon="6.69732">
        <ele>345</ele>
        <time>2016-03-20T09:21:29.000Z</time>
      </trkpt>
      <trkpt lat="47.53332" lon="6.69725">
        <ele>346</ele>
        <time>2016-03-20T09:21:30.000Z</time>
      </trkpt>
      <trkpt lat="47.53331" lon="6.69717">
        <ele>346</ele>
        <time>2016-03-20T09:21:31.000Z</time>
      </trkpt>
      <trkpt lat="47.53329" lon="6.6971">
        <ele>346</ele>
        <time>2016-03-20T09:21:32.000Z</time>
      </trkpt>
      <trkpt lat="47.53328" lon="6.69703">
        <ele>346</ele>
        <time>2016-03-20T09:21:33.000Z</time>
      </trkpt>
      <trkpt lat="47.53325" lon="6.69694">
        <ele>346</ele>
        <time>2016-03-20T09:21:34.000Z</time>
      </trkpt>
      <trkpt lat="47.53324" lon="6.69688">
        <ele>345</ele>
        <time>2016-03-20T09:21:35.000Z</time>
      </trkpt>
      <trkpt lat="47.53323" lon="6.69682">
        <ele>345</ele>
        <time>2016-03-20T09:21:36.000Z</time>
      </trkpt>
      <trkpt lat="47.53321" lon="6.69675">
        <ele>345</ele>
        <time>2016-03-20T09:21:37.000Z</time>
      </trkpt>
      <trkpt lat="47.5332" lon="6.69669">
        <ele>345</ele>
        <time>2016-03-20T09:21:38.000Z</time>
      </trkpt>
      <trkpt lat="47.5332" lon="6.69663">
        <ele>345</ele>
        <time>2016-03-20T09:21:39.000Z</time>
      </trkpt>
      <trkpt lat="47.53319" lon="6.69657">
        <ele>346</ele>
        <time>2016-03-20T09:21:40.000Z</time>
      </trkpt>
      <trkpt lat="47.53318" lon="6.69651">
        <ele>346</ele>
        <time>2016-03-20T09:21:41.000Z</time>
      </trkpt>
      <trkpt lat="47.53317" lon="6.69644">
        <ele>346</ele>
        <time>2016-03-20T09:21:42.000Z</time>
      </trkpt>
      <trkpt lat="47.53316" lon="6.69638">
        <ele>346</ele>
        <time>2016-03-20T09:21:43.000Z</time>
      </trkpt>
      <trkpt lat="47.53314" lon="6.69631">
        <ele>346</ele>
        <time>2016-03-20T09:21:44.000Z</time>
      </trkpt>
      <trkpt lat="47.53313" lon="6.69624">
        <ele>346</ele>
        <time>2016-03-20T09:21:45.000Z</time>
      </trkpt>
      <trkpt lat="47.53311" lon="6.69619">
        <ele>346</ele>
        <time>2016-03-20T09:21:46.000Z</time>
      </trkpt>
      <trkpt lat="47.5331" lon="6.69612">
        <ele>346</ele>
        <time>2016-03-20T09:21:47.000Z</time>
      </trkpt>
      <trkpt lat="47.53309" lon="6.69606">
        <ele>346</ele>
        <time>2016-03-20T09:21:48.000Z</time>
      </trkpt>
      <trkpt lat="47.53308" lon="6.696">
        <ele>346</ele>
        <time>2016-03-20T09:21:49.000Z</time>
      </trkpt>
      <trkpt lat="47.53307" lon="6.69594">
        <ele>346</ele>
        <time>2016-03-20T09:21:50.000Z</time>
      </trkpt>
      <trkpt lat="47.53306" lon="6.69588">
        <ele>346</ele>
        <time>2016-03-20T09:21:51.000Z</time>
      </trkpt>
      <trkpt lat="47.53305" lon="6.69582">
        <ele>346</ele>
        <time>2016-03-20T09:21:52.000Z</time>
      </trkpt>
      <trkpt lat="47.53303" lon="6.69576">
        <ele>346</ele>
        <time>2016-03-20T09:21:53.000Z</time>
      </trkpt>
      <trkpt lat="47.53302" lon="6.6957">
        <ele>346</ele>
        <time>2016-03-20T09:21:54.000Z</time>
      </trkpt>
      <trkpt lat="47.53301" lon="6.69564">
        <ele>346</ele>
        <time>2016-03-20T09:21:55.000Z</time>
      </trkpt>
      <trkpt lat="47.533" lon="6.69559">
        <ele>346</ele>
        <time>2016-03-20T09:21:56.000Z</time>
      </trkpt>
      <trkpt lat="47.53299" lon="6.69553">
        <ele>346</ele>
        <time>2016-03-20T09:21:57.000Z</time>
      </trkpt>
      <trkpt lat="47.53298" lon="6.69548">
        <ele>346</ele>
        <time>2016-03-20T09:21:58.000Z</time>
      </trkpt>
      <trkpt lat="47.53297" lon="6.69543">
        <ele>346</ele>
        <time>2016-03-20T09:21:59.000Z</time>
      </trkpt>
      <trkpt lat="47.53297" lon="6.69538">
        <ele>346</ele>
        <time>2016-03-20T09:22:00.000Z</time>
      </trkpt>
      <trkpt lat="47.53296" lon="6.69533">
        <ele>346</ele>
        <time>2016-03-20T09:22:01.000Z</time>
      </trkpt>
      <trkpt lat="47.53295" lon="6.6953">
        <ele>346</ele>
        <time>2016-03-20T09:22:02.000Z</time>
      </trkpt>
      <trkpt lat="47.53292" lon="6.69527">
        <ele>346</ele>
        <time>2016-03-20T09:22:03.000Z</time>
      </trkpt>
      <trkpt lat="47.53289" lon="6.69525">
        <ele>346</ele>
        <time>2016-03-20T09:22:04.000Z</time>
      </trkpt>
      <trkpt lat="47.53285" lon="6.69523">
        <ele>346</ele>
        <time>2016-03-20T09:22:05.000Z</time>
      </trkpt>
      <trkpt lat="47.5328" lon="6.69523">
        <ele>346</ele>
        <time>2016-03-20T09:22:06.000Z</time>
      </trkpt>
      <trkpt lat="47.53275" lon="6.69523">
        <ele>346</ele>
        <time>2016-03-20T09:22:07.000Z</time>
      </trkpt>
      <trkpt lat="47.5327" lon="6.69524">
        <ele>346</ele>
        <time>2016-03-20T09:22:08.000Z</time>
      </trkpt>
      <trkpt lat="47.53265" lon="6.69524">
        <ele>346</ele>
        <time>2016-03-20T09:22:09.000Z</time>
      </trkpt>
      <trkpt lat="47.5326" lon="6.69524">
        <ele>346</ele>
        <time>2016-03-20T09:22:10.000Z</time>
      </trkpt>
      <trkpt lat="47.53255" lon="6.69523">
        <ele>346</ele>
        <time>2016-03-20T09:22:11.000Z</time>
      </trkpt>
      <trkpt lat="47.5325" lon="6.69522">
        <ele>348</ele>
        <time>2016-03-20T09:22:12.000Z</time>
      </trkpt>
      <trkpt lat="47.53242" lon="6.69523">
        <ele>348</ele>
        <time>2016-03-20T09:22:13.000Z</time>
      </trkpt>
      <trkpt lat="47.53238" lon="6.69524">
        <ele>348</ele>
        <time>2016-03-20T09:22:14.000Z</time>
      </trkpt>
      <trkpt lat="47.53233" lon="6.69523">
        <ele>348</ele>
        <time>2016-03-20T09:22:15.000Z</time>
      </trkpt>
      <trkpt lat="47.53229" lon="6.69524">
        <ele>349</ele>
        <time>2016-03-20T09:22:16.000Z</time>
      </trkpt>
      <trkpt lat="47.53225" lon="6.69524">
        <ele>349</ele>
        <time>2016-03-20T09:22:17.000Z</time>
      </trkpt>
      <trkpt lat="47.5322" lon="6.69525">
        <ele>349</ele>
        <time>2016-03-20T09:22:18.000Z</time>
      </trkpt>
      <trkpt lat="47.53216" lon="6.69526">
        <ele>349</ele>
        <time>2016-03-20T09:22:19.000Z</time>
      </trkpt>
      <trkpt lat="47.53212" lon="6.69527">
        <ele>349</ele>
        <time>2016-03-20T09:22:20.000Z</time>
      </trkpt>
      <trkpt lat="47.53207" lon="6.69528">
        <ele>350</ele>
        <time>2016-03-20T09:22:21.000Z</time>
      </trkpt>
      <trkpt lat="47.53203" lon="6.69528">
        <ele>350</ele>
        <time>2016-03-20T09:22:22.000Z</time>
      </trkpt>
      <trkpt lat="47.53199" lon="6.6953">
        <ele>350</ele>
        <time>2016-03-20T09:22:23.000Z</time>
      </trkpt>
      <trkpt lat="47.53194" lon="6.69531">
        <ele>350</ele>
        <time>2016-03-20T09:22:24.000Z</time>
      </trkpt>
      <trkpt lat="47.5319" lon="6.69532">
        <ele>350</ele>
        <time>2016-03-20T09:22:25.000Z</time>
      </trkpt>
      <trkpt lat="47.53186" lon="6.69533">
        <ele>350</ele>
        <time>2016-03-20T09:22:26.000Z</time>
      </trkpt>
      <trkpt lat="47.53182" lon="6.69534">
        <ele>350</ele>
        <time>2016-03-20T09:22:27.000Z</time>
      </trkpt>
      <trkpt lat="47.53177" lon="6.69534">
        <ele>350</ele>
        <time>2016-03-20T09:22:28.000Z</time>
      </trkpt>
      <trkpt lat="47.53172" lon="6.69535">
        <ele>350</ele>
        <time>2016-03-20T09:22:29.000Z</time>
      </trkpt>
      <trkpt lat="47.53167" lon="6.69537">
        <ele>351</ele>
        <time>2016-03-20T09:22:30.000Z</time>
      </trkpt>
      <trkpt lat="47.53163" lon="6.69538">
        <ele>353</ele>
        <time>2016-03-20T09:22:31.000Z</time>
      </trkpt>
      <trkpt lat="47.53158" lon="6.69538">
        <ele>353</ele>
        <time>2016-03-20T09:22:32.000Z</time>
      </trkpt>
      <trkpt lat="47.53153" lon="6.69537">
        <ele>353</ele>
        <time>2016-03-20T09:22:33.000Z</time>
      </trkpt>
      <trkpt lat="47.53149" lon="6.69537">
        <ele>353</ele>
        <time>2016-03-20T09:22:34.000Z</time>
      </trkpt>
      <trkpt lat="47.53145" lon="6.69537">
        <ele>353</ele>
        <time>2016-03-20T09:22:35.000Z</time>
      </trkpt>
      <trkpt lat="47.53141" lon="6.69536">
        <ele>353</ele>
        <time>2016-03-20T09:22:36.000Z</time>
      </trkpt>
      <trkpt lat="47.53137" lon="6.69536">
        <ele>353</ele>
        <time>2016-03-20T09:22:37.000Z</time>
      </trkpt>
      <trkpt lat="47.53133" lon="6.69535">
        <ele>353</ele>
        <time>2016-03-20T09:22:38.000Z</time>
      </trkpt>
      <trkpt lat="47.53129" lon="6.69533">
        <ele>353</ele>
        <time>2016-03-20T09:22:39.000Z</time>
      </trkpt>
      <trkpt lat="47.53126" lon="6.6953">
        <ele>353</ele>
        <time>2016-03-20T09:22:40.000Z</time>
      </trkpt>
      <trkpt lat="47.53123" lon="6.69526">
        <ele>353</ele>
        <time>2016-03-20T09:22:42.000Z</time>
      </trkpt>
      <trkpt lat="47.53122" lon="6.69524">
        <ele>353</ele>
        <time>2016-03-20T09:22:43.000Z</time>
      </trkpt>
      <trkpt lat="47.53122" lon="6.69521">
        <ele>352</ele>
        <time>2016-03-20T09:22:44.000Z</time>
      </trkpt>
      <trkpt lat="47.53123" lon="6.69516">
        <ele>352</ele>
        <time>2016-03-20T09:22:45.000Z</time>
      </trkpt>
      <trkpt lat="47.53123" lon="6.69511">
        <ele>352</ele>
        <time>2016-03-20T09:22:46.000Z</time>
      </trkpt>
      <trkpt lat="47.53123" lon="6.69506">
        <ele>352</ele>
        <time>2016-03-20T09:22:47.000Z</time>
      </trkpt>
      <trkpt lat="47.53123" lon="6.69501">
        <ele>352</ele>
        <time>2016-03-20T09:22:48.000Z</time>
      </trkpt>
      <trkpt lat="47.53123" lon="6.69496">
        <ele>349</ele>
        <time>2016-03-20T09:22:49.000Z</time>
      </trkpt>
      <trkpt lat="47.53123" lon="6.69491">
        <ele>349</ele>
        <time>2016-03-20T09:22:50.000Z</time>
      </trkpt>
      <trkpt lat="47.53123" lon="6.69487">
        <ele>348</ele>
        <time>2016-03-20T09:22:51.000Z</time>
      </trkpt>
      <trkpt lat="47.53123" lon="6.69482">
        <ele>348</ele>
        <time>2016-03-20T09:22:52.000Z</time>
      </trkpt>
      <trkpt lat="47.53123" lon="6.69477">
        <ele>348</ele>
        <time>2016-03-20T09:22:53.000Z</time>
      </trkpt>
      <trkpt lat="47.53123" lon="6.69472">
        <ele>348</ele>
        <time>2016-03-20T09:22:54.000Z</time>
      </trkpt>
      <trkpt lat="47.53123" lon="6.69467">
        <ele>348</ele>
        <time>2016-03-20T09:22:55.000Z</time>
      </trkpt>
      <trkpt lat="47.53123" lon="6.69462">
        <ele>348</ele>
        <time>2016-03-20T09:22:56.000Z</time>
      </trkpt>
      <trkpt lat="47.53123" lon="6.69457">
        <ele>348</ele>
        <time>2016-03-20T09:22:57.000Z</time>
      </trkpt>
      <trkpt lat="47.53123" lon="6.69453">
        <ele>348</ele>
        <time>2016-03-20T09:22:58.000Z</time>
      </trkpt>
      <trkpt lat="47.53122" lon="6.69448">
        <ele>348</ele>
        <time>2016-03-20T09:22:59.000Z</time>
      </trkpt>
      <trkpt lat="47.53122" lon="6.69444">
        <ele>348</ele>
        <time>2016-03-20T09:23:00.000Z</time>
      </trkpt>
      <trkpt lat="47.53122" lon="6.69439">
        <ele>348</ele>
        <time>2016-03-20T09:23:01.000Z</time>
      </trkpt>
      <trkpt lat="47.53122" lon="6.69435">
        <ele>348</ele>
        <time>2016-03-20T09:23:02.000Z</time>
      </trkpt>
      <trkpt lat="47.53122" lon="6.6943">
        <ele>348</ele>
        <time>2016-03-20T09:23:03.000Z</time>
      </trkpt>
      <trkpt lat="47.53121" lon="6.69425">
        <ele>348</ele>
        <time>2016-03-20T09:23:04.000Z</time>
      </trkpt>
      <trkpt lat="47.53121" lon="6.69421">
        <ele>348</ele>
        <time>2016-03-20T09:23:05.000Z</time>
      </trkpt>
      <trkpt lat="47.5312" lon="6.69417">
        <ele>348</ele>
        <time>2016-03-20T09:23:06.000Z</time>
      </trkpt>
      <trkpt lat="47.53119" lon="6.69412">
        <ele>348</ele>
        <time>2016-03-20T09:23:07.000Z</time>
      </trkpt>
      <trkpt lat="47.53119" lon="6.69407">
        <ele>348</ele>
        <time>2016-03-20T09:23:08.000Z</time>
      </trkpt>
      <trkpt lat="47.53119" lon="6.69403">
        <ele>348</ele>
        <time>2016-03-20T09:23:09.000Z</time>
      </trkpt>
      <trkpt lat="47.53119" lon="6.69398">
        <ele>348</ele>
        <time>2016-03-20T09:23:10.000Z</time>
      </trkpt>
      <trkpt lat="47.53118" lon="6.69393">
        <ele>348</ele>
        <time>2016-03-20T09:23:11.000Z</time>
      </trkpt>
      <trkpt lat="47.53118" lon="6.69389">
        <ele>348</ele>
        <time>2016-03-20T09:23:12.000Z</time>
      </trkpt>
      <trkpt lat="47.53118" lon="6.69384">
        <ele>348</ele>
        <time>2016-03-20T09:23:13.000Z</time>
      </trkpt>
      <trkpt lat="47.53118" lon="6.69379">
        <ele>348</ele>
        <time>2016-03-20T09:23:14.000Z</time>
      </trkpt>
      <trkpt lat="47.53118" lon="6.69374">
        <ele>348</ele>
        <time>2016-03-20T09:23:15.000Z</time>
      </trkpt>
      <trkpt lat="47.53118" lon="6.6937">
        <ele>349</ele>
        <time>2016-03-20T09:23:16.000Z</time>
      </trkpt>
      <trkpt lat="47.53119" lon="6.69365">
        <ele>349</ele>
        <time>2016-03-20T09:23:17.000Z</time>
      </trkpt>
      <trkpt lat="47.53119" lon="6.6936">
        <ele>349</ele>
        <time>2016-03-20T09:23:18.000Z</time>
      </trkpt>
      <trkpt lat="47.53119" lon="6.69356">
        <ele>349</ele>
        <time>2016-03-20T09:23:19.000Z</time>
      </trkpt>
      <trkpt lat="47.53119" lon="6.69351">
        <ele>349</ele>
        <time>2016-03-20T09:23:20.000Z</time>
      </trkpt>
      <trkpt lat="47.53118" lon="6.69347">
        <ele>349</ele>
        <time>2016-03-20T09:23:21.000Z</time>
      </trkpt>
      <trkpt lat="47.53118" lon="6.69342">
        <ele>349</ele>
        <time>2016-03-20T09:23:22.000Z</time>
      </trkpt>
      <trkpt lat="47.53117" lon="6.69338">
        <ele>349</ele>
        <time>2016-03-20T09:23:23.000Z</time>
      </trkpt>
      <trkpt lat="47.53117" lon="6.69333">
        <ele>350</ele>
        <time>2016-03-20T09:23:24.000Z</time>
      </trkpt>
      <trkpt lat="47.53116" lon="6.69328">
        <ele>350</ele>
        <time>2016-03-20T09:23:25.000Z</time>
      </trkpt>
      <trkpt lat="47.53116" lon="6.69324">
        <ele>350</ele>
        <time>2016-03-20T09:23:26.000Z</time>
      </trkpt>
      <trkpt lat="47.53115" lon="6.69319">
        <ele>350</ele>
        <time>2016-03-20T09:23:27.000Z</time>
      </trkpt>
      <trkpt lat="47.53115" lon="6.69315">
        <ele>350</ele>
        <time>2016-03-20T09:23:28.000Z</time>
      </trkpt>
      <trkpt lat="47.53114" lon="6.6931">
        <ele>350</ele>
        <time>2016-03-20T09:23:29.000Z</time>
      </trkpt>
      <trkpt lat="47.53114" lon="6.69306">
        <ele>350</ele>
        <time>2016-03-20T09:23:30.000Z</time>
      </trkpt>
      <trkpt lat="47.53114" lon="6.69301">
        <ele>350</ele>
        <time>2016-03-20T09:23:31.000Z</time>
      </trkpt>
      <trkpt lat="47.53113" lon="6.69297">
        <ele>350</ele>
        <time>2016-03-20T09:23:32.000Z</time>
      </trkpt>
      <trkpt lat="47.53113" lon="6.69292">
        <ele>350</ele>
        <time>2016-03-20T09:23:33.000Z</time>
      </trkpt>
      <trkpt lat="47.53112" lon="6.69288">
        <ele>350</ele>
        <time>2016-03-20T09:23:34.000Z</time>
      </trkpt>
      <trkpt lat="47.53112" lon="6.69283">
        <ele>351</ele>
        <time>2016-03-20T09:23:35.000Z</time>
      </trkpt>
      <trkpt lat="47.53111" lon="6.69279">
        <ele>351</ele>
        <time>2016-03-20T09:23:36.000Z</time>
      </trkpt>
      <trkpt lat="47.53111" lon="6.69274">
        <ele>351</ele>
        <time>2016-03-20T09:23:37.000Z</time>
      </trkpt>
      <trkpt lat="47.5311" lon="6.6927">
        <ele>351</ele>
        <time>2016-03-20T09:23:38.000Z</time>
      </trkpt>
      <trkpt lat="47.5311" lon="6.69266">
        <ele>351</ele>
        <time>2016-03-20T09:23:39.000Z</time>
      </trkpt>
      <trkpt lat="47.5311" lon="6.69261">
        <ele>351</ele>
        <time>2016-03-20T09:23:40.000Z</time>
      </trkpt>
      <trkpt lat="47.5311" lon="6.69257">
        <ele>351</ele>
        <time>2016-03-20T09:23:41.000Z</time>
      </trkpt>
      <trkpt lat="47.53109" lon="6.69252">
        <ele>351</ele>
        <time>2016-03-20T09:23:42.000Z</time>
      </trkpt>
      <trkpt lat="47.53109" lon="6.69248">
        <ele>352</ele>
        <time>2016-03-20T09:23:43.000Z</time>
      </trkpt>
      <trkpt lat="47.53109" lon="6.69243">
        <ele>352</ele>
        <time>2016-03-20T09:23:44.000Z</time>
      </trkpt>
      <trkpt lat="47.53108" lon="6.69239">
        <ele>352</ele>
        <time>2016-03-20T09:23:45.000Z</time>
      </trkpt>
      <trkpt lat="47.53108" lon="6.69234">
        <ele>352</ele>
        <time>2016-03-20T09:23:46.000Z</time>
      </trkpt>
      <trkpt lat="47.53107" lon="6.69229">
        <ele>352</ele>
        <time>2016-03-20T09:23:47.000Z</time>
      </trkpt>
      <trkpt lat="47.53107" lon="6.69224">
        <ele>353</ele>
        <time>2016-03-20T09:23:48.000Z</time>
      </trkpt>
      <trkpt lat="47.53107" lon="6.6922">
        <ele>353</ele>
        <time>2016-03-20T09:23:49.000Z</time>
      </trkpt>
      <trkpt lat="47.53106" lon="6.69216">
        <ele>353</ele>
        <time>2016-03-20T09:23:50.000Z</time>
      </trkpt>
      <trkpt lat="47.53106" lon="6.69212">
        <ele>353</ele>
        <time>2016-03-20T09:23:51.000Z</time>
      </trkpt>
      <trkpt lat="47.53106" lon="6.69208">
        <ele>353</ele>
        <time>2016-03-20T09:23:52.000Z</time>
      </trkpt>
      <trkpt lat="47.53105" lon="6.69204">
        <ele>353</ele>
        <time>2016-03-20T09:23:53.000Z</time>
      </trkpt>
      <trkpt lat="47.53105" lon="6.692">
        <ele>353</ele>
        <time>2016-03-20T09:23:54.000Z</time>
      </trkpt>
      <trkpt lat="47.53104" lon="6.69196">
        <ele>353</ele>
        <time>2016-03-20T09:23:55.000Z</time>
      </trkpt>
      <trkpt lat="47.53104" lon="6.69192">
        <ele>353</ele>
        <time>2016-03-20T09:23:56.000Z</time>
      </trkpt>
      <trkpt lat="47.53103" lon="6.69188">
        <ele>353</ele>
        <time>2016-03-20T09:23:57.000Z</time>
      </trkpt>
      <trkpt lat="47.53103" lon="6.69185">
        <ele>353</ele>
        <time>2016-03-20T09:23:58.000Z</time>
      </trkpt>
      <trkpt lat="47.53103" lon="6.69181">
        <ele>353</ele>
        <time>2016-03-20T09:23:59.000Z</time>
      </trkpt>
      <trkpt lat="47.53102" lon="6.69175">
        <ele>354</ele>
        <time>2016-03-20T09:24:01.000Z</time>
      </trkpt>
      <trkpt lat="47.53102" lon="6.69171">
        <ele>354</ele>
        <time>2016-03-20T09:24:02.000Z</time>
      </trkpt>
      <trkpt lat="47.53102" lon="6.69165">
        <ele>355</ele>
        <time>2016-03-20T09:24:04.000Z</time>
      </trkpt>
      <trkpt lat="47.53102" lon="6.69161">
        <ele>355</ele>
        <time>2016-03-20T09:24:05.000Z</time>
      </trkpt>
      <trkpt lat="47.53102" lon="6.69158">
        <ele>355</ele>
        <time>2016-03-20T09:24:06.000Z</time>
      </trkpt>
      <trkpt lat="47.53102" lon="6.69155">
        <ele>355</ele>
        <time>2016-03-20T09:24:07.000Z</time>
      </trkpt>
      <trkpt lat="47.53101" lon="6.69148">
        <ele>355</ele>
        <time>2016-03-20T09:24:09.000Z</time>
      </trkpt>
      <trkpt lat="47.53101" lon="6.69145">
        <ele>356</ele>
        <time>2016-03-20T09:24:10.000Z</time>
      </trkpt>
      <trkpt lat="47.53101" lon="6.69142">
        <ele>356</ele>
        <time>2016-03-20T09:24:11.000Z</time>
      </trkpt>
      <trkpt lat="47.53101" lon="6.69138">
        <ele>356</ele>
        <time>2016-03-20T09:24:12.000Z</time>
      </trkpt>
      <trkpt lat="47.53101" lon="6.69134">
        <ele>356</ele>
        <time>2016-03-20T09:24:13.000Z</time>
      </trkpt>
      <trkpt lat="47.53101" lon="6.69131">
        <ele>356</ele>
        <time>2016-03-20T09:24:14.000Z</time>
      </trkpt>
      <trkpt lat="47.531" lon="6.69124">
        <ele>356</ele>
        <time>2016-03-20T09:24:16.000Z</time>
      </trkpt>
      <trkpt lat="47.531" lon="6.69121">
        <ele>356</ele>
        <time>2016-03-20T09:24:17.000Z</time>
      </trkpt>
      <trkpt lat="47.531" lon="6.69115">
        <ele>356</ele>
        <time>2016-03-20T09:24:19.000Z</time>
      </trkpt>
      <trkpt lat="47.531" lon="6.69112">
        <ele>357</ele>
        <time>2016-03-20T09:24:20.000Z</time>
      </trkpt>
      <trkpt lat="47.531" lon="6.69106">
        <ele>357</ele>
        <time>2016-03-20T09:24:22.000Z</time>
      </trkpt>
      <trkpt lat="47.531" lon="6.69103">
        <ele>357</ele>
        <time>2016-03-20T09:24:23.000Z</time>
      </trkpt>
      <trkpt lat="47.531" lon="6.69097">
        <ele>357</ele>
        <time>2016-03-20T09:24:25.000Z</time>
      </trkpt>
      <trkpt lat="47.53101" lon="6.69095">
        <ele>357</ele>
        <time>2016-03-20T09:24:26.000Z</time>
      </trkpt>
      <trkpt lat="47.53101" lon="6.69089">
        <ele>357</ele>
        <time>2016-03-20T09:24:28.000Z</time>
      </trkpt>
      <trkpt lat="47.53101" lon="6.69086">
        <ele>357</ele>
        <time>2016-03-20T09:24:29.000Z</time>
      </trkpt>
      <trkpt lat="47.531" lon="6.6908">
        <ele>359</ele>
        <time>2016-03-20T09:24:31.000Z</time>
      </trkpt>
      <trkpt lat="47.531" lon="6.69077">
        <ele>359</ele>
        <time>2016-03-20T09:24:32.000Z</time>
      </trkpt>
      <trkpt lat="47.531" lon="6.69073">
        <ele>359</ele>
        <time>2016-03-20T09:24:33.000Z</time>
      </trkpt>
      <trkpt lat="47.53099" lon="6.6907">
        <ele>359</ele>
        <time>2016-03-20T09:24:34.000Z</time>
      </trkpt>
      <trkpt lat="47.53099" lon="6.69066">
        <ele>359</ele>
        <time>2016-03-20T09:24:35.000Z</time>
      </trkpt>
      <trkpt lat="47.53099" lon="6.69063">
        <ele>359</ele>
        <time>2016-03-20T09:24:36.000Z</time>
      </trkpt>
      <trkpt lat="47.53099" lon="6.69059">
        <ele>359</ele>
        <time>2016-03-20T09:24:37.000Z</time>
      </trkpt>
      <trkpt lat="47.53099" lon="6.69056">
        <ele>360</ele>
        <time>2016-03-20T09:24:38.000Z</time>
      </trkpt>
      <trkpt lat="47.53099" lon="6.69052">
        <ele>360</ele>
        <time>2016-03-20T09:24:39.000Z</time>
      </trkpt>
      <trkpt lat="47.53099" lon="6.69049">
        <ele>360</ele>
        <time>2016-03-20T09:24:40.000Z</time>
      </trkpt>
      <trkpt lat="47.53099" lon="6.69045">
        <ele>360</ele>
        <time>2016-03-20T09:24:41.000Z</time>
      </trkpt>
      <trkpt lat="47.53099" lon="6.69042">
        <ele>360</ele>
        <time>2016-03-20T09:24:42.000Z</time>
      </trkpt>
      <trkpt lat="47.53099" lon="6.69038">
        <ele>360</ele>
        <time>2016-03-20T09:24:43.000Z</time>
      </trkpt>
      <trkpt lat="47.53099" lon="6.69035">
        <ele>360</ele>
        <time>2016-03-20T09:24:44.000Z</time>
      </trkpt>
      <trkpt lat="47.53098" lon="6.69031">
        <ele>360</ele>
        <time>2016-03-20T09:24:45.000Z</time>
      </trkpt>
      <trkpt lat="47.53098" lon="6.69028">
        <ele>360</ele>
        <time>2016-03-20T09:24:46.000Z</time>
      </trkpt>
      <trkpt lat="47.53098" lon="6.69024">
        <ele>361</ele>
        <time>2016-03-20T09:24:47.000Z</time>
      </trkpt>
      <trkpt lat="47.53098" lon="6.69021">
        <ele>361</ele>
        <time>2016-03-20T09:24:48.000Z</time>
      </trkpt>
      <trkpt lat="47.53098" lon="6.69017">
        <ele>361</ele>
        <time>2016-03-20T09:24:49.000Z</time>
      </trkpt>
      <trkpt lat="47.53097" lon="6.69014">
        <ele>361</ele>
        <time>2016-03-20T09:24:50.000Z</time>
      </trkpt>
      <trkpt lat="47.53097" lon="6.6901">
        <ele>361</ele>
        <time>2016-03-20T09:24:51.000Z</time>
      </trkpt>
      <trkpt lat="47.53097" lon="6.69006">
        <ele>361</ele>
        <time>2016-03-20T09:24:52.000Z</time>
      </trkpt>
      <trkpt lat="47.53096" lon="6.69">
        <ele>362</ele>
        <time>2016-03-20T09:24:54.000Z</time>
      </trkpt>
      <trkpt lat="47.53096" lon="6.68997">
        <ele>362</ele>
        <time>2016-03-20T09:24:55.000Z</time>
      </trkpt>
      <trkpt lat="47.53096" lon="6.68993">
        <ele>362</ele>
        <time>2016-03-20T09:24:56.000Z</time>
      </trkpt>
      <trkpt lat="47.53096" lon="6.68989">
        <ele>362</ele>
        <time>2016-03-20T09:24:57.000Z</time>
      </trkpt>
      <trkpt lat="47.53095" lon="6.68986">
        <ele>362</ele>
        <time>2016-03-20T09:24:58.000Z</time>
      </trkpt>
      <trkpt lat="47.53095" lon="6.68982">
        <ele>362</ele>
        <time>2016-03-20T09:24:59.000Z</time>
      </trkpt>
      <trkpt lat="47.53095" lon="6.68978">
        <ele>363</ele>
        <time>2016-03-20T09:25:00.000Z</time>
      </trkpt>
      <trkpt lat="47.53095" lon="6.68974">
        <ele>363</ele>
        <time>2016-03-20T09:25:01.000Z</time>
      </trkpt>
      <trkpt lat="47.53095" lon="6.68971">
        <ele>363</ele>
        <time>2016-03-20T09:25:02.000Z</time>
      </trkpt>
      <trkpt lat="47.53095" lon="6.68967">
        <ele>363</ele>
        <time>2016-03-20T09:25:03.000Z</time>
      </trkpt>
      <trkpt lat="47.53095" lon="6.68964">
        <ele>363</ele>
        <time>2016-03-20T09:25:04.000Z</time>
      </trkpt>
      <trkpt lat="47.53096" lon="6.6896">
        <ele>363</ele>
        <time>2016-03-20T09:25:05.000Z</time>
      </trkpt>
      <trkpt lat="47.53096" lon="6.68956">
        <ele>363</ele>
        <time>2016-03-20T09:25:06.000Z</time>
      </trkpt>
      <trkpt lat="47.53096" lon="6.68953">
        <ele>363</ele>
        <time>2016-03-20T09:25:07.000Z</time>
      </trkpt>
      <trkpt lat="47.53096" lon="6.68949">
        <ele>363</ele>
        <time>2016-03-20T09:25:08.000Z</time>
      </trkpt>
      <trkpt lat="47.53096" lon="6.68945">
        <ele>363</ele>
        <time>2016-03-20T09:25:09.000Z</time>
      </trkpt>
      <trkpt lat="47.53095" lon="6.68941">
        <ele>363</ele>
        <time>2016-03-20T09:25:10.000Z</time>
      </trkpt>
      <trkpt lat="47.53095" lon="6.68937">
        <ele>363</ele>
        <time>2016-03-20T09:25:11.000Z</time>
      </trkpt>
      <trkpt lat="47.53094" lon="6.68933">
        <ele>363</ele>
        <time>2016-03-20T09:25:12.000Z</time>
      </trkpt>
      <trkpt lat="47.53094" lon="6.68929">
        <ele>363</ele>
        <time>2016-03-20T09:25:13.000Z</time>
      </trkpt>
      <trkpt lat="47.53094" lon="6.68926">
        <ele>363</ele>
        <time>2016-03-20T09:25:14.000Z</time>
      </trkpt>
      <trkpt lat="47.53094" lon="6.68922">
        <ele>364</ele>
        <time>2016-03-20T09:25:15.000Z</time>
      </trkpt>
      <trkpt lat="47.53094" lon="6.68918">
        <ele>364</ele>
        <time>2016-03-20T09:25:16.000Z</time>
      </trkpt>
      <trkpt lat="47.53093" lon="6.68914">
        <ele>364</ele>
        <time>2016-03-20T09:25:17.000Z</time>
      </trkpt>
      <trkpt lat="47.53093" lon="6.6891">
        <ele>364</ele>
        <time>2016-03-20T09:25:18.000Z</time>
      </trkpt>
      <trkpt lat="47.53093" lon="6.68906">
        <ele>364</ele>
        <time>2016-03-20T09:25:19.000Z</time>
      </trkpt>
      <trkpt lat="47.53093" lon="6.68902">
        <ele>364</ele>
        <time>2016-03-20T09:25:20.000Z</time>
      </trkpt>
      <trkpt lat="47.53093" lon="6.68899">
        <ele>364</ele>
        <time>2016-03-20T09:25:21.000Z</time>
      </trkpt>
      <trkpt lat="47.53093" lon="6.68895">
        <ele>364</ele>
        <time>2016-03-20T09:25:22.000Z</time>
      </trkpt>
      <trkpt lat="47.53093" lon="6.68892">
        <ele>364</ele>
        <time>2016-03-20T09:25:23.000Z</time>
      </trkpt>
      <trkpt lat="47.53093" lon="6.68888">
        <ele>364</ele>
        <time>2016-03-20T09:25:24.000Z</time>
      </trkpt>
      <trkpt lat="47.53093" lon="6.68885">
        <ele>365</ele>
        <time>2016-03-20T09:25:25.000Z</time>
      </trkpt>
      <trkpt lat="47.53093" lon="6.68881">
        <ele>365</ele>
        <time>2016-03-20T09:25:26.000Z</time>
      </trkpt>
      <trkpt lat="47.53093" lon="6.68877">
        <ele>365</ele>
        <time>2016-03-20T09:25:27.000Z</time>
      </trkpt>
      <trkpt lat="47.53093" lon="6.68873">
        <ele>365</ele>
        <time>2016-03-20T09:25:28.000Z</time>
      </trkpt>
      <trkpt lat="47.53093" lon="6.68869">
        <ele>365</ele>
        <time>2016-03-20T09:25:29.000Z</time>
      </trkpt>
      <trkpt lat="47.53093" lon="6.68865">
        <ele>365</ele>
        <time>2016-03-20T09:25:30.000Z</time>
      </trkpt>
      <trkpt lat="47.53093" lon="6.6886">
        <ele>365</ele>
        <time>2016-03-20T09:25:31.000Z</time>
      </trkpt>
      <trkpt lat="47.53092" lon="6.68856">
        <ele>365</ele>
        <time>2016-03-20T09:25:32.000Z</time>
      </trkpt>
      <trkpt lat="47.53092" lon="6.68851">
        <ele>365</ele>
        <time>2016-03-20T09:25:33.000Z</time>
      </trkpt>
      <trkpt lat="47.53092" lon="6.68847">
        <ele>365</ele>
        <time>2016-03-20T09:25:34.000Z</time>
      </trkpt>
      <trkpt lat="47.53091" lon="6.68842">
        <ele>365</ele>
        <time>2016-03-20T09:25:35.000Z</time>
      </trkpt>
      <trkpt lat="47.53091" lon="6.68838">
        <ele>366</ele>
        <time>2016-03-20T09:25:36.000Z</time>
      </trkpt>
      <trkpt lat="47.53091" lon="6.68833">
        <ele>366</ele>
        <time>2016-03-20T09:25:37.000Z</time>
      </trkpt>
      <trkpt lat="47.5309" lon="6.68829">
        <ele>366</ele>
        <time>2016-03-20T09:25:38.000Z</time>
      </trkpt>
      <trkpt lat="47.5309" lon="6.68824">
        <ele>366</ele>
        <time>2016-03-20T09:25:39.000Z</time>
      </trkpt>
      <trkpt lat="47.5309" lon="6.6882">
        <ele>366</ele>
        <time>2016-03-20T09:25:40.000Z</time>
      </trkpt>
      <trkpt lat="47.5309" lon="6.68816">
        <ele>366</ele>
        <time>2016-03-20T09:25:41.000Z</time>
      </trkpt>
      <trkpt lat="47.5309" lon="6.68812">
        <ele>366</ele>
        <time>2016-03-20T09:25:42.000Z</time>
      </trkpt>
      <trkpt lat="47.5309" lon="6.68808">
        <ele>366</ele>
        <time>2016-03-20T09:25:43.000Z</time>
      </trkpt>
      <trkpt lat="47.5309" lon="6.68804">
        <ele>366</ele>
        <time>2016-03-20T09:25:44.000Z</time>
      </trkpt>
      <trkpt lat="47.53089" lon="6.688">
        <ele>366</ele>
        <time>2016-03-20T09:25:45.000Z</time>
      </trkpt>
      <trkpt lat="47.53089" lon="6.68795">
        <ele>366</ele>
        <time>2016-03-20T09:25:46.000Z</time>
      </trkpt>
      <trkpt lat="47.53089" lon="6.68791">
        <ele>366</ele>
        <time>2016-03-20T09:25:47.000Z</time>
      </trkpt>
      <trkpt lat="47.53089" lon="6.68787">
        <ele>366</ele>
        <time>2016-03-20T09:25:48.000Z</time>
      </trkpt>
      <trkpt lat="47.53088" lon="6.68782">
        <ele>366</ele>
        <time>2016-03-20T09:25:49.000Z</time>
      </trkpt>
      <trkpt lat="47.53088" lon="6.68778">
        <ele>366</ele>
        <time>2016-03-20T09:25:50.000Z</time>
      </trkpt>
      <trkpt lat="47.53088" lon="6.68773">
        <ele>367</ele>
        <time>2016-03-20T09:25:51.000Z</time>
      </trkpt>
      <trkpt lat="47.53087" lon="6.68769">
        <ele>367</ele>
        <time>2016-03-20T09:25:52.000Z</time>
      </trkpt>
      <trkpt lat="47.53087" lon="6.68764">
        <ele>367</ele>
        <time>2016-03-20T09:25:53.000Z</time>
      </trkpt>
      <trkpt lat="47.53087" lon="6.6876">
        <ele>367</ele>
        <time>2016-03-20T09:25:54.000Z</time>
      </trkpt>
      <trkpt lat="47.53086" lon="6.68756">
        <ele>367</ele>
        <time>2016-03-20T09:25:55.000Z</time>
      </trkpt>
      <trkpt lat="47.53086" lon="6.68751">
        <ele>367</ele>
        <time>2016-03-20T09:25:56.000Z</time>
      </trkpt>
      <trkpt lat="47.53085" lon="6.68747">
        <ele>367</ele>
        <time>2016-03-20T09:25:57.000Z</time>
      </trkpt>
      <trkpt lat="47.53085" lon="6.68743">
        <ele>367</ele>
        <time>2016-03-20T09:25:58.000Z</time>
      </trkpt>
      <trkpt lat="47.53085" lon="6.68738">
        <ele>368</ele>
        <time>2016-03-20T09:25:59.000Z</time>
      </trkpt>
      <trkpt lat="47.53084" lon="6.68734">
        <ele>368</ele>
        <time>2016-03-20T09:26:00.000Z</time>
      </trkpt>
      <trkpt lat="47.53084" lon="6.6873">
        <ele>368</ele>
        <time>2016-03-20T09:26:01.000Z</time>
      </trkpt>
      <trkpt lat="47.53084" lon="6.68725">
        <ele>368</ele>
        <time>2016-03-20T09:26:02.000Z</time>
      </trkpt>
      <trkpt lat="47.53084" lon="6.6872">
        <ele>368</ele>
        <time>2016-03-20T09:26:03.000Z</time>
      </trkpt>
      <trkpt lat="47.53083" lon="6.68716">
        <ele>368</ele>
        <time>2016-03-20T09:26:04.000Z</time>
      </trkpt>
      <trkpt lat="47.53083" lon="6.68711">
        <ele>368</ele>
        <time>2016-03-20T09:26:05.000Z</time>
      </trkpt>
      <trkpt lat="47.53082" lon="6.68707">
        <ele>369</ele>
        <time>2016-03-20T09:26:06.000Z</time>
      </trkpt>
      <trkpt lat="47.53082" lon="6.68703">
        <ele>369</ele>
        <time>2016-03-20T09:26:07.000Z</time>
      </trkpt>
      <trkpt lat="47.53081" lon="6.68699">
        <ele>369</ele>
        <time>2016-03-20T09:26:08.000Z</time>
      </trkpt>
      <trkpt lat="47.53081" lon="6.68694">
        <ele>369</ele>
        <time>2016-03-20T09:26:09.000Z</time>
      </trkpt>
      <trkpt lat="47.5308" lon="6.6869">
        <ele>369</ele>
        <time>2016-03-20T09:26:10.000Z</time>
      </trkpt>
      <trkpt lat="47.5308" lon="6.68686">
        <ele>369</ele>
        <time>2016-03-20T09:26:11.000Z</time>
      </trkpt>
      <trkpt lat="47.5308" lon="6.68682">
        <ele>369</ele>
        <time>2016-03-20T09:26:12.000Z</time>
      </trkpt>
      <trkpt lat="47.5308" lon="6.68678">
        <ele>369</ele>
        <time>2016-03-20T09:26:13.000Z</time>
      </trkpt>
      <trkpt lat="47.5308" lon="6.68675">
        <ele>370</ele>
        <time>2016-03-20T09:26:14.000Z</time>
      </trkpt>
      <trkpt lat="47.5308" lon="6.68671">
        <ele>370</ele>
        <time>2016-03-20T09:26:15.000Z</time>
      </trkpt>
      <trkpt lat="47.5308" lon="6.68667">
        <ele>370</ele>
        <time>2016-03-20T09:26:16.000Z</time>
      </trkpt>
      <trkpt lat="47.5308" lon="6.68663">
        <ele>370</ele>
        <time>2016-03-20T09:26:17.000Z</time>
      </trkpt>
      <trkpt lat="47.53079" lon="6.68659">
        <ele>371</ele>
        <time>2016-03-20T09:26:18.000Z</time>
      </trkpt>
      <trkpt lat="47.53079" lon="6.68655">
        <ele>371</ele>
        <time>2016-03-20T09:26:19.000Z</time>
      </trkpt>
      <trkpt lat="47.53079" lon="6.6865">
        <ele>371</ele>
        <time>2016-03-20T09:26:20.000Z</time>
      </trkpt>
      <trkpt lat="47.53078" lon="6.68646">
        <ele>371</ele>
        <time>2016-03-20T09:26:21.000Z</time>
      </trkpt>
      <trkpt lat="47.53078" lon="6.68641">
        <ele>372</ele>
        <time>2016-03-20T09:26:22.000Z</time>
      </trkpt>
      <trkpt lat="47.53077" lon="6.68637">
        <ele>372</ele>
        <time>2016-03-20T09:26:23.000Z</time>
      </trkpt>
      <trkpt lat="47.53077" lon="6.68633">
        <ele>372</ele>
        <time>2016-03-20T09:26:24.000Z</time>
      </trkpt>
      <trkpt lat="47.53076" lon="6.68628">
        <ele>372</ele>
        <time>2016-03-20T09:26:25.000Z</time>
      </trkpt>
      <trkpt lat="47.53076" lon="6.68624">
        <ele>372</ele>
        <time>2016-03-20T09:26:26.000Z</time>
      </trkpt>
      <trkpt lat="47.53075" lon="6.6862">
        <ele>372</ele>
        <time>2016-03-20T09:26:27.000Z</time>
      </trkpt>
      <trkpt lat="47.53075" lon="6.68616">
        <ele>372</ele>
        <time>2016-03-20T09:26:28.000Z</time>
      </trkpt>
      <trkpt lat="47.53074" lon="6.68612">
        <ele>373</ele>
        <time>2016-03-20T09:26:29.000Z</time>
      </trkpt>
      <trkpt lat="47.53074" lon="6.68608">
        <ele>373</ele>
        <time>2016-03-20T09:26:30.000Z</time>
      </trkpt>
      <trkpt lat="47.53073" lon="6.68604">
        <ele>373</ele>
        <time>2016-03-20T09:26:31.000Z</time>
      </trkpt>
      <trkpt lat="47.53073" lon="6.686">
        <ele>373</ele>
        <time>2016-03-20T09:26:32.000Z</time>
      </trkpt>
      <trkpt lat="47.53072" lon="6.68596">
        <ele>373</ele>
        <time>2016-03-20T09:26:33.000Z</time>
      </trkpt>
      <trkpt lat="47.53072" lon="6.68591">
        <ele>373</ele>
        <time>2016-03-20T09:26:34.000Z</time>
      </trkpt>
      <trkpt lat="47.53071" lon="6.68587">
        <ele>373</ele>
        <time>2016-03-20T09:26:35.000Z</time>
      </trkpt>
      <trkpt lat="47.53071" lon="6.68583">
        <ele>373</ele>
        <time>2016-03-20T09:26:36.000Z</time>
      </trkpt>
      <trkpt lat="47.5307" lon="6.6858">
        <ele>375</ele>
        <time>2016-03-20T09:26:37.000Z</time>
      </trkpt>
      <trkpt lat="47.53069" lon="6.68576">
        <ele>375</ele>
        <time>2016-03-20T09:26:38.000Z</time>
      </trkpt>
      <trkpt lat="47.53069" lon="6.68571">
        <ele>375</ele>
        <time>2016-03-20T09:26:39.000Z</time>
      </trkpt>
      <trkpt lat="47.53068" lon="6.68567">
        <ele>375</ele>
        <time>2016-03-20T09:26:40.000Z</time>
      </trkpt>
      <trkpt lat="47.53067" lon="6.68563">
        <ele>375</ele>
        <time>2016-03-20T09:26:41.000Z</time>
      </trkpt>
      <trkpt lat="47.53066" lon="6.68559">
        <ele>375</ele>
        <time>2016-03-20T09:26:42.000Z</time>
      </trkpt>
      <trkpt lat="47.53066" lon="6.68555">
        <ele>375</ele>
        <time>2016-03-20T09:26:43.000Z</time>
      </trkpt>
      <trkpt lat="47.53065" lon="6.68552">
        <ele>375</ele>
        <time>2016-03-20T09:26:44.000Z</time>
      </trkpt>
      <trkpt lat="47.53064" lon="6.68548">
        <ele>375</ele>
        <time>2016-03-20T09:26:45.000Z</time>
      </trkpt>
      <trkpt lat="47.53063" lon="6.68544">
        <ele>375</ele>
        <time>2016-03-20T09:26:46.000Z</time>
      </trkpt>
      <trkpt lat="47.53062" lon="6.6854">
        <ele>375</ele>
        <time>2016-03-20T09:26:47.000Z</time>
      </trkpt>
      <trkpt lat="47.53061" lon="6.68536">
        <ele>375</ele>
        <time>2016-03-20T09:26:48.000Z</time>
      </trkpt>
      <trkpt lat="47.5306" lon="6.68532">
        <ele>376</ele>
        <time>2016-03-20T09:26:49.000Z</time>
      </trkpt>
      <trkpt lat="47.53059" lon="6.68528">
        <ele>376</ele>
        <time>2016-03-20T09:26:50.000Z</time>
      </trkpt>
      <trkpt lat="47.53058" lon="6.68524">
        <ele>376</ele>
        <time>2016-03-20T09:26:51.000Z</time>
      </trkpt>
      <trkpt lat="47.53057" lon="6.6852">
        <ele>376</ele>
        <time>2016-03-20T09:26:52.000Z</time>
      </trkpt>
      <trkpt lat="47.53056" lon="6.68516">
        <ele>376</ele>
        <time>2016-03-20T09:26:53.000Z</time>
      </trkpt>
      <trkpt lat="47.53055" lon="6.68512">
        <ele>376</ele>
        <time>2016-03-20T09:26:54.000Z</time>
      </trkpt>
      <trkpt lat="47.53055" lon="6.68509">
        <ele>376</ele>
        <time>2016-03-20T09:26:55.000Z</time>
      </trkpt>
      <trkpt lat="47.53054" lon="6.68505">
        <ele>376</ele>
        <time>2016-03-20T09:26:56.000Z</time>
      </trkpt>
      <trkpt lat="47.53053" lon="6.68501">
        <ele>376</ele>
        <time>2016-03-20T09:26:57.000Z</time>
      </trkpt>
      <trkpt lat="47.53052" lon="6.68497">
        <ele>377</ele>
        <time>2016-03-20T09:26:58.000Z</time>
      </trkpt>
      <trkpt lat="47.53051" lon="6.68493">
        <ele>377</ele>
        <time>2016-03-20T09:26:59.000Z</time>
      </trkpt>
      <trkpt lat="47.5305" lon="6.68489">
        <ele>377</ele>
        <time>2016-03-20T09:27:00.000Z</time>
      </trkpt>
      <trkpt lat="47.5305" lon="6.68485">
        <ele>377</ele>
        <time>2016-03-20T09:27:01.000Z</time>
      </trkpt>
      <trkpt lat="47.53049" lon="6.68481">
        <ele>377</ele>
        <time>2016-03-20T09:27:02.000Z</time>
      </trkpt>
      <trkpt lat="47.53048" lon="6.68477">
        <ele>377</ele>
        <time>2016-03-20T09:27:03.000Z</time>
      </trkpt>
      <trkpt lat="47.53047" lon="6.68473">
        <ele>377</ele>
        <time>2016-03-20T09:27:04.000Z</time>
      </trkpt>
      <trkpt lat="47.53046" lon="6.6847">
        <ele>377</ele>
        <time>2016-03-20T09:27:05.000Z</time>
      </trkpt>
      <trkpt lat="47.53045" lon="6.68467">
        <ele>377</ele>
        <time>2016-03-20T09:27:06.000Z</time>
      </trkpt>
      <trkpt lat="47.53044" lon="6.68463">
        <ele>377</ele>
        <time>2016-03-20T09:27:07.000Z</time>
      </trkpt>
      <trkpt lat="47.53044" lon="6.68459">
        <ele>377</ele>
        <time>2016-03-20T09:27:08.000Z</time>
      </trkpt>
      <trkpt lat="47.53043" lon="6.68456">
        <ele>378</ele>
        <time>2016-03-20T09:27:09.000Z</time>
      </trkpt>
      <trkpt lat="47.53042" lon="6.68452">
        <ele>378</ele>
        <time>2016-03-20T09:27:10.000Z</time>
      </trkpt>
      <trkpt lat="47.53041" lon="6.68448">
        <ele>378</ele>
        <time>2016-03-20T09:27:11.000Z</time>
      </trkpt>
      <trkpt lat="47.53041" lon="6.68445">
        <ele>378</ele>
        <time>2016-03-20T09:27:12.000Z</time>
      </trkpt>
      <trkpt lat="47.53041" lon="6.68441">
        <ele>378</ele>
        <time>2016-03-20T09:27:13.000Z</time>
      </trkpt>
      <trkpt lat="47.53041" lon="6.68438">
        <ele>378</ele>
        <time>2016-03-20T09:27:14.000Z</time>
      </trkpt>
      <trkpt lat="47.53041" lon="6.68434">
        <ele>378</ele>
        <time>2016-03-20T09:27:15.000Z</time>
      </trkpt>
      <trkpt lat="47.53041" lon="6.6843">
        <ele>378</ele>
        <time>2016-03-20T09:27:16.000Z</time>
      </trkpt>
      <trkpt lat="47.53041" lon="6.68427">
        <ele>378</ele>
        <time>2016-03-20T09:27:17.000Z</time>
      </trkpt>
      <trkpt lat="47.53041" lon="6.68423">
        <ele>378</ele>
        <time>2016-03-20T09:27:18.000Z</time>
      </trkpt>
      <trkpt lat="47.5304" lon="6.6842">
        <ele>378</ele>
        <time>2016-03-20T09:27:19.000Z</time>
      </trkpt>
      <trkpt lat="47.53039" lon="6.68416">
        <ele>379</ele>
        <time>2016-03-20T09:27:20.000Z</time>
      </trkpt>
      <trkpt lat="47.53039" lon="6.68413">
        <ele>379</ele>
        <time>2016-03-20T09:27:21.000Z</time>
      </trkpt>
      <trkpt lat="47.53038" lon="6.68409">
        <ele>379</ele>
        <time>2016-03-20T09:27:22.000Z</time>
      </trkpt>
      <trkpt lat="47.53037" lon="6.68406">
        <ele>379</ele>
        <time>2016-03-20T09:27:23.000Z</time>
      </trkpt>
      <trkpt lat="47.53036" lon="6.68402">
        <ele>379</ele>
        <time>2016-03-20T09:27:24.000Z</time>
      </trkpt>
      <trkpt lat="47.53035" lon="6.68399">
        <ele>379</ele>
        <time>2016-03-20T09:27:25.000Z</time>
      </trkpt>
      <trkpt lat="47.53034" lon="6.68396">
        <ele>379</ele>
        <time>2016-03-20T09:27:26.000Z</time>
      </trkpt>
      <trkpt lat="47.53033" lon="6.68393">
        <ele>379</ele>
        <time>2016-03-20T09:27:27.000Z</time>
      </trkpt>
      <trkpt lat="47.53032" lon="6.68389">
        <ele>379</ele>
        <time>2016-03-20T09:27:28.000Z</time>
      </trkpt>
      <trkpt lat="47.53031" lon="6.68386">
        <ele>379</ele>
        <time>2016-03-20T09:27:29.000Z</time>
      </trkpt>
      <trkpt lat="47.5303" lon="6.68382">
        <ele>380</ele>
        <time>2016-03-20T09:27:30.000Z</time>
      </trkpt>
      <trkpt lat="47.53029" lon="6.68378">
        <ele>380</ele>
        <time>2016-03-20T09:27:31.000Z</time>
      </trkpt>
      <trkpt lat="47.53031" lon="6.68373">
        <ele>380</ele>
        <time>2016-03-20T09:27:33.000Z</time>
      </trkpt>
      <trkpt lat="47.53032" lon="6.68372">
        <ele>380</ele>
        <time>2016-03-20T09:27:34.000Z</time>
      </trkpt>
      <trkpt lat="47.53036" lon="6.68373">
        <ele>380</ele>
        <time>2016-03-20T09:27:36.000Z</time>
      </trkpt>
      <trkpt lat="47.53038" lon="6.68373">
        <ele>380</ele>
        <time>2016-03-20T09:27:37.000Z</time>
      </trkpt>
      <trkpt lat="47.53042" lon="6.68374">
        <ele>380</ele>
        <time>2016-03-20T09:27:52.000Z</time>
      </trkpt>
      <trkpt lat="47.53043" lon="6.68375">
        <ele>380</ele>
        <time>2016-03-20T09:27:53.000Z</time>
      </trkpt>
      <trkpt lat="47.53046" lon="6.68376">
        <ele>380</ele>
        <time>2016-03-20T09:27:55.000Z</time>
      </trkpt>
      <trkpt lat="47.53048" lon="6.68376">
        <ele>380</ele>
        <time>2016-03-20T09:27:56.000Z</time>
      </trkpt>
      <trkpt lat="47.5305" lon="6.68377">
        <ele>380</ele>
        <time>2016-03-20T09:27:57.000Z</time>
      </trkpt>
      <trkpt lat="47.53052" lon="6.68377">
        <ele>380</ele>
        <time>2016-03-20T09:27:58.000Z</time>
      </trkpt>
      <trkpt lat="47.53055" lon="6.68376">
        <ele>380</ele>
        <time>2016-03-20T09:27:59.000Z</time>
      </trkpt>
      <trkpt lat="47.53057" lon="6.68375">
        <ele>380</ele>
        <time>2016-03-20T09:28:00.000Z</time>
      </trkpt>
      <trkpt lat="47.53059" lon="6.68375">
        <ele>380</ele>
        <time>2016-03-20T09:28:01.000Z</time>
      </trkpt>
      <trkpt lat="47.53061" lon="6.68374">
        <ele>380</ele>
        <time>2016-03-20T09:28:02.000Z</time>
      </trkpt>
      <trkpt lat="47.53064" lon="6.68374">
        <ele>380</ele>
        <time>2016-03-20T09:28:03.000Z</time>
      </trkpt>
      <trkpt lat="47.53066" lon="6.68374">
        <ele>380</ele>
        <time>2016-03-20T09:28:04.000Z</time>
      </trkpt>
      <trkpt lat="47.53069" lon="6.68374">
        <ele>380</ele>
        <time>2016-03-20T09:28:05.000Z</time>
      </trkpt>
      <trkpt lat="47.53071" lon="6.68374">
        <ele>380</ele>
        <time>2016-03-20T09:28:06.000Z</time>
      </trkpt>
      <trkpt lat="47.53074" lon="6.68375">
        <ele>380</ele>
        <time>2016-03-20T09:28:07.000Z</time>
      </trkpt>
      <trkpt lat="47.53076" lon="6.68375">
        <ele>380</ele>
        <time>2016-03-20T09:28:08.000Z</time>
      </trkpt>
      <trkpt lat="47.53079" lon="6.68375">
        <ele>380</ele>
        <time>2016-03-20T09:28:09.000Z</time>
      </trkpt>
      <trkpt lat="47.53082" lon="6.68375">
        <ele>380</ele>
        <time>2016-03-20T09:28:10.000Z</time>
      </trkpt>
      <trkpt lat="47.53085" lon="6.68374">
        <ele>381</ele>
        <time>2016-03-20T09:28:11.000Z</time>
      </trkpt>
      <trkpt lat="47.53087" lon="6.68374">
        <ele>381</ele>
        <time>2016-03-20T09:28:12.000Z</time>
      </trkpt>
      <trkpt lat="47.5309" lon="6.68373">
        <ele>381</ele>
        <time>2016-03-20T09:28:13.000Z</time>
      </trkpt>
      <trkpt lat="47.53093" lon="6.68373">
        <ele>381</ele>
        <time>2016-03-20T09:28:14.000Z</time>
      </trkpt>
      <trkpt lat="47.53095" lon="6.68373">
        <ele>381</ele>
        <time>2016-03-20T09:28:15.000Z</time>
      </trkpt>
      <trkpt lat="47.53098" lon="6.68372">
        <ele>381</ele>
        <time>2016-03-20T09:28:16.000Z</time>
      </trkpt>
      <trkpt lat="47.53101" lon="6.68372">
        <ele>381</ele>
        <time>2016-03-20T09:28:17.000Z</time>
      </trkpt>
      <trkpt lat="47.53104" lon="6.68372">
        <ele>381</ele>
        <time>2016-03-20T09:28:18.000Z</time>
      </trkpt>
      <trkpt lat="47.53106" lon="6.68373">
        <ele>381</ele>
        <time>2016-03-20T09:28:19.000Z</time>
      </trkpt>
      <trkpt lat="47.53109" lon="6.68373">
        <ele>381</ele>
        <time>2016-03-20T09:28:20.000Z</time>
      </trkpt>
      <trkpt lat="47.53112" lon="6.68374">
        <ele>381</ele>
        <time>2016-03-20T09:28:21.000Z</time>
      </trkpt>
      <trkpt lat="47.53114" lon="6.68375">
        <ele>381</ele>
        <time>2016-03-20T09:28:22.000Z</time>
      </trkpt>
      <trkpt lat="47.53118" lon="6.68375">
        <ele>381</ele>
        <time>2016-03-20T09:28:23.000Z</time>
      </trkpt>
      <trkpt lat="47.53121" lon="6.68375">
        <ele>381</ele>
        <time>2016-03-20T09:28:24.000Z</time>
      </trkpt>
      <trkpt lat="47.53124" lon="6.68375">
        <ele>381</ele>
        <time>2016-03-20T09:28:25.000Z</time>
      </trkpt>
      <trkpt lat="47.53127" lon="6.68374">
        <ele>382</ele>
        <time>2016-03-20T09:28:26.000Z</time>
      </trkpt>
      <trkpt lat="47.5313" lon="6.68375">
        <ele>382</ele>
        <time>2016-03-20T09:28:27.000Z</time>
      </trkpt>
      <trkpt lat="47.53133" lon="6.68376">
        <ele>382</ele>
        <time>2016-03-20T09:28:28.000Z</time>
      </trkpt>
      <trkpt lat="47.53136" lon="6.68376">
        <ele>382</ele>
        <time>2016-03-20T09:28:29.000Z</time>
      </trkpt>
      <trkpt lat="47.53139" lon="6.68376">
        <ele>382</ele>
        <time>2016-03-20T09:28:30.000Z</time>
      </trkpt>
      <trkpt lat="47.53143" lon="6.68377">
        <ele>382</ele>
        <time>2016-03-20T09:28:31.000Z</time>
      </trkpt>
      <trkpt lat="47.53146" lon="6.68377">
        <ele>382</ele>
        <time>2016-03-20T09:28:32.000Z</time>
      </trkpt>
      <trkpt lat="47.5315" lon="6.68377">
        <ele>382</ele>
        <time>2016-03-20T09:28:33.000Z</time>
      </trkpt>
      <trkpt lat="47.53157" lon="6.68374">
        <ele>382</ele>
        <time>2016-03-20T09:28:34.000Z</time>
      </trkpt>
      <trkpt lat="47.53161" lon="6.68375">
        <ele>382</ele>
        <time>2016-03-20T09:28:35.000Z</time>
      </trkpt>
      <trkpt lat="47.53166" lon="6.68375">
        <ele>382</ele>
        <time>2016-03-20T09:28:36.000Z</time>
      </trkpt>
      <trkpt lat="47.5317" lon="6.68376">
        <ele>378</ele>
        <time>2016-03-20T09:28:37.000Z</time>
      </trkpt>
      <trkpt lat="47.53173" lon="6.68377">
        <ele>378</ele>
        <time>2016-03-20T09:28:38.000Z</time>
      </trkpt>
      <trkpt lat="47.53177" lon="6.68378">
        <ele>378</ele>
        <time>2016-03-20T09:28:39.000Z</time>
      </trkpt>
      <trkpt lat="47.53183" lon="6.6838">
        <ele>377</ele>
        <time>2016-03-20T09:28:40.000Z</time>
      </trkpt>
      <trkpt lat="47.53189" lon="6.68382">
        <ele>377</ele>
        <time>2016-03-20T09:28:41.000Z</time>
      </trkpt>
      <trkpt lat="47.53197" lon="6.68385">
        <ele>376</ele>
        <time>2016-03-20T09:28:42.000Z</time>
      </trkpt>
      <trkpt lat="47.53204" lon="6.68386">
        <ele>376</ele>
        <time>2016-03-20T09:28:43.000Z</time>
      </trkpt>
      <trkpt lat="47.53211" lon="6.68388">
        <ele>375</ele>
        <time>2016-03-20T09:28:44.000Z</time>
      </trkpt>
      <trkpt lat="47.53219" lon="6.68385">
        <ele>375</ele>
        <time>2016-03-20T09:28:45.000Z</time>
      </trkpt>
      <trkpt lat="47.53231" lon="6.68383">
        <ele>374</ele>
        <time>2016-03-20T09:28:46.000Z</time>
      </trkpt>
      <trkpt lat="47.5324" lon="6.68384">
        <ele>373</ele>
        <time>2016-03-20T09:28:47.000Z</time>
      </trkpt>
      <trkpt lat="47.53248" lon="6.68387">
        <ele>373</ele>
        <time>2016-03-20T09:28:48.000Z</time>
      </trkpt>
      <trkpt lat="47.53258" lon="6.68385">
        <ele>367</ele>
        <time>2016-03-20T09:28:49.000Z</time>
      </trkpt>
      <trkpt lat="47.53268" lon="6.68383">
        <ele>366</ele>
        <time>2016-03-20T09:28:50.000Z</time>
      </trkpt>
      <trkpt lat="47.53277" lon="6.68385">
        <ele>366</ele>
        <time>2016-03-20T09:28:51.000Z</time>
      </trkpt>
      <trkpt lat="47.53287" lon="6.68386">
        <ele>365</ele>
        <time>2016-03-20T09:28:52.000Z</time>
      </trkpt>
      <trkpt lat="47.53297" lon="6.68386">
        <ele>365</ele>
        <time>2016-03-20T09:28:53.000Z</time>
      </trkpt>
      <trkpt lat="47.53309" lon="6.68385">
        <ele>365</ele>
        <time>2016-03-20T09:28:54.000Z</time>
      </trkpt>
      <trkpt lat="47.5332" lon="6.68386">
        <ele>364</ele>
        <time>2016-03-20T09:28:55.000Z</time>
      </trkpt>
      <trkpt lat="47.53329" lon="6.68387">
        <ele>364</ele>
        <time>2016-03-20T09:28:56.000Z</time>
      </trkpt>
      <trkpt lat="47.53339" lon="6.68387">
        <ele>366</ele>
        <time>2016-03-20T09:28:57.000Z</time>
      </trkpt>
      <trkpt lat="47.53346" lon="6.68389">
        <ele>366</ele>
        <time>2016-03-20T09:28:58.000Z</time>
      </trkpt>
      <trkpt lat="47.53351" lon="6.68391">
        <ele>367</ele>
        <time>2016-03-20T09:28:59.000Z</time>
      </trkpt>
      <trkpt lat="47.53355" lon="6.68391">
        <ele>367</ele>
        <time>2016-03-20T09:29:00.000Z</time>
      </trkpt>
      <trkpt lat="47.53357" lon="6.68388">
        <ele>367</ele>
        <time>2016-03-20T09:29:01.000Z</time>
      </trkpt>
      <trkpt lat="47.5336" lon="6.68386">
        <ele>367</ele>
        <time>2016-03-20T09:29:02.000Z</time>
      </trkpt>
      <trkpt lat="47.5336" lon="6.68383">
        <ele>367</ele>
        <time>2016-03-20T09:29:03.000Z</time>
      </trkpt>
      <trkpt lat="47.53363" lon="6.6838">
        <ele>368</ele>
        <time>2016-03-20T09:29:05.000Z</time>
      </trkpt>
      <trkpt lat="47.53364" lon="6.68378">
        <ele>368</ele>
        <time>2016-03-20T09:29:06.000Z</time>
      </trkpt>
      <trkpt lat="47.53368" lon="6.68378">
        <ele>368</ele>
        <time>2016-03-20T09:29:11.000Z</time>
      </trkpt>
      <trkpt lat="47.53369" lon="6.6838">
        <ele>368</ele>
        <time>2016-03-20T09:29:12.000Z</time>
      </trkpt>
      <trkpt lat="47.53371" lon="6.68383">
        <ele>368</ele>
        <time>2016-03-20T09:29:13.000Z</time>
      </trkpt>
      <trkpt lat="47.53373" lon="6.68386">
        <ele>368</ele>
        <time>2016-03-20T09:29:14.000Z</time>
      </trkpt>
      <trkpt lat="47.53376" lon="6.6839">
        <ele>369</ele>
        <time>2016-03-20T09:29:16.000Z</time>
      </trkpt>
      <trkpt lat="47.53377" lon="6.68391">
        <ele>369</ele>
        <time>2016-03-20T09:29:17.000Z</time>
      </trkpt>
      <trkpt lat="47.53379" lon="6.68394">
        <ele>369</ele>
        <time>2016-03-20T09:29:21.000Z</time>
      </trkpt>
      <trkpt lat="47.5338" lon="6.68395">
        <ele>369</ele>
        <time>2016-03-20T09:29:22.000Z</time>
      </trkpt>
      <trkpt lat="47.53383" lon="6.68399">
        <ele>370</ele>
        <time>2016-03-20T09:29:24.000Z</time>
      </trkpt>
      <trkpt lat="47.53385" lon="6.684">
        <ele>370</ele>
        <time>2016-03-20T09:29:25.000Z</time>
      </trkpt>
      <trkpt lat="47.53388" lon="6.68404">
        <ele>370</ele>
        <time>2016-03-20T09:29:27.000Z</time>
      </trkpt>
      <trkpt lat="47.53389" lon="6.68405">
        <ele>371</ele>
        <time>2016-03-20T09:29:28.000Z</time>
      </trkpt>
      <trkpt lat="47.53393" lon="6.68408">
        <ele>371</ele>
        <time>2016-03-20T09:29:30.000Z</time>
      </trkpt>
      <trkpt lat="47.53394" lon="6.68409">
        <ele>371</ele>
        <time>2016-03-20T09:29:31.000Z</time>
      </trkpt>
      <trkpt lat="47.53398" lon="6.68412">
        <ele>372</ele>
        <time>2016-03-20T09:29:34.000Z</time>
      </trkpt>
      <trkpt lat="47.53399" lon="6.68413">
        <ele>372</ele>
        <time>2016-03-20T09:29:35.000Z</time>
      </trkpt>
      <trkpt lat="47.53402" lon="6.68416">
        <ele>373</ele>
        <time>2016-03-20T09:29:39.000Z</time>
      </trkpt>
      <trkpt lat="47.53403" lon="6.68417">
        <ele>373</ele>
        <time>2016-03-20T09:29:40.000Z</time>
      </trkpt>
      <trkpt lat="47.53405" lon="6.68419">
        <ele>375</ele>
        <time>2016-03-20T09:29:42.000Z</time>
      </trkpt>
      <trkpt lat="47.53407" lon="6.68421">
        <ele>375</ele>
        <time>2016-03-20T09:29:43.000Z</time>
      </trkpt>
      <trkpt lat="47.5341" lon="6.68424">
        <ele>375</ele>
        <time>2016-03-20T09:29:45.000Z</time>
      </trkpt>
      <trkpt lat="47.53411" lon="6.68426">
        <ele>375</ele>
        <time>2016-03-20T09:29:46.000Z</time>
      </trkpt>
      <trkpt lat="47.53414" lon="6.68429">
        <ele>375</ele>
        <time>2016-03-20T09:29:48.000Z</time>
      </trkpt>
      <trkpt lat="47.53416" lon="6.6843">
        <ele>375</ele>
        <time>2016-03-20T09:29:49.000Z</time>
      </trkpt>
      <trkpt lat="47.53419" lon="6.68431">
        <ele>379</ele>
        <time>2016-03-20T09:29:51.000Z</time>
      </trkpt>
      <trkpt lat="47.53421" lon="6.68431">
        <ele>379</ele>
        <time>2016-03-20T09:29:52.000Z</time>
      </trkpt>
      <trkpt lat="47.53425" lon="6.68432">
        <ele>380</ele>
        <time>2016-03-20T09:29:54.000Z</time>
      </trkpt>
      <trkpt lat="47.53427" lon="6.68432">
        <ele>380</ele>
        <time>2016-03-20T09:29:55.000Z</time>
      </trkpt>
      <trkpt lat="47.53431" lon="6.68433">
        <ele>380</ele>
        <time>2016-03-20T09:29:57.000Z</time>
      </trkpt>
      <trkpt lat="47.53433" lon="6.68434">
        <ele>380</ele>
        <time>2016-03-20T09:29:58.000Z</time>
      </trkpt>
      <trkpt lat="47.53438" lon="6.68435">
        <ele>381</ele>
        <time>2016-03-20T09:30:00.000Z</time>
      </trkpt>
      <trkpt lat="47.5344" lon="6.68437">
        <ele>381</ele>
        <time>2016-03-20T09:30:01.000Z</time>
      </trkpt>
      <trkpt lat="47.53442" lon="6.68439">
        <ele>381</ele>
        <time>2016-03-20T09:30:02.000Z</time>
      </trkpt>
      <trkpt lat="47.53445" lon="6.68443">
        <ele>381</ele>
        <time>2016-03-20T09:30:03.000Z</time>
      </trkpt>
      <trkpt lat="47.53447" lon="6.68446">
        <ele>381</ele>
        <time>2016-03-20T09:30:04.000Z</time>
      </trkpt>
      <trkpt lat="47.5345" lon="6.68448">
        <ele>382</ele>
        <time>2016-03-20T09:30:05.000Z</time>
      </trkpt>
      <trkpt lat="47.53453" lon="6.6845">
        <ele>382</ele>
        <time>2016-03-20T09:30:06.000Z</time>
      </trkpt>
      <trkpt lat="47.53455" lon="6.68452">
        <ele>382</ele>
        <time>2016-03-20T09:30:07.000Z</time>
      </trkpt>
      <trkpt lat="47.53458" lon="6.68454">
        <ele>382</ele>
        <time>2016-03-20T09:30:08.000Z</time>
      </trkpt>
      <trkpt lat="47.53461" lon="6.68455">
        <ele>382</ele>
        <time>2016-03-20T09:30:09.000Z</time>
      </trkpt>
      <trkpt lat="47.53464" lon="6.68456">
        <ele>382</ele>
        <time>2016-03-20T09:30:10.000Z</time>
      </trkpt>
      <trkpt lat="47.53467" lon="6.68458">
        <ele>383</ele>
        <time>2016-03-20T09:30:11.000Z</time>
      </trkpt>
      <trkpt lat="47.53469" lon="6.68459">
        <ele>383</ele>
        <time>2016-03-20T09:30:12.000Z</time>
      </trkpt>
      <trkpt lat="47.53472" lon="6.68461">
        <ele>383</ele>
        <time>2016-03-20T09:30:13.000Z</time>
      </trkpt>
      <trkpt lat="47.53475" lon="6.68462">
        <ele>383</ele>
        <time>2016-03-20T09:30:14.000Z</time>
      </trkpt>
      <trkpt lat="47.53477" lon="6.68462">
        <ele>383</ele>
        <time>2016-03-20T09:30:15.000Z</time>
      </trkpt>
      <trkpt lat="47.5348" lon="6.68462">
        <ele>383</ele>
        <time>2016-03-20T09:30:16.000Z</time>
      </trkpt>
      <trkpt lat="47.53483" lon="6.68462">
        <ele>383</ele>
        <time>2016-03-20T09:30:17.000Z</time>
      </trkpt>
      <trkpt lat="47.53485" lon="6.68462">
        <ele>383</ele>
        <time>2016-03-20T09:30:18.000Z</time>
      </trkpt>
      <trkpt lat="47.53487" lon="6.68463">
        <ele>383</ele>
        <time>2016-03-20T09:30:19.000Z</time>
      </trkpt>
      <trkpt lat="47.53492" lon="6.68464">
        <ele>384</ele>
        <time>2016-03-20T09:30:21.000Z</time>
      </trkpt>
      <trkpt lat="47.53494" lon="6.68466">
        <ele>384</ele>
        <time>2016-03-20T09:30:22.000Z</time>
      </trkpt>
      <trkpt lat="47.53496" lon="6.68467">
        <ele>384</ele>
        <time>2016-03-20T09:30:23.000Z</time>
      </trkpt>
      <trkpt lat="47.53499" lon="6.68468">
        <ele>384</ele>
        <time>2016-03-20T09:30:24.000Z</time>
      </trkpt>
      <trkpt lat="47.53502" lon="6.68469">
        <ele>385</ele>
        <time>2016-03-20T09:30:25.000Z</time>
      </trkpt>
      <trkpt lat="47.53507" lon="6.68468">
        <ele>385</ele>
        <time>2016-03-20T09:30:26.000Z</time>
      </trkpt>
      <trkpt lat="47.53511" lon="6.68467">
        <ele>385</ele>
        <time>2016-03-20T09:30:27.000Z</time>
      </trkpt>
      <trkpt lat="47.53516" lon="6.68466">
        <ele>385</ele>
        <time>2016-03-20T09:30:28.000Z</time>
      </trkpt>
      <trkpt lat="47.53521" lon="6.68464">
        <ele>385</ele>
        <time>2016-03-20T09:30:29.000Z</time>
      </trkpt>
      <trkpt lat="47.53525" lon="6.68463">
        <ele>385</ele>
        <time>2016-03-20T09:30:30.000Z</time>
      </trkpt>
      <trkpt lat="47.53529" lon="6.68461">
        <ele>385</ele>
        <time>2016-03-20T09:30:31.000Z</time>
      </trkpt>
      <trkpt lat="47.53533" lon="6.68459">
        <ele>385</ele>
        <time>2016-03-20T09:30:32.000Z</time>
      </trkpt>
      <trkpt lat="47.53537" lon="6.68457">
        <ele>385</ele>
        <time>2016-03-20T09:30:33.000Z</time>
      </trkpt>
      <trkpt lat="47.5354" lon="6.68456">
        <ele>384</ele>
        <time>2016-03-20T09:30:34.000Z</time>
      </trkpt>
      <trkpt lat="47.53542" lon="6.68455">
        <ele>384</ele>
        <time>2016-03-20T09:30:35.000Z</time>
      </trkpt>
      <trkpt lat="47.53545" lon="6.68454">
        <ele>384</ele>
        <time>2016-03-20T09:30:36.000Z</time>
      </trkpt>
      <trkpt lat="47.53548" lon="6.68454">
        <ele>384</ele>
        <time>2016-03-20T09:30:37.000Z</time>
      </trkpt>
      <trkpt lat="47.53551" lon="6.68454">
        <ele>384</ele>
        <time>2016-03-20T09:30:38.000Z</time>
      </trkpt>
      <trkpt lat="47.53555" lon="6.68452">
        <ele>384</ele>
        <time>2016-03-20T09:30:39.000Z</time>
      </trkpt>
      <trkpt lat="47.5356" lon="6.6845">
        <ele>384</ele>
        <time>2016-03-20T09:30:40.000Z</time>
      </trkpt>
      <trkpt lat="47.53566" lon="6.68448">
        <ele>384</ele>
        <time>2016-03-20T09:30:41.000Z</time>
      </trkpt>
      <trkpt lat="47.53585" lon="6.68427">
        <ele>382</ele>
        <time>2016-03-20T09:30:42.000Z</time>
      </trkpt>
      <trkpt lat="47.5359" lon="6.68419">
        <ele>382</ele>
        <time>2016-03-20T09:30:43.000Z</time>
      </trkpt>
      <trkpt lat="47.53597" lon="6.68412">
        <ele>381</ele>
        <time>2016-03-20T09:30:44.000Z</time>
      </trkpt>
      <trkpt lat="47.53603" lon="6.68405">
        <ele>381</ele>
        <time>2016-03-20T09:30:45.000Z</time>
      </trkpt>
      <trkpt lat="47.53608" lon="6.684">
        <ele>381</ele>
        <time>2016-03-20T09:30:46.000Z</time>
      </trkpt>
      <trkpt lat="47.53613" lon="6.68396">
        <ele>381</ele>
        <time>2016-03-20T09:30:47.000Z</time>
      </trkpt>
      <trkpt lat="47.53618" lon="6.68392">
        <ele>381</ele>
        <time>2016-03-20T09:30:48.000Z</time>
      </trkpt>
      <trkpt lat="47.53618" lon="6.68391">
        <ele>381</ele>
        <time>2016-03-20T09:30:49.000Z</time>
      </trkpt>
      <trkpt lat="47.53622" lon="6.68388">
        <ele>381</ele>
        <time>2016-03-20T09:30:50.000Z</time>
      </trkpt>
      <trkpt lat="47.53623" lon="6.68387">
        <ele>381</ele>
        <time>2016-03-20T09:30:51.000Z</time>
      </trkpt>
      <trkpt lat="47.53626" lon="6.68382">
        <ele>381</ele>
        <time>2016-03-20T09:30:52.000Z</time>
      </trkpt>
      <trkpt lat="47.53629" lon="6.68381">
        <ele>381</ele>
        <time>2016-03-20T09:30:54.000Z</time>
      </trkpt>
      <trkpt lat="47.53631" lon="6.68381">
        <ele>381</ele>
        <time>2016-03-20T09:30:55.000Z</time>
      </trkpt>
      <trkpt lat="47.53635" lon="6.68378">
        <ele>381</ele>
        <time>2016-03-20T09:30:56.000Z</time>
      </trkpt>
      <trkpt lat="47.5364" lon="6.68376">
        <ele>381</ele>
        <time>2016-03-20T09:30:57.000Z</time>
      </trkpt>
      <trkpt lat="47.53643" lon="6.68373">
        <ele>381</ele>
        <time>2016-03-20T09:30:58.000Z</time>
      </trkpt>
      <trkpt lat="47.53647" lon="6.68371">
        <ele>381</ele>
        <time>2016-03-20T09:30:59.000Z</time>
      </trkpt>
      <trkpt lat="47.5365" lon="6.6837">
        <ele>381</ele>
        <time>2016-03-20T09:31:00.000Z</time>
      </trkpt>
      <trkpt lat="47.53652" lon="6.6837">
        <ele>381</ele>
        <time>2016-03-20T09:31:01.000Z</time>
      </trkpt>
      <trkpt lat="47.53655" lon="6.68372">
        <ele>381</ele>
        <time>2016-03-20T09:31:03.000Z</time>
      </trkpt>
      <trkpt lat="47.53657" lon="6.68373">
        <ele>381</ele>
        <time>2016-03-20T09:31:04.000Z</time>
      </trkpt>
      <trkpt lat="47.5366" lon="6.68374">
        <ele>381</ele>
        <time>2016-03-20T09:31:05.000Z</time>
      </trkpt>
      <trkpt lat="47.53662" lon="6.68374">
        <ele>381</ele>
        <time>2016-03-20T09:31:06.000Z</time>
      </trkpt>
      <trkpt lat="47.53665" lon="6.68376">
        <ele>380</ele>
        <time>2016-03-20T09:31:07.000Z</time>
      </trkpt>
      <trkpt lat="47.53667" lon="6.68377">
        <ele>381</ele>
        <time>2016-03-20T09:31:08.000Z</time>
      </trkpt>
      <trkpt lat="47.53671" lon="6.68378">
        <ele>381</ele>
        <time>2016-03-20T09:31:09.000Z</time>
      </trkpt>
      <trkpt lat="47.53676" lon="6.68376">
        <ele>381</ele>
        <time>2016-03-20T09:31:10.000Z</time>
      </trkpt>
      <trkpt lat="47.5368" lon="6.68373">
        <ele>381</ele>
        <time>2016-03-20T09:31:11.000Z</time>
      </trkpt>
      <trkpt lat="47.53685" lon="6.6837">
        <ele>381</ele>
        <time>2016-03-20T09:31:12.000Z</time>
      </trkpt>
      <trkpt lat="47.5369" lon="6.68368">
        <ele>381</ele>
        <time>2016-03-20T09:31:13.000Z</time>
      </trkpt>
      <trkpt lat="47.53694" lon="6.68364">
        <ele>381</ele>
        <time>2016-03-20T09:31:14.000Z</time>
      </trkpt>
      <trkpt lat="47.53697" lon="6.68362">
        <ele>382</ele>
        <time>2016-03-20T09:31:15.000Z</time>
      </trkpt>
      <trkpt lat="47.53698" lon="6.6836">
        <ele>382</ele>
        <time>2016-03-20T09:31:16.000Z</time>
      </trkpt>
      <trkpt lat="47.53701" lon="6.68355">
        <ele>382</ele>
        <time>2016-03-20T09:31:18.000Z</time>
      </trkpt>
      <trkpt lat="47.53703" lon="6.68352">
        <ele>382</ele>
        <time>2016-03-20T09:31:19.000Z</time>
      </trkpt>
      <trkpt lat="47.53704" lon="6.68349">
        <ele>382</ele>
        <time>2016-03-20T09:31:20.000Z</time>
      </trkpt>
      <trkpt lat="47.53707" lon="6.68345">
        <ele>382</ele>
        <time>2016-03-20T09:31:21.000Z</time>
      </trkpt>
      <trkpt lat="47.5371" lon="6.68341">
        <ele>382</ele>
        <time>2016-03-20T09:31:22.000Z</time>
      </trkpt>
      <trkpt lat="47.53714" lon="6.68337">
        <ele>383</ele>
        <time>2016-03-20T09:31:23.000Z</time>
      </trkpt>
      <trkpt lat="47.53717" lon="6.68332">
        <ele>385</ele>
        <time>2016-03-20T09:31:24.000Z</time>
      </trkpt>
      <trkpt lat="47.53721" lon="6.68328">
        <ele>385</ele>
        <time>2016-03-20T09:31:25.000Z</time>
      </trkpt>
      <trkpt lat="47.53725" lon="6.68322">
        <ele>386</ele>
        <time>2016-03-20T09:31:26.000Z</time>
      </trkpt>
      <trkpt lat="47.53729" lon="6.68315">
        <ele>386</ele>
        <time>2016-03-20T09:31:27.000Z</time>
      </trkpt>
      <trkpt lat="47.53732" lon="6.68307">
        <ele>386</ele>
        <time>2016-03-20T09:31:28.000Z</time>
      </trkpt>
      <trkpt lat="47.53735" lon="6.68299">
        <ele>386</ele>
        <time>2016-03-20T09:31:29.000Z</time>
      </trkpt>
      <trkpt lat="47.53737" lon="6.68291">
        <ele>386</ele>
        <time>2016-03-20T09:31:30.000Z</time>
      </trkpt>
      <trkpt lat="47.53738" lon="6.68283">
        <ele>386</ele>
        <time>2016-03-20T09:31:31.000Z</time>
      </trkpt>
      <trkpt lat="47.53739" lon="6.68275">
        <ele>387</ele>
        <time>2016-03-20T09:31:32.000Z</time>
      </trkpt>
      <trkpt lat="47.5374" lon="6.68268">
        <ele>387</ele>
        <time>2016-03-20T09:31:33.000Z</time>
      </trkpt>
      <trkpt lat="47.53742" lon="6.68262">
        <ele>387</ele>
        <time>2016-03-20T09:31:34.000Z</time>
      </trkpt>
      <trkpt lat="47.53744" lon="6.68256">
        <ele>388</ele>
        <time>2016-03-20T09:31:35.000Z</time>
      </trkpt>
      <trkpt lat="47.53746" lon="6.6825">
        <ele>389</ele>
        <time>2016-03-20T09:31:36.000Z</time>
      </trkpt>
      <trkpt lat="47.53748" lon="6.68244">
        <ele>388</ele>
        <time>2016-03-20T09:31:37.000Z</time>
      </trkpt>
      <trkpt lat="47.5375" lon="6.68238">
        <ele>388</ele>
        <time>2016-03-20T09:31:38.000Z</time>
      </trkpt>
      <trkpt lat="47.53751" lon="6.68233">
        <ele>388</ele>
        <time>2016-03-20T09:31:39.000Z</time>
      </trkpt>
      <trkpt lat="47.53751" lon="6.68226">
        <ele>388</ele>
        <time>2016-03-20T09:31:40.000Z</time>
      </trkpt>
      <trkpt lat="47.53752" lon="6.68219">
        <ele>388</ele>
        <time>2016-03-20T09:31:41.000Z</time>
      </trkpt>
      <trkpt lat="47.53753" lon="6.68212">
        <ele>388</ele>
        <time>2016-03-20T09:31:42.000Z</time>
      </trkpt>
      <trkpt lat="47.53753" lon="6.68206">
        <ele>388</ele>
        <time>2016-03-20T09:31:43.000Z</time>
      </trkpt>
      <trkpt lat="47.53755" lon="6.68201">
        <ele>388</ele>
        <time>2016-03-20T09:31:44.000Z</time>
      </trkpt>
      <trkpt lat="47.53756" lon="6.68197">
        <ele>388</ele>
        <time>2016-03-20T09:31:44.998Z</time>
      </trkpt>
      <trkpt lat="47.5376" lon="6.68189">
        <ele>388</ele>
        <time>2016-03-20T09:31:46.000Z</time>
      </trkpt>
      <trkpt lat="47.53763" lon="6.68182">
        <ele>388</ele>
        <time>2016-03-20T09:31:47.000Z</time>
      </trkpt>
      <trkpt lat="47.53766" lon="6.68175">
        <ele>388</ele>
        <time>2016-03-20T09:31:48.000Z</time>
      </trkpt>
      <trkpt lat="47.53769" lon="6.68168">
        <ele>388</ele>
        <time>2016-03-20T09:31:49.000Z</time>
      </trkpt>
      <trkpt lat="47.53773" lon="6.68153">
        <ele>386</ele>
        <time>2016-03-20T09:31:50.000Z</time>
      </trkpt>
      <trkpt lat="47.53772" lon="6.68143">
        <ele>386</ele>
        <time>2016-03-20T09:31:51.000Z</time>
      </trkpt>
      <trkpt lat="47.5377" lon="6.68136">
        <ele>386</ele>
        <time>2016-03-20T09:31:52.000Z</time>
      </trkpt>
      <trkpt lat="47.53772" lon="6.68131">
        <ele>386</ele>
        <time>2016-03-20T09:31:53.000Z</time>
      </trkpt>
      <trkpt lat="47.53772" lon="6.68125">
        <ele>386</ele>
        <time>2016-03-20T09:31:54.000Z</time>
      </trkpt>
      <trkpt lat="47.53771" lon="6.68118">
        <ele>385</ele>
        <time>2016-03-20T09:31:55.000Z</time>
      </trkpt>
      <trkpt lat="47.53771" lon="6.68114">
        <ele>385</ele>
        <time>2016-03-20T09:31:56.000Z</time>
      </trkpt>
      <trkpt lat="47.53769" lon="6.68104">
        <ele>385</ele>
        <time>2016-03-20T09:31:57.000Z</time>
      </trkpt>
      <trkpt lat="47.53767" lon="6.681">
        <ele>385</ele>
        <time>2016-03-20T09:31:58.000Z</time>
      </trkpt>
      <trkpt lat="47.53763" lon="6.68097">
        <ele>385</ele>
        <time>2016-03-20T09:31:59.000Z</time>
      </trkpt>
      <trkpt lat="47.53763" lon="6.68102">
        <ele>385</ele>
        <time>2016-03-20T09:32:08.000Z</time>
      </trkpt>
      <trkpt lat="47.53765" lon="6.68104">
        <ele>385</ele>
        <time>2016-03-20T09:32:09.000Z</time>
      </trkpt>
      <trkpt lat="47.53767" lon="6.68106">
        <ele>385</ele>
        <time>2016-03-20T09:32:10.000Z</time>
      </trkpt>
      <trkpt lat="47.53769" lon="6.68109">
        <ele>385</ele>
        <time>2016-03-20T09:32:11.000Z</time>
      </trkpt>
      <trkpt lat="47.53772" lon="6.68111">
        <ele>385</ele>
        <time>2016-03-20T09:32:12.000Z</time>
      </trkpt>
      <trkpt lat="47.53774" lon="6.68113">
        <ele>385</ele>
        <time>2016-03-20T09:32:13.000Z</time>
      </trkpt>
      <trkpt lat="47.53777" lon="6.68115">
        <ele>385</ele>
        <time>2016-03-20T09:32:14.000Z</time>
      </trkpt>
      <trkpt lat="47.5378" lon="6.68117">
        <ele>385</ele>
        <time>2016-03-20T09:32:15.000Z</time>
      </trkpt>
      <trkpt lat="47.53782" lon="6.68118">
        <ele>385</ele>
        <time>2016-03-20T09:32:16.000Z</time>
      </trkpt>
      <trkpt lat="47.53786" lon="6.6812">
        <ele>385</ele>
        <time>2016-03-20T09:32:17.000Z</time>
      </trkpt>
      <trkpt lat="47.5379" lon="6.6812">
        <ele>385</ele>
        <time>2016-03-20T09:32:18.000Z</time>
      </trkpt>
      <trkpt lat="47.53794" lon="6.68121">
        <ele>385</ele>
        <time>2016-03-20T09:32:19.000Z</time>
      </trkpt>
      <trkpt lat="47.53799" lon="6.68122">
        <ele>385</ele>
        <time>2016-03-20T09:32:20.000Z</time>
      </trkpt>
      <trkpt lat="47.53803" lon="6.68121">
        <ele>385</ele>
        <time>2016-03-20T09:32:21.000Z</time>
      </trkpt>
      <trkpt lat="47.53808" lon="6.6812">
        <ele>384</ele>
        <time>2016-03-20T09:32:22.000Z</time>
      </trkpt>
      <trkpt lat="47.53812" lon="6.68119">
        <ele>384</ele>
        <time>2016-03-20T09:32:23.000Z</time>
      </trkpt>
      <trkpt lat="47.53817" lon="6.68116">
        <ele>384</ele>
        <time>2016-03-20T09:32:24.000Z</time>
      </trkpt>
      <trkpt lat="47.53822" lon="6.68114">
        <ele>384</ele>
        <time>2016-03-20T09:32:25.000Z</time>
      </trkpt>
      <trkpt lat="47.53827" lon="6.68112">
        <ele>383</ele>
        <time>2016-03-20T09:32:26.000Z</time>
      </trkpt>
      <trkpt lat="47.53833" lon="6.6811">
        <ele>383</ele>
        <time>2016-03-20T09:32:27.000Z</time>
      </trkpt>
      <trkpt lat="47.53838" lon="6.68109">
        <ele>379</ele>
        <time>2016-03-20T09:32:28.000Z</time>
      </trkpt>
      <trkpt lat="47.53844" lon="6.68107">
        <ele>379</ele>
        <time>2016-03-20T09:32:29.000Z</time>
      </trkpt>
      <trkpt lat="47.53848" lon="6.68104">
        <ele>379</ele>
        <time>2016-03-20T09:32:30.000Z</time>
      </trkpt>
      <trkpt lat="47.53852" lon="6.681">
        <ele>379</ele>
        <time>2016-03-20T09:32:31.000Z</time>
      </trkpt>
      <trkpt lat="47.53855" lon="6.68097">
        <ele>379</ele>
        <time>2016-03-20T09:32:32.000Z</time>
      </trkpt>
      <trkpt lat="47.53858" lon="6.68094">
        <ele>378</ele>
        <time>2016-03-20T09:32:33.000Z</time>
      </trkpt>
      <trkpt lat="47.5386" lon="6.68092">
        <ele>378</ele>
        <time>2016-03-20T09:32:34.000Z</time>
      </trkpt>
      <trkpt lat="47.53863" lon="6.68087">
        <ele>378</ele>
        <time>2016-03-20T09:32:36.000Z</time>
      </trkpt>
      <trkpt lat="47.53864" lon="6.68084">
        <ele>378</ele>
        <time>2016-03-20T09:32:37.000Z</time>
      </trkpt>
      <trkpt lat="47.53865" lon="6.6808">
        <ele>377</ele>
        <time>2016-03-20T09:32:38.000Z</time>
      </trkpt>
      <trkpt lat="47.53866" lon="6.68078">
        <ele>377</ele>
        <time>2016-03-20T09:32:39.000Z</time>
      </trkpt>
      <trkpt lat="47.53867" lon="6.68075">
        <ele>377</ele>
        <time>2016-03-20T09:32:40.000Z</time>
      </trkpt>
      <trkpt lat="47.53868" lon="6.68071">
        <ele>376</ele>
        <time>2016-03-20T09:32:41.000Z</time>
      </trkpt>
      <trkpt lat="47.53868" lon="6.68067">
        <ele>376</ele>
        <time>2016-03-20T09:32:42.000Z</time>
      </trkpt>
      <trkpt lat="47.53868" lon="6.68061">
        <ele>376</ele>
        <time>2016-03-20T09:32:43.000Z</time>
      </trkpt>
      <trkpt lat="47.53867" lon="6.68055">
        <ele>376</ele>
        <time>2016-03-20T09:32:44.000Z</time>
      </trkpt>
      <trkpt lat="47.53866" lon="6.68049">
        <ele>376</ele>
        <time>2016-03-20T09:32:45.000Z</time>
      </trkpt>
      <trkpt lat="47.53862" lon="6.68034">
        <ele>376</ele>
        <time>2016-03-20T09:32:46.000Z</time>
      </trkpt>
      <trkpt lat="47.5386" lon="6.68027">
        <ele>375</ele>
        <time>2016-03-20T09:32:47.000Z</time>
      </trkpt>
      <trkpt lat="47.53859" lon="6.68018">
        <ele>375</ele>
        <time>2016-03-20T09:32:48.000Z</time>
      </trkpt>
      <trkpt lat="47.53854" lon="6.68009">
        <ele>375</ele>
        <time>2016-03-20T09:32:49.000Z</time>
      </trkpt>
      <trkpt lat="47.53851" lon="6.68001">
        <ele>374</ele>
        <time>2016-03-20T09:32:50.000Z</time>
      </trkpt>
      <trkpt lat="47.53845" lon="6.67994">
        <ele>373</ele>
        <time>2016-03-20T09:32:51.000Z</time>
      </trkpt>
      <trkpt lat="47.53841" lon="6.67987">
        <ele>373</ele>
        <time>2016-03-20T09:32:52.000Z</time>
      </trkpt>
      <trkpt lat="47.53835" lon="6.6798">
        <ele>373</ele>
        <time>2016-03-20T09:32:53.000Z</time>
      </trkpt>
      <trkpt lat="47.53832" lon="6.67972">
        <ele>372</ele>
        <time>2016-03-20T09:32:54.000Z</time>
      </trkpt>
      <trkpt lat="47.53825" lon="6.67965">
        <ele>372</ele>
        <time>2016-03-20T09:32:55.000Z</time>
      </trkpt>
      <trkpt lat="47.53819" lon="6.67958">
        <ele>371</ele>
        <time>2016-03-20T09:32:56.000Z</time>
      </trkpt>
      <trkpt lat="47.53813" lon="6.6795">
        <ele>371</ele>
        <time>2016-03-20T09:32:57.000Z</time>
      </trkpt>
      <trkpt lat="47.53807" lon="6.67944">
        <ele>371</ele>
        <time>2016-03-20T09:32:58.000Z</time>
      </trkpt>
      <trkpt lat="47.53802" lon="6.67938">
        <ele>371</ele>
        <time>2016-03-20T09:32:59.000Z</time>
      </trkpt>
      <trkpt lat="47.53797" lon="6.67931">
        <ele>371</ele>
        <time>2016-03-20T09:33:00.000Z</time>
      </trkpt>
      <trkpt lat="47.53792" lon="6.67926">
        <ele>370</ele>
        <time>2016-03-20T09:33:01.000Z</time>
      </trkpt>
      <trkpt lat="47.53787" lon="6.6792">
        <ele>370</ele>
        <time>2016-03-20T09:33:02.000Z</time>
      </trkpt>
      <trkpt lat="47.53782" lon="6.67915">
        <ele>368</ele>
        <time>2016-03-20T09:33:03.000Z</time>
      </trkpt>
      <trkpt lat="47.53778" lon="6.6791">
        <ele>368</ele>
        <time>2016-03-20T09:33:04.000Z</time>
      </trkpt>
      <trkpt lat="47.53773" lon="6.67904">
        <ele>368</ele>
        <time>2016-03-20T09:33:05.000Z</time>
      </trkpt>
      <trkpt lat="47.53768" lon="6.67898">
        <ele>368</ele>
        <time>2016-03-20T09:33:06.000Z</time>
      </trkpt>
      <trkpt lat="47.53764" lon="6.67892">
        <ele>368</ele>
        <time>2016-03-20T09:33:07.000Z</time>
      </trkpt>
      <trkpt lat="47.53758" lon="6.67887">
        <ele>367</ele>
        <time>2016-03-20T09:33:08.000Z</time>
      </trkpt>
      <trkpt lat="47.53753" lon="6.67883">
        <ele>367</ele>
        <time>2016-03-20T09:33:09.000Z</time>
      </trkpt>
      <trkpt lat="47.53748" lon="6.67877">
        <ele>366</ele>
        <time>2016-03-20T09:33:10.000Z</time>
      </trkpt>
      <trkpt lat="47.53743" lon="6.67872">
        <ele>366</ele>
        <time>2016-03-20T09:33:11.000Z</time>
      </trkpt>
      <trkpt lat="47.53738" lon="6.67868">
        <ele>366</ele>
        <time>2016-03-20T09:33:12.000Z</time>
      </trkpt>
      <trkpt lat="47.53734" lon="6.67863">
        <ele>366</ele>
        <time>2016-03-20T09:33:13.000Z</time>
      </trkpt>
      <trkpt lat="47.5373" lon="6.67856">
        <ele>366</ele>
        <time>2016-03-20T09:33:14.000Z</time>
      </trkpt>
      <trkpt lat="47.53727" lon="6.67847">
        <ele>366</ele>
        <time>2016-03-20T09:33:15.000Z</time>
      </trkpt>
      <trkpt lat="47.53723" lon="6.67844">
        <ele>366</ele>
        <time>2016-03-20T09:33:16.000Z</time>
      </trkpt>
      <trkpt lat="47.53719" lon="6.67839">
        <ele>366</ele>
        <time>2016-03-20T09:33:17.000Z</time>
      </trkpt>
      <trkpt lat="47.53715" lon="6.67834">
        <ele>366</ele>
        <time>2016-03-20T09:33:18.000Z</time>
      </trkpt>
      <trkpt lat="47.53711" lon="6.67829">
        <ele>367</ele>
        <time>2016-03-20T09:33:19.000Z</time>
      </trkpt>
      <trkpt lat="47.53707" lon="6.67825">
        <ele>367</ele>
        <time>2016-03-20T09:33:20.000Z</time>
      </trkpt>
      <trkpt lat="47.53703" lon="6.6782">
        <ele>368</ele>
        <time>2016-03-20T09:33:21.000Z</time>
      </trkpt>
      <trkpt lat="47.53699" lon="6.67816">
        <ele>368</ele>
        <time>2016-03-20T09:33:22.000Z</time>
      </trkpt>
      <trkpt lat="47.53695" lon="6.67812">
        <ele>368</ele>
        <time>2016-03-20T09:33:23.000Z</time>
      </trkpt>
      <trkpt lat="47.53691" lon="6.67807">
        <ele>368</ele>
        <time>2016-03-20T09:33:24.000Z</time>
      </trkpt>
      <trkpt lat="47.53687" lon="6.67803">
        <ele>368</ele>
        <time>2016-03-20T09:33:25.000Z</time>
      </trkpt>
      <trkpt lat="47.53684" lon="6.67798">
        <ele>368</ele>
        <time>2016-03-20T09:33:26.000Z</time>
      </trkpt>
      <trkpt lat="47.53684" lon="6.67793">
        <ele>369</ele>
        <time>2016-03-20T09:33:27.000Z</time>
      </trkpt>
      <trkpt lat="47.53685" lon="6.67789">
        <ele>369</ele>
        <time>2016-03-20T09:33:28.000Z</time>
      </trkpt>
      <trkpt lat="47.53685" lon="6.67785">
        <ele>369</ele>
        <time>2016-03-20T09:33:28.999Z</time>
      </trkpt>
      <trkpt lat="47.53687" lon="6.67774">
        <ele>369</ele>
        <time>2016-03-20T09:33:30.000Z</time>
      </trkpt>
      <trkpt lat="47.53686" lon="6.67771">
        <ele>370</ele>
        <time>2016-03-20T09:33:31.000Z</time>
      </trkpt>
      <trkpt lat="47.53682" lon="6.67766">
        <ele>370</ele>
        <time>2016-03-20T09:33:32.000Z</time>
      </trkpt>
      <trkpt lat="47.5368" lon="6.67761">
        <ele>370</ele>
        <time>2016-03-20T09:33:33.000Z</time>
      </trkpt>
      <trkpt lat="47.53677" lon="6.67757">
        <ele>371</ele>
        <time>2016-03-20T09:33:34.000Z</time>
      </trkpt>
      <trkpt lat="47.53677" lon="6.67752">
        <ele>371</ele>
        <time>2016-03-20T09:33:36.000Z</time>
      </trkpt>
      <trkpt lat="47.53679" lon="6.67751">
        <ele>371</ele>
        <time>2016-03-20T09:33:37.000Z</time>
      </trkpt>
      <trkpt lat="47.53683" lon="6.6775">
        <ele>373</ele>
        <time>2016-03-20T09:33:39.000Z</time>
      </trkpt>
      <trkpt lat="47.53684" lon="6.67751">
        <ele>370</ele>
        <time>2016-03-20T09:33:40.000Z</time>
      </trkpt>
      <trkpt lat="47.53687" lon="6.67752">
        <ele>370</ele>
        <time>2016-03-20T09:33:41.000Z</time>
      </trkpt>
      <trkpt lat="47.53689" lon="6.67752">
        <ele>370</ele>
        <time>2016-03-20T09:33:42.000Z</time>
      </trkpt>
      <trkpt lat="47.53692" lon="6.67752">
        <ele>370</ele>
        <time>2016-03-20T09:33:43.000Z</time>
      </trkpt>
      <trkpt lat="47.53695" lon="6.67752">
        <ele>370</ele>
        <time>2016-03-20T09:33:44.000Z</time>
      </trkpt>
      <trkpt lat="47.53698" lon="6.67752">
        <ele>370</ele>
        <time>2016-03-20T09:33:45.000Z</time>
      </trkpt>
      <trkpt lat="47.537" lon="6.67752">
        <ele>370</ele>
        <time>2016-03-20T09:33:46.000Z</time>
      </trkpt>
      <trkpt lat="47.53702" lon="6.67751">
        <ele>370</ele>
        <time>2016-03-20T09:33:47.000Z</time>
      </trkpt>
      <trkpt lat="47.53705" lon="6.67751">
        <ele>370</ele>
        <time>2016-03-20T09:33:48.000Z</time>
      </trkpt>
      <trkpt lat="47.53707" lon="6.6775">
        <ele>373</ele>
        <time>2016-03-20T09:33:49.000Z</time>
      </trkpt>
      <trkpt lat="47.53709" lon="6.67749">
        <ele>373</ele>
        <time>2016-03-20T09:33:50.000Z</time>
      </trkpt>
      <trkpt lat="47.53712" lon="6.67748">
        <ele>373</ele>
        <time>2016-03-20T09:33:51.000Z</time>
      </trkpt>
      <trkpt lat="47.53714" lon="6.67748">
        <ele>373</ele>
        <time>2016-03-20T09:33:52.000Z</time>
      </trkpt>
      <trkpt lat="47.53718" lon="6.67748">
        <ele>373</ele>
        <time>2016-03-20T09:33:54.000Z</time>
      </trkpt>
      <trkpt lat="47.5372" lon="6.67748">
        <ele>373</ele>
        <time>2016-03-20T09:33:55.000Z</time>
      </trkpt>
      <trkpt lat="47.53724" lon="6.67748">
        <ele>373</ele>
        <time>2016-03-20T09:33:57.000Z</time>
      </trkpt>
      <trkpt lat="47.53726" lon="6.67748">
        <ele>373</ele>
        <time>2016-03-20T09:33:58.000Z</time>
      </trkpt>
      <trkpt lat="47.53728" lon="6.67747">
        <ele>373</ele>
        <time>2016-03-20T09:33:59.000Z</time>
      </trkpt>
      <trkpt lat="47.5373" lon="6.67747">
        <ele>373</ele>
        <time>2016-03-20T09:34:00.000Z</time>
      </trkpt>
      <trkpt lat="47.53733" lon="6.67747">
        <ele>373</ele>
        <time>2016-03-20T09:34:01.000Z</time>
      </trkpt>
      <trkpt lat="47.53735" lon="6.67747">
        <ele>372</ele>
        <time>2016-03-20T09:34:02.000Z</time>
      </trkpt>
      <trkpt lat="47.53738" lon="6.67747">
        <ele>372</ele>
        <time>2016-03-20T09:34:03.000Z</time>
      </trkpt>
      <trkpt lat="47.53741" lon="6.67747">
        <ele>372</ele>
        <time>2016-03-20T09:34:04.000Z</time>
      </trkpt>
      <trkpt lat="47.53744" lon="6.67748">
        <ele>372</ele>
        <time>2016-03-20T09:34:05.000Z</time>
      </trkpt>
      <trkpt lat="47.53746" lon="6.67748">
        <ele>372</ele>
        <time>2016-03-20T09:34:06.000Z</time>
      </trkpt>
      <trkpt lat="47.53749" lon="6.67749">
        <ele>371</ele>
        <time>2016-03-20T09:34:07.000Z</time>
      </trkpt>
      <trkpt lat="47.53752" lon="6.67751">
        <ele>371</ele>
        <time>2016-03-20T09:34:08.000Z</time>
      </trkpt>
      <trkpt lat="47.53755" lon="6.67752">
        <ele>371</ele>
        <time>2016-03-20T09:34:09.000Z</time>
      </trkpt>
      <trkpt lat="47.53758" lon="6.67754">
        <ele>371</ele>
        <time>2016-03-20T09:34:10.000Z</time>
      </trkpt>
      <trkpt lat="47.53761" lon="6.67755">
        <ele>371</ele>
        <time>2016-03-20T09:34:11.000Z</time>
      </trkpt>
      <trkpt lat="47.53764" lon="6.67756">
        <ele>371</ele>
        <time>2016-03-20T09:34:12.000Z</time>
      </trkpt>
      <trkpt lat="47.53768" lon="6.67758">
        <ele>371</ele>
        <time>2016-03-20T09:34:13.000Z</time>
      </trkpt>
      <trkpt lat="47.53771" lon="6.67758">
        <ele>371</ele>
        <time>2016-03-20T09:34:14.000Z</time>
      </trkpt>
      <trkpt lat="47.53775" lon="6.67759">
        <ele>371</ele>
        <time>2016-03-20T09:34:15.000Z</time>
      </trkpt>
      <trkpt lat="47.53778" lon="6.6776">
        <ele>371</ele>
        <time>2016-03-20T09:34:16.000Z</time>
      </trkpt>
      <trkpt lat="47.53782" lon="6.67761">
        <ele>371</ele>
        <time>2016-03-20T09:34:17.000Z</time>
      </trkpt>
      <trkpt lat="47.53785" lon="6.67762">
        <ele>371</ele>
        <time>2016-03-20T09:34:18.000Z</time>
      </trkpt>
      <trkpt lat="47.53788" lon="6.67763">
        <ele>371</ele>
        <time>2016-03-20T09:34:19.000Z</time>
      </trkpt>
      <trkpt lat="47.53791" lon="6.67765">
        <ele>371</ele>
        <time>2016-03-20T09:34:20.000Z</time>
      </trkpt>
      <trkpt lat="47.53795" lon="6.67767">
        <ele>371</ele>
        <time>2016-03-20T09:34:21.000Z</time>
      </trkpt>
      <trkpt lat="47.53798" lon="6.67768">
        <ele>371</ele>
        <time>2016-03-20T09:34:22.000Z</time>
      </trkpt>
      <trkpt lat="47.53802" lon="6.67769">
        <ele>371</ele>
        <time>2016-03-20T09:34:23.000Z</time>
      </trkpt>
      <trkpt lat="47.53806" lon="6.6777">
        <ele>371</ele>
        <time>2016-03-20T09:34:24.000Z</time>
      </trkpt>
      <trkpt lat="47.53809" lon="6.67771">
        <ele>371</ele>
        <time>2016-03-20T09:34:25.000Z</time>
      </trkpt>
      <trkpt lat="47.53813" lon="6.67771">
        <ele>371</ele>
        <time>2016-03-20T09:34:26.000Z</time>
      </trkpt>
      <trkpt lat="47.53816" lon="6.67772">
        <ele>372</ele>
        <time>2016-03-20T09:34:27.000Z</time>
      </trkpt>
      <trkpt lat="47.53819" lon="6.67772">
        <ele>372</ele>
        <time>2016-03-20T09:34:28.000Z</time>
      </trkpt>
      <trkpt lat="47.53822" lon="6.67771">
        <ele>372</ele>
        <time>2016-03-20T09:34:29.000Z</time>
      </trkpt>
      <trkpt lat="47.53825" lon="6.67771">
        <ele>372</ele>
        <time>2016-03-20T09:34:30.000Z</time>
      </trkpt>
      <trkpt lat="47.53829" lon="6.67771">
        <ele>372</ele>
        <time>2016-03-20T09:34:33.000Z</time>
      </trkpt>
      <trkpt lat="47.5383" lon="6.6777">
        <ele>372</ele>
        <time>2016-03-20T09:34:34.000Z</time>
      </trkpt>
      <trkpt lat="47.5384" lon="6.67763">
        <ele>374</ele>
        <time>2016-03-20T09:34:35.000Z</time>
      </trkpt>
      <trkpt lat="47.53843" lon="6.67761">
        <ele>374</ele>
        <time>2016-03-20T09:34:36.000Z</time>
      </trkpt>
      <trkpt lat="47.53848" lon="6.67758">
        <ele>374</ele>
        <time>2016-03-20T09:34:37.000Z</time>
      </trkpt>
      <trkpt lat="47.53851" lon="6.67757">
        <ele>374</ele>
        <time>2016-03-20T09:34:38.000Z</time>
      </trkpt>
      <trkpt lat="47.53857" lon="6.67753">
        <ele>374</ele>
        <time>2016-03-20T09:34:39.000Z</time>
      </trkpt>
      <trkpt lat="47.53862" lon="6.67749">
        <ele>374</ele>
        <time>2016-03-20T09:34:40.000Z</time>
      </trkpt>
      <trkpt lat="47.53868" lon="6.67747">
        <ele>374</ele>
        <time>2016-03-20T09:34:41.000Z</time>
      </trkpt>
      <trkpt lat="47.53873" lon="6.67745">
        <ele>374</ele>
        <time>2016-03-20T09:34:42.000Z</time>
      </trkpt>
      <trkpt lat="47.53877" lon="6.67743">
        <ele>374</ele>
        <time>2016-03-20T09:34:43.000Z</time>
      </trkpt>
      <trkpt lat="47.53881" lon="6.67741">
        <ele>374</ele>
        <time>2016-03-20T09:34:44.000Z</time>
      </trkpt>
      <trkpt lat="47.53886" lon="6.67739">
        <ele>374</ele>
        <time>2016-03-20T09:34:45.000Z</time>
      </trkpt>
      <trkpt lat="47.53891" lon="6.67737">
        <ele>374</ele>
        <time>2016-03-20T09:34:46.000Z</time>
      </trkpt>
      <trkpt lat="47.53894" lon="6.67736">
        <ele>374</ele>
        <time>2016-03-20T09:34:47.000Z</time>
      </trkpt>
      <trkpt lat="47.539" lon="6.67729">
        <ele>374</ele>
        <time>2016-03-20T09:34:48.000Z</time>
      </trkpt>
      <trkpt lat="47.53904" lon="6.6773">
        <ele>374</ele>
        <time>2016-03-20T09:34:49.000Z</time>
      </trkpt>
      <trkpt lat="47.53908" lon="6.67729">
        <ele>374</ele>
        <time>2016-03-20T09:34:50.000Z</time>
      </trkpt>
      <trkpt lat="47.53911" lon="6.67727">
        <ele>374</ele>
        <time>2016-03-20T09:34:51.000Z</time>
      </trkpt>
      <trkpt lat="47.53914" lon="6.67726">
        <ele>374</ele>
        <time>2016-03-20T09:34:52.000Z</time>
      </trkpt>
      <trkpt lat="47.53918" lon="6.67725">
        <ele>375</ele>
        <time>2016-03-20T09:34:53.000Z</time>
      </trkpt>
      <trkpt lat="47.53921" lon="6.67724">
        <ele>375</ele>
        <time>2016-03-20T09:34:54.000Z</time>
      </trkpt>
      <trkpt lat="47.53925" lon="6.67723">
        <ele>375</ele>
        <time>2016-03-20T09:34:55.000Z</time>
      </trkpt>
      <trkpt lat="47.53929" lon="6.67721">
        <ele>375</ele>
        <time>2016-03-20T09:34:56.000Z</time>
      </trkpt>
      <trkpt lat="47.53933" lon="6.67719">
        <ele>375</ele>
        <time>2016-03-20T09:34:57.000Z</time>
      </trkpt>
      <trkpt lat="47.53938" lon="6.67717">
        <ele>375</ele>
        <time>2016-03-20T09:34:58.000Z</time>
      </trkpt>
      <trkpt lat="47.53942" lon="6.67715">
        <ele>375</ele>
        <time>2016-03-20T09:34:59.000Z</time>
      </trkpt>
      <trkpt lat="47.53947" lon="6.67713">
        <ele>375</ele>
        <time>2016-03-20T09:35:00.000Z</time>
      </trkpt>
      <trkpt lat="47.53952" lon="6.67711">
        <ele>375</ele>
        <time>2016-03-20T09:35:01.000Z</time>
      </trkpt>
      <trkpt lat="47.53957" lon="6.67708">
        <ele>375</ele>
        <time>2016-03-20T09:35:02.000Z</time>
      </trkpt>
      <trkpt lat="47.53961" lon="6.67704">
        <ele>375</ele>
        <time>2016-03-20T09:35:03.000Z</time>
      </trkpt>
      <trkpt lat="47.53966" lon="6.67702">
        <ele>375</ele>
        <time>2016-03-20T09:35:04.000Z</time>
      </trkpt>
      <trkpt lat="47.5397" lon="6.67699">
        <ele>375</ele>
        <time>2016-03-20T09:35:05.000Z</time>
      </trkpt>
      <trkpt lat="47.53974" lon="6.67696">
        <ele>375</ele>
        <time>2016-03-20T09:35:06.000Z</time>
      </trkpt>
      <trkpt lat="47.53978" lon="6.67693">
        <ele>375</ele>
        <time>2016-03-20T09:35:07.000Z</time>
      </trkpt>
      <trkpt lat="47.53982" lon="6.67691">
        <ele>375</ele>
        <time>2016-03-20T09:35:08.000Z</time>
      </trkpt>
      <trkpt lat="47.53987" lon="6.67681">
        <ele>375</ele>
        <time>2016-03-20T09:35:09.000Z</time>
      </trkpt>
      <trkpt lat="47.53991" lon="6.67679">
        <ele>375</ele>
        <time>2016-03-20T09:35:10.000Z</time>
      </trkpt>
      <trkpt lat="47.53993" lon="6.67678">
        <ele>375</ele>
        <time>2016-03-20T09:35:11.000Z</time>
      </trkpt>
      <trkpt lat="47.53994" lon="6.67674">
        <ele>375</ele>
        <time>2016-03-20T09:35:12.000Z</time>
      </trkpt>
      <trkpt lat="47.53998" lon="6.67669">
        <ele>375</ele>
        <time>2016-03-20T09:35:13.000Z</time>
      </trkpt>
      <trkpt lat="47.54003" lon="6.67667">
        <ele>376</ele>
        <time>2016-03-20T09:35:14.000Z</time>
      </trkpt>
      <trkpt lat="47.54007" lon="6.67665">
        <ele>376</ele>
        <time>2016-03-20T09:35:15.000Z</time>
      </trkpt>
      <trkpt lat="47.54008" lon="6.67662">
        <ele>377</ele>
        <time>2016-03-20T09:35:16.000Z</time>
      </trkpt>
      <trkpt lat="47.5401" lon="6.67659">
        <ele>377</ele>
        <time>2016-03-20T09:35:17.000Z</time>
      </trkpt>
      <trkpt lat="47.54013" lon="6.67656">
        <ele>378</ele>
        <time>2016-03-20T09:35:18.000Z</time>
      </trkpt>
      <trkpt lat="47.54013" lon="6.67651">
        <ele>378</ele>
        <time>2016-03-20T09:35:19.000Z</time>
      </trkpt>
      <trkpt lat="47.54015" lon="6.67647">
        <ele>379</ele>
        <time>2016-03-20T09:35:20.000Z</time>
      </trkpt>
      <trkpt lat="47.54017" lon="6.67644">
        <ele>379</ele>
        <time>2016-03-20T09:35:21.000Z</time>
      </trkpt>
      <trkpt lat="47.54021" lon="6.67642">
        <ele>379</ele>
        <time>2016-03-20T09:35:22.000Z</time>
      </trkpt>
      <trkpt lat="47.54025" lon="6.67637">
        <ele>380</ele>
        <time>2016-03-20T09:35:23.000Z</time>
      </trkpt>
      <trkpt lat="47.54028" lon="6.67633">
        <ele>380</ele>
        <time>2016-03-20T09:35:24.000Z</time>
      </trkpt>
      <trkpt lat="47.54032" lon="6.6763">
        <ele>380</ele>
        <time>2016-03-20T09:35:25.000Z</time>
      </trkpt>
      <trkpt lat="47.54035" lon="6.67627">
        <ele>380</ele>
        <time>2016-03-20T09:35:26.000Z</time>
      </trkpt>
      <trkpt lat="47.54038" lon="6.67624">
        <ele>380</ele>
        <time>2016-03-20T09:35:27.000Z</time>
      </trkpt>
      <trkpt lat="47.54041" lon="6.67622">
        <ele>381</ele>
        <time>2016-03-20T09:35:28.000Z</time>
      </trkpt>
      <trkpt lat="47.54044" lon="6.67619">
        <ele>381</ele>
        <time>2016-03-20T09:35:29.000Z</time>
      </trkpt>
      <trkpt lat="47.54048" lon="6.67617">
        <ele>381</ele>
        <time>2016-03-20T09:35:30.000Z</time>
      </trkpt>
      <trkpt lat="47.5405" lon="6.67616">
        <ele>381</ele>
        <time>2016-03-20T09:35:31.000Z</time>
      </trkpt>
      <trkpt lat="47.54053" lon="6.67615">
        <ele>381</ele>
        <time>2016-03-20T09:35:32.000Z</time>
      </trkpt>
      <trkpt lat="47.54056" lon="6.67614">
        <ele>382</ele>
        <time>2016-03-20T09:35:33.000Z</time>
      </trkpt>
      <trkpt lat="47.54058" lon="6.67613">
        <ele>382</ele>
        <time>2016-03-20T09:35:34.000Z</time>
      </trkpt>
      <trkpt lat="47.54061" lon="6.67611">
        <ele>382</ele>
        <time>2016-03-20T09:35:35.000Z</time>
      </trkpt>
      <trkpt lat="47.54064" lon="6.6761">
        <ele>382</ele>
        <time>2016-03-20T09:35:36.000Z</time>
      </trkpt>
      <trkpt lat="47.54067" lon="6.6761">
        <ele>382</ele>
        <time>2016-03-20T09:35:37.000Z</time>
      </trkpt>
      <trkpt lat="47.5407" lon="6.67609">
        <ele>382</ele>
        <time>2016-03-20T09:35:38.000Z</time>
      </trkpt>
      <trkpt lat="47.54073" lon="6.6761">
        <ele>383</ele>
        <time>2016-03-20T09:35:39.000Z</time>
      </trkpt>
      <trkpt lat="47.54077" lon="6.67611">
        <ele>383</ele>
        <time>2016-03-20T09:35:40.000Z</time>
      </trkpt>
      <trkpt lat="47.5408" lon="6.67611">
        <ele>383</ele>
        <time>2016-03-20T09:35:41.000Z</time>
      </trkpt>
      <trkpt lat="47.54083" lon="6.67612">
        <ele>383</ele>
        <time>2016-03-20T09:35:42.000Z</time>
      </trkpt>
      <trkpt lat="47.54086" lon="6.67612">
        <ele>387</ele>
        <time>2016-03-20T09:35:43.000Z</time>
      </trkpt>
      <trkpt lat="47.5409" lon="6.67612">
        <ele>387</ele>
        <time>2016-03-20T09:35:44.000Z</time>
      </trkpt>
      <trkpt lat="47.54093" lon="6.67612">
        <ele>387</ele>
        <time>2016-03-20T09:35:45.000Z</time>
      </trkpt>
      <trkpt lat="47.54096" lon="6.67612">
        <ele>387</ele>
        <time>2016-03-20T09:35:46.000Z</time>
      </trkpt>
      <trkpt lat="47.54099" lon="6.67613">
        <ele>387</ele>
        <time>2016-03-20T09:35:47.000Z</time>
      </trkpt>
      <trkpt lat="47.54101" lon="6.67613">
        <ele>387</ele>
        <time>2016-03-20T09:35:48.000Z</time>
      </trkpt>
      <trkpt lat="47.54104" lon="6.67613">
        <ele>387</ele>
        <time>2016-03-20T09:35:49.000Z</time>
      </trkpt>
      <trkpt lat="47.54107" lon="6.67613">
        <ele>388</ele>
        <time>2016-03-20T09:35:51.000Z</time>
      </trkpt>
      <trkpt lat="47.54109" lon="6.67613">
        <ele>388</ele>
        <time>2016-03-20T09:35:52.000Z</time>
      </trkpt>
      <trkpt lat="47.54111" lon="6.67612">
        <ele>388</ele>
        <time>2016-03-20T09:35:53.000Z</time>
      </trkpt>
      <trkpt lat="47.54114" lon="6.67612">
        <ele>388</ele>
        <time>2016-03-20T09:35:54.000Z</time>
      </trkpt>
      <trkpt lat="47.54116" lon="6.67611">
        <ele>388</ele>
        <time>2016-03-20T09:35:55.000Z</time>
      </trkpt>
      <trkpt lat="47.54119" lon="6.6761">
        <ele>388</ele>
        <time>2016-03-20T09:35:56.000Z</time>
      </trkpt>
      <trkpt lat="47.54123" lon="6.67609">
        <ele>388</ele>
        <time>2016-03-20T09:35:57.000Z</time>
      </trkpt>
      <trkpt lat="47.54126" lon="6.67608">
        <ele>388</ele>
        <time>2016-03-20T09:35:58.000Z</time>
      </trkpt>
      <trkpt lat="47.54128" lon="6.67608">
        <ele>388</ele>
        <time>2016-03-20T09:35:59.000Z</time>
      </trkpt>
      <trkpt lat="47.54131" lon="6.67608">
        <ele>388</ele>
        <time>2016-03-20T09:36:00.000Z</time>
      </trkpt>
      <trkpt lat="47.54133" lon="6.67608">
        <ele>388</ele>
        <time>2016-03-20T09:36:01.000Z</time>
      </trkpt>
      <trkpt lat="47.54136" lon="6.67608">
        <ele>387</ele>
        <time>2016-03-20T09:36:02.000Z</time>
      </trkpt>
      <trkpt lat="47.54139" lon="6.67607">
        <ele>387</ele>
        <time>2016-03-20T09:36:03.000Z</time>
      </trkpt>
      <trkpt lat="47.54143" lon="6.67607">
        <ele>387</ele>
        <time>2016-03-20T09:36:04.000Z</time>
      </trkpt>
      <trkpt lat="47.54147" lon="6.67607">
        <ele>387</ele>
        <time>2016-03-20T09:36:05.000Z</time>
      </trkpt>
      <trkpt lat="47.5415" lon="6.67608">
        <ele>387</ele>
        <time>2016-03-20T09:36:06.000Z</time>
      </trkpt>
      <trkpt lat="47.54154" lon="6.67608">
        <ele>387</ele>
        <time>2016-03-20T09:36:07.000Z</time>
      </trkpt>
      <trkpt lat="47.54157" lon="6.67608">
        <ele>387</ele>
        <time>2016-03-20T09:36:08.000Z</time>
      </trkpt>
      <trkpt lat="47.5416" lon="6.67608">
        <ele>387</ele>
        <time>2016-03-20T09:36:09.000Z</time>
      </trkpt>
      <trkpt lat="47.54163" lon="6.67608">
        <ele>387</ele>
        <time>2016-03-20T09:36:10.000Z</time>
      </trkpt>
      <trkpt lat="47.54166" lon="6.67608">
        <ele>387</ele>
        <time>2016-03-20T09:36:11.000Z</time>
      </trkpt>
      <trkpt lat="47.54169" lon="6.67607">
        <ele>388</ele>
        <time>2016-03-20T09:36:12.000Z</time>
      </trkpt>
      <trkpt lat="47.54172" lon="6.67607">
        <ele>388</ele>
        <time>2016-03-20T09:36:13.000Z</time>
      </trkpt>
      <trkpt lat="47.54176" lon="6.67607">
        <ele>388</ele>
        <time>2016-03-20T09:36:14.000Z</time>
      </trkpt>
      <trkpt lat="47.54179" lon="6.67607">
        <ele>388</ele>
        <time>2016-03-20T09:36:15.000Z</time>
      </trkpt>
      <trkpt lat="47.54183" lon="6.67607">
        <ele>388</ele>
        <time>2016-03-20T09:36:16.000Z</time>
      </trkpt>
      <trkpt lat="47.54187" lon="6.67607">
        <ele>388</ele>
        <time>2016-03-20T09:36:17.000Z</time>
      </trkpt>
      <trkpt lat="47.54191" lon="6.67606">
        <ele>388</ele>
        <time>2016-03-20T09:36:18.000Z</time>
      </trkpt>
      <trkpt lat="47.54195" lon="6.67605">
        <ele>388</ele>
        <time>2016-03-20T09:36:19.000Z</time>
      </trkpt>
      <trkpt lat="47.542" lon="6.67605">
        <ele>389</ele>
        <time>2016-03-20T09:36:20.000Z</time>
      </trkpt>
      <trkpt lat="47.54204" lon="6.67604">
        <ele>389</ele>
        <time>2016-03-20T09:36:21.000Z</time>
      </trkpt>
      <trkpt lat="47.54208" lon="6.67604">
        <ele>389</ele>
        <time>2016-03-20T09:36:22.000Z</time>
      </trkpt>
      <trkpt lat="47.54211" lon="6.67605">
        <ele>389</ele>
        <time>2016-03-20T09:36:23.000Z</time>
      </trkpt>
      <trkpt lat="47.54215" lon="6.67606">
        <ele>389</ele>
        <time>2016-03-20T09:36:24.000Z</time>
      </trkpt>
      <trkpt lat="47.54219" lon="6.67607">
        <ele>389</ele>
        <time>2016-03-20T09:36:25.000Z</time>
      </trkpt>
      <trkpt lat="47.54222" lon="6.67608">
        <ele>389</ele>
        <time>2016-03-20T09:36:26.000Z</time>
      </trkpt>
      <trkpt lat="47.54224" lon="6.67609">
        <ele>389</ele>
        <time>2016-03-20T09:36:27.000Z</time>
      </trkpt>
      <trkpt lat="47.54227" lon="6.67609">
        <ele>389</ele>
        <time>2016-03-20T09:36:28.000Z</time>
      </trkpt>
      <trkpt lat="47.5423" lon="6.67608">
        <ele>389</ele>
        <time>2016-03-20T09:36:29.000Z</time>
      </trkpt>
      <trkpt lat="47.54233" lon="6.67607">
        <ele>388</ele>
        <time>2016-03-20T09:36:30.000Z</time>
      </trkpt>
      <trkpt lat="47.54237" lon="6.67606">
        <ele>388</ele>
        <time>2016-03-20T09:36:31.000Z</time>
      </trkpt>
      <trkpt lat="47.5424" lon="6.67606">
        <ele>388</ele>
        <time>2016-03-20T09:36:32.000Z</time>
      </trkpt>
      <trkpt lat="47.54244" lon="6.67606">
        <ele>388</ele>
        <time>2016-03-20T09:36:33.000Z</time>
      </trkpt>
      <trkpt lat="47.54249" lon="6.67605">
        <ele>388</ele>
        <time>2016-03-20T09:36:34.000Z</time>
      </trkpt>
      <trkpt lat="47.54254" lon="6.67604">
        <ele>389</ele>
        <time>2016-03-20T09:36:35.000Z</time>
      </trkpt>
      <trkpt lat="47.5426" lon="6.67602">
        <ele>389</ele>
        <time>2016-03-20T09:36:36.000Z</time>
      </trkpt>
      <trkpt lat="47.54266" lon="6.676">
        <ele>389</ele>
        <time>2016-03-20T09:36:37.000Z</time>
      </trkpt>
      <trkpt lat="47.54271" lon="6.67599">
        <ele>389</ele>
        <time>2016-03-20T09:36:38.000Z</time>
      </trkpt>
      <trkpt lat="47.54277" lon="6.67597">
        <ele>390</ele>
        <time>2016-03-20T09:36:39.000Z</time>
      </trkpt>
      <trkpt lat="47.54283" lon="6.67596">
        <ele>390</ele>
        <time>2016-03-20T09:36:40.000Z</time>
      </trkpt>
      <trkpt lat="47.54289" lon="6.67594">
        <ele>390</ele>
        <time>2016-03-20T09:36:41.000Z</time>
      </trkpt>
      <trkpt lat="47.54295" lon="6.67592">
        <ele>390</ele>
        <time>2016-03-20T09:36:42.000Z</time>
      </trkpt>
      <trkpt lat="47.54301" lon="6.67589">
        <ele>390</ele>
        <time>2016-03-20T09:36:43.000Z</time>
      </trkpt>
      <trkpt lat="47.54306" lon="6.67586">
        <ele>390</ele>
        <time>2016-03-20T09:36:44.000Z</time>
      </trkpt>
      <trkpt lat="47.5431" lon="6.67584">
        <ele>390</ele>
        <time>2016-03-20T09:36:45.000Z</time>
      </trkpt>
      <trkpt lat="47.54315" lon="6.67582">
        <ele>386</ele>
        <time>2016-03-20T09:36:46.000Z</time>
      </trkpt>
      <trkpt lat="47.54318" lon="6.6758">
        <ele>386</ele>
        <time>2016-03-20T09:36:47.000Z</time>
      </trkpt>
      <trkpt lat="47.54322" lon="6.67578">
        <ele>386</ele>
        <time>2016-03-20T09:36:48.000Z</time>
      </trkpt>
      <trkpt lat="47.54326" lon="6.67575">
        <ele>386</ele>
        <time>2016-03-20T09:36:49.000Z</time>
      </trkpt>
      <trkpt lat="47.54329" lon="6.67573">
        <ele>386</ele>
        <time>2016-03-20T09:36:50.000Z</time>
      </trkpt>
      <trkpt lat="47.54333" lon="6.67571">
        <ele>386</ele>
        <time>2016-03-20T09:36:51.000Z</time>
      </trkpt>
      <trkpt lat="47.54337" lon="6.67569">
        <ele>389</ele>
        <time>2016-03-20T09:36:52.000Z</time>
      </trkpt>
      <trkpt lat="47.54341" lon="6.67567">
        <ele>389</ele>
        <time>2016-03-20T09:36:53.000Z</time>
      </trkpt>
      <trkpt lat="47.54346" lon="6.67565">
        <ele>389</ele>
        <time>2016-03-20T09:36:54.000Z</time>
      </trkpt>
      <trkpt lat="47.54351" lon="6.67564">
        <ele>389</ele>
        <time>2016-03-20T09:36:55.000Z</time>
      </trkpt>
      <trkpt lat="47.54356" lon="6.67563">
        <ele>389</ele>
        <time>2016-03-20T09:36:56.000Z</time>
      </trkpt>
      <trkpt lat="47.54361" lon="6.67561">
        <ele>390</ele>
        <time>2016-03-20T09:36:57.000Z</time>
      </trkpt>
      <trkpt lat="47.54366" lon="6.67559">
        <ele>390</ele>
        <time>2016-03-20T09:36:58.000Z</time>
      </trkpt>
      <trkpt lat="47.54371" lon="6.67556">
        <ele>390</ele>
        <time>2016-03-20T09:36:59.000Z</time>
      </trkpt>
      <trkpt lat="47.54376" lon="6.67554">
        <ele>390</ele>
        <time>2016-03-20T09:37:00.000Z</time>
      </trkpt>
      <trkpt lat="47.5438" lon="6.67552">
        <ele>390</ele>
        <time>2016-03-20T09:37:01.000Z</time>
      </trkpt>
      <trkpt lat="47.54384" lon="6.67551">
        <ele>391</ele>
        <time>2016-03-20T09:37:02.000Z</time>
      </trkpt>
      <trkpt lat="47.54388" lon="6.67551">
        <ele>391</ele>
        <time>2016-03-20T09:37:03.000Z</time>
      </trkpt>
      <trkpt lat="47.54392" lon="6.6755">
        <ele>391</ele>
        <time>2016-03-20T09:37:04.000Z</time>
      </trkpt>
      <trkpt lat="47.54396" lon="6.6755">
        <ele>391</ele>
        <time>2016-03-20T09:37:05.000Z</time>
      </trkpt>
      <trkpt lat="47.54398" lon="6.6755">
        <ele>391</ele>
        <time>2016-03-20T09:37:06.000Z</time>
      </trkpt>
      <trkpt lat="47.54401" lon="6.6755">
        <ele>391</ele>
        <time>2016-03-20T09:37:07.000Z</time>
      </trkpt>
      <trkpt lat="47.54404" lon="6.67549">
        <ele>391</ele>
        <time>2016-03-20T09:37:08.000Z</time>
      </trkpt>
      <trkpt lat="47.54407" lon="6.67549">
        <ele>392</ele>
        <time>2016-03-20T09:37:09.000Z</time>
      </trkpt>
      <trkpt lat="47.5441" lon="6.67549">
        <ele>392</ele>
        <time>2016-03-20T09:37:10.000Z</time>
      </trkpt>
      <trkpt lat="47.54414" lon="6.67549">
        <ele>392</ele>
        <time>2016-03-20T09:37:11.000Z</time>
      </trkpt>
      <trkpt lat="47.54416" lon="6.6755">
        <ele>392</ele>
        <time>2016-03-20T09:37:11.999Z</time>
      </trkpt>
      <trkpt lat="47.54421" lon="6.6755">
        <ele>396</ele>
        <time>2016-03-20T09:37:13.000Z</time>
      </trkpt>
      <trkpt lat="47.54424" lon="6.6755">
        <ele>396</ele>
        <time>2016-03-20T09:37:14.000Z</time>
      </trkpt>
      <trkpt lat="47.54427" lon="6.6755">
        <ele>396</ele>
        <time>2016-03-20T09:37:15.000Z</time>
      </trkpt>
      <trkpt lat="47.54431" lon="6.6755">
        <ele>396</ele>
        <time>2016-03-20T09:37:16.000Z</time>
      </trkpt>
      <trkpt lat="47.54434" lon="6.67551">
        <ele>396</ele>
        <time>2016-03-20T09:37:17.000Z</time>
      </trkpt>
      <trkpt lat="47.54438" lon="6.67551">
        <ele>396</ele>
        <time>2016-03-20T09:37:18.000Z</time>
      </trkpt>
      <trkpt lat="47.54442" lon="6.6755">
        <ele>396</ele>
        <time>2016-03-20T09:37:19.000Z</time>
      </trkpt>
      <trkpt lat="47.54446" lon="6.6755">
        <ele>396</ele>
        <time>2016-03-20T09:37:20.000Z</time>
      </trkpt>
      <trkpt lat="47.54449" lon="6.67549">
        <ele>396</ele>
        <time>2016-03-20T09:37:21.000Z</time>
      </trkpt>
      <trkpt lat="47.54453" lon="6.67548">
        <ele>396</ele>
        <time>2016-03-20T09:37:22.000Z</time>
      </trkpt>
      <trkpt lat="47.54457" lon="6.67546">
        <ele>396</ele>
        <time>2016-03-20T09:37:23.000Z</time>
      </trkpt>
      <trkpt lat="47.54461" lon="6.67545">
        <ele>396</ele>
        <time>2016-03-20T09:37:24.000Z</time>
      </trkpt>
      <trkpt lat="47.54464" lon="6.67544">
        <ele>396</ele>
        <time>2016-03-20T09:37:25.000Z</time>
      </trkpt>
      <trkpt lat="47.54468" lon="6.67543">
        <ele>396</ele>
        <time>2016-03-20T09:37:26.000Z</time>
      </trkpt>
      <trkpt lat="47.54471" lon="6.67542">
        <ele>396</ele>
        <time>2016-03-20T09:37:27.000Z</time>
      </trkpt>
      <trkpt lat="47.54474" lon="6.67541">
        <ele>396</ele>
        <time>2016-03-20T09:37:28.000Z</time>
      </trkpt>
      <trkpt lat="47.54477" lon="6.67539">
        <ele>396</ele>
        <time>2016-03-20T09:37:29.000Z</time>
      </trkpt>
      <trkpt lat="47.5448" lon="6.67538">
        <ele>396</ele>
        <time>2016-03-20T09:37:30.000Z</time>
      </trkpt>
      <trkpt lat="47.54484" lon="6.67538">
        <ele>396</ele>
        <time>2016-03-20T09:37:31.000Z</time>
      </trkpt>
      <trkpt lat="47.54489" lon="6.67537">
        <ele>396</ele>
        <time>2016-03-20T09:37:32.000Z</time>
      </trkpt>
      <trkpt lat="47.54493" lon="6.67537">
        <ele>396</ele>
        <time>2016-03-20T09:37:33.000Z</time>
      </trkpt>
      <trkpt lat="47.54497" lon="6.67537">
        <ele>396</ele>
        <time>2016-03-20T09:37:34.000Z</time>
      </trkpt>
      <trkpt lat="47.54501" lon="6.67537">
        <ele>398</ele>
        <time>2016-03-20T09:37:35.000Z</time>
      </trkpt>
      <trkpt lat="47.54505" lon="6.67537">
        <ele>398</ele>
        <time>2016-03-20T09:37:36.000Z</time>
      </trkpt>
      <trkpt lat="47.54508" lon="6.67537">
        <ele>398</ele>
        <time>2016-03-20T09:37:37.000Z</time>
      </trkpt>
      <trkpt lat="47.54511" lon="6.67537">
        <ele>398</ele>
        <time>2016-03-20T09:37:38.000Z</time>
      </trkpt>
      <trkpt lat="47.54514" lon="6.67536">
        <ele>398</ele>
        <time>2016-03-20T09:37:39.000Z</time>
      </trkpt>
      <trkpt lat="47.54517" lon="6.67535">
        <ele>398</ele>
        <time>2016-03-20T09:37:40.000Z</time>
      </trkpt>
      <trkpt lat="47.54521" lon="6.67534">
        <ele>398</ele>
        <time>2016-03-20T09:37:41.000Z</time>
      </trkpt>
      <trkpt lat="47.54525" lon="6.67533">
        <ele>398</ele>
        <time>2016-03-20T09:37:42.000Z</time>
      </trkpt>
      <trkpt lat="47.54529" lon="6.67532">
        <ele>398</ele>
        <time>2016-03-20T09:37:43.000Z</time>
      </trkpt>
      <trkpt lat="47.54534" lon="6.67531">
        <ele>398</ele>
        <time>2016-03-20T09:37:44.000Z</time>
      </trkpt>
      <trkpt lat="47.54538" lon="6.6753">
        <ele>398</ele>
        <time>2016-03-20T09:37:45.000Z</time>
      </trkpt>
      <trkpt lat="47.54543" lon="6.6753">
        <ele>398</ele>
        <time>2016-03-20T09:37:46.000Z</time>
      </trkpt>
      <trkpt lat="47.54547" lon="6.67529">
        <ele>398</ele>
        <time>2016-03-20T09:37:47.000Z</time>
      </trkpt>
      <trkpt lat="47.54551" lon="6.67528">
        <ele>398</ele>
        <time>2016-03-20T09:37:48.000Z</time>
      </trkpt>
      <trkpt lat="47.54555" lon="6.67529">
        <ele>398</ele>
        <time>2016-03-20T09:37:49.000Z</time>
      </trkpt>
      <trkpt lat="47.5456" lon="6.6753">
        <ele>398</ele>
        <time>2016-03-20T09:37:50.000Z</time>
      </trkpt>
      <trkpt lat="47.54565" lon="6.6753">
        <ele>398</ele>
        <time>2016-03-20T09:37:51.000Z</time>
      </trkpt>
      <trkpt lat="47.5457" lon="6.67531">
        <ele>398</ele>
        <time>2016-03-20T09:37:52.000Z</time>
      </trkpt>
      <trkpt lat="47.54575" lon="6.67531">
        <ele>398</ele>
        <time>2016-03-20T09:37:53.000Z</time>
      </trkpt>
      <trkpt lat="47.54579" lon="6.67531">
        <ele>398</ele>
        <time>2016-03-20T09:37:54.000Z</time>
      </trkpt>
      <trkpt lat="47.54582" lon="6.67531">
        <ele>398</ele>
        <time>2016-03-20T09:37:55.000Z</time>
      </trkpt>
      <trkpt lat="47.54586" lon="6.67531">
        <ele>399</ele>
        <time>2016-03-20T09:37:56.000Z</time>
      </trkpt>
      <trkpt lat="47.54589" lon="6.67531">
        <ele>399</ele>
        <time>2016-03-20T09:37:57.000Z</time>
      </trkpt>
      <trkpt lat="47.54593" lon="6.6753">
        <ele>399</ele>
        <time>2016-03-20T09:37:58.000Z</time>
      </trkpt>
      <trkpt lat="47.54596" lon="6.6753">
        <ele>399</ele>
        <time>2016-03-20T09:37:59.000Z</time>
      </trkpt>
      <trkpt lat="47.54599" lon="6.67531">
        <ele>399</ele>
        <time>2016-03-20T09:38:00.000Z</time>
      </trkpt>
      <trkpt lat="47.54602" lon="6.67531">
        <ele>399</ele>
        <time>2016-03-20T09:38:01.000Z</time>
      </trkpt>
      <trkpt lat="47.54605" lon="6.6753">
        <ele>399</ele>
        <time>2016-03-20T09:38:02.000Z</time>
      </trkpt>
      <trkpt lat="47.54607" lon="6.6753">
        <ele>400</ele>
        <time>2016-03-20T09:38:03.000Z</time>
      </trkpt>
      <trkpt lat="47.54611" lon="6.67531">
        <ele>400</ele>
        <time>2016-03-20T09:38:04.000Z</time>
      </trkpt>
      <trkpt lat="47.54614" lon="6.67532">
        <ele>400</ele>
        <time>2016-03-20T09:38:05.000Z</time>
      </trkpt>
      <trkpt lat="47.54618" lon="6.67533">
        <ele>400</ele>
        <time>2016-03-20T09:38:06.000Z</time>
      </trkpt>
      <trkpt lat="47.54621" lon="6.67533">
        <ele>400</ele>
        <time>2016-03-20T09:38:07.000Z</time>
      </trkpt>
      <trkpt lat="47.54624" lon="6.67533">
        <ele>400</ele>
        <time>2016-03-20T09:38:08.000Z</time>
      </trkpt>
      <trkpt lat="47.54626" lon="6.67532">
        <ele>400</ele>
        <time>2016-03-20T09:38:09.000Z</time>
      </trkpt>
      <trkpt lat="47.54629" lon="6.67533">
        <ele>400</ele>
        <time>2016-03-20T09:38:10.000Z</time>
      </trkpt>
      <trkpt lat="47.54633" lon="6.67534">
        <ele>400</ele>
        <time>2016-03-20T09:38:11.000Z</time>
      </trkpt>
      <trkpt lat="47.54636" lon="6.67536">
        <ele>400</ele>
        <time>2016-03-20T09:38:12.000Z</time>
      </trkpt>
      <trkpt lat="47.54639" lon="6.67537">
        <ele>401</ele>
        <time>2016-03-20T09:38:13.000Z</time>
      </trkpt>
      <trkpt lat="47.54642" lon="6.67539">
        <ele>401</ele>
        <time>2016-03-20T09:38:14.000Z</time>
      </trkpt>
      <trkpt lat="47.54644" lon="6.6754">
        <ele>401</ele>
        <time>2016-03-20T09:38:14.998Z</time>
      </trkpt>
      <trkpt lat="47.54649" lon="6.67541">
        <ele>401</ele>
        <time>2016-03-20T09:38:16.000Z</time>
      </trkpt>
      <trkpt lat="47.54652" lon="6.67541">
        <ele>401</ele>
        <time>2016-03-20T09:38:17.000Z</time>
      </trkpt>
      <trkpt lat="47.54655" lon="6.67542">
        <ele>401</ele>
        <time>2016-03-20T09:38:18.000Z</time>
      </trkpt>
      <trkpt lat="47.54658" lon="6.67543">
        <ele>401</ele>
        <time>2016-03-20T09:38:19.000Z</time>
      </trkpt>
      <trkpt lat="47.5466" lon="6.67544">
        <ele>402</ele>
        <time>2016-03-20T09:38:20.000Z</time>
      </trkpt>
      <trkpt lat="47.54663" lon="6.67545">
        <ele>402</ele>
        <time>2016-03-20T09:38:21.000Z</time>
      </trkpt>
      <trkpt lat="47.54666" lon="6.67546">
        <ele>402</ele>
        <time>2016-03-20T09:38:22.000Z</time>
      </trkpt>
      <trkpt lat="47.54669" lon="6.67546">
        <ele>404</ele>
        <time>2016-03-20T09:38:23.000Z</time>
      </trkpt>
      <trkpt lat="47.54672" lon="6.67547">
        <ele>404</ele>
        <time>2016-03-20T09:38:24.000Z</time>
      </trkpt>
      <trkpt lat="47.54675" lon="6.67547">
        <ele>405</ele>
        <time>2016-03-20T09:38:25.000Z</time>
      </trkpt>
      <trkpt lat="47.54677" lon="6.67548">
        <ele>405</ele>
        <time>2016-03-20T09:38:26.000Z</time>
      </trkpt>
      <trkpt lat="47.54679" lon="6.67549">
        <ele>405</ele>
        <time>2016-03-20T09:38:27.000Z</time>
      </trkpt>
      <trkpt lat="47.54682" lon="6.67549">
        <ele>405</ele>
        <time>2016-03-20T09:38:28.000Z</time>
      </trkpt>
      <trkpt lat="47.54685" lon="6.67549">
        <ele>405</ele>
        <time>2016-03-20T09:38:29.000Z</time>
      </trkpt>
      <trkpt lat="47.54689" lon="6.67549">
        <ele>405</ele>
        <time>2016-03-20T09:38:30.000Z</time>
      </trkpt>
      <trkpt lat="47.54692" lon="6.67549">
        <ele>405</ele>
        <time>2016-03-20T09:38:31.000Z</time>
      </trkpt>
      <trkpt lat="47.54694" lon="6.67548">
        <ele>405</ele>
        <time>2016-03-20T09:38:32.000Z</time>
      </trkpt>
      <trkpt lat="47.54697" lon="6.67548">
        <ele>405</ele>
        <time>2016-03-20T09:38:33.000Z</time>
      </trkpt>
      <trkpt lat="47.54699" lon="6.67549">
        <ele>405</ele>
        <time>2016-03-20T09:38:34.000Z</time>
      </trkpt>
      <trkpt lat="47.54702" lon="6.67549">
        <ele>405</ele>
        <time>2016-03-20T09:38:35.000Z</time>
      </trkpt>
      <trkpt lat="47.54705" lon="6.67549">
        <ele>406</ele>
        <time>2016-03-20T09:38:36.000Z</time>
      </trkpt>
      <trkpt lat="47.54708" lon="6.6755">
        <ele>406</ele>
        <time>2016-03-20T09:38:37.000Z</time>
      </trkpt>
      <trkpt lat="47.54711" lon="6.67551">
        <ele>406</ele>
        <time>2016-03-20T09:38:38.000Z</time>
      </trkpt>
      <trkpt lat="47.54714" lon="6.67552">
        <ele>406</ele>
        <time>2016-03-20T09:38:39.000Z</time>
      </trkpt>
      <trkpt lat="47.54718" lon="6.67553">
        <ele>407</ele>
        <time>2016-03-20T09:38:40.000Z</time>
      </trkpt>
      <trkpt lat="47.54721" lon="6.67553">
        <ele>407</ele>
        <time>2016-03-20T09:38:41.000Z</time>
      </trkpt>
      <trkpt lat="47.54724" lon="6.67553">
        <ele>407</ele>
        <time>2016-03-20T09:38:42.000Z</time>
      </trkpt>
      <trkpt lat="47.54728" lon="6.67553">
        <ele>407</ele>
        <time>2016-03-20T09:38:43.000Z</time>
      </trkpt>
      <trkpt lat="47.54731" lon="6.67552">
        <ele>407</ele>
        <time>2016-03-20T09:38:44.000Z</time>
      </trkpt>
      <trkpt lat="47.54734" lon="6.67552">
        <ele>407</ele>
        <time>2016-03-20T09:38:45.000Z</time>
      </trkpt>
      <trkpt lat="47.54737" lon="6.67552">
        <ele>408</ele>
        <time>2016-03-20T09:38:46.000Z</time>
      </trkpt>
      <trkpt lat="47.54741" lon="6.67553">
        <ele>408</ele>
        <time>2016-03-20T09:38:47.000Z</time>
      </trkpt>
      <trkpt lat="47.54744" lon="6.67553">
        <ele>408</ele>
        <time>2016-03-20T09:38:48.000Z</time>
      </trkpt>
      <trkpt lat="47.54748" lon="6.67553">
        <ele>408</ele>
        <time>2016-03-20T09:38:49.000Z</time>
      </trkpt>
      <trkpt lat="47.54751" lon="6.67554">
        <ele>413</ele>
        <time>2016-03-20T09:38:50.000Z</time>
      </trkpt>
      <trkpt lat="47.54755" lon="6.67555">
        <ele>413</ele>
        <time>2016-03-20T09:38:51.000Z</time>
      </trkpt>
      <trkpt lat="47.54759" lon="6.67555">
        <ele>413</ele>
        <time>2016-03-20T09:38:52.000Z</time>
      </trkpt>
      <trkpt lat="47.54763" lon="6.67556">
        <ele>413</ele>
        <time>2016-03-20T09:38:53.000Z</time>
      </trkpt>
      <trkpt lat="47.54766" lon="6.67558">
        <ele>414</ele>
        <time>2016-03-20T09:38:54.000Z</time>
      </trkpt>
      <trkpt lat="47.5477" lon="6.67559">
        <ele>414</ele>
        <time>2016-03-20T09:38:55.000Z</time>
      </trkpt>
      <trkpt lat="47.54773" lon="6.6756">
        <ele>414</ele>
        <time>2016-03-20T09:38:56.000Z</time>
      </trkpt>
      <trkpt lat="47.54776" lon="6.67561">
        <ele>414</ele>
        <time>2016-03-20T09:38:57.000Z</time>
      </trkpt>
      <trkpt lat="47.5478" lon="6.67561">
        <ele>414</ele>
        <time>2016-03-20T09:38:58.000Z</time>
      </trkpt>
      <trkpt lat="47.54782" lon="6.67561">
        <ele>414</ele>
        <time>2016-03-20T09:38:59.000Z</time>
      </trkpt>
      <trkpt lat="47.54785" lon="6.67562">
        <ele>415</ele>
        <time>2016-03-20T09:39:00.000Z</time>
      </trkpt>
      <trkpt lat="47.54788" lon="6.67562">
        <ele>415</ele>
        <time>2016-03-20T09:39:01.000Z</time>
      </trkpt>
      <trkpt lat="47.54791" lon="6.67562">
        <ele>415</ele>
        <time>2016-03-20T09:39:02.000Z</time>
      </trkpt>
      <trkpt lat="47.54794" lon="6.67562">
        <ele>415</ele>
        <time>2016-03-20T09:39:03.000Z</time>
      </trkpt>
      <trkpt lat="47.54798" lon="6.67563">
        <ele>415</ele>
        <time>2016-03-20T09:39:04.000Z</time>
      </trkpt>
      <trkpt lat="47.54801" lon="6.67563">
        <ele>416</ele>
        <time>2016-03-20T09:39:05.000Z</time>
      </trkpt>
      <trkpt lat="47.54803" lon="6.67563">
        <ele>416</ele>
        <time>2016-03-20T09:39:06.000Z</time>
      </trkpt>
      <trkpt lat="47.54806" lon="6.67564">
        <ele>416</ele>
        <time>2016-03-20T09:39:07.000Z</time>
      </trkpt>
      <trkpt lat="47.54808" lon="6.67564">
        <ele>417</ele>
        <time>2016-03-20T09:39:08.000Z</time>
      </trkpt>
      <trkpt lat="47.54811" lon="6.67565">
        <ele>417</ele>
        <time>2016-03-20T09:39:09.000Z</time>
      </trkpt>
      <trkpt lat="47.54814" lon="6.67566">
        <ele>418</ele>
        <time>2016-03-20T09:39:10.000Z</time>
      </trkpt>
      <trkpt lat="47.54817" lon="6.67566">
        <ele>418</ele>
        <time>2016-03-20T09:39:11.000Z</time>
      </trkpt>
      <trkpt lat="47.54821" lon="6.67567">
        <ele>419</ele>
        <time>2016-03-20T09:39:12.000Z</time>
      </trkpt>
      <trkpt lat="47.54824" lon="6.67567">
        <ele>419</ele>
        <time>2016-03-20T09:39:13.000Z</time>
      </trkpt>
      <trkpt lat="47.54828" lon="6.67567">
        <ele>420</ele>
        <time>2016-03-20T09:39:14.000Z</time>
      </trkpt>
      <trkpt lat="47.54832" lon="6.67568">
        <ele>420</ele>
        <time>2016-03-20T09:39:15.000Z</time>
      </trkpt>
      <trkpt lat="47.54836" lon="6.67568">
        <ele>423</ele>
        <time>2016-03-20T09:39:16.000Z</time>
      </trkpt>
      <trkpt lat="47.54839" lon="6.67569">
        <ele>423</ele>
        <time>2016-03-20T09:39:17.000Z</time>
      </trkpt>
      <trkpt lat="47.54842" lon="6.6757">
        <ele>423</ele>
        <time>2016-03-20T09:39:18.000Z</time>
      </trkpt>
      <trkpt lat="47.54845" lon="6.67571">
        <ele>423</ele>
        <time>2016-03-20T09:39:19.000Z</time>
      </trkpt>
      <trkpt lat="47.54848" lon="6.67571">
        <ele>423</ele>
        <time>2016-03-20T09:39:20.000Z</time>
      </trkpt>
      <trkpt lat="47.54852" lon="6.67572">
        <ele>423</ele>
        <time>2016-03-20T09:39:21.000Z</time>
      </trkpt>
      <trkpt lat="47.54855" lon="6.67572">
        <ele>422</ele>
        <time>2016-03-20T09:39:22.000Z</time>
      </trkpt>
      <trkpt lat="47.54859" lon="6.67572">
        <ele>422</ele>
        <time>2016-03-20T09:39:23.000Z</time>
      </trkpt>
      <trkpt lat="47.54862" lon="6.67572">
        <ele>422</ele>
        <time>2016-03-20T09:39:24.000Z</time>
      </trkpt>
      <trkpt lat="47.54866" lon="6.67572">
        <ele>422</ele>
        <time>2016-03-20T09:39:25.000Z</time>
      </trkpt>
      <trkpt lat="47.54869" lon="6.67571">
        <ele>422</ele>
        <time>2016-03-20T09:39:26.000Z</time>
      </trkpt>
      <trkpt lat="47.54872" lon="6.67571">
        <ele>422</ele>
        <time>2016-03-20T09:39:27.000Z</time>
      </trkpt>
      <trkpt lat="47.54875" lon="6.67571">
        <ele>422</ele>
        <time>2016-03-20T09:39:28.000Z</time>
      </trkpt>
      <trkpt lat="47.54878" lon="6.67571">
        <ele>422</ele>
        <time>2016-03-20T09:39:29.000Z</time>
      </trkpt>
      <trkpt lat="47.54881" lon="6.67571">
        <ele>422</ele>
        <time>2016-03-20T09:39:30.000Z</time>
      </trkpt>
      <trkpt lat="47.54883" lon="6.6757">
        <ele>423</ele>
        <time>2016-03-20T09:39:31.000Z</time>
      </trkpt>
      <trkpt lat="47.54885" lon="6.67569">
        <ele>423</ele>
        <time>2016-03-20T09:39:32.000Z</time>
      </trkpt>
      <trkpt lat="47.54887" lon="6.67569">
        <ele>423</ele>
        <time>2016-03-20T09:39:33.000Z</time>
      </trkpt>
      <trkpt lat="47.5489" lon="6.67568">
        <ele>423</ele>
        <time>2016-03-20T09:39:34.000Z</time>
      </trkpt>
      <trkpt lat="47.54892" lon="6.67568">
        <ele>423</ele>
        <time>2016-03-20T09:39:35.000Z</time>
      </trkpt>
      <trkpt lat="47.54895" lon="6.67568">
        <ele>423</ele>
        <time>2016-03-20T09:39:36.000Z</time>
      </trkpt>
      <trkpt lat="47.54898" lon="6.67568">
        <ele>424</ele>
        <time>2016-03-20T09:39:37.000Z</time>
      </trkpt>
      <trkpt lat="47.54901" lon="6.67568">
        <ele>424</ele>
        <time>2016-03-20T09:39:38.000Z</time>
      </trkpt>
      <trkpt lat="47.54904" lon="6.67568">
        <ele>424</ele>
        <time>2016-03-20T09:39:39.000Z</time>
      </trkpt>
      <trkpt lat="47.54907" lon="6.67568">
        <ele>424</ele>
        <time>2016-03-20T09:39:40.000Z</time>
      </trkpt>
      <trkpt lat="47.5491" lon="6.67567">
        <ele>424</ele>
        <time>2016-03-20T09:39:41.000Z</time>
      </trkpt>
      <trkpt lat="47.54913" lon="6.67566">
        <ele>425</ele>
        <time>2016-03-20T09:39:42.000Z</time>
      </trkpt>
      <trkpt lat="47.54916" lon="6.67566">
        <ele>424</ele>
        <time>2016-03-20T09:39:43.000Z</time>
      </trkpt>
      <trkpt lat="47.54919" lon="6.67565">
        <ele>426</ele>
        <time>2016-03-20T09:39:44.000Z</time>
      </trkpt>
      <trkpt lat="47.54923" lon="6.67564">
        <ele>426</ele>
        <time>2016-03-20T09:39:45.000Z</time>
      </trkpt>
      <trkpt lat="47.54926" lon="6.67563">
        <ele>426</ele>
        <time>2016-03-20T09:39:46.000Z</time>
      </trkpt>
      <trkpt lat="47.54929" lon="6.67562">
        <ele>426</ele>
        <time>2016-03-20T09:39:47.000Z</time>
      </trkpt>
      <trkpt lat="47.54932" lon="6.67562">
        <ele>425</ele>
        <time>2016-03-20T09:39:48.000Z</time>
      </trkpt>
      <trkpt lat="47.54935" lon="6.67561">
        <ele>425</ele>
        <time>2016-03-20T09:39:49.000Z</time>
      </trkpt>
      <trkpt lat="47.54939" lon="6.67561">
        <ele>425</ele>
        <time>2016-03-20T09:39:50.000Z</time>
      </trkpt>
      <trkpt lat="47.54942" lon="6.67561">
        <ele>425</ele>
        <time>2016-03-20T09:39:51.000Z</time>
      </trkpt>
      <trkpt lat="47.54944" lon="6.67561">
        <ele>425</ele>
        <time>2016-03-20T09:39:52.000Z</time>
      </trkpt>
      <trkpt lat="47.54947" lon="6.67561">
        <ele>425</ele>
        <time>2016-03-20T09:39:53.000Z</time>
      </trkpt>
      <trkpt lat="47.5495" lon="6.67561">
        <ele>425</ele>
        <time>2016-03-20T09:39:55.000Z</time>
      </trkpt>
      <trkpt lat="47.54952" lon="6.67562">
        <ele>425</ele>
        <time>2016-03-20T09:39:56.000Z</time>
      </trkpt>
      <trkpt lat="47.54955" lon="6.67562">
        <ele>425</ele>
        <time>2016-03-20T09:39:58.000Z</time>
      </trkpt>
      <trkpt lat="47.54957" lon="6.67562">
        <ele>425</ele>
        <time>2016-03-20T09:39:59.000Z</time>
      </trkpt>
      <trkpt lat="47.5496" lon="6.67562">
        <ele>425</ele>
        <time>2016-03-20T09:40:00.000Z</time>
      </trkpt>
      <trkpt lat="47.54963" lon="6.67562">
        <ele>426</ele>
        <time>2016-03-20T09:40:01.000Z</time>
      </trkpt>
      <trkpt lat="47.54965" lon="6.67563">
        <ele>426</ele>
        <time>2016-03-20T09:40:02.000Z</time>
      </trkpt>
      <trkpt lat="47.54969" lon="6.67563">
        <ele>426</ele>
        <time>2016-03-20T09:40:03.000Z</time>
      </trkpt>
      <trkpt lat="47.54972" lon="6.67563">
        <ele>426</ele>
        <time>2016-03-20T09:40:04.000Z</time>
      </trkpt>
      <trkpt lat="47.54975" lon="6.67563">
        <ele>426</ele>
        <time>2016-03-20T09:40:05.000Z</time>
      </trkpt>
      <trkpt lat="47.54978" lon="6.67563">
        <ele>426</ele>
        <time>2016-03-20T09:40:06.000Z</time>
      </trkpt>
      <trkpt lat="47.54981" lon="6.67562">
        <ele>427</ele>
        <time>2016-03-20T09:40:07.000Z</time>
      </trkpt>
      <trkpt lat="47.54984" lon="6.67561">
        <ele>427</ele>
        <time>2016-03-20T09:40:08.000Z</time>
      </trkpt>
      <trkpt lat="47.54987" lon="6.67561">
        <ele>427</ele>
        <time>2016-03-20T09:40:09.000Z</time>
      </trkpt>
      <trkpt lat="47.5499" lon="6.67561">
        <ele>427</ele>
        <time>2016-03-20T09:40:10.000Z</time>
      </trkpt>
      <trkpt lat="47.54993" lon="6.67561">
        <ele>427</ele>
        <time>2016-03-20T09:40:11.000Z</time>
      </trkpt>
      <trkpt lat="47.54997" lon="6.6756">
        <ele>427</ele>
        <time>2016-03-20T09:40:12.000Z</time>
      </trkpt>
      <trkpt lat="47.55" lon="6.6756">
        <ele>429</ele>
        <time>2016-03-20T09:40:13.000Z</time>
      </trkpt>
      <trkpt lat="47.55003" lon="6.6756">
        <ele>429</ele>
        <time>2016-03-20T09:40:14.000Z</time>
      </trkpt>
      <trkpt lat="47.55007" lon="6.67559">
        <ele>429</ele>
        <time>2016-03-20T09:40:15.000Z</time>
      </trkpt>
      <trkpt lat="47.5501" lon="6.67559">
        <ele>429</ele>
        <time>2016-03-20T09:40:16.000Z</time>
      </trkpt>
      <trkpt lat="47.55013" lon="6.6756">
        <ele>429</ele>
        <time>2016-03-20T09:40:17.000Z</time>
      </trkpt>
      <trkpt lat="47.55017" lon="6.6756">
        <ele>429</ele>
        <time>2016-03-20T09:40:19.000Z</time>
      </trkpt>
      <trkpt lat="47.55019" lon="6.6756">
        <ele>429</ele>
        <time>2016-03-20T09:40:20.000Z</time>
      </trkpt>
      <trkpt lat="47.55023" lon="6.6756">
        <ele>429</ele>
        <time>2016-03-20T09:40:22.000Z</time>
      </trkpt>
      <trkpt lat="47.55026" lon="6.6756">
        <ele>429</ele>
        <time>2016-03-20T09:40:23.000Z</time>
      </trkpt>
      <trkpt lat="47.55028" lon="6.6756">
        <ele>429</ele>
        <time>2016-03-20T09:40:24.000Z</time>
      </trkpt>
      <trkpt lat="47.55031" lon="6.6756">
        <ele>429</ele>
        <time>2016-03-20T09:40:25.000Z</time>
      </trkpt>
      <trkpt lat="47.55034" lon="6.6756">
        <ele>429</ele>
        <time>2016-03-20T09:40:26.000Z</time>
      </trkpt>
      <trkpt lat="47.55037" lon="6.6756">
        <ele>429</ele>
        <time>2016-03-20T09:40:27.000Z</time>
      </trkpt>
      <trkpt lat="47.5504" lon="6.67561">
        <ele>429</ele>
        <time>2016-03-20T09:40:28.000Z</time>
      </trkpt>
      <trkpt lat="47.55042" lon="6.6756">
        <ele>429</ele>
        <time>2016-03-20T09:40:29.000Z</time>
      </trkpt>
      <trkpt lat="47.55047" lon="6.67559">
        <ele>429</ele>
        <time>2016-03-20T09:40:31.000Z</time>
      </trkpt>
      <trkpt lat="47.55049" lon="6.67559">
        <ele>429</ele>
        <time>2016-03-20T09:40:32.000Z</time>
      </trkpt>
      <trkpt lat="47.55051" lon="6.6756">
        <ele>429</ele>
        <time>2016-03-20T09:40:33.000Z</time>
      </trkpt>
      <trkpt lat="47.55053" lon="6.6756">
        <ele>430</ele>
        <time>2016-03-20T09:40:34.000Z</time>
      </trkpt>
      <trkpt lat="47.55058" lon="6.67559">
        <ele>430</ele>
        <time>2016-03-20T09:40:36.000Z</time>
      </trkpt>
      <trkpt lat="47.55059" lon="6.67559">
        <ele>430</ele>
        <time>2016-03-20T09:40:37.000Z</time>
      </trkpt>
      <trkpt lat="47.55061" lon="6.67558">
        <ele>430</ele>
        <time>2016-03-20T09:40:39.000Z</time>
      </trkpt>
      <trkpt lat="47.55063" lon="6.67557">
        <ele>430</ele>
        <time>2016-03-20T09:40:40.000Z</time>
      </trkpt>
      <trkpt lat="47.55067" lon="6.67556">
        <ele>430</ele>
        <time>2016-03-20T09:40:42.000Z</time>
      </trkpt>
      <trkpt lat="47.5507" lon="6.67556">
        <ele>430</ele>
        <time>2016-03-20T09:40:43.000Z</time>
      </trkpt>
      <trkpt lat="47.55074" lon="6.67556">
        <ele>430</ele>
        <time>2016-03-20T09:40:45.000Z</time>
      </trkpt>
      <trkpt lat="47.55076" lon="6.67556">
        <ele>430</ele>
        <time>2016-03-20T09:40:46.000Z</time>
      </trkpt>
      <trkpt lat="47.5508" lon="6.67555">
        <ele>430</ele>
        <time>2016-03-20T09:40:48.000Z</time>
      </trkpt>
      <trkpt lat="47.55082" lon="6.67555">
        <ele>430</ele>
        <time>2016-03-20T09:40:49.000Z</time>
      </trkpt>
      <trkpt lat="47.55084" lon="6.67556">
        <ele>434</ele>
        <time>2016-03-20T09:40:50.000Z</time>
      </trkpt>
      <trkpt lat="47.55087" lon="6.67557">
        <ele>434</ele>
        <time>2016-03-20T09:40:51.000Z</time>
      </trkpt>
      <trkpt lat="47.5509" lon="6.67559">
        <ele>434</ele>
        <time>2016-03-20T09:40:52.000Z</time>
      </trkpt>
      <trkpt lat="47.55093" lon="6.6756">
        <ele>434</ele>
        <time>2016-03-20T09:40:53.000Z</time>
      </trkpt>
      <trkpt lat="47.55096" lon="6.6756">
        <ele>434</ele>
        <time>2016-03-20T09:40:54.000Z</time>
      </trkpt>
      <trkpt lat="47.55098" lon="6.67559">
        <ele>434</ele>
        <time>2016-03-20T09:40:55.000Z</time>
      </trkpt>
      <trkpt lat="47.55102" lon="6.67557">
        <ele>434</ele>
        <time>2016-03-20T09:40:57.000Z</time>
      </trkpt>
      <trkpt lat="47.55104" lon="6.67557">
        <ele>434</ele>
        <time>2016-03-20T09:40:58.000Z</time>
      </trkpt>
      <trkpt lat="47.55107" lon="6.67557">
        <ele>434</ele>
        <time>2016-03-20T09:41:00.000Z</time>
      </trkpt>
      <trkpt lat="47.55109" lon="6.67557">
        <ele>434</ele>
        <time>2016-03-20T09:41:01.000Z</time>
      </trkpt>
      <trkpt lat="47.55112" lon="6.67557">
        <ele>434</ele>
        <time>2016-03-20T09:41:02.000Z</time>
      </trkpt>
      <trkpt lat="47.55114" lon="6.67557">
        <ele>434</ele>
        <time>2016-03-20T09:41:03.000Z</time>
      </trkpt>
      <trkpt lat="47.55117" lon="6.67557">
        <ele>434</ele>
        <time>2016-03-20T09:41:04.000Z</time>
      </trkpt>
      <trkpt lat="47.55119" lon="6.67557">
        <ele>434</ele>
        <time>2016-03-20T09:41:05.000Z</time>
      </trkpt>
      <trkpt lat="47.55121" lon="6.67557">
        <ele>434</ele>
        <time>2016-03-20T09:41:06.000Z</time>
      </trkpt>
      <trkpt lat="47.55124" lon="6.67558">
        <ele>434</ele>
        <time>2016-03-20T09:41:07.000Z</time>
      </trkpt>
      <trkpt lat="47.55127" lon="6.67558">
        <ele>434</ele>
        <time>2016-03-20T09:41:08.000Z</time>
      </trkpt>
      <trkpt lat="47.55129" lon="6.67559">
        <ele>435</ele>
        <time>2016-03-20T09:41:09.000Z</time>
      </trkpt>
      <trkpt lat="47.55132" lon="6.67559">
        <ele>435</ele>
        <time>2016-03-20T09:41:10.000Z</time>
      </trkpt>
      <trkpt lat="47.55135" lon="6.6756">
        <ele>435</ele>
        <time>2016-03-20T09:41:11.000Z</time>
      </trkpt>
      <trkpt lat="47.55138" lon="6.6756">
        <ele>435</ele>
        <time>2016-03-20T09:41:12.000Z</time>
      </trkpt>
      <trkpt lat="47.5514" lon="6.67561">
        <ele>435</ele>
        <time>2016-03-20T09:41:13.000Z</time>
      </trkpt>
      <trkpt lat="47.55143" lon="6.67562">
        <ele>435</ele>
        <time>2016-03-20T09:41:14.000Z</time>
      </trkpt>
      <trkpt lat="47.55145" lon="6.67562">
        <ele>435</ele>
        <time>2016-03-20T09:41:15.000Z</time>
      </trkpt>
      <trkpt lat="47.55148" lon="6.67563">
        <ele>436</ele>
        <time>2016-03-20T09:41:16.000Z</time>
      </trkpt>
      <trkpt lat="47.5515" lon="6.67563">
        <ele>436</ele>
        <time>2016-03-20T09:41:17.000Z</time>
      </trkpt>
      <trkpt lat="47.55153" lon="6.67562">
        <ele>436</ele>
        <time>2016-03-20T09:41:19.000Z</time>
      </trkpt>
      <trkpt lat="47.55154" lon="6.67561">
        <ele>436</ele>
        <time>2016-03-20T09:41:20.000Z</time>
      </trkpt>
      <trkpt lat="47.55158" lon="6.67562">
        <ele>436</ele>
        <time>2016-03-20T09:41:22.000Z</time>
      </trkpt>
      <trkpt lat="47.5516" lon="6.67562">
        <ele>436</ele>
        <time>2016-03-20T09:41:23.000Z</time>
      </trkpt>
      <trkpt lat="47.55163" lon="6.67564">
        <ele>437</ele>
        <time>2016-03-20T09:41:24.000Z</time>
      </trkpt>
      <trkpt lat="47.55165" lon="6.67565">
        <ele>437</ele>
        <time>2016-03-20T09:41:25.000Z</time>
      </trkpt>
      <trkpt lat="47.55168" lon="6.67564">
        <ele>438</ele>
        <time>2016-03-20T09:41:26.000Z</time>
      </trkpt>
      <trkpt lat="47.55171" lon="6.67563">
        <ele>438</ele>
        <time>2016-03-20T09:41:27.000Z</time>
      </trkpt>
      <trkpt lat="47.55175" lon="6.67561">
        <ele>438</ele>
        <time>2016-03-20T09:41:28.000Z</time>
      </trkpt>
      <trkpt lat="47.55178" lon="6.6756">
        <ele>438</ele>
        <time>2016-03-20T09:41:29.000Z</time>
      </trkpt>
      <trkpt lat="47.55181" lon="6.67561">
        <ele>438</ele>
        <time>2016-03-20T09:41:30.000Z</time>
      </trkpt>
      <trkpt lat="47.55184" lon="6.67562">
        <ele>438</ele>
        <time>2016-03-20T09:41:31.000Z</time>
      </trkpt>
      <trkpt lat="47.55188" lon="6.67562">
        <ele>438</ele>
        <time>2016-03-20T09:41:32.000Z</time>
      </trkpt>
      <trkpt lat="47.55191" lon="6.67563">
        <ele>438</ele>
        <time>2016-03-20T09:41:33.000Z</time>
      </trkpt>
      <trkpt lat="47.55193" lon="6.67563">
        <ele>438</ele>
        <time>2016-03-20T09:41:34.000Z</time>
      </trkpt>
      <trkpt lat="47.55196" lon="6.67564">
        <ele>438</ele>
        <time>2016-03-20T09:41:35.000Z</time>
      </trkpt>
      <trkpt lat="47.55199" lon="6.67563">
        <ele>438</ele>
        <time>2016-03-20T09:41:37.000Z</time>
      </trkpt>
      <trkpt lat="47.55201" lon="6.67561">
        <ele>438</ele>
        <time>2016-03-20T09:41:38.000Z</time>
      </trkpt>
      <trkpt lat="47.55205" lon="6.6756">
        <ele>438</ele>
        <time>2016-03-20T09:41:40.000Z</time>
      </trkpt>
      <trkpt lat="47.55207" lon="6.6756">
        <ele>438</ele>
        <time>2016-03-20T09:41:41.000Z</time>
      </trkpt>
      <trkpt lat="47.55209" lon="6.6756">
        <ele>438</ele>
        <time>2016-03-20T09:41:42.000Z</time>
      </trkpt>
      <trkpt lat="47.55211" lon="6.67561">
        <ele>438</ele>
        <time>2016-03-20T09:41:43.000Z</time>
      </trkpt>
      <trkpt lat="47.55214" lon="6.67561">
        <ele>438</ele>
        <time>2016-03-20T09:41:44.000Z</time>
      </trkpt>
      <trkpt lat="47.55216" lon="6.67561">
        <ele>438</ele>
        <time>2016-03-20T09:41:45.000Z</time>
      </trkpt>
      <trkpt lat="47.55218" lon="6.67561">
        <ele>438</ele>
        <time>2016-03-20T09:41:46.000Z</time>
      </trkpt>
      <trkpt lat="47.55221" lon="6.67561">
        <ele>438</ele>
        <time>2016-03-20T09:41:47.000Z</time>
      </trkpt>
      <trkpt lat="47.55225" lon="6.67562">
        <ele>438</ele>
        <time>2016-03-20T09:41:49.000Z</time>
      </trkpt>
      <trkpt lat="47.55227" lon="6.67562">
        <ele>439</ele>
        <time>2016-03-20T09:41:50.000Z</time>
      </trkpt>
      <trkpt lat="47.5523" lon="6.67561">
        <ele>439</ele>
        <time>2016-03-20T09:41:52.000Z</time>
      </trkpt>
      <trkpt lat="47.55232" lon="6.67561">
        <ele>439</ele>
        <time>2016-03-20T09:41:53.000Z</time>
      </trkpt>
      <trkpt lat="47.55235" lon="6.67561">
        <ele>439</ele>
        <time>2016-03-20T09:41:55.000Z</time>
      </trkpt>
      <trkpt lat="47.55237" lon="6.67561">
        <ele>439</ele>
        <time>2016-03-20T09:41:56.000Z</time>
      </trkpt>
      <trkpt lat="47.55239" lon="6.67561">
        <ele>439</ele>
        <time>2016-03-20T09:41:57.000Z</time>
      </trkpt>
      <trkpt lat="47.55242" lon="6.67561">
        <ele>439</ele>
        <time>2016-03-20T09:41:58.000Z</time>
      </trkpt>
      <trkpt lat="47.55244" lon="6.67561">
        <ele>439</ele>
        <time>2016-03-20T09:41:59.000Z</time>
      </trkpt>
      <trkpt lat="47.55246" lon="6.6756">
        <ele>439</ele>
        <time>2016-03-20T09:42:00.000Z</time>
      </trkpt>
      <trkpt lat="47.55249" lon="6.67559">
        <ele>439</ele>
        <time>2016-03-20T09:42:02.000Z</time>
      </trkpt>
      <trkpt lat="47.55251" lon="6.67559">
        <ele>438</ele>
        <time>2016-03-20T09:42:03.000Z</time>
      </trkpt>
      <trkpt lat="47.55253" lon="6.67561">
        <ele>438</ele>
        <time>2016-03-20T09:42:04.000Z</time>
      </trkpt>
      <trkpt lat="47.55256" lon="6.67563">
        <ele>438</ele>
        <time>2016-03-20T09:42:05.000Z</time>
      </trkpt>
      <trkpt lat="47.5526" lon="6.67567">
        <ele>438</ele>
        <time>2016-03-20T09:42:07.000Z</time>
      </trkpt>
      <trkpt lat="47.55264" lon="6.67569">
        <ele>438</ele>
        <time>2016-03-20T09:42:09.000Z</time>
      </trkpt>
      <trkpt lat="47.55266" lon="6.6757">
        <ele>438</ele>
        <time>2016-03-20T09:42:10.000Z</time>
      </trkpt>
      <trkpt lat="47.55269" lon="6.67571">
        <ele>438</ele>
        <time>2016-03-20T09:42:12.000Z</time>
      </trkpt>
      <trkpt lat="47.55271" lon="6.67571">
        <ele>437</ele>
        <time>2016-03-20T09:42:13.000Z</time>
      </trkpt>
      <trkpt lat="47.55274" lon="6.67572">
        <ele>437</ele>
        <time>2016-03-20T09:42:15.000Z</time>
      </trkpt>
      <trkpt lat="47.55276" lon="6.67573">
        <ele>437</ele>
        <time>2016-03-20T09:42:16.000Z</time>
      </trkpt>
      <trkpt lat="47.5528" lon="6.67573">
        <ele>437</ele>
        <time>2016-03-20T09:42:18.000Z</time>
      </trkpt>
      <trkpt lat="47.55281" lon="6.67574">
        <ele>437</ele>
        <time>2016-03-20T09:42:19.000Z</time>
      </trkpt>
      <trkpt lat="47.55285" lon="6.67575">
        <ele>437</ele>
        <time>2016-03-20T09:42:21.000Z</time>
      </trkpt>
      <trkpt lat="47.55287" lon="6.67575">
        <ele>437</ele>
        <time>2016-03-20T09:42:22.000Z</time>
      </trkpt>
      <trkpt lat="47.5529" lon="6.67576">
        <ele>436</ele>
        <time>2016-03-20T09:42:24.000Z</time>
      </trkpt>
      <trkpt lat="47.55292" lon="6.67576">
        <ele>436</ele>
        <time>2016-03-20T09:42:25.000Z</time>
      </trkpt>
      <trkpt lat="47.55295" lon="6.67577">
        <ele>436</ele>
        <time>2016-03-20T09:42:27.000Z</time>
      </trkpt>
      <trkpt lat="47.55297" lon="6.67577">
        <ele>436</ele>
        <time>2016-03-20T09:42:28.000Z</time>
      </trkpt>
      <trkpt lat="47.55299" lon="6.67579">
        <ele>436</ele>
        <time>2016-03-20T09:42:29.000Z</time>
      </trkpt>
      <trkpt lat="47.55301" lon="6.6758">
        <ele>436</ele>
        <time>2016-03-20T09:42:30.000Z</time>
      </trkpt>
      <trkpt lat="47.55303" lon="6.67582">
        <ele>436</ele>
        <time>2016-03-20T09:42:31.000Z</time>
      </trkpt>
      <trkpt lat="47.55305" lon="6.67583">
        <ele>436</ele>
        <time>2016-03-20T09:42:32.000Z</time>
      </trkpt>
      <trkpt lat="47.55309" lon="6.67584">
        <ele>444</ele>
        <time>2016-03-20T09:42:34.000Z</time>
      </trkpt>
      <trkpt lat="47.5531" lon="6.67584">
        <ele>444</ele>
        <time>2016-03-20T09:42:35.000Z</time>
      </trkpt>
      <trkpt lat="47.55313" lon="6.67582">
        <ele>436</ele>
        <time>2016-03-20T09:42:39.000Z</time>
      </trkpt>
      <trkpt lat="47.55314" lon="6.6758">
        <ele>436</ele>
        <time>2016-03-20T09:42:40.000Z</time>
      </trkpt>
      <trkpt lat="47.55316" lon="6.67579">
        <ele>436</ele>
        <time>2016-03-20T09:42:42.000Z</time>
      </trkpt>
      <trkpt lat="47.55318" lon="6.67579">
        <ele>436</ele>
        <time>2016-03-20T09:42:43.000Z</time>
      </trkpt>
      <trkpt lat="47.55321" lon="6.6758">
        <ele>436</ele>
        <time>2016-03-20T09:42:44.000Z</time>
      </trkpt>
      <trkpt lat="47.55323" lon="6.67581">
        <ele>436</ele>
        <time>2016-03-20T09:42:45.000Z</time>
      </trkpt>
      <trkpt lat="47.55325" lon="6.67582">
        <ele>436</ele>
        <time>2016-03-20T09:42:46.000Z</time>
      </trkpt>
      <trkpt lat="47.55327" lon="6.67583">
        <ele>437</ele>
        <time>2016-03-20T09:42:47.000Z</time>
      </trkpt>
      <trkpt lat="47.5533" lon="6.67584">
        <ele>439</ele>
        <time>2016-03-20T09:42:48.000Z</time>
      </trkpt>
      <trkpt lat="47.55332" lon="6.67585">
        <ele>438</ele>
        <time>2016-03-20T09:42:49.000Z</time>
      </trkpt>
      <trkpt lat="47.55335" lon="6.67587">
        <ele>439</ele>
        <time>2016-03-20T09:42:50.000Z</time>
      </trkpt>
      <trkpt lat="47.55337" lon="6.67588">
        <ele>440</ele>
        <time>2016-03-20T09:42:51.000Z</time>
      </trkpt>
      <trkpt lat="47.5534" lon="6.6759">
        <ele>441</ele>
        <time>2016-03-20T09:42:52.000Z</time>
      </trkpt>
      <trkpt lat="47.55342" lon="6.67591">
        <ele>442</ele>
        <time>2016-03-20T09:42:53.000Z</time>
      </trkpt>
      <trkpt lat="47.55345" lon="6.67592">
        <ele>443</ele>
        <time>2016-03-20T09:42:54.000Z</time>
      </trkpt>
      <trkpt lat="47.55347" lon="6.67593">
        <ele>444</ele>
        <time>2016-03-20T09:42:55.000Z</time>
      </trkpt>
      <trkpt lat="47.5535" lon="6.67594">
        <ele>445</ele>
        <time>2016-03-20T09:42:56.000Z</time>
      </trkpt>
      <trkpt lat="47.55352" lon="6.67594">
        <ele>445</ele>
        <time>2016-03-20T09:42:57.000Z</time>
      </trkpt>
      <trkpt lat="47.55354" lon="6.67594">
        <ele>445</ele>
        <time>2016-03-20T09:42:58.000Z</time>
      </trkpt>
      <trkpt lat="47.55356" lon="6.67595">
        <ele>446</ele>
        <time>2016-03-20T09:42:59.000Z</time>
      </trkpt>
      <trkpt lat="47.55359" lon="6.67595">
        <ele>446</ele>
        <time>2016-03-20T09:43:00.000Z</time>
      </trkpt>
      <trkpt lat="47.55361" lon="6.67596">
        <ele>447</ele>
        <time>2016-03-20T09:43:01.000Z</time>
      </trkpt>
      <trkpt lat="47.55363" lon="6.67597">
        <ele>447</ele>
        <time>2016-03-20T09:43:02.000Z</time>
      </trkpt>
      <trkpt lat="47.55365" lon="6.67598">
        <ele>447</ele>
        <time>2016-03-20T09:43:03.000Z</time>
      </trkpt>
      <trkpt lat="47.55368" lon="6.676">
        <ele>448</ele>
        <time>2016-03-20T09:43:04.000Z</time>
      </trkpt>
      <trkpt lat="47.55371" lon="6.67602">
        <ele>448</ele>
        <time>2016-03-20T09:43:05.000Z</time>
      </trkpt>
      <trkpt lat="47.55373" lon="6.67603">
        <ele>449</ele>
        <time>2016-03-20T09:43:06.000Z</time>
      </trkpt>
      <trkpt lat="47.55376" lon="6.67605">
        <ele>449</ele>
        <time>2016-03-20T09:43:07.000Z</time>
      </trkpt>
      <trkpt lat="47.5538" lon="6.67607">
        <ele>449</ele>
        <time>2016-03-20T09:43:10.000Z</time>
      </trkpt>
      <trkpt lat="47.55382" lon="6.67608">
        <ele>449</ele>
        <time>2016-03-20T09:43:11.000Z</time>
      </trkpt>
      <trkpt lat="47.55386" lon="6.6761">
        <ele>450</ele>
        <time>2016-03-20T09:43:14.000Z</time>
      </trkpt>
      <trkpt lat="47.55387" lon="6.67611">
        <ele>450</ele>
        <time>2016-03-20T09:43:15.000Z</time>
      </trkpt>
      <trkpt lat="47.55391" lon="6.67612">
        <ele>450</ele>
        <time>2016-03-20T09:43:17.000Z</time>
      </trkpt>
      <trkpt lat="47.55393" lon="6.67613">
        <ele>450</ele>
        <time>2016-03-20T09:43:18.000Z</time>
      </trkpt>
      <trkpt lat="47.55397" lon="6.67613">
        <ele>450</ele>
        <time>2016-03-20T09:43:20.000Z</time>
      </trkpt>
      <trkpt lat="47.55398" lon="6.67613">
        <ele>450</ele>
        <time>2016-03-20T09:43:21.000Z</time>
      </trkpt>
      <trkpt lat="47.55402" lon="6.67615">
        <ele>451</ele>
        <time>2016-03-20T09:43:23.000Z</time>
      </trkpt>
      <trkpt lat="47.55403" lon="6.67615">
        <ele>451</ele>
        <time>2016-03-20T09:43:24.000Z</time>
      </trkpt>
      <trkpt lat="47.55407" lon="6.67616">
        <ele>451</ele>
        <time>2016-03-20T09:43:26.000Z</time>
      </trkpt>
      <trkpt lat="47.55409" lon="6.67616">
        <ele>451</ele>
        <time>2016-03-20T09:43:27.000Z</time>
      </trkpt>
      <trkpt lat="47.55412" lon="6.67616">
        <ele>451</ele>
        <time>2016-03-20T09:43:29.000Z</time>
      </trkpt>
      <trkpt lat="47.55414" lon="6.67616">
        <ele>451</ele>
        <time>2016-03-20T09:43:30.000Z</time>
      </trkpt>
      <trkpt lat="47.55418" lon="6.67615">
        <ele>455</ele>
        <time>2016-03-20T09:43:32.000Z</time>
      </trkpt>
      <trkpt lat="47.55419" lon="6.67615">
        <ele>455</ele>
        <time>2016-03-20T09:43:33.000Z</time>
      </trkpt>
      <trkpt lat="47.55423" lon="6.67614">
        <ele>455</ele>
        <time>2016-03-20T09:43:35.000Z</time>
      </trkpt>
      <trkpt lat="47.55425" lon="6.67614">
        <ele>455</ele>
        <time>2016-03-20T09:43:36.000Z</time>
      </trkpt>
      <trkpt lat="47.55428" lon="6.67613">
        <ele>455</ele>
        <time>2016-03-20T09:43:37.000Z</time>
      </trkpt>
      <trkpt lat="47.55431" lon="6.67613">
        <ele>455</ele>
        <time>2016-03-20T09:43:38.000Z</time>
      </trkpt>
      <trkpt lat="47.55433" lon="6.67613">
        <ele>456</ele>
        <time>2016-03-20T09:43:39.000Z</time>
      </trkpt>
      <trkpt lat="47.55435" lon="6.67613">
        <ele>456</ele>
        <time>2016-03-20T09:43:40.000Z</time>
      </trkpt>
      <trkpt lat="47.55439" lon="6.67612">
        <ele>456</ele>
        <time>2016-03-20T09:43:42.000Z</time>
      </trkpt>
      <trkpt lat="47.5544" lon="6.67611">
        <ele>456</ele>
        <time>2016-03-20T09:43:43.000Z</time>
      </trkpt>
      <trkpt lat="47.55444" lon="6.67611">
        <ele>456</ele>
        <time>2016-03-20T09:43:45.000Z</time>
      </trkpt>
      <trkpt lat="47.55445" lon="6.6761">
        <ele>456</ele>
        <time>2016-03-20T09:43:46.000Z</time>
      </trkpt>
      <trkpt lat="47.55448" lon="6.6761">
        <ele>456</ele>
        <time>2016-03-20T09:43:48.000Z</time>
      </trkpt>
      <trkpt lat="47.5545" lon="6.67609">
        <ele>456</ele>
        <time>2016-03-20T09:43:49.000Z</time>
      </trkpt>
      <trkpt lat="47.55454" lon="6.67609">
        <ele>457</ele>
        <time>2016-03-20T09:43:52.000Z</time>
      </trkpt>
      <trkpt lat="47.55456" lon="6.67609">
        <ele>457</ele>
        <time>2016-03-20T09:43:53.000Z</time>
      </trkpt>
      <trkpt lat="47.55459" lon="6.6761">
        <ele>457</ele>
        <time>2016-03-20T09:43:55.000Z</time>
      </trkpt>
      <trkpt lat="47.55461" lon="6.67611">
        <ele>457</ele>
        <time>2016-03-20T09:43:56.000Z</time>
      </trkpt>
      <trkpt lat="47.55464" lon="6.67612">
        <ele>458</ele>
        <time>2016-03-20T09:43:58.000Z</time>
      </trkpt>
      <trkpt lat="47.55466" lon="6.67613">
        <ele>458</ele>
        <time>2016-03-20T09:43:59.000Z</time>
      </trkpt>
      <trkpt lat="47.55469" lon="6.67613">
        <ele>458</ele>
        <time>2016-03-20T09:44:03.000Z</time>
      </trkpt>
      <trkpt lat="47.5547" lon="6.67613">
        <ele>458</ele>
        <time>2016-03-20T09:44:04.000Z</time>
      </trkpt>
      <trkpt lat="47.55474" lon="6.67609">
        <ele>458</ele>
        <time>2016-03-20T09:44:05.000Z</time>
      </trkpt>
      <trkpt lat="47.55477" lon="6.67603">
        <ele>458</ele>
        <time>2016-03-20T09:44:06.000Z</time>
      </trkpt>
      <trkpt lat="47.5548" lon="6.676">
        <ele>458</ele>
        <time>2016-03-20T09:44:08.000Z</time>
      </trkpt>
      <trkpt lat="47.55482" lon="6.67598">
        <ele>458</ele>
        <time>2016-03-20T09:44:09.000Z</time>
      </trkpt>
      <trkpt lat="47.55486" lon="6.67596">
        <ele>458</ele>
        <time>2016-03-20T09:44:13.000Z</time>
      </trkpt>
      <trkpt lat="47.55486" lon="6.67596">
        <ele>458</ele>
        <time>2016-03-20T09:44:14.000Z</time>
      </trkpt>
      <trkpt lat="47.55489" lon="6.6759">
        <ele>458</ele>
        <time>2016-03-20T09:44:40.000Z</time>
      </trkpt>
      <trkpt lat="47.55489" lon="6.6759">
        <ele>458</ele>
        <time>2016-03-20T09:44:41.000Z</time>
      </trkpt>
      <trkpt lat="47.55493" lon="6.67588">
        <ele>458</ele>
        <time>2016-03-20T09:45:41.999Z</time>
      </trkpt>
      <trkpt lat="47.55494" lon="6.67589">
        <ele>458</ele>
        <time>2016-03-20T09:45:43.000Z</time>
      </trkpt>
      <trkpt lat="47.55497" lon="6.67584">
        <ele>458</ele>
        <time>2016-03-20T09:46:19.000Z</time>
      </trkpt>
      <trkpt lat="47.55497" lon="6.67583">
        <ele>457</ele>
        <time>2016-03-20T09:46:20.000Z</time>
      </trkpt>
      <trkpt lat="47.555" lon="6.6758">
        <ele>457</ele>
        <time>2016-03-20T09:51:10.000Z</time>
      </trkpt>
      <trkpt lat="47.55501" lon="6.67579">
        <ele>458</ele>
        <time>2016-03-20T09:51:11.000Z</time>
      </trkpt>
      <trkpt lat="47.55505" lon="6.67576">
        <ele>458</ele>
        <time>2016-03-20T09:51:15.000Z</time>
      </trkpt>
      <trkpt lat="47.55506" lon="6.67575">
        <ele>458</ele>
        <time>2016-03-20T09:51:16.000Z</time>
      </trkpt>
      <trkpt lat="47.55508" lon="6.67572">
        <ele>458</ele>
        <time>2016-03-20T09:51:18.000Z</time>
      </trkpt>
      <trkpt lat="47.5551" lon="6.67571">
        <ele>458</ele>
        <time>2016-03-20T09:51:19.000Z</time>
      </trkpt>
      <trkpt lat="47.55514" lon="6.67568">
        <ele>458</ele>
        <time>2016-03-20T09:51:22.000Z</time>
      </trkpt>
      <trkpt lat="47.55514" lon="6.67567">
        <ele>458</ele>
        <time>2016-03-20T09:51:23.000Z</time>
      </trkpt>
      <trkpt lat="47.55517" lon="6.67563">
        <ele>458</ele>
        <time>2016-03-20T09:51:26.000Z</time>
      </trkpt>
      <trkpt lat="47.55518" lon="6.67562">
        <ele>458</ele>
        <time>2016-03-20T09:51:27.000Z</time>
      </trkpt>
      <trkpt lat="47.55521" lon="6.67559">
        <ele>458</ele>
        <time>2016-03-20T09:51:30.000Z</time>
      </trkpt>
      <trkpt lat="47.55522" lon="6.67559">
        <ele>458</ele>
        <time>2016-03-20T09:51:31.000Z</time>
      </trkpt>
      <trkpt lat="47.55526" lon="6.67558">
        <ele>458</ele>
        <time>2016-03-20T09:51:34.000Z</time>
      </trkpt>
      <trkpt lat="47.55527" lon="6.67557">
        <ele>458</ele>
        <time>2016-03-20T09:51:35.000Z</time>
      </trkpt>
      <trkpt lat="47.5553" lon="6.67554">
        <ele>458</ele>
        <time>2016-03-20T09:51:38.000Z</time>
      </trkpt>
      <trkpt lat="47.55531" lon="6.67553">
        <ele>458</ele>
        <time>2016-03-20T09:51:39.000Z</time>
      </trkpt>
      <trkpt lat="47.55534" lon="6.67549">
        <ele>458</ele>
        <time>2016-03-20T09:51:42.000Z</time>
      </trkpt>
      <trkpt lat="47.55535" lon="6.67548">
        <ele>459</ele>
        <time>2016-03-20T09:51:43.000Z</time>
      </trkpt>
      <trkpt lat="47.55537" lon="6.67543">
        <ele>459</ele>
        <time>2016-03-20T09:51:45.000Z</time>
      </trkpt>
      <trkpt lat="47.55537" lon="6.67541">
        <ele>459</ele>
        <time>2016-03-20T09:51:46.000Z</time>
      </trkpt>
      <trkpt lat="47.55538" lon="6.67538">
        <ele>459</ele>
        <time>2016-03-20T09:51:47.000Z</time>
      </trkpt>
      <trkpt lat="47.55539" lon="6.67535">
        <ele>459</ele>
        <time>2016-03-20T09:51:48.000Z</time>
      </trkpt>
      <trkpt lat="47.5554" lon="6.67531">
        <ele>459</ele>
        <time>2016-03-20T09:51:49.000Z</time>
      </trkpt>
      <trkpt lat="47.55541" lon="6.67528">
        <ele>459</ele>
        <time>2016-03-20T09:51:50.000Z</time>
      </trkpt>
      <trkpt lat="47.55542" lon="6.67525">
        <ele>459</ele>
        <time>2016-03-20T09:51:51.000Z</time>
      </trkpt>
      <trkpt lat="47.55543" lon="6.67521">
        <ele>459</ele>
        <time>2016-03-20T09:51:52.000Z</time>
      </trkpt>
      <trkpt lat="47.55544" lon="6.67516">
        <ele>459</ele>
        <time>2016-03-20T09:51:53.000Z</time>
      </trkpt>
      <trkpt lat="47.55545" lon="6.67512">
        <ele>459</ele>
        <time>2016-03-20T09:51:54.000Z</time>
      </trkpt>
      <trkpt lat="47.55546" lon="6.67508">
        <ele>460</ele>
        <time>2016-03-20T09:51:55.000Z</time>
      </trkpt>
      <trkpt lat="47.55547" lon="6.67504">
        <ele>460</ele>
        <time>2016-03-20T09:51:56.000Z</time>
      </trkpt>
      <trkpt lat="47.55548" lon="6.675">
        <ele>462</ele>
        <time>2016-03-20T09:51:57.000Z</time>
      </trkpt>
      <trkpt lat="47.5555" lon="6.67496">
        <ele>462</ele>
        <time>2016-03-20T09:51:58.000Z</time>
      </trkpt>
      <trkpt lat="47.55551" lon="6.67491">
        <ele>463</ele>
        <time>2016-03-20T09:51:59.000Z</time>
      </trkpt>
      <trkpt lat="47.55551" lon="6.67487">
        <ele>463</ele>
        <time>2016-03-20T09:52:00.000Z</time>
      </trkpt>
      <trkpt lat="47.55552" lon="6.67483">
        <ele>463</ele>
        <time>2016-03-20T09:52:01.000Z</time>
      </trkpt>
      <trkpt lat="47.55552" lon="6.67479">
        <ele>463</ele>
        <time>2016-03-20T09:52:02.000Z</time>
      </trkpt>
      <trkpt lat="47.55552" lon="6.67476">
        <ele>463</ele>
        <time>2016-03-20T09:52:03.000Z</time>
      </trkpt>
      <trkpt lat="47.55553" lon="6.67473">
        <ele>463</ele>
        <time>2016-03-20T09:52:04.000Z</time>
      </trkpt>
      <trkpt lat="47.55554" lon="6.67469">
        <ele>463</ele>
        <time>2016-03-20T09:52:05.000Z</time>
      </trkpt>
      <trkpt lat="47.55555" lon="6.67466">
        <ele>463</ele>
        <time>2016-03-20T09:52:06.000Z</time>
      </trkpt>
      <trkpt lat="47.55555" lon="6.67463">
        <ele>464</ele>
        <time>2016-03-20T09:52:07.000Z</time>
      </trkpt>
      <trkpt lat="47.55556" lon="6.67459">
        <ele>464</ele>
        <time>2016-03-20T09:52:08.000Z</time>
      </trkpt>
      <trkpt lat="47.55558" lon="6.67454">
        <ele>464</ele>
        <time>2016-03-20T09:52:10.000Z</time>
      </trkpt>
      <trkpt lat="47.55559" lon="6.67451">
        <ele>464</ele>
        <time>2016-03-20T09:52:11.000Z</time>
      </trkpt>
      <trkpt lat="47.55561" lon="6.67447">
        <ele>465</ele>
        <time>2016-03-20T09:52:13.000Z</time>
      </trkpt>
      <trkpt lat="47.55562" lon="6.67445">
        <ele>465</ele>
        <time>2016-03-20T09:52:14.000Z</time>
      </trkpt>
      <trkpt lat="47.55565" lon="6.67441">
        <ele>465</ele>
        <time>2016-03-20T09:52:16.000Z</time>
      </trkpt>
      <trkpt lat="47.55566" lon="6.6744">
        <ele>466</ele>
        <time>2016-03-20T09:52:17.000Z</time>
      </trkpt>
      <trkpt lat="47.55568" lon="6.67435">
        <ele>466</ele>
        <time>2016-03-20T09:52:26.000Z</time>
      </trkpt>
      <trkpt lat="47.55568" lon="6.67434">
        <ele>466</ele>
        <time>2016-03-20T09:52:27.000Z</time>
      </trkpt>
      <trkpt lat="47.55572" lon="6.6743">
        <ele>467</ele>
        <time>2016-03-20T09:52:31.000Z</time>
      </trkpt>
      <trkpt lat="47.55572" lon="6.67429">
        <ele>468</ele>
        <time>2016-03-20T09:52:32.000Z</time>
      </trkpt>
      <trkpt lat="47.55576" lon="6.67425">
        <ele>469</ele>
        <time>2016-03-20T09:52:35.000Z</time>
      </trkpt>
      <trkpt lat="47.55577" lon="6.67423">
        <ele>469</ele>
        <time>2016-03-20T09:52:36.000Z</time>
      </trkpt>
      <trkpt lat="47.55579" lon="6.67421">
        <ele>470</ele>
        <time>2016-03-20T09:52:38.000Z</time>
      </trkpt>
      <trkpt lat="47.55581" lon="6.67419">
        <ele>471</ele>
        <time>2016-03-20T09:52:39.000Z</time>
      </trkpt>
      <trkpt lat="47.55584" lon="6.67416">
        <ele>472</ele>
        <time>2016-03-20T09:52:41.000Z</time>
      </trkpt>
      <trkpt lat="47.55585" lon="6.67415">
        <ele>472</ele>
        <time>2016-03-20T09:52:42.000Z</time>
      </trkpt>
      <trkpt lat="47.55587" lon="6.6741">
        <ele>472</ele>
        <time>2016-03-20T09:52:47.000Z</time>
      </trkpt>
      <trkpt lat="47.55587" lon="6.67409">
        <ele>472</ele>
        <time>2016-03-20T09:52:48.000Z</time>
      </trkpt>
      <trkpt lat="47.5559" lon="6.67406">
        <ele>472</ele>
        <time>2016-03-20T09:52:50.000Z</time>
      </trkpt>
      <trkpt lat="47.55591" lon="6.67404">
        <ele>471</ele>
        <time>2016-03-20T09:52:51.000Z</time>
      </trkpt>
      <trkpt lat="47.55595" lon="6.67401">
        <ele>471</ele>
        <time>2016-03-20T09:52:53.000Z</time>
      </trkpt>
      <trkpt lat="47.55596" lon="6.67399">
        <ele>471</ele>
        <time>2016-03-20T09:52:54.000Z</time>
      </trkpt>
      <trkpt lat="47.55597" lon="6.67395">
        <ele>471</ele>
        <time>2016-03-20T09:52:56.000Z</time>
      </trkpt>
      <trkpt lat="47.55598" lon="6.67393">
        <ele>471</ele>
        <time>2016-03-20T09:52:57.000Z</time>
      </trkpt>
      <trkpt lat="47.556" lon="6.67388">
        <ele>471</ele>
        <time>2016-03-20T09:52:59.000Z</time>
      </trkpt>
      <trkpt lat="47.55601" lon="6.67386">
        <ele>472</ele>
        <time>2016-03-20T09:53:00.000Z</time>
      </trkpt>
      <trkpt lat="47.55603" lon="6.6738">
        <ele>472</ele>
        <time>2016-03-20T09:53:03.000Z</time>
      </trkpt>
      <trkpt lat="47.55604" lon="6.67378">
        <ele>472</ele>
        <time>2016-03-20T09:53:04.000Z</time>
      </trkpt>
      <trkpt lat="47.55605" lon="6.67374">
        <ele>472</ele>
        <time>2016-03-20T09:53:06.000Z</time>
      </trkpt>
      <trkpt lat="47.55606" lon="6.67371">
        <ele>472</ele>
        <time>2016-03-20T09:53:07.000Z</time>
      </trkpt>
      <trkpt lat="47.55606" lon="6.67368">
        <ele>472</ele>
        <time>2016-03-20T09:53:08.000Z</time>
      </trkpt>
      <trkpt lat="47.55607" lon="6.67365">
        <ele>473</ele>
        <time>2016-03-20T09:53:09.000Z</time>
      </trkpt>
      <trkpt lat="47.55609" lon="6.67359">
        <ele>473</ele>
        <time>2016-03-20T09:53:11.000Z</time>
      </trkpt>
      <trkpt lat="47.55609" lon="6.67357">
        <ele>473</ele>
        <time>2016-03-20T09:53:12.000Z</time>
      </trkpt>
      <trkpt lat="47.55611" lon="6.67352">
        <ele>473</ele>
        <time>2016-03-20T09:53:14.000Z</time>
      </trkpt>
      <trkpt lat="47.55612" lon="6.6735">
        <ele>473</ele>
        <time>2016-03-20T09:53:15.000Z</time>
      </trkpt>
      <trkpt lat="47.55614" lon="6.67346">
        <ele>474</ele>
        <time>2016-03-20T09:53:18.000Z</time>
      </trkpt>
      <trkpt lat="47.55615" lon="6.67344">
        <ele>474</ele>
        <time>2016-03-20T09:53:19.000Z</time>
      </trkpt>
      <trkpt lat="47.55618" lon="6.67342">
        <ele>474</ele>
        <time>2016-03-20T09:53:23.000Z</time>
      </trkpt>
      <trkpt lat="47.55619" lon="6.67341">
        <ele>474</ele>
        <time>2016-03-20T09:53:24.000Z</time>
      </trkpt>
      <trkpt lat="47.55622" lon="6.67338">
        <ele>474</ele>
        <time>2016-03-20T09:53:27.000Z</time>
      </trkpt>
      <trkpt lat="47.55623" lon="6.67337">
        <ele>474</ele>
        <time>2016-03-20T09:53:28.000Z</time>
      </trkpt>
      <trkpt lat="47.55625" lon="6.67332">
        <ele>480</ele>
        <time>2016-03-20T09:53:31.000Z</time>
      </trkpt>
      <trkpt lat="47.55626" lon="6.6733">
        <ele>480</ele>
        <time>2016-03-20T09:53:32.000Z</time>
      </trkpt>
      <trkpt lat="47.55629" lon="6.67326">
        <ele>480</ele>
        <time>2016-03-20T09:53:34.000Z</time>
      </trkpt>
      <trkpt lat="47.5563" lon="6.67325">
        <ele>480</ele>
        <time>2016-03-20T09:53:35.000Z</time>
      </trkpt>
      <trkpt lat="47.55633" lon="6.67322">
        <ele>481</ele>
        <time>2016-03-20T09:53:39.000Z</time>
      </trkpt>
      <trkpt lat="47.55634" lon="6.67322">
        <ele>481</ele>
        <time>2016-03-20T09:53:40.000Z</time>
      </trkpt>
      <trkpt lat="47.55635" lon="6.67316">
        <ele>481</ele>
        <time>2016-03-20T09:53:50.000Z</time>
      </trkpt>
      <trkpt lat="47.55635" lon="6.67315">
        <ele>481</ele>
        <time>2016-03-20T09:53:51.000Z</time>
      </trkpt>
      <trkpt lat="47.55638" lon="6.67312">
        <ele>481</ele>
        <time>2016-03-20T09:53:56.000Z</time>
      </trkpt>
      <trkpt lat="47.55638" lon="6.67311">
        <ele>481</ele>
        <time>2016-03-20T09:53:57.000Z</time>
      </trkpt>
      <trkpt lat="47.55641" lon="6.67308">
        <ele>481</ele>
        <time>2016-03-20T09:53:59.000Z</time>
      </trkpt>
      <trkpt lat="47.55643" lon="6.67306">
        <ele>481</ele>
        <time>2016-03-20T09:54:00.000Z</time>
      </trkpt>
      <trkpt lat="47.55646" lon="6.67304">
        <ele>481</ele>
        <time>2016-03-20T09:54:02.000Z</time>
      </trkpt>
      <trkpt lat="47.55648" lon="6.67304">
        <ele>481</ele>
        <time>2016-03-20T09:54:03.000Z</time>
      </trkpt>
      <trkpt lat="47.55651" lon="6.67301">
        <ele>482</ele>
        <time>2016-03-20T09:54:07.000Z</time>
      </trkpt>
      <trkpt lat="47.55652" lon="6.67301">
        <ele>482</ele>
        <time>2016-03-20T09:54:08.000Z</time>
      </trkpt>
      <trkpt lat="47.55656" lon="6.67299">
        <ele>482</ele>
        <time>2016-03-20T09:54:11.000Z</time>
      </trkpt>
      <trkpt lat="47.55657" lon="6.67299">
        <ele>482</ele>
        <time>2016-03-20T09:54:12.000Z</time>
      </trkpt>
      <trkpt lat="47.55661" lon="6.67299">
        <ele>482</ele>
        <time>2016-03-20T09:54:14.000Z</time>
      </trkpt>
      <trkpt lat="47.55663" lon="6.67298">
        <ele>482</ele>
        <time>2016-03-20T09:54:15.000Z</time>
      </trkpt>
      <trkpt lat="47.55667" lon="6.67297">
        <ele>483</ele>
        <time>2016-03-20T09:54:17.000Z</time>
      </trkpt>
      <trkpt lat="47.55668" lon="6.67297">
        <ele>483</ele>
        <time>2016-03-20T09:54:18.000Z</time>
      </trkpt>
      <trkpt lat="47.55672" lon="6.67293">
        <ele>483</ele>
        <time>2016-03-20T09:54:21.000Z</time>
      </trkpt>
      <trkpt lat="47.55673" lon="6.67293">
        <ele>483</ele>
        <time>2016-03-20T09:54:22.000Z</time>
      </trkpt>
      <trkpt lat="47.55676" lon="6.6729">
        <ele>484</ele>
        <time>2016-03-20T09:54:25.000Z</time>
      </trkpt>
      <trkpt lat="47.55677" lon="6.6729">
        <ele>484</ele>
        <time>2016-03-20T09:54:25.999Z</time>
      </trkpt>
      <trkpt lat="47.5568" lon="6.67286">
        <ele>484</ele>
        <time>2016-03-20T09:54:28.000Z</time>
      </trkpt>
      <trkpt lat="47.55682" lon="6.67285">
        <ele>484</ele>
        <time>2016-03-20T09:54:29.000Z</time>
      </trkpt>
      <trkpt lat="47.55685" lon="6.67282">
        <ele>484</ele>
        <time>2016-03-20T09:54:31.000Z</time>
      </trkpt>
      <trkpt lat="47.55687" lon="6.67281">
        <ele>484</ele>
        <time>2016-03-20T09:54:32.000Z</time>
      </trkpt>
      <trkpt lat="47.5569" lon="6.6728">
        <ele>484</ele>
        <time>2016-03-20T09:54:34.000Z</time>
      </trkpt>
      <trkpt lat="47.55691" lon="6.67279">
        <ele>484</ele>
        <time>2016-03-20T09:54:35.000Z</time>
      </trkpt>
      <trkpt lat="47.55694" lon="6.67276">
        <ele>485</ele>
        <time>2016-03-20T09:54:37.000Z</time>
      </trkpt>
      <trkpt lat="47.55695" lon="6.67275">
        <ele>485</ele>
        <time>2016-03-20T09:54:38.000Z</time>
      </trkpt>
      <trkpt lat="47.55698" lon="6.67272">
        <ele>485</ele>
        <time>2016-03-20T09:54:40.000Z</time>
      </trkpt>
      <trkpt lat="47.55699" lon="6.67271">
        <ele>485</ele>
        <time>2016-03-20T09:54:41.000Z</time>
      </trkpt>
      <trkpt lat="47.55702" lon="6.67268">
        <ele>485</ele>
        <time>2016-03-20T09:54:43.000Z</time>
      </trkpt>
      <trkpt lat="47.55704" lon="6.67267">
        <ele>485</ele>
        <time>2016-03-20T09:54:44.000Z</time>
      </trkpt>
      <trkpt lat="47.55707" lon="6.67265">
        <ele>486</ele>
        <time>2016-03-20T09:54:47.000Z</time>
      </trkpt>
      <trkpt lat="47.55709" lon="6.67264">
        <ele>486</ele>
        <time>2016-03-20T09:54:48.000Z</time>
      </trkpt>
      <trkpt lat="47.55712" lon="6.6726">
        <ele>486</ele>
        <time>2016-03-20T09:54:52.000Z</time>
      </trkpt>
      <trkpt lat="47.55713" lon="6.67259">
        <ele>486</ele>
        <time>2016-03-20T09:54:53.000Z</time>
      </trkpt>
      <trkpt lat="47.55714" lon="6.67254">
        <ele>487</ele>
        <time>2016-03-20T09:54:56.000Z</time>
      </trkpt>
      <trkpt lat="47.55714" lon="6.67252">
        <ele>487</ele>
        <time>2016-03-20T09:54:57.000Z</time>
      </trkpt>
      <trkpt lat="47.55717" lon="6.67247">
        <ele>496</ele>
        <time>2016-03-20T09:55:01.000Z</time>
      </trkpt>
      <trkpt lat="47.55717" lon="6.67247">
        <ele>496</ele>
        <time>2016-03-20T09:55:02.000Z</time>
      </trkpt>
      <trkpt lat="47.55721" lon="6.67245">
        <ele>496</ele>
        <time>2016-03-20T09:55:08.000Z</time>
      </trkpt>
      <trkpt lat="47.55723" lon="6.67245">
        <ele>496</ele>
        <time>2016-03-20T09:55:09.000Z</time>
      </trkpt>
      <trkpt lat="47.55725" lon="6.67242">
        <ele>496</ele>
        <time>2016-03-20T09:55:11.000Z</time>
      </trkpt>
      <trkpt lat="47.55726" lon="6.6724">
        <ele>496</ele>
        <time>2016-03-20T09:55:12.000Z</time>
      </trkpt>
      <trkpt lat="47.55728" lon="6.67235">
        <ele>496</ele>
        <time>2016-03-20T09:55:15.000Z</time>
      </trkpt>
      <trkpt lat="47.55729" lon="6.67233">
        <ele>496</ele>
        <time>2016-03-20T09:55:16.000Z</time>
      </trkpt>
      <trkpt lat="47.5573" lon="6.67228">
        <ele>497</ele>
        <time>2016-03-20T09:55:19.000Z</time>
      </trkpt>
      <trkpt lat="47.5573" lon="6.67226">
        <ele>497</ele>
        <time>2016-03-20T09:55:20.000Z</time>
      </trkpt>
      <trkpt lat="47.55731" lon="6.6722">
        <ele>497</ele>
        <time>2016-03-20T09:55:23.000Z</time>
      </trkpt>
      <trkpt lat="47.55733" lon="6.67219">
        <ele>497</ele>
        <time>2016-03-20T09:55:24.000Z</time>
      </trkpt>
      <trkpt lat="47.55735" lon="6.67216">
        <ele>497</ele>
        <time>2016-03-20T09:55:26.000Z</time>
      </trkpt>
      <trkpt lat="47.55736" lon="6.67215">
        <ele>497</ele>
        <time>2016-03-20T09:55:27.000Z</time>
      </trkpt>
      <trkpt lat="47.55739" lon="6.67211">
        <ele>498</ele>
        <time>2016-03-20T09:55:30.000Z</time>
      </trkpt>
      <trkpt lat="47.5574" lon="6.67209">
        <ele>498</ele>
        <time>2016-03-20T09:55:31.000Z</time>
      </trkpt>
      <trkpt lat="47.55742" lon="6.67205">
        <ele>498</ele>
        <time>2016-03-20T09:55:33.000Z</time>
      </trkpt>
      <trkpt lat="47.55743" lon="6.67203">
        <ele>499</ele>
        <time>2016-03-20T09:55:34.000Z</time>
      </trkpt>
      <trkpt lat="47.55744" lon="6.672">
        <ele>499</ele>
        <time>2016-03-20T09:55:35.000Z</time>
      </trkpt>
      <trkpt lat="47.55746" lon="6.67197">
        <ele>500</ele>
        <time>2016-03-20T09:55:36.000Z</time>
      </trkpt>
      <trkpt lat="47.55748" lon="6.67192">
        <ele>500</ele>
        <time>2016-03-20T09:55:38.000Z</time>
      </trkpt>
      <trkpt lat="47.5575" lon="6.67189">
        <ele>501</ele>
        <time>2016-03-20T09:55:39.000Z</time>
      </trkpt>
      <trkpt lat="47.55752" lon="6.67184">
        <ele>502</ele>
        <time>2016-03-20T09:55:41.000Z</time>
      </trkpt>
      <trkpt lat="47.55754" lon="6.67182">
        <ele>502</ele>
        <time>2016-03-20T09:55:42.000Z</time>
      </trkpt>
      <trkpt lat="47.55756" lon="6.67179">
        <ele>503</ele>
        <time>2016-03-20T09:55:44.000Z</time>
      </trkpt>
      <trkpt lat="47.55758" lon="6.67177">
        <ele>503</ele>
        <time>2016-03-20T09:55:45.000Z</time>
      </trkpt>
      <trkpt lat="47.55761" lon="6.67174">
        <ele>503</ele>
        <time>2016-03-20T09:55:47.000Z</time>
      </trkpt>
      <trkpt lat="47.55762" lon="6.67171">
        <ele>503</ele>
        <time>2016-03-20T09:55:48.000Z</time>
      </trkpt>
      <trkpt lat="47.55764" lon="6.67168">
        <ele>503</ele>
        <time>2016-03-20T09:55:49.000Z</time>
      </trkpt>
      <trkpt lat="47.55765" lon="6.67165">
        <ele>506</ele>
        <time>2016-03-20T09:55:50.000Z</time>
      </trkpt>
      <trkpt lat="47.55768" lon="6.67161">
        <ele>506</ele>
        <time>2016-03-20T09:55:51.000Z</time>
      </trkpt>
      <trkpt lat="47.5577" lon="6.67158">
        <ele>506</ele>
        <time>2016-03-20T09:55:52.000Z</time>
      </trkpt>
      <trkpt lat="47.55773" lon="6.67155">
        <ele>506</ele>
        <time>2016-03-20T09:55:53.000Z</time>
      </trkpt>
      <trkpt lat="47.55775" lon="6.67152">
        <ele>506</ele>
        <time>2016-03-20T09:55:54.000Z</time>
      </trkpt>
      <trkpt lat="47.55777" lon="6.67148">
        <ele>506</ele>
        <time>2016-03-20T09:55:55.000Z</time>
      </trkpt>
      <trkpt lat="47.55778" lon="6.67145">
        <ele>506</ele>
        <time>2016-03-20T09:55:56.000Z</time>
      </trkpt>
      <trkpt lat="47.55779" lon="6.67142">
        <ele>506</ele>
        <time>2016-03-20T09:55:57.000Z</time>
      </trkpt>
      <trkpt lat="47.5578" lon="6.67139">
        <ele>506</ele>
        <time>2016-03-20T09:55:58.000Z</time>
      </trkpt>
      <trkpt lat="47.55782" lon="6.67136">
        <ele>506</ele>
        <time>2016-03-20T09:55:59.000Z</time>
      </trkpt>
      <trkpt lat="47.55784" lon="6.67132">
        <ele>506</ele>
        <time>2016-03-20T09:56:00.000Z</time>
      </trkpt>
      <trkpt lat="47.55785" lon="6.67129">
        <ele>506</ele>
        <time>2016-03-20T09:56:01.000Z</time>
      </trkpt>
      <trkpt lat="47.55787" lon="6.67127">
        <ele>506</ele>
        <time>2016-03-20T09:56:02.000Z</time>
      </trkpt>
      <trkpt lat="47.55789" lon="6.67121">
        <ele>506</ele>
        <time>2016-03-20T09:56:05.000Z</time>
      </trkpt>
      <trkpt lat="47.55789" lon="6.67119">
        <ele>506</ele>
        <time>2016-03-20T09:56:06.000Z</time>
      </trkpt>
      <trkpt lat="47.55789" lon="6.67114">
        <ele>506</ele>
        <time>2016-03-20T09:56:07.000Z</time>
      </trkpt>
      <trkpt lat="47.5579" lon="6.67108">
        <ele>506</ele>
        <time>2016-03-20T09:56:08.000Z</time>
      </trkpt>
      <trkpt lat="47.55791" lon="6.67102">
        <ele>506</ele>
        <time>2016-03-20T09:56:09.000Z</time>
      </trkpt>
      <trkpt lat="47.55792" lon="6.67095">
        <ele>506</ele>
        <time>2016-03-20T09:56:10.000Z</time>
      </trkpt>
      <trkpt lat="47.55792" lon="6.67089">
        <ele>506</ele>
        <time>2016-03-20T09:56:11.000Z</time>
      </trkpt>
      <trkpt lat="47.55792" lon="6.67083">
        <ele>503</ele>
        <time>2016-03-20T09:56:12.000Z</time>
      </trkpt>
      <trkpt lat="47.55791" lon="6.67078">
        <ele>503</ele>
        <time>2016-03-20T09:56:13.000Z</time>
      </trkpt>
      <trkpt lat="47.5579" lon="6.67074">
        <ele>503</ele>
        <time>2016-03-20T09:56:14.000Z</time>
      </trkpt>
      <trkpt lat="47.5579" lon="6.6707">
        <ele>503</ele>
        <time>2016-03-20T09:56:15.000Z</time>
      </trkpt>
      <trkpt lat="47.55789" lon="6.67066">
        <ele>503</ele>
        <time>2016-03-20T09:56:16.000Z</time>
      </trkpt>
      <trkpt lat="47.55788" lon="6.67063">
        <ele>503</ele>
        <time>2016-03-20T09:56:17.000Z</time>
      </trkpt>
      <trkpt lat="47.55788" lon="6.6706">
        <ele>503</ele>
        <time>2016-03-20T09:56:18.000Z</time>
      </trkpt>
      <trkpt lat="47.55787" lon="6.67056">
        <ele>503</ele>
        <time>2016-03-20T09:56:19.000Z</time>
      </trkpt>
      <trkpt lat="47.55786" lon="6.67053">
        <ele>503</ele>
        <time>2016-03-20T09:56:20.000Z</time>
      </trkpt>
      <trkpt lat="47.55785" lon="6.6705">
        <ele>502</ele>
        <time>2016-03-20T09:56:21.000Z</time>
      </trkpt>
      <trkpt lat="47.55784" lon="6.67047">
        <ele>502</ele>
        <time>2016-03-20T09:56:22.000Z</time>
      </trkpt>
      <trkpt lat="47.55782" lon="6.67042">
        <ele>502</ele>
        <time>2016-03-20T09:56:24.000Z</time>
      </trkpt>
      <trkpt lat="47.5578" lon="6.6704">
        <ele>502</ele>
        <time>2016-03-20T09:56:25.000Z</time>
      </trkpt>
      <trkpt lat="47.55778" lon="6.67038">
        <ele>502</ele>
        <time>2016-03-20T09:56:26.000Z</time>
      </trkpt>
      <trkpt lat="47.55776" lon="6.67036">
        <ele>502</ele>
        <time>2016-03-20T09:56:27.000Z</time>
      </trkpt>
      <trkpt lat="47.55773" lon="6.67031">
        <ele>502</ele>
        <time>2016-03-20T09:56:29.000Z</time>
      </trkpt>
      <trkpt lat="47.55772" lon="6.67029">
        <ele>502</ele>
        <time>2016-03-20T09:56:30.000Z</time>
      </trkpt>
      <trkpt lat="47.5577" lon="6.67025">
        <ele>502</ele>
        <time>2016-03-20T09:56:32.000Z</time>
      </trkpt>
      <trkpt lat="47.55769" lon="6.67023">
        <ele>503</ele>
        <time>2016-03-20T09:56:33.000Z</time>
      </trkpt>
      <trkpt lat="47.55767" lon="6.67017">
        <ele>503</ele>
        <time>2016-03-20T09:56:35.000Z</time>
      </trkpt>
      <trkpt lat="47.55766" lon="6.67015">
        <ele>503</ele>
        <time>2016-03-20T09:56:36.000Z</time>
      </trkpt>
      <trkpt lat="47.55763" lon="6.6701">
        <ele>503</ele>
        <time>2016-03-20T09:56:38.000Z</time>
      </trkpt>
      <trkpt lat="47.5576" lon="6.67008">
        <ele>503</ele>
        <time>2016-03-20T09:56:39.000Z</time>
      </trkpt>
      <trkpt lat="47.55757" lon="6.67005">
        <ele>504</ele>
        <time>2016-03-20T09:56:40.000Z</time>
      </trkpt>
      <trkpt lat="47.55754" lon="6.67003">
        <ele>504</ele>
        <time>2016-03-20T09:56:41.000Z</time>
      </trkpt>
      <trkpt lat="47.55751" lon="6.67001">
        <ele>505</ele>
        <time>2016-03-20T09:56:42.000Z</time>
      </trkpt>
      <trkpt lat="47.55749" lon="6.66999">
        <ele>505</ele>
        <time>2016-03-20T09:56:43.000Z</time>
      </trkpt>
      <trkpt lat="47.55745" lon="6.66995">
        <ele>504</ele>
        <time>2016-03-20T09:56:45.000Z</time>
      </trkpt>
      <trkpt lat="47.55743" lon="6.66994">
        <ele>504</ele>
        <time>2016-03-20T09:56:46.000Z</time>
      </trkpt>
      <trkpt lat="47.5574" lon="6.66991">
        <ele>503</ele>
        <time>2016-03-20T09:56:48.000Z</time>
      </trkpt>
      <trkpt lat="47.55739" lon="6.6699">
        <ele>503</ele>
        <time>2016-03-20T09:56:49.000Z</time>
      </trkpt>
      <trkpt lat="47.55736" lon="6.66985">
        <ele>502</ele>
        <time>2016-03-20T09:56:53.000Z</time>
      </trkpt>
      <trkpt lat="47.55736" lon="6.66984">
        <ele>502</ele>
        <time>2016-03-20T09:56:54.000Z</time>
      </trkpt>
      <trkpt lat="47.55733" lon="6.66988">
        <ele>503</ele>
        <time>2016-03-20T09:56:56.000Z</time>
      </trkpt>
      <trkpt lat="47.55731" lon="6.66989">
        <ele>503</ele>
        <time>2016-03-20T09:56:57.000Z</time>
      </trkpt>
      <trkpt lat="47.55727" lon="6.66988">
        <ele>503</ele>
        <time>2016-03-20T09:56:59.000Z</time>
      </trkpt>
      <trkpt lat="47.55726" lon="6.66988">
        <ele>503</ele>
        <time>2016-03-20T09:57:00.000Z</time>
      </trkpt>
      <trkpt lat="47.55722" lon="6.66988">
        <ele>503</ele>
        <time>2016-03-20T09:57:22.000Z</time>
      </trkpt>
      <trkpt lat="47.55721" lon="6.66988">
        <ele>503</ele>
        <time>2016-03-20T09:57:23.000Z</time>
      </trkpt>
      <trkpt lat="47.55717" lon="6.6699">
        <ele>503</ele>
        <time>2016-03-20T09:57:37.000Z</time>
      </trkpt>
      <trkpt lat="47.55717" lon="6.66991">
        <ele>503</ele>
        <time>2016-03-20T09:57:38.000Z</time>
      </trkpt>
      <trkpt lat="47.55713" lon="6.66988">
        <ele>503</ele>
        <time>2016-03-20T10:01:00.000Z</time>
      </trkpt>
      <trkpt lat="47.55713" lon="6.66987">
        <ele>503</ele>
        <time>2016-03-20T10:01:01.000Z</time>
      </trkpt>
      <trkpt lat="47.55712" lon="6.6698">
        <ele>502</ele>
        <time>2016-03-20T10:01:05.000Z</time>
      </trkpt>
      <trkpt lat="47.5571" lon="6.66978">
        <ele>502</ele>
        <time>2016-03-20T10:01:06.000Z</time>
      </trkpt>
      <trkpt lat="47.55708" lon="6.66974">
        <ele>502</ele>
        <time>2016-03-20T10:01:08.000Z</time>
      </trkpt>
      <trkpt lat="47.55706" lon="6.66972">
        <ele>502</ele>
        <time>2016-03-20T10:01:09.000Z</time>
      </trkpt>
      <trkpt lat="47.55703" lon="6.6697">
        <ele>502</ele>
        <time>2016-03-20T10:01:10.000Z</time>
      </trkpt>
      <trkpt lat="47.557" lon="6.66968">
        <ele>502</ele>
        <time>2016-03-20T10:01:11.000Z</time>
      </trkpt>
      <trkpt lat="47.55698" lon="6.66966">
        <ele>502</ele>
        <time>2016-03-20T10:01:12.000Z</time>
      </trkpt>
      <trkpt lat="47.55695" lon="6.66965">
        <ele>502</ele>
        <time>2016-03-20T10:01:13.000Z</time>
      </trkpt>
      <trkpt lat="47.55692" lon="6.66961">
        <ele>502</ele>
        <time>2016-03-20T10:01:15.000Z</time>
      </trkpt>
      <trkpt lat="47.5569" lon="6.6696">
        <ele>502</ele>
        <time>2016-03-20T10:01:16.000Z</time>
      </trkpt>
      <trkpt lat="47.55688" lon="6.66958">
        <ele>502</ele>
        <time>2016-03-20T10:01:17.000Z</time>
      </trkpt>
      <trkpt lat="47.55686" lon="6.66956">
        <ele>502</ele>
        <time>2016-03-20T10:01:18.000Z</time>
      </trkpt>
      <trkpt lat="47.55684" lon="6.66954">
        <ele>502</ele>
        <time>2016-03-20T10:01:19.000Z</time>
      </trkpt>
      <trkpt lat="47.55682" lon="6.66952">
        <ele>502</ele>
        <time>2016-03-20T10:01:20.000Z</time>
      </trkpt>
      <trkpt lat="47.55679" lon="6.6695">
        <ele>502</ele>
        <time>2016-03-20T10:01:21.000Z</time>
      </trkpt>
      <trkpt lat="47.55677" lon="6.66949">
        <ele>502</ele>
        <time>2016-03-20T10:01:22.000Z</time>
      </trkpt>
      <trkpt lat="47.55673" lon="6.66947">
        <ele>502</ele>
        <time>2016-03-20T10:01:23.000Z</time>
      </trkpt>
      <trkpt lat="47.55671" lon="6.66944">
        <ele>502</ele>
        <time>2016-03-20T10:01:24.000Z</time>
      </trkpt>
      <trkpt lat="47.55668" lon="6.66941">
        <ele>502</ele>
        <time>2016-03-20T10:01:25.000Z</time>
      </trkpt>
      <trkpt lat="47.55666" lon="6.66938">
        <ele>503</ele>
        <time>2016-03-20T10:01:26.000Z</time>
      </trkpt>
      <trkpt lat="47.55664" lon="6.66934">
        <ele>503</ele>
        <time>2016-03-20T10:01:27.000Z</time>
      </trkpt>
      <trkpt lat="47.55662" lon="6.66931">
        <ele>503</ele>
        <time>2016-03-20T10:01:28.000Z</time>
      </trkpt>
      <trkpt lat="47.55659" lon="6.66928">
        <ele>503</ele>
        <time>2016-03-20T10:01:29.000Z</time>
      </trkpt>
      <trkpt lat="47.55656" lon="6.66924">
        <ele>503</ele>
        <time>2016-03-20T10:01:30.000Z</time>
      </trkpt>
      <trkpt lat="47.55652" lon="6.66921">
        <ele>503</ele>
        <time>2016-03-20T10:01:31.000Z</time>
      </trkpt>
      <trkpt lat="47.55648" lon="6.66918">
        <ele>503</ele>
        <time>2016-03-20T10:01:32.000Z</time>
      </trkpt>
      <trkpt lat="47.55643" lon="6.66915">
        <ele>500</ele>
        <time>2016-03-20T10:01:33.000Z</time>
      </trkpt>
      <trkpt lat="47.55639" lon="6.66912">
        <ele>500</ele>
        <time>2016-03-20T10:01:34.000Z</time>
      </trkpt>
      <trkpt lat="47.55636" lon="6.66909">
        <ele>500</ele>
        <time>2016-03-20T10:01:35.000Z</time>
      </trkpt>
      <trkpt lat="47.55632" lon="6.66905">
        <ele>500</ele>
        <time>2016-03-20T10:01:36.000Z</time>
      </trkpt>
      <trkpt lat="47.55629" lon="6.66902">
        <ele>500</ele>
        <time>2016-03-20T10:01:37.000Z</time>
      </trkpt>
      <trkpt lat="47.55626" lon="6.66899">
        <ele>500</ele>
        <time>2016-03-20T10:01:38.000Z</time>
      </trkpt>
      <trkpt lat="47.55623" lon="6.66896">
        <ele>500</ele>
        <time>2016-03-20T10:01:39.000Z</time>
      </trkpt>
      <trkpt lat="47.55621" lon="6.66892">
        <ele>500</ele>
        <time>2016-03-20T10:01:40.000Z</time>
      </trkpt>
      <trkpt lat="47.55618" lon="6.66888">
        <ele>500</ele>
        <time>2016-03-20T10:01:41.000Z</time>
      </trkpt>
      <trkpt lat="47.55616" lon="6.66884">
        <ele>500</ele>
        <time>2016-03-20T10:01:42.000Z</time>
      </trkpt>
      <trkpt lat="47.55614" lon="6.66879">
        <ele>499</ele>
        <time>2016-03-20T10:01:43.000Z</time>
      </trkpt>
      <trkpt lat="47.55611" lon="6.66874">
        <ele>499</ele>
        <time>2016-03-20T10:01:44.000Z</time>
      </trkpt>
      <trkpt lat="47.55607" lon="6.66869">
        <ele>499</ele>
        <time>2016-03-20T10:01:45.000Z</time>
      </trkpt>
      <trkpt lat="47.55603" lon="6.66864">
        <ele>499</ele>
        <time>2016-03-20T10:01:46.000Z</time>
      </trkpt>
      <trkpt lat="47.55598" lon="6.66858">
        <ele>499</ele>
        <time>2016-03-20T10:01:47.000Z</time>
      </trkpt>
      <trkpt lat="47.55593" lon="6.66852">
        <ele>500</ele>
        <time>2016-03-20T10:01:48.000Z</time>
      </trkpt>
      <trkpt lat="47.55571" lon="6.66835">
        <ele>500</ele>
        <time>2016-03-20T10:01:49.000Z</time>
      </trkpt>
      <trkpt lat="47.55567" lon="6.6683">
        <ele>499</ele>
        <time>2016-03-20T10:01:50.000Z</time>
      </trkpt>
      <trkpt lat="47.55562" lon="6.66824">
        <ele>499</ele>
        <time>2016-03-20T10:01:51.000Z</time>
      </trkpt>
      <trkpt lat="47.55558" lon="6.66819">
        <ele>499</ele>
        <time>2016-03-20T10:01:52.000Z</time>
      </trkpt>
      <trkpt lat="47.55554" lon="6.66813">
        <ele>499</ele>
        <time>2016-03-20T10:01:53.000Z</time>
      </trkpt>
      <trkpt lat="47.55549" lon="6.66808">
        <ele>498</ele>
        <time>2016-03-20T10:01:54.000Z</time>
      </trkpt>
      <trkpt lat="47.55545" lon="6.66803">
        <ele>498</ele>
        <time>2016-03-20T10:01:55.000Z</time>
      </trkpt>
      <trkpt lat="47.55532" lon="6.66792">
        <ele>499</ele>
        <time>2016-03-20T10:01:56.000Z</time>
      </trkpt>
      <trkpt lat="47.55528" lon="6.66785">
        <ele>499</ele>
        <time>2016-03-20T10:01:57.000Z</time>
      </trkpt>
      <trkpt lat="47.55525" lon="6.6678">
        <ele>499</ele>
        <time>2016-03-20T10:01:58.000Z</time>
      </trkpt>
      <trkpt lat="47.55521" lon="6.66774">
        <ele>499</ele>
        <time>2016-03-20T10:01:59.000Z</time>
      </trkpt>
      <trkpt lat="47.55518" lon="6.6677">
        <ele>499</ele>
        <time>2016-03-20T10:02:00.000Z</time>
      </trkpt>
      <trkpt lat="47.55516" lon="6.66766">
        <ele>500</ele>
        <time>2016-03-20T10:02:01.000Z</time>
      </trkpt>
      <trkpt lat="47.55512" lon="6.66761">
        <ele>500</ele>
        <time>2016-03-20T10:02:02.000Z</time>
      </trkpt>
      <trkpt lat="47.55508" lon="6.66754">
        <ele>501</ele>
        <time>2016-03-20T10:02:03.000Z</time>
      </trkpt>
      <trkpt lat="47.55504" lon="6.66746">
        <ele>501</ele>
        <time>2016-03-20T10:02:04.000Z</time>
      </trkpt>
      <trkpt lat="47.555" lon="6.6674">
        <ele>502</ele>
        <time>2016-03-20T10:02:05.000Z</time>
      </trkpt>
      <trkpt lat="47.55496" lon="6.66733">
        <ele>501</ele>
        <time>2016-03-20T10:02:06.000Z</time>
      </trkpt>
      <trkpt lat="47.55492" lon="6.66727">
        <ele>501</ele>
        <time>2016-03-20T10:02:07.000Z</time>
      </trkpt>
      <trkpt lat="47.55489" lon="6.66721">
        <ele>501</ele>
        <time>2016-03-20T10:02:08.000Z</time>
      </trkpt>
      <trkpt lat="47.55484" lon="6.66713">
        <ele>500</ele>
        <time>2016-03-20T10:02:09.000Z</time>
      </trkpt>
      <trkpt lat="47.5548" lon="6.66706">
        <ele>500</ele>
        <time>2016-03-20T10:02:10.000Z</time>
      </trkpt>
      <trkpt lat="47.55475" lon="6.66698">
        <ele>500</ele>
        <time>2016-03-20T10:02:11.000Z</time>
      </trkpt>
      <trkpt lat="47.5547" lon="6.66692">
        <ele>500</ele>
        <time>2016-03-20T10:02:12.000Z</time>
      </trkpt>
      <trkpt lat="47.55467" lon="6.66685">
        <ele>500</ele>
        <time>2016-03-20T10:02:13.000Z</time>
      </trkpt>
      <trkpt lat="47.55465" lon="6.66682">
        <ele>500</ele>
        <time>2016-03-20T10:02:14.000Z</time>
      </trkpt>
      <trkpt lat="47.55463" lon="6.66676">
        <ele>500</ele>
        <time>2016-03-20T10:02:15.000Z</time>
      </trkpt>
      <trkpt lat="47.55462" lon="6.66671">
        <ele>500</ele>
        <time>2016-03-20T10:02:16.000Z</time>
      </trkpt>
      <trkpt lat="47.55461" lon="6.66665">
        <ele>497</ele>
        <time>2016-03-20T10:02:17.000Z</time>
      </trkpt>
      <trkpt lat="47.5546" lon="6.6666">
        <ele>497</ele>
        <time>2016-03-20T10:02:18.000Z</time>
      </trkpt>
      <trkpt lat="47.55449" lon="6.66651">
        <ele>498</ele>
        <time>2016-03-20T10:02:19.000Z</time>
      </trkpt>
      <trkpt lat="47.55443" lon="6.66645">
        <ele>498</ele>
        <time>2016-03-20T10:02:20.000Z</time>
      </trkpt>
      <trkpt lat="47.5544" lon="6.66639">
        <ele>498</ele>
        <time>2016-03-20T10:02:21.000Z</time>
      </trkpt>
      <trkpt lat="47.55437" lon="6.66635">
        <ele>498</ele>
        <time>2016-03-20T10:02:22.000Z</time>
      </trkpt>
      <trkpt lat="47.55435" lon="6.66628">
        <ele>498</ele>
        <time>2016-03-20T10:02:23.000Z</time>
      </trkpt>
      <trkpt lat="47.55429" lon="6.66619">
        <ele>498</ele>
        <time>2016-03-20T10:02:24.000Z</time>
      </trkpt>
      <trkpt lat="47.55426" lon="6.66612">
        <ele>499</ele>
        <time>2016-03-20T10:02:25.000Z</time>
      </trkpt>
      <trkpt lat="47.55422" lon="6.66607">
        <ele>499</ele>
        <time>2016-03-20T10:02:26.000Z</time>
      </trkpt>
      <trkpt lat="47.55418" lon="6.66605">
        <ele>499</ele>
        <time>2016-03-20T10:02:27.000Z</time>
      </trkpt>
      <trkpt lat="47.55417" lon="6.66601">
        <ele>500</ele>
        <time>2016-03-20T10:02:28.000Z</time>
      </trkpt>
      <trkpt lat="47.55418" lon="6.66596">
        <ele>500</ele>
        <time>2016-03-20T10:02:30.000Z</time>
      </trkpt>
      <trkpt lat="47.55417" lon="6.66594">
        <ele>501</ele>
        <time>2016-03-20T10:02:31.000Z</time>
      </trkpt>
      <trkpt lat="47.55417" lon="6.66589">
        <ele>501</ele>
        <time>2016-03-20T10:02:32.000Z</time>
      </trkpt>
      <trkpt lat="47.55417" lon="6.66584">
        <ele>503</ele>
        <time>2016-03-20T10:02:33.000Z</time>
      </trkpt>
      <trkpt lat="47.55416" lon="6.66579">
        <ele>503</ele>
        <time>2016-03-20T10:02:34.000Z</time>
      </trkpt>
      <trkpt lat="47.55416" lon="6.66572">
        <ele>502</ele>
        <time>2016-03-20T10:02:35.000Z</time>
      </trkpt>
      <trkpt lat="47.55412" lon="6.66566">
        <ele>502</ele>
        <time>2016-03-20T10:02:36.000Z</time>
      </trkpt>
      <trkpt lat="47.55411" lon="6.66561">
        <ele>501</ele>
        <time>2016-03-20T10:02:37.000Z</time>
      </trkpt>
      <trkpt lat="47.5541" lon="6.66556">
        <ele>501</ele>
        <time>2016-03-20T10:02:38.000Z</time>
      </trkpt>
      <trkpt lat="47.55408" lon="6.66552">
        <ele>501</ele>
        <time>2016-03-20T10:02:39.000Z</time>
      </trkpt>
      <trkpt lat="47.55404" lon="6.66548">
        <ele>501</ele>
        <time>2016-03-20T10:02:40.000Z</time>
      </trkpt>
      <trkpt lat="47.55399" lon="6.66544">
        <ele>500</ele>
        <time>2016-03-20T10:02:41.000Z</time>
      </trkpt>
      <trkpt lat="47.55394" lon="6.6654">
        <ele>500</ele>
        <time>2016-03-20T10:02:42.000Z</time>
      </trkpt>
      <trkpt lat="47.55388" lon="6.66535">
        <ele>500</ele>
        <time>2016-03-20T10:02:43.000Z</time>
      </trkpt>
      <trkpt lat="47.55383" lon="6.66531">
        <ele>501</ele>
        <time>2016-03-20T10:02:44.000Z</time>
      </trkpt>
      <trkpt lat="47.55378" lon="6.66527">
        <ele>501</ele>
        <time>2016-03-20T10:02:45.000Z</time>
      </trkpt>
      <trkpt lat="47.55374" lon="6.66523">
        <ele>501</ele>
        <time>2016-03-20T10:02:46.000Z</time>
      </trkpt>
      <trkpt lat="47.55371" lon="6.6652">
        <ele>501</ele>
        <time>2016-03-20T10:02:47.000Z</time>
      </trkpt>
      <trkpt lat="47.55368" lon="6.66516">
        <ele>501</ele>
        <time>2016-03-20T10:02:48.000Z</time>
      </trkpt>
      <trkpt lat="47.55366" lon="6.66513">
        <ele>502</ele>
        <time>2016-03-20T10:02:49.000Z</time>
      </trkpt>
      <trkpt lat="47.55365" lon="6.6651">
        <ele>502</ele>
        <time>2016-03-20T10:02:50.000Z</time>
      </trkpt>
      <trkpt lat="47.55363" lon="6.66507">
        <ele>502</ele>
        <time>2016-03-20T10:02:51.000Z</time>
      </trkpt>
      <trkpt lat="47.55361" lon="6.66503">
        <ele>502</ele>
        <time>2016-03-20T10:02:52.000Z</time>
      </trkpt>
      <trkpt lat="47.55359" lon="6.665">
        <ele>503</ele>
        <time>2016-03-20T10:02:53.000Z</time>
      </trkpt>
      <trkpt lat="47.55358" lon="6.66497">
        <ele>501</ele>
        <time>2016-03-20T10:02:54.000Z</time>
      </trkpt>
      <trkpt lat="47.55356" lon="6.66494">
        <ele>501</ele>
        <time>2016-03-20T10:02:55.000Z</time>
      </trkpt>
      <trkpt lat="47.55355" lon="6.66491">
        <ele>501</ele>
        <time>2016-03-20T10:02:56.000Z</time>
      </trkpt>
      <trkpt lat="47.55354" lon="6.66488">
        <ele>501</ele>
        <time>2016-03-20T10:02:57.000Z</time>
      </trkpt>
      <trkpt lat="47.55353" lon="6.66485">
        <ele>501</ele>
        <time>2016-03-20T10:02:58.000Z</time>
      </trkpt>
      <trkpt lat="47.55352" lon="6.66481">
        <ele>501</ele>
        <time>2016-03-20T10:02:59.000Z</time>
      </trkpt>
      <trkpt lat="47.5535" lon="6.66478">
        <ele>501</ele>
        <time>2016-03-20T10:03:00.000Z</time>
      </trkpt>
      <trkpt lat="47.55349" lon="6.66475">
        <ele>501</ele>
        <time>2016-03-20T10:03:01.000Z</time>
      </trkpt>
      <trkpt lat="47.55347" lon="6.66472">
        <ele>501</ele>
        <time>2016-03-20T10:03:02.000Z</time>
      </trkpt>
      <trkpt lat="47.55345" lon="6.66468">
        <ele>501</ele>
        <time>2016-03-20T10:03:03.000Z</time>
      </trkpt>
      <trkpt lat="47.55343" lon="6.66465">
        <ele>501</ele>
        <time>2016-03-20T10:03:04.000Z</time>
      </trkpt>
      <trkpt lat="47.55342" lon="6.66462">
        <ele>501</ele>
        <time>2016-03-20T10:03:05.000Z</time>
      </trkpt>
      <trkpt lat="47.5534" lon="6.66458">
        <ele>501</ele>
        <time>2016-03-20T10:03:06.000Z</time>
      </trkpt>
      <trkpt lat="47.55338" lon="6.66455">
        <ele>501</ele>
        <time>2016-03-20T10:03:07.000Z</time>
      </trkpt>
      <trkpt lat="47.55336" lon="6.66451">
        <ele>501</ele>
        <time>2016-03-20T10:03:08.000Z</time>
      </trkpt>
      <trkpt lat="47.55334" lon="6.66448">
        <ele>501</ele>
        <time>2016-03-20T10:03:09.000Z</time>
      </trkpt>
      <trkpt lat="47.55333" lon="6.66446">
        <ele>508</ele>
        <time>2016-03-20T10:03:10.000Z</time>
      </trkpt>
      <trkpt lat="47.55331" lon="6.6644">
        <ele>508</ele>
        <time>2016-03-20T10:03:12.000Z</time>
      </trkpt>
      <trkpt lat="47.5533" lon="6.66438">
        <ele>508</ele>
        <time>2016-03-20T10:03:13.000Z</time>
      </trkpt>
      <trkpt lat="47.55327" lon="6.66435">
        <ele>508</ele>
        <time>2016-03-20T10:03:14.000Z</time>
      </trkpt>
      <trkpt lat="47.55325" lon="6.66433">
        <ele>508</ele>
        <time>2016-03-20T10:03:15.000Z</time>
      </trkpt>
      <trkpt lat="47.55323" lon="6.6643">
        <ele>508</ele>
        <time>2016-03-20T10:03:16.000Z</time>
      </trkpt>
      <trkpt lat="47.55323" lon="6.66427">
        <ele>508</ele>
        <time>2016-03-20T10:03:17.000Z</time>
      </trkpt>
      <trkpt lat="47.55322" lon="6.66424">
        <ele>508</ele>
        <time>2016-03-20T10:03:18.000Z</time>
      </trkpt>
      <trkpt lat="47.55322" lon="6.6642">
        <ele>508</ele>
        <time>2016-03-20T10:03:19.000Z</time>
      </trkpt>
      <trkpt lat="47.55322" lon="6.66416">
        <ele>507</ele>
        <time>2016-03-20T10:03:20.000Z</time>
      </trkpt>
      <trkpt lat="47.55321" lon="6.66413">
        <ele>507</ele>
        <time>2016-03-20T10:03:21.000Z</time>
      </trkpt>
      <trkpt lat="47.5532" lon="6.66406">
        <ele>507</ele>
        <time>2016-03-20T10:03:23.000Z</time>
      </trkpt>
      <trkpt lat="47.55319" lon="6.66404">
        <ele>507</ele>
        <time>2016-03-20T10:03:24.000Z</time>
      </trkpt>
      <trkpt lat="47.55317" lon="6.664">
        <ele>507</ele>
        <time>2016-03-20T10:03:26.000Z</time>
      </trkpt>
      <trkpt lat="47.55316" lon="6.66398">
        <ele>507</ele>
        <time>2016-03-20T10:03:27.000Z</time>
      </trkpt>
      <trkpt lat="47.55314" lon="6.66393">
        <ele>507</ele>
        <time>2016-03-20T10:03:31.000Z</time>
      </trkpt>
      <trkpt lat="47.55313" lon="6.66392">
        <ele>507</ele>
        <time>2016-03-20T10:03:32.000Z</time>
      </trkpt>
      <trkpt lat="47.55311" lon="6.66387">
        <ele>507</ele>
        <time>2016-03-20T10:03:35.000Z</time>
      </trkpt>
      <trkpt lat="47.55309" lon="6.66384">
        <ele>507</ele>
        <time>2016-03-20T10:03:36.000Z</time>
      </trkpt>
      <trkpt lat="47.55306" lon="6.6638">
        <ele>507</ele>
        <time>2016-03-20T10:03:38.000Z</time>
      </trkpt>
      <trkpt lat="47.55306" lon="6.66377">
        <ele>507</ele>
        <time>2016-03-20T10:03:39.000Z</time>
      </trkpt>
      <trkpt lat="47.55306" lon="6.66371">
        <ele>506</ele>
        <time>2016-03-20T10:03:41.000Z</time>
      </trkpt>
      <trkpt lat="47.55307" lon="6.66368">
        <ele>506</ele>
        <time>2016-03-20T10:03:42.000Z</time>
      </trkpt>
      <trkpt lat="47.55307" lon="6.66363">
        <ele>506</ele>
        <time>2016-03-20T10:03:44.000Z</time>
      </trkpt>
      <trkpt lat="47.55307" lon="6.6636">
        <ele>506</ele>
        <time>2016-03-20T10:03:45.000Z</time>
      </trkpt>
      <trkpt lat="47.55307" lon="6.66357">
        <ele>506</ele>
        <time>2016-03-20T10:03:46.000Z</time>
      </trkpt>
      <trkpt lat="47.55305" lon="6.66354">
        <ele>505</ele>
        <time>2016-03-20T10:03:47.000Z</time>
      </trkpt>
      <trkpt lat="47.55304" lon="6.6635">
        <ele>505</ele>
        <time>2016-03-20T10:03:48.000Z</time>
      </trkpt>
      <trkpt lat="47.55302" lon="6.66345">
        <ele>506</ele>
        <time>2016-03-20T10:03:49.000Z</time>
      </trkpt>
      <trkpt lat="47.553" lon="6.66341">
        <ele>506</ele>
        <time>2016-03-20T10:03:50.000Z</time>
      </trkpt>
      <trkpt lat="47.55298" lon="6.66337">
        <ele>506</ele>
        <time>2016-03-20T10:03:51.000Z</time>
      </trkpt>
      <trkpt lat="47.55295" lon="6.66334">
        <ele>506</ele>
        <time>2016-03-20T10:03:52.000Z</time>
      </trkpt>
      <trkpt lat="47.55293" lon="6.66331">
        <ele>502</ele>
        <time>2016-03-20T10:03:53.000Z</time>
      </trkpt>
      <trkpt lat="47.55291" lon="6.66328">
        <ele>502</ele>
        <time>2016-03-20T10:03:54.000Z</time>
      </trkpt>
      <trkpt lat="47.55289" lon="6.66325">
        <ele>503</ele>
        <time>2016-03-20T10:03:55.000Z</time>
      </trkpt>
      <trkpt lat="47.55287" lon="6.66323">
        <ele>503</ele>
        <time>2016-03-20T10:03:56.000Z</time>
      </trkpt>
      <trkpt lat="47.55285" lon="6.66321">
        <ele>503</ele>
        <time>2016-03-20T10:03:57.000Z</time>
      </trkpt>
      <trkpt lat="47.55282" lon="6.66318">
        <ele>503</ele>
        <time>2016-03-20T10:03:58.000Z</time>
      </trkpt>
      <trkpt lat="47.5528" lon="6.66315">
        <ele>504</ele>
        <time>2016-03-20T10:03:59.000Z</time>
      </trkpt>
      <trkpt lat="47.55278" lon="6.66312">
        <ele>504</ele>
        <time>2016-03-20T10:04:00.000Z</time>
      </trkpt>
      <trkpt lat="47.55275" lon="6.66308">
        <ele>504</ele>
        <time>2016-03-20T10:04:01.000Z</time>
      </trkpt>
      <trkpt lat="47.55273" lon="6.66303">
        <ele>504</ele>
        <time>2016-03-20T10:04:02.000Z</time>
      </trkpt>
      <trkpt lat="47.55271" lon="6.66299">
        <ele>503</ele>
        <time>2016-03-20T10:04:03.000Z</time>
      </trkpt>
      <trkpt lat="47.55269" lon="6.66295">
        <ele>503</ele>
        <time>2016-03-20T10:04:04.000Z</time>
      </trkpt>
      <trkpt lat="47.55267" lon="6.66291">
        <ele>503</ele>
        <time>2016-03-20T10:04:05.000Z</time>
      </trkpt>
      <trkpt lat="47.55266" lon="6.66287">
        <ele>503</ele>
        <time>2016-03-20T10:04:06.000Z</time>
      </trkpt>
      <trkpt lat="47.55263" lon="6.66283">
        <ele>503</ele>
        <time>2016-03-20T10:04:07.000Z</time>
      </trkpt>
      <trkpt lat="47.55261" lon="6.66279">
        <ele>504</ele>
        <time>2016-03-20T10:04:08.000Z</time>
      </trkpt>
      <trkpt lat="47.55258" lon="6.66275">
        <ele>504</ele>
        <time>2016-03-20T10:04:09.000Z</time>
      </trkpt>
      <trkpt lat="47.55256" lon="6.6627">
        <ele>504</ele>
        <time>2016-03-20T10:04:10.000Z</time>
      </trkpt>
      <trkpt lat="47.55253" lon="6.66266">
        <ele>505</ele>
        <time>2016-03-20T10:04:11.000Z</time>
      </trkpt>
      <trkpt lat="47.5525" lon="6.66262">
        <ele>505</ele>
        <time>2016-03-20T10:04:12.000Z</time>
      </trkpt>
      <trkpt lat="47.55248" lon="6.66257">
        <ele>509</ele>
        <time>2016-03-20T10:04:13.000Z</time>
      </trkpt>
      <trkpt lat="47.55245" lon="6.66253">
        <ele>509</ele>
        <time>2016-03-20T10:04:14.000Z</time>
      </trkpt>
      <trkpt lat="47.55242" lon="6.66249">
        <ele>507</ele>
        <time>2016-03-20T10:04:15.000Z</time>
      </trkpt>
      <trkpt lat="47.55238" lon="6.66245">
        <ele>506</ele>
        <time>2016-03-20T10:04:16.000Z</time>
      </trkpt>
      <trkpt lat="47.55234" lon="6.66242">
        <ele>506</ele>
        <time>2016-03-20T10:04:17.000Z</time>
      </trkpt>
      <trkpt lat="47.55231" lon="6.66239">
        <ele>505</ele>
        <time>2016-03-20T10:04:18.000Z</time>
      </trkpt>
      <trkpt lat="47.55228" lon="6.66235">
        <ele>505</ele>
        <time>2016-03-20T10:04:19.000Z</time>
      </trkpt>
      <trkpt lat="47.55225" lon="6.66231">
        <ele>505</ele>
        <time>2016-03-20T10:04:20.000Z</time>
      </trkpt>
      <trkpt lat="47.55222" lon="6.66227">
        <ele>504</ele>
        <time>2016-03-20T10:04:21.000Z</time>
      </trkpt>
      <trkpt lat="47.55219" lon="6.66223">
        <ele>504</ele>
        <time>2016-03-20T10:04:22.000Z</time>
      </trkpt>
      <trkpt lat="47.55215" lon="6.66219">
        <ele>504</ele>
        <time>2016-03-20T10:04:23.000Z</time>
      </trkpt>
      <trkpt lat="47.55212" lon="6.66216">
        <ele>504</ele>
        <time>2016-03-20T10:04:24.000Z</time>
      </trkpt>
      <trkpt lat="47.55208" lon="6.66212">
        <ele>504</ele>
        <time>2016-03-20T10:04:25.000Z</time>
      </trkpt>
      <trkpt lat="47.55204" lon="6.66209">
        <ele>504</ele>
        <time>2016-03-20T10:04:26.000Z</time>
      </trkpt>
      <trkpt lat="47.552" lon="6.66207">
        <ele>504</ele>
        <time>2016-03-20T10:04:27.000Z</time>
      </trkpt>
      <trkpt lat="47.55195" lon="6.66205">
        <ele>504</ele>
        <time>2016-03-20T10:04:28.000Z</time>
      </trkpt>
      <trkpt lat="47.55192" lon="6.66203">
        <ele>504</ele>
        <time>2016-03-20T10:04:29.000Z</time>
      </trkpt>
      <trkpt lat="47.55189" lon="6.662">
        <ele>504</ele>
        <time>2016-03-20T10:04:31.000Z</time>
      </trkpt>
      <trkpt lat="47.55188" lon="6.66199">
        <ele>504</ele>
        <time>2016-03-20T10:04:32.000Z</time>
      </trkpt>
      <trkpt lat="47.55184" lon="6.66196">
        <ele>504</ele>
        <time>2016-03-20T10:04:34.000Z</time>
      </trkpt>
      <trkpt lat="47.55182" lon="6.66196">
        <ele>504</ele>
        <time>2016-03-20T10:04:35.000Z</time>
      </trkpt>
      <trkpt lat="47.55178" lon="6.66195">
        <ele>504</ele>
        <time>2016-03-20T10:04:37.000Z</time>
      </trkpt>
      <trkpt lat="47.55177" lon="6.66194">
        <ele>504</ele>
        <time>2016-03-20T10:04:38.000Z</time>
      </trkpt>
      <trkpt lat="47.55174" lon="6.66192">
        <ele>504</ele>
        <time>2016-03-20T10:04:42.000Z</time>
      </trkpt>
      <trkpt lat="47.55172" lon="6.66193">
        <ele>505</ele>
        <time>2016-03-20T10:04:43.000Z</time>
      </trkpt>
      <trkpt lat="47.55169" lon="6.66193">
        <ele>505</ele>
        <time>2016-03-20T10:04:44.000Z</time>
      </trkpt>
      <trkpt lat="47.55166" lon="6.66193">
        <ele>510</ele>
        <time>2016-03-20T10:04:45.000Z</time>
      </trkpt>
      <trkpt lat="47.55163" lon="6.66192">
        <ele>510</ele>
        <time>2016-03-20T10:04:46.000Z</time>
      </trkpt>
      <trkpt lat="47.5516" lon="6.6619">
        <ele>510</ele>
        <time>2016-03-20T10:04:47.000Z</time>
      </trkpt>
      <trkpt lat="47.55157" lon="6.66189">
        <ele>510</ele>
        <time>2016-03-20T10:04:48.000Z</time>
      </trkpt>
      <trkpt lat="47.55155" lon="6.66187">
        <ele>510</ele>
        <time>2016-03-20T10:04:49.000Z</time>
      </trkpt>
      <trkpt lat="47.55153" lon="6.66185">
        <ele>510</ele>
        <time>2016-03-20T10:04:50.000Z</time>
      </trkpt>
      <trkpt lat="47.5515" lon="6.66183">
        <ele>510</ele>
        <time>2016-03-20T10:04:51.000Z</time>
      </trkpt>
      <trkpt lat="47.55148" lon="6.66181">
        <ele>510</ele>
        <time>2016-03-20T10:04:52.000Z</time>
      </trkpt>
      <trkpt lat="47.55138" lon="6.66173">
        <ele>510</ele>
        <time>2016-03-20T10:04:53.000Z</time>
      </trkpt>
      <trkpt lat="47.55132" lon="6.6617">
        <ele>511</ele>
        <time>2016-03-20T10:04:54.000Z</time>
      </trkpt>
      <trkpt lat="47.55129" lon="6.66168">
        <ele>511</ele>
        <time>2016-03-20T10:04:55.000Z</time>
      </trkpt>
      <trkpt lat="47.55127" lon="6.66166">
        <ele>504</ele>
        <time>2016-03-20T10:04:56.000Z</time>
      </trkpt>
      <trkpt lat="47.55124" lon="6.66163">
        <ele>504</ele>
        <time>2016-03-20T10:04:57.000Z</time>
      </trkpt>
      <trkpt lat="47.55121" lon="6.66159">
        <ele>504</ele>
        <time>2016-03-20T10:04:58.000Z</time>
      </trkpt>
      <trkpt lat="47.55117" lon="6.66157">
        <ele>504</ele>
        <time>2016-03-20T10:04:59.000Z</time>
      </trkpt>
      <trkpt lat="47.55109" lon="6.66154">
        <ele>505</ele>
        <time>2016-03-20T10:05:00.000Z</time>
      </trkpt>
      <trkpt lat="47.55104" lon="6.66151">
        <ele>505</ele>
        <time>2016-03-20T10:05:01.000Z</time>
      </trkpt>
      <trkpt lat="47.551" lon="6.66151">
        <ele>506</ele>
        <time>2016-03-20T10:05:02.000Z</time>
      </trkpt>
      <trkpt lat="47.55093" lon="6.66147">
        <ele>506</ele>
        <time>2016-03-20T10:05:03.000Z</time>
      </trkpt>
      <trkpt lat="47.55089" lon="6.66144">
        <ele>506</ele>
        <time>2016-03-20T10:05:04.000Z</time>
      </trkpt>
      <trkpt lat="47.55083" lon="6.66141">
        <ele>506</ele>
        <time>2016-03-20T10:05:05.000Z</time>
      </trkpt>
      <trkpt lat="47.5508" lon="6.66138">
        <ele>510</ele>
        <time>2016-03-20T10:05:06.000Z</time>
      </trkpt>
      <trkpt lat="47.55077" lon="6.66134">
        <ele>509</ele>
        <time>2016-03-20T10:05:07.000Z</time>
      </trkpt>
      <trkpt lat="47.55071" lon="6.66132">
        <ele>509</ele>
        <time>2016-03-20T10:05:08.000Z</time>
      </trkpt>
      <trkpt lat="47.55063" lon="6.66133">
        <ele>509</ele>
        <time>2016-03-20T10:05:09.000Z</time>
      </trkpt>
      <trkpt lat="47.55056" lon="6.66132">
        <ele>509</ele>
        <time>2016-03-20T10:05:10.000Z</time>
      </trkpt>
      <trkpt lat="47.55051" lon="6.66136">
        <ele>510</ele>
        <time>2016-03-20T10:05:11.000Z</time>
      </trkpt>
      <trkpt lat="47.55048" lon="6.66135">
        <ele>510</ele>
        <time>2016-03-20T10:05:12.000Z</time>
      </trkpt>
      <trkpt lat="47.55044" lon="6.66136">
        <ele>510</ele>
        <time>2016-03-20T10:05:13.000Z</time>
      </trkpt>
      <trkpt lat="47.55041" lon="6.66137">
        <ele>510</ele>
        <time>2016-03-20T10:05:14.000Z</time>
      </trkpt>
      <trkpt lat="47.55036" lon="6.66138">
        <ele>510</ele>
        <time>2016-03-20T10:05:15.000Z</time>
      </trkpt>
      <trkpt lat="47.55033" lon="6.66135">
        <ele>510</ele>
        <time>2016-03-20T10:05:16.000Z</time>
      </trkpt>
      <trkpt lat="47.55032" lon="6.66132">
        <ele>510</ele>
        <time>2016-03-20T10:05:17.000Z</time>
      </trkpt>
      <trkpt lat="47.55029" lon="6.66129">
        <ele>510</ele>
        <time>2016-03-20T10:05:18.000Z</time>
      </trkpt>
      <trkpt lat="47.55027" lon="6.66126">
        <ele>510</ele>
        <time>2016-03-20T10:05:19.000Z</time>
      </trkpt>
      <trkpt lat="47.55025" lon="6.66124">
        <ele>510</ele>
        <time>2016-03-20T10:05:20.000Z</time>
      </trkpt>
      <trkpt lat="47.55024" lon="6.66121">
        <ele>509</ele>
        <time>2016-03-20T10:05:21.000Z</time>
      </trkpt>
      <trkpt lat="47.55022" lon="6.66119">
        <ele>509</ele>
        <time>2016-03-20T10:05:22.000Z</time>
      </trkpt>
      <trkpt lat="47.5502" lon="6.66116">
        <ele>509</ele>
        <time>2016-03-20T10:05:23.000Z</time>
      </trkpt>
      <trkpt lat="47.55018" lon="6.66113">
        <ele>509</ele>
        <time>2016-03-20T10:05:24.000Z</time>
      </trkpt>
      <trkpt lat="47.55016" lon="6.6611">
        <ele>509</ele>
        <time>2016-03-20T10:05:25.000Z</time>
      </trkpt>
      <trkpt lat="47.55002" lon="6.66094">
        <ele>508</ele>
        <time>2016-03-20T10:05:26.000Z</time>
      </trkpt>
      <trkpt lat="47.54998" lon="6.6609">
        <ele>509</ele>
        <time>2016-03-20T10:05:27.000Z</time>
      </trkpt>
      <trkpt lat="47.54996" lon="6.66087">
        <ele>509</ele>
        <time>2016-03-20T10:05:28.000Z</time>
      </trkpt>
      <trkpt lat="47.54994" lon="6.66084">
        <ele>509</ele>
        <time>2016-03-20T10:05:29.000Z</time>
      </trkpt>
      <trkpt lat="47.5499" lon="6.66081">
        <ele>508</ele>
        <time>2016-03-20T10:05:30.000Z</time>
      </trkpt>
      <trkpt lat="47.54988" lon="6.66077">
        <ele>507</ele>
        <time>2016-03-20T10:05:31.000Z</time>
      </trkpt>
      <trkpt lat="47.54985" lon="6.66073">
        <ele>507</ele>
        <time>2016-03-20T10:05:32.000Z</time>
      </trkpt>
      <trkpt lat="47.54982" lon="6.66068">
        <ele>507</ele>
        <time>2016-03-20T10:05:33.000Z</time>
      </trkpt>
      <trkpt lat="47.54979" lon="6.66064">
        <ele>507</ele>
        <time>2016-03-20T10:05:34.000Z</time>
      </trkpt>
      <trkpt lat="47.54977" lon="6.66061">
        <ele>507</ele>
        <time>2016-03-20T10:05:35.000Z</time>
      </trkpt>
      <trkpt lat="47.54975" lon="6.66057">
        <ele>507</ele>
        <time>2016-03-20T10:05:36.000Z</time>
      </trkpt>
      <trkpt lat="47.54973" lon="6.66055">
        <ele>507</ele>
        <time>2016-03-20T10:05:37.000Z</time>
      </trkpt>
      <trkpt lat="47.54971" lon="6.66052">
        <ele>507</ele>
        <time>2016-03-20T10:05:38.000Z</time>
      </trkpt>
      <trkpt lat="47.54969" lon="6.66049">
        <ele>507</ele>
        <time>2016-03-20T10:05:39.000Z</time>
      </trkpt>
      <trkpt lat="47.54967" lon="6.66046">
        <ele>506</ele>
        <time>2016-03-20T10:05:40.000Z</time>
      </trkpt>
      <trkpt lat="47.54965" lon="6.66043">
        <ele>506</ele>
        <time>2016-03-20T10:05:41.000Z</time>
      </trkpt>
      <trkpt lat="47.54962" lon="6.66039">
        <ele>506</ele>
        <time>2016-03-20T10:05:42.000Z</time>
      </trkpt>
      <trkpt lat="47.54959" lon="6.66035">
        <ele>506</ele>
        <time>2016-03-20T10:05:43.000Z</time>
      </trkpt>
      <trkpt lat="47.54954" lon="6.6603">
        <ele>506</ele>
        <time>2016-03-20T10:05:44.000Z</time>
      </trkpt>
      <trkpt lat="47.5495" lon="6.66027">
        <ele>506</ele>
        <time>2016-03-20T10:05:45.000Z</time>
      </trkpt>
      <trkpt lat="47.54945" lon="6.66022">
        <ele>506</ele>
        <time>2016-03-20T10:05:46.000Z</time>
      </trkpt>
      <trkpt lat="47.5494" lon="6.66018">
        <ele>506</ele>
        <time>2016-03-20T10:05:47.000Z</time>
      </trkpt>
      <trkpt lat="47.54916" lon="6.66006">
        <ele>507</ele>
        <time>2016-03-20T10:05:48.000Z</time>
      </trkpt>
      <trkpt lat="47.54911" lon="6.66003">
        <ele>507</ele>
        <time>2016-03-20T10:05:49.000Z</time>
      </trkpt>
      <trkpt lat="47.54899" lon="6.65997">
        <ele>506</ele>
        <time>2016-03-20T10:05:50.000Z</time>
      </trkpt>
      <trkpt lat="47.54893" lon="6.65993">
        <ele>506</ele>
        <time>2016-03-20T10:05:51.000Z</time>
      </trkpt>
      <trkpt lat="47.54888" lon="6.65989">
        <ele>507</ele>
        <time>2016-03-20T10:05:52.000Z</time>
      </trkpt>
      <trkpt lat="47.54882" lon="6.65986">
        <ele>507</ele>
        <time>2016-03-20T10:05:53.000Z</time>
      </trkpt>
      <trkpt lat="47.5488" lon="6.65984">
        <ele>507</ele>
        <time>2016-03-20T10:05:54.000Z</time>
      </trkpt>
      <trkpt lat="47.54877" lon="6.65981">
        <ele>507</ele>
        <time>2016-03-20T10:05:55.000Z</time>
      </trkpt>
      <trkpt lat="47.54875" lon="6.65978">
        <ele>507</ele>
        <time>2016-03-20T10:05:56.000Z</time>
      </trkpt>
      <trkpt lat="47.54868" lon="6.65975">
        <ele>507</ele>
        <time>2016-03-20T10:05:57.000Z</time>
      </trkpt>
      <trkpt lat="47.54864" lon="6.65972">
        <ele>507</ele>
        <time>2016-03-20T10:05:58.000Z</time>
      </trkpt>
      <trkpt lat="47.54859" lon="6.65968">
        <ele>507</ele>
        <time>2016-03-20T10:05:59.000Z</time>
      </trkpt>
      <trkpt lat="47.54853" lon="6.65964">
        <ele>507</ele>
        <time>2016-03-20T10:06:00.000Z</time>
      </trkpt>
      <trkpt lat="47.54846" lon="6.65961">
        <ele>507</ele>
        <time>2016-03-20T10:06:01.000Z</time>
      </trkpt>
      <trkpt lat="47.54839" lon="6.65957">
        <ele>507</ele>
        <time>2016-03-20T10:06:02.000Z</time>
      </trkpt>
      <trkpt lat="47.54832" lon="6.6595">
        <ele>509</ele>
        <time>2016-03-20T10:06:03.000Z</time>
      </trkpt>
      <trkpt lat="47.54825" lon="6.65945">
        <ele>509</ele>
        <time>2016-03-20T10:06:04.000Z</time>
      </trkpt>
      <trkpt lat="47.54817" lon="6.65944">
        <ele>509</ele>
        <time>2016-03-20T10:06:05.000Z</time>
      </trkpt>
      <trkpt lat="47.54811" lon="6.6594">
        <ele>509</ele>
        <time>2016-03-20T10:06:06.000Z</time>
      </trkpt>
      <trkpt lat="47.54798" lon="6.65937">
        <ele>509</ele>
        <time>2016-03-20T10:06:07.000Z</time>
      </trkpt>
      <trkpt lat="47.54793" lon="6.65927">
        <ele>509</ele>
        <time>2016-03-20T10:06:08.000Z</time>
      </trkpt>
      <trkpt lat="47.54788" lon="6.6592">
        <ele>509</ele>
        <time>2016-03-20T10:06:09.000Z</time>
      </trkpt>
      <trkpt lat="47.54782" lon="6.65916">
        <ele>505</ele>
        <time>2016-03-20T10:06:10.000Z</time>
      </trkpt>
      <trkpt lat="47.54776" lon="6.65913">
        <ele>506</ele>
        <time>2016-03-20T10:06:11.000Z</time>
      </trkpt>
      <trkpt lat="47.54763" lon="6.65913">
        <ele>507</ele>
        <time>2016-03-20T10:06:12.000Z</time>
      </trkpt>
      <trkpt lat="47.54753" lon="6.65913">
        <ele>508</ele>
        <time>2016-03-20T10:06:13.000Z</time>
      </trkpt>
      <trkpt lat="47.54747" lon="6.65912">
        <ele>509</ele>
        <time>2016-03-20T10:06:14.000Z</time>
      </trkpt>
      <trkpt lat="47.54743" lon="6.65911">
        <ele>509</ele>
        <time>2016-03-20T10:06:15.000Z</time>
      </trkpt>
      <trkpt lat="47.54737" lon="6.65918">
        <ele>511</ele>
        <time>2016-03-20T10:06:16.000Z</time>
      </trkpt>
      <trkpt lat="47.54733" lon="6.65916">
        <ele>509</ele>
        <time>2016-03-20T10:06:18.000Z</time>
      </trkpt>
      <trkpt lat="47.54728" lon="6.65914">
        <ele>509</ele>
        <time>2016-03-20T10:06:19.000Z</time>
      </trkpt>
      <trkpt lat="47.54723" lon="6.65911">
        <ele>509</ele>
        <time>2016-03-20T10:06:20.000Z</time>
      </trkpt>
      <trkpt lat="47.5472" lon="6.65908">
        <ele>509</ele>
        <time>2016-03-20T10:06:21.000Z</time>
      </trkpt>
      <trkpt lat="47.54714" lon="6.65905">
        <ele>509</ele>
        <time>2016-03-20T10:06:22.000Z</time>
      </trkpt>
      <trkpt lat="47.54709" lon="6.65897">
        <ele>509</ele>
        <time>2016-03-20T10:06:23.000Z</time>
      </trkpt>
      <trkpt lat="47.54703" lon="6.65898">
        <ele>509</ele>
        <time>2016-03-20T10:06:24.000Z</time>
      </trkpt>
      <trkpt lat="47.54698" lon="6.65897">
        <ele>509</ele>
        <time>2016-03-20T10:06:25.000Z</time>
      </trkpt>
      <trkpt lat="47.54695" lon="6.65894">
        <ele>509</ele>
        <time>2016-03-20T10:06:26.000Z</time>
      </trkpt>
      <trkpt lat="47.5469" lon="6.65892">
        <ele>510</ele>
        <time>2016-03-20T10:06:27.000Z</time>
      </trkpt>
      <trkpt lat="47.54685" lon="6.65892">
        <ele>510</ele>
        <time>2016-03-20T10:06:28.000Z</time>
      </trkpt>
      <trkpt lat="47.54681" lon="6.65889">
        <ele>510</ele>
        <time>2016-03-20T10:06:29.000Z</time>
      </trkpt>
      <trkpt lat="47.54672" lon="6.65884">
        <ele>510</ele>
        <time>2016-03-20T10:06:30.000Z</time>
      </trkpt>
      <trkpt lat="47.54668" lon="6.65882">
        <ele>510</ele>
        <time>2016-03-20T10:06:31.000Z</time>
      </trkpt>
      <trkpt lat="47.54666" lon="6.65879">
        <ele>511</ele>
        <time>2016-03-20T10:06:32.000Z</time>
      </trkpt>
      <trkpt lat="47.54662" lon="6.65875">
        <ele>511</ele>
        <time>2016-03-20T10:06:33.000Z</time>
      </trkpt>
      <trkpt lat="47.5466" lon="6.65873">
        <ele>511</ele>
        <time>2016-03-20T10:06:34.000Z</time>
      </trkpt>
      <trkpt lat="47.54657" lon="6.6587">
        <ele>511</ele>
        <time>2016-03-20T10:06:35.000Z</time>
      </trkpt>
      <trkpt lat="47.54648" lon="6.6586">
        <ele>510</ele>
        <time>2016-03-20T10:06:36.000Z</time>
      </trkpt>
      <trkpt lat="47.54644" lon="6.65858">
        <ele>510</ele>
        <time>2016-03-20T10:06:37.000Z</time>
      </trkpt>
      <trkpt lat="47.54641" lon="6.65856">
        <ele>510</ele>
        <time>2016-03-20T10:06:38.000Z</time>
      </trkpt>
      <trkpt lat="47.54638" lon="6.65855">
        <ele>510</ele>
        <time>2016-03-20T10:06:39.000Z</time>
      </trkpt>
      <trkpt lat="47.54636" lon="6.65854">
        <ele>510</ele>
        <time>2016-03-20T10:06:40.000Z</time>
      </trkpt>
      <trkpt lat="47.54633" lon="6.65853">
        <ele>510</ele>
        <time>2016-03-20T10:06:41.000Z</time>
      </trkpt>
      <trkpt lat="47.54629" lon="6.65852">
        <ele>510</ele>
        <time>2016-03-20T10:06:42.000Z</time>
      </trkpt>
      <trkpt lat="47.54623" lon="6.65853">
        <ele>510</ele>
        <time>2016-03-20T10:06:43.000Z</time>
      </trkpt>
      <trkpt lat="47.54621" lon="6.65854">
        <ele>510</ele>
        <time>2016-03-20T10:06:44.000Z</time>
      </trkpt>
      <trkpt lat="47.54616" lon="6.65847">
        <ele>510</ele>
        <time>2016-03-20T10:06:45.000Z</time>
      </trkpt>
      <trkpt lat="47.54611" lon="6.65844">
        <ele>510</ele>
        <time>2016-03-20T10:06:46.000Z</time>
      </trkpt>
      <trkpt lat="47.54607" lon="6.65838">
        <ele>510</ele>
        <time>2016-03-20T10:06:47.000Z</time>
      </trkpt>
      <trkpt lat="47.54605" lon="6.65836">
        <ele>510</ele>
        <time>2016-03-20T10:06:48.000Z</time>
      </trkpt>
      <trkpt lat="47.54602" lon="6.65832">
        <ele>508</ele>
        <time>2016-03-20T10:06:49.000Z</time>
      </trkpt>
      <trkpt lat="47.546" lon="6.65828">
        <ele>508</ele>
        <time>2016-03-20T10:06:50.000Z</time>
      </trkpt>
      <trkpt lat="47.54597" lon="6.65824">
        <ele>508</ele>
        <time>2016-03-20T10:06:51.000Z</time>
      </trkpt>
      <trkpt lat="47.54595" lon="6.65819">
        <ele>508</ele>
        <time>2016-03-20T10:06:52.000Z</time>
      </trkpt>
      <trkpt lat="47.5459" lon="6.65814">
        <ele>507</ele>
        <time>2016-03-20T10:06:53.000Z</time>
      </trkpt>
      <trkpt lat="47.5458" lon="6.65806">
        <ele>509</ele>
        <time>2016-03-20T10:06:54.000Z</time>
      </trkpt>
      <trkpt lat="47.54573" lon="6.65801">
        <ele>509</ele>
        <time>2016-03-20T10:06:55.000Z</time>
      </trkpt>
      <trkpt lat="47.54569" lon="6.65799">
        <ele>509</ele>
        <time>2016-03-20T10:06:56.000Z</time>
      </trkpt>
      <trkpt lat="47.54567" lon="6.65795">
        <ele>509</ele>
        <time>2016-03-20T10:06:57.000Z</time>
      </trkpt>
      <trkpt lat="47.54565" lon="6.65791">
        <ele>509</ele>
        <time>2016-03-20T10:06:59.000Z</time>
      </trkpt>
      <trkpt lat="47.54562" lon="6.65789">
        <ele>509</ele>
        <time>2016-03-20T10:07:00.000Z</time>
      </trkpt>
      <trkpt lat="47.54561" lon="6.65784">
        <ele>509</ele>
        <time>2016-03-20T10:07:01.000Z</time>
      </trkpt>
      <trkpt lat="47.54557" lon="6.65779">
        <ele>509</ele>
        <time>2016-03-20T10:07:02.000Z</time>
      </trkpt>
      <trkpt lat="47.54553" lon="6.65773">
        <ele>509</ele>
        <time>2016-03-20T10:07:03.000Z</time>
      </trkpt>
      <trkpt lat="47.5455" lon="6.65769">
        <ele>509</ele>
        <time>2016-03-20T10:07:04.000Z</time>
      </trkpt>
      <trkpt lat="47.54547" lon="6.65764">
        <ele>509</ele>
        <time>2016-03-20T10:07:05.000Z</time>
      </trkpt>
      <trkpt lat="47.54544" lon="6.65759">
        <ele>509</ele>
        <time>2016-03-20T10:07:06.000Z</time>
      </trkpt>
      <trkpt lat="47.54542" lon="6.65755">
        <ele>509</ele>
        <time>2016-03-20T10:07:07.000Z</time>
      </trkpt>
      <trkpt lat="47.54539" lon="6.65751">
        <ele>509</ele>
        <time>2016-03-20T10:07:08.000Z</time>
      </trkpt>
      <trkpt lat="47.54536" lon="6.65747">
        <ele>506</ele>
        <time>2016-03-20T10:07:09.000Z</time>
      </trkpt>
      <trkpt lat="47.54532" lon="6.65743">
        <ele>506</ele>
        <time>2016-03-20T10:07:10.000Z</time>
      </trkpt>
      <trkpt lat="47.54528" lon="6.65739">
        <ele>506</ele>
        <time>2016-03-20T10:07:11.000Z</time>
      </trkpt>
      <trkpt lat="47.54524" lon="6.65735">
        <ele>506</ele>
        <time>2016-03-20T10:07:12.000Z</time>
      </trkpt>
      <trkpt lat="47.5452" lon="6.65731">
        <ele>506</ele>
        <time>2016-03-20T10:07:13.000Z</time>
      </trkpt>
      <trkpt lat="47.54515" lon="6.65727">
        <ele>506</ele>
        <time>2016-03-20T10:07:14.000Z</time>
      </trkpt>
      <trkpt lat="47.54511" lon="6.65722">
        <ele>506</ele>
        <time>2016-03-20T10:07:15.000Z</time>
      </trkpt>
      <trkpt lat="47.54506" lon="6.65718">
        <ele>506</ele>
        <time>2016-03-20T10:07:16.000Z</time>
      </trkpt>
      <trkpt lat="47.54501" lon="6.65714">
        <ele>506</ele>
        <time>2016-03-20T10:07:17.000Z</time>
      </trkpt>
      <trkpt lat="47.54497" lon="6.6571">
        <ele>510</ele>
        <time>2016-03-20T10:07:18.000Z</time>
      </trkpt>
      <trkpt lat="47.54493" lon="6.65707">
        <ele>509</ele>
        <time>2016-03-20T10:07:19.000Z</time>
      </trkpt>
      <trkpt lat="47.54489" lon="6.65703">
        <ele>509</ele>
        <time>2016-03-20T10:07:20.000Z</time>
      </trkpt>
      <trkpt lat="47.54485" lon="6.657">
        <ele>509</ele>
        <time>2016-03-20T10:07:21.000Z</time>
      </trkpt>
      <trkpt lat="47.54482" lon="6.65698">
        <ele>509</ele>
        <time>2016-03-20T10:07:22.000Z</time>
      </trkpt>
      <trkpt lat="47.54478" lon="6.65696">
        <ele>509</ele>
        <time>2016-03-20T10:07:24.000Z</time>
      </trkpt>
      <trkpt lat="47.54476" lon="6.65696">
        <ele>509</ele>
        <time>2016-03-20T10:07:25.000Z</time>
      </trkpt>
      <trkpt lat="47.54473" lon="6.65697">
        <ele>509</ele>
        <time>2016-03-20T10:07:26.000Z</time>
      </trkpt>
      <trkpt lat="47.54472" lon="6.65697">
        <ele>509</ele>
        <time>2016-03-20T10:07:27.000Z</time>
      </trkpt>
      <trkpt lat="47.54467" lon="6.65696">
        <ele>510</ele>
        <time>2016-03-20T10:07:31.000Z</time>
      </trkpt>
      <trkpt lat="47.54466" lon="6.65696">
        <ele>510</ele>
        <time>2016-03-20T10:07:32.000Z</time>
      </trkpt>
      <trkpt lat="47.54462" lon="6.65696">
        <ele>510</ele>
        <time>2016-03-20T10:07:36.000Z</time>
      </trkpt>
      <trkpt lat="47.54461" lon="6.65697">
        <ele>510</ele>
        <time>2016-03-20T10:07:37.000Z</time>
      </trkpt>
      <trkpt lat="47.54458" lon="6.65694">
        <ele>510</ele>
        <time>2016-03-20T10:07:45.000Z</time>
      </trkpt>
      <trkpt lat="47.54458" lon="6.65692">
        <ele>510</ele>
        <time>2016-03-20T10:07:46.000Z</time>
      </trkpt>
      <trkpt lat="47.54455" lon="6.65687">
        <ele>510</ele>
        <time>2016-03-20T10:07:48.000Z</time>
      </trkpt>
      <trkpt lat="47.54453" lon="6.65683">
        <ele>510</ele>
        <time>2016-03-20T10:07:49.000Z</time>
      </trkpt>
      <trkpt lat="47.5445" lon="6.65679">
        <ele>510</ele>
        <time>2016-03-20T10:07:50.000Z</time>
      </trkpt>
      <trkpt lat="47.54446" lon="6.65676">
        <ele>510</ele>
        <time>2016-03-20T10:07:51.000Z</time>
      </trkpt>
      <trkpt lat="47.54443" lon="6.65673">
        <ele>510</ele>
        <time>2016-03-20T10:07:52.000Z</time>
      </trkpt>
      <trkpt lat="47.5444" lon="6.6567">
        <ele>510</ele>
        <time>2016-03-20T10:07:53.000Z</time>
      </trkpt>
      <trkpt lat="47.54437" lon="6.65667">
        <ele>510</ele>
        <time>2016-03-20T10:07:54.000Z</time>
      </trkpt>
      <trkpt lat="47.54434" lon="6.65663">
        <ele>508</ele>
        <time>2016-03-20T10:07:55.000Z</time>
      </trkpt>
      <trkpt lat="47.54431" lon="6.65658">
        <ele>508</ele>
        <time>2016-03-20T10:07:56.000Z</time>
      </trkpt>
      <trkpt lat="47.54428" lon="6.65652">
        <ele>508</ele>
        <time>2016-03-20T10:07:57.000Z</time>
      </trkpt>
      <trkpt lat="47.54418" lon="6.65639">
        <ele>507</ele>
        <time>2016-03-20T10:07:58.000Z</time>
      </trkpt>
      <trkpt lat="47.54412" lon="6.65633">
        <ele>509</ele>
        <time>2016-03-20T10:07:59.000Z</time>
      </trkpt>
      <trkpt lat="47.54407" lon="6.65626">
        <ele>509</ele>
        <time>2016-03-20T10:08:00.000Z</time>
      </trkpt>
      <trkpt lat="47.54402" lon="6.65618">
        <ele>509</ele>
        <time>2016-03-20T10:08:01.000Z</time>
      </trkpt>
      <trkpt lat="47.54395" lon="6.65612">
        <ele>509</ele>
        <time>2016-03-20T10:08:02.000Z</time>
      </trkpt>
      <trkpt lat="47.54388" lon="6.65607">
        <ele>509</ele>
        <time>2016-03-20T10:08:03.000Z</time>
      </trkpt>
      <trkpt lat="47.54383" lon="6.65602">
        <ele>508</ele>
        <time>2016-03-20T10:08:04.000Z</time>
      </trkpt>
      <trkpt lat="47.54376" lon="6.65594">
        <ele>508</ele>
        <time>2016-03-20T10:08:05.000Z</time>
      </trkpt>
      <trkpt lat="47.54368" lon="6.65584">
        <ele>508</ele>
        <time>2016-03-20T10:08:06.000Z</time>
      </trkpt>
      <trkpt lat="47.54362" lon="6.65577">
        <ele>504</ele>
        <time>2016-03-20T10:08:07.000Z</time>
      </trkpt>
      <trkpt lat="47.54356" lon="6.6557">
        <ele>504</ele>
        <time>2016-03-20T10:08:08.000Z</time>
      </trkpt>
      <trkpt lat="47.54346" lon="6.65562">
        <ele>504</ele>
        <time>2016-03-20T10:08:09.000Z</time>
      </trkpt>
      <trkpt lat="47.54342" lon="6.65557">
        <ele>504</ele>
        <time>2016-03-20T10:08:10.000Z</time>
      </trkpt>
      <trkpt lat="47.54338" lon="6.65552">
        <ele>504</ele>
        <time>2016-03-20T10:08:11.000Z</time>
      </trkpt>
      <trkpt lat="47.54337" lon="6.65548">
        <ele>504</ele>
        <time>2016-03-20T10:08:12.000Z</time>
      </trkpt>
      <trkpt lat="47.5433" lon="6.65539">
        <ele>504</ele>
        <time>2016-03-20T10:08:13.000Z</time>
      </trkpt>
      <trkpt lat="47.54326" lon="6.65534">
        <ele>504</ele>
        <time>2016-03-20T10:08:14.000Z</time>
      </trkpt>
      <trkpt lat="47.54322" lon="6.6553">
        <ele>504</ele>
        <time>2016-03-20T10:08:15.000Z</time>
      </trkpt>
      <trkpt lat="47.54318" lon="6.65525">
        <ele>504</ele>
        <time>2016-03-20T10:08:16.000Z</time>
      </trkpt>
      <trkpt lat="47.54313" lon="6.65518">
        <ele>504</ele>
        <time>2016-03-20T10:08:17.000Z</time>
      </trkpt>
      <trkpt lat="47.54308" lon="6.65512">
        <ele>504</ele>
        <time>2016-03-20T10:08:18.000Z</time>
      </trkpt>
      <trkpt lat="47.54305" lon="6.65508">
        <ele>504</ele>
        <time>2016-03-20T10:08:19.000Z</time>
      </trkpt>
      <trkpt lat="47.54301" lon="6.65504">
        <ele>504</ele>
        <time>2016-03-20T10:08:20.000Z</time>
      </trkpt>
      <trkpt lat="47.54298" lon="6.655">
        <ele>500</ele>
        <time>2016-03-20T10:08:21.000Z</time>
      </trkpt>
      <trkpt lat="47.54295" lon="6.65496">
        <ele>500</ele>
        <time>2016-03-20T10:08:22.000Z</time>
      </trkpt>
      <trkpt lat="47.54292" lon="6.65492">
        <ele>500</ele>
        <time>2016-03-20T10:08:23.000Z</time>
      </trkpt>
      <trkpt lat="47.54289" lon="6.65488">
        <ele>500</ele>
        <time>2016-03-20T10:08:24.000Z</time>
      </trkpt>
      <trkpt lat="47.54285" lon="6.65484">
        <ele>500</ele>
        <time>2016-03-20T10:08:25.000Z</time>
      </trkpt>
      <trkpt lat="47.54281" lon="6.65479">
        <ele>500</ele>
        <time>2016-03-20T10:08:26.000Z</time>
      </trkpt>
      <trkpt lat="47.54276" lon="6.65474">
        <ele>500</ele>
        <time>2016-03-20T10:08:27.000Z</time>
      </trkpt>
      <trkpt lat="47.54271" lon="6.65471">
        <ele>500</ele>
        <time>2016-03-20T10:08:28.000Z</time>
      </trkpt>
      <trkpt lat="47.54266" lon="6.65467">
        <ele>499</ele>
        <time>2016-03-20T10:08:29.000Z</time>
      </trkpt>
      <trkpt lat="47.54262" lon="6.65464">
        <ele>499</ele>
        <time>2016-03-20T10:08:30.000Z</time>
      </trkpt>
      <trkpt lat="47.54258" lon="6.6546">
        <ele>499</ele>
        <time>2016-03-20T10:08:31.000Z</time>
      </trkpt>
      <trkpt lat="47.54256" lon="6.65456">
        <ele>499</ele>
        <time>2016-03-20T10:08:32.000Z</time>
      </trkpt>
      <trkpt lat="47.54253" lon="6.65452">
        <ele>499</ele>
        <time>2016-03-20T10:08:33.000Z</time>
      </trkpt>
      <trkpt lat="47.54251" lon="6.65448">
        <ele>498</ele>
        <time>2016-03-20T10:08:34.000Z</time>
      </trkpt>
      <trkpt lat="47.54249" lon="6.65444">
        <ele>500</ele>
        <time>2016-03-20T10:08:35.000Z</time>
      </trkpt>
      <trkpt lat="47.54247" lon="6.6544">
        <ele>499</ele>
        <time>2016-03-20T10:08:36.000Z</time>
      </trkpt>
      <trkpt lat="47.54244" lon="6.65435">
        <ele>499</ele>
        <time>2016-03-20T10:08:37.000Z</time>
      </trkpt>
      <trkpt lat="47.5422" lon="6.65419">
        <ele>499</ele>
        <time>2016-03-20T10:08:38.000Z</time>
      </trkpt>
      <trkpt lat="47.54211" lon="6.65413">
        <ele>495</ele>
        <time>2016-03-20T10:08:39.000Z</time>
      </trkpt>
      <trkpt lat="47.54205" lon="6.65406">
        <ele>495</ele>
        <time>2016-03-20T10:08:40.000Z</time>
      </trkpt>
      <trkpt lat="47.54204" lon="6.654">
        <ele>495</ele>
        <time>2016-03-20T10:08:41.000Z</time>
      </trkpt>
      <trkpt lat="47.542" lon="6.65394">
        <ele>495</ele>
        <time>2016-03-20T10:08:42.000Z</time>
      </trkpt>
      <trkpt lat="47.54198" lon="6.65389">
        <ele>495</ele>
        <time>2016-03-20T10:08:43.000Z</time>
      </trkpt>
      <trkpt lat="47.54196" lon="6.65382">
        <ele>495</ele>
        <time>2016-03-20T10:08:44.000Z</time>
      </trkpt>
      <trkpt lat="47.54193" lon="6.65377">
        <ele>495</ele>
        <time>2016-03-20T10:08:45.000Z</time>
      </trkpt>
      <trkpt lat="47.54189" lon="6.6537">
        <ele>494</ele>
        <time>2016-03-20T10:08:46.000Z</time>
      </trkpt>
      <trkpt lat="47.54187" lon="6.65365">
        <ele>494</ele>
        <time>2016-03-20T10:08:47.000Z</time>
      </trkpt>
      <trkpt lat="47.54185" lon="6.65358">
        <ele>494</ele>
        <time>2016-03-20T10:08:48.000Z</time>
      </trkpt>
      <trkpt lat="47.54181" lon="6.65353">
        <ele>494</ele>
        <time>2016-03-20T10:08:49.000Z</time>
      </trkpt>
      <trkpt lat="47.54178" lon="6.65347">
        <ele>494</ele>
        <time>2016-03-20T10:08:50.000Z</time>
      </trkpt>
      <trkpt lat="47.54176" lon="6.65341">
        <ele>493</ele>
        <time>2016-03-20T10:08:51.000Z</time>
      </trkpt>
      <trkpt lat="47.54172" lon="6.65336">
        <ele>493</ele>
        <time>2016-03-20T10:08:52.000Z</time>
      </trkpt>
      <trkpt lat="47.54167" lon="6.6533">
        <ele>492</ele>
        <time>2016-03-20T10:08:53.000Z</time>
      </trkpt>
      <trkpt lat="47.54162" lon="6.65325">
        <ele>492</ele>
        <time>2016-03-20T10:08:54.000Z</time>
      </trkpt>
      <trkpt lat="47.54158" lon="6.65319">
        <ele>491</ele>
        <time>2016-03-20T10:08:55.000Z</time>
      </trkpt>
      <trkpt lat="47.54143" lon="6.65309">
        <ele>490</ele>
        <time>2016-03-20T10:08:56.000Z</time>
      </trkpt>
      <trkpt lat="47.54137" lon="6.653">
        <ele>490</ele>
        <time>2016-03-20T10:08:57.000Z</time>
      </trkpt>
      <trkpt lat="47.5413" lon="6.65292">
        <ele>490</ele>
        <time>2016-03-20T10:08:58.000Z</time>
      </trkpt>
      <trkpt lat="47.54123" lon="6.65284">
        <ele>489</ele>
        <time>2016-03-20T10:08:59.000Z</time>
      </trkpt>
      <trkpt lat="47.54117" lon="6.65277">
        <ele>489</ele>
        <time>2016-03-20T10:09:00.000Z</time>
      </trkpt>
      <trkpt lat="47.54111" lon="6.65271">
        <ele>489</ele>
        <time>2016-03-20T10:09:01.000Z</time>
      </trkpt>
      <trkpt lat="47.54106" lon="6.65265">
        <ele>489</ele>
        <time>2016-03-20T10:09:02.000Z</time>
      </trkpt>
      <trkpt lat="47.54101" lon="6.65259">
        <ele>489</ele>
        <time>2016-03-20T10:09:03.000Z</time>
      </trkpt>
      <trkpt lat="47.54099" lon="6.65252">
        <ele>489</ele>
        <time>2016-03-20T10:09:04.000Z</time>
      </trkpt>
      <trkpt lat="47.54093" lon="6.65243">
        <ele>485</ele>
        <time>2016-03-20T10:09:05.000Z</time>
      </trkpt>
      <trkpt lat="47.54087" lon="6.65236">
        <ele>484</ele>
        <time>2016-03-20T10:09:06.000Z</time>
      </trkpt>
      <trkpt lat="47.54082" lon="6.65228">
        <ele>486</ele>
        <time>2016-03-20T10:09:07.000Z</time>
      </trkpt>
      <trkpt lat="47.54077" lon="6.6522">
        <ele>485</ele>
        <time>2016-03-20T10:09:08.000Z</time>
      </trkpt>
      <trkpt lat="47.54074" lon="6.65214">
        <ele>485</ele>
        <time>2016-03-20T10:09:09.000Z</time>
      </trkpt>
      <trkpt lat="47.5407" lon="6.65207">
        <ele>484</ele>
        <time>2016-03-20T10:09:10.000Z</time>
      </trkpt>
      <trkpt lat="47.54065" lon="6.65199">
        <ele>484</ele>
        <time>2016-03-20T10:09:11.000Z</time>
      </trkpt>
      <trkpt lat="47.54061" lon="6.6519">
        <ele>483</ele>
        <time>2016-03-20T10:09:12.000Z</time>
      </trkpt>
      <trkpt lat="47.54056" lon="6.65183">
        <ele>483</ele>
        <time>2016-03-20T10:09:13.000Z</time>
      </trkpt>
      <trkpt lat="47.5405" lon="6.65175">
        <ele>483</ele>
        <time>2016-03-20T10:09:14.000Z</time>
      </trkpt>
      <trkpt lat="47.54046" lon="6.65168">
        <ele>483</ele>
        <time>2016-03-20T10:09:15.000Z</time>
      </trkpt>
      <trkpt lat="47.54042" lon="6.65162">
        <ele>477</ele>
        <time>2016-03-20T10:09:16.000Z</time>
      </trkpt>
      <trkpt lat="47.54037" lon="6.65155">
        <ele>477</ele>
        <time>2016-03-20T10:09:17.000Z</time>
      </trkpt>
      <trkpt lat="47.54031" lon="6.65148">
        <ele>477</ele>
        <time>2016-03-20T10:09:18.000Z</time>
      </trkpt>
      <trkpt lat="47.54026" lon="6.65143">
        <ele>477</ele>
        <time>2016-03-20T10:09:19.000Z</time>
      </trkpt>
      <trkpt lat="47.54023" lon="6.65137">
        <ele>477</ele>
        <time>2016-03-20T10:09:20.000Z</time>
      </trkpt>
      <trkpt lat="47.54018" lon="6.65132">
        <ele>477</ele>
        <time>2016-03-20T10:09:21.000Z</time>
      </trkpt>
      <trkpt lat="47.54015" lon="6.65127">
        <ele>477</ele>
        <time>2016-03-20T10:09:22.000Z</time>
      </trkpt>
      <trkpt lat="47.54014" lon="6.65124">
        <ele>477</ele>
        <time>2016-03-20T10:09:23.000Z</time>
      </trkpt>
      <trkpt lat="47.54013" lon="6.65119">
        <ele>477</ele>
        <time>2016-03-20T10:09:25.000Z</time>
      </trkpt>
      <trkpt lat="47.54007" lon="6.65114">
        <ele>477</ele>
        <time>2016-03-20T10:09:26.000Z</time>
      </trkpt>
      <trkpt lat="47.54003" lon="6.6511">
        <ele>477</ele>
        <time>2016-03-20T10:09:27.000Z</time>
      </trkpt>
      <trkpt lat="47.53999" lon="6.6511">
        <ele>481</ele>
        <time>2016-03-20T10:09:28.000Z</time>
      </trkpt>
      <trkpt lat="47.53998" lon="6.65108">
        <ele>481</ele>
        <time>2016-03-20T10:09:29.000Z</time>
      </trkpt>
      <trkpt lat="47.53995" lon="6.65106">
        <ele>481</ele>
        <time>2016-03-20T10:09:30.000Z</time>
      </trkpt>
      <trkpt lat="47.53992" lon="6.65104">
        <ele>481</ele>
        <time>2016-03-20T10:09:31.000Z</time>
      </trkpt>
      <trkpt lat="47.53991" lon="6.65101">
        <ele>481</ele>
        <time>2016-03-20T10:09:32.000Z</time>
      </trkpt>
      <trkpt lat="47.53989" lon="6.65098">
        <ele>480</ele>
        <time>2016-03-20T10:09:33.000Z</time>
      </trkpt>
      <trkpt lat="47.53983" lon="6.65096">
        <ele>481</ele>
        <time>2016-03-20T10:09:34.000Z</time>
      </trkpt>
      <trkpt lat="47.5398" lon="6.65092">
        <ele>481</ele>
        <time>2016-03-20T10:09:35.000Z</time>
      </trkpt>
      <trkpt lat="47.53977" lon="6.65089">
        <ele>481</ele>
        <time>2016-03-20T10:09:36.000Z</time>
      </trkpt>
      <trkpt lat="47.53971" lon="6.65086">
        <ele>482</ele>
        <time>2016-03-20T10:09:37.000Z</time>
      </trkpt>
      <trkpt lat="47.53966" lon="6.65084">
        <ele>482</ele>
        <time>2016-03-20T10:09:38.000Z</time>
      </trkpt>
      <trkpt lat="47.53963" lon="6.6508">
        <ele>477</ele>
        <time>2016-03-20T10:09:39.000Z</time>
      </trkpt>
      <trkpt lat="47.53961" lon="6.65077">
        <ele>477</ele>
        <time>2016-03-20T10:09:40.000Z</time>
      </trkpt>
      <trkpt lat="47.53957" lon="6.65075">
        <ele>477</ele>
        <time>2016-03-20T10:09:41.000Z</time>
      </trkpt>
      <trkpt lat="47.53954" lon="6.65073">
        <ele>477</ele>
        <time>2016-03-20T10:09:42.000Z</time>
      </trkpt>
      <trkpt lat="47.53951" lon="6.65071">
        <ele>477</ele>
        <time>2016-03-20T10:09:43.000Z</time>
      </trkpt>
      <trkpt lat="47.53949" lon="6.65071">
        <ele>477</ele>
        <time>2016-03-20T10:09:44.000Z</time>
      </trkpt>
      <trkpt lat="47.53946" lon="6.65069">
        <ele>478</ele>
        <time>2016-03-20T10:09:45.000Z</time>
      </trkpt>
      <trkpt lat="47.53943" lon="6.65068">
        <ele>478</ele>
        <time>2016-03-20T10:09:46.000Z</time>
      </trkpt>
      <trkpt lat="47.5394" lon="6.65065">
        <ele>478</ele>
        <time>2016-03-20T10:09:48.000Z</time>
      </trkpt>
      <trkpt lat="47.53938" lon="6.65063">
        <ele>478</ele>
        <time>2016-03-20T10:09:49.000Z</time>
      </trkpt>
      <trkpt lat="47.53935" lon="6.65058">
        <ele>477</ele>
        <time>2016-03-20T10:09:51.000Z</time>
      </trkpt>
      <trkpt lat="47.53933" lon="6.65055">
        <ele>477</ele>
        <time>2016-03-20T10:09:52.000Z</time>
      </trkpt>
      <trkpt lat="47.53931" lon="6.65052">
        <ele>477</ele>
        <time>2016-03-20T10:09:53.000Z</time>
      </trkpt>
      <trkpt lat="47.53928" lon="6.65049">
        <ele>477</ele>
        <time>2016-03-20T10:09:54.000Z</time>
      </trkpt>
      <trkpt lat="47.53926" lon="6.65045">
        <ele>477</ele>
        <time>2016-03-20T10:09:55.000Z</time>
      </trkpt>
      <trkpt lat="47.53923" lon="6.65042">
        <ele>476</ele>
        <time>2016-03-20T10:09:56.000Z</time>
      </trkpt>
      <trkpt lat="47.5392" lon="6.65039">
        <ele>476</ele>
        <time>2016-03-20T10:09:57.000Z</time>
      </trkpt>
      <trkpt lat="47.53919" lon="6.65035">
        <ele>476</ele>
        <time>2016-03-20T10:09:58.000Z</time>
      </trkpt>
      <trkpt lat="47.53918" lon="6.6503">
        <ele>475</ele>
        <time>2016-03-20T10:09:59.000Z</time>
      </trkpt>
      <trkpt lat="47.53918" lon="6.65026">
        <ele>475</ele>
        <time>2016-03-20T10:10:00.000Z</time>
      </trkpt>
      <trkpt lat="47.53917" lon="6.6502">
        <ele>475</ele>
        <time>2016-03-20T10:10:01.000Z</time>
      </trkpt>
      <trkpt lat="47.53912" lon="6.65009">
        <ele>477</ele>
        <time>2016-03-20T10:10:02.000Z</time>
      </trkpt>
      <trkpt lat="47.53908" lon="6.65004">
        <ele>477</ele>
        <time>2016-03-20T10:10:03.000Z</time>
      </trkpt>
      <trkpt lat="47.53904" lon="6.64999">
        <ele>473</ele>
        <time>2016-03-20T10:10:04.000Z</time>
      </trkpt>
      <trkpt lat="47.53898" lon="6.64998">
        <ele>473</ele>
        <time>2016-03-20T10:10:05.000Z</time>
      </trkpt>
      <trkpt lat="47.53894" lon="6.64995">
        <ele>473</ele>
        <time>2016-03-20T10:10:06.000Z</time>
      </trkpt>
      <trkpt lat="47.53893" lon="6.64994">
        <ele>473</ele>
        <time>2016-03-20T10:10:07.000Z</time>
      </trkpt>
      <trkpt lat="47.53889" lon="6.64992">
        <ele>473</ele>
        <time>2016-03-20T10:10:08.000Z</time>
      </trkpt>
      <trkpt lat="47.53884" lon="6.64988">
        <ele>473</ele>
        <time>2016-03-20T10:10:09.000Z</time>
      </trkpt>
      <trkpt lat="47.5388" lon="6.64983">
        <ele>473</ele>
        <time>2016-03-20T10:10:10.000Z</time>
      </trkpt>
      <trkpt lat="47.53874" lon="6.64978">
        <ele>473</ele>
        <time>2016-03-20T10:10:11.000Z</time>
      </trkpt>
      <trkpt lat="47.5387" lon="6.64975">
        <ele>473</ele>
        <time>2016-03-20T10:10:12.000Z</time>
      </trkpt>
      <trkpt lat="47.53867" lon="6.64971">
        <ele>472</ele>
        <time>2016-03-20T10:10:13.000Z</time>
      </trkpt>
      <trkpt lat="47.53864" lon="6.64967">
        <ele>472</ele>
        <time>2016-03-20T10:10:14.000Z</time>
      </trkpt>
      <trkpt lat="47.5386" lon="6.64965">
        <ele>472</ele>
        <time>2016-03-20T10:10:15.000Z</time>
      </trkpt>
      <trkpt lat="47.53857" lon="6.64963">
        <ele>472</ele>
        <time>2016-03-20T10:10:16.000Z</time>
      </trkpt>
      <trkpt lat="47.53856" lon="6.64963">
        <ele>472</ele>
        <time>2016-03-20T10:10:17.000Z</time>
      </trkpt>
      <trkpt lat="47.53851" lon="6.64962">
        <ele>472</ele>
        <time>2016-03-20T10:10:20.000Z</time>
      </trkpt>
      <trkpt lat="47.53851" lon="6.64962">
        <ele>472</ele>
        <time>2016-03-20T10:10:21.000Z</time>
      </trkpt>
      <trkpt lat="47.53848" lon="6.64957">
        <ele>472</ele>
        <time>2016-03-20T10:10:27.000Z</time>
      </trkpt>
      <trkpt lat="47.53847" lon="6.64956">
        <ele>472</ele>
        <time>2016-03-20T10:10:28.000Z</time>
      </trkpt>
      <trkpt lat="47.53844" lon="6.64952">
        <ele>472</ele>
        <time>2016-03-20T10:10:30.000Z</time>
      </trkpt>
      <trkpt lat="47.53843" lon="6.6495">
        <ele>472</ele>
        <time>2016-03-20T10:10:31.000Z</time>
      </trkpt>
      <trkpt lat="47.53841" lon="6.64948">
        <ele>471</ele>
        <time>2016-03-20T10:10:32.000Z</time>
      </trkpt>
      <trkpt lat="47.53838" lon="6.64946">
        <ele>471</ele>
        <time>2016-03-20T10:10:33.000Z</time>
      </trkpt>
      <trkpt lat="47.53836" lon="6.64943">
        <ele>471</ele>
        <time>2016-03-20T10:10:34.000Z</time>
      </trkpt>
      <trkpt lat="47.53833" lon="6.6494">
        <ele>473</ele>
        <time>2016-03-20T10:10:35.000Z</time>
      </trkpt>
      <trkpt lat="47.53829" lon="6.64936">
        <ele>472</ele>
        <time>2016-03-20T10:10:36.000Z</time>
      </trkpt>
      <trkpt lat="47.53825" lon="6.64931">
        <ele>472</ele>
        <time>2016-03-20T10:10:37.000Z</time>
      </trkpt>
      <trkpt lat="47.5382" lon="6.64927">
        <ele>472</ele>
        <time>2016-03-20T10:10:38.000Z</time>
      </trkpt>
      <trkpt lat="47.53815" lon="6.64924">
        <ele>472</ele>
        <time>2016-03-20T10:10:39.000Z</time>
      </trkpt>
      <trkpt lat="47.53811" lon="6.64922">
        <ele>472</ele>
        <time>2016-03-20T10:10:40.000Z</time>
      </trkpt>
      <trkpt lat="47.53807" lon="6.64921">
        <ele>472</ele>
        <time>2016-03-20T10:10:41.000Z</time>
      </trkpt>
      <trkpt lat="47.53804" lon="6.6492">
        <ele>473</ele>
        <time>2016-03-20T10:10:42.000Z</time>
      </trkpt>
      <trkpt lat="47.538" lon="6.64919">
        <ele>473</ele>
        <time>2016-03-20T10:10:43.000Z</time>
      </trkpt>
      <trkpt lat="47.53797" lon="6.64916">
        <ele>466</ele>
        <time>2016-03-20T10:10:44.000Z</time>
      </trkpt>
      <trkpt lat="47.53791" lon="6.64914">
        <ele>466</ele>
        <time>2016-03-20T10:10:45.000Z</time>
      </trkpt>
      <trkpt lat="47.53786" lon="6.64912">
        <ele>466</ele>
        <time>2016-03-20T10:10:46.000Z</time>
      </trkpt>
      <trkpt lat="47.53782" lon="6.6491">
        <ele>466</ele>
        <time>2016-03-20T10:10:47.000Z</time>
      </trkpt>
      <trkpt lat="47.53778" lon="6.64908">
        <ele>466</ele>
        <time>2016-03-20T10:10:48.000Z</time>
      </trkpt>
      <trkpt lat="47.53775" lon="6.64909">
        <ele>466</ele>
        <time>2016-03-20T10:10:49.000Z</time>
      </trkpt>
      <trkpt lat="47.53773" lon="6.64912">
        <ele>467</ele>
        <time>2016-03-20T10:10:50.000Z</time>
      </trkpt>
      <trkpt lat="47.53769" lon="6.6492">
        <ele>473</ele>
        <time>2016-03-20T10:10:51.000Z</time>
      </trkpt>
      <trkpt lat="47.53767" lon="6.64925">
        <ele>473</ele>
        <time>2016-03-20T10:10:53.000Z</time>
      </trkpt>
      <trkpt lat="47.53766" lon="6.64927">
        <ele>473</ele>
        <time>2016-03-20T10:10:54.000Z</time>
      </trkpt>
      <trkpt lat="47.53763" lon="6.64931">
        <ele>473</ele>
        <time>2016-03-20T10:10:56.000Z</time>
      </trkpt>
      <trkpt lat="47.5376" lon="6.64935">
        <ele>473</ele>
        <time>2016-03-20T10:10:57.000Z</time>
      </trkpt>
      <trkpt lat="47.53756" lon="6.64939">
        <ele>473</ele>
        <time>2016-03-20T10:10:59.000Z</time>
      </trkpt>
      <trkpt lat="47.53755" lon="6.6494">
        <ele>473</ele>
        <time>2016-03-20T10:11:00.000Z</time>
      </trkpt>
      <trkpt lat="47.53754" lon="6.64946">
        <ele>474</ele>
        <time>2016-03-20T10:11:19.000Z</time>
      </trkpt>
      <trkpt lat="47.53754" lon="6.64946">
        <ele>474</ele>
        <time>2016-03-20T10:11:20.000Z</time>
      </trkpt>
      <trkpt lat="47.53754" lon="6.64952">
        <ele>474</ele>
        <time>2016-03-20T10:11:42.000Z</time>
      </trkpt>
      <trkpt lat="47.53755" lon="6.64954">
        <ele>474</ele>
        <time>2016-03-20T10:11:43.000Z</time>
      </trkpt>
      <trkpt lat="47.53756" lon="6.64959">
        <ele>475</ele>
        <time>2016-03-20T10:11:46.000Z</time>
      </trkpt>
      <trkpt lat="47.53757" lon="6.64962">
        <ele>475</ele>
        <time>2016-03-20T10:11:47.000Z</time>
      </trkpt>
      <trkpt lat="47.53759" lon="6.64966">
        <ele>475</ele>
        <time>2016-03-20T10:11:49.000Z</time>
      </trkpt>
      <trkpt lat="47.53761" lon="6.64968">
        <ele>475</ele>
        <time>2016-03-20T10:11:50.000Z</time>
      </trkpt>
      <trkpt lat="47.53763" lon="6.64971">
        <ele>475</ele>
        <time>2016-03-20T10:11:52.000Z</time>
      </trkpt>
      <trkpt lat="47.53764" lon="6.64973">
        <ele>475</ele>
        <time>2016-03-20T10:11:53.000Z</time>
      </trkpt>
      <trkpt lat="47.53764" lon="6.64979">
        <ele>476</ele>
        <time>2016-03-20T10:11:57.000Z</time>
      </trkpt>
      <trkpt lat="47.53765" lon="6.64981">
        <ele>476</ele>
        <time>2016-03-20T10:11:58.000Z</time>
      </trkpt>
      <trkpt lat="47.53767" lon="6.64986">
        <ele>476</ele>
        <time>2016-03-20T10:12:00.000Z</time>
      </trkpt>
      <trkpt lat="47.53769" lon="6.64988">
        <ele>476</ele>
        <time>2016-03-20T10:12:01.000Z</time>
      </trkpt>
      <trkpt lat="47.53772" lon="6.64984">
        <ele>476</ele>
        <time>2016-03-20T10:12:23.000Z</time>
      </trkpt>
      <trkpt lat="47.53772" lon="6.64982">
        <ele>476</ele>
        <time>2016-03-20T10:12:24.000Z</time>
      </trkpt>
      <trkpt lat="47.53772" lon="6.64976">
        <ele>475</ele>
        <time>2016-03-20T10:12:26.000Z</time>
      </trkpt>
      <trkpt lat="47.53773" lon="6.64975">
        <ele>475</ele>
        <time>2016-03-20T10:12:27.000Z</time>
      </trkpt>
      <trkpt lat="47.53774" lon="6.6497">
        <ele>475</ele>
        <time>2016-03-20T10:12:32.000Z</time>
      </trkpt>
      <trkpt lat="47.53772" lon="6.64968">
        <ele>475</ele>
        <time>2016-03-20T10:12:33.000Z</time>
      </trkpt>
      <trkpt lat="47.5377" lon="6.64966">
        <ele>475</ele>
        <time>2016-03-20T10:12:34.000Z</time>
      </trkpt>
      <trkpt lat="47.53767" lon="6.64964">
        <ele>475</ele>
        <time>2016-03-20T10:12:35.000Z</time>
      </trkpt>
      <trkpt lat="47.53765" lon="6.64963">
        <ele>475</ele>
        <time>2016-03-20T10:12:36.000Z</time>
      </trkpt>
      <trkpt lat="47.53763" lon="6.64962">
        <ele>475</ele>
        <time>2016-03-20T10:12:37.000Z</time>
      </trkpt>
      <trkpt lat="47.53759" lon="6.64961">
        <ele>475</ele>
        <time>2016-03-20T10:12:38.000Z</time>
      </trkpt>
      <trkpt lat="47.53756" lon="6.64961">
        <ele>475</ele>
        <time>2016-03-20T10:12:39.000Z</time>
      </trkpt>
      <trkpt lat="47.53753" lon="6.6496">
        <ele>475</ele>
        <time>2016-03-20T10:12:40.000Z</time>
      </trkpt>
      <trkpt lat="47.53749" lon="6.6496">
        <ele>474</ele>
        <time>2016-03-20T10:12:41.000Z</time>
      </trkpt>
      <trkpt lat="47.53746" lon="6.64959">
        <ele>474</ele>
        <time>2016-03-20T10:12:42.000Z</time>
      </trkpt>
      <trkpt lat="47.53743" lon="6.6496">
        <ele>474</ele>
        <time>2016-03-20T10:12:43.000Z</time>
      </trkpt>
      <trkpt lat="47.53739" lon="6.6496">
        <ele>474</ele>
        <time>2016-03-20T10:12:44.000Z</time>
      </trkpt>
      <trkpt lat="47.53736" lon="6.64961">
        <ele>474</ele>
        <time>2016-03-20T10:12:45.000Z</time>
      </trkpt>
      <trkpt lat="47.53733" lon="6.64962">
        <ele>474</ele>
        <time>2016-03-20T10:12:46.000Z</time>
      </trkpt>
      <trkpt lat="47.5373" lon="6.64963">
        <ele>474</ele>
        <time>2016-03-20T10:12:47.000Z</time>
      </trkpt>
      <trkpt lat="47.53728" lon="6.64965">
        <ele>474</ele>
        <time>2016-03-20T10:12:48.000Z</time>
      </trkpt>
      <trkpt lat="47.53726" lon="6.64966">
        <ele>474</ele>
        <time>2016-03-20T10:12:49.000Z</time>
      </trkpt>
      <trkpt lat="47.53724" lon="6.64969">
        <ele>474</ele>
        <time>2016-03-20T10:12:50.000Z</time>
      </trkpt>
      <trkpt lat="47.53724" lon="6.64973">
        <ele>474</ele>
        <time>2016-03-20T10:12:51.000Z</time>
      </trkpt>
      <trkpt lat="47.53722" lon="6.64978">
        <ele>475</ele>
        <time>2016-03-20T10:12:53.000Z</time>
      </trkpt>
      <trkpt lat="47.53721" lon="6.6498">
        <ele>475</ele>
        <time>2016-03-20T10:12:54.000Z</time>
      </trkpt>
      <trkpt lat="47.53717" lon="6.64981">
        <ele>474</ele>
        <time>2016-03-20T10:12:56.000Z</time>
      </trkpt>
      <trkpt lat="47.53715" lon="6.64981">
        <ele>474</ele>
        <time>2016-03-20T10:12:57.000Z</time>
      </trkpt>
      <trkpt lat="47.53712" lon="6.64982">
        <ele>474</ele>
        <time>2016-03-20T10:12:58.000Z</time>
      </trkpt>
      <trkpt lat="47.5371" lon="6.64982">
        <ele>474</ele>
        <time>2016-03-20T10:12:59.000Z</time>
      </trkpt>
      <trkpt lat="47.53707" lon="6.64983">
        <ele>474</ele>
        <time>2016-03-20T10:13:00.000Z</time>
      </trkpt>
      <trkpt lat="47.53705" lon="6.64984">
        <ele>474</ele>
        <time>2016-03-20T10:13:01.000Z</time>
      </trkpt>
      <trkpt lat="47.53701" lon="6.64987">
        <ele>474</ele>
        <time>2016-03-20T10:13:04.000Z</time>
      </trkpt>
      <trkpt lat="47.537" lon="6.64988">
        <ele>474</ele>
        <time>2016-03-20T10:13:05.000Z</time>
      </trkpt>
      <trkpt lat="47.53699" lon="6.64984">
        <ele>474</ele>
        <time>2016-03-20T10:13:12.000Z</time>
      </trkpt>
      <trkpt lat="47.53697" lon="6.64982">
        <ele>474</ele>
        <time>2016-03-20T10:13:13.000Z</time>
      </trkpt>
      <trkpt lat="47.53694" lon="6.6498">
        <ele>474</ele>
        <time>2016-03-20T10:13:14.000Z</time>
      </trkpt>
      <trkpt lat="47.53692" lon="6.64979">
        <ele>474</ele>
        <time>2016-03-20T10:13:15.000Z</time>
      </trkpt>
      <trkpt lat="47.5369" lon="6.64979">
        <ele>474</ele>
        <time>2016-03-20T10:13:16.000Z</time>
      </trkpt>
      <trkpt lat="47.53687" lon="6.64981">
        <ele>474</ele>
        <time>2016-03-20T10:13:17.000Z</time>
      </trkpt>
      <trkpt lat="47.53685" lon="6.64983">
        <ele>474</ele>
        <time>2016-03-20T10:13:18.000Z</time>
      </trkpt>
      <trkpt lat="47.53683" lon="6.64985">
        <ele>474</ele>
        <time>2016-03-20T10:13:19.000Z</time>
      </trkpt>
      <trkpt lat="47.53679" lon="6.64988">
        <ele>474</ele>
        <time>2016-03-20T10:13:21.000Z</time>
      </trkpt>
      <trkpt lat="47.53677" lon="6.64989">
        <ele>474</ele>
        <time>2016-03-20T10:13:22.000Z</time>
      </trkpt>
      <trkpt lat="47.53673" lon="6.64992">
        <ele>475</ele>
        <time>2016-03-20T10:13:24.000Z</time>
      </trkpt>
      <trkpt lat="47.53671" lon="6.64993">
        <ele>475</ele>
        <time>2016-03-20T10:13:25.000Z</time>
      </trkpt>
      <trkpt lat="47.53668" lon="6.64994">
        <ele>475</ele>
        <time>2016-03-20T10:13:26.000Z</time>
      </trkpt>
      <trkpt lat="47.53665" lon="6.64996">
        <ele>474</ele>
        <time>2016-03-20T10:13:27.000Z</time>
      </trkpt>
      <trkpt lat="47.53663" lon="6.64998">
        <ele>474</ele>
        <time>2016-03-20T10:13:28.000Z</time>
      </trkpt>
      <trkpt lat="47.5366" lon="6.65">
        <ele>475</ele>
        <time>2016-03-20T10:13:29.000Z</time>
      </trkpt>
      <trkpt lat="47.53657" lon="6.65003">
        <ele>475</ele>
        <time>2016-03-20T10:13:30.000Z</time>
      </trkpt>
      <trkpt lat="47.53654" lon="6.65005">
        <ele>475</ele>
        <time>2016-03-20T10:13:31.000Z</time>
      </trkpt>
      <trkpt lat="47.53651" lon="6.65007">
        <ele>475</ele>
        <time>2016-03-20T10:13:32.000Z</time>
      </trkpt>
      <trkpt lat="47.53647" lon="6.65009">
        <ele>475</ele>
        <time>2016-03-20T10:13:33.000Z</time>
      </trkpt>
      <trkpt lat="47.53643" lon="6.65011">
        <ele>475</ele>
        <time>2016-03-20T10:13:34.000Z</time>
      </trkpt>
      <trkpt lat="47.53639" lon="6.65013">
        <ele>474</ele>
        <time>2016-03-20T10:13:35.000Z</time>
      </trkpt>
      <trkpt lat="47.53635" lon="6.65014">
        <ele>474</ele>
        <time>2016-03-20T10:13:36.000Z</time>
      </trkpt>
      <trkpt lat="47.53631" lon="6.65015">
        <ele>474</ele>
        <time>2016-03-20T10:13:37.000Z</time>
      </trkpt>
      <trkpt lat="47.53627" lon="6.65017">
        <ele>474</ele>
        <time>2016-03-20T10:13:38.000Z</time>
      </trkpt>
      <trkpt lat="47.53623" lon="6.65018">
        <ele>474</ele>
        <time>2016-03-20T10:13:39.000Z</time>
      </trkpt>
      <trkpt lat="47.5362" lon="6.6502">
        <ele>474</ele>
        <time>2016-03-20T10:13:40.000Z</time>
      </trkpt>
      <trkpt lat="47.53616" lon="6.65023">
        <ele>474</ele>
        <time>2016-03-20T10:13:41.000Z</time>
      </trkpt>
      <trkpt lat="47.53612" lon="6.65025">
        <ele>474</ele>
        <time>2016-03-20T10:13:42.000Z</time>
      </trkpt>
      <trkpt lat="47.53608" lon="6.65026">
        <ele>473</ele>
        <time>2016-03-20T10:13:43.000Z</time>
      </trkpt>
      <trkpt lat="47.53605" lon="6.65028">
        <ele>473</ele>
        <time>2016-03-20T10:13:44.000Z</time>
      </trkpt>
      <trkpt lat="47.53601" lon="6.65031">
        <ele>473</ele>
        <time>2016-03-20T10:13:45.000Z</time>
      </trkpt>
      <trkpt lat="47.53598" lon="6.65033">
        <ele>473</ele>
        <time>2016-03-20T10:13:46.000Z</time>
      </trkpt>
      <trkpt lat="47.5359" lon="6.65039">
        <ele>473</ele>
        <time>2016-03-20T10:13:47.000Z</time>
      </trkpt>
      <trkpt lat="47.53585" lon="6.65041">
        <ele>473</ele>
        <time>2016-03-20T10:13:48.000Z</time>
      </trkpt>
      <trkpt lat="47.53582" lon="6.65035">
        <ele>469</ele>
        <time>2016-03-20T10:13:49.000Z</time>
      </trkpt>
      <trkpt lat="47.53577" lon="6.65031">
        <ele>469</ele>
        <time>2016-03-20T10:13:50.000Z</time>
      </trkpt>
      <trkpt lat="47.53572" lon="6.65032">
        <ele>469</ele>
        <time>2016-03-20T10:13:51.000Z</time>
      </trkpt>
      <trkpt lat="47.53569" lon="6.65036">
        <ele>469</ele>
        <time>2016-03-20T10:13:52.000Z</time>
      </trkpt>
      <trkpt lat="47.53565" lon="6.65039">
        <ele>469</ele>
        <time>2016-03-20T10:13:53.000Z</time>
      </trkpt>
      <trkpt lat="47.53563" lon="6.65042">
        <ele>469</ele>
        <time>2016-03-20T10:13:54.000Z</time>
      </trkpt>
      <trkpt lat="47.53559" lon="6.65047">
        <ele>469</ele>
        <time>2016-03-20T10:13:55.000Z</time>
      </trkpt>
      <trkpt lat="47.53556" lon="6.6505">
        <ele>469</ele>
        <time>2016-03-20T10:13:56.000Z</time>
      </trkpt>
      <trkpt lat="47.53553" lon="6.65056">
        <ele>469</ele>
        <time>2016-03-20T10:13:57.000Z</time>
      </trkpt>
      <trkpt lat="47.5355" lon="6.65063">
        <ele>469</ele>
        <time>2016-03-20T10:13:58.000Z</time>
      </trkpt>
      <trkpt lat="47.53547" lon="6.6507">
        <ele>469</ele>
        <time>2016-03-20T10:13:59.000Z</time>
      </trkpt>
      <trkpt lat="47.53542" lon="6.65076">
        <ele>468</ele>
        <time>2016-03-20T10:14:00.000Z</time>
      </trkpt>
      <trkpt lat="47.53538" lon="6.65084">
        <ele>470</ele>
        <time>2016-03-20T10:14:01.000Z</time>
      </trkpt>
      <trkpt lat="47.53534" lon="6.65092">
        <ele>469</ele>
        <time>2016-03-20T10:14:02.000Z</time>
      </trkpt>
      <trkpt lat="47.5353" lon="6.651">
        <ele>469</ele>
        <time>2016-03-20T10:14:03.000Z</time>
      </trkpt>
      <trkpt lat="47.53525" lon="6.65106">
        <ele>469</ele>
        <time>2016-03-20T10:14:04.000Z</time>
      </trkpt>
      <trkpt lat="47.5352" lon="6.65114">
        <ele>469</ele>
        <time>2016-03-20T10:14:05.000Z</time>
      </trkpt>
      <trkpt lat="47.53517" lon="6.65123">
        <ele>469</ele>
        <time>2016-03-20T10:14:06.000Z</time>
      </trkpt>
      <trkpt lat="47.53513" lon="6.65136">
        <ele>469</ele>
        <time>2016-03-20T10:14:07.000Z</time>
      </trkpt>
      <trkpt lat="47.53509" lon="6.65144">
        <ele>469</ele>
        <time>2016-03-20T10:14:08.000Z</time>
      </trkpt>
      <trkpt lat="47.53503" lon="6.6515">
        <ele>468</ele>
        <time>2016-03-20T10:14:09.000Z</time>
      </trkpt>
      <trkpt lat="47.53497" lon="6.65159">
        <ele>466</ele>
        <time>2016-03-20T10:14:10.000Z</time>
      </trkpt>
      <trkpt lat="47.53491" lon="6.65164">
        <ele>466</ele>
        <time>2016-03-20T10:14:11.000Z</time>
      </trkpt>
      <trkpt lat="47.53486" lon="6.65169">
        <ele>465</ele>
        <time>2016-03-20T10:14:12.000Z</time>
      </trkpt>
      <trkpt lat="47.53481" lon="6.65174">
        <ele>465</ele>
        <time>2016-03-20T10:14:13.000Z</time>
      </trkpt>
      <trkpt lat="47.53479" lon="6.65185">
        <ele>464</ele>
        <time>2016-03-20T10:14:14.000Z</time>
      </trkpt>
      <trkpt lat="47.53475" lon="6.65192">
        <ele>464</ele>
        <time>2016-03-20T10:14:15.000Z</time>
      </trkpt>
      <trkpt lat="47.5347" lon="6.65199">
        <ele>464</ele>
        <time>2016-03-20T10:14:16.000Z</time>
      </trkpt>
      <trkpt lat="47.53465" lon="6.65204">
        <ele>464</ele>
        <time>2016-03-20T10:14:17.000Z</time>
      </trkpt>
      <trkpt lat="47.5346" lon="6.65211">
        <ele>463</ele>
        <time>2016-03-20T10:14:18.000Z</time>
      </trkpt>
      <trkpt lat="47.53455" lon="6.65218">
        <ele>463</ele>
        <time>2016-03-20T10:14:19.000Z</time>
      </trkpt>
      <trkpt lat="47.53449" lon="6.6522">
        <ele>463</ele>
        <time>2016-03-20T10:14:20.000Z</time>
      </trkpt>
      <trkpt lat="47.53444" lon="6.65223">
        <ele>463</ele>
        <time>2016-03-20T10:14:21.000Z</time>
      </trkpt>
      <trkpt lat="47.53441" lon="6.65219">
        <ele>463</ele>
        <time>2016-03-20T10:14:22.000Z</time>
      </trkpt>
      <trkpt lat="47.53439" lon="6.65214">
        <ele>462</ele>
        <time>2016-03-20T10:14:23.000Z</time>
      </trkpt>
      <trkpt lat="47.53439" lon="6.65209">
        <ele>462</ele>
        <time>2016-03-20T10:14:24.000Z</time>
      </trkpt>
      <trkpt lat="47.53438" lon="6.65203">
        <ele>462</ele>
        <time>2016-03-20T10:14:25.000Z</time>
      </trkpt>
      <trkpt lat="47.53435" lon="6.65197">
        <ele>462</ele>
        <time>2016-03-20T10:14:26.000Z</time>
      </trkpt>
      <trkpt lat="47.53433" lon="6.65191">
        <ele>462</ele>
        <time>2016-03-20T10:14:27.000Z</time>
      </trkpt>
      <trkpt lat="47.53429" lon="6.65184">
        <ele>461</ele>
        <time>2016-03-20T10:14:28.000Z</time>
      </trkpt>
      <trkpt lat="47.53423" lon="6.65176">
        <ele>460</ele>
        <time>2016-03-20T10:14:29.000Z</time>
      </trkpt>
      <trkpt lat="47.53415" lon="6.65167">
        <ele>459</ele>
        <time>2016-03-20T10:14:30.000Z</time>
      </trkpt>
      <trkpt lat="47.5341" lon="6.6516">
        <ele>458</ele>
        <time>2016-03-20T10:14:31.000Z</time>
      </trkpt>
      <trkpt lat="47.53406" lon="6.65153">
        <ele>457</ele>
        <time>2016-03-20T10:14:32.000Z</time>
      </trkpt>
      <trkpt lat="47.53402" lon="6.65147">
        <ele>456</ele>
        <time>2016-03-20T10:14:33.000Z</time>
      </trkpt>
      <trkpt lat="47.53398" lon="6.6514">
        <ele>456</ele>
        <time>2016-03-20T10:14:34.000Z</time>
      </trkpt>
      <trkpt lat="47.53391" lon="6.65133">
        <ele>455</ele>
        <time>2016-03-20T10:14:35.000Z</time>
      </trkpt>
      <trkpt lat="47.53384" lon="6.65125">
        <ele>455</ele>
        <time>2016-03-20T10:14:36.000Z</time>
      </trkpt>
      <trkpt lat="47.53379" lon="6.65118">
        <ele>455</ele>
        <time>2016-03-20T10:14:37.000Z</time>
      </trkpt>
      <trkpt lat="47.53376" lon="6.6511">
        <ele>455</ele>
        <time>2016-03-20T10:14:38.000Z</time>
      </trkpt>
      <trkpt lat="47.53372" lon="6.65104">
        <ele>454</ele>
        <time>2016-03-20T10:14:39.000Z</time>
      </trkpt>
      <trkpt lat="47.53365" lon="6.65094">
        <ele>454</ele>
        <time>2016-03-20T10:14:40.000Z</time>
      </trkpt>
      <trkpt lat="47.5335" lon="6.65081">
        <ele>452</ele>
        <time>2016-03-20T10:14:41.000Z</time>
      </trkpt>
      <trkpt lat="47.53342" lon="6.65072">
        <ele>451</ele>
        <time>2016-03-20T10:14:42.000Z</time>
      </trkpt>
      <trkpt lat="47.53336" lon="6.65066">
        <ele>451</ele>
        <time>2016-03-20T10:14:43.000Z</time>
      </trkpt>
      <trkpt lat="47.53328" lon="6.65057">
        <ele>448</ele>
        <time>2016-03-20T10:14:44.000Z</time>
      </trkpt>
      <trkpt lat="47.53321" lon="6.6505">
        <ele>447</ele>
        <time>2016-03-20T10:14:45.000Z</time>
      </trkpt>
      <trkpt lat="47.53314" lon="6.65042">
        <ele>447</ele>
        <time>2016-03-20T10:14:46.000Z</time>
      </trkpt>
      <trkpt lat="47.53308" lon="6.65034">
        <ele>446</ele>
        <time>2016-03-20T10:14:47.000Z</time>
      </trkpt>
      <trkpt lat="47.53303" lon="6.65026">
        <ele>446</ele>
        <time>2016-03-20T10:14:48.000Z</time>
      </trkpt>
      <trkpt lat="47.53297" lon="6.65019">
        <ele>445</ele>
        <time>2016-03-20T10:14:49.000Z</time>
      </trkpt>
      <trkpt lat="47.53291" lon="6.65013">
        <ele>445</ele>
        <time>2016-03-20T10:14:50.000Z</time>
      </trkpt>
      <trkpt lat="47.53286" lon="6.65007">
        <ele>445</ele>
        <time>2016-03-20T10:14:51.000Z</time>
      </trkpt>
      <trkpt lat="47.53278" lon="6.64999">
        <ele>440</ele>
        <time>2016-03-20T10:14:52.000Z</time>
      </trkpt>
      <trkpt lat="47.53269" lon="6.64998">
        <ele>440</ele>
        <time>2016-03-20T10:14:53.000Z</time>
      </trkpt>
      <trkpt lat="47.53261" lon="6.64995">
        <ele>440</ele>
        <time>2016-03-20T10:14:54.000Z</time>
      </trkpt>
      <trkpt lat="47.53256" lon="6.64993">
        <ele>440</ele>
        <time>2016-03-20T10:14:55.000Z</time>
      </trkpt>
      <trkpt lat="47.53251" lon="6.64991">
        <ele>440</ele>
        <time>2016-03-20T10:14:56.000Z</time>
      </trkpt>
      <trkpt lat="47.53246" lon="6.64991">
        <ele>437</ele>
        <time>2016-03-20T10:14:57.000Z</time>
      </trkpt>
      <trkpt lat="47.53245" lon="6.6499">
        <ele>437</ele>
        <time>2016-03-20T10:14:58.000Z</time>
      </trkpt>
      <trkpt lat="47.53241" lon="6.64988">
        <ele>436</ele>
        <time>2016-03-20T10:14:59.000Z</time>
      </trkpt>
      <trkpt lat="47.53237" lon="6.64987">
        <ele>436</ele>
        <time>2016-03-20T10:15:00.000Z</time>
      </trkpt>
      <trkpt lat="47.5323" lon="6.64986">
        <ele>435</ele>
        <time>2016-03-20T10:15:01.000Z</time>
      </trkpt>
      <trkpt lat="47.53225" lon="6.64983">
        <ele>434</ele>
        <time>2016-03-20T10:15:02.000Z</time>
      </trkpt>
      <trkpt lat="47.5322" lon="6.64984">
        <ele>434</ele>
        <time>2016-03-20T10:15:03.000Z</time>
      </trkpt>
      <trkpt lat="47.53212" lon="6.64982">
        <ele>434</ele>
        <time>2016-03-20T10:15:04.000Z</time>
      </trkpt>
      <trkpt lat="47.53204" lon="6.6498">
        <ele>433</ele>
        <time>2016-03-20T10:15:05.000Z</time>
      </trkpt>
      <trkpt lat="47.53193" lon="6.64984">
        <ele>433</ele>
        <time>2016-03-20T10:15:06.000Z</time>
      </trkpt>
      <trkpt lat="47.53186" lon="6.64986">
        <ele>433</ele>
        <time>2016-03-20T10:15:07.000Z</time>
      </trkpt>
      <trkpt lat="47.53182" lon="6.64986">
        <ele>433</ele>
        <time>2016-03-20T10:15:08.000Z</time>
      </trkpt>
      <trkpt lat="47.53179" lon="6.64991">
        <ele>433</ele>
        <time>2016-03-20T10:15:09.000Z</time>
      </trkpt>
      <trkpt lat="47.53175" lon="6.64994">
        <ele>433</ele>
        <time>2016-03-20T10:15:10.000Z</time>
      </trkpt>
      <trkpt lat="47.53173" lon="6.64996">
        <ele>433</ele>
        <time>2016-03-20T10:15:11.000Z</time>
      </trkpt>
      <trkpt lat="47.5317" lon="6.64999">
        <ele>434</ele>
        <time>2016-03-20T10:15:14.000Z</time>
      </trkpt>
      <trkpt lat="47.53169" lon="6.65001">
        <ele>435</ele>
        <time>2016-03-20T10:15:15.000Z</time>
      </trkpt>
      <trkpt lat="47.53167" lon="6.65006">
        <ele>434</ele>
        <time>2016-03-20T10:15:20.000Z</time>
      </trkpt>
      <trkpt lat="47.53166" lon="6.65006">
        <ele>434</ele>
        <time>2016-03-20T10:15:21.000Z</time>
      </trkpt>
      <trkpt lat="47.53163" lon="6.65009">
        <ele>434</ele>
        <time>2016-03-20T10:15:35.000Z</time>
      </trkpt>
      <trkpt lat="47.53162" lon="6.6501">
        <ele>434</ele>
        <time>2016-03-20T10:15:36.000Z</time>
      </trkpt>
      <trkpt lat="47.53159" lon="6.6501">
        <ele>434</ele>
        <time>2016-03-20T10:15:38.000Z</time>
      </trkpt>
      <trkpt lat="47.53157" lon="6.65011">
        <ele>434</ele>
        <time>2016-03-20T10:15:39.000Z</time>
      </trkpt>
      <trkpt lat="47.53153" lon="6.65011">
        <ele>434</ele>
        <time>2016-03-20T10:15:41.000Z</time>
      </trkpt>
      <trkpt lat="47.5315" lon="6.6501">
        <ele>434</ele>
        <time>2016-03-20T10:15:42.000Z</time>
      </trkpt>
      <trkpt lat="47.53147" lon="6.65009">
        <ele>434</ele>
        <time>2016-03-20T10:15:43.000Z</time>
      </trkpt>
      <trkpt lat="47.53144" lon="6.65008">
        <ele>434</ele>
        <time>2016-03-20T10:15:44.000Z</time>
      </trkpt>
      <trkpt lat="47.53142" lon="6.65007">
        <ele>434</ele>
        <time>2016-03-20T10:15:45.000Z</time>
      </trkpt>
      <trkpt lat="47.53139" lon="6.65006">
        <ele>434</ele>
        <time>2016-03-20T10:15:46.000Z</time>
      </trkpt>
      <trkpt lat="47.53137" lon="6.65006">
        <ele>434</ele>
        <time>2016-03-20T10:15:47.000Z</time>
      </trkpt>
      <trkpt lat="47.53135" lon="6.65005">
        <ele>433</ele>
        <time>2016-03-20T10:15:48.000Z</time>
      </trkpt>
      <trkpt lat="47.53132" lon="6.65005">
        <ele>433</ele>
        <time>2016-03-20T10:15:49.000Z</time>
      </trkpt>
      <trkpt lat="47.53129" lon="6.65004">
        <ele>433</ele>
        <time>2016-03-20T10:15:50.000Z</time>
      </trkpt>
      <trkpt lat="47.53125" lon="6.65005">
        <ele>433</ele>
        <time>2016-03-20T10:15:51.000Z</time>
      </trkpt>
      <trkpt lat="47.5312" lon="6.65005">
        <ele>433</ele>
        <time>2016-03-20T10:15:52.000Z</time>
      </trkpt>
      <trkpt lat="47.53115" lon="6.65006">
        <ele>433</ele>
        <time>2016-03-20T10:15:53.000Z</time>
      </trkpt>
      <trkpt lat="47.53093" lon="6.65014">
        <ele>431</ele>
        <time>2016-03-20T10:15:54.000Z</time>
      </trkpt>
      <trkpt lat="47.53087" lon="6.65022">
        <ele>432</ele>
        <time>2016-03-20T10:15:55.000Z</time>
      </trkpt>
      <trkpt lat="47.53083" lon="6.65025">
        <ele>428</ele>
        <time>2016-03-20T10:15:56.000Z</time>
      </trkpt>
      <trkpt lat="47.53078" lon="6.65029">
        <ele>428</ele>
        <time>2016-03-20T10:15:57.000Z</time>
      </trkpt>
      <trkpt lat="47.53071" lon="6.65034">
        <ele>428</ele>
        <time>2016-03-20T10:15:58.000Z</time>
      </trkpt>
      <trkpt lat="47.53064" lon="6.65035">
        <ele>428</ele>
        <time>2016-03-20T10:15:59.000Z</time>
      </trkpt>
      <trkpt lat="47.53056" lon="6.65038">
        <ele>427</ele>
        <time>2016-03-20T10:16:00.000Z</time>
      </trkpt>
      <trkpt lat="47.53048" lon="6.65042">
        <ele>427</ele>
        <time>2016-03-20T10:16:01.000Z</time>
      </trkpt>
      <trkpt lat="47.53041" lon="6.65045">
        <ele>427</ele>
        <time>2016-03-20T10:16:02.000Z</time>
      </trkpt>
      <trkpt lat="47.53034" lon="6.65045">
        <ele>426</ele>
        <time>2016-03-20T10:16:03.000Z</time>
      </trkpt>
      <trkpt lat="47.53025" lon="6.65052">
        <ele>426</ele>
        <time>2016-03-20T10:16:04.000Z</time>
      </trkpt>
      <trkpt lat="47.53012" lon="6.65057">
        <ele>426</ele>
        <time>2016-03-20T10:16:05.000Z</time>
      </trkpt>
      <trkpt lat="47.53004" lon="6.6506">
        <ele>426</ele>
        <time>2016-03-20T10:16:06.000Z</time>
      </trkpt>
      <trkpt lat="47.52994" lon="6.65064">
        <ele>421</ele>
        <time>2016-03-20T10:16:07.000Z</time>
      </trkpt>
      <trkpt lat="47.52986" lon="6.65066">
        <ele>420</ele>
        <time>2016-03-20T10:16:08.000Z</time>
      </trkpt>
      <trkpt lat="47.52975" lon="6.65073">
        <ele>420</ele>
        <time>2016-03-20T10:16:09.000Z</time>
      </trkpt>
      <trkpt lat="47.52967" lon="6.65075">
        <ele>419</ele>
        <time>2016-03-20T10:16:10.000Z</time>
      </trkpt>
      <trkpt lat="47.52959" lon="6.65077">
        <ele>418</ele>
        <time>2016-03-20T10:16:11.000Z</time>
      </trkpt>
      <trkpt lat="47.52953" lon="6.6508">
        <ele>418</ele>
        <time>2016-03-20T10:16:12.000Z</time>
      </trkpt>
      <trkpt lat="47.5294" lon="6.65086">
        <ele>420</ele>
        <time>2016-03-20T10:16:13.000Z</time>
      </trkpt>
      <trkpt lat="47.52929" lon="6.65092">
        <ele>418</ele>
        <time>2016-03-20T10:16:14.000Z</time>
      </trkpt>
      <trkpt lat="47.52918" lon="6.65094">
        <ele>418</ele>
        <time>2016-03-20T10:16:15.000Z</time>
      </trkpt>
      <trkpt lat="47.52908" lon="6.65097">
        <ele>414</ele>
        <time>2016-03-20T10:16:16.000Z</time>
      </trkpt>
      <trkpt lat="47.529" lon="6.65101">
        <ele>413</ele>
        <time>2016-03-20T10:16:17.000Z</time>
      </trkpt>
      <trkpt lat="47.52892" lon="6.65101">
        <ele>413</ele>
        <time>2016-03-20T10:16:18.000Z</time>
      </trkpt>
      <trkpt lat="47.52885" lon="6.65104">
        <ele>412</ele>
        <time>2016-03-20T10:16:19.000Z</time>
      </trkpt>
      <trkpt lat="47.52876" lon="6.65107">
        <ele>411</ele>
        <time>2016-03-20T10:16:20.000Z</time>
      </trkpt>
      <trkpt lat="47.5287" lon="6.65112">
        <ele>411</ele>
        <time>2016-03-20T10:16:21.000Z</time>
      </trkpt>
      <trkpt lat="47.52863" lon="6.65117">
        <ele>411</ele>
        <time>2016-03-20T10:16:22.000Z</time>
      </trkpt>
      <trkpt lat="47.52856" lon="6.65122">
        <ele>411</ele>
        <time>2016-03-20T10:16:23.000Z</time>
      </trkpt>
      <trkpt lat="47.52851" lon="6.65127">
        <ele>410</ele>
        <time>2016-03-20T10:16:24.000Z</time>
      </trkpt>
      <trkpt lat="47.52844" lon="6.65132">
        <ele>410</ele>
        <time>2016-03-20T10:16:25.000Z</time>
      </trkpt>
      <trkpt lat="47.52838" lon="6.65138">
        <ele>410</ele>
        <time>2016-03-20T10:16:26.000Z</time>
      </trkpt>
      <trkpt lat="47.52832" lon="6.65146">
        <ele>404</ele>
        <time>2016-03-20T10:16:27.000Z</time>
      </trkpt>
      <trkpt lat="47.52825" lon="6.65148">
        <ele>404</ele>
        <time>2016-03-20T10:16:28.000Z</time>
      </trkpt>
      <trkpt lat="47.5282" lon="6.65154">
        <ele>404</ele>
        <time>2016-03-20T10:16:29.000Z</time>
      </trkpt>
      <trkpt lat="47.52814" lon="6.65159">
        <ele>404</ele>
        <time>2016-03-20T10:16:30.000Z</time>
      </trkpt>
      <trkpt lat="47.52806" lon="6.65167">
        <ele>404</ele>
        <time>2016-03-20T10:16:31.000Z</time>
      </trkpt>
      <trkpt lat="47.52801" lon="6.65172">
        <ele>404</ele>
        <time>2016-03-20T10:16:32.000Z</time>
      </trkpt>
      <trkpt lat="47.52797" lon="6.65176">
        <ele>403</ele>
        <time>2016-03-20T10:16:33.000Z</time>
      </trkpt>
      <trkpt lat="47.52794" lon="6.65179">
        <ele>403</ele>
        <time>2016-03-20T10:16:34.000Z</time>
      </trkpt>
      <trkpt lat="47.52791" lon="6.65187">
        <ele>403</ele>
        <time>2016-03-20T10:16:35.000Z</time>
      </trkpt>
      <trkpt lat="47.52789" lon="6.65191">
        <ele>402</ele>
        <time>2016-03-20T10:16:36.000Z</time>
      </trkpt>
      <trkpt lat="47.52784" lon="6.65192">
        <ele>402</ele>
        <time>2016-03-20T10:16:37.000Z</time>
      </trkpt>
      <trkpt lat="47.52781" lon="6.65193">
        <ele>402</ele>
        <time>2016-03-20T10:16:39.000Z</time>
      </trkpt>
      <trkpt lat="47.52779" lon="6.6519">
        <ele>402</ele>
        <time>2016-03-20T10:16:40.000Z</time>
      </trkpt>
      <trkpt lat="47.52777" lon="6.65185">
        <ele>401</ele>
        <time>2016-03-20T10:16:41.000Z</time>
      </trkpt>
      <trkpt lat="47.52775" lon="6.65182">
        <ele>401</ele>
        <time>2016-03-20T10:16:42.000Z</time>
      </trkpt>
      <trkpt lat="47.52768" lon="6.65179">
        <ele>400</ele>
        <time>2016-03-20T10:16:43.000Z</time>
      </trkpt>
      <trkpt lat="47.52763" lon="6.65178">
        <ele>400</ele>
        <time>2016-03-20T10:16:44.000Z</time>
      </trkpt>
      <trkpt lat="47.52759" lon="6.65178">
        <ele>399</ele>
        <time>2016-03-20T10:16:45.000Z</time>
      </trkpt>
      <trkpt lat="47.52756" lon="6.65179">
        <ele>399</ele>
        <time>2016-03-20T10:16:46.000Z</time>
      </trkpt>
      <trkpt lat="47.52753" lon="6.65179">
        <ele>399</ele>
        <time>2016-03-20T10:16:47.000Z</time>
      </trkpt>
      <trkpt lat="47.52751" lon="6.6518">
        <ele>399</ele>
        <time>2016-03-20T10:16:48.000Z</time>
      </trkpt>
      <trkpt lat="47.52749" lon="6.65181">
        <ele>394</ele>
        <time>2016-03-20T10:16:49.000Z</time>
      </trkpt>
      <trkpt lat="47.52746" lon="6.65182">
        <ele>394</ele>
        <time>2016-03-20T10:16:50.000Z</time>
      </trkpt>
      <trkpt lat="47.52743" lon="6.65183">
        <ele>394</ele>
        <time>2016-03-20T10:16:51.000Z</time>
      </trkpt>
      <trkpt lat="47.5274" lon="6.65184">
        <ele>393</ele>
        <time>2016-03-20T10:16:52.000Z</time>
      </trkpt>
      <trkpt lat="47.52738" lon="6.65185">
        <ele>393</ele>
        <time>2016-03-20T10:16:53.000Z</time>
      </trkpt>
      <trkpt lat="47.52735" lon="6.65187">
        <ele>393</ele>
        <time>2016-03-20T10:16:54.000Z</time>
      </trkpt>
      <trkpt lat="47.52732" lon="6.65188">
        <ele>392</ele>
        <time>2016-03-20T10:16:55.000Z</time>
      </trkpt>
      <trkpt lat="47.52729" lon="6.65191">
        <ele>392</ele>
        <time>2016-03-20T10:16:56.000Z</time>
      </trkpt>
      <trkpt lat="47.52725" lon="6.65194">
        <ele>392</ele>
        <time>2016-03-20T10:16:57.000Z</time>
      </trkpt>
      <trkpt lat="47.52716" lon="6.65202">
        <ele>391</ele>
        <time>2016-03-20T10:16:58.000Z</time>
      </trkpt>
      <trkpt lat="47.52712" lon="6.65208">
        <ele>391</ele>
        <time>2016-03-20T10:16:59.000Z</time>
      </trkpt>
      <trkpt lat="47.52709" lon="6.65213">
        <ele>390</ele>
        <time>2016-03-20T10:17:00.000Z</time>
      </trkpt>
      <trkpt lat="47.52705" lon="6.65217">
        <ele>390</ele>
        <time>2016-03-20T10:17:01.000Z</time>
      </trkpt>
      <trkpt lat="47.52701" lon="6.65224">
        <ele>390</ele>
        <time>2016-03-20T10:17:02.000Z</time>
      </trkpt>
      <trkpt lat="47.52697" lon="6.65229">
        <ele>389</ele>
        <time>2016-03-20T10:17:03.000Z</time>
      </trkpt>
      <trkpt lat="47.52693" lon="6.65235">
        <ele>389</ele>
        <time>2016-03-20T10:17:04.000Z</time>
      </trkpt>
      <trkpt lat="47.52688" lon="6.6524">
        <ele>388</ele>
        <time>2016-03-20T10:17:05.000Z</time>
      </trkpt>
      <trkpt lat="47.52685" lon="6.65245">
        <ele>387</ele>
        <time>2016-03-20T10:17:06.000Z</time>
      </trkpt>
      <trkpt lat="47.5268" lon="6.6525">
        <ele>387</ele>
        <time>2016-03-20T10:17:07.000Z</time>
      </trkpt>
      <trkpt lat="47.52675" lon="6.65254">
        <ele>386</ele>
        <time>2016-03-20T10:17:08.000Z</time>
      </trkpt>
      <trkpt lat="47.5267" lon="6.65258">
        <ele>385</ele>
        <time>2016-03-20T10:17:09.000Z</time>
      </trkpt>
      <trkpt lat="47.52665" lon="6.65262">
        <ele>382</ele>
        <time>2016-03-20T10:17:10.000Z</time>
      </trkpt>
      <trkpt lat="47.5266" lon="6.65266">
        <ele>382</ele>
        <time>2016-03-20T10:17:11.000Z</time>
      </trkpt>
      <trkpt lat="47.52654" lon="6.65271">
        <ele>381</ele>
        <time>2016-03-20T10:17:12.000Z</time>
      </trkpt>
      <trkpt lat="47.52649" lon="6.65276">
        <ele>380</ele>
        <time>2016-03-20T10:17:13.000Z</time>
      </trkpt>
      <trkpt lat="47.52644" lon="6.6528">
        <ele>380</ele>
        <time>2016-03-20T10:17:14.000Z</time>
      </trkpt>
      <trkpt lat="47.52639" lon="6.65285">
        <ele>380</ele>
        <time>2016-03-20T10:17:15.000Z</time>
      </trkpt>
      <trkpt lat="47.52634" lon="6.65291">
        <ele>379</ele>
        <time>2016-03-20T10:17:16.000Z</time>
      </trkpt>
      <trkpt lat="47.52629" lon="6.65297">
        <ele>379</ele>
        <time>2016-03-20T10:17:17.000Z</time>
      </trkpt>
      <trkpt lat="47.52624" lon="6.65304">
        <ele>379</ele>
        <time>2016-03-20T10:17:18.000Z</time>
      </trkpt>
      <trkpt lat="47.52619" lon="6.6531">
        <ele>379</ele>
        <time>2016-03-20T10:17:19.000Z</time>
      </trkpt>
      <trkpt lat="47.52614" lon="6.65316">
        <ele>379</ele>
        <time>2016-03-20T10:17:20.000Z</time>
      </trkpt>
      <trkpt lat="47.5261" lon="6.65323">
        <ele>378</ele>
        <time>2016-03-20T10:17:21.000Z</time>
      </trkpt>
      <trkpt lat="47.52605" lon="6.65329">
        <ele>378</ele>
        <time>2016-03-20T10:17:22.000Z</time>
      </trkpt>
      <trkpt lat="47.52601" lon="6.65337">
        <ele>377</ele>
        <time>2016-03-20T10:17:23.000Z</time>
      </trkpt>
      <trkpt lat="47.52596" lon="6.65344">
        <ele>377</ele>
        <time>2016-03-20T10:17:24.000Z</time>
      </trkpt>
      <trkpt lat="47.52592" lon="6.65353">
        <ele>377</ele>
        <time>2016-03-20T10:17:25.000Z</time>
      </trkpt>
      <trkpt lat="47.52588" lon="6.65361">
        <ele>377</ele>
        <time>2016-03-20T10:17:26.000Z</time>
      </trkpt>
      <trkpt lat="47.52585" lon="6.65369">
        <ele>377</ele>
        <time>2016-03-20T10:17:27.000Z</time>
      </trkpt>
      <trkpt lat="47.52581" lon="6.65378">
        <ele>374</ele>
        <time>2016-03-20T10:17:28.000Z</time>
      </trkpt>
      <trkpt lat="47.52578" lon="6.65386">
        <ele>374</ele>
        <time>2016-03-20T10:17:29.000Z</time>
      </trkpt>
      <trkpt lat="47.52574" lon="6.65395">
        <ele>374</ele>
        <time>2016-03-20T10:17:30.000Z</time>
      </trkpt>
      <trkpt lat="47.52571" lon="6.65404">
        <ele>374</ele>
        <time>2016-03-20T10:17:31.000Z</time>
      </trkpt>
      <trkpt lat="47.52568" lon="6.65413">
        <ele>374</ele>
        <time>2016-03-20T10:17:32.000Z</time>
      </trkpt>
      <trkpt lat="47.52565" lon="6.65423">
        <ele>372</ele>
        <time>2016-03-20T10:17:33.000Z</time>
      </trkpt>
      <trkpt lat="47.52562" lon="6.65437">
        <ele>372</ele>
        <time>2016-03-20T10:17:34.000Z</time>
      </trkpt>
      <trkpt lat="47.52559" lon="6.65448">
        <ele>372</ele>
        <time>2016-03-20T10:17:35.000Z</time>
      </trkpt>
      <trkpt lat="47.52557" lon="6.65457">
        <ele>371</ele>
        <time>2016-03-20T10:17:36.000Z</time>
      </trkpt>
      <trkpt lat="47.52554" lon="6.65468">
        <ele>371</ele>
        <time>2016-03-20T10:17:37.000Z</time>
      </trkpt>
      <trkpt lat="47.52552" lon="6.6548">
        <ele>371</ele>
        <time>2016-03-20T10:17:38.000Z</time>
      </trkpt>
      <trkpt lat="47.52549" lon="6.65489">
        <ele>371</ele>
        <time>2016-03-20T10:17:39.000Z</time>
      </trkpt>
      <trkpt lat="47.52545" lon="6.65498">
        <ele>371</ele>
        <time>2016-03-20T10:17:40.000Z</time>
      </trkpt>
      <trkpt lat="47.52542" lon="6.65506">
        <ele>369</ele>
        <time>2016-03-20T10:17:41.000Z</time>
      </trkpt>
      <trkpt lat="47.52538" lon="6.65515">
        <ele>369</ele>
        <time>2016-03-20T10:17:42.000Z</time>
      </trkpt>
      <trkpt lat="47.52535" lon="6.65524">
        <ele>369</ele>
        <time>2016-03-20T10:17:43.000Z</time>
      </trkpt>
      <trkpt lat="47.5253" lon="6.65532">
        <ele>369</ele>
        <time>2016-03-20T10:17:44.000Z</time>
      </trkpt>
      <trkpt lat="47.52526" lon="6.6554">
        <ele>369</ele>
        <time>2016-03-20T10:17:45.000Z</time>
      </trkpt>
      <trkpt lat="47.52522" lon="6.65549">
        <ele>369</ele>
        <time>2016-03-20T10:17:46.000Z</time>
      </trkpt>
      <trkpt lat="47.52518" lon="6.65558">
        <ele>369</ele>
        <time>2016-03-20T10:17:47.000Z</time>
      </trkpt>
      <trkpt lat="47.52514" lon="6.65566">
        <ele>369</ele>
        <time>2016-03-20T10:17:48.000Z</time>
      </trkpt>
      <trkpt lat="47.5251" lon="6.65574">
        <ele>368</ele>
        <time>2016-03-20T10:17:49.000Z</time>
      </trkpt>
      <trkpt lat="47.52506" lon="6.65581">
        <ele>368</ele>
        <time>2016-03-20T10:17:50.000Z</time>
      </trkpt>
      <trkpt lat="47.52501" lon="6.65589">
        <ele>368</ele>
        <time>2016-03-20T10:17:51.000Z</time>
      </trkpt>
      <trkpt lat="47.52497" lon="6.65595">
        <ele>367</ele>
        <time>2016-03-20T10:17:52.000Z</time>
      </trkpt>
      <trkpt lat="47.52493" lon="6.65605">
        <ele>367</ele>
        <time>2016-03-20T10:17:53.000Z</time>
      </trkpt>
      <trkpt lat="47.52488" lon="6.65611">
        <ele>366</ele>
        <time>2016-03-20T10:17:54.000Z</time>
      </trkpt>
      <trkpt lat="47.52485" lon="6.65621">
        <ele>366</ele>
        <time>2016-03-20T10:17:55.000Z</time>
      </trkpt>
      <trkpt lat="47.52481" lon="6.65628">
        <ele>366</ele>
        <time>2016-03-20T10:17:56.000Z</time>
      </trkpt>
      <trkpt lat="47.52479" lon="6.65637">
        <ele>366</ele>
        <time>2016-03-20T10:17:57.000Z</time>
      </trkpt>
      <trkpt lat="47.52476" lon="6.65647">
        <ele>366</ele>
        <time>2016-03-20T10:17:58.000Z</time>
      </trkpt>
      <trkpt lat="47.52473" lon="6.65656">
        <ele>366</ele>
        <time>2016-03-20T10:17:59.000Z</time>
      </trkpt>
      <trkpt lat="47.52469" lon="6.65663">
        <ele>366</ele>
        <time>2016-03-20T10:18:00.000Z</time>
      </trkpt>
      <trkpt lat="47.52466" lon="6.6567">
        <ele>365</ele>
        <time>2016-03-20T10:18:01.000Z</time>
      </trkpt>
      <trkpt lat="47.52464" lon="6.65677">
        <ele>365</ele>
        <time>2016-03-20T10:18:02.000Z</time>
      </trkpt>
      <trkpt lat="47.52462" lon="6.65684">
        <ele>365</ele>
        <time>2016-03-20T10:18:03.000Z</time>
      </trkpt>
      <trkpt lat="47.52459" lon="6.6569">
        <ele>365</ele>
        <time>2016-03-20T10:18:04.000Z</time>
      </trkpt>
      <trkpt lat="47.52455" lon="6.65695">
        <ele>365</ele>
        <time>2016-03-20T10:18:05.000Z</time>
      </trkpt>
      <trkpt lat="47.52451" lon="6.657">
        <ele>365</ele>
        <time>2016-03-20T10:18:06.000Z</time>
      </trkpt>
      <trkpt lat="47.52448" lon="6.65707">
        <ele>365</ele>
        <time>2016-03-20T10:18:07.000Z</time>
      </trkpt>
      <trkpt lat="47.52446" lon="6.65712">
        <ele>365</ele>
        <time>2016-03-20T10:18:08.000Z</time>
      </trkpt>
      <trkpt lat="47.52443" lon="6.65718">
        <ele>365</ele>
        <time>2016-03-20T10:18:09.000Z</time>
      </trkpt>
      <trkpt lat="47.5244" lon="6.65723">
        <ele>365</ele>
        <time>2016-03-20T10:18:10.000Z</time>
      </trkpt>
      <trkpt lat="47.52437" lon="6.65729">
        <ele>365</ele>
        <time>2016-03-20T10:18:11.000Z</time>
      </trkpt>
      <trkpt lat="47.52434" lon="6.65738">
        <ele>365</ele>
        <time>2016-03-20T10:18:12.000Z</time>
      </trkpt>
      <trkpt lat="47.52431" lon="6.65745">
        <ele>365</ele>
        <time>2016-03-20T10:18:13.000Z</time>
      </trkpt>
      <trkpt lat="47.52429" lon="6.65753">
        <ele>365</ele>
        <time>2016-03-20T10:18:14.000Z</time>
      </trkpt>
      <trkpt lat="47.52426" lon="6.65761">
        <ele>365</ele>
        <time>2016-03-20T10:18:15.000Z</time>
      </trkpt>
      <trkpt lat="47.52423" lon="6.65768">
        <ele>365</ele>
        <time>2016-03-20T10:18:16.000Z</time>
      </trkpt>
      <trkpt lat="47.5242" lon="6.65773">
        <ele>365</ele>
        <time>2016-03-20T10:18:17.000Z</time>
      </trkpt>
      <trkpt lat="47.52417" lon="6.65778">
        <ele>366</ele>
        <time>2016-03-20T10:18:18.000Z</time>
      </trkpt>
      <trkpt lat="47.52413" lon="6.65784">
        <ele>366</ele>
        <time>2016-03-20T10:18:19.000Z</time>
      </trkpt>
      <trkpt lat="47.52411" lon="6.65789">
        <ele>366</ele>
        <time>2016-03-20T10:18:20.000Z</time>
      </trkpt>
      <trkpt lat="47.52408" lon="6.65793">
        <ele>366</ele>
        <time>2016-03-20T10:18:21.000Z</time>
      </trkpt>
      <trkpt lat="47.52405" lon="6.658">
        <ele>366</ele>
        <time>2016-03-20T10:18:22.000Z</time>
      </trkpt>
      <trkpt lat="47.52402" lon="6.65806">
        <ele>366</ele>
        <time>2016-03-20T10:18:23.000Z</time>
      </trkpt>
      <trkpt lat="47.52399" lon="6.65811">
        <ele>366</ele>
        <time>2016-03-20T10:18:24.000Z</time>
      </trkpt>
      <trkpt lat="47.52397" lon="6.65817">
        <ele>366</ele>
        <time>2016-03-20T10:18:25.000Z</time>
      </trkpt>
      <trkpt lat="47.52393" lon="6.65822">
        <ele>366</ele>
        <time>2016-03-20T10:18:26.000Z</time>
      </trkpt>
      <trkpt lat="47.5239" lon="6.65828">
        <ele>366</ele>
        <time>2016-03-20T10:18:27.000Z</time>
      </trkpt>
      <trkpt lat="47.52388" lon="6.65834">
        <ele>367</ele>
        <time>2016-03-20T10:18:28.000Z</time>
      </trkpt>
      <trkpt lat="47.52385" lon="6.6584">
        <ele>367</ele>
        <time>2016-03-20T10:18:29.000Z</time>
      </trkpt>
      <trkpt lat="47.52382" lon="6.65846">
        <ele>367</ele>
        <time>2016-03-20T10:18:30.000Z</time>
      </trkpt>
      <trkpt lat="47.52379" lon="6.65852">
        <ele>367</ele>
        <time>2016-03-20T10:18:31.000Z</time>
      </trkpt>
      <trkpt lat="47.52377" lon="6.65858">
        <ele>367</ele>
        <time>2016-03-20T10:18:32.000Z</time>
      </trkpt>
      <trkpt lat="47.52374" lon="6.65863">
        <ele>367</ele>
        <time>2016-03-20T10:18:33.000Z</time>
      </trkpt>
      <trkpt lat="47.52371" lon="6.65868">
        <ele>367</ele>
        <time>2016-03-20T10:18:34.000Z</time>
      </trkpt>
      <trkpt lat="47.52368" lon="6.65874">
        <ele>367</ele>
        <time>2016-03-20T10:18:35.000Z</time>
      </trkpt>
      <trkpt lat="47.52365" lon="6.6588">
        <ele>367</ele>
        <time>2016-03-20T10:18:36.000Z</time>
      </trkpt>
      <trkpt lat="47.52362" lon="6.65884">
        <ele>367</ele>
        <time>2016-03-20T10:18:37.000Z</time>
      </trkpt>
      <trkpt lat="47.52359" lon="6.65889">
        <ele>367</ele>
        <time>2016-03-20T10:18:38.000Z</time>
      </trkpt>
      <trkpt lat="47.52356" lon="6.65895">
        <ele>367</ele>
        <time>2016-03-20T10:18:39.000Z</time>
      </trkpt>
      <trkpt lat="47.52353" lon="6.659">
        <ele>367</ele>
        <time>2016-03-20T10:18:40.000Z</time>
      </trkpt>
      <trkpt lat="47.5235" lon="6.65905">
        <ele>367</ele>
        <time>2016-03-20T10:18:41.000Z</time>
      </trkpt>
      <trkpt lat="47.52345" lon="6.6591">
        <ele>367</ele>
        <time>2016-03-20T10:18:42.000Z</time>
      </trkpt>
      <trkpt lat="47.52342" lon="6.65916">
        <ele>367</ele>
        <time>2016-03-20T10:18:43.000Z</time>
      </trkpt>
      <trkpt lat="47.52339" lon="6.6592">
        <ele>367</ele>
        <time>2016-03-20T10:18:44.000Z</time>
      </trkpt>
      <trkpt lat="47.52336" lon="6.65925">
        <ele>367</ele>
        <time>2016-03-20T10:18:45.000Z</time>
      </trkpt>
      <trkpt lat="47.52334" lon="6.65935">
        <ele>368</ele>
        <time>2016-03-20T10:18:46.000Z</time>
      </trkpt>
      <trkpt lat="47.52331" lon="6.65941">
        <ele>368</ele>
        <time>2016-03-20T10:18:47.000Z</time>
      </trkpt>
      <trkpt lat="47.52328" lon="6.65947">
        <ele>368</ele>
        <time>2016-03-20T10:18:48.000Z</time>
      </trkpt>
      <trkpt lat="47.52324" lon="6.65953">
        <ele>368</ele>
        <time>2016-03-20T10:18:49.000Z</time>
      </trkpt>
      <trkpt lat="47.52321" lon="6.65958">
        <ele>368</ele>
        <time>2016-03-20T10:18:50.000Z</time>
      </trkpt>
      <trkpt lat="47.52319" lon="6.65963">
        <ele>368</ele>
        <time>2016-03-20T10:18:51.000Z</time>
      </trkpt>
      <trkpt lat="47.52316" lon="6.65966">
        <ele>368</ele>
        <time>2016-03-20T10:18:52.000Z</time>
      </trkpt>
      <trkpt lat="47.52313" lon="6.65971">
        <ele>368</ele>
        <time>2016-03-20T10:18:53.000Z</time>
      </trkpt>
      <trkpt lat="47.52312" lon="6.65975">
        <ele>368</ele>
        <time>2016-03-20T10:18:54.000Z</time>
      </trkpt>
      <trkpt lat="47.5231" lon="6.6598">
        <ele>368</ele>
        <time>2016-03-20T10:18:55.000Z</time>
      </trkpt>
      <trkpt lat="47.52308" lon="6.65982">
        <ele>368</ele>
        <time>2016-03-20T10:18:56.000Z</time>
      </trkpt>
      <trkpt lat="47.52307" lon="6.65985">
        <ele>368</ele>
        <time>2016-03-20T10:18:57.000Z</time>
      </trkpt>
      <trkpt lat="47.52304" lon="6.6599">
        <ele>368</ele>
        <time>2016-03-20T10:18:59.000Z</time>
      </trkpt>
      <trkpt lat="47.52303" lon="6.65993">
        <ele>369</ele>
        <time>2016-03-20T10:19:00.000Z</time>
      </trkpt>
      <trkpt lat="47.52303" lon="6.65998">
        <ele>369</ele>
        <time>2016-03-20T10:19:01.000Z</time>
      </trkpt>
      <trkpt lat="47.52302" lon="6.66001">
        <ele>371</ele>
        <time>2016-03-20T10:19:02.000Z</time>
      </trkpt>
      <trkpt lat="47.523" lon="6.66005">
        <ele>371</ele>
        <time>2016-03-20T10:19:05.000Z</time>
      </trkpt>
      <trkpt lat="47.523" lon="6.66006">
        <ele>371</ele>
        <time>2016-03-20T10:19:06.000Z</time>
      </trkpt>
      <trkpt lat="47.52297" lon="6.66009">
        <ele>371</ele>
        <time>2016-03-20T10:19:10.000Z</time>
      </trkpt>
      <trkpt lat="47.52296" lon="6.6601">
        <ele>371</ele>
        <time>2016-03-20T10:19:11.000Z</time>
      </trkpt>
      <trkpt lat="47.52294" lon="6.66014">
        <ele>371</ele>
        <time>2016-03-20T10:19:13.000Z</time>
      </trkpt>
      <trkpt lat="47.52293" lon="6.66016">
        <ele>371</ele>
        <time>2016-03-20T10:19:14.000Z</time>
      </trkpt>
      <trkpt lat="47.52291" lon="6.6602">
        <ele>371</ele>
        <time>2016-03-20T10:19:16.000Z</time>
      </trkpt>
      <trkpt lat="47.5229" lon="6.66022">
        <ele>371</ele>
        <time>2016-03-20T10:19:17.000Z</time>
      </trkpt>
      <trkpt lat="47.52288" lon="6.66026">
        <ele>371</ele>
        <time>2016-03-20T10:19:19.000Z</time>
      </trkpt>
      <trkpt lat="47.52287" lon="6.66029">
        <ele>371</ele>
        <time>2016-03-20T10:19:20.000Z</time>
      </trkpt>
      <trkpt lat="47.52285" lon="6.66033">
        <ele>371</ele>
        <time>2016-03-20T10:19:22.000Z</time>
      </trkpt>
      <trkpt lat="47.52284" lon="6.66034">
        <ele>371</ele>
        <time>2016-03-20T10:19:23.000Z</time>
      </trkpt>
      <trkpt lat="47.52282" lon="6.6604">
        <ele>371</ele>
        <time>2016-03-20T10:19:27.000Z</time>
      </trkpt>
      <trkpt lat="47.52281" lon="6.66041">
        <ele>371</ele>
        <time>2016-03-20T10:19:28.000Z</time>
      </trkpt>
      <trkpt lat="47.52277" lon="6.66043">
        <ele>371</ele>
        <time>2016-03-20T10:19:30.000Z</time>
      </trkpt>
      <trkpt lat="47.52275" lon="6.66045">
        <ele>371</ele>
        <time>2016-03-20T10:19:31.000Z</time>
      </trkpt>
      <trkpt lat="47.52274" lon="6.66047">
        <ele>371</ele>
        <time>2016-03-20T10:19:32.000Z</time>
      </trkpt>
      <trkpt lat="47.52272" lon="6.6605">
        <ele>371</ele>
        <time>2016-03-20T10:19:33.000Z</time>
      </trkpt>
      <trkpt lat="47.52271" lon="6.66053">
        <ele>371</ele>
        <time>2016-03-20T10:19:34.000Z</time>
      </trkpt>
      <trkpt lat="47.52269" lon="6.66056">
        <ele>372</ele>
        <time>2016-03-20T10:19:35.000Z</time>
      </trkpt>
      <trkpt lat="47.52267" lon="6.66059">
        <ele>372</ele>
        <time>2016-03-20T10:19:36.000Z</time>
      </trkpt>
      <trkpt lat="47.52265" lon="6.66061">
        <ele>372</ele>
        <time>2016-03-20T10:19:37.000Z</time>
      </trkpt>
      <trkpt lat="47.52263" lon="6.66064">
        <ele>372</ele>
        <time>2016-03-20T10:19:38.000Z</time>
      </trkpt>
      <trkpt lat="47.52261" lon="6.66066">
        <ele>372</ele>
        <time>2016-03-20T10:19:39.000Z</time>
      </trkpt>
      <trkpt lat="47.52259" lon="6.66068">
        <ele>372</ele>
        <time>2016-03-20T10:19:40.000Z</time>
      </trkpt>
      <trkpt lat="47.52257" lon="6.66071">
        <ele>372</ele>
        <time>2016-03-20T10:19:41.000Z</time>
      </trkpt>
      <trkpt lat="47.52255" lon="6.66074">
        <ele>372</ele>
        <time>2016-03-20T10:19:42.000Z</time>
      </trkpt>
      <trkpt lat="47.52253" lon="6.66076">
        <ele>373</ele>
        <time>2016-03-20T10:19:43.000Z</time>
      </trkpt>
      <trkpt lat="47.52251" lon="6.66081">
        <ele>373</ele>
        <time>2016-03-20T10:19:47.000Z</time>
      </trkpt>
      <trkpt lat="47.5225" lon="6.66082">
        <ele>373</ele>
        <time>2016-03-20T10:19:48.000Z</time>
      </trkpt>
      <trkpt lat="47.52249" lon="6.66087">
        <ele>373</ele>
        <time>2016-03-20T10:19:50.000Z</time>
      </trkpt>
      <trkpt lat="47.52249" lon="6.66091">
        <ele>374</ele>
        <time>2016-03-20T10:19:51.000Z</time>
      </trkpt>
      <trkpt lat="47.5225" lon="6.66096">
        <ele>374</ele>
        <time>2016-03-20T10:19:52.000Z</time>
      </trkpt>
      <trkpt lat="47.5225" lon="6.661">
        <ele>374</ele>
        <time>2016-03-20T10:19:53.000Z</time>
      </trkpt>
      <trkpt lat="47.5225" lon="6.66104">
        <ele>374</ele>
        <time>2016-03-20T10:19:54.000Z</time>
      </trkpt>
      <trkpt lat="47.52248" lon="6.66108">
        <ele>374</ele>
        <time>2016-03-20T10:19:55.000Z</time>
      </trkpt>
      <trkpt lat="47.52246" lon="6.66112">
        <ele>375</ele>
        <time>2016-03-20T10:19:56.000Z</time>
      </trkpt>
      <trkpt lat="47.52245" lon="6.66115">
        <ele>375</ele>
        <time>2016-03-20T10:19:57.000Z</time>
      </trkpt>
      <trkpt lat="47.52243" lon="6.66119">
        <ele>375</ele>
        <time>2016-03-20T10:19:58.000Z</time>
      </trkpt>
      <trkpt lat="47.52241" lon="6.66123">
        <ele>375</ele>
        <time>2016-03-20T10:19:59.000Z</time>
      </trkpt>
      <trkpt lat="47.52239" lon="6.66126">
        <ele>375</ele>
        <time>2016-03-20T10:19:59.999Z</time>
      </trkpt>
      <trkpt lat="47.52236" lon="6.6613">
        <ele>375</ele>
        <time>2016-03-20T10:20:01.000Z</time>
      </trkpt>
      <trkpt lat="47.52234" lon="6.66133">
        <ele>375</ele>
        <time>2016-03-20T10:20:02.000Z</time>
      </trkpt>
      <trkpt lat="47.52232" lon="6.66135">
        <ele>375</ele>
        <time>2016-03-20T10:20:03.000Z</time>
      </trkpt>
      <trkpt lat="47.5223" lon="6.66138">
        <ele>375</ele>
        <time>2016-03-20T10:20:04.000Z</time>
      </trkpt>
      <trkpt lat="47.52228" lon="6.6614">
        <ele>375</ele>
        <time>2016-03-20T10:20:05.000Z</time>
      </trkpt>
      <trkpt lat="47.52226" lon="6.66142">
        <ele>375</ele>
        <time>2016-03-20T10:20:06.000Z</time>
      </trkpt>
      <trkpt lat="47.52224" lon="6.66145">
        <ele>375</ele>
        <time>2016-03-20T10:20:07.000Z</time>
      </trkpt>
      <trkpt lat="47.52221" lon="6.66147">
        <ele>376</ele>
        <time>2016-03-20T10:20:08.000Z</time>
      </trkpt>
      <trkpt lat="47.52219" lon="6.6615">
        <ele>376</ele>
        <time>2016-03-20T10:20:09.000Z</time>
      </trkpt>
      <trkpt lat="47.52218" lon="6.66153">
        <ele>376</ele>
        <time>2016-03-20T10:20:10.000Z</time>
      </trkpt>
      <trkpt lat="47.52216" lon="6.66156">
        <ele>376</ele>
        <time>2016-03-20T10:20:11.000Z</time>
      </trkpt>
      <trkpt lat="47.52214" lon="6.66159">
        <ele>376</ele>
        <time>2016-03-20T10:20:12.000Z</time>
      </trkpt>
      <trkpt lat="47.52212" lon="6.66162">
        <ele>376</ele>
        <time>2016-03-20T10:20:13.000Z</time>
      </trkpt>
      <trkpt lat="47.52209" lon="6.66165">
        <ele>376</ele>
        <time>2016-03-20T10:20:14.000Z</time>
      </trkpt>
      <trkpt lat="47.52207" lon="6.66168">
        <ele>378</ele>
        <time>2016-03-20T10:20:15.000Z</time>
      </trkpt>
      <trkpt lat="47.52206" lon="6.66171">
        <ele>378</ele>
        <time>2016-03-20T10:20:16.000Z</time>
      </trkpt>
      <trkpt lat="47.52204" lon="6.66173">
        <ele>378</ele>
        <time>2016-03-20T10:20:17.000Z</time>
      </trkpt>
      <trkpt lat="47.52202" lon="6.66176">
        <ele>378</ele>
        <time>2016-03-20T10:20:18.000Z</time>
      </trkpt>
      <trkpt lat="47.52199" lon="6.66178">
        <ele>378</ele>
        <time>2016-03-20T10:20:19.000Z</time>
      </trkpt>
      <trkpt lat="47.52197" lon="6.66181">
        <ele>378</ele>
        <time>2016-03-20T10:20:20.000Z</time>
      </trkpt>
      <trkpt lat="47.52194" lon="6.66184">
        <ele>378</ele>
        <time>2016-03-20T10:20:21.000Z</time>
      </trkpt>
      <trkpt lat="47.52192" lon="6.66187">
        <ele>378</ele>
        <time>2016-03-20T10:20:22.000Z</time>
      </trkpt>
      <trkpt lat="47.5219" lon="6.66191">
        <ele>378</ele>
        <time>2016-03-20T10:20:23.000Z</time>
      </trkpt>
      <trkpt lat="47.52189" lon="6.66194">
        <ele>378</ele>
        <time>2016-03-20T10:20:24.000Z</time>
      </trkpt>
      <trkpt lat="47.52187" lon="6.66198">
        <ele>378</ele>
        <time>2016-03-20T10:20:25.000Z</time>
      </trkpt>
      <trkpt lat="47.52185" lon="6.66201">
        <ele>378</ele>
        <time>2016-03-20T10:20:26.000Z</time>
      </trkpt>
      <trkpt lat="47.52184" lon="6.66204">
        <ele>378</ele>
        <time>2016-03-20T10:20:27.000Z</time>
      </trkpt>
      <trkpt lat="47.52181" lon="6.66207">
        <ele>378</ele>
        <time>2016-03-20T10:20:28.000Z</time>
      </trkpt>
      <trkpt lat="47.52179" lon="6.6621">
        <ele>378</ele>
        <time>2016-03-20T10:20:29.000Z</time>
      </trkpt>
      <trkpt lat="47.52177" lon="6.66213">
        <ele>378</ele>
        <time>2016-03-20T10:20:30.000Z</time>
      </trkpt>
      <trkpt lat="47.52175" lon="6.66216">
        <ele>378</ele>
        <time>2016-03-20T10:20:31.000Z</time>
      </trkpt>
      <trkpt lat="47.52173" lon="6.66219">
        <ele>378</ele>
        <time>2016-03-20T10:20:32.000Z</time>
      </trkpt>
      <trkpt lat="47.52171" lon="6.66222">
        <ele>378</ele>
        <time>2016-03-20T10:20:33.000Z</time>
      </trkpt>
      <trkpt lat="47.52169" lon="6.66225">
        <ele>378</ele>
        <time>2016-03-20T10:20:34.000Z</time>
      </trkpt>
      <trkpt lat="47.52168" lon="6.66227">
        <ele>378</ele>
        <time>2016-03-20T10:20:35.000Z</time>
      </trkpt>
      <trkpt lat="47.52166" lon="6.6623">
        <ele>378</ele>
        <time>2016-03-20T10:20:36.000Z</time>
      </trkpt>
      <trkpt lat="47.52164" lon="6.66233">
        <ele>378</ele>
        <time>2016-03-20T10:20:37.000Z</time>
      </trkpt>
      <trkpt lat="47.52162" lon="6.66235">
        <ele>379</ele>
        <time>2016-03-20T10:20:38.000Z</time>
      </trkpt>
      <trkpt lat="47.5216" lon="6.66237">
        <ele>379</ele>
        <time>2016-03-20T10:20:39.000Z</time>
      </trkpt>
      <trkpt lat="47.52158" lon="6.66239">
        <ele>379</ele>
        <time>2016-03-20T10:20:40.000Z</time>
      </trkpt>
      <trkpt lat="47.52155" lon="6.66242">
        <ele>379</ele>
        <time>2016-03-20T10:20:41.000Z</time>
      </trkpt>
      <trkpt lat="47.52153" lon="6.66245">
        <ele>379</ele>
        <time>2016-03-20T10:20:42.000Z</time>
      </trkpt>
      <trkpt lat="47.52151" lon="6.66247">
        <ele>378</ele>
        <time>2016-03-20T10:20:43.000Z</time>
      </trkpt>
      <trkpt lat="47.52148" lon="6.66249">
        <ele>378</ele>
        <time>2016-03-20T10:20:44.000Z</time>
      </trkpt>
      <trkpt lat="47.52146" lon="6.66252">
        <ele>378</ele>
        <time>2016-03-20T10:20:45.000Z</time>
      </trkpt>
      <trkpt lat="47.52143" lon="6.66255">
        <ele>378</ele>
        <time>2016-03-20T10:20:46.000Z</time>
      </trkpt>
      <trkpt lat="47.52141" lon="6.66258">
        <ele>378</ele>
        <time>2016-03-20T10:20:47.000Z</time>
      </trkpt>
      <trkpt lat="47.52137" lon="6.66267">
        <ele>378</ele>
        <time>2016-03-20T10:20:48.000Z</time>
      </trkpt>
      <trkpt lat="47.52135" lon="6.66273">
        <ele>378</ele>
        <time>2016-03-20T10:20:49.000Z</time>
      </trkpt>
      <trkpt lat="47.52132" lon="6.66278">
        <ele>378</ele>
        <time>2016-03-20T10:20:50.000Z</time>
      </trkpt>
      <trkpt lat="47.5213" lon="6.66283">
        <ele>378</ele>
        <time>2016-03-20T10:20:51.000Z</time>
      </trkpt>
      <trkpt lat="47.52126" lon="6.66285">
        <ele>378</ele>
        <time>2016-03-20T10:20:52.000Z</time>
      </trkpt>
      <trkpt lat="47.52124" lon="6.66289">
        <ele>378</ele>
        <time>2016-03-20T10:20:53.000Z</time>
      </trkpt>
      <trkpt lat="47.52121" lon="6.66293">
        <ele>378</ele>
        <time>2016-03-20T10:20:54.000Z</time>
      </trkpt>
      <trkpt lat="47.52118" lon="6.66297">
        <ele>378</ele>
        <time>2016-03-20T10:20:55.000Z</time>
      </trkpt>
      <trkpt lat="47.52115" lon="6.66301">
        <ele>378</ele>
        <time>2016-03-20T10:20:56.000Z</time>
      </trkpt>
      <trkpt lat="47.52112" lon="6.66305">
        <ele>378</ele>
        <time>2016-03-20T10:20:57.000Z</time>
      </trkpt>
      <trkpt lat="47.52109" lon="6.6631">
        <ele>378</ele>
        <time>2016-03-20T10:20:58.000Z</time>
      </trkpt>
      <trkpt lat="47.52107" lon="6.66315">
        <ele>377</ele>
        <time>2016-03-20T10:20:59.000Z</time>
      </trkpt>
      <trkpt lat="47.52104" lon="6.6632">
        <ele>377</ele>
        <time>2016-03-20T10:21:00.000Z</time>
      </trkpt>
      <trkpt lat="47.52102" lon="6.66325">
        <ele>377</ele>
        <time>2016-03-20T10:21:01.000Z</time>
      </trkpt>
      <trkpt lat="47.52101" lon="6.66331">
        <ele>377</ele>
        <time>2016-03-20T10:21:02.000Z</time>
      </trkpt>
      <trkpt lat="47.52101" lon="6.66337">
        <ele>377</ele>
        <time>2016-03-20T10:21:03.000Z</time>
      </trkpt>
      <trkpt lat="47.52101" lon="6.66342">
        <ele>377</ele>
        <time>2016-03-20T10:21:04.000Z</time>
      </trkpt>
      <trkpt lat="47.52102" lon="6.66348">
        <ele>377</ele>
        <time>2016-03-20T10:21:05.000Z</time>
      </trkpt>
      <trkpt lat="47.52102" lon="6.66354">
        <ele>377</ele>
        <time>2016-03-20T10:21:06.000Z</time>
      </trkpt>
      <trkpt lat="47.52103" lon="6.66359">
        <ele>377</ele>
        <time>2016-03-20T10:21:07.000Z</time>
      </trkpt>
      <trkpt lat="47.52104" lon="6.66365">
        <ele>377</ele>
        <time>2016-03-20T10:21:08.000Z</time>
      </trkpt>
      <trkpt lat="47.52105" lon="6.66371">
        <ele>377</ele>
        <time>2016-03-20T10:21:09.000Z</time>
      </trkpt>
      <trkpt lat="47.52106" lon="6.66376">
        <ele>377</ele>
        <time>2016-03-20T10:21:10.000Z</time>
      </trkpt>
      <trkpt lat="47.52107" lon="6.66382">
        <ele>377</ele>
        <time>2016-03-20T10:21:11.000Z</time>
      </trkpt>
      <trkpt lat="47.52107" lon="6.66387">
        <ele>377</ele>
        <time>2016-03-20T10:21:12.000Z</time>
      </trkpt>
      <trkpt lat="47.52108" lon="6.66393">
        <ele>377</ele>
        <time>2016-03-20T10:21:13.000Z</time>
      </trkpt>
      <trkpt lat="47.52109" lon="6.66398">
        <ele>377</ele>
        <time>2016-03-20T10:21:14.000Z</time>
      </trkpt>
      <trkpt lat="47.5211" lon="6.66403">
        <ele>377</ele>
        <time>2016-03-20T10:21:15.000Z</time>
      </trkpt>
      <trkpt lat="47.52111" lon="6.66407">
        <ele>377</ele>
        <time>2016-03-20T10:21:16.000Z</time>
      </trkpt>
      <trkpt lat="47.52112" lon="6.66412">
        <ele>377</ele>
        <time>2016-03-20T10:21:17.000Z</time>
      </trkpt>
      <trkpt lat="47.52113" lon="6.66417">
        <ele>377</ele>
        <time>2016-03-20T10:21:18.000Z</time>
      </trkpt>
      <trkpt lat="47.52114" lon="6.66421">
        <ele>377</ele>
        <time>2016-03-20T10:21:19.000Z</time>
      </trkpt>
      <trkpt lat="47.52115" lon="6.66427">
        <ele>377</ele>
        <time>2016-03-20T10:21:20.000Z</time>
      </trkpt>
      <trkpt lat="47.52115" lon="6.66432">
        <ele>377</ele>
        <time>2016-03-20T10:21:21.000Z</time>
      </trkpt>
      <trkpt lat="47.52116" lon="6.66438">
        <ele>378</ele>
        <time>2016-03-20T10:21:22.000Z</time>
      </trkpt>
      <trkpt lat="47.52116" lon="6.66444">
        <ele>378</ele>
        <time>2016-03-20T10:21:23.000Z</time>
      </trkpt>
      <trkpt lat="47.52117" lon="6.6645">
        <ele>378</ele>
        <time>2016-03-20T10:21:24.000Z</time>
      </trkpt>
      <trkpt lat="47.52117" lon="6.66455">
        <ele>378</ele>
        <time>2016-03-20T10:21:25.000Z</time>
      </trkpt>
      <trkpt lat="47.52116" lon="6.66461">
        <ele>378</ele>
        <time>2016-03-20T10:21:26.000Z</time>
      </trkpt>
      <trkpt lat="47.52116" lon="6.66466">
        <ele>378</ele>
        <time>2016-03-20T10:21:27.000Z</time>
      </trkpt>
      <trkpt lat="47.52116" lon="6.66472">
        <ele>378</ele>
        <time>2016-03-20T10:21:28.000Z</time>
      </trkpt>
      <trkpt lat="47.52115" lon="6.66477">
        <ele>378</ele>
        <time>2016-03-20T10:21:29.000Z</time>
      </trkpt>
      <trkpt lat="47.52115" lon="6.66482">
        <ele>378</ele>
        <time>2016-03-20T10:21:30.000Z</time>
      </trkpt>
      <trkpt lat="47.52115" lon="6.66487">
        <ele>378</ele>
        <time>2016-03-20T10:21:31.000Z</time>
      </trkpt>
      <trkpt lat="47.52115" lon="6.66491">
        <ele>378</ele>
        <time>2016-03-20T10:21:32.000Z</time>
      </trkpt>
      <trkpt lat="47.52115" lon="6.66495">
        <ele>378</ele>
        <time>2016-03-20T10:21:33.000Z</time>
      </trkpt>
      <trkpt lat="47.52114" lon="6.66499">
        <ele>378</ele>
        <time>2016-03-20T10:21:34.000Z</time>
      </trkpt>
      <trkpt lat="47.52114" lon="6.66504">
        <ele>378</ele>
        <time>2016-03-20T10:21:35.000Z</time>
      </trkpt>
      <trkpt lat="47.52114" lon="6.66509">
        <ele>378</ele>
        <time>2016-03-20T10:21:36.000Z</time>
      </trkpt>
      <trkpt lat="47.52113" lon="6.66514">
        <ele>378</ele>
        <time>2016-03-20T10:21:37.000Z</time>
      </trkpt>
      <trkpt lat="47.52113" lon="6.66519">
        <ele>378</ele>
        <time>2016-03-20T10:21:38.000Z</time>
      </trkpt>
      <trkpt lat="47.52112" lon="6.66524">
        <ele>378</ele>
        <time>2016-03-20T10:21:39.000Z</time>
      </trkpt>
      <trkpt lat="47.52111" lon="6.66529">
        <ele>378</ele>
        <time>2016-03-20T10:21:40.000Z</time>
      </trkpt>
      <trkpt lat="47.52111" lon="6.66535">
        <ele>378</ele>
        <time>2016-03-20T10:21:41.000Z</time>
      </trkpt>
      <trkpt lat="47.5211" lon="6.6654">
        <ele>378</ele>
        <time>2016-03-20T10:21:42.000Z</time>
      </trkpt>
      <trkpt lat="47.5211" lon="6.66546">
        <ele>378</ele>
        <time>2016-03-20T10:21:43.000Z</time>
      </trkpt>
      <trkpt lat="47.5211" lon="6.66551">
        <ele>378</ele>
        <time>2016-03-20T10:21:44.000Z</time>
      </trkpt>
      <trkpt lat="47.5211" lon="6.66557">
        <ele>378</ele>
        <time>2016-03-20T10:21:45.000Z</time>
      </trkpt>
      <trkpt lat="47.5211" lon="6.66562">
        <ele>378</ele>
        <time>2016-03-20T10:21:46.000Z</time>
      </trkpt>
      <trkpt lat="47.52111" lon="6.66567">
        <ele>378</ele>
        <time>2016-03-20T10:21:47.000Z</time>
      </trkpt>
      <trkpt lat="47.52111" lon="6.66572">
        <ele>378</ele>
        <time>2016-03-20T10:21:48.000Z</time>
      </trkpt>
      <trkpt lat="47.5211" lon="6.66577">
        <ele>378</ele>
        <time>2016-03-20T10:21:49.000Z</time>
      </trkpt>
      <trkpt lat="47.5211" lon="6.66582">
        <ele>377</ele>
        <time>2016-03-20T10:21:50.000Z</time>
      </trkpt>
      <trkpt lat="47.52109" lon="6.66587">
        <ele>377</ele>
        <time>2016-03-20T10:21:51.000Z</time>
      </trkpt>
      <trkpt lat="47.52109" lon="6.66593">
        <ele>377</ele>
        <time>2016-03-20T10:21:52.000Z</time>
      </trkpt>
      <trkpt lat="47.52108" lon="6.66598">
        <ele>378</ele>
        <time>2016-03-20T10:21:53.000Z</time>
      </trkpt>
      <trkpt lat="47.52108" lon="6.66604">
        <ele>378</ele>
        <time>2016-03-20T10:21:54.000Z</time>
      </trkpt>
      <trkpt lat="47.52108" lon="6.66609">
        <ele>378</ele>
        <time>2016-03-20T10:21:55.000Z</time>
      </trkpt>
      <trkpt lat="47.52108" lon="6.66615">
        <ele>378</ele>
        <time>2016-03-20T10:21:56.000Z</time>
      </trkpt>
      <trkpt lat="47.52108" lon="6.6662">
        <ele>378</ele>
        <time>2016-03-20T10:21:57.000Z</time>
      </trkpt>
      <trkpt lat="47.52108" lon="6.66626">
        <ele>378</ele>
        <time>2016-03-20T10:21:58.000Z</time>
      </trkpt>
      <trkpt lat="47.52108" lon="6.66632">
        <ele>378</ele>
        <time>2016-03-20T10:21:59.000Z</time>
      </trkpt>
      <trkpt lat="47.52108" lon="6.66639">
        <ele>378</ele>
        <time>2016-03-20T10:22:00.000Z</time>
      </trkpt>
      <trkpt lat="47.52108" lon="6.66645">
        <ele>378</ele>
        <time>2016-03-20T10:22:01.000Z</time>
      </trkpt>
      <trkpt lat="47.52109" lon="6.66651">
        <ele>378</ele>
        <time>2016-03-20T10:22:02.000Z</time>
      </trkpt>
      <trkpt lat="47.52109" lon="6.66657">
        <ele>378</ele>
        <time>2016-03-20T10:22:03.000Z</time>
      </trkpt>
      <trkpt lat="47.52109" lon="6.66664">
        <ele>378</ele>
        <time>2016-03-20T10:22:04.000Z</time>
      </trkpt>
      <trkpt lat="47.52109" lon="6.6667">
        <ele>377</ele>
        <time>2016-03-20T10:22:05.000Z</time>
      </trkpt>
      <trkpt lat="47.52109" lon="6.66677">
        <ele>377</ele>
        <time>2016-03-20T10:22:06.000Z</time>
      </trkpt>
      <trkpt lat="47.52109" lon="6.66683">
        <ele>377</ele>
        <time>2016-03-20T10:22:07.000Z</time>
      </trkpt>
      <trkpt lat="47.52109" lon="6.66691">
        <ele>377</ele>
        <time>2016-03-20T10:22:08.000Z</time>
      </trkpt>
      <trkpt lat="47.52109" lon="6.66698">
        <ele>377</ele>
        <time>2016-03-20T10:22:09.000Z</time>
      </trkpt>
      <trkpt lat="47.52109" lon="6.66704">
        <ele>377</ele>
        <time>2016-03-20T10:22:10.000Z</time>
      </trkpt>
      <trkpt lat="47.52109" lon="6.66712">
        <ele>377</ele>
        <time>2016-03-20T10:22:11.000Z</time>
      </trkpt>
      <trkpt lat="47.52109" lon="6.6672">
        <ele>377</ele>
        <time>2016-03-20T10:22:12.000Z</time>
      </trkpt>
      <trkpt lat="47.52109" lon="6.66726">
        <ele>377</ele>
        <time>2016-03-20T10:22:13.000Z</time>
      </trkpt>
      <trkpt lat="47.5211" lon="6.66734">
        <ele>377</ele>
        <time>2016-03-20T10:22:14.000Z</time>
      </trkpt>
      <trkpt lat="47.5211" lon="6.6674">
        <ele>377</ele>
        <time>2016-03-20T10:22:15.000Z</time>
      </trkpt>
      <trkpt lat="47.52109" lon="6.66746">
        <ele>377</ele>
        <time>2016-03-20T10:22:16.000Z</time>
      </trkpt>
      <trkpt lat="47.52109" lon="6.66753">
        <ele>377</ele>
        <time>2016-03-20T10:22:17.000Z</time>
      </trkpt>
      <trkpt lat="47.52109" lon="6.6676">
        <ele>377</ele>
        <time>2016-03-20T10:22:18.000Z</time>
      </trkpt>
      <trkpt lat="47.52109" lon="6.66768">
        <ele>377</ele>
        <time>2016-03-20T10:22:19.000Z</time>
      </trkpt>
      <trkpt lat="47.52108" lon="6.66775">
        <ele>377</ele>
        <time>2016-03-20T10:22:20.000Z</time>
      </trkpt>
      <trkpt lat="47.52108" lon="6.66782">
        <ele>377</ele>
        <time>2016-03-20T10:22:21.000Z</time>
      </trkpt>
      <trkpt lat="47.5211" lon="6.66789">
        <ele>377</ele>
        <time>2016-03-20T10:22:22.000Z</time>
      </trkpt>
      <trkpt lat="47.5211" lon="6.66796">
        <ele>377</ele>
        <time>2016-03-20T10:22:23.000Z</time>
      </trkpt>
      <trkpt lat="47.52109" lon="6.66804">
        <ele>377</ele>
        <time>2016-03-20T10:22:24.000Z</time>
      </trkpt>
      <trkpt lat="47.5211" lon="6.6681">
        <ele>377</ele>
        <time>2016-03-20T10:22:25.000Z</time>
      </trkpt>
      <trkpt lat="47.5211" lon="6.66818">
        <ele>377</ele>
        <time>2016-03-20T10:22:26.000Z</time>
      </trkpt>
      <trkpt lat="47.52111" lon="6.66825">
        <ele>377</ele>
        <time>2016-03-20T10:22:27.000Z</time>
      </trkpt>
      <trkpt lat="47.5211" lon="6.66831">
        <ele>377</ele>
        <time>2016-03-20T10:22:28.000Z</time>
      </trkpt>
      <trkpt lat="47.5211" lon="6.66838">
        <ele>376</ele>
        <time>2016-03-20T10:22:29.000Z</time>
      </trkpt>
      <trkpt lat="47.52112" lon="6.66845">
        <ele>376</ele>
        <time>2016-03-20T10:22:30.000Z</time>
      </trkpt>
      <trkpt lat="47.52112" lon="6.66852">
        <ele>376</ele>
        <time>2016-03-20T10:22:31.000Z</time>
      </trkpt>
      <trkpt lat="47.52112" lon="6.66859">
        <ele>376</ele>
        <time>2016-03-20T10:22:32.000Z</time>
      </trkpt>
      <trkpt lat="47.52112" lon="6.66865">
        <ele>376</ele>
        <time>2016-03-20T10:22:33.000Z</time>
      </trkpt>
      <trkpt lat="47.52112" lon="6.66872">
        <ele>376</ele>
        <time>2016-03-20T10:22:34.000Z</time>
      </trkpt>
      <trkpt lat="47.5211" lon="6.66879">
        <ele>376</ele>
        <time>2016-03-20T10:22:35.000Z</time>
      </trkpt>
      <trkpt lat="47.5211" lon="6.66887">
        <ele>376</ele>
        <time>2016-03-20T10:22:36.000Z</time>
      </trkpt>
      <trkpt lat="47.52111" lon="6.66892">
        <ele>376</ele>
        <time>2016-03-20T10:22:37.000Z</time>
      </trkpt>
      <trkpt lat="47.52111" lon="6.66898">
        <ele>376</ele>
        <time>2016-03-20T10:22:38.000Z</time>
      </trkpt>
      <trkpt lat="47.52111" lon="6.66905">
        <ele>376</ele>
        <time>2016-03-20T10:22:39.000Z</time>
      </trkpt>
      <trkpt lat="47.5211" lon="6.66911">
        <ele>376</ele>
        <time>2016-03-20T10:22:40.000Z</time>
      </trkpt>
      <trkpt lat="47.52111" lon="6.66919">
        <ele>375</ele>
        <time>2016-03-20T10:22:41.000Z</time>
      </trkpt>
      <trkpt lat="47.52111" lon="6.66926">
        <ele>375</ele>
        <time>2016-03-20T10:22:42.000Z</time>
      </trkpt>
      <trkpt lat="47.52111" lon="6.6693">
        <ele>375</ele>
        <time>2016-03-20T10:22:43.000Z</time>
      </trkpt>
      <trkpt lat="47.52111" lon="6.66936">
        <ele>375</ele>
        <time>2016-03-20T10:22:44.000Z</time>
      </trkpt>
      <trkpt lat="47.52112" lon="6.66945">
        <ele>375</ele>
        <time>2016-03-20T10:22:45.000Z</time>
      </trkpt>
      <trkpt lat="47.52112" lon="6.66952">
        <ele>375</ele>
        <time>2016-03-20T10:22:46.000Z</time>
      </trkpt>
      <trkpt lat="47.52112" lon="6.6696">
        <ele>375</ele>
        <time>2016-03-20T10:22:47.000Z</time>
      </trkpt>
      <trkpt lat="47.52112" lon="6.66967">
        <ele>375</ele>
        <time>2016-03-20T10:22:48.000Z</time>
      </trkpt>
      <trkpt lat="47.52114" lon="6.66973">
        <ele>375</ele>
        <time>2016-03-20T10:22:49.000Z</time>
      </trkpt>
      <trkpt lat="47.52114" lon="6.6698">
        <ele>375</ele>
        <time>2016-03-20T10:22:50.000Z</time>
      </trkpt>
      <trkpt lat="47.52115" lon="6.66988">
        <ele>375</ele>
        <time>2016-03-20T10:22:51.000Z</time>
      </trkpt>
      <trkpt lat="47.52117" lon="6.66995">
        <ele>375</ele>
        <time>2016-03-20T10:22:52.000Z</time>
      </trkpt>
      <trkpt lat="47.52118" lon="6.67003">
        <ele>374</ele>
        <time>2016-03-20T10:22:53.000Z</time>
      </trkpt>
      <trkpt lat="47.52119" lon="6.67009">
        <ele>374</ele>
        <time>2016-03-20T10:22:54.000Z</time>
      </trkpt>
      <trkpt lat="47.5212" lon="6.67016">
        <ele>374</ele>
        <time>2016-03-20T10:22:55.000Z</time>
      </trkpt>
      <trkpt lat="47.52121" lon="6.67022">
        <ele>374</ele>
        <time>2016-03-20T10:22:56.000Z</time>
      </trkpt>
      <trkpt lat="47.52123" lon="6.67028">
        <ele>374</ele>
        <time>2016-03-20T10:22:57.000Z</time>
      </trkpt>
      <trkpt lat="47.52124" lon="6.67035">
        <ele>374</ele>
        <time>2016-03-20T10:22:58.000Z</time>
      </trkpt>
      <trkpt lat="47.52126" lon="6.67042">
        <ele>374</ele>
        <time>2016-03-20T10:22:59.000Z</time>
      </trkpt>
      <trkpt lat="47.52127" lon="6.67049">
        <ele>374</ele>
        <time>2016-03-20T10:23:00.000Z</time>
      </trkpt>
      <trkpt lat="47.52129" lon="6.67056">
        <ele>374</ele>
        <time>2016-03-20T10:23:01.000Z</time>
      </trkpt>
      <trkpt lat="47.52131" lon="6.67064">
        <ele>374</ele>
        <time>2016-03-20T10:23:02.000Z</time>
      </trkpt>
      <trkpt lat="47.52133" lon="6.67071">
        <ele>374</ele>
        <time>2016-03-20T10:23:02.999Z</time>
      </trkpt>
      <trkpt lat="47.52134" lon="6.67077">
        <ele>373</ele>
        <time>2016-03-20T10:23:04.000Z</time>
      </trkpt>
      <trkpt lat="47.52135" lon="6.67085">
        <ele>373</ele>
        <time>2016-03-20T10:23:05.000Z</time>
      </trkpt>
      <trkpt lat="47.52136" lon="6.67093">
        <ele>373</ele>
        <time>2016-03-20T10:23:06.000Z</time>
      </trkpt>
      <trkpt lat="47.52138" lon="6.67099">
        <ele>373</ele>
        <time>2016-03-20T10:23:07.000Z</time>
      </trkpt>
      <trkpt lat="47.52139" lon="6.67105">
        <ele>372</ele>
        <time>2016-03-20T10:23:08.000Z</time>
      </trkpt>
      <trkpt lat="47.52141" lon="6.67112">
        <ele>372</ele>
        <time>2016-03-20T10:23:08.999Z</time>
      </trkpt>
      <trkpt lat="47.52142" lon="6.67119">
        <ele>372</ele>
        <time>2016-03-20T10:23:10.000Z</time>
      </trkpt>
      <trkpt lat="47.52143" lon="6.67126">
        <ele>372</ele>
        <time>2016-03-20T10:23:11.000Z</time>
      </trkpt>
      <trkpt lat="47.52144" lon="6.67133">
        <ele>372</ele>
        <time>2016-03-20T10:23:12.000Z</time>
      </trkpt>
      <trkpt lat="47.52146" lon="6.67139">
        <ele>372</ele>
        <time>2016-03-20T10:23:13.000Z</time>
      </trkpt>
      <trkpt lat="47.52147" lon="6.67147">
        <ele>372</ele>
        <time>2016-03-20T10:23:14.000Z</time>
      </trkpt>
      <trkpt lat="47.52148" lon="6.67154">
        <ele>372</ele>
        <time>2016-03-20T10:23:15.000Z</time>
      </trkpt>
      <trkpt lat="47.5215" lon="6.67161">
        <ele>372</ele>
        <time>2016-03-20T10:23:16.000Z</time>
      </trkpt>
      <trkpt lat="47.52151" lon="6.67168">
        <ele>372</ele>
        <time>2016-03-20T10:23:17.000Z</time>
      </trkpt>
      <trkpt lat="47.52152" lon="6.67175">
        <ele>372</ele>
        <time>2016-03-20T10:23:18.000Z</time>
      </trkpt>
      <trkpt lat="47.52154" lon="6.67182">
        <ele>372</ele>
        <time>2016-03-20T10:23:19.000Z</time>
      </trkpt>
      <trkpt lat="47.52155" lon="6.6719">
        <ele>372</ele>
        <time>2016-03-20T10:23:20.000Z</time>
      </trkpt>
      <trkpt lat="47.52155" lon="6.67197">
        <ele>372</ele>
        <time>2016-03-20T10:23:21.000Z</time>
      </trkpt>
      <trkpt lat="47.52156" lon="6.67205">
        <ele>371</ele>
        <time>2016-03-20T10:23:22.000Z</time>
      </trkpt>
      <trkpt lat="47.52158" lon="6.6721">
        <ele>372</ele>
        <time>2016-03-20T10:23:23.000Z</time>
      </trkpt>
      <trkpt lat="47.5216" lon="6.67216">
        <ele>372</ele>
        <time>2016-03-20T10:23:24.000Z</time>
      </trkpt>
      <trkpt lat="47.52161" lon="6.67223">
        <ele>372</ele>
        <time>2016-03-20T10:23:25.000Z</time>
      </trkpt>
      <trkpt lat="47.52162" lon="6.6723">
        <ele>372</ele>
        <time>2016-03-20T10:23:26.000Z</time>
      </trkpt>
      <trkpt lat="47.52163" lon="6.67236">
        <ele>372</ele>
        <time>2016-03-20T10:23:27.000Z</time>
      </trkpt>
      <trkpt lat="47.52164" lon="6.67242">
        <ele>372</ele>
        <time>2016-03-20T10:23:28.000Z</time>
      </trkpt>
      <trkpt lat="47.52166" lon="6.67248">
        <ele>372</ele>
        <time>2016-03-20T10:23:29.000Z</time>
      </trkpt>
      <trkpt lat="47.52167" lon="6.67256">
        <ele>372</ele>
        <time>2016-03-20T10:23:30.000Z</time>
      </trkpt>
      <trkpt lat="47.52167" lon="6.67263">
        <ele>372</ele>
        <time>2016-03-20T10:23:31.000Z</time>
      </trkpt>
      <trkpt lat="47.52169" lon="6.67269">
        <ele>372</ele>
        <time>2016-03-20T10:23:32.001Z</time>
      </trkpt>
      <trkpt lat="47.52169" lon="6.67276">
        <ele>372</ele>
        <time>2016-03-20T10:23:33.000Z</time>
      </trkpt>
      <trkpt lat="47.52169" lon="6.67284">
        <ele>372</ele>
        <time>2016-03-20T10:23:34.000Z</time>
      </trkpt>
      <trkpt lat="47.52169" lon="6.67292">
        <ele>372</ele>
        <time>2016-03-20T10:23:34.999Z</time>
      </trkpt>
      <trkpt lat="47.52169" lon="6.67299">
        <ele>372</ele>
        <time>2016-03-20T10:23:36.001Z</time>
      </trkpt>
      <trkpt lat="47.52171" lon="6.67306">
        <ele>372</ele>
        <time>2016-03-20T10:23:37.000Z</time>
      </trkpt>
      <trkpt lat="47.52171" lon="6.67313">
        <ele>372</ele>
        <time>2016-03-20T10:23:38.000Z</time>
      </trkpt>
      <trkpt lat="47.52171" lon="6.6732">
        <ele>372</ele>
        <time>2016-03-20T10:23:39.000Z</time>
      </trkpt>
      <trkpt lat="47.52171" lon="6.67328">
        <ele>372</ele>
        <time>2016-03-20T10:23:40.000Z</time>
      </trkpt>
      <trkpt lat="47.52171" lon="6.67335">
        <ele>372</ele>
        <time>2016-03-20T10:23:41.000Z</time>
      </trkpt>
      <trkpt lat="47.52172" lon="6.67343">
        <ele>372</ele>
        <time>2016-03-20T10:23:42.000Z</time>
      </trkpt>
      <trkpt lat="47.52172" lon="6.6735">
        <ele>372</ele>
        <time>2016-03-20T10:23:43.000Z</time>
      </trkpt>
      <trkpt lat="47.52174" lon="6.67358">
        <ele>372</ele>
        <time>2016-03-20T10:23:44.000Z</time>
      </trkpt>
      <trkpt lat="47.52175" lon="6.67365">
        <ele>372</ele>
        <time>2016-03-20T10:23:45.000Z</time>
      </trkpt>
      <trkpt lat="47.52178" lon="6.67372">
        <ele>372</ele>
        <time>2016-03-20T10:23:46.000Z</time>
      </trkpt>
      <trkpt lat="47.5218" lon="6.6738">
        <ele>372</ele>
        <time>2016-03-20T10:23:47.000Z</time>
      </trkpt>
      <trkpt lat="47.52182" lon="6.67386">
        <ele>372</ele>
        <time>2016-03-20T10:23:47.999Z</time>
      </trkpt>
      <trkpt lat="47.52184" lon="6.67393">
        <ele>372</ele>
        <time>2016-03-20T10:23:49.000Z</time>
      </trkpt>
      <trkpt lat="47.52185" lon="6.67402">
        <ele>371</ele>
        <time>2016-03-20T10:23:50.000Z</time>
      </trkpt>
      <trkpt lat="47.52186" lon="6.67408">
        <ele>371</ele>
        <time>2016-03-20T10:23:51.000Z</time>
      </trkpt>
      <trkpt lat="47.52188" lon="6.67414">
        <ele>371</ele>
        <time>2016-03-20T10:23:52.000Z</time>
      </trkpt>
      <trkpt lat="47.5219" lon="6.6742">
        <ele>371</ele>
        <time>2016-03-20T10:23:53.000Z</time>
      </trkpt>
      <trkpt lat="47.52192" lon="6.67425">
        <ele>371</ele>
        <time>2016-03-20T10:23:54.000Z</time>
      </trkpt>
      <trkpt lat="47.52194" lon="6.67431">
        <ele>371</ele>
        <time>2016-03-20T10:23:55.000Z</time>
      </trkpt>
      <trkpt lat="47.52196" lon="6.67437">
        <ele>371</ele>
        <time>2016-03-20T10:23:56.000Z</time>
      </trkpt>
      <trkpt lat="47.52198" lon="6.67443">
        <ele>371</ele>
        <time>2016-03-20T10:23:57.001Z</time>
      </trkpt>
      <trkpt lat="47.522" lon="6.67449">
        <ele>371</ele>
        <time>2016-03-20T10:23:58.000Z</time>
      </trkpt>
      <trkpt lat="47.52202" lon="6.67456">
        <ele>371</ele>
        <time>2016-03-20T10:23:59.000Z</time>
      </trkpt>
      <trkpt lat="47.52203" lon="6.67464">
        <ele>371</ele>
        <time>2016-03-20T10:24:00.000Z</time>
      </trkpt>
      <trkpt lat="47.52206" lon="6.6747">
        <ele>371</ele>
        <time>2016-03-20T10:24:01.000Z</time>
      </trkpt>
      <trkpt lat="47.52208" lon="6.67477">
        <ele>371</ele>
        <time>2016-03-20T10:24:02.000Z</time>
      </trkpt>
      <trkpt lat="47.52208" lon="6.67483">
        <ele>371</ele>
        <time>2016-03-20T10:24:03.000Z</time>
      </trkpt>
      <trkpt lat="47.52209" lon="6.6749">
        <ele>372</ele>
        <time>2016-03-20T10:24:04.000Z</time>
      </trkpt>
      <trkpt lat="47.52209" lon="6.67497">
        <ele>372</ele>
        <time>2016-03-20T10:24:05.000Z</time>
      </trkpt>
      <trkpt lat="47.52208" lon="6.67503">
        <ele>371</ele>
        <time>2016-03-20T10:24:06.000Z</time>
      </trkpt>
      <trkpt lat="47.52208" lon="6.6751">
        <ele>371</ele>
        <time>2016-03-20T10:24:07.000Z</time>
      </trkpt>
      <trkpt lat="47.52208" lon="6.67516">
        <ele>371</ele>
        <time>2016-03-20T10:24:08.001Z</time>
      </trkpt>
      <trkpt lat="47.52208" lon="6.67521">
        <ele>371</ele>
        <time>2016-03-20T10:24:09.000Z</time>
      </trkpt>
      <trkpt lat="47.52208" lon="6.67528">
        <ele>371</ele>
        <time>2016-03-20T10:24:10.000Z</time>
      </trkpt>
      <trkpt lat="47.52207" lon="6.67534">
        <ele>371</ele>
        <time>2016-03-20T10:24:11.000Z</time>
      </trkpt>
      <trkpt lat="47.52207" lon="6.67541">
        <ele>371</ele>
        <time>2016-03-20T10:24:12.000Z</time>
      </trkpt>
      <trkpt lat="47.52207" lon="6.67547">
        <ele>371</ele>
        <time>2016-03-20T10:24:13.000Z</time>
      </trkpt>
      <trkpt lat="47.52207" lon="6.67554">
        <ele>371</ele>
        <time>2016-03-20T10:24:14.000Z</time>
      </trkpt>
      <trkpt lat="47.52207" lon="6.67561">
        <ele>371</ele>
        <time>2016-03-20T10:24:15.000Z</time>
      </trkpt>
      <trkpt lat="47.52206" lon="6.67567">
        <ele>371</ele>
        <time>2016-03-20T10:24:15.998Z</time>
      </trkpt>
      <trkpt lat="47.52207" lon="6.67574">
        <ele>370</ele>
        <time>2016-03-20T10:24:17.000Z</time>
      </trkpt>
      <trkpt lat="47.52207" lon="6.67583">
        <ele>370</ele>
        <time>2016-03-20T10:24:18.000Z</time>
      </trkpt>
      <trkpt lat="47.52207" lon="6.67588">
        <ele>369</ele>
        <time>2016-03-20T10:24:19.000Z</time>
      </trkpt>
      <trkpt lat="47.52207" lon="6.67595">
        <ele>369</ele>
        <time>2016-03-20T10:24:20.000Z</time>
      </trkpt>
      <trkpt lat="47.52206" lon="6.67601">
        <ele>369</ele>
        <time>2016-03-20T10:24:21.000Z</time>
      </trkpt>
      <trkpt lat="47.52205" lon="6.67607">
        <ele>369</ele>
        <time>2016-03-20T10:24:22.000Z</time>
      </trkpt>
      <trkpt lat="47.52205" lon="6.67615">
        <ele>369</ele>
        <time>2016-03-20T10:24:23.000Z</time>
      </trkpt>
      <trkpt lat="47.52204" lon="6.67621">
        <ele>369</ele>
        <time>2016-03-20T10:24:24.000Z</time>
      </trkpt>
      <trkpt lat="47.52205" lon="6.67628">
        <ele>369</ele>
        <time>2016-03-20T10:24:25.000Z</time>
      </trkpt>
      <trkpt lat="47.52205" lon="6.67635">
        <ele>369</ele>
        <time>2016-03-20T10:24:26.000Z</time>
      </trkpt>
      <trkpt lat="47.52205" lon="6.67641">
        <ele>368</ele>
        <time>2016-03-20T10:24:27.000Z</time>
      </trkpt>
      <trkpt lat="47.52203" lon="6.67648">
        <ele>368</ele>
        <time>2016-03-20T10:24:28.000Z</time>
      </trkpt>
      <trkpt lat="47.52203" lon="6.67655">
        <ele>368</ele>
        <time>2016-03-20T10:24:29.000Z</time>
      </trkpt>
      <trkpt lat="47.52202" lon="6.67663">
        <ele>368</ele>
        <time>2016-03-20T10:24:30.000Z</time>
      </trkpt>
      <trkpt lat="47.52202" lon="6.6767">
        <ele>367</ele>
        <time>2016-03-20T10:24:31.000Z</time>
      </trkpt>
      <trkpt lat="47.52202" lon="6.67678">
        <ele>367</ele>
        <time>2016-03-20T10:24:32.000Z</time>
      </trkpt>
      <trkpt lat="47.52201" lon="6.67685">
        <ele>367</ele>
        <time>2016-03-20T10:24:33.000Z</time>
      </trkpt>
      <trkpt lat="47.522" lon="6.67692">
        <ele>367</ele>
        <time>2016-03-20T10:24:34.000Z</time>
      </trkpt>
      <trkpt lat="47.522" lon="6.67699">
        <ele>367</ele>
        <time>2016-03-20T10:24:35.000Z</time>
      </trkpt>
      <trkpt lat="47.522" lon="6.67707">
        <ele>367</ele>
        <time>2016-03-20T10:24:36.000Z</time>
      </trkpt>
      <trkpt lat="47.522" lon="6.67714">
        <ele>367</ele>
        <time>2016-03-20T10:24:37.000Z</time>
      </trkpt>
      <trkpt lat="47.52199" lon="6.67721">
        <ele>367</ele>
        <time>2016-03-20T10:24:38.000Z</time>
      </trkpt>
      <trkpt lat="47.52199" lon="6.67729">
        <ele>367</ele>
        <time>2016-03-20T10:24:39.000Z</time>
      </trkpt>
      <trkpt lat="47.52198" lon="6.67736">
        <ele>367</ele>
        <time>2016-03-20T10:24:40.000Z</time>
      </trkpt>
      <trkpt lat="47.52199" lon="6.67744">
        <ele>367</ele>
        <time>2016-03-20T10:24:41.000Z</time>
      </trkpt>
      <trkpt lat="47.52198" lon="6.67751">
        <ele>366</ele>
        <time>2016-03-20T10:24:42.000Z</time>
      </trkpt>
      <trkpt lat="47.52198" lon="6.67758">
        <ele>366</ele>
        <time>2016-03-20T10:24:43.000Z</time>
      </trkpt>
      <trkpt lat="47.52197" lon="6.67766">
        <ele>366</ele>
        <time>2016-03-20T10:24:44.000Z</time>
      </trkpt>
      <trkpt lat="47.52197" lon="6.67773">
        <ele>366</ele>
        <time>2016-03-20T10:24:45.000Z</time>
      </trkpt>
      <trkpt lat="47.52196" lon="6.6778">
        <ele>366</ele>
        <time>2016-03-20T10:24:46.000Z</time>
      </trkpt>
      <trkpt lat="47.52195" lon="6.67788">
        <ele>366</ele>
        <time>2016-03-20T10:24:47.000Z</time>
      </trkpt>
      <trkpt lat="47.52195" lon="6.67796">
        <ele>366</ele>
        <time>2016-03-20T10:24:48.000Z</time>
      </trkpt>
      <trkpt lat="47.52195" lon="6.67804">
        <ele>366</ele>
        <time>2016-03-20T10:24:49.000Z</time>
      </trkpt>
      <trkpt lat="47.52193" lon="6.67811">
        <ele>366</ele>
        <time>2016-03-20T10:24:50.000Z</time>
      </trkpt>
      <trkpt lat="47.52193" lon="6.67818">
        <ele>366</ele>
        <time>2016-03-20T10:24:51.000Z</time>
      </trkpt>
      <trkpt lat="47.52192" lon="6.67824">
        <ele>365</ele>
        <time>2016-03-20T10:24:52.000Z</time>
      </trkpt>
      <trkpt lat="47.52192" lon="6.67832">
        <ele>365</ele>
        <time>2016-03-20T10:24:53.000Z</time>
      </trkpt>
      <trkpt lat="47.52192" lon="6.6784">
        <ele>365</ele>
        <time>2016-03-20T10:24:54.000Z</time>
      </trkpt>
      <trkpt lat="47.52192" lon="6.67847">
        <ele>365</ele>
        <time>2016-03-20T10:24:55.000Z</time>
      </trkpt>
      <trkpt lat="47.52192" lon="6.67853">
        <ele>365</ele>
        <time>2016-03-20T10:24:56.000Z</time>
      </trkpt>
      <trkpt lat="47.52191" lon="6.67859">
        <ele>365</ele>
        <time>2016-03-20T10:24:57.000Z</time>
      </trkpt>
      <trkpt lat="47.52191" lon="6.67866">
        <ele>365</ele>
        <time>2016-03-20T10:24:58.000Z</time>
      </trkpt>
      <trkpt lat="47.5219" lon="6.67874">
        <ele>365</ele>
        <time>2016-03-20T10:24:59.000Z</time>
      </trkpt>
      <trkpt lat="47.5219" lon="6.6788">
        <ele>364</ele>
        <time>2016-03-20T10:25:00.000Z</time>
      </trkpt>
      <trkpt lat="47.52189" lon="6.67887">
        <ele>364</ele>
        <time>2016-03-20T10:25:01.000Z</time>
      </trkpt>
      <trkpt lat="47.52189" lon="6.67895">
        <ele>364</ele>
        <time>2016-03-20T10:25:02.000Z</time>
      </trkpt>
      <trkpt lat="47.52188" lon="6.67903">
        <ele>364</ele>
        <time>2016-03-20T10:25:03.000Z</time>
      </trkpt>
      <trkpt lat="47.52188" lon="6.6791">
        <ele>364</ele>
        <time>2016-03-20T10:25:04.000Z</time>
      </trkpt>
      <trkpt lat="47.52186" lon="6.67917">
        <ele>364</ele>
        <time>2016-03-20T10:25:05.000Z</time>
      </trkpt>
      <trkpt lat="47.52185" lon="6.67924">
        <ele>364</ele>
        <time>2016-03-20T10:25:06.000Z</time>
      </trkpt>
      <trkpt lat="47.52186" lon="6.67935">
        <ele>364</ele>
        <time>2016-03-20T10:25:07.000Z</time>
      </trkpt>
      <trkpt lat="47.52186" lon="6.67942">
        <ele>364</ele>
        <time>2016-03-20T10:25:08.000Z</time>
      </trkpt>
      <trkpt lat="47.52185" lon="6.6795">
        <ele>364</ele>
        <time>2016-03-20T10:25:09.000Z</time>
      </trkpt>
      <trkpt lat="47.52185" lon="6.67958">
        <ele>364</ele>
        <time>2016-03-20T10:25:10.000Z</time>
      </trkpt>
      <trkpt lat="47.52185" lon="6.67965">
        <ele>363</ele>
        <time>2016-03-20T10:25:11.000Z</time>
      </trkpt>
      <trkpt lat="47.52184" lon="6.67973">
        <ele>363</ele>
        <time>2016-03-20T10:25:12.000Z</time>
      </trkpt>
      <trkpt lat="47.52183" lon="6.6798">
        <ele>363</ele>
        <time>2016-03-20T10:25:13.000Z</time>
      </trkpt>
      <trkpt lat="47.52183" lon="6.67987">
        <ele>363</ele>
        <time>2016-03-20T10:25:14.000Z</time>
      </trkpt>
      <trkpt lat="47.52183" lon="6.67994">
        <ele>363</ele>
        <time>2016-03-20T10:25:15.000Z</time>
      </trkpt>
      <trkpt lat="47.52181" lon="6.68">
        <ele>363</ele>
        <time>2016-03-20T10:25:16.000Z</time>
      </trkpt>
      <trkpt lat="47.52181" lon="6.68008">
        <ele>363</ele>
        <time>2016-03-20T10:25:17.000Z</time>
      </trkpt>
      <trkpt lat="47.5218" lon="6.68015">
        <ele>363</ele>
        <time>2016-03-20T10:25:18.000Z</time>
      </trkpt>
      <trkpt lat="47.5218" lon="6.68021">
        <ele>363</ele>
        <time>2016-03-20T10:25:19.000Z</time>
      </trkpt>
      <trkpt lat="47.5218" lon="6.68027">
        <ele>363</ele>
        <time>2016-03-20T10:25:20.000Z</time>
      </trkpt>
      <trkpt lat="47.5218" lon="6.68035">
        <ele>363</ele>
        <time>2016-03-20T10:25:21.000Z</time>
      </trkpt>
      <trkpt lat="47.52179" lon="6.68043">
        <ele>362</ele>
        <time>2016-03-20T10:25:22.000Z</time>
      </trkpt>
      <trkpt lat="47.52178" lon="6.6805">
        <ele>362</ele>
        <time>2016-03-20T10:25:23.000Z</time>
      </trkpt>
      <trkpt lat="47.52179" lon="6.68057">
        <ele>362</ele>
        <time>2016-03-20T10:25:24.000Z</time>
      </trkpt>
      <trkpt lat="47.52178" lon="6.68065">
        <ele>362</ele>
        <time>2016-03-20T10:25:25.000Z</time>
      </trkpt>
      <trkpt lat="47.52177" lon="6.68072">
        <ele>362</ele>
        <time>2016-03-20T10:25:26.000Z</time>
      </trkpt>
      <trkpt lat="47.52177" lon="6.6808">
        <ele>362</ele>
        <time>2016-03-20T10:25:27.000Z</time>
      </trkpt>
      <trkpt lat="47.52177" lon="6.68087">
        <ele>362</ele>
        <time>2016-03-20T10:25:28.000Z</time>
      </trkpt>
      <trkpt lat="47.52175" lon="6.68094">
        <ele>362</ele>
        <time>2016-03-20T10:25:29.000Z</time>
      </trkpt>
      <trkpt lat="47.52175" lon="6.68102">
        <ele>361</ele>
        <time>2016-03-20T10:25:30.000Z</time>
      </trkpt>
      <trkpt lat="47.52174" lon="6.68109">
        <ele>361</ele>
        <time>2016-03-20T10:25:31.000Z</time>
      </trkpt>
      <trkpt lat="47.52172" lon="6.68115">
        <ele>361</ele>
        <time>2016-03-20T10:25:32.000Z</time>
      </trkpt>
      <trkpt lat="47.5217" lon="6.68123">
        <ele>361</ele>
        <time>2016-03-20T10:25:33.000Z</time>
      </trkpt>
      <trkpt lat="47.52168" lon="6.6813">
        <ele>361</ele>
        <time>2016-03-20T10:25:34.000Z</time>
      </trkpt>
      <trkpt lat="47.52164" lon="6.68136">
        <ele>361</ele>
        <time>2016-03-20T10:25:35.000Z</time>
      </trkpt>
      <trkpt lat="47.52162" lon="6.68143">
        <ele>361</ele>
        <time>2016-03-20T10:25:36.000Z</time>
      </trkpt>
      <trkpt lat="47.52161" lon="6.68152">
        <ele>361</ele>
        <time>2016-03-20T10:25:37.000Z</time>
      </trkpt>
      <trkpt lat="47.5216" lon="6.6816">
        <ele>361</ele>
        <time>2016-03-20T10:25:38.000Z</time>
      </trkpt>
      <trkpt lat="47.52159" lon="6.68169">
        <ele>360</ele>
        <time>2016-03-20T10:25:39.000Z</time>
      </trkpt>
      <trkpt lat="47.52159" lon="6.68179">
        <ele>360</ele>
        <time>2016-03-20T10:25:40.000Z</time>
      </trkpt>
      <trkpt lat="47.5216" lon="6.68187">
        <ele>360</ele>
        <time>2016-03-20T10:25:41.000Z</time>
      </trkpt>
      <trkpt lat="47.52161" lon="6.68196">
        <ele>360</ele>
        <time>2016-03-20T10:25:42.000Z</time>
      </trkpt>
      <trkpt lat="47.52163" lon="6.68205">
        <ele>360</ele>
        <time>2016-03-20T10:25:43.000Z</time>
      </trkpt>
      <trkpt lat="47.52164" lon="6.68214">
        <ele>360</ele>
        <time>2016-03-20T10:25:44.000Z</time>
      </trkpt>
      <trkpt lat="47.52165" lon="6.68223">
        <ele>360</ele>
        <time>2016-03-20T10:25:45.000Z</time>
      </trkpt>
      <trkpt lat="47.52167" lon="6.68234">
        <ele>359</ele>
        <time>2016-03-20T10:25:46.000Z</time>
      </trkpt>
      <trkpt lat="47.5217" lon="6.68243">
        <ele>359</ele>
        <time>2016-03-20T10:25:47.000Z</time>
      </trkpt>
      <trkpt lat="47.52172" lon="6.68252">
        <ele>359</ele>
        <time>2016-03-20T10:25:48.000Z</time>
      </trkpt>
      <trkpt lat="47.52175" lon="6.6826">
        <ele>359</ele>
        <time>2016-03-20T10:25:49.000Z</time>
      </trkpt>
      <trkpt lat="47.52177" lon="6.68268">
        <ele>359</ele>
        <time>2016-03-20T10:25:50.000Z</time>
      </trkpt>
      <trkpt lat="47.52178" lon="6.68277">
        <ele>359</ele>
        <time>2016-03-20T10:25:51.000Z</time>
      </trkpt>
      <trkpt lat="47.5218" lon="6.68286">
        <ele>359</ele>
        <time>2016-03-20T10:25:52.000Z</time>
      </trkpt>
      <trkpt lat="47.52182" lon="6.68294">
        <ele>359</ele>
        <time>2016-03-20T10:25:53.000Z</time>
      </trkpt>
      <trkpt lat="47.52183" lon="6.68301">
        <ele>359</ele>
        <time>2016-03-20T10:25:54.000Z</time>
      </trkpt>
      <trkpt lat="47.52185" lon="6.68309">
        <ele>359</ele>
        <time>2016-03-20T10:25:55.000Z</time>
      </trkpt>
      <trkpt lat="47.52186" lon="6.68316">
        <ele>359</ele>
        <time>2016-03-20T10:25:56.000Z</time>
      </trkpt>
      <trkpt lat="47.52187" lon="6.68323">
        <ele>359</ele>
        <time>2016-03-20T10:25:57.000Z</time>
      </trkpt>
      <trkpt lat="47.52189" lon="6.6833">
        <ele>359</ele>
        <time>2016-03-20T10:25:58.000Z</time>
      </trkpt>
      <trkpt lat="47.5219" lon="6.68336">
        <ele>359</ele>
        <time>2016-03-20T10:25:59.000Z</time>
      </trkpt>
      <trkpt lat="47.52191" lon="6.68343">
        <ele>359</ele>
        <time>2016-03-20T10:26:00.000Z</time>
      </trkpt>
      <trkpt lat="47.52192" lon="6.6835">
        <ele>359</ele>
        <time>2016-03-20T10:26:01.000Z</time>
      </trkpt>
      <trkpt lat="47.52193" lon="6.68356">
        <ele>359</ele>
        <time>2016-03-20T10:26:02.000Z</time>
      </trkpt>
      <trkpt lat="47.52194" lon="6.68362">
        <ele>359</ele>
        <time>2016-03-20T10:26:03.000Z</time>
      </trkpt>
      <trkpt lat="47.52196" lon="6.68368">
        <ele>359</ele>
        <time>2016-03-20T10:26:04.000Z</time>
      </trkpt>
      <trkpt lat="47.52197" lon="6.68374">
        <ele>359</ele>
        <time>2016-03-20T10:26:05.000Z</time>
      </trkpt>
      <trkpt lat="47.52198" lon="6.6838">
        <ele>359</ele>
        <time>2016-03-20T10:26:06.000Z</time>
      </trkpt>
      <trkpt lat="47.52199" lon="6.68387">
        <ele>359</ele>
        <time>2016-03-20T10:26:07.000Z</time>
      </trkpt>
      <trkpt lat="47.52201" lon="6.68394">
        <ele>359</ele>
        <time>2016-03-20T10:26:08.000Z</time>
      </trkpt>
      <trkpt lat="47.52201" lon="6.68401">
        <ele>359</ele>
        <time>2016-03-20T10:26:09.000Z</time>
      </trkpt>
      <trkpt lat="47.52202" lon="6.68407">
        <ele>359</ele>
        <time>2016-03-20T10:26:10.000Z</time>
      </trkpt>
      <trkpt lat="47.52203" lon="6.68413">
        <ele>359</ele>
        <time>2016-03-20T10:26:11.000Z</time>
      </trkpt>
      <trkpt lat="47.52205" lon="6.68419">
        <ele>358</ele>
        <time>2016-03-20T10:26:12.000Z</time>
      </trkpt>
      <trkpt lat="47.52206" lon="6.68426">
        <ele>358</ele>
        <time>2016-03-20T10:26:13.000Z</time>
      </trkpt>
      <trkpt lat="47.52208" lon="6.68433">
        <ele>359</ele>
        <time>2016-03-20T10:26:14.000Z</time>
      </trkpt>
      <trkpt lat="47.5221" lon="6.68439">
        <ele>359</ele>
        <time>2016-03-20T10:26:15.000Z</time>
      </trkpt>
      <trkpt lat="47.52211" lon="6.68446">
        <ele>359</ele>
        <time>2016-03-20T10:26:16.000Z</time>
      </trkpt>
      <trkpt lat="47.52212" lon="6.68454">
        <ele>359</ele>
        <time>2016-03-20T10:26:17.000Z</time>
      </trkpt>
      <trkpt lat="47.52213" lon="6.68461">
        <ele>359</ele>
        <time>2016-03-20T10:26:18.000Z</time>
      </trkpt>
      <trkpt lat="47.52215" lon="6.68468">
        <ele>359</ele>
        <time>2016-03-20T10:26:19.000Z</time>
      </trkpt>
      <trkpt lat="47.52216" lon="6.68475">
        <ele>359</ele>
        <time>2016-03-20T10:26:20.000Z</time>
      </trkpt>
      <trkpt lat="47.52216" lon="6.68482">
        <ele>359</ele>
        <time>2016-03-20T10:26:21.000Z</time>
      </trkpt>
      <trkpt lat="47.52218" lon="6.68489">
        <ele>359</ele>
        <time>2016-03-20T10:26:22.000Z</time>
      </trkpt>
      <trkpt lat="47.5222" lon="6.68495">
        <ele>359</ele>
        <time>2016-03-20T10:26:23.000Z</time>
      </trkpt>
      <trkpt lat="47.52222" lon="6.68502">
        <ele>360</ele>
        <time>2016-03-20T10:26:24.000Z</time>
      </trkpt>
      <trkpt lat="47.52223" lon="6.68508">
        <ele>360</ele>
        <time>2016-03-20T10:26:25.000Z</time>
      </trkpt>
      <trkpt lat="47.52224" lon="6.68514">
        <ele>360</ele>
        <time>2016-03-20T10:26:26.000Z</time>
      </trkpt>
      <trkpt lat="47.52226" lon="6.68519">
        <ele>360</ele>
        <time>2016-03-20T10:26:27.000Z</time>
      </trkpt>
      <trkpt lat="47.52228" lon="6.68525">
        <ele>360</ele>
        <time>2016-03-20T10:26:28.000Z</time>
      </trkpt>
      <trkpt lat="47.52229" lon="6.6853">
        <ele>360</ele>
        <time>2016-03-20T10:26:29.000Z</time>
      </trkpt>
      <trkpt lat="47.5223" lon="6.68535">
        <ele>360</ele>
        <time>2016-03-20T10:26:30.000Z</time>
      </trkpt>
      <trkpt lat="47.52232" lon="6.6854">
        <ele>360</ele>
        <time>2016-03-20T10:26:31.000Z</time>
      </trkpt>
      <trkpt lat="47.52235" lon="6.68543">
        <ele>360</ele>
        <time>2016-03-20T10:26:32.000Z</time>
      </trkpt>
      <trkpt lat="47.52237" lon="6.68548">
        <ele>360</ele>
        <time>2016-03-20T10:26:33.000Z</time>
      </trkpt>
      <trkpt lat="47.52239" lon="6.68553">
        <ele>361</ele>
        <time>2016-03-20T10:26:34.000Z</time>
      </trkpt>
      <trkpt lat="47.52241" lon="6.68557">
        <ele>361</ele>
        <time>2016-03-20T10:26:35.000Z</time>
      </trkpt>
      <trkpt lat="47.52243" lon="6.68561">
        <ele>361</ele>
        <time>2016-03-20T10:26:36.000Z</time>
      </trkpt>
      <trkpt lat="47.52246" lon="6.68565">
        <ele>361</ele>
        <time>2016-03-20T10:26:37.000Z</time>
      </trkpt>
      <trkpt lat="47.52249" lon="6.68568">
        <ele>362</ele>
        <time>2016-03-20T10:26:38.000Z</time>
      </trkpt>
      <trkpt lat="47.52251" lon="6.68571">
        <ele>364</ele>
        <time>2016-03-20T10:26:39.000Z</time>
      </trkpt>
      <trkpt lat="47.52253" lon="6.68573">
        <ele>364</ele>
        <time>2016-03-20T10:26:40.000Z</time>
      </trkpt>
      <trkpt lat="47.52255" lon="6.68575">
        <ele>364</ele>
        <time>2016-03-20T10:26:41.000Z</time>
      </trkpt>
      <trkpt lat="47.52257" lon="6.68577">
        <ele>364</ele>
        <time>2016-03-20T10:26:42.000Z</time>
      </trkpt>
      <trkpt lat="47.52259" lon="6.68578">
        <ele>364</ele>
        <time>2016-03-20T10:26:43.000Z</time>
      </trkpt>
      <trkpt lat="47.52262" lon="6.68579">
        <ele>364</ele>
        <time>2016-03-20T10:26:44.000Z</time>
      </trkpt>
      <trkpt lat="47.52264" lon="6.6858">
        <ele>364</ele>
        <time>2016-03-20T10:26:45.000Z</time>
      </trkpt>
      <trkpt lat="47.52268" lon="6.6858">
        <ele>364</ele>
        <time>2016-03-20T10:26:46.000Z</time>
      </trkpt>
      <trkpt lat="47.52271" lon="6.6858">
        <ele>365</ele>
        <time>2016-03-20T10:26:47.000Z</time>
      </trkpt>
      <trkpt lat="47.52274" lon="6.6858">
        <ele>365</ele>
        <time>2016-03-20T10:26:48.000Z</time>
      </trkpt>
      <trkpt lat="47.52277" lon="6.6858">
        <ele>365</ele>
        <time>2016-03-20T10:26:49.000Z</time>
      </trkpt>
      <trkpt lat="47.5228" lon="6.6858">
        <ele>365</ele>
        <time>2016-03-20T10:26:50.000Z</time>
      </trkpt>
      <trkpt lat="47.52283" lon="6.68579">
        <ele>366</ele>
        <time>2016-03-20T10:26:51.000Z</time>
      </trkpt>
      <trkpt lat="47.52286" lon="6.68578">
        <ele>366</ele>
        <time>2016-03-20T10:26:52.000Z</time>
      </trkpt>
      <trkpt lat="47.52289" lon="6.68578">
        <ele>366</ele>
        <time>2016-03-20T10:26:53.000Z</time>
      </trkpt>
      <trkpt lat="47.52291" lon="6.68578">
        <ele>366</ele>
        <time>2016-03-20T10:26:54.000Z</time>
      </trkpt>
      <trkpt lat="47.52293" lon="6.68578">
        <ele>366</ele>
        <time>2016-03-20T10:26:55.000Z</time>
      </trkpt>
      <trkpt lat="47.52296" lon="6.68577">
        <ele>367</ele>
        <time>2016-03-20T10:26:56.000Z</time>
      </trkpt>
      <trkpt lat="47.52299" lon="6.68577">
        <ele>367</ele>
        <time>2016-03-20T10:26:57.000Z</time>
      </trkpt>
      <trkpt lat="47.52301" lon="6.68576">
        <ele>367</ele>
        <time>2016-03-20T10:26:58.000Z</time>
      </trkpt>
      <trkpt lat="47.52304" lon="6.68576">
        <ele>367</ele>
        <time>2016-03-20T10:26:59.000Z</time>
      </trkpt>
      <trkpt lat="47.52307" lon="6.68575">
        <ele>367</ele>
        <time>2016-03-20T10:27:00.000Z</time>
      </trkpt>
      <trkpt lat="47.5231" lon="6.68576">
        <ele>368</ele>
        <time>2016-03-20T10:27:01.000Z</time>
      </trkpt>
      <trkpt lat="47.52313" lon="6.68579">
        <ele>368</ele>
        <time>2016-03-20T10:27:02.000Z</time>
      </trkpt>
      <trkpt lat="47.52317" lon="6.68582">
        <ele>369</ele>
        <time>2016-03-20T10:27:03.000Z</time>
      </trkpt>
      <trkpt lat="47.5232" lon="6.68586">
        <ele>370</ele>
        <time>2016-03-20T10:27:04.000Z</time>
      </trkpt>
      <trkpt lat="47.52324" lon="6.68591">
        <ele>370</ele>
        <time>2016-03-20T10:27:05.000Z</time>
      </trkpt>
      <trkpt lat="47.52327" lon="6.68595">
        <ele>370</ele>
        <time>2016-03-20T10:27:06.000Z</time>
      </trkpt>
      <trkpt lat="47.5233" lon="6.68597">
        <ele>370</ele>
        <time>2016-03-20T10:27:07.000Z</time>
      </trkpt>
      <trkpt lat="47.52333" lon="6.68596">
        <ele>371</ele>
        <time>2016-03-20T10:27:08.000Z</time>
      </trkpt>
      <trkpt lat="47.52336" lon="6.68595">
        <ele>372</ele>
        <time>2016-03-20T10:27:09.000Z</time>
      </trkpt>
      <trkpt lat="47.52339" lon="6.68592">
        <ele>372</ele>
        <time>2016-03-20T10:27:10.000Z</time>
      </trkpt>
      <trkpt lat="47.52341" lon="6.6859">
        <ele>372</ele>
        <time>2016-03-20T10:27:11.000Z</time>
      </trkpt>
      <trkpt lat="47.52344" lon="6.68588">
        <ele>372</ele>
        <time>2016-03-20T10:27:12.000Z</time>
      </trkpt>
      <trkpt lat="47.52347" lon="6.68586">
        <ele>372</ele>
        <time>2016-03-20T10:27:13.000Z</time>
      </trkpt>
      <trkpt lat="47.5235" lon="6.68584">
        <ele>372</ele>
        <time>2016-03-20T10:27:14.000Z</time>
      </trkpt>
      <trkpt lat="47.52352" lon="6.68583">
        <ele>372</ele>
        <time>2016-03-20T10:27:15.000Z</time>
      </trkpt>
      <trkpt lat="47.52355" lon="6.68587">
        <ele>372</ele>
        <time>2016-03-20T10:27:17.000Z</time>
      </trkpt>
      <trkpt lat="47.52356" lon="6.68589">
        <ele>372</ele>
        <time>2016-03-20T10:27:18.000Z</time>
      </trkpt>
      <trkpt lat="47.52359" lon="6.68593">
        <ele>372</ele>
        <time>2016-03-20T10:27:20.000Z</time>
      </trkpt>
      <trkpt lat="47.52361" lon="6.68594">
        <ele>372</ele>
        <time>2016-03-20T10:27:21.000Z</time>
      </trkpt>
      <trkpt lat="47.52364" lon="6.68595">
        <ele>372</ele>
        <time>2016-03-20T10:27:22.000Z</time>
      </trkpt>
      <trkpt lat="47.52367" lon="6.68597">
        <ele>373</ele>
        <time>2016-03-20T10:27:23.000Z</time>
      </trkpt>
      <trkpt lat="47.52369" lon="6.68599">
        <ele>373</ele>
        <time>2016-03-20T10:27:25.000Z</time>
      </trkpt>
      <trkpt lat="47.5237" lon="6.686">
        <ele>373</ele>
        <time>2016-03-20T10:27:26.000Z</time>
      </trkpt>
      <trkpt lat="47.52367" lon="6.68605">
        <ele>373</ele>
        <time>2016-03-20T10:27:31.000Z</time>
      </trkpt>
      <trkpt lat="47.52366" lon="6.68606">
        <ele>372</ele>
        <time>2016-03-20T10:27:32.000Z</time>
      </trkpt>
      <trkpt lat="47.52363" lon="6.6861">
        <ele>372</ele>
        <time>2016-03-20T10:27:34.000Z</time>
      </trkpt>
      <trkpt lat="47.52362" lon="6.68612">
        <ele>372</ele>
        <time>2016-03-20T10:27:35.000Z</time>
      </trkpt>
      <trkpt lat="47.5236" lon="6.68615">
        <ele>372</ele>
        <time>2016-03-20T10:27:36.000Z</time>
      </trkpt>
      <trkpt lat="47.52359" lon="6.68619">
        <ele>372</ele>
        <time>2016-03-20T10:27:37.000Z</time>
      </trkpt>
      <trkpt lat="47.52358" lon="6.68624">
        <ele>372</ele>
        <time>2016-03-20T10:27:38.000Z</time>
      </trkpt>
      <trkpt lat="47.52357" lon="6.68629">
        <ele>372</ele>
        <time>2016-03-20T10:27:39.000Z</time>
      </trkpt>
      <trkpt lat="47.52355" lon="6.68634">
        <ele>372</ele>
        <time>2016-03-20T10:27:40.000Z</time>
      </trkpt>
      <trkpt lat="47.52354" lon="6.68639">
        <ele>372</ele>
        <time>2016-03-20T10:27:41.000Z</time>
      </trkpt>
      <trkpt lat="47.52353" lon="6.68644">
        <ele>372</ele>
        <time>2016-03-20T10:27:42.000Z</time>
      </trkpt>
      <trkpt lat="47.52353" lon="6.68649">
        <ele>372</ele>
        <time>2016-03-20T10:27:43.000Z</time>
      </trkpt>
      <trkpt lat="47.52352" lon="6.68654">
        <ele>372</ele>
        <time>2016-03-20T10:27:44.000Z</time>
      </trkpt>
      <trkpt lat="47.52351" lon="6.68658">
        <ele>372</ele>
        <time>2016-03-20T10:27:45.000Z</time>
      </trkpt>
      <trkpt lat="47.5235" lon="6.68663">
        <ele>372</ele>
        <time>2016-03-20T10:27:46.000Z</time>
      </trkpt>
      <trkpt lat="47.5235" lon="6.68667">
        <ele>371</ele>
        <time>2016-03-20T10:27:47.000Z</time>
      </trkpt>
      <trkpt lat="47.52349" lon="6.68671">
        <ele>371</ele>
        <time>2016-03-20T10:27:48.000Z</time>
      </trkpt>
      <trkpt lat="47.52348" lon="6.68676">
        <ele>371</ele>
        <time>2016-03-20T10:27:49.000Z</time>
      </trkpt>
      <trkpt lat="47.52347" lon="6.6868">
        <ele>371</ele>
        <time>2016-03-20T10:27:50.000Z</time>
      </trkpt>
      <trkpt lat="47.52346" lon="6.68685">
        <ele>371</ele>
        <time>2016-03-20T10:27:51.000Z</time>
      </trkpt>
      <trkpt lat="47.52346" lon="6.68689">
        <ele>371</ele>
        <time>2016-03-20T10:27:52.000Z</time>
      </trkpt>
      <trkpt lat="47.52346" lon="6.68694">
        <ele>371</ele>
        <time>2016-03-20T10:27:53.000Z</time>
      </trkpt>
      <trkpt lat="47.52346" lon="6.68699">
        <ele>371</ele>
        <time>2016-03-20T10:27:54.000Z</time>
      </trkpt>
      <trkpt lat="47.52346" lon="6.68704">
        <ele>371</ele>
        <time>2016-03-20T10:27:55.000Z</time>
      </trkpt>
      <trkpt lat="47.52348" lon="6.68709">
        <ele>371</ele>
        <time>2016-03-20T10:27:56.000Z</time>
      </trkpt>
      <trkpt lat="47.52354" lon="6.68716">
        <ele>371</ele>
        <time>2016-03-20T10:27:57.000Z</time>
      </trkpt>
      <trkpt lat="47.52356" lon="6.68721">
        <ele>371</ele>
        <time>2016-03-20T10:27:58.000Z</time>
      </trkpt>
      <trkpt lat="47.52357" lon="6.68726">
        <ele>371</ele>
        <time>2016-03-20T10:27:59.000Z</time>
      </trkpt>
      <trkpt lat="47.52357" lon="6.68731">
        <ele>371</ele>
        <time>2016-03-20T10:28:00.000Z</time>
      </trkpt>
      <trkpt lat="47.52358" lon="6.68735">
        <ele>371</ele>
        <time>2016-03-20T10:28:01.000Z</time>
      </trkpt>
      <trkpt lat="47.52361" lon="6.68741">
        <ele>371</ele>
        <time>2016-03-20T10:28:02.000Z</time>
      </trkpt>
      <trkpt lat="47.52364" lon="6.68745">
        <ele>371</ele>
        <time>2016-03-20T10:28:03.000Z</time>
      </trkpt>
      <trkpt lat="47.52366" lon="6.68749">
        <ele>371</ele>
        <time>2016-03-20T10:28:04.000Z</time>
      </trkpt>
      <trkpt lat="47.52367" lon="6.68753">
        <ele>371</ele>
        <time>2016-03-20T10:28:05.000Z</time>
      </trkpt>
      <trkpt lat="47.52368" lon="6.68757">
        <ele>371</ele>
        <time>2016-03-20T10:28:06.000Z</time>
      </trkpt>
      <trkpt lat="47.5237" lon="6.68761">
        <ele>371</ele>
        <time>2016-03-20T10:28:07.000Z</time>
      </trkpt>
      <trkpt lat="47.52371" lon="6.68766">
        <ele>371</ele>
        <time>2016-03-20T10:28:08.000Z</time>
      </trkpt>
      <trkpt lat="47.52373" lon="6.6877">
        <ele>371</ele>
        <time>2016-03-20T10:28:09.000Z</time>
      </trkpt>
      <trkpt lat="47.52375" lon="6.68775">
        <ele>371</ele>
        <time>2016-03-20T10:28:10.000Z</time>
      </trkpt>
      <trkpt lat="47.52376" lon="6.68778">
        <ele>371</ele>
        <time>2016-03-20T10:28:11.000Z</time>
      </trkpt>
      <trkpt lat="47.52377" lon="6.68782">
        <ele>371</ele>
        <time>2016-03-20T10:28:12.000Z</time>
      </trkpt>
      <trkpt lat="47.52378" lon="6.68785">
        <ele>371</ele>
        <time>2016-03-20T10:28:13.000Z</time>
      </trkpt>
      <trkpt lat="47.52379" lon="6.68788">
        <ele>371</ele>
        <time>2016-03-20T10:28:14.000Z</time>
      </trkpt>
      <trkpt lat="47.5238" lon="6.68795">
        <ele>371</ele>
        <time>2016-03-20T10:28:16.000Z</time>
      </trkpt>
      <trkpt lat="47.52382" lon="6.68798">
        <ele>371</ele>
        <time>2016-03-20T10:28:17.000Z</time>
      </trkpt>
      <trkpt lat="47.52383" lon="6.68803">
        <ele>371</ele>
        <time>2016-03-20T10:28:18.000Z</time>
      </trkpt>
      <trkpt lat="47.52385" lon="6.68807">
        <ele>371</ele>
        <time>2016-03-20T10:28:19.000Z</time>
      </trkpt>
      <trkpt lat="47.52387" lon="6.68812">
        <ele>371</ele>
        <time>2016-03-20T10:28:20.000Z</time>
      </trkpt>
      <trkpt lat="47.52389" lon="6.68816">
        <ele>371</ele>
        <time>2016-03-20T10:28:21.000Z</time>
      </trkpt>
      <trkpt lat="47.52391" lon="6.6882">
        <ele>371</ele>
        <time>2016-03-20T10:28:22.000Z</time>
      </trkpt>
      <trkpt lat="47.52393" lon="6.68824">
        <ele>371</ele>
        <time>2016-03-20T10:28:23.000Z</time>
      </trkpt>
      <trkpt lat="47.52395" lon="6.68828">
        <ele>370</ele>
        <time>2016-03-20T10:28:24.000Z</time>
      </trkpt>
      <trkpt lat="47.52397" lon="6.68833">
        <ele>370</ele>
        <time>2016-03-20T10:28:25.000Z</time>
      </trkpt>
      <trkpt lat="47.52399" lon="6.68838">
        <ele>370</ele>
        <time>2016-03-20T10:28:26.000Z</time>
      </trkpt>
      <trkpt lat="47.52402" lon="6.68843">
        <ele>370</ele>
        <time>2016-03-20T10:28:27.000Z</time>
      </trkpt>
      <trkpt lat="47.52404" lon="6.68847">
        <ele>370</ele>
        <time>2016-03-20T10:28:28.000Z</time>
      </trkpt>
      <trkpt lat="47.52406" lon="6.68852">
        <ele>370</ele>
        <time>2016-03-20T10:28:29.000Z</time>
      </trkpt>
      <trkpt lat="47.52409" lon="6.68857">
        <ele>369</ele>
        <time>2016-03-20T10:28:30.000Z</time>
      </trkpt>
      <trkpt lat="47.52412" lon="6.68862">
        <ele>369</ele>
        <time>2016-03-20T10:28:31.000Z</time>
      </trkpt>
      <trkpt lat="47.52415" lon="6.68868">
        <ele>369</ele>
        <time>2016-03-20T10:28:32.000Z</time>
      </trkpt>
      <trkpt lat="47.52418" lon="6.68874">
        <ele>368</ele>
        <time>2016-03-20T10:28:33.000Z</time>
      </trkpt>
      <trkpt lat="47.52421" lon="6.6888">
        <ele>368</ele>
        <time>2016-03-20T10:28:34.000Z</time>
      </trkpt>
      <trkpt lat="47.52425" lon="6.68886">
        <ele>368</ele>
        <time>2016-03-20T10:28:35.000Z</time>
      </trkpt>
      <trkpt lat="47.52429" lon="6.68892">
        <ele>368</ele>
        <time>2016-03-20T10:28:36.000Z</time>
      </trkpt>
      <trkpt lat="47.52439" lon="6.68907">
        <ele>368</ele>
        <time>2016-03-20T10:28:37.000Z</time>
      </trkpt>
      <trkpt lat="47.52441" lon="6.68913">
        <ele>368</ele>
        <time>2016-03-20T10:28:38.000Z</time>
      </trkpt>
      <trkpt lat="47.52444" lon="6.68915">
        <ele>368</ele>
        <time>2016-03-20T10:28:39.000Z</time>
      </trkpt>
      <trkpt lat="47.52448" lon="6.68921">
        <ele>366</ele>
        <time>2016-03-20T10:28:40.000Z</time>
      </trkpt>
      <trkpt lat="47.52454" lon="6.68929">
        <ele>366</ele>
        <time>2016-03-20T10:28:41.000Z</time>
      </trkpt>
      <trkpt lat="47.52459" lon="6.68942">
        <ele>366</ele>
        <time>2016-03-20T10:28:42.000Z</time>
      </trkpt>
      <trkpt lat="47.52464" lon="6.68951">
        <ele>365</ele>
        <time>2016-03-20T10:28:43.000Z</time>
      </trkpt>
      <trkpt lat="47.52469" lon="6.68957">
        <ele>365</ele>
        <time>2016-03-20T10:28:44.000Z</time>
      </trkpt>
      <trkpt lat="47.52474" lon="6.68964">
        <ele>365</ele>
        <time>2016-03-20T10:28:45.000Z</time>
      </trkpt>
      <trkpt lat="47.52479" lon="6.68971">
        <ele>365</ele>
        <time>2016-03-20T10:28:46.000Z</time>
      </trkpt>
      <trkpt lat="47.52483" lon="6.68977">
        <ele>365</ele>
        <time>2016-03-20T10:28:47.000Z</time>
      </trkpt>
      <trkpt lat="47.52488" lon="6.68984">
        <ele>364</ele>
        <time>2016-03-20T10:28:48.000Z</time>
      </trkpt>
      <trkpt lat="47.52492" lon="6.68989">
        <ele>364</ele>
        <time>2016-03-20T10:28:49.000Z</time>
      </trkpt>
      <trkpt lat="47.52497" lon="6.68995">
        <ele>363</ele>
        <time>2016-03-20T10:28:50.000Z</time>
      </trkpt>
      <trkpt lat="47.52502" lon="6.69001">
        <ele>363</ele>
        <time>2016-03-20T10:28:51.000Z</time>
      </trkpt>
      <trkpt lat="47.52507" lon="6.69007">
        <ele>362</ele>
        <time>2016-03-20T10:28:52.000Z</time>
      </trkpt>
      <trkpt lat="47.52512" lon="6.69013">
        <ele>362</ele>
        <time>2016-03-20T10:28:53.000Z</time>
      </trkpt>
      <trkpt lat="47.52516" lon="6.69019">
        <ele>362</ele>
        <time>2016-03-20T10:28:54.000Z</time>
      </trkpt>
      <trkpt lat="47.52521" lon="6.69026">
        <ele>361</ele>
        <time>2016-03-20T10:28:55.000Z</time>
      </trkpt>
      <trkpt lat="47.52526" lon="6.69033">
        <ele>361</ele>
        <time>2016-03-20T10:28:56.000Z</time>
      </trkpt>
      <trkpt lat="47.52531" lon="6.69039">
        <ele>361</ele>
        <time>2016-03-20T10:28:57.000Z</time>
      </trkpt>
      <trkpt lat="47.52536" lon="6.69047">
        <ele>361</ele>
        <time>2016-03-20T10:28:58.000Z</time>
      </trkpt>
      <trkpt lat="47.52541" lon="6.69053">
        <ele>361</ele>
        <time>2016-03-20T10:28:59.000Z</time>
      </trkpt>
      <trkpt lat="47.52546" lon="6.6906">
        <ele>361</ele>
        <time>2016-03-20T10:29:00.000Z</time>
      </trkpt>
      <trkpt lat="47.5255" lon="6.69067">
        <ele>361</ele>
        <time>2016-03-20T10:29:01.000Z</time>
      </trkpt>
      <trkpt lat="47.52556" lon="6.69073">
        <ele>360</ele>
        <time>2016-03-20T10:29:02.000Z</time>
      </trkpt>
      <trkpt lat="47.52559" lon="6.69081">
        <ele>360</ele>
        <time>2016-03-20T10:29:03.000Z</time>
      </trkpt>
      <trkpt lat="47.52564" lon="6.69089">
        <ele>359</ele>
        <time>2016-03-20T10:29:04.000Z</time>
      </trkpt>
      <trkpt lat="47.52567" lon="6.69098">
        <ele>359</ele>
        <time>2016-03-20T10:29:05.000Z</time>
      </trkpt>
      <trkpt lat="47.5257" lon="6.69107">
        <ele>358</ele>
        <time>2016-03-20T10:29:06.000Z</time>
      </trkpt>
      <trkpt lat="47.52573" lon="6.69115">
        <ele>358</ele>
        <time>2016-03-20T10:29:07.000Z</time>
      </trkpt>
      <trkpt lat="47.52575" lon="6.69125">
        <ele>358</ele>
        <time>2016-03-20T10:29:08.000Z</time>
      </trkpt>
      <trkpt lat="47.52577" lon="6.69134">
        <ele>358</ele>
        <time>2016-03-20T10:29:09.000Z</time>
      </trkpt>
      <trkpt lat="47.5258" lon="6.69144">
        <ele>357</ele>
        <time>2016-03-20T10:29:10.000Z</time>
      </trkpt>
      <trkpt lat="47.52582" lon="6.69153">
        <ele>357</ele>
        <time>2016-03-20T10:29:11.000Z</time>
      </trkpt>
      <trkpt lat="47.52583" lon="6.69161">
        <ele>356</ele>
        <time>2016-03-20T10:29:12.000Z</time>
      </trkpt>
      <trkpt lat="47.52584" lon="6.6917">
        <ele>356</ele>
        <time>2016-03-20T10:29:13.000Z</time>
      </trkpt>
      <trkpt lat="47.52586" lon="6.69179">
        <ele>356</ele>
        <time>2016-03-20T10:29:14.000Z</time>
      </trkpt>
      <trkpt lat="47.52587" lon="6.69186">
        <ele>356</ele>
        <time>2016-03-20T10:29:15.000Z</time>
      </trkpt>
      <trkpt lat="47.52588" lon="6.69195">
        <ele>355</ele>
        <time>2016-03-20T10:29:16.000Z</time>
      </trkpt>
      <trkpt lat="47.52589" lon="6.69203">
        <ele>355</ele>
        <time>2016-03-20T10:29:17.000Z</time>
      </trkpt>
      <trkpt lat="47.5259" lon="6.69212">
        <ele>355</ele>
        <time>2016-03-20T10:29:18.000Z</time>
      </trkpt>
      <trkpt lat="47.5259" lon="6.69221">
        <ele>355</ele>
        <time>2016-03-20T10:29:19.000Z</time>
      </trkpt>
      <trkpt lat="47.5259" lon="6.69229">
        <ele>355</ele>
        <time>2016-03-20T10:29:20.000Z</time>
      </trkpt>
      <trkpt lat="47.5259" lon="6.69237">
        <ele>355</ele>
        <time>2016-03-20T10:29:21.000Z</time>
      </trkpt>
      <trkpt lat="47.52591" lon="6.69244">
        <ele>354</ele>
        <time>2016-03-20T10:29:22.000Z</time>
      </trkpt>
      <trkpt lat="47.52592" lon="6.69251">
        <ele>354</ele>
        <time>2016-03-20T10:29:23.000Z</time>
      </trkpt>
      <trkpt lat="47.52593" lon="6.69259">
        <ele>353</ele>
        <time>2016-03-20T10:29:24.000Z</time>
      </trkpt>
      <trkpt lat="47.52594" lon="6.69268">
        <ele>353</ele>
        <time>2016-03-20T10:29:25.000Z</time>
      </trkpt>
      <trkpt lat="47.52595" lon="6.69277">
        <ele>353</ele>
        <time>2016-03-20T10:29:26.000Z</time>
      </trkpt>
      <trkpt lat="47.52595" lon="6.69286">
        <ele>352</ele>
        <time>2016-03-20T10:29:27.000Z</time>
      </trkpt>
      <trkpt lat="47.52595" lon="6.69294">
        <ele>352</ele>
        <time>2016-03-20T10:29:28.000Z</time>
      </trkpt>
      <trkpt lat="47.52596" lon="6.693">
        <ele>352</ele>
        <time>2016-03-20T10:29:29.000Z</time>
      </trkpt>
      <trkpt lat="47.52595" lon="6.69305">
        <ele>352</ele>
        <time>2016-03-20T10:29:30.000Z</time>
      </trkpt>
      <trkpt lat="47.52594" lon="6.69312">
        <ele>352</ele>
        <time>2016-03-20T10:29:31.000Z</time>
      </trkpt>
      <trkpt lat="47.52593" lon="6.69317">
        <ele>352</ele>
        <time>2016-03-20T10:29:32.000Z</time>
      </trkpt>
      <trkpt lat="47.52593" lon="6.69323">
        <ele>352</ele>
        <time>2016-03-20T10:29:33.000Z</time>
      </trkpt>
      <trkpt lat="47.52592" lon="6.69328">
        <ele>351</ele>
        <time>2016-03-20T10:29:34.000Z</time>
      </trkpt>
      <trkpt lat="47.52592" lon="6.69334">
        <ele>351</ele>
        <time>2016-03-20T10:29:35.000Z</time>
      </trkpt>
      <trkpt lat="47.52591" lon="6.69339">
        <ele>351</ele>
        <time>2016-03-20T10:29:36.000Z</time>
      </trkpt>
      <trkpt lat="47.52591" lon="6.69347">
        <ele>350</ele>
        <time>2016-03-20T10:29:37.000Z</time>
      </trkpt>
      <trkpt lat="47.5259" lon="6.69354">
        <ele>350</ele>
        <time>2016-03-20T10:29:38.000Z</time>
      </trkpt>
      <trkpt lat="47.52589" lon="6.69362">
        <ele>350</ele>
        <time>2016-03-20T10:29:39.000Z</time>
      </trkpt>
      <trkpt lat="47.52589" lon="6.6937">
        <ele>350</ele>
        <time>2016-03-20T10:29:40.000Z</time>
      </trkpt>
      <trkpt lat="47.52588" lon="6.6938">
        <ele>349</ele>
        <time>2016-03-20T10:29:41.000Z</time>
      </trkpt>
      <trkpt lat="47.52589" lon="6.6939">
        <ele>349</ele>
        <time>2016-03-20T10:29:42.000Z</time>
      </trkpt>
      <trkpt lat="47.5259" lon="6.69398">
        <ele>349</ele>
        <time>2016-03-20T10:29:43.000Z</time>
      </trkpt>
      <trkpt lat="47.52591" lon="6.69402">
        <ele>349</ele>
        <time>2016-03-20T10:29:44.000Z</time>
      </trkpt>
      <trkpt lat="47.52591" lon="6.6941">
        <ele>348</ele>
        <time>2016-03-20T10:29:45.000Z</time>
      </trkpt>
      <trkpt lat="47.52593" lon="6.6942">
        <ele>348</ele>
        <time>2016-03-20T10:29:46.000Z</time>
      </trkpt>
      <trkpt lat="47.52594" lon="6.69429">
        <ele>348</ele>
        <time>2016-03-20T10:29:47.000Z</time>
      </trkpt>
      <trkpt lat="47.52595" lon="6.69438">
        <ele>347</ele>
        <time>2016-03-20T10:29:48.000Z</time>
      </trkpt>
      <trkpt lat="47.52593" lon="6.69442">
        <ele>347</ele>
        <time>2016-03-20T10:29:49.000Z</time>
      </trkpt>
      <trkpt lat="47.52593" lon="6.69449">
        <ele>347</ele>
        <time>2016-03-20T10:29:50.000Z</time>
      </trkpt>
      <trkpt lat="47.52594" lon="6.69456">
        <ele>347</ele>
        <time>2016-03-20T10:29:51.000Z</time>
      </trkpt>
      <trkpt lat="47.52595" lon="6.69461">
        <ele>347</ele>
        <time>2016-03-20T10:29:52.000Z</time>
      </trkpt>
      <trkpt lat="47.52597" lon="6.69465">
        <ele>347</ele>
        <time>2016-03-20T10:29:53.000Z</time>
      </trkpt>
      <trkpt lat="47.52598" lon="6.6947">
        <ele>347</ele>
        <time>2016-03-20T10:29:54.000Z</time>
      </trkpt>
      <trkpt lat="47.52602" lon="6.6947">
        <ele>347</ele>
        <time>2016-03-20T10:29:55.000Z</time>
      </trkpt>
      <trkpt lat="47.52605" lon="6.69471">
        <ele>347</ele>
        <time>2016-03-20T10:29:56.000Z</time>
      </trkpt>
      <trkpt lat="47.52608" lon="6.69472">
        <ele>347</ele>
        <time>2016-03-20T10:29:57.000Z</time>
      </trkpt>
      <trkpt lat="47.5261" lon="6.69473">
        <ele>347</ele>
        <time>2016-03-20T10:29:58.000Z</time>
      </trkpt>
      <trkpt lat="47.52613" lon="6.69475">
        <ele>347</ele>
        <time>2016-03-20T10:29:59.000Z</time>
      </trkpt>
      <trkpt lat="47.52617" lon="6.69481">
        <ele>347</ele>
        <time>2016-03-20T10:30:00.000Z</time>
      </trkpt>
      <trkpt lat="47.52621" lon="6.69482">
        <ele>347</ele>
        <time>2016-03-20T10:30:01.000Z</time>
      </trkpt>
      <trkpt lat="47.52624" lon="6.69484">
        <ele>347</ele>
        <time>2016-03-20T10:30:02.000Z</time>
      </trkpt>
      <trkpt lat="47.52623" lon="6.69492">
        <ele>347</ele>
        <time>2016-03-20T10:30:03.000Z</time>
      </trkpt>
      <trkpt lat="47.52624" lon="6.695">
        <ele>347</ele>
        <time>2016-03-20T10:30:04.000Z</time>
      </trkpt>
      <trkpt lat="47.52624" lon="6.69506">
        <ele>346</ele>
        <time>2016-03-20T10:30:05.000Z</time>
      </trkpt>
      <trkpt lat="47.52624" lon="6.69512">
        <ele>345</ele>
        <time>2016-03-20T10:30:06.000Z</time>
      </trkpt>
      <trkpt lat="47.52623" lon="6.69516">
        <ele>345</ele>
        <time>2016-03-20T10:30:07.000Z</time>
      </trkpt>
      <trkpt lat="47.52622" lon="6.6952">
        <ele>345</ele>
        <time>2016-03-20T10:30:08.000Z</time>
      </trkpt>
      <trkpt lat="47.52622" lon="6.69525">
        <ele>345</ele>
        <time>2016-03-20T10:30:09.000Z</time>
      </trkpt>
      <trkpt lat="47.52621" lon="6.6953">
        <ele>345</ele>
        <time>2016-03-20T10:30:10.000Z</time>
      </trkpt>
      <trkpt lat="47.5262" lon="6.69535">
        <ele>345</ele>
        <time>2016-03-20T10:30:11.000Z</time>
      </trkpt>
      <trkpt lat="47.5262" lon="6.69541">
        <ele>345</ele>
        <time>2016-03-20T10:30:12.000Z</time>
      </trkpt>
      <trkpt lat="47.52619" lon="6.69547">
        <ele>345</ele>
        <time>2016-03-20T10:30:13.000Z</time>
      </trkpt>
      <trkpt lat="47.52619" lon="6.69553">
        <ele>345</ele>
        <time>2016-03-20T10:30:14.000Z</time>
      </trkpt>
      <trkpt lat="47.52618" lon="6.6956">
        <ele>345</ele>
        <time>2016-03-20T10:30:15.000Z</time>
      </trkpt>
      <trkpt lat="47.52618" lon="6.69567">
        <ele>345</ele>
        <time>2016-03-20T10:30:16.000Z</time>
      </trkpt>
      <trkpt lat="47.52617" lon="6.69574">
        <ele>345</ele>
        <time>2016-03-20T10:30:17.000Z</time>
      </trkpt>
      <trkpt lat="47.52617" lon="6.69581">
        <ele>345</ele>
        <time>2016-03-20T10:30:18.000Z</time>
      </trkpt>
      <trkpt lat="47.52617" lon="6.69587">
        <ele>345</ele>
        <time>2016-03-20T10:30:19.000Z</time>
      </trkpt>
      <trkpt lat="47.52616" lon="6.69593">
        <ele>345</ele>
        <time>2016-03-20T10:30:20.000Z</time>
      </trkpt>
      <trkpt lat="47.52618" lon="6.69604">
        <ele>345</ele>
        <time>2016-03-20T10:30:21.000Z</time>
      </trkpt>
      <trkpt lat="47.52619" lon="6.69611">
        <ele>346</ele>
        <time>2016-03-20T10:30:22.000Z</time>
      </trkpt>
      <trkpt lat="47.5262" lon="6.69618">
        <ele>346</ele>
        <time>2016-03-20T10:30:23.000Z</time>
      </trkpt>
      <trkpt lat="47.52619" lon="6.69624">
        <ele>346</ele>
        <time>2016-03-20T10:30:24.000Z</time>
      </trkpt>
      <trkpt lat="47.52619" lon="6.69631">
        <ele>346</ele>
        <time>2016-03-20T10:30:25.000Z</time>
      </trkpt>
      <trkpt lat="47.52619" lon="6.69638">
        <ele>346</ele>
        <time>2016-03-20T10:30:26.000Z</time>
      </trkpt>
      <trkpt lat="47.52619" lon="6.69644">
        <ele>346</ele>
        <time>2016-03-20T10:30:27.000Z</time>
      </trkpt>
      <trkpt lat="47.5262" lon="6.69648">
        <ele>346</ele>
        <time>2016-03-20T10:30:28.000Z</time>
      </trkpt>
      <trkpt lat="47.5262" lon="6.69653">
        <ele>346</ele>
        <time>2016-03-20T10:30:29.000Z</time>
      </trkpt>
      <trkpt lat="47.52621" lon="6.69658">
        <ele>346</ele>
        <time>2016-03-20T10:30:30.000Z</time>
      </trkpt>
      <trkpt lat="47.52621" lon="6.69663">
        <ele>346</ele>
        <time>2016-03-20T10:30:31.000Z</time>
      </trkpt>
      <trkpt lat="47.52621" lon="6.69667">
        <ele>349</ele>
        <time>2016-03-20T10:30:32.000Z</time>
      </trkpt>
      <trkpt lat="47.5262" lon="6.69671">
        <ele>349</ele>
        <time>2016-03-20T10:30:33.000Z</time>
      </trkpt>
      <trkpt lat="47.5262" lon="6.69674">
        <ele>349</ele>
        <time>2016-03-20T10:30:34.000Z</time>
      </trkpt>
      <trkpt lat="47.52619" lon="6.69678">
        <ele>349</ele>
        <time>2016-03-20T10:30:35.000Z</time>
      </trkpt>
      <trkpt lat="47.52618" lon="6.69682">
        <ele>349</ele>
        <time>2016-03-20T10:30:36.000Z</time>
      </trkpt>
      <trkpt lat="47.52617" lon="6.69686">
        <ele>349</ele>
        <time>2016-03-20T10:30:37.000Z</time>
      </trkpt>
      <trkpt lat="47.52615" lon="6.69691">
        <ele>349</ele>
        <time>2016-03-20T10:30:39.000Z</time>
      </trkpt>
      <trkpt lat="47.52614" lon="6.69693">
        <ele>349</ele>
        <time>2016-03-20T10:30:40.000Z</time>
      </trkpt>
      <trkpt lat="47.52612" lon="6.69698">
        <ele>349</ele>
        <time>2016-03-20T10:30:42.000Z</time>
      </trkpt>
      <trkpt lat="47.5261" lon="6.697">
        <ele>349</ele>
        <time>2016-03-20T10:30:43.000Z</time>
      </trkpt>
      <trkpt lat="47.52607" lon="6.69704">
        <ele>350</ele>
        <time>2016-03-20T10:30:45.000Z</time>
      </trkpt>
      <trkpt lat="47.52605" lon="6.69706">
        <ele>350</ele>
        <time>2016-03-20T10:30:46.000Z</time>
      </trkpt>
      <trkpt lat="47.52603" lon="6.69707">
        <ele>350</ele>
        <time>2016-03-20T10:30:47.000Z</time>
      </trkpt>
      <trkpt lat="47.526" lon="6.69708">
        <ele>350</ele>
        <time>2016-03-20T10:30:48.000Z</time>
      </trkpt>
      <trkpt lat="47.52597" lon="6.69709">
        <ele>350</ele>
        <time>2016-03-20T10:30:49.000Z</time>
      </trkpt>
      <trkpt lat="47.52595" lon="6.6971">
        <ele>350</ele>
        <time>2016-03-20T10:30:50.000Z</time>
      </trkpt>
      <trkpt lat="47.52591" lon="6.69711">
        <ele>350</ele>
        <time>2016-03-20T10:30:51.000Z</time>
      </trkpt>
      <trkpt lat="47.52588" lon="6.69712">
        <ele>350</ele>
        <time>2016-03-20T10:30:52.000Z</time>
      </trkpt>
      <trkpt lat="47.52585" lon="6.69712">
        <ele>350</ele>
        <time>2016-03-20T10:30:53.000Z</time>
      </trkpt>
      <trkpt lat="47.52581" lon="6.69712">
        <ele>351</ele>
        <time>2016-03-20T10:30:54.000Z</time>
      </trkpt>
      <trkpt lat="47.52578" lon="6.69712">
        <ele>351</ele>
        <time>2016-03-20T10:30:55.000Z</time>
      </trkpt>
      <trkpt lat="47.52575" lon="6.69711">
        <ele>351</ele>
        <time>2016-03-20T10:30:56.000Z</time>
      </trkpt>
      <trkpt lat="47.52571" lon="6.69709">
        <ele>351</ele>
        <time>2016-03-20T10:30:58.000Z</time>
      </trkpt>
      <trkpt lat="47.52569" lon="6.69707">
        <ele>351</ele>
        <time>2016-03-20T10:30:59.000Z</time>
      </trkpt>
      <trkpt lat="47.52567" lon="6.69703">
        <ele>351</ele>
        <time>2016-03-20T10:31:01.000Z</time>
      </trkpt>
      <trkpt lat="47.52566" lon="6.69701">
        <ele>351</ele>
        <time>2016-03-20T10:31:02.000Z</time>
      </trkpt>
      <trkpt lat="47.52563" lon="6.69698">
        <ele>351</ele>
        <time>2016-03-20T10:31:04.000Z</time>
      </trkpt>
      <trkpt lat="47.52562" lon="6.69696">
        <ele>351</ele>
        <time>2016-03-20T10:31:05.000Z</time>
      </trkpt>
      <trkpt lat="47.52558" lon="6.69694">
        <ele>351</ele>
        <time>2016-03-20T10:31:08.000Z</time>
      </trkpt>
      <trkpt lat="47.52557" lon="6.69692">
        <ele>351</ele>
        <time>2016-03-20T10:31:09.000Z</time>
      </trkpt>
      <trkpt lat="47.52554" lon="6.69688">
        <ele>350</ele>
        <time>2016-03-20T10:31:11.000Z</time>
      </trkpt>
      <trkpt lat="47.52552" lon="6.69686">
        <ele>350</ele>
        <time>2016-03-20T10:31:12.000Z</time>
      </trkpt>
      <trkpt lat="47.5255" lon="6.69685">
        <ele>350</ele>
        <time>2016-03-20T10:31:13.000Z</time>
      </trkpt>
      <trkpt lat="47.52547" lon="6.69684">
        <ele>350</ele>
        <time>2016-03-20T10:31:14.000Z</time>
      </trkpt>
      <trkpt lat="47.52544" lon="6.69683">
        <ele>351</ele>
        <time>2016-03-20T10:31:16.000Z</time>
      </trkpt>
      <trkpt lat="47.52542" lon="6.69682">
        <ele>351</ele>
        <time>2016-03-20T10:31:17.000Z</time>
      </trkpt>
      <trkpt lat="47.52539" lon="6.6968">
        <ele>351</ele>
        <time>2016-03-20T10:31:19.000Z</time>
      </trkpt>
      <trkpt lat="47.52538" lon="6.69679">
        <ele>351</ele>
        <time>2016-03-20T10:31:20.000Z</time>
      </trkpt>
      <trkpt lat="47.52534" lon="6.69676">
        <ele>350</ele>
        <time>2016-03-20T10:31:22.000Z</time>
      </trkpt>
      <trkpt lat="47.52531" lon="6.69675">
        <ele>350</ele>
        <time>2016-03-20T10:31:23.000Z</time>
      </trkpt>
      <trkpt lat="47.52529" lon="6.69674">
        <ele>350</ele>
        <time>2016-03-20T10:31:24.000Z</time>
      </trkpt>
      <trkpt lat="47.52526" lon="6.69673">
        <ele>350</ele>
        <time>2016-03-20T10:31:25.000Z</time>
      </trkpt>
      <trkpt lat="47.52524" lon="6.69673">
        <ele>350</ele>
        <time>2016-03-20T10:31:26.000Z</time>
      </trkpt>
      <trkpt lat="47.5252" lon="6.69674">
        <ele>350</ele>
        <time>2016-03-20T10:31:27.000Z</time>
      </trkpt>
      <trkpt lat="47.52517" lon="6.69674">
        <ele>350</ele>
        <time>2016-03-20T10:31:28.000Z</time>
      </trkpt>
      <trkpt lat="47.52513" lon="6.69673">
        <ele>350</ele>
        <time>2016-03-20T10:31:29.000Z</time>
      </trkpt>
      <trkpt lat="47.5251" lon="6.69673">
        <ele>350</ele>
        <time>2016-03-20T10:31:30.000Z</time>
      </trkpt>
      <trkpt lat="47.52506" lon="6.69673">
        <ele>349</ele>
        <time>2016-03-20T10:31:31.000Z</time>
      </trkpt>
      <trkpt lat="47.52503" lon="6.69672">
        <ele>349</ele>
        <time>2016-03-20T10:31:32.000Z</time>
      </trkpt>
      <trkpt lat="47.525" lon="6.69672">
        <ele>349</ele>
        <time>2016-03-20T10:31:33.000Z</time>
      </trkpt>
      <trkpt lat="47.52498" lon="6.6967">
        <ele>349</ele>
        <time>2016-03-20T10:31:34.000Z</time>
      </trkpt>
      <trkpt lat="47.52495" lon="6.69669">
        <ele>349</ele>
        <time>2016-03-20T10:31:35.000Z</time>
      </trkpt>
      <trkpt lat="47.52491" lon="6.69668">
        <ele>350</ele>
        <time>2016-03-20T10:31:36.000Z</time>
      </trkpt>
      <trkpt lat="47.52488" lon="6.69666">
        <ele>347</ele>
        <time>2016-03-20T10:31:37.000Z</time>
      </trkpt>
      <trkpt lat="47.52484" lon="6.69663">
        <ele>347</ele>
        <time>2016-03-20T10:31:38.000Z</time>
      </trkpt>
      <trkpt lat="47.52481" lon="6.69661">
        <ele>347</ele>
        <time>2016-03-20T10:31:39.000Z</time>
      </trkpt>
      <trkpt lat="47.52477" lon="6.69659">
        <ele>347</ele>
        <time>2016-03-20T10:31:40.000Z</time>
      </trkpt>
      <trkpt lat="47.52474" lon="6.69657">
        <ele>347</ele>
        <time>2016-03-20T10:31:41.000Z</time>
      </trkpt>
      <trkpt lat="47.5247" lon="6.69657">
        <ele>347</ele>
        <time>2016-03-20T10:31:42.000Z</time>
      </trkpt>
      <trkpt lat="47.52466" lon="6.69657">
        <ele>347</ele>
        <time>2016-03-20T10:31:43.000Z</time>
      </trkpt>
      <trkpt lat="47.52462" lon="6.69656">
        <ele>347</ele>
        <time>2016-03-20T10:31:44.000Z</time>
      </trkpt>
      <trkpt lat="47.52458" lon="6.69657">
        <ele>347</ele>
        <time>2016-03-20T10:31:45.000Z</time>
      </trkpt>
      <trkpt lat="47.52454" lon="6.69657">
        <ele>347</ele>
        <time>2016-03-20T10:31:46.000Z</time>
      </trkpt>
      <trkpt lat="47.5245" lon="6.69657">
        <ele>347</ele>
        <time>2016-03-20T10:31:47.000Z</time>
      </trkpt>
      <trkpt lat="47.52446" lon="6.69658">
        <ele>347</ele>
        <time>2016-03-20T10:31:48.000Z</time>
      </trkpt>
      <trkpt lat="47.52441" lon="6.6966">
        <ele>348</ele>
        <time>2016-03-20T10:31:49.000Z</time>
      </trkpt>
      <trkpt lat="47.52436" lon="6.69663">
        <ele>348</ele>
        <time>2016-03-20T10:31:50.000Z</time>
      </trkpt>
      <trkpt lat="47.52431" lon="6.69666">
        <ele>348</ele>
        <time>2016-03-20T10:31:51.000Z</time>
      </trkpt>
      <trkpt lat="47.52426" lon="6.69668">
        <ele>351</ele>
        <time>2016-03-20T10:31:52.000Z</time>
      </trkpt>
      <trkpt lat="47.52422" lon="6.69671">
        <ele>350</ele>
        <time>2016-03-20T10:31:53.000Z</time>
      </trkpt>
      <trkpt lat="47.52417" lon="6.69672">
        <ele>350</ele>
        <time>2016-03-20T10:31:54.000Z</time>
      </trkpt>
      <trkpt lat="47.52412" lon="6.69673">
        <ele>350</ele>
        <time>2016-03-20T10:31:55.000Z</time>
      </trkpt>
      <trkpt lat="47.52408" lon="6.69675">
        <ele>351</ele>
        <time>2016-03-20T10:31:56.000Z</time>
      </trkpt>
      <trkpt lat="47.52404" lon="6.69676">
        <ele>351</ele>
        <time>2016-03-20T10:31:57.000Z</time>
      </trkpt>
      <trkpt lat="47.52399" lon="6.69679">
        <ele>352</ele>
        <time>2016-03-20T10:31:58.000Z</time>
      </trkpt>
      <trkpt lat="47.52395" lon="6.69681">
        <ele>352</ele>
        <time>2016-03-20T10:31:59.000Z</time>
      </trkpt>
      <trkpt lat="47.52391" lon="6.69683">
        <ele>352</ele>
        <time>2016-03-20T10:32:00.000Z</time>
      </trkpt>
      <trkpt lat="47.52386" lon="6.69686">
        <ele>353</ele>
        <time>2016-03-20T10:32:01.000Z</time>
      </trkpt>
      <trkpt lat="47.52382" lon="6.69689">
        <ele>353</ele>
        <time>2016-03-20T10:32:02.000Z</time>
      </trkpt>
      <trkpt lat="47.52378" lon="6.69692">
        <ele>353</ele>
        <time>2016-03-20T10:32:03.000Z</time>
      </trkpt>
      <trkpt lat="47.52374" lon="6.69696">
        <ele>353</ele>
        <time>2016-03-20T10:32:04.000Z</time>
      </trkpt>
      <trkpt lat="47.5237" lon="6.69699">
        <ele>353</ele>
        <time>2016-03-20T10:32:05.000Z</time>
      </trkpt>
      <trkpt lat="47.52367" lon="6.6971">
        <ele>354</ele>
        <time>2016-03-20T10:32:06.000Z</time>
      </trkpt>
      <trkpt lat="47.52363" lon="6.69715">
        <ele>354</ele>
        <time>2016-03-20T10:32:07.000Z</time>
      </trkpt>
      <trkpt lat="47.52359" lon="6.6972">
        <ele>355</ele>
        <time>2016-03-20T10:32:08.000Z</time>
      </trkpt>
      <trkpt lat="47.52356" lon="6.69721">
        <ele>355</ele>
        <time>2016-03-20T10:32:09.000Z</time>
      </trkpt>
      <trkpt lat="47.52352" lon="6.69725">
        <ele>355</ele>
        <time>2016-03-20T10:32:10.000Z</time>
      </trkpt>
      <trkpt lat="47.52349" lon="6.6973">
        <ele>355</ele>
        <time>2016-03-20T10:32:11.000Z</time>
      </trkpt>
      <trkpt lat="47.52347" lon="6.69733">
        <ele>356</ele>
        <time>2016-03-20T10:32:12.000Z</time>
      </trkpt>
      <trkpt lat="47.52344" lon="6.69734">
        <ele>356</ele>
        <time>2016-03-20T10:32:13.000Z</time>
      </trkpt>
      <trkpt lat="47.52342" lon="6.69736">
        <ele>356</ele>
        <time>2016-03-20T10:32:14.000Z</time>
      </trkpt>
      <trkpt lat="47.5234" lon="6.69741">
        <ele>357</ele>
        <time>2016-03-20T10:32:15.000Z</time>
      </trkpt>
      <trkpt lat="47.52338" lon="6.69746">
        <ele>357</ele>
        <time>2016-03-20T10:32:16.000Z</time>
      </trkpt>
      <trkpt lat="47.52336" lon="6.6975">
        <ele>358</ele>
        <time>2016-03-20T10:32:17.000Z</time>
      </trkpt>
      <trkpt lat="47.52334" lon="6.69754">
        <ele>359</ele>
        <time>2016-03-20T10:32:18.000Z</time>
      </trkpt>
      <trkpt lat="47.52332" lon="6.69758">
        <ele>357</ele>
        <time>2016-03-20T10:32:19.000Z</time>
      </trkpt>
      <trkpt lat="47.5233" lon="6.69762">
        <ele>357</ele>
        <time>2016-03-20T10:32:20.000Z</time>
      </trkpt>
      <trkpt lat="47.52327" lon="6.69766">
        <ele>357</ele>
        <time>2016-03-20T10:32:21.000Z</time>
      </trkpt>
      <trkpt lat="47.52324" lon="6.6977">
        <ele>357</ele>
        <time>2016-03-20T10:32:22.000Z</time>
      </trkpt>
      <trkpt lat="47.52321" lon="6.69774">
        <ele>357</ele>
        <time>2016-03-20T10:32:23.000Z</time>
      </trkpt>
      <trkpt lat="47.52317" lon="6.69779">
        <ele>357</ele>
        <time>2016-03-20T10:32:24.000Z</time>
      </trkpt>
      <trkpt lat="47.52313" lon="6.69783">
        <ele>356</ele>
        <time>2016-03-20T10:32:25.000Z</time>
      </trkpt>
      <trkpt lat="47.52309" lon="6.69788">
        <ele>356</ele>
        <time>2016-03-20T10:32:26.000Z</time>
      </trkpt>
      <trkpt lat="47.52303" lon="6.69806">
        <ele>356</ele>
        <time>2016-03-20T10:32:27.000Z</time>
      </trkpt>
      <trkpt lat="47.52301" lon="6.69813">
        <ele>356</ele>
        <time>2016-03-20T10:32:28.000Z</time>
      </trkpt>
      <trkpt lat="47.52298" lon="6.69818">
        <ele>356</ele>
        <time>2016-03-20T10:32:29.000Z</time>
      </trkpt>
      <trkpt lat="47.52294" lon="6.69826">
        <ele>356</ele>
        <time>2016-03-20T10:32:30.000Z</time>
      </trkpt>
      <trkpt lat="47.52292" lon="6.69833">
        <ele>356</ele>
        <time>2016-03-20T10:32:31.000Z</time>
      </trkpt>
      <trkpt lat="47.52287" lon="6.69837">
        <ele>356</ele>
        <time>2016-03-20T10:32:32.000Z</time>
      </trkpt>
      <trkpt lat="47.52286" lon="6.69849">
        <ele>356</ele>
        <time>2016-03-20T10:32:33.000Z</time>
      </trkpt>
      <trkpt lat="47.52283" lon="6.69858">
        <ele>356</ele>
        <time>2016-03-20T10:32:34.000Z</time>
      </trkpt>
      <trkpt lat="47.5228" lon="6.69867">
        <ele>356</ele>
        <time>2016-03-20T10:32:35.000Z</time>
      </trkpt>
      <trkpt lat="47.52279" lon="6.69876">
        <ele>355</ele>
        <time>2016-03-20T10:32:36.000Z</time>
      </trkpt>
      <trkpt lat="47.52277" lon="6.69886">
        <ele>355</ele>
        <time>2016-03-20T10:32:37.000Z</time>
      </trkpt>
      <trkpt lat="47.52275" lon="6.69896">
        <ele>355</ele>
        <time>2016-03-20T10:32:38.000Z</time>
      </trkpt>
      <trkpt lat="47.52274" lon="6.69906">
        <ele>355</ele>
        <time>2016-03-20T10:32:39.000Z</time>
      </trkpt>
      <trkpt lat="47.5227" lon="6.69912">
        <ele>354</ele>
        <time>2016-03-20T10:32:40.000Z</time>
      </trkpt>
      <trkpt lat="47.52267" lon="6.69919">
        <ele>353</ele>
        <time>2016-03-20T10:32:41.000Z</time>
      </trkpt>
      <trkpt lat="47.52264" lon="6.69926">
        <ele>353</ele>
        <time>2016-03-20T10:32:42.000Z</time>
      </trkpt>
      <trkpt lat="47.52261" lon="6.69934">
        <ele>353</ele>
        <time>2016-03-20T10:32:43.000Z</time>
      </trkpt>
      <trkpt lat="47.52257" lon="6.69941">
        <ele>353</ele>
        <time>2016-03-20T10:32:44.000Z</time>
      </trkpt>
      <trkpt lat="47.52253" lon="6.69951">
        <ele>353</ele>
        <time>2016-03-20T10:32:45.000Z</time>
      </trkpt>
      <trkpt lat="47.5225" lon="6.6996">
        <ele>353</ele>
        <time>2016-03-20T10:32:46.000Z</time>
      </trkpt>
      <trkpt lat="47.52248" lon="6.69975">
        <ele>348</ele>
        <time>2016-03-20T10:32:47.000Z</time>
      </trkpt>
      <trkpt lat="47.52244" lon="6.69986">
        <ele>348</ele>
        <time>2016-03-20T10:32:48.000Z</time>
      </trkpt>
      <trkpt lat="47.5224" lon="6.69997">
        <ele>348</ele>
        <time>2016-03-20T10:32:49.000Z</time>
      </trkpt>
      <trkpt lat="47.52236" lon="6.70004">
        <ele>347</ele>
        <time>2016-03-20T10:32:50.000Z</time>
      </trkpt>
      <trkpt lat="47.52232" lon="6.70014">
        <ele>347</ele>
        <time>2016-03-20T10:32:51.000Z</time>
      </trkpt>
      <trkpt lat="47.52229" lon="6.70023">
        <ele>347</ele>
        <time>2016-03-20T10:32:52.000Z</time>
      </trkpt>
      <trkpt lat="47.52227" lon="6.70033">
        <ele>346</ele>
        <time>2016-03-20T10:32:53.000Z</time>
      </trkpt>
      <trkpt lat="47.52225" lon="6.70043">
        <ele>346</ele>
        <time>2016-03-20T10:32:54.000Z</time>
      </trkpt>
      <trkpt lat="47.52223" lon="6.70049">
        <ele>346</ele>
        <time>2016-03-20T10:32:55.000Z</time>
      </trkpt>
      <trkpt lat="47.52218" lon="6.70054">
        <ele>346</ele>
        <time>2016-03-20T10:32:56.000Z</time>
      </trkpt>
      <trkpt lat="47.52216" lon="6.70059">
        <ele>346</ele>
        <time>2016-03-20T10:32:57.000Z</time>
      </trkpt>
      <trkpt lat="47.52214" lon="6.70067">
        <ele>346</ele>
        <time>2016-03-20T10:32:58.000Z</time>
      </trkpt>
      <trkpt lat="47.52211" lon="6.70077">
        <ele>345</ele>
        <time>2016-03-20T10:32:59.000Z</time>
      </trkpt>
      <trkpt lat="47.5221" lon="6.70088">
        <ele>345</ele>
        <time>2016-03-20T10:33:00.000Z</time>
      </trkpt>
      <trkpt lat="47.52207" lon="6.70094">
        <ele>345</ele>
        <time>2016-03-20T10:33:01.000Z</time>
      </trkpt>
      <trkpt lat="47.52206" lon="6.70103">
        <ele>345</ele>
        <time>2016-03-20T10:33:02.000Z</time>
      </trkpt>
      <trkpt lat="47.52203" lon="6.7011">
        <ele>345</ele>
        <time>2016-03-20T10:33:03.000Z</time>
      </trkpt>
      <trkpt lat="47.52203" lon="6.70119">
        <ele>345</ele>
        <time>2016-03-20T10:33:04.000Z</time>
      </trkpt>
      <trkpt lat="47.52201" lon="6.70128">
        <ele>345</ele>
        <time>2016-03-20T10:33:05.000Z</time>
      </trkpt>
      <trkpt lat="47.52199" lon="6.70134">
        <ele>346</ele>
        <time>2016-03-20T10:33:06.000Z</time>
      </trkpt>
      <trkpt lat="47.52195" lon="6.70134">
        <ele>346</ele>
        <time>2016-03-20T10:33:07.000Z</time>
      </trkpt>
      <trkpt lat="47.52193" lon="6.70141">
        <ele>346</ele>
        <time>2016-03-20T10:33:08.000Z</time>
      </trkpt>
      <trkpt lat="47.52191" lon="6.70148">
        <ele>346</ele>
        <time>2016-03-20T10:33:09.000Z</time>
      </trkpt>
      <trkpt lat="47.5219" lon="6.70153">
        <ele>346</ele>
        <time>2016-03-20T10:33:10.000Z</time>
      </trkpt>
      <trkpt lat="47.52189" lon="6.70161">
        <ele>346</ele>
        <time>2016-03-20T10:33:11.000Z</time>
      </trkpt>
      <trkpt lat="47.52187" lon="6.70167">
        <ele>348</ele>
        <time>2016-03-20T10:33:12.000Z</time>
      </trkpt>
      <trkpt lat="47.52186" lon="6.70173">
        <ele>348</ele>
        <time>2016-03-20T10:33:13.000Z</time>
      </trkpt>
      <trkpt lat="47.52184" lon="6.70178">
        <ele>348</ele>
        <time>2016-03-20T10:33:14.000Z</time>
      </trkpt>
      <trkpt lat="47.52183" lon="6.70185">
        <ele>348</ele>
        <time>2016-03-20T10:33:15.000Z</time>
      </trkpt>
      <trkpt lat="47.52181" lon="6.70191">
        <ele>348</ele>
        <time>2016-03-20T10:33:16.000Z</time>
      </trkpt>
      <trkpt lat="47.5218" lon="6.70196">
        <ele>348</ele>
        <time>2016-03-20T10:33:17.000Z</time>
      </trkpt>
      <trkpt lat="47.52179" lon="6.70202">
        <ele>348</ele>
        <time>2016-03-20T10:33:18.000Z</time>
      </trkpt>
      <trkpt lat="47.52177" lon="6.70208">
        <ele>348</ele>
        <time>2016-03-20T10:33:19.000Z</time>
      </trkpt>
      <trkpt lat="47.52175" lon="6.70209">
        <ele>348</ele>
        <time>2016-03-20T10:33:20.000Z</time>
      </trkpt>
      <trkpt lat="47.52173" lon="6.70214">
        <ele>348</ele>
        <time>2016-03-20T10:33:21.000Z</time>
      </trkpt>
      <trkpt lat="47.52172" lon="6.70219">
        <ele>349</ele>
        <time>2016-03-20T10:33:22.000Z</time>
      </trkpt>
      <trkpt lat="47.5217" lon="6.70224">
        <ele>349</ele>
        <time>2016-03-20T10:33:23.000Z</time>
      </trkpt>
      <trkpt lat="47.52169" lon="6.70228">
        <ele>349</ele>
        <time>2016-03-20T10:33:24.000Z</time>
      </trkpt>
      <trkpt lat="47.52167" lon="6.70231">
        <ele>350</ele>
        <time>2016-03-20T10:33:25.000Z</time>
      </trkpt>
      <trkpt lat="47.52165" lon="6.70236">
        <ele>353</ele>
        <time>2016-03-20T10:33:27.000Z</time>
      </trkpt>
      <trkpt lat="47.52164" lon="6.70239">
        <ele>353</ele>
        <time>2016-03-20T10:33:28.000Z</time>
      </trkpt>
      <trkpt lat="47.52163" lon="6.70243">
        <ele>353</ele>
        <time>2016-03-20T10:33:29.000Z</time>
      </trkpt>
      <trkpt lat="47.52162" lon="6.70247">
        <ele>353</ele>
        <time>2016-03-20T10:33:30.000Z</time>
      </trkpt>
      <trkpt lat="47.5216" lon="6.70251">
        <ele>354</ele>
        <time>2016-03-20T10:33:31.000Z</time>
      </trkpt>
      <trkpt lat="47.52159" lon="6.70256">
        <ele>354</ele>
        <time>2016-03-20T10:33:32.000Z</time>
      </trkpt>
      <trkpt lat="47.52157" lon="6.7026">
        <ele>354</ele>
        <time>2016-03-20T10:33:33.000Z</time>
      </trkpt>
      <trkpt lat="47.52155" lon="6.70265">
        <ele>355</ele>
        <time>2016-03-20T10:33:34.000Z</time>
      </trkpt>
      <trkpt lat="47.52153" lon="6.7027">
        <ele>355</ele>
        <time>2016-03-20T10:33:35.000Z</time>
      </trkpt>
      <trkpt lat="47.52151" lon="6.70275">
        <ele>355</ele>
        <time>2016-03-20T10:33:36.000Z</time>
      </trkpt>
      <trkpt lat="47.52149" lon="6.70279">
        <ele>355</ele>
        <time>2016-03-20T10:33:37.000Z</time>
      </trkpt>
      <trkpt lat="47.52147" lon="6.70283">
        <ele>355</ele>
        <time>2016-03-20T10:33:38.000Z</time>
      </trkpt>
      <trkpt lat="47.52146" lon="6.70287">
        <ele>355</ele>
        <time>2016-03-20T10:33:39.000Z</time>
      </trkpt>
      <trkpt lat="47.52144" lon="6.70291">
        <ele>356</ele>
        <time>2016-03-20T10:33:40.000Z</time>
      </trkpt>
      <trkpt lat="47.52142" lon="6.70295">
        <ele>356</ele>
        <time>2016-03-20T10:33:41.000Z</time>
      </trkpt>
      <trkpt lat="47.52141" lon="6.70299">
        <ele>356</ele>
        <time>2016-03-20T10:33:42.000Z</time>
      </trkpt>
      <trkpt lat="47.52139" lon="6.70304">
        <ele>356</ele>
        <time>2016-03-20T10:33:43.000Z</time>
      </trkpt>
      <trkpt lat="47.52137" lon="6.70308">
        <ele>356</ele>
        <time>2016-03-20T10:33:44.000Z</time>
      </trkpt>
      <trkpt lat="47.52136" lon="6.70313">
        <ele>356</ele>
        <time>2016-03-20T10:33:45.000Z</time>
      </trkpt>
      <trkpt lat="47.52134" lon="6.70317">
        <ele>356</ele>
        <time>2016-03-20T10:33:46.000Z</time>
      </trkpt>
      <trkpt lat="47.52133" lon="6.70321">
        <ele>356</ele>
        <time>2016-03-20T10:33:47.000Z</time>
      </trkpt>
      <trkpt lat="47.52132" lon="6.70326">
        <ele>356</ele>
        <time>2016-03-20T10:33:48.000Z</time>
      </trkpt>
      <trkpt lat="47.52131" lon="6.70331">
        <ele>356</ele>
        <time>2016-03-20T10:33:49.000Z</time>
      </trkpt>
      <trkpt lat="47.5213" lon="6.70335">
        <ele>356</ele>
        <time>2016-03-20T10:33:50.000Z</time>
      </trkpt>
      <trkpt lat="47.52129" lon="6.7034">
        <ele>356</ele>
        <time>2016-03-20T10:33:51.000Z</time>
      </trkpt>
      <trkpt lat="47.52127" lon="6.70345">
        <ele>357</ele>
        <time>2016-03-20T10:33:52.000Z</time>
      </trkpt>
      <trkpt lat="47.52126" lon="6.70349">
        <ele>357</ele>
        <time>2016-03-20T10:33:53.000Z</time>
      </trkpt>
      <trkpt lat="47.52124" lon="6.70353">
        <ele>357</ele>
        <time>2016-03-20T10:33:54.000Z</time>
      </trkpt>
      <trkpt lat="47.52123" lon="6.70357">
        <ele>357</ele>
        <time>2016-03-20T10:33:55.000Z</time>
      </trkpt>
      <trkpt lat="47.52122" lon="6.70361">
        <ele>357</ele>
        <time>2016-03-20T10:33:56.000Z</time>
      </trkpt>
      <trkpt lat="47.5212" lon="6.70365">
        <ele>357</ele>
        <time>2016-03-20T10:33:57.000Z</time>
      </trkpt>
      <trkpt lat="47.52119" lon="6.7037">
        <ele>357</ele>
        <time>2016-03-20T10:33:58.000Z</time>
      </trkpt>
      <trkpt lat="47.52118" lon="6.70375">
        <ele>357</ele>
        <time>2016-03-20T10:33:59.000Z</time>
      </trkpt>
      <trkpt lat="47.52116" lon="6.70381">
        <ele>358</ele>
        <time>2016-03-20T10:34:00.000Z</time>
      </trkpt>
      <trkpt lat="47.52114" lon="6.70386">
        <ele>358</ele>
        <time>2016-03-20T10:34:01.000Z</time>
      </trkpt>
      <trkpt lat="47.52112" lon="6.70392">
        <ele>358</ele>
        <time>2016-03-20T10:34:02.000Z</time>
      </trkpt>
      <trkpt lat="47.52109" lon="6.70397">
        <ele>358</ele>
        <time>2016-03-20T10:34:03.000Z</time>
      </trkpt>
      <trkpt lat="47.52108" lon="6.70403">
        <ele>359</ele>
        <time>2016-03-20T10:34:04.000Z</time>
      </trkpt>
      <trkpt lat="47.52106" lon="6.70409">
        <ele>359</ele>
        <time>2016-03-20T10:34:05.000Z</time>
      </trkpt>
      <trkpt lat="47.52104" lon="6.70414">
        <ele>360</ele>
        <time>2016-03-20T10:34:06.000Z</time>
      </trkpt>
      <trkpt lat="47.52103" lon="6.7042">
        <ele>359</ele>
        <time>2016-03-20T10:34:07.000Z</time>
      </trkpt>
      <trkpt lat="47.52101" lon="6.70424">
        <ele>359</ele>
        <time>2016-03-20T10:34:08.000Z</time>
      </trkpt>
      <trkpt lat="47.52099" lon="6.70429">
        <ele>359</ele>
        <time>2016-03-20T10:34:09.000Z</time>
      </trkpt>
      <trkpt lat="47.52097" lon="6.70434">
        <ele>359</ele>
        <time>2016-03-20T10:34:10.000Z</time>
      </trkpt>
      <trkpt lat="47.52095" lon="6.70438">
        <ele>358</ele>
        <time>2016-03-20T10:34:11.000Z</time>
      </trkpt>
      <trkpt lat="47.52093" lon="6.70444">
        <ele>358</ele>
        <time>2016-03-20T10:34:12.000Z</time>
      </trkpt>
      <trkpt lat="47.52091" lon="6.70449">
        <ele>358</ele>
        <time>2016-03-20T10:34:13.000Z</time>
      </trkpt>
      <trkpt lat="47.5209" lon="6.70454">
        <ele>358</ele>
        <time>2016-03-20T10:34:14.000Z</time>
      </trkpt>
      <trkpt lat="47.52088" lon="6.70459">
        <ele>357</ele>
        <time>2016-03-20T10:34:15.000Z</time>
      </trkpt>
      <trkpt lat="47.52087" lon="6.70464">
        <ele>357</ele>
        <time>2016-03-20T10:34:16.000Z</time>
      </trkpt>
      <trkpt lat="47.52086" lon="6.7047">
        <ele>357</ele>
        <time>2016-03-20T10:34:17.000Z</time>
      </trkpt>
      <trkpt lat="47.52084" lon="6.70476">
        <ele>358</ele>
        <time>2016-03-20T10:34:18.000Z</time>
      </trkpt>
      <trkpt lat="47.52083" lon="6.70483">
        <ele>361</ele>
        <time>2016-03-20T10:34:19.000Z</time>
      </trkpt>
      <trkpt lat="47.52081" lon="6.70489">
        <ele>361</ele>
        <time>2016-03-20T10:34:20.000Z</time>
      </trkpt>
      <trkpt lat="47.5208" lon="6.70496">
        <ele>360</ele>
        <time>2016-03-20T10:34:21.000Z</time>
      </trkpt>
      <trkpt lat="47.52078" lon="6.70502">
        <ele>360</ele>
        <time>2016-03-20T10:34:22.000Z</time>
      </trkpt>
      <trkpt lat="47.52077" lon="6.70508">
        <ele>360</ele>
        <time>2016-03-20T10:34:23.000Z</time>
      </trkpt>
      <trkpt lat="47.52076" lon="6.70515">
        <ele>359</ele>
        <time>2016-03-20T10:34:24.000Z</time>
      </trkpt>
      <trkpt lat="47.52074" lon="6.70522">
        <ele>359</ele>
        <time>2016-03-20T10:34:25.000Z</time>
      </trkpt>
      <trkpt lat="47.52073" lon="6.70528">
        <ele>359</ele>
        <time>2016-03-20T10:34:26.000Z</time>
      </trkpt>
      <trkpt lat="47.52071" lon="6.70534">
        <ele>359</ele>
        <time>2016-03-20T10:34:27.000Z</time>
      </trkpt>
      <trkpt lat="47.52069" lon="6.70539">
        <ele>359</ele>
        <time>2016-03-20T10:34:28.000Z</time>
      </trkpt>
      <trkpt lat="47.52067" lon="6.70543">
        <ele>358</ele>
        <time>2016-03-20T10:34:29.000Z</time>
      </trkpt>
      <trkpt lat="47.52064" lon="6.70546">
        <ele>358</ele>
        <time>2016-03-20T10:34:30.000Z</time>
      </trkpt>
      <trkpt lat="47.52061" lon="6.70549">
        <ele>358</ele>
        <time>2016-03-20T10:34:31.000Z</time>
      </trkpt>
      <trkpt lat="47.52058" lon="6.70552">
        <ele>358</ele>
        <time>2016-03-20T10:34:32.000Z</time>
      </trkpt>
      <trkpt lat="47.52055" lon="6.70556">
        <ele>358</ele>
        <time>2016-03-20T10:34:33.000Z</time>
      </trkpt>
      <trkpt lat="47.52053" lon="6.70562">
        <ele>358</ele>
        <time>2016-03-20T10:34:34.000Z</time>
      </trkpt>
      <trkpt lat="47.5205" lon="6.70568">
        <ele>358</ele>
        <time>2016-03-20T10:34:35.000Z</time>
      </trkpt>
      <trkpt lat="47.52048" lon="6.70575">
        <ele>358</ele>
        <time>2016-03-20T10:34:36.000Z</time>
      </trkpt>
      <trkpt lat="47.52046" lon="6.70582">
        <ele>358</ele>
        <time>2016-03-20T10:34:37.000Z</time>
      </trkpt>
      <trkpt lat="47.52043" lon="6.7059">
        <ele>356</ele>
        <time>2016-03-20T10:34:38.000Z</time>
      </trkpt>
      <trkpt lat="47.52041" lon="6.70598">
        <ele>356</ele>
        <time>2016-03-20T10:34:39.000Z</time>
      </trkpt>
      <trkpt lat="47.52039" lon="6.70608">
        <ele>356</ele>
        <time>2016-03-20T10:34:40.000Z</time>
      </trkpt>
      <trkpt lat="47.52037" lon="6.70617">
        <ele>356</ele>
        <time>2016-03-20T10:34:41.000Z</time>
      </trkpt>
      <trkpt lat="47.52035" lon="6.70627">
        <ele>356</ele>
        <time>2016-03-20T10:34:42.000Z</time>
      </trkpt>
      <trkpt lat="47.52034" lon="6.70636">
        <ele>355</ele>
        <time>2016-03-20T10:34:43.000Z</time>
      </trkpt>
      <trkpt lat="47.52032" lon="6.70645">
        <ele>355</ele>
        <time>2016-03-20T10:34:44.000Z</time>
      </trkpt>
      <trkpt lat="47.52031" lon="6.70653">
        <ele>355</ele>
        <time>2016-03-20T10:34:45.000Z</time>
      </trkpt>
      <trkpt lat="47.52029" lon="6.70659">
        <ele>355</ele>
        <time>2016-03-20T10:34:46.000Z</time>
      </trkpt>
      <trkpt lat="47.52028" lon="6.70666">
        <ele>355</ele>
        <time>2016-03-20T10:34:47.000Z</time>
      </trkpt>
      <trkpt lat="47.52027" lon="6.70671">
        <ele>354</ele>
        <time>2016-03-20T10:34:48.000Z</time>
      </trkpt>
      <trkpt lat="47.52025" lon="6.70678">
        <ele>354</ele>
        <time>2016-03-20T10:34:49.000Z</time>
      </trkpt>
      <trkpt lat="47.52024" lon="6.70686">
        <ele>354</ele>
        <time>2016-03-20T10:34:50.000Z</time>
      </trkpt>
      <trkpt lat="47.52023" lon="6.70693">
        <ele>354</ele>
        <time>2016-03-20T10:34:51.000Z</time>
      </trkpt>
      <trkpt lat="47.52022" lon="6.707">
        <ele>354</ele>
        <time>2016-03-20T10:34:52.000Z</time>
      </trkpt>
      <trkpt lat="47.52021" lon="6.70707">
        <ele>355</ele>
        <time>2016-03-20T10:34:53.000Z</time>
      </trkpt>
      <trkpt lat="47.5202" lon="6.70714">
        <ele>355</ele>
        <time>2016-03-20T10:34:54.000Z</time>
      </trkpt>
      <trkpt lat="47.52018" lon="6.7072">
        <ele>355</ele>
        <time>2016-03-20T10:34:55.000Z</time>
      </trkpt>
      <trkpt lat="47.52017" lon="6.70726">
        <ele>355</ele>
        <time>2016-03-20T10:34:56.000Z</time>
      </trkpt>
      <trkpt lat="47.52015" lon="6.70732">
        <ele>355</ele>
        <time>2016-03-20T10:34:57.000Z</time>
      </trkpt>
      <trkpt lat="47.52014" lon="6.70737">
        <ele>355</ele>
        <time>2016-03-20T10:34:58.000Z</time>
      </trkpt>
      <trkpt lat="47.52012" lon="6.70744">
        <ele>355</ele>
        <time>2016-03-20T10:34:59.000Z</time>
      </trkpt>
      <trkpt lat="47.52011" lon="6.7075">
        <ele>355</ele>
        <time>2016-03-20T10:35:00.000Z</time>
      </trkpt>
      <trkpt lat="47.5201" lon="6.70755">
        <ele>356</ele>
        <time>2016-03-20T10:35:01.000Z</time>
      </trkpt>
      <trkpt lat="47.52008" lon="6.70761">
        <ele>356</ele>
        <time>2016-03-20T10:35:02.000Z</time>
      </trkpt>
      <trkpt lat="47.52007" lon="6.70771">
        <ele>356</ele>
        <time>2016-03-20T10:35:03.000Z</time>
      </trkpt>
      <trkpt lat="47.52005" lon="6.70775">
        <ele>356</ele>
        <time>2016-03-20T10:35:04.000Z</time>
      </trkpt>
      <trkpt lat="47.52004" lon="6.7078">
        <ele>356</ele>
        <time>2016-03-20T10:35:05.000Z</time>
      </trkpt>
      <trkpt lat="47.52003" lon="6.70782">
        <ele>356</ele>
        <time>2016-03-20T10:35:06.000Z</time>
      </trkpt>
      <trkpt lat="47.52" lon="6.70785">
        <ele>357</ele>
        <time>2016-03-20T10:35:07.000Z</time>
      </trkpt>
      <trkpt lat="47.52" lon="6.70789">
        <ele>358</ele>
        <time>2016-03-20T10:35:08.000Z</time>
      </trkpt>
      <trkpt lat="47.51999" lon="6.70792">
        <ele>358</ele>
        <time>2016-03-20T10:35:09.000Z</time>
      </trkpt>
      <trkpt lat="47.51996" lon="6.70796">
        <ele>358</ele>
        <time>2016-03-20T10:35:11.000Z</time>
      </trkpt>
      <trkpt lat="47.51995" lon="6.70798">
        <ele>358</ele>
        <time>2016-03-20T10:35:12.000Z</time>
      </trkpt>
      <trkpt lat="47.51994" lon="6.70811">
        <ele>359</ele>
        <time>2016-03-20T10:35:13.000Z</time>
      </trkpt>
      <trkpt lat="47.51991" lon="6.70815">
        <ele>359</ele>
        <time>2016-03-20T10:35:15.000Z</time>
      </trkpt>
      <trkpt lat="47.5199" lon="6.70822">
        <ele>359</ele>
        <time>2016-03-20T10:35:16.000Z</time>
      </trkpt>
      <trkpt lat="47.51987" lon="6.70824">
        <ele>359</ele>
        <time>2016-03-20T10:35:17.000Z</time>
      </trkpt>
      <trkpt lat="47.51985" lon="6.70827">
        <ele>359</ele>
        <time>2016-03-20T10:35:18.000Z</time>
      </trkpt>
      <trkpt lat="47.51983" lon="6.7083">
        <ele>359</ele>
        <time>2016-03-20T10:35:19.000Z</time>
      </trkpt>
      <trkpt lat="47.51983" lon="6.70836">
        <ele>361</ele>
        <time>2016-03-20T10:35:20.000Z</time>
      </trkpt>
      <trkpt lat="47.51982" lon="6.70842">
        <ele>361</ele>
        <time>2016-03-20T10:35:21.000Z</time>
      </trkpt>
      <trkpt lat="47.51981" lon="6.70847">
        <ele>362</ele>
        <time>2016-03-20T10:35:22.000Z</time>
      </trkpt>
      <trkpt lat="47.5198" lon="6.70851">
        <ele>362</ele>
        <time>2016-03-20T10:35:23.000Z</time>
      </trkpt>
      <trkpt lat="47.51978" lon="6.70855">
        <ele>362</ele>
        <time>2016-03-20T10:35:24.000Z</time>
      </trkpt>
      <trkpt lat="47.51977" lon="6.70858">
        <ele>362</ele>
        <time>2016-03-20T10:35:25.000Z</time>
      </trkpt>
      <trkpt lat="47.51976" lon="6.70861">
        <ele>363</ele>
        <time>2016-03-20T10:35:26.000Z</time>
      </trkpt>
      <trkpt lat="47.51973" lon="6.70865">
        <ele>363</ele>
        <time>2016-03-20T10:35:28.000Z</time>
      </trkpt>
      <trkpt lat="47.51972" lon="6.70867">
        <ele>363</ele>
        <time>2016-03-20T10:35:29.000Z</time>
      </trkpt>
      <trkpt lat="47.5197" lon="6.70869">
        <ele>363</ele>
        <time>2016-03-20T10:35:30.000Z</time>
      </trkpt>
      <trkpt lat="47.51968" lon="6.70872">
        <ele>363</ele>
        <time>2016-03-20T10:35:31.000Z</time>
      </trkpt>
      <trkpt lat="47.51966" lon="6.70874">
        <ele>363</ele>
        <time>2016-03-20T10:35:32.000Z</time>
      </trkpt>
      <trkpt lat="47.51964" lon="6.70875">
        <ele>363</ele>
        <time>2016-03-20T10:35:33.000Z</time>
      </trkpt>
      <trkpt lat="47.51962" lon="6.70876">
        <ele>364</ele>
        <time>2016-03-20T10:35:34.000Z</time>
      </trkpt>
      <trkpt lat="47.51959" lon="6.70876">
        <ele>364</ele>
        <time>2016-03-20T10:35:35.000Z</time>
      </trkpt>
      <trkpt lat="47.51957" lon="6.70876">
        <ele>364</ele>
        <time>2016-03-20T10:35:36.000Z</time>
      </trkpt>
      <trkpt lat="47.51955" lon="6.70877">
        <ele>364</ele>
        <time>2016-03-20T10:35:37.000Z</time>
      </trkpt>
      <trkpt lat="47.5195" lon="6.70876">
        <ele>364</ele>
        <time>2016-03-20T10:35:39.000Z</time>
      </trkpt>
      <trkpt lat="47.51948" lon="6.70875">
        <ele>364</ele>
        <time>2016-03-20T10:35:40.000Z</time>
      </trkpt>
      <trkpt lat="47.51945" lon="6.70873">
        <ele>364</ele>
        <time>2016-03-20T10:35:41.000Z</time>
      </trkpt>
      <trkpt lat="47.51942" lon="6.70872">
        <ele>364</ele>
        <time>2016-03-20T10:35:42.000Z</time>
      </trkpt>
      <trkpt lat="47.51939" lon="6.7087">
        <ele>364</ele>
        <time>2016-03-20T10:35:43.000Z</time>
      </trkpt>
      <trkpt lat="47.51936" lon="6.70868">
        <ele>364</ele>
        <time>2016-03-20T10:35:44.000Z</time>
      </trkpt>
      <trkpt lat="47.51933" lon="6.70866">
        <ele>364</ele>
        <time>2016-03-20T10:35:45.000Z</time>
      </trkpt>
      <trkpt lat="47.5193" lon="6.70863">
        <ele>364</ele>
        <time>2016-03-20T10:35:46.000Z</time>
      </trkpt>
      <trkpt lat="47.51924" lon="6.7086">
        <ele>364</ele>
        <time>2016-03-20T10:35:47.000Z</time>
      </trkpt>
      <trkpt lat="47.51921" lon="6.70858">
        <ele>364</ele>
        <time>2016-03-20T10:35:48.000Z</time>
      </trkpt>
      <trkpt lat="47.51918" lon="6.70856">
        <ele>364</ele>
        <time>2016-03-20T10:35:49.000Z</time>
      </trkpt>
      <trkpt lat="47.51915" lon="6.70853">
        <ele>368</ele>
        <time>2016-03-20T10:35:50.000Z</time>
      </trkpt>
      <trkpt lat="47.51912" lon="6.70851">
        <ele>367</ele>
        <time>2016-03-20T10:35:51.000Z</time>
      </trkpt>
      <trkpt lat="47.51907" lon="6.70849">
        <ele>368</ele>
        <time>2016-03-20T10:35:52.000Z</time>
      </trkpt>
      <trkpt lat="47.51906" lon="6.70847">
        <ele>367</ele>
        <time>2016-03-20T10:35:53.000Z</time>
      </trkpt>
      <trkpt lat="47.51903" lon="6.70844">
        <ele>367</ele>
        <time>2016-03-20T10:35:54.000Z</time>
      </trkpt>
      <trkpt lat="47.519" lon="6.70841">
        <ele>368</ele>
        <time>2016-03-20T10:35:55.000Z</time>
      </trkpt>
      <trkpt lat="47.51896" lon="6.70838">
        <ele>368</ele>
        <time>2016-03-20T10:35:56.000Z</time>
      </trkpt>
      <trkpt lat="47.51892" lon="6.70836">
        <ele>368</ele>
        <time>2016-03-20T10:35:57.000Z</time>
      </trkpt>
      <trkpt lat="47.51888" lon="6.70833">
        <ele>364</ele>
        <time>2016-03-20T10:35:58.000Z</time>
      </trkpt>
      <trkpt lat="47.51884" lon="6.7083">
        <ele>364</ele>
        <time>2016-03-20T10:35:59.000Z</time>
      </trkpt>
      <trkpt lat="47.5188" lon="6.70828">
        <ele>364</ele>
        <time>2016-03-20T10:36:00.000Z</time>
      </trkpt>
      <trkpt lat="47.51876" lon="6.70825">
        <ele>364</ele>
        <time>2016-03-20T10:36:01.000Z</time>
      </trkpt>
      <trkpt lat="47.51871" lon="6.70823">
        <ele>365</ele>
        <time>2016-03-20T10:36:02.000Z</time>
      </trkpt>
      <trkpt lat="47.51867" lon="6.70821">
        <ele>365</ele>
        <time>2016-03-20T10:36:03.000Z</time>
      </trkpt>
      <trkpt lat="47.51863" lon="6.70818">
        <ele>365</ele>
        <time>2016-03-20T10:36:04.000Z</time>
      </trkpt>
      <trkpt lat="47.51858" lon="6.70814">
        <ele>365</ele>
        <time>2016-03-20T10:36:05.000Z</time>
      </trkpt>
      <trkpt lat="47.51854" lon="6.7081">
        <ele>365</ele>
        <time>2016-03-20T10:36:06.000Z</time>
      </trkpt>
      <trkpt lat="47.5185" lon="6.70806">
        <ele>365</ele>
        <time>2016-03-20T10:36:07.000Z</time>
      </trkpt>
      <trkpt lat="47.51845" lon="6.70802">
        <ele>365</ele>
        <time>2016-03-20T10:36:08.000Z</time>
      </trkpt>
      <trkpt lat="47.51841" lon="6.70799">
        <ele>365</ele>
        <time>2016-03-20T10:36:09.000Z</time>
      </trkpt>
      <trkpt lat="47.51837" lon="6.70795">
        <ele>365</ele>
        <time>2016-03-20T10:36:10.000Z</time>
      </trkpt>
      <trkpt lat="47.51833" lon="6.70792">
        <ele>369</ele>
        <time>2016-03-20T10:36:11.000Z</time>
      </trkpt>
      <trkpt lat="47.51828" lon="6.70788">
        <ele>369</ele>
        <time>2016-03-20T10:36:12.000Z</time>
      </trkpt>
      <trkpt lat="47.51823" lon="6.70785">
        <ele>369</ele>
        <time>2016-03-20T10:36:13.000Z</time>
      </trkpt>
      <trkpt lat="47.51821" lon="6.70782">
        <ele>369</ele>
        <time>2016-03-20T10:36:14.000Z</time>
      </trkpt>
      <trkpt lat="47.51818" lon="6.70778">
        <ele>369</ele>
        <time>2016-03-20T10:36:15.000Z</time>
      </trkpt>
      <trkpt lat="47.51814" lon="6.70774">
        <ele>369</ele>
        <time>2016-03-20T10:36:16.000Z</time>
      </trkpt>
      <trkpt lat="47.5181" lon="6.7077">
        <ele>369</ele>
        <time>2016-03-20T10:36:17.000Z</time>
      </trkpt>
      <trkpt lat="47.51807" lon="6.70764">
        <ele>368</ele>
        <time>2016-03-20T10:36:18.000Z</time>
      </trkpt>
      <trkpt lat="47.51803" lon="6.70759">
        <ele>369</ele>
        <time>2016-03-20T10:36:19.000Z</time>
      </trkpt>
      <trkpt lat="47.51798" lon="6.70756">
        <ele>369</ele>
        <time>2016-03-20T10:36:20.000Z</time>
      </trkpt>
      <trkpt lat="47.51793" lon="6.70753">
        <ele>369</ele>
        <time>2016-03-20T10:36:21.000Z</time>
      </trkpt>
      <trkpt lat="47.51789" lon="6.70749">
        <ele>365</ele>
        <time>2016-03-20T10:36:22.000Z</time>
      </trkpt>
      <trkpt lat="47.51786" lon="6.70746">
        <ele>365</ele>
        <time>2016-03-20T10:36:23.000Z</time>
      </trkpt>
      <trkpt lat="47.51782" lon="6.70742">
        <ele>365</ele>
        <time>2016-03-20T10:36:24.000Z</time>
      </trkpt>
      <trkpt lat="47.51779" lon="6.7074">
        <ele>365</ele>
        <time>2016-03-20T10:36:25.000Z</time>
      </trkpt>
      <trkpt lat="47.51776" lon="6.70736">
        <ele>365</ele>
        <time>2016-03-20T10:36:26.000Z</time>
      </trkpt>
      <trkpt lat="47.51772" lon="6.70733">
        <ele>365</ele>
        <time>2016-03-20T10:36:27.000Z</time>
      </trkpt>
      <trkpt lat="47.51768" lon="6.7073">
        <ele>366</ele>
        <time>2016-03-20T10:36:28.000Z</time>
      </trkpt>
      <trkpt lat="47.51764" lon="6.70725">
        <ele>365</ele>
        <time>2016-03-20T10:36:29.000Z</time>
      </trkpt>
      <trkpt lat="47.51761" lon="6.70722">
        <ele>365</ele>
        <time>2016-03-20T10:36:30.000Z</time>
      </trkpt>
      <trkpt lat="47.51757" lon="6.70718">
        <ele>365</ele>
        <time>2016-03-20T10:36:31.000Z</time>
      </trkpt>
      <trkpt lat="47.51754" lon="6.70716">
        <ele>365</ele>
        <time>2016-03-20T10:36:32.000Z</time>
      </trkpt>
      <trkpt lat="47.5175" lon="6.70713">
        <ele>365</ele>
        <time>2016-03-20T10:36:33.000Z</time>
      </trkpt>
      <trkpt lat="47.51748" lon="6.70709">
        <ele>371</ele>
        <time>2016-03-20T10:36:34.000Z</time>
      </trkpt>
      <trkpt lat="47.51746" lon="6.70706">
        <ele>370</ele>
        <time>2016-03-20T10:36:35.000Z</time>
      </trkpt>
      <trkpt lat="47.51744" lon="6.70703">
        <ele>370</ele>
        <time>2016-03-20T10:36:36.000Z</time>
      </trkpt>
      <trkpt lat="47.51742" lon="6.707">
        <ele>370</ele>
        <time>2016-03-20T10:36:37.000Z</time>
      </trkpt>
      <trkpt lat="47.5174" lon="6.70697">
        <ele>370</ele>
        <time>2016-03-20T10:36:38.000Z</time>
      </trkpt>
      <trkpt lat="47.51738" lon="6.70694">
        <ele>370</ele>
        <time>2016-03-20T10:36:39.000Z</time>
      </trkpt>
      <trkpt lat="47.51737" lon="6.70692">
        <ele>370</ele>
        <time>2016-03-20T10:36:40.000Z</time>
      </trkpt>
      <trkpt lat="47.51734" lon="6.70688">
        <ele>369</ele>
        <time>2016-03-20T10:36:41.000Z</time>
      </trkpt>
      <trkpt lat="47.51726" lon="6.70685">
        <ele>370</ele>
        <time>2016-03-20T10:36:42.000Z</time>
      </trkpt>
      <trkpt lat="47.51724" lon="6.7068">
        <ele>370</ele>
        <time>2016-03-20T10:36:43.000Z</time>
      </trkpt>
      <trkpt lat="47.51721" lon="6.70678">
        <ele>370</ele>
        <time>2016-03-20T10:36:44.000Z</time>
      </trkpt>
      <trkpt lat="47.51718" lon="6.70675">
        <ele>371</ele>
        <time>2016-03-20T10:36:45.000Z</time>
      </trkpt>
      <trkpt lat="47.51716" lon="6.70672">
        <ele>371</ele>
        <time>2016-03-20T10:36:46.000Z</time>
      </trkpt>
      <trkpt lat="47.51712" lon="6.70668">
        <ele>371</ele>
        <time>2016-03-20T10:36:47.000Z</time>
      </trkpt>
      <trkpt lat="47.51709" lon="6.70665">
        <ele>368</ele>
        <time>2016-03-20T10:36:48.000Z</time>
      </trkpt>
      <trkpt lat="47.51707" lon="6.70663">
        <ele>369</ele>
        <time>2016-03-20T10:36:49.000Z</time>
      </trkpt>
      <trkpt lat="47.51704" lon="6.7066">
        <ele>369</ele>
        <time>2016-03-20T10:36:50.000Z</time>
      </trkpt>
      <trkpt lat="47.51701" lon="6.70657">
        <ele>369</ele>
        <time>2016-03-20T10:36:51.000Z</time>
      </trkpt>
      <trkpt lat="47.51699" lon="6.70655">
        <ele>369</ele>
        <time>2016-03-20T10:36:52.000Z</time>
      </trkpt>
      <trkpt lat="47.51697" lon="6.70652">
        <ele>370</ele>
        <time>2016-03-20T10:36:53.000Z</time>
      </trkpt>
      <trkpt lat="47.51694" lon="6.70649">
        <ele>370</ele>
        <time>2016-03-20T10:36:54.000Z</time>
      </trkpt>
      <trkpt lat="47.51692" lon="6.70647">
        <ele>370</ele>
        <time>2016-03-20T10:36:55.000Z</time>
      </trkpt>
      <trkpt lat="47.5169" lon="6.70644">
        <ele>370</ele>
        <time>2016-03-20T10:36:56.000Z</time>
      </trkpt>
      <trkpt lat="47.51687" lon="6.70641">
        <ele>370</ele>
        <time>2016-03-20T10:36:57.000Z</time>
      </trkpt>
      <trkpt lat="47.51685" lon="6.70638">
        <ele>370</ele>
        <time>2016-03-20T10:36:58.000Z</time>
      </trkpt>
      <trkpt lat="47.51682" lon="6.70635">
        <ele>370</ele>
        <time>2016-03-20T10:36:59.000Z</time>
      </trkpt>
      <trkpt lat="47.5168" lon="6.70632">
        <ele>370</ele>
        <time>2016-03-20T10:37:00.000Z</time>
      </trkpt>
      <trkpt lat="47.51678" lon="6.70629">
        <ele>370</ele>
        <time>2016-03-20T10:37:01.000Z</time>
      </trkpt>
      <trkpt lat="47.51676" lon="6.70626">
        <ele>370</ele>
        <time>2016-03-20T10:37:02.000Z</time>
      </trkpt>
      <trkpt lat="47.51674" lon="6.70622">
        <ele>370</ele>
        <time>2016-03-20T10:37:03.000Z</time>
      </trkpt>
      <trkpt lat="47.51672" lon="6.70619">
        <ele>369</ele>
        <time>2016-03-20T10:37:04.000Z</time>
      </trkpt>
      <trkpt lat="47.5167" lon="6.70616">
        <ele>369</ele>
        <time>2016-03-20T10:37:05.000Z</time>
      </trkpt>
      <trkpt lat="47.51668" lon="6.70612">
        <ele>369</ele>
        <time>2016-03-20T10:37:06.000Z</time>
      </trkpt>
      <trkpt lat="47.51666" lon="6.70608">
        <ele>376</ele>
        <time>2016-03-20T10:37:07.000Z</time>
      </trkpt>
      <trkpt lat="47.51664" lon="6.70604">
        <ele>376</ele>
        <time>2016-03-20T10:37:08.000Z</time>
      </trkpt>
      <trkpt lat="47.51662" lon="6.706">
        <ele>375</ele>
        <time>2016-03-20T10:37:09.000Z</time>
      </trkpt>
      <trkpt lat="47.5166" lon="6.70596">
        <ele>374</ele>
        <time>2016-03-20T10:37:10.000Z</time>
      </trkpt>
      <trkpt lat="47.51658" lon="6.70591">
        <ele>374</ele>
        <time>2016-03-20T10:37:11.000Z</time>
      </trkpt>
      <trkpt lat="47.51656" lon="6.70587">
        <ele>374</ele>
        <time>2016-03-20T10:37:12.000Z</time>
      </trkpt>
      <trkpt lat="47.51655" lon="6.70583">
        <ele>373</ele>
        <time>2016-03-20T10:37:13.000Z</time>
      </trkpt>
      <trkpt lat="47.51654" lon="6.70578">
        <ele>374</ele>
        <time>2016-03-20T10:37:14.000Z</time>
      </trkpt>
      <trkpt lat="47.51652" lon="6.70573">
        <ele>374</ele>
        <time>2016-03-20T10:37:15.000Z</time>
      </trkpt>
      <trkpt lat="47.51651" lon="6.70568">
        <ele>375</ele>
        <time>2016-03-20T10:37:16.000Z</time>
      </trkpt>
      <trkpt lat="47.5165" lon="6.70563">
        <ele>376</ele>
        <time>2016-03-20T10:37:17.000Z</time>
      </trkpt>
      <trkpt lat="47.51649" lon="6.70559">
        <ele>376</ele>
        <time>2016-03-20T10:37:18.000Z</time>
      </trkpt>
      <trkpt lat="47.51648" lon="6.70554">
        <ele>377</ele>
        <time>2016-03-20T10:37:19.000Z</time>
      </trkpt>
      <trkpt lat="47.51647" lon="6.7055">
        <ele>377</ele>
        <time>2016-03-20T10:37:20.000Z</time>
      </trkpt>
      <trkpt lat="47.51646" lon="6.70546">
        <ele>377</ele>
        <time>2016-03-20T10:37:21.000Z</time>
      </trkpt>
      <trkpt lat="47.51645" lon="6.7054">
        <ele>377</ele>
        <time>2016-03-20T10:37:22.000Z</time>
      </trkpt>
      <trkpt lat="47.51644" lon="6.70535">
        <ele>377</ele>
        <time>2016-03-20T10:37:23.000Z</time>
      </trkpt>
      <trkpt lat="47.51644" lon="6.7053">
        <ele>377</ele>
        <time>2016-03-20T10:37:24.000Z</time>
      </trkpt>
      <trkpt lat="47.51643" lon="6.70526">
        <ele>377</ele>
        <time>2016-03-20T10:37:25.000Z</time>
      </trkpt>
      <trkpt lat="47.51643" lon="6.70521">
        <ele>377</ele>
        <time>2016-03-20T10:37:26.000Z</time>
      </trkpt>
      <trkpt lat="47.51643" lon="6.70516">
        <ele>377</ele>
        <time>2016-03-20T10:37:27.000Z</time>
      </trkpt>
      <trkpt lat="47.51642" lon="6.70511">
        <ele>377</ele>
        <time>2016-03-20T10:37:28.000Z</time>
      </trkpt>
      <trkpt lat="47.51642" lon="6.70506">
        <ele>377</ele>
        <time>2016-03-20T10:37:29.000Z</time>
      </trkpt>
      <trkpt lat="47.51642" lon="6.70502">
        <ele>377</ele>
        <time>2016-03-20T10:37:30.000Z</time>
      </trkpt>
      <trkpt lat="47.51642" lon="6.70498">
        <ele>377</ele>
        <time>2016-03-20T10:37:31.000Z</time>
      </trkpt>
      <trkpt lat="47.51642" lon="6.70494">
        <ele>377</ele>
        <time>2016-03-20T10:37:32.000Z</time>
      </trkpt>
      <trkpt lat="47.51641" lon="6.70489">
        <ele>377</ele>
        <time>2016-03-20T10:37:34.000Z</time>
      </trkpt>
      <trkpt lat="47.5164" lon="6.70488">
        <ele>377</ele>
        <time>2016-03-20T10:37:35.000Z</time>
      </trkpt>
      <trkpt lat="47.51637" lon="6.70482">
        <ele>377</ele>
        <time>2016-03-20T10:37:37.000Z</time>
      </trkpt>
      <trkpt lat="47.51635" lon="6.70478">
        <ele>377</ele>
        <time>2016-03-20T10:37:38.000Z</time>
      </trkpt>
      <trkpt lat="47.51633" lon="6.70473">
        <ele>378</ele>
        <time>2016-03-20T10:37:39.000Z</time>
      </trkpt>
      <trkpt lat="47.51631" lon="6.70469">
        <ele>378</ele>
        <time>2016-03-20T10:37:40.000Z</time>
      </trkpt>
      <trkpt lat="47.51628" lon="6.70465">
        <ele>378</ele>
        <time>2016-03-20T10:37:41.000Z</time>
      </trkpt>
      <trkpt lat="47.51627" lon="6.70462">
        <ele>378</ele>
        <time>2016-03-20T10:37:42.000Z</time>
      </trkpt>
      <trkpt lat="47.51624" lon="6.70457">
        <ele>378</ele>
        <time>2016-03-20T10:37:44.000Z</time>
      </trkpt>
      <trkpt lat="47.51623" lon="6.70455">
        <ele>378</ele>
        <time>2016-03-20T10:37:45.000Z</time>
      </trkpt>
      <trkpt lat="47.5162" lon="6.70451">
        <ele>378</ele>
        <time>2016-03-20T10:37:47.000Z</time>
      </trkpt>
      <trkpt lat="47.51618" lon="6.70449">
        <ele>378</ele>
        <time>2016-03-20T10:37:48.000Z</time>
      </trkpt>
      <trkpt lat="47.51615" lon="6.70447">
        <ele>378</ele>
        <time>2016-03-20T10:37:49.000Z</time>
      </trkpt>
      <trkpt lat="47.51612" lon="6.70444">
        <ele>378</ele>
        <time>2016-03-20T10:37:50.000Z</time>
      </trkpt>
      <trkpt lat="47.51609" lon="6.70441">
        <ele>378</ele>
        <time>2016-03-20T10:37:51.000Z</time>
      </trkpt>
      <trkpt lat="47.51607" lon="6.70438">
        <ele>378</ele>
        <time>2016-03-20T10:37:52.000Z</time>
      </trkpt>
      <trkpt lat="47.51604" lon="6.70435">
        <ele>378</ele>
        <time>2016-03-20T10:37:54.000Z</time>
      </trkpt>
      <trkpt lat="47.51603" lon="6.70433">
        <ele>378</ele>
        <time>2016-03-20T10:37:55.000Z</time>
      </trkpt>
      <trkpt lat="47.516" lon="6.7043">
        <ele>378</ele>
        <time>2016-03-20T10:37:56.000Z</time>
      </trkpt>
      <trkpt lat="47.51598" lon="6.70426">
        <ele>378</ele>
        <time>2016-03-20T10:37:57.000Z</time>
      </trkpt>
      <trkpt lat="47.51596" lon="6.70423">
        <ele>378</ele>
        <time>2016-03-20T10:37:58.000Z</time>
      </trkpt>
      <trkpt lat="47.51593" lon="6.7042">
        <ele>378</ele>
        <time>2016-03-20T10:37:59.000Z</time>
      </trkpt>
      <trkpt lat="47.51592" lon="6.70417">
        <ele>378</ele>
        <time>2016-03-20T10:38:00.000Z</time>
      </trkpt>
      <trkpt lat="47.5159" lon="6.70415">
        <ele>377</ele>
        <time>2016-03-20T10:38:01.000Z</time>
      </trkpt>
      <trkpt lat="47.51587" lon="6.70411">
        <ele>377</ele>
        <time>2016-03-20T10:38:03.000Z</time>
      </trkpt>
      <trkpt lat="47.51585" lon="6.70408">
        <ele>376</ele>
        <time>2016-03-20T10:38:04.000Z</time>
      </trkpt>
      <trkpt lat="47.51582" lon="6.70406">
        <ele>375</ele>
        <time>2016-03-20T10:38:05.000Z</time>
      </trkpt>
      <trkpt lat="47.5158" lon="6.70403">
        <ele>375</ele>
        <time>2016-03-20T10:38:06.000Z</time>
      </trkpt>
      <trkpt lat="47.51577" lon="6.70401">
        <ele>375</ele>
        <time>2016-03-20T10:38:07.000Z</time>
      </trkpt>
      <trkpt lat="47.51575" lon="6.70399">
        <ele>374</ele>
        <time>2016-03-20T10:38:08.000Z</time>
      </trkpt>
      <trkpt lat="47.51572" lon="6.70395">
        <ele>374</ele>
        <time>2016-03-20T10:38:10.000Z</time>
      </trkpt>
      <trkpt lat="47.5157" lon="6.70394">
        <ele>373</ele>
        <time>2016-03-20T10:38:11.000Z</time>
      </trkpt>
      <trkpt lat="47.51568" lon="6.70392">
        <ele>373</ele>
        <time>2016-03-20T10:38:12.000Z</time>
      </trkpt>
      <trkpt lat="47.51565" lon="6.7039">
        <ele>373</ele>
        <time>2016-03-20T10:38:13.000Z</time>
      </trkpt>
      <trkpt lat="47.51562" lon="6.70388">
        <ele>372</ele>
        <time>2016-03-20T10:38:15.000Z</time>
      </trkpt>
      <trkpt lat="47.5156" lon="6.70387">
        <ele>372</ele>
        <time>2016-03-20T10:38:16.000Z</time>
      </trkpt>
      <trkpt lat="47.51557" lon="6.70385">
        <ele>372</ele>
        <time>2016-03-20T10:38:18.000Z</time>
      </trkpt>
      <trkpt lat="47.51555" lon="6.70383">
        <ele>372</ele>
        <time>2016-03-20T10:38:19.000Z</time>
      </trkpt>
      <trkpt lat="47.51552" lon="6.7038">
        <ele>372</ele>
        <time>2016-03-20T10:38:20.000Z</time>
      </trkpt>
      <trkpt lat="47.5155" lon="6.70378">
        <ele>372</ele>
        <time>2016-03-20T10:38:21.000Z</time>
      </trkpt>
      <trkpt lat="47.51547" lon="6.70376">
        <ele>371</ele>
        <time>2016-03-20T10:38:22.000Z</time>
      </trkpt>
      <trkpt lat="47.51545" lon="6.70374">
        <ele>371</ele>
        <time>2016-03-20T10:38:23.000Z</time>
      </trkpt>
      <trkpt lat="47.51542" lon="6.70373">
        <ele>371</ele>
        <time>2016-03-20T10:38:24.000Z</time>
      </trkpt>
      <trkpt lat="47.51539" lon="6.70371">
        <ele>371</ele>
        <time>2016-03-20T10:38:25.000Z</time>
      </trkpt>
      <trkpt lat="47.51537" lon="6.70369">
        <ele>371</ele>
        <time>2016-03-20T10:38:26.000Z</time>
      </trkpt>
      <trkpt lat="47.51534" lon="6.70367">
        <ele>371</ele>
        <time>2016-03-20T10:38:27.000Z</time>
      </trkpt>
      <trkpt lat="47.51532" lon="6.70365">
        <ele>371</ele>
        <time>2016-03-20T10:38:28.000Z</time>
      </trkpt>
      <trkpt lat="47.5153" lon="6.70363">
        <ele>370</ele>
        <time>2016-03-20T10:38:29.000Z</time>
      </trkpt>
      <trkpt lat="47.51527" lon="6.70362">
        <ele>370</ele>
        <time>2016-03-20T10:38:30.000Z</time>
      </trkpt>
      <trkpt lat="47.51524" lon="6.7036">
        <ele>370</ele>
        <time>2016-03-20T10:38:31.000Z</time>
      </trkpt>
      <trkpt lat="47.51522" lon="6.7036">
        <ele>370</ele>
        <time>2016-03-20T10:38:32.000Z</time>
      </trkpt>
      <trkpt lat="47.5152" lon="6.70358">
        <ele>370</ele>
        <time>2016-03-20T10:38:33.000Z</time>
      </trkpt>
      <trkpt lat="47.51517" lon="6.70357">
        <ele>370</ele>
        <time>2016-03-20T10:38:34.000Z</time>
      </trkpt>
      <trkpt lat="47.51513" lon="6.70356">
        <ele>369</ele>
        <time>2016-03-20T10:38:35.000Z</time>
      </trkpt>
      <trkpt lat="47.5151" lon="6.70354">
        <ele>369</ele>
        <time>2016-03-20T10:38:36.000Z</time>
      </trkpt>
      <trkpt lat="47.51507" lon="6.70352">
        <ele>369</ele>
        <time>2016-03-20T10:38:37.000Z</time>
      </trkpt>
      <trkpt lat="47.51503" lon="6.7035">
        <ele>369</ele>
        <time>2016-03-20T10:38:38.000Z</time>
      </trkpt>
      <trkpt lat="47.515" lon="6.70348">
        <ele>368</ele>
        <time>2016-03-20T10:38:39.000Z</time>
      </trkpt>
      <trkpt lat="47.51497" lon="6.70346">
        <ele>368</ele>
        <time>2016-03-20T10:38:40.000Z</time>
      </trkpt>
      <trkpt lat="47.51494" lon="6.70344">
        <ele>368</ele>
        <time>2016-03-20T10:38:41.000Z</time>
      </trkpt>
      <trkpt lat="47.51489" lon="6.70343">
        <ele>368</ele>
        <time>2016-03-20T10:38:42.000Z</time>
      </trkpt>
      <trkpt lat="47.51485" lon="6.70342">
        <ele>368</ele>
        <time>2016-03-20T10:38:43.000Z</time>
      </trkpt>
      <trkpt lat="47.51481" lon="6.7034">
        <ele>368</ele>
        <time>2016-03-20T10:38:44.000Z</time>
      </trkpt>
      <trkpt lat="47.51477" lon="6.70338">
        <ele>368</ele>
        <time>2016-03-20T10:38:45.000Z</time>
      </trkpt>
      <trkpt lat="47.51472" lon="6.70336">
        <ele>369</ele>
        <time>2016-03-20T10:38:46.000Z</time>
      </trkpt>
      <trkpt lat="47.51468" lon="6.70334">
        <ele>369</ele>
        <time>2016-03-20T10:38:47.000Z</time>
      </trkpt>
      <trkpt lat="47.51464" lon="6.70331">
        <ele>365</ele>
        <time>2016-03-20T10:38:48.000Z</time>
      </trkpt>
      <trkpt lat="47.51459" lon="6.70329">
        <ele>365</ele>
        <time>2016-03-20T10:38:49.000Z</time>
      </trkpt>
      <trkpt lat="47.51454" lon="6.70326">
        <ele>365</ele>
        <time>2016-03-20T10:38:50.000Z</time>
      </trkpt>
      <trkpt lat="47.5145" lon="6.70323">
        <ele>365</ele>
        <time>2016-03-20T10:38:51.000Z</time>
      </trkpt>
      <trkpt lat="47.51445" lon="6.7032">
        <ele>365</ele>
        <time>2016-03-20T10:38:52.000Z</time>
      </trkpt>
      <trkpt lat="47.5144" lon="6.70318">
        <ele>365</ele>
        <time>2016-03-20T10:38:53.000Z</time>
      </trkpt>
      <trkpt lat="47.51434" lon="6.70315">
        <ele>365</ele>
        <time>2016-03-20T10:38:54.000Z</time>
      </trkpt>
      <trkpt lat="47.51428" lon="6.70312">
        <ele>365</ele>
        <time>2016-03-20T10:38:55.000Z</time>
      </trkpt>
      <trkpt lat="47.51423" lon="6.70309">
        <ele>365</ele>
        <time>2016-03-20T10:38:56.000Z</time>
      </trkpt>
      <trkpt lat="47.51417" lon="6.70305">
        <ele>365</ele>
        <time>2016-03-20T10:38:57.000Z</time>
      </trkpt>
      <trkpt lat="47.51406" lon="6.70298">
        <ele>368</ele>
        <time>2016-03-20T10:38:58.000Z</time>
      </trkpt>
      <trkpt lat="47.51402" lon="6.70294">
        <ele>368</ele>
        <time>2016-03-20T10:38:59.000Z</time>
      </trkpt>
      <trkpt lat="47.51398" lon="6.70291">
        <ele>368</ele>
        <time>2016-03-20T10:39:00.000Z</time>
      </trkpt>
      <trkpt lat="47.51391" lon="6.70291">
        <ele>368</ele>
        <time>2016-03-20T10:39:01.000Z</time>
      </trkpt>
      <trkpt lat="47.51386" lon="6.70294">
        <ele>369</ele>
        <time>2016-03-20T10:39:02.000Z</time>
      </trkpt>
      <trkpt lat="47.51383" lon="6.70298">
        <ele>369</ele>
        <time>2016-03-20T10:39:03.989Z</time>
      </trkpt>
      <trkpt lat="47.5138" lon="6.70298">
        <ele>369</ele>
        <time>2016-03-20T10:39:05.000Z</time>
      </trkpt>
      <trkpt lat="47.51379" lon="6.703">
        <ele>369</ele>
        <time>2016-03-20T10:39:06.000Z</time>
      </trkpt>
      <trkpt lat="47.51376" lon="6.70301">
        <ele>369</ele>
        <time>2016-03-20T10:39:07.000Z</time>
      </trkpt>
      <trkpt lat="47.51372" lon="6.70304">
        <ele>370</ele>
        <time>2016-03-20T10:39:09.000Z</time>
      </trkpt>
      <trkpt lat="47.51371" lon="6.70305">
        <ele>370</ele>
        <time>2016-03-20T10:39:10.000Z</time>
      </trkpt>
      <trkpt lat="47.51368" lon="6.70308">
        <ele>370</ele>
        <time>2016-03-20T10:39:12.000Z</time>
      </trkpt>
      <trkpt lat="47.51366" lon="6.70309">
        <ele>370</ele>
        <time>2016-03-20T10:39:13.000Z</time>
      </trkpt>
      <trkpt lat="47.51362" lon="6.70311">
        <ele>371</ele>
        <time>2016-03-20T10:39:15.000Z</time>
      </trkpt>
      <trkpt lat="47.51359" lon="6.70312">
        <ele>371</ele>
        <time>2016-03-20T10:39:16.000Z</time>
      </trkpt>
      <trkpt lat="47.51355" lon="6.70314">
        <ele>371</ele>
        <time>2016-03-20T10:39:18.000Z</time>
      </trkpt>
      <trkpt lat="47.51353" lon="6.70314">
        <ele>371</ele>
        <time>2016-03-20T10:39:19.000Z</time>
      </trkpt>
      <trkpt lat="47.51349" lon="6.70315">
        <ele>372</ele>
        <time>2016-03-20T10:39:21.000Z</time>
      </trkpt>
      <trkpt lat="47.51347" lon="6.70315">
        <ele>372</ele>
        <time>2016-03-20T10:39:22.000Z</time>
      </trkpt>
      <trkpt lat="47.51344" lon="6.70316">
        <ele>372</ele>
        <time>2016-03-20T10:39:23.000Z</time>
      </trkpt>
      <trkpt lat="47.51342" lon="6.70316">
        <ele>373</ele>
        <time>2016-03-20T10:39:24.000Z</time>
      </trkpt>
      <trkpt lat="47.51339" lon="6.70316">
        <ele>373</ele>
        <time>2016-03-20T10:39:25.000Z</time>
      </trkpt>
      <trkpt lat="47.51336" lon="6.70316">
        <ele>373</ele>
        <time>2016-03-20T10:39:26.000Z</time>
      </trkpt>
      <trkpt lat="47.51333" lon="6.70317">
        <ele>375</ele>
        <time>2016-03-20T10:39:27.000Z</time>
      </trkpt>
      <trkpt lat="47.5133" lon="6.70318">
        <ele>375</ele>
        <time>2016-03-20T10:39:28.000Z</time>
      </trkpt>
      <trkpt lat="47.51327" lon="6.70319">
        <ele>375</ele>
        <time>2016-03-20T10:39:30.000Z</time>
      </trkpt>
      <trkpt lat="47.51326" lon="6.70319">
        <ele>375</ele>
        <time>2016-03-20T10:39:31.000Z</time>
      </trkpt>
      <trkpt lat="47.51325" lon="6.70319">
        <ele>375</ele>
        <time>2016-03-20T10:39:31.998Z</time>
      </trkpt>
      <trkpt lat="47.5132" lon="6.70318">
        <ele>375</ele>
        <time>2016-03-20T10:39:33.000Z</time>
      </trkpt>
      <trkpt lat="47.51317" lon="6.70317">
        <ele>375</ele>
        <time>2016-03-20T10:39:34.000Z</time>
      </trkpt>
      <trkpt lat="47.51314" lon="6.70317">
        <ele>375</ele>
        <time>2016-03-20T10:39:35.000Z</time>
      </trkpt>
      <trkpt lat="47.51311" lon="6.70316">
        <ele>375</ele>
        <time>2016-03-20T10:39:36.000Z</time>
      </trkpt>
      <trkpt lat="47.51308" lon="6.70317">
        <ele>374</ele>
        <time>2016-03-20T10:39:37.000Z</time>
      </trkpt>
      <trkpt lat="47.51305" lon="6.70317">
        <ele>374</ele>
        <time>2016-03-20T10:39:38.000Z</time>
      </trkpt>
      <trkpt lat="47.51302" lon="6.70317">
        <ele>374</ele>
        <time>2016-03-20T10:39:39.000Z</time>
      </trkpt>
      <trkpt lat="47.513" lon="6.70318">
        <ele>374</ele>
        <time>2016-03-20T10:39:40.000Z</time>
      </trkpt>
      <trkpt lat="47.51297" lon="6.70318">
        <ele>374</ele>
        <time>2016-03-20T10:39:41.000Z</time>
      </trkpt>
      <trkpt lat="47.51295" lon="6.70319">
        <ele>374</ele>
        <time>2016-03-20T10:39:42.000Z</time>
      </trkpt>
      <trkpt lat="47.51292" lon="6.7032">
        <ele>375</ele>
        <time>2016-03-20T10:39:43.000Z</time>
      </trkpt>
      <trkpt lat="47.5129" lon="6.70323">
        <ele>375</ele>
        <time>2016-03-20T10:39:45.000Z</time>
      </trkpt>
      <trkpt lat="47.51288" lon="6.70324">
        <ele>375</ele>
        <time>2016-03-20T10:39:46.000Z</time>
      </trkpt>
      <trkpt lat="47.51286" lon="6.70326">
        <ele>375</ele>
        <time>2016-03-20T10:39:48.000Z</time>
      </trkpt>
      <trkpt lat="47.51284" lon="6.70327">
        <ele>375</ele>
        <time>2016-03-20T10:39:49.000Z</time>
      </trkpt>
      <trkpt lat="47.5128" lon="6.70329">
        <ele>375</ele>
        <time>2016-03-20T10:39:51.000Z</time>
      </trkpt>
      <trkpt lat="47.51279" lon="6.70331">
        <ele>375</ele>
        <time>2016-03-20T10:39:52.000Z</time>
      </trkpt>
      <trkpt lat="47.51275" lon="6.70331">
        <ele>375</ele>
        <time>2016-03-20T10:39:54.000Z</time>
      </trkpt>
      <trkpt lat="47.51273" lon="6.70332">
        <ele>375</ele>
        <time>2016-03-20T10:39:55.000Z</time>
      </trkpt>
      <trkpt lat="47.5127" lon="6.70334">
        <ele>380</ele>
        <time>2016-03-20T10:39:58.000Z</time>
      </trkpt>
      <trkpt lat="47.51268" lon="6.70335">
        <ele>380</ele>
        <time>2016-03-20T10:39:59.000Z</time>
      </trkpt>
      <trkpt lat="47.51265" lon="6.70335">
        <ele>379</ele>
        <time>2016-03-20T10:40:00.000Z</time>
      </trkpt>
      <trkpt lat="47.5126" lon="6.70337">
        <ele>379</ele>
        <time>2016-03-20T10:40:02.000Z</time>
      </trkpt>
      <trkpt lat="47.51258" lon="6.70339">
        <ele>379</ele>
        <time>2016-03-20T10:40:03.000Z</time>
      </trkpt>
      <trkpt lat="47.51256" lon="6.70341">
        <ele>379</ele>
        <time>2016-03-20T10:40:04.000Z</time>
      </trkpt>
      <trkpt lat="47.51253" lon="6.70346">
        <ele>379</ele>
        <time>2016-03-20T10:40:06.000Z</time>
      </trkpt>
      <trkpt lat="47.51251" lon="6.70347">
        <ele>380</ele>
        <time>2016-03-20T10:40:07.000Z</time>
      </trkpt>
      <trkpt lat="47.51247" lon="6.70349">
        <ele>380</ele>
        <time>2016-03-20T10:40:09.000Z</time>
      </trkpt>
      <trkpt lat="47.51245" lon="6.70351">
        <ele>380</ele>
        <time>2016-03-20T10:40:10.000Z</time>
      </trkpt>
      <trkpt lat="47.51243" lon="6.70353">
        <ele>380</ele>
        <time>2016-03-20T10:40:11.000Z</time>
      </trkpt>
      <trkpt lat="47.5124" lon="6.70355">
        <ele>381</ele>
        <time>2016-03-20T10:40:12.000Z</time>
      </trkpt>
      <trkpt lat="47.51236" lon="6.70358">
        <ele>381</ele>
        <time>2016-03-20T10:40:14.000Z</time>
      </trkpt>
      <trkpt lat="47.51234" lon="6.70359">
        <ele>381</ele>
        <time>2016-03-20T10:40:15.000Z</time>
      </trkpt>
      <trkpt lat="47.51231" lon="6.70362">
        <ele>381</ele>
        <time>2016-03-20T10:40:17.000Z</time>
      </trkpt>
      <trkpt lat="47.5123" lon="6.70362">
        <ele>381</ele>
        <time>2016-03-20T10:40:18.000Z</time>
      </trkpt>
      <trkpt lat="47.51229" lon="6.70365">
        <ele>381</ele>
        <time>2016-03-20T10:40:20.000Z</time>
      </trkpt>
      <trkpt lat="47.51227" lon="6.70367">
        <ele>382</ele>
        <time>2016-03-20T10:40:21.000Z</time>
      </trkpt>
      <trkpt lat="47.51224" lon="6.70368">
        <ele>382</ele>
        <time>2016-03-20T10:40:22.000Z</time>
      </trkpt>
      <trkpt lat="47.51221" lon="6.70369">
        <ele>382</ele>
        <time>2016-03-20T10:40:23.000Z</time>
      </trkpt>
      <trkpt lat="47.51218" lon="6.7037">
        <ele>382</ele>
        <time>2016-03-20T10:40:24.000Z</time>
      </trkpt>
      <trkpt lat="47.51215" lon="6.70371">
        <ele>382</ele>
        <time>2016-03-20T10:40:25.000Z</time>
      </trkpt>
      <trkpt lat="47.51212" lon="6.70373">
        <ele>382</ele>
        <time>2016-03-20T10:40:26.000Z</time>
      </trkpt>
      <trkpt lat="47.51209" lon="6.70374">
        <ele>382</ele>
        <time>2016-03-20T10:40:27.000Z</time>
      </trkpt>
      <trkpt lat="47.51206" lon="6.70376">
        <ele>382</ele>
        <time>2016-03-20T10:40:28.000Z</time>
      </trkpt>
      <trkpt lat="47.51202" lon="6.70378">
        <ele>382</ele>
        <time>2016-03-20T10:40:29.000Z</time>
      </trkpt>
      <trkpt lat="47.51199" lon="6.70382">
        <ele>382</ele>
        <time>2016-03-20T10:40:30.000Z</time>
      </trkpt>
      <trkpt lat="47.51196" lon="6.70385">
        <ele>383</ele>
        <time>2016-03-20T10:40:31.000Z</time>
      </trkpt>
      <trkpt lat="47.51194" lon="6.7039">
        <ele>383</ele>
        <time>2016-03-20T10:40:32.000Z</time>
      </trkpt>
      <trkpt lat="47.51192" lon="6.70394">
        <ele>383</ele>
        <time>2016-03-20T10:40:33.000Z</time>
      </trkpt>
      <trkpt lat="47.51189" lon="6.70398">
        <ele>384</ele>
        <time>2016-03-20T10:40:34.000Z</time>
      </trkpt>
      <trkpt lat="47.51187" lon="6.70401">
        <ele>384</ele>
        <time>2016-03-20T10:40:35.000Z</time>
      </trkpt>
      <trkpt lat="47.51185" lon="6.70404">
        <ele>384</ele>
        <time>2016-03-20T10:40:36.000Z</time>
      </trkpt>
      <trkpt lat="47.51182" lon="6.70406">
        <ele>384</ele>
        <time>2016-03-20T10:40:37.000Z</time>
      </trkpt>
      <trkpt lat="47.51179" lon="6.70408">
        <ele>385</ele>
        <time>2016-03-20T10:40:38.000Z</time>
      </trkpt>
      <trkpt lat="47.51176" lon="6.70409">
        <ele>385</ele>
        <time>2016-03-20T10:40:39.000Z</time>
      </trkpt>
      <trkpt lat="47.51173" lon="6.7041">
        <ele>385</ele>
        <time>2016-03-20T10:40:40.000Z</time>
      </trkpt>
      <trkpt lat="47.5117" lon="6.7041">
        <ele>386</ele>
        <time>2016-03-20T10:40:41.000Z</time>
      </trkpt>
      <trkpt lat="47.51166" lon="6.70413">
        <ele>386</ele>
        <time>2016-03-20T10:40:43.000Z</time>
      </trkpt>
      <trkpt lat="47.51165" lon="6.70414">
        <ele>386</ele>
        <time>2016-03-20T10:40:44.000Z</time>
      </trkpt>
      <trkpt lat="47.51162" lon="6.70416">
        <ele>386</ele>
        <time>2016-03-20T10:40:48.000Z</time>
      </trkpt>
      <trkpt lat="47.51159" lon="6.70418">
        <ele>387</ele>
        <time>2016-03-20T10:40:49.000Z</time>
      </trkpt>
      <trkpt lat="47.51156" lon="6.70421">
        <ele>388</ele>
        <time>2016-03-20T10:40:50.000Z</time>
      </trkpt>
      <trkpt lat="47.51152" lon="6.70424">
        <ele>388</ele>
        <time>2016-03-20T10:40:51.000Z</time>
      </trkpt>
      <trkpt lat="47.51147" lon="6.70427">
        <ele>388</ele>
        <time>2016-03-20T10:40:52.000Z</time>
      </trkpt>
      <trkpt lat="47.51144" lon="6.70429">
        <ele>388</ele>
        <time>2016-03-20T10:40:53.000Z</time>
      </trkpt>
      <trkpt lat="47.5114" lon="6.70432">
        <ele>388</ele>
        <time>2016-03-20T10:40:54.000Z</time>
      </trkpt>
      <trkpt lat="47.51136" lon="6.70431">
        <ele>388</ele>
        <time>2016-03-20T10:40:55.000Z</time>
      </trkpt>
      <trkpt lat="47.51133" lon="6.7043">
        <ele>388</ele>
        <time>2016-03-20T10:40:56.000Z</time>
      </trkpt>
      <trkpt lat="47.5113" lon="6.70428">
        <ele>388</ele>
        <time>2016-03-20T10:40:57.000Z</time>
      </trkpt>
      <trkpt lat="47.51127" lon="6.70428">
        <ele>388</ele>
        <time>2016-03-20T10:40:58.000Z</time>
      </trkpt>
      <trkpt lat="47.51123" lon="6.7043">
        <ele>388</ele>
        <time>2016-03-20T10:40:59.000Z</time>
      </trkpt>
      <trkpt lat="47.5112" lon="6.70431">
        <ele>387</ele>
        <time>2016-03-20T10:41:00.000Z</time>
      </trkpt>
      <trkpt lat="47.51117" lon="6.70432">
        <ele>387</ele>
        <time>2016-03-20T10:41:01.000Z</time>
      </trkpt>
      <trkpt lat="47.51114" lon="6.70433">
        <ele>387</ele>
        <time>2016-03-20T10:41:02.000Z</time>
      </trkpt>
      <trkpt lat="47.51111" lon="6.70434">
        <ele>387</ele>
        <time>2016-03-20T10:41:03.000Z</time>
      </trkpt>
      <trkpt lat="47.51108" lon="6.70434">
        <ele>387</ele>
        <time>2016-03-20T10:41:04.000Z</time>
      </trkpt>
      <trkpt lat="47.51104" lon="6.70433">
        <ele>387</ele>
        <time>2016-03-20T10:41:05.000Z</time>
      </trkpt>
      <trkpt lat="47.51101" lon="6.70432">
        <ele>386</ele>
        <time>2016-03-20T10:41:06.000Z</time>
      </trkpt>
      <trkpt lat="47.51096" lon="6.7043">
        <ele>386</ele>
        <time>2016-03-20T10:41:07.000Z</time>
      </trkpt>
      <trkpt lat="47.51092" lon="6.70429">
        <ele>385</ele>
        <time>2016-03-20T10:41:08.000Z</time>
      </trkpt>
      <trkpt lat="47.51088" lon="6.70429">
        <ele>385</ele>
        <time>2016-03-20T10:41:09.000Z</time>
      </trkpt>
      <trkpt lat="47.51084" lon="6.70429">
        <ele>385</ele>
        <time>2016-03-20T10:41:10.000Z</time>
      </trkpt>
      <trkpt lat="47.5108" lon="6.7043">
        <ele>382</ele>
        <time>2016-03-20T10:41:11.000Z</time>
      </trkpt>
      <trkpt lat="47.51077" lon="6.70432">
        <ele>382</ele>
        <time>2016-03-20T10:41:12.000Z</time>
      </trkpt>
      <trkpt lat="47.51075" lon="6.70435">
        <ele>382</ele>
        <time>2016-03-20T10:41:13.000Z</time>
      </trkpt>
      <trkpt lat="47.51072" lon="6.70439">
        <ele>382</ele>
        <time>2016-03-20T10:41:14.000Z</time>
      </trkpt>
      <trkpt lat="47.5107" lon="6.70443">
        <ele>382</ele>
        <time>2016-03-20T10:41:15.000Z</time>
      </trkpt>
      <trkpt lat="47.51068" lon="6.70446">
        <ele>382</ele>
        <time>2016-03-20T10:41:16.000Z</time>
      </trkpt>
      <trkpt lat="47.51066" lon="6.7045">
        <ele>382</ele>
        <time>2016-03-20T10:41:17.000Z</time>
      </trkpt>
      <trkpt lat="47.51063" lon="6.70454">
        <ele>383</ele>
        <time>2016-03-20T10:41:18.000Z</time>
      </trkpt>
      <trkpt lat="47.51061" lon="6.70458">
        <ele>383</ele>
        <time>2016-03-20T10:41:19.000Z</time>
      </trkpt>
      <trkpt lat="47.51058" lon="6.70461">
        <ele>383</ele>
        <time>2016-03-20T10:41:20.000Z</time>
      </trkpt>
      <trkpt lat="47.51056" lon="6.70465">
        <ele>383</ele>
        <time>2016-03-20T10:41:21.000Z</time>
      </trkpt>
      <trkpt lat="47.51053" lon="6.7047">
        <ele>383</ele>
        <time>2016-03-20T10:41:22.000Z</time>
      </trkpt>
      <trkpt lat="47.51052" lon="6.70475">
        <ele>383</ele>
        <time>2016-03-20T10:41:23.000Z</time>
      </trkpt>
      <trkpt lat="47.5105" lon="6.70479">
        <ele>383</ele>
        <time>2016-03-20T10:41:24.000Z</time>
      </trkpt>
      <trkpt lat="47.51048" lon="6.70484">
        <ele>383</ele>
        <time>2016-03-20T10:41:25.000Z</time>
      </trkpt>
      <trkpt lat="47.51047" lon="6.70488">
        <ele>383</ele>
        <time>2016-03-20T10:41:26.000Z</time>
      </trkpt>
      <trkpt lat="47.51045" lon="6.70491">
        <ele>383</ele>
        <time>2016-03-20T10:41:27.000Z</time>
      </trkpt>
      <trkpt lat="47.51043" lon="6.70493">
        <ele>383</ele>
        <time>2016-03-20T10:41:28.000Z</time>
      </trkpt>
      <trkpt lat="47.51042" lon="6.70499">
        <ele>383</ele>
        <time>2016-03-20T10:41:31.000Z</time>
      </trkpt>
      <trkpt lat="47.51041" lon="6.70502">
        <ele>388</ele>
        <time>2016-03-20T10:41:32.000Z</time>
      </trkpt>
      <trkpt lat="47.5104" lon="6.70506">
        <ele>387</ele>
        <time>2016-03-20T10:41:33.000Z</time>
      </trkpt>
      <trkpt lat="47.5104" lon="6.70509">
        <ele>387</ele>
        <time>2016-03-20T10:41:34.000Z</time>
      </trkpt>
      <trkpt lat="47.5104" lon="6.70512">
        <ele>388</ele>
        <time>2016-03-20T10:41:35.000Z</time>
      </trkpt>
      <trkpt lat="47.51039" lon="6.70516">
        <ele>388</ele>
        <time>2016-03-20T10:41:36.000Z</time>
      </trkpt>
      <trkpt lat="47.51039" lon="6.70521">
        <ele>388</ele>
        <time>2016-03-20T10:41:37.000Z</time>
      </trkpt>
      <trkpt lat="47.51039" lon="6.70525">
        <ele>388</ele>
        <time>2016-03-20T10:41:38.000Z</time>
      </trkpt>
      <trkpt lat="47.51038" lon="6.70529">
        <ele>388</ele>
        <time>2016-03-20T10:41:39.000Z</time>
      </trkpt>
      <trkpt lat="47.51038" lon="6.70533">
        <ele>388</ele>
        <time>2016-03-20T10:41:40.000Z</time>
      </trkpt>
      <trkpt lat="47.51037" lon="6.70536">
        <ele>388</ele>
        <time>2016-03-20T10:41:41.000Z</time>
      </trkpt>
      <trkpt lat="47.51036" lon="6.70539">
        <ele>388</ele>
        <time>2016-03-20T10:41:42.000Z</time>
      </trkpt>
      <trkpt lat="47.51034" lon="6.70545">
        <ele>388</ele>
        <time>2016-03-20T10:41:44.000Z</time>
      </trkpt>
      <trkpt lat="47.51033" lon="6.70547">
        <ele>388</ele>
        <time>2016-03-20T10:41:45.000Z</time>
      </trkpt>
      <trkpt lat="47.51032" lon="6.70552">
        <ele>388</ele>
        <time>2016-03-20T10:41:47.000Z</time>
      </trkpt>
      <trkpt lat="47.51031" lon="6.70554">
        <ele>388</ele>
        <time>2016-03-20T10:41:48.000Z</time>
      </trkpt>
      <trkpt lat="47.5103" lon="6.70559">
        <ele>388</ele>
        <time>2016-03-20T10:41:50.000Z</time>
      </trkpt>
      <trkpt lat="47.51028" lon="6.70562">
        <ele>388</ele>
        <time>2016-03-20T10:41:51.000Z</time>
      </trkpt>
      <trkpt lat="47.51027" lon="6.70567">
        <ele>388</ele>
        <time>2016-03-20T10:41:53.000Z</time>
      </trkpt>
      <trkpt lat="47.51026" lon="6.7057">
        <ele>388</ele>
        <time>2016-03-20T10:41:54.000Z</time>
      </trkpt>
      <trkpt lat="47.51024" lon="6.70573">
        <ele>388</ele>
        <time>2016-03-20T10:41:57.000Z</time>
      </trkpt>
      <trkpt lat="47.51024" lon="6.70575">
        <ele>388</ele>
        <time>2016-03-20T10:41:58.000Z</time>
      </trkpt>
      <trkpt lat="47.51022" lon="6.70579">
        <ele>388</ele>
        <time>2016-03-20T10:42:00.000Z</time>
      </trkpt>
      <trkpt lat="47.51022" lon="6.70581">
        <ele>388</ele>
        <time>2016-03-20T10:42:01.000Z</time>
      </trkpt>
      <trkpt lat="47.51019" lon="6.70585">
        <ele>390</ele>
        <time>2016-03-20T10:42:04.000Z</time>
      </trkpt>
      <trkpt lat="47.51018" lon="6.70586">
        <ele>390</ele>
        <time>2016-03-20T10:42:05.000Z</time>
      </trkpt>
      <trkpt lat="47.51015" lon="6.70589">
        <ele>389</ele>
        <time>2016-03-20T10:42:07.000Z</time>
      </trkpt>
      <trkpt lat="47.51014" lon="6.7059">
        <ele>389</ele>
        <time>2016-03-20T10:42:08.000Z</time>
      </trkpt>
      <trkpt lat="47.51011" lon="6.70594">
        <ele>389</ele>
        <time>2016-03-20T10:42:10.000Z</time>
      </trkpt>
      <trkpt lat="47.5101" lon="6.70595">
        <ele>389</ele>
        <time>2016-03-20T10:42:11.000Z</time>
      </trkpt>
      <trkpt lat="47.51008" lon="6.70597">
        <ele>389</ele>
        <time>2016-03-20T10:42:12.000Z</time>
      </trkpt>
      <trkpt lat="47.51006" lon="6.70598">
        <ele>389</ele>
        <time>2016-03-20T10:42:13.000Z</time>
      </trkpt>
      <trkpt lat="47.51003" lon="6.70599">
        <ele>389</ele>
        <time>2016-03-20T10:42:14.000Z</time>
      </trkpt>
      <trkpt lat="47.50999" lon="6.70601">
        <ele>384</ele>
        <time>2016-03-20T10:42:15.000Z</time>
      </trkpt>
      <trkpt lat="47.50996" lon="6.70603">
        <ele>383</ele>
        <time>2016-03-20T10:42:16.000Z</time>
      </trkpt>
      <trkpt lat="47.50993" lon="6.70605">
        <ele>383</ele>
        <time>2016-03-20T10:42:17.000Z</time>
      </trkpt>
      <trkpt lat="47.50989" lon="6.70606">
        <ele>383</ele>
        <time>2016-03-20T10:42:18.000Z</time>
      </trkpt>
      <trkpt lat="47.50985" lon="6.70609">
        <ele>383</ele>
        <time>2016-03-20T10:42:19.000Z</time>
      </trkpt>
      <trkpt lat="47.50981" lon="6.70612">
        <ele>382</ele>
        <time>2016-03-20T10:42:20.000Z</time>
      </trkpt>
      <trkpt lat="47.50978" lon="6.70616">
        <ele>382</ele>
        <time>2016-03-20T10:42:21.000Z</time>
      </trkpt>
      <trkpt lat="47.50974" lon="6.7062">
        <ele>382</ele>
        <time>2016-03-20T10:42:22.000Z</time>
      </trkpt>
      <trkpt lat="47.5097" lon="6.70622">
        <ele>382</ele>
        <time>2016-03-20T10:42:23.000Z</time>
      </trkpt>
      <trkpt lat="47.50967" lon="6.70625">
        <ele>381</ele>
        <time>2016-03-20T10:42:24.000Z</time>
      </trkpt>
      <trkpt lat="47.50963" lon="6.70628">
        <ele>381</ele>
        <time>2016-03-20T10:42:25.000Z</time>
      </trkpt>
      <trkpt lat="47.50959" lon="6.70631">
        <ele>381</ele>
        <time>2016-03-20T10:42:26.000Z</time>
      </trkpt>
      <trkpt lat="47.50956" lon="6.70635">
        <ele>381</ele>
        <time>2016-03-20T10:42:27.000Z</time>
      </trkpt>
      <trkpt lat="47.50954" lon="6.70638">
        <ele>381</ele>
        <time>2016-03-20T10:42:28.000Z</time>
      </trkpt>
      <trkpt lat="47.50952" lon="6.70642">
        <ele>381</ele>
        <time>2016-03-20T10:42:29.000Z</time>
      </trkpt>
      <trkpt lat="47.50951" lon="6.70645">
        <ele>380</ele>
        <time>2016-03-20T10:42:30.000Z</time>
      </trkpt>
      <trkpt lat="47.5095" lon="6.70648">
        <ele>380</ele>
        <time>2016-03-20T10:42:31.000Z</time>
      </trkpt>
      <trkpt lat="47.50948" lon="6.70654">
        <ele>380</ele>
        <time>2016-03-20T10:42:33.000Z</time>
      </trkpt>
      <trkpt lat="47.50947" lon="6.70657">
        <ele>380</ele>
        <time>2016-03-20T10:42:34.000Z</time>
      </trkpt>
      <trkpt lat="47.50946" lon="6.70663">
        <ele>380</ele>
        <time>2016-03-20T10:42:36.000Z</time>
      </trkpt>
      <trkpt lat="47.50945" lon="6.70666">
        <ele>380</ele>
        <time>2016-03-20T10:42:37.000Z</time>
      </trkpt>
      <trkpt lat="47.50943" lon="6.70671">
        <ele>382</ele>
        <time>2016-03-20T10:42:39.000Z</time>
      </trkpt>
      <trkpt lat="47.50942" lon="6.70674">
        <ele>382</ele>
        <time>2016-03-20T10:42:40.000Z</time>
      </trkpt>
      <trkpt lat="47.5094" lon="6.70679">
        <ele>382</ele>
        <time>2016-03-20T10:42:42.000Z</time>
      </trkpt>
      <trkpt lat="47.50939" lon="6.70681">
        <ele>382</ele>
        <time>2016-03-20T10:42:43.000Z</time>
      </trkpt>
      <trkpt lat="47.50936" lon="6.70685">
        <ele>382</ele>
        <time>2016-03-20T10:42:45.000Z</time>
      </trkpt>
      <trkpt lat="47.50935" lon="6.70688">
        <ele>382</ele>
        <time>2016-03-20T10:42:46.000Z</time>
      </trkpt>
      <trkpt lat="47.50933" lon="6.70691">
        <ele>382</ele>
        <time>2016-03-20T10:42:47.000Z</time>
      </trkpt>
      <trkpt lat="47.50933" lon="6.70695">
        <ele>382</ele>
        <time>2016-03-20T10:42:48.000Z</time>
      </trkpt>
      <trkpt lat="47.50932" lon="6.70701">
        <ele>382</ele>
        <time>2016-03-20T10:42:52.000Z</time>
      </trkpt>
      <trkpt lat="47.50933" lon="6.70702">
        <ele>382</ele>
        <time>2016-03-20T10:42:53.000Z</time>
      </trkpt>
      <trkpt lat="47.50933" lon="6.70708">
        <ele>383</ele>
        <time>2016-03-20T10:42:59.000Z</time>
      </trkpt>
      <trkpt lat="47.50933" lon="6.70709">
        <ele>383</ele>
        <time>2016-03-20T10:43:00.000Z</time>
      </trkpt>
      <trkpt lat="47.50937" lon="6.70709">
        <ele>383</ele>
        <time>2016-03-20T10:43:08.000Z</time>
      </trkpt>
      <trkpt lat="47.50938" lon="6.70708">
        <ele>383</ele>
        <time>2016-03-20T10:43:09.000Z</time>
      </trkpt>
      <trkpt lat="47.50939" lon="6.70705">
        <ele>383</ele>
        <time>2016-03-20T10:43:11.000Z</time>
      </trkpt>
      <trkpt lat="47.50939" lon="6.70701">
        <ele>383</ele>
        <time>2016-03-20T10:43:12.000Z</time>
      </trkpt>
      <trkpt lat="47.50937" lon="6.70697">
        <ele>382</ele>
        <time>2016-03-20T10:43:13.000Z</time>
      </trkpt>
      <trkpt lat="47.50935" lon="6.70693">
        <ele>382</ele>
        <time>2016-03-20T10:43:14.000Z</time>
      </trkpt>
      <trkpt lat="47.50933" lon="6.7069">
        <ele>382</ele>
        <time>2016-03-20T10:43:15.000Z</time>
      </trkpt>
      <trkpt lat="47.50931" lon="6.70686">
        <ele>381</ele>
        <time>2016-03-20T10:43:16.000Z</time>
      </trkpt>
      <trkpt lat="47.50929" lon="6.70683">
        <ele>381</ele>
        <time>2016-03-20T10:43:17.000Z</time>
      </trkpt>
      <trkpt lat="47.50927" lon="6.70682">
        <ele>380</ele>
        <time>2016-03-20T10:43:18.000Z</time>
      </trkpt>
      <trkpt lat="47.50923" lon="6.70681">
        <ele>380</ele>
        <time>2016-03-20T10:43:20.000Z</time>
      </trkpt>
      <trkpt lat="47.50921" lon="6.70682">
        <ele>380</ele>
        <time>2016-03-20T10:43:21.000Z</time>
      </trkpt>
      <trkpt lat="47.50918" lon="6.70687">
        <ele>380</ele>
        <time>2016-03-20T10:43:23.000Z</time>
      </trkpt>
      <trkpt lat="47.50917" lon="6.70689">
        <ele>381</ele>
        <time>2016-03-20T10:43:24.000Z</time>
      </trkpt>
      <trkpt lat="47.50915" lon="6.70694">
        <ele>374</ele>
        <time>2016-03-20T10:43:26.000Z</time>
      </trkpt>
      <trkpt lat="47.50914" lon="6.70697">
        <ele>373</ele>
        <time>2016-03-20T10:43:27.000Z</time>
      </trkpt>
      <trkpt lat="47.50911" lon="6.70701">
        <ele>373</ele>
        <time>2016-03-20T10:43:29.000Z</time>
      </trkpt>
      <trkpt lat="47.5091" lon="6.70704">
        <ele>373</ele>
        <time>2016-03-20T10:43:30.000Z</time>
      </trkpt>
      <trkpt lat="47.5091" lon="6.70708">
        <ele>373</ele>
        <time>2016-03-20T10:43:31.000Z</time>
      </trkpt>
      <trkpt lat="47.50909" lon="6.70711">
        <ele>373</ele>
        <time>2016-03-20T10:43:32.000Z</time>
      </trkpt>
      <trkpt lat="47.50908" lon="6.70715">
        <ele>374</ele>
        <time>2016-03-20T10:43:33.000Z</time>
      </trkpt>
      <trkpt lat="47.50907" lon="6.70719">
        <ele>374</ele>
        <time>2016-03-20T10:43:34.000Z</time>
      </trkpt>
      <trkpt lat="47.50906" lon="6.70724">
        <ele>374</ele>
        <time>2016-03-20T10:43:35.000Z</time>
      </trkpt>
      <trkpt lat="47.50906" lon="6.70728">
        <ele>374</ele>
        <time>2016-03-20T10:43:36.000Z</time>
      </trkpt>
      <trkpt lat="47.50905" lon="6.70733">
        <ele>375</ele>
        <time>2016-03-20T10:43:37.000Z</time>
      </trkpt>
      <trkpt lat="47.50904" lon="6.70738">
        <ele>375</ele>
        <time>2016-03-20T10:43:38.000Z</time>
      </trkpt>
      <trkpt lat="47.50903" lon="6.70743">
        <ele>375</ele>
        <time>2016-03-20T10:43:39.000Z</time>
      </trkpt>
      <trkpt lat="47.50902" lon="6.70749">
        <ele>375</ele>
        <time>2016-03-20T10:43:40.000Z</time>
      </trkpt>
      <trkpt lat="47.509" lon="6.70754">
        <ele>375</ele>
        <time>2016-03-20T10:43:41.000Z</time>
      </trkpt>
      <trkpt lat="47.50899" lon="6.70757">
        <ele>375</ele>
        <time>2016-03-20T10:43:41.998Z</time>
      </trkpt>
      <trkpt lat="47.50896" lon="6.70765">
        <ele>374</ele>
        <time>2016-03-20T10:43:43.000Z</time>
      </trkpt>
      <trkpt lat="47.50895" lon="6.7077">
        <ele>374</ele>
        <time>2016-03-20T10:43:44.000Z</time>
      </trkpt>
      <trkpt lat="47.50894" lon="6.70775">
        <ele>374</ele>
        <time>2016-03-20T10:43:45.000Z</time>
      </trkpt>
      <trkpt lat="47.50894" lon="6.7078">
        <ele>374</ele>
        <time>2016-03-20T10:43:46.000Z</time>
      </trkpt>
      <trkpt lat="47.50894" lon="6.70786">
        <ele>373</ele>
        <time>2016-03-20T10:43:47.000Z</time>
      </trkpt>
      <trkpt lat="47.50894" lon="6.70792">
        <ele>373</ele>
        <time>2016-03-20T10:43:48.000Z</time>
      </trkpt>
      <trkpt lat="47.50894" lon="6.70798">
        <ele>373</ele>
        <time>2016-03-20T10:43:49.000Z</time>
      </trkpt>
      <trkpt lat="47.50894" lon="6.70803">
        <ele>374</ele>
        <time>2016-03-20T10:43:50.000Z</time>
      </trkpt>
      <trkpt lat="47.50894" lon="6.70809">
        <ele>374</ele>
        <time>2016-03-20T10:43:51.000Z</time>
      </trkpt>
      <trkpt lat="47.50895" lon="6.70814">
        <ele>374</ele>
        <time>2016-03-20T10:43:52.000Z</time>
      </trkpt>
      <trkpt lat="47.50895" lon="6.70818">
        <ele>374</ele>
        <time>2016-03-20T10:43:53.000Z</time>
      </trkpt>
      <trkpt lat="47.50896" lon="6.70822">
        <ele>375</ele>
        <time>2016-03-20T10:43:54.000Z</time>
      </trkpt>
      <trkpt lat="47.50896" lon="6.70826">
        <ele>375</ele>
        <time>2016-03-20T10:43:55.000Z</time>
      </trkpt>
      <trkpt lat="47.50895" lon="6.70832">
        <ele>375</ele>
        <time>2016-03-20T10:43:57.000Z</time>
      </trkpt>
      <trkpt lat="47.50895" lon="6.70835">
        <ele>374</ele>
        <time>2016-03-20T10:43:58.000Z</time>
      </trkpt>
      <trkpt lat="47.50896" lon="6.7084">
        <ele>374</ele>
        <time>2016-03-20T10:43:59.000Z</time>
      </trkpt>
      <trkpt lat="47.50896" lon="6.70844">
        <ele>374</ele>
        <time>2016-03-20T10:44:00.000Z</time>
      </trkpt>
      <trkpt lat="47.50896" lon="6.70848">
        <ele>374</ele>
        <time>2016-03-20T10:44:01.000Z</time>
      </trkpt>
      <trkpt lat="47.50896" lon="6.70852">
        <ele>373</ele>
        <time>2016-03-20T10:44:02.000Z</time>
      </trkpt>
      <trkpt lat="47.50896" lon="6.70855">
        <ele>373</ele>
        <time>2016-03-20T10:44:03.000Z</time>
      </trkpt>
      <trkpt lat="47.50896" lon="6.70859">
        <ele>373</ele>
        <time>2016-03-20T10:44:04.000Z</time>
      </trkpt>
      <trkpt lat="47.50896" lon="6.70862">
        <ele>373</ele>
        <time>2016-03-20T10:44:05.000Z</time>
      </trkpt>
      <trkpt lat="47.50897" lon="6.70867">
        <ele>372</ele>
        <time>2016-03-20T10:44:06.000Z</time>
      </trkpt>
      <trkpt lat="47.50898" lon="6.70872">
        <ele>372</ele>
        <time>2016-03-20T10:44:07.000Z</time>
      </trkpt>
      <trkpt lat="47.50899" lon="6.70878">
        <ele>372</ele>
        <time>2016-03-20T10:44:08.000Z</time>
      </trkpt>
      <trkpt lat="47.509" lon="6.70885">
        <ele>372</ele>
        <time>2016-03-20T10:44:09.000Z</time>
      </trkpt>
      <trkpt lat="47.50901" lon="6.7089">
        <ele>372</ele>
        <time>2016-03-20T10:44:10.000Z</time>
      </trkpt>
      <trkpt lat="47.50901" lon="6.70894">
        <ele>372</ele>
        <time>2016-03-20T10:44:11.000Z</time>
      </trkpt>
      <trkpt lat="47.50902" lon="6.70897">
        <ele>372</ele>
        <time>2016-03-20T10:44:12.000Z</time>
      </trkpt>
      <trkpt lat="47.50903" lon="6.70902">
        <ele>373</ele>
        <time>2016-03-20T10:44:14.000Z</time>
      </trkpt>
      <trkpt lat="47.50904" lon="6.70907">
        <ele>373</ele>
        <time>2016-03-20T10:44:15.000Z</time>
      </trkpt>
      <trkpt lat="47.50905" lon="6.70911">
        <ele>373</ele>
        <time>2016-03-20T10:44:17.000Z</time>
      </trkpt>
      <trkpt lat="47.50906" lon="6.70913">
        <ele>373</ele>
        <time>2016-03-20T10:44:18.000Z</time>
      </trkpt>
      <trkpt lat="47.50907" lon="6.70919">
        <ele>373</ele>
        <time>2016-03-20T10:44:26.000Z</time>
      </trkpt>
      <trkpt lat="47.50907" lon="6.7092">
        <ele>373</ele>
        <time>2016-03-20T10:44:27.000Z</time>
      </trkpt>
      <trkpt lat="47.50909" lon="6.70925">
        <ele>373</ele>
        <time>2016-03-20T10:44:29.000Z</time>
      </trkpt>
      <trkpt lat="47.50909" lon="6.70928">
        <ele>373</ele>
        <time>2016-03-20T10:44:30.000Z</time>
      </trkpt>
      <trkpt lat="47.50909" lon="6.70933">
        <ele>372</ele>
        <time>2016-03-20T10:44:32.000Z</time>
      </trkpt>
      <trkpt lat="47.50909" lon="6.70935">
        <ele>372</ele>
        <time>2016-03-20T10:44:33.000Z</time>
      </trkpt>
      <trkpt lat="47.50909" lon="6.70941">
        <ele>372</ele>
        <time>2016-03-20T10:44:35.000Z</time>
      </trkpt>
      <trkpt lat="47.50909" lon="6.70943">
        <ele>372</ele>
        <time>2016-03-20T10:44:36.000Z</time>
      </trkpt>
      <trkpt lat="47.5091" lon="6.7095">
        <ele>371</ele>
        <time>2016-03-20T10:44:39.000Z</time>
      </trkpt>
      <trkpt lat="47.5091" lon="6.70952">
        <ele>371</ele>
        <time>2016-03-20T10:44:40.000Z</time>
      </trkpt>
      <trkpt lat="47.5091" lon="6.70957">
        <ele>371</ele>
        <time>2016-03-20T10:44:42.000Z</time>
      </trkpt>
      <trkpt lat="47.5091" lon="6.7096">
        <ele>371</ele>
        <time>2016-03-20T10:44:43.000Z</time>
      </trkpt>
      <trkpt lat="47.50909" lon="6.70966">
        <ele>372</ele>
        <time>2016-03-20T10:44:45.000Z</time>
      </trkpt>
      <trkpt lat="47.50908" lon="6.70969">
        <ele>372</ele>
        <time>2016-03-20T10:44:46.000Z</time>
      </trkpt>
      <trkpt lat="47.50909" lon="6.70975">
        <ele>372</ele>
        <time>2016-03-20T10:44:48.000Z</time>
      </trkpt>
      <trkpt lat="47.50909" lon="6.70978">
        <ele>372</ele>
        <time>2016-03-20T10:44:49.000Z</time>
      </trkpt>
      <trkpt lat="47.50909" lon="6.70984">
        <ele>373</ele>
        <time>2016-03-20T10:44:51.000Z</time>
      </trkpt>
      <trkpt lat="47.50909" lon="6.7099">
        <ele>373</ele>
        <time>2016-03-20T10:44:52.000Z</time>
      </trkpt>
      <trkpt lat="47.5091" lon="6.70995">
        <ele>374</ele>
        <time>2016-03-20T10:44:54.000Z</time>
      </trkpt>
      <trkpt lat="47.5091" lon="6.70997">
        <ele>374</ele>
        <time>2016-03-20T10:44:55.000Z</time>
      </trkpt>
      <trkpt lat="47.50911" lon="6.71002">
        <ele>375</ele>
        <time>2016-03-20T10:45:00.000Z</time>
      </trkpt>
      <trkpt lat="47.50912" lon="6.71003">
        <ele>375</ele>
        <time>2016-03-20T10:45:01.000Z</time>
      </trkpt>
      <trkpt lat="47.50915" lon="6.71005">
        <ele>375</ele>
        <time>2016-03-20T10:45:06.000Z</time>
      </trkpt>
      <trkpt lat="47.50916" lon="6.71006">
        <ele>375</ele>
        <time>2016-03-20T10:45:07.000Z</time>
      </trkpt>
      <trkpt lat="47.50919" lon="6.71009">
        <ele>378</ele>
        <time>2016-03-20T10:45:09.000Z</time>
      </trkpt>
      <trkpt lat="47.50921" lon="6.71011">
        <ele>378</ele>
        <time>2016-03-20T10:45:10.000Z</time>
      </trkpt>
      <trkpt lat="47.50924" lon="6.71015">
        <ele>379</ele>
        <time>2016-03-20T10:45:17.000Z</time>
      </trkpt>
      <trkpt lat="47.50924" lon="6.71016">
        <ele>379</ele>
        <time>2016-03-20T10:45:18.000Z</time>
      </trkpt>
      <trkpt lat="47.50925" lon="6.71011">
        <ele>379</ele>
        <time>2016-03-20T10:45:22.000Z</time>
      </trkpt>
      <trkpt lat="47.50926" lon="6.71009">
        <ele>379</ele>
        <time>2016-03-20T10:45:23.000Z</time>
      </trkpt>
      <trkpt lat="47.50928" lon="6.71005">
        <ele>379</ele>
        <time>2016-03-20T10:45:27.000Z</time>
      </trkpt>
      <trkpt lat="47.50929" lon="6.71004">
        <ele>379</ele>
        <time>2016-03-20T10:45:28.000Z</time>
      </trkpt>
      <trkpt lat="47.5093" lon="6.70999">
        <ele>379</ele>
        <time>2016-03-20T10:45:33.000Z</time>
      </trkpt>
      <trkpt lat="47.5093" lon="6.70998">
        <ele>379</ele>
        <time>2016-03-20T10:45:34.000Z</time>
      </trkpt>
      <trkpt lat="47.50932" lon="6.70993">
        <ele>380</ele>
        <time>2016-03-20T10:45:40.000Z</time>
      </trkpt>
      <trkpt lat="47.50932" lon="6.70991">
        <ele>380</ele>
        <time>2016-03-20T10:45:41.000Z</time>
      </trkpt>
      <trkpt lat="47.50929" lon="6.70988">
        <ele>380</ele>
        <time>2016-03-20T10:51:11.000Z</time>
      </trkpt>
      <trkpt lat="47.50928" lon="6.70989">
        <ele>379</ele>
        <time>2016-03-20T10:51:12.000Z</time>
      </trkpt>
      <trkpt lat="47.50924" lon="6.70991">
        <ele>379</ele>
        <time>2016-03-20T10:51:16.000Z</time>
      </trkpt>
      <trkpt lat="47.50923" lon="6.70992">
        <ele>378</ele>
        <time>2016-03-20T10:51:17.000Z</time>
      </trkpt>
      <trkpt lat="47.50926" lon="6.70994">
        <ele>379</ele>
        <time>2016-03-20T10:51:28.000Z</time>
      </trkpt>
      <trkpt lat="47.50927" lon="6.70996">
        <ele>379</ele>
        <time>2016-03-20T10:51:29.000Z</time>
      </trkpt>
      <trkpt lat="47.50931" lon="6.70996">
        <ele>379</ele>
        <time>2016-03-20T10:51:49.000Z</time>
      </trkpt>
      <trkpt lat="47.50932" lon="6.70995">
        <ele>379</ele>
        <time>2016-03-20T10:51:50.000Z</time>
      </trkpt>
      <trkpt lat="47.50936" lon="6.70992">
        <ele>380</ele>
        <time>2016-03-20T10:51:57.000Z</time>
      </trkpt>
      <trkpt lat="47.50936" lon="6.70992">
        <ele>380</ele>
        <time>2016-03-20T10:51:58.000Z</time>
      </trkpt>
      <trkpt lat="47.5094" lon="6.70991">
        <ele>381</ele>
        <time>2016-03-20T10:55:24.000Z</time>
      </trkpt>
      <trkpt lat="47.5094" lon="6.7099">
        <ele>381</ele>
        <time>2016-03-20T10:55:25.000Z</time>
      </trkpt>
      <trkpt lat="47.50936" lon="6.70987">
        <ele>381</ele>
        <time>2016-03-20T10:56:39.000Z</time>
      </trkpt>
      <trkpt lat="47.50936" lon="6.70986">
        <ele>381</ele>
        <time>2016-03-20T10:56:40.000Z</time>
      </trkpt>
      <trkpt lat="47.50932" lon="6.70985">
        <ele>380</ele>
        <time>2016-03-20T10:57:23.000Z</time>
      </trkpt>
      <trkpt lat="47.50932" lon="6.70985">
        <ele>380</ele>
        <time>2016-03-20T10:57:24.000Z</time>
      </trkpt>
      <trkpt lat="47.50928" lon="6.70988">
        <ele>379</ele>
        <time>2016-03-20T10:57:51.000Z</time>
      </trkpt>
      <trkpt lat="47.50927" lon="6.70988">
        <ele>379</ele>
        <time>2016-03-20T10:57:52.000Z</time>
      </trkpt>
      <trkpt lat="47.50926" lon="6.70994">
        <ele>379</ele>
        <time>2016-03-20T10:58:03.000Z</time>
      </trkpt>
      <trkpt lat="47.50926" lon="6.70995">
        <ele>378</ele>
        <time>2016-03-20T10:58:04.000Z</time>
      </trkpt>
      <trkpt lat="47.50924" lon="6.71001">
        <ele>378</ele>
        <time>2016-03-20T10:58:12.000Z</time>
      </trkpt>
      <trkpt lat="47.50924" lon="6.71001">
        <ele>378</ele>
        <time>2016-03-20T10:58:13.000Z</time>
      </trkpt>
      <trkpt lat="47.50922" lon="6.71006">
        <ele>378</ele>
        <time>2016-03-20T10:58:21.000Z</time>
      </trkpt>
      <trkpt lat="47.50922" lon="6.71008">
        <ele>378</ele>
        <time>2016-03-20T10:58:22.000Z</time>
      </trkpt>
      <trkpt lat="47.50923" lon="6.71014">
        <ele>379</ele>
        <time>2016-03-20T10:58:27.000Z</time>
      </trkpt>
      <trkpt lat="47.50923" lon="6.71015">
        <ele>379</ele>
        <time>2016-03-20T10:58:28.000Z</time>
      </trkpt>
      <trkpt lat="47.50926" lon="6.7102">
        <ele>380</ele>
        <time>2016-03-20T10:58:32.000Z</time>
      </trkpt>
      <trkpt lat="47.50926" lon="6.71022">
        <ele>380</ele>
        <time>2016-03-20T10:58:33.000Z</time>
      </trkpt>
      <trkpt lat="47.50925" lon="6.71027">
        <ele>380</ele>
        <time>2016-03-20T10:58:37.000Z</time>
      </trkpt>
      <trkpt lat="47.50926" lon="6.71028">
        <ele>380</ele>
        <time>2016-03-20T10:58:38.000Z</time>
      </trkpt>
      <trkpt lat="47.50926" lon="6.71035">
        <ele>380</ele>
        <time>2016-03-20T10:58:41.000Z</time>
      </trkpt>
      <trkpt lat="47.50925" lon="6.71037">
        <ele>380</ele>
        <time>2016-03-20T10:58:42.000Z</time>
      </trkpt>
      <trkpt lat="47.50924" lon="6.71042">
        <ele>380</ele>
        <time>2016-03-20T10:58:44.000Z</time>
      </trkpt>
      <trkpt lat="47.50923" lon="6.71044">
        <ele>380</ele>
        <time>2016-03-20T10:58:45.000Z</time>
      </trkpt>
      <trkpt lat="47.50921" lon="6.71049">
        <ele>380</ele>
        <time>2016-03-20T10:58:47.000Z</time>
      </trkpt>
      <trkpt lat="47.5092" lon="6.71051">
        <ele>380</ele>
        <time>2016-03-20T10:58:48.000Z</time>
      </trkpt>
      <trkpt lat="47.50919" lon="6.71056">
        <ele>380</ele>
        <time>2016-03-20T10:58:50.000Z</time>
      </trkpt>
      <trkpt lat="47.50919" lon="6.71058">
        <ele>380</ele>
        <time>2016-03-20T10:58:51.000Z</time>
      </trkpt>
      <trkpt lat="47.50919" lon="6.71065">
        <ele>379</ele>
        <time>2016-03-20T10:58:53.000Z</time>
      </trkpt>
      <trkpt lat="47.5092" lon="6.71069">
        <ele>379</ele>
        <time>2016-03-20T10:58:54.000Z</time>
      </trkpt>
      <trkpt lat="47.5092" lon="6.71073">
        <ele>378</ele>
        <time>2016-03-20T10:58:55.000Z</time>
      </trkpt>
      <trkpt lat="47.5092" lon="6.71077">
        <ele>378</ele>
        <time>2016-03-20T10:58:56.000Z</time>
      </trkpt>
      <trkpt lat="47.50921" lon="6.71081">
        <ele>377</ele>
        <time>2016-03-20T10:58:57.000Z</time>
      </trkpt>
      <trkpt lat="47.50921" lon="6.71086">
        <ele>378</ele>
        <time>2016-03-20T10:58:58.000Z</time>
      </trkpt>
      <trkpt lat="47.50921" lon="6.7109">
        <ele>378</ele>
        <time>2016-03-20T10:58:59.000Z</time>
      </trkpt>
      <trkpt lat="47.50922" lon="6.71095">
        <ele>379</ele>
        <time>2016-03-20T10:59:00.000Z</time>
      </trkpt>
      <trkpt lat="47.50922" lon="6.711">
        <ele>380</ele>
        <time>2016-03-20T10:59:01.000Z</time>
      </trkpt>
      <trkpt lat="47.50922" lon="6.71106">
        <ele>381</ele>
        <time>2016-03-20T10:59:02.000Z</time>
      </trkpt>
      <trkpt lat="47.50922" lon="6.71111">
        <ele>381</ele>
        <time>2016-03-20T10:59:03.000Z</time>
      </trkpt>
      <trkpt lat="47.50921" lon="6.71116">
        <ele>381</ele>
        <time>2016-03-20T10:59:04.000Z</time>
      </trkpt>
      <trkpt lat="47.50921" lon="6.71122">
        <ele>382</ele>
        <time>2016-03-20T10:59:06.000Z</time>
      </trkpt>
      <trkpt lat="47.50921" lon="6.71124">
        <ele>382</ele>
        <time>2016-03-20T10:59:07.000Z</time>
      </trkpt>
      <trkpt lat="47.50921" lon="6.71129">
        <ele>382</ele>
        <time>2016-03-20T10:59:09.000Z</time>
      </trkpt>
      <trkpt lat="47.50921" lon="6.71133">
        <ele>382</ele>
        <time>2016-03-20T10:59:10.000Z</time>
      </trkpt>
      <trkpt lat="47.5092" lon="6.71137">
        <ele>382</ele>
        <time>2016-03-20T10:59:11.000Z</time>
      </trkpt>
      <trkpt lat="47.50919" lon="6.71141">
        <ele>382</ele>
        <time>2016-03-20T10:59:12.000Z</time>
      </trkpt>
      <trkpt lat="47.50919" lon="6.71147">
        <ele>382</ele>
        <time>2016-03-20T10:59:14.000Z</time>
      </trkpt>
      <trkpt lat="47.5092" lon="6.7115">
        <ele>382</ele>
        <time>2016-03-20T10:59:15.000Z</time>
      </trkpt>
      <trkpt lat="47.5092" lon="6.71155">
        <ele>381</ele>
        <time>2016-03-20T10:59:16.000Z</time>
      </trkpt>
      <trkpt lat="47.50922" lon="6.7116">
        <ele>381</ele>
        <time>2016-03-20T10:59:17.000Z</time>
      </trkpt>
      <trkpt lat="47.50924" lon="6.71166">
        <ele>381</ele>
        <time>2016-03-20T10:59:18.000Z</time>
      </trkpt>
      <trkpt lat="47.50926" lon="6.71171">
        <ele>383</ele>
        <time>2016-03-20T10:59:19.000Z</time>
      </trkpt>
      <trkpt lat="47.50927" lon="6.71174">
        <ele>383</ele>
        <time>2016-03-20T10:59:20.000Z</time>
      </trkpt>
      <trkpt lat="47.50928" lon="6.71176">
        <ele>384</ele>
        <time>2016-03-20T10:59:21.000Z</time>
      </trkpt>
      <trkpt lat="47.50925" lon="6.71176">
        <ele>383</ele>
        <time>2016-03-20T10:59:28.000Z</time>
      </trkpt>
      <trkpt lat="47.50923" lon="6.7118">
        <ele>383</ele>
        <time>2016-03-20T10:59:29.000Z</time>
      </trkpt>
      <trkpt lat="47.50921" lon="6.71182">
        <ele>384</ele>
        <time>2016-03-20T10:59:30.000Z</time>
      </trkpt>
      <trkpt lat="47.50918" lon="6.71184">
        <ele>384</ele>
        <time>2016-03-20T10:59:31.000Z</time>
      </trkpt>
      <trkpt lat="47.50916" lon="6.71186">
        <ele>377</ele>
        <time>2016-03-20T10:59:32.000Z</time>
      </trkpt>
      <trkpt lat="47.50913" lon="6.71188">
        <ele>377</ele>
        <time>2016-03-20T10:59:33.000Z</time>
      </trkpt>
      <trkpt lat="47.5091" lon="6.71189">
        <ele>377</ele>
        <time>2016-03-20T10:59:34.000Z</time>
      </trkpt>
      <trkpt lat="47.50907" lon="6.71191">
        <ele>377</ele>
        <time>2016-03-20T10:59:35.000Z</time>
      </trkpt>
      <trkpt lat="47.50904" lon="6.71193">
        <ele>376</ele>
        <time>2016-03-20T10:59:36.000Z</time>
      </trkpt>
      <trkpt lat="47.50901" lon="6.71195">
        <ele>376</ele>
        <time>2016-03-20T10:59:37.000Z</time>
      </trkpt>
      <trkpt lat="47.50898" lon="6.71197">
        <ele>376</ele>
        <time>2016-03-20T10:59:38.000Z</time>
      </trkpt>
      <trkpt lat="47.50896" lon="6.712">
        <ele>376</ele>
        <time>2016-03-20T10:59:39.000Z</time>
      </trkpt>
      <trkpt lat="47.50893" lon="6.71203">
        <ele>375</ele>
        <time>2016-03-20T10:59:40.000Z</time>
      </trkpt>
      <trkpt lat="47.50891" lon="6.71207">
        <ele>375</ele>
        <time>2016-03-20T10:59:41.000Z</time>
      </trkpt>
      <trkpt lat="47.50888" lon="6.7121">
        <ele>375</ele>
        <time>2016-03-20T10:59:42.000Z</time>
      </trkpt>
      <trkpt lat="47.50886" lon="6.71214">
        <ele>375</ele>
        <time>2016-03-20T10:59:43.000Z</time>
      </trkpt>
      <trkpt lat="47.50884" lon="6.71217">
        <ele>375</ele>
        <time>2016-03-20T10:59:44.000Z</time>
      </trkpt>
      <trkpt lat="47.50881" lon="6.7122">
        <ele>375</ele>
        <time>2016-03-20T10:59:45.000Z</time>
      </trkpt>
      <trkpt lat="47.50878" lon="6.71223">
        <ele>374</ele>
        <time>2016-03-20T10:59:46.000Z</time>
      </trkpt>
      <trkpt lat="47.50875" lon="6.71227">
        <ele>374</ele>
        <time>2016-03-20T10:59:47.000Z</time>
      </trkpt>
      <trkpt lat="47.50874" lon="6.7123">
        <ele>374</ele>
        <time>2016-03-20T10:59:48.000Z</time>
      </trkpt>
      <trkpt lat="47.50873" lon="6.71233">
        <ele>374</ele>
        <time>2016-03-20T10:59:49.000Z</time>
      </trkpt>
      <trkpt lat="47.50872" lon="6.71239">
        <ele>374</ele>
        <time>2016-03-20T10:59:51.000Z</time>
      </trkpt>
      <trkpt lat="47.50872" lon="6.71241">
        <ele>374</ele>
        <time>2016-03-20T10:59:52.000Z</time>
      </trkpt>
      <trkpt lat="47.50872" lon="6.71245">
        <ele>374</ele>
        <time>2016-03-20T10:59:53.000Z</time>
      </trkpt>
      <trkpt lat="47.50871" lon="6.71248">
        <ele>374</ele>
        <time>2016-03-20T10:59:54.000Z</time>
      </trkpt>
      <trkpt lat="47.5087" lon="6.71252">
        <ele>376</ele>
        <time>2016-03-20T10:59:55.000Z</time>
      </trkpt>
      <trkpt lat="47.50869" lon="6.71256">
        <ele>375</ele>
        <time>2016-03-20T10:59:56.000Z</time>
      </trkpt>
      <trkpt lat="47.50868" lon="6.7126">
        <ele>375</ele>
        <time>2016-03-20T10:59:57.000Z</time>
      </trkpt>
      <trkpt lat="47.50867" lon="6.71265">
        <ele>375</ele>
        <time>2016-03-20T10:59:58.000Z</time>
      </trkpt>
      <trkpt lat="47.50865" lon="6.7127">
        <ele>375</ele>
        <time>2016-03-20T10:59:59.000Z</time>
      </trkpt>
      <trkpt lat="47.50864" lon="6.71275">
        <ele>375</ele>
        <time>2016-03-20T11:00:00.000Z</time>
      </trkpt>
      <trkpt lat="47.50862" lon="6.71281">
        <ele>375</ele>
        <time>2016-03-20T11:00:01.000Z</time>
      </trkpt>
      <trkpt lat="47.5086" lon="6.71286">
        <ele>375</ele>
        <time>2016-03-20T11:00:02.000Z</time>
      </trkpt>
      <trkpt lat="47.50858" lon="6.7129">
        <ele>375</ele>
        <time>2016-03-20T11:00:03.000Z</time>
      </trkpt>
      <trkpt lat="47.50857" lon="6.71295">
        <ele>375</ele>
        <time>2016-03-20T11:00:04.000Z</time>
      </trkpt>
      <trkpt lat="47.50855" lon="6.71298">
        <ele>375</ele>
        <time>2016-03-20T11:00:05.000Z</time>
      </trkpt>
      <trkpt lat="47.50853" lon="6.71301">
        <ele>375</ele>
        <time>2016-03-20T11:00:06.000Z</time>
      </trkpt>
      <trkpt lat="47.50851" lon="6.71304">
        <ele>375</ele>
        <time>2016-03-20T11:00:07.000Z</time>
      </trkpt>
      <trkpt lat="47.5085" lon="6.71306">
        <ele>374</ele>
        <time>2016-03-20T11:00:08.000Z</time>
      </trkpt>
      <trkpt lat="47.50849" lon="6.71312">
        <ele>374</ele>
        <time>2016-03-20T11:00:11.000Z</time>
      </trkpt>
      <trkpt lat="47.50849" lon="6.71317">
        <ele>374</ele>
        <time>2016-03-20T11:00:12.000Z</time>
      </trkpt>
      <trkpt lat="47.50849" lon="6.71323">
        <ele>373</ele>
        <time>2016-03-20T11:00:15.000Z</time>
      </trkpt>
      <trkpt lat="47.50849" lon="6.71324">
        <ele>373</ele>
        <time>2016-03-20T11:00:16.000Z</time>
      </trkpt>
      <trkpt lat="47.5085" lon="6.7133">
        <ele>373</ele>
        <time>2016-03-20T11:00:23.000Z</time>
      </trkpt>
      <trkpt lat="47.50851" lon="6.71331">
        <ele>373</ele>
        <time>2016-03-20T11:00:24.000Z</time>
      </trkpt>
      <trkpt lat="47.50849" lon="6.71337">
        <ele>374</ele>
        <time>2016-03-20T11:00:27.000Z</time>
      </trkpt>
      <trkpt lat="47.50848" lon="6.7134">
        <ele>374</ele>
        <time>2016-03-20T11:00:28.000Z</time>
      </trkpt>
      <trkpt lat="47.50847" lon="6.71343">
        <ele>374</ele>
        <time>2016-03-20T11:00:29.000Z</time>
      </trkpt>
      <trkpt lat="47.50846" lon="6.71346">
        <ele>374</ele>
        <time>2016-03-20T11:00:30.000Z</time>
      </trkpt>
      <trkpt lat="47.50844" lon="6.7135">
        <ele>374</ele>
        <time>2016-03-20T11:00:31.000Z</time>
      </trkpt>
      <trkpt lat="47.50844" lon="6.71354">
        <ele>375</ele>
        <time>2016-03-20T11:00:32.000Z</time>
      </trkpt>
      <trkpt lat="47.50843" lon="6.71359">
        <ele>375</ele>
        <time>2016-03-20T11:00:34.000Z</time>
      </trkpt>
      <trkpt lat="47.50843" lon="6.71362">
        <ele>376</ele>
        <time>2016-03-20T11:00:35.000Z</time>
      </trkpt>
      <trkpt lat="47.50842" lon="6.71368">
        <ele>376</ele>
        <time>2016-03-20T11:00:37.000Z</time>
      </trkpt>
      <trkpt lat="47.50841" lon="6.71371">
        <ele>376</ele>
        <time>2016-03-20T11:00:38.000Z</time>
      </trkpt>
      <trkpt lat="47.5084" lon="6.71375">
        <ele>376</ele>
        <time>2016-03-20T11:00:39.000Z</time>
      </trkpt>
      <trkpt lat="47.5084" lon="6.71378">
        <ele>376</ele>
        <time>2016-03-20T11:00:40.000Z</time>
      </trkpt>
      <trkpt lat="47.50839" lon="6.71382">
        <ele>376</ele>
        <time>2016-03-20T11:00:41.000Z</time>
      </trkpt>
      <trkpt lat="47.50838" lon="6.71386">
        <ele>376</ele>
        <time>2016-03-20T11:00:42.000Z</time>
      </trkpt>
      <trkpt lat="47.50838" lon="6.7139">
        <ele>375</ele>
        <time>2016-03-20T11:00:43.000Z</time>
      </trkpt>
      <trkpt lat="47.50836" lon="6.71394">
        <ele>375</ele>
        <time>2016-03-20T11:00:44.000Z</time>
      </trkpt>
      <trkpt lat="47.50835" lon="6.71398">
        <ele>374</ele>
        <time>2016-03-20T11:00:45.000Z</time>
      </trkpt>
      <trkpt lat="47.50834" lon="6.71402">
        <ele>374</ele>
        <time>2016-03-20T11:00:46.000Z</time>
      </trkpt>
      <trkpt lat="47.50832" lon="6.71406">
        <ele>367</ele>
        <time>2016-03-20T11:00:47.000Z</time>
      </trkpt>
      <trkpt lat="47.50831" lon="6.7141">
        <ele>368</ele>
        <time>2016-03-20T11:00:48.000Z</time>
      </trkpt>
      <trkpt lat="47.5083" lon="6.71413">
        <ele>368</ele>
        <time>2016-03-20T11:00:49.000Z</time>
      </trkpt>
      <trkpt lat="47.50829" lon="6.71417">
        <ele>369</ele>
        <time>2016-03-20T11:00:50.000Z</time>
      </trkpt>
      <trkpt lat="47.50829" lon="6.71422">
        <ele>368</ele>
        <time>2016-03-20T11:00:51.000Z</time>
      </trkpt>
      <trkpt lat="47.50829" lon="6.71427">
        <ele>367</ele>
        <time>2016-03-20T11:00:52.000Z</time>
      </trkpt>
      <trkpt lat="47.50829" lon="6.71432">
        <ele>367</ele>
        <time>2016-03-20T11:00:53.000Z</time>
      </trkpt>
      <trkpt lat="47.50829" lon="6.71437">
        <ele>366</ele>
        <time>2016-03-20T11:00:54.000Z</time>
      </trkpt>
      <trkpt lat="47.50829" lon="6.71441">
        <ele>366</ele>
        <time>2016-03-20T11:00:55.000Z</time>
      </trkpt>
      <trkpt lat="47.50828" lon="6.71446">
        <ele>366</ele>
        <time>2016-03-20T11:00:56.000Z</time>
      </trkpt>
      <trkpt lat="47.50827" lon="6.7145">
        <ele>365</ele>
        <time>2016-03-20T11:00:57.000Z</time>
      </trkpt>
      <trkpt lat="47.50826" lon="6.71455">
        <ele>365</ele>
        <time>2016-03-20T11:00:58.000Z</time>
      </trkpt>
      <trkpt lat="47.50824" lon="6.71459">
        <ele>365</ele>
        <time>2016-03-20T11:00:59.000Z</time>
      </trkpt>
      <trkpt lat="47.50823" lon="6.71464">
        <ele>365</ele>
        <time>2016-03-20T11:01:00.000Z</time>
      </trkpt>
      <trkpt lat="47.50821" lon="6.71469">
        <ele>366</ele>
        <time>2016-03-20T11:01:01.000Z</time>
      </trkpt>
      <trkpt lat="47.5082" lon="6.71474">
        <ele>366</ele>
        <time>2016-03-20T11:01:02.000Z</time>
      </trkpt>
      <trkpt lat="47.50819" lon="6.71479">
        <ele>366</ele>
        <time>2016-03-20T11:01:03.000Z</time>
      </trkpt>
      <trkpt lat="47.50817" lon="6.71483">
        <ele>366</ele>
        <time>2016-03-20T11:01:04.000Z</time>
      </trkpt>
      <trkpt lat="47.50817" lon="6.71489">
        <ele>367</ele>
        <time>2016-03-20T11:01:05.000Z</time>
      </trkpt>
      <trkpt lat="47.50816" lon="6.71494">
        <ele>367</ele>
        <time>2016-03-20T11:01:06.000Z</time>
      </trkpt>
      <trkpt lat="47.50816" lon="6.71501">
        <ele>368</ele>
        <time>2016-03-20T11:01:07.000Z</time>
      </trkpt>
      <trkpt lat="47.50815" lon="6.71508">
        <ele>367</ele>
        <time>2016-03-20T11:01:08.000Z</time>
      </trkpt>
      <trkpt lat="47.50815" lon="6.71515">
        <ele>367</ele>
        <time>2016-03-20T11:01:09.000Z</time>
      </trkpt>
      <trkpt lat="47.50814" lon="6.71522">
        <ele>367</ele>
        <time>2016-03-20T11:01:10.000Z</time>
      </trkpt>
      <trkpt lat="47.50813" lon="6.71528">
        <ele>366</ele>
        <time>2016-03-20T11:01:11.000Z</time>
      </trkpt>
      <trkpt lat="47.50812" lon="6.71534">
        <ele>366</ele>
        <time>2016-03-20T11:01:12.000Z</time>
      </trkpt>
      <trkpt lat="47.50811" lon="6.7154">
        <ele>366</ele>
        <time>2016-03-20T11:01:13.000Z</time>
      </trkpt>
      <trkpt lat="47.50809" lon="6.71546">
        <ele>366</ele>
        <time>2016-03-20T11:01:14.000Z</time>
      </trkpt>
      <trkpt lat="47.50808" lon="6.71551">
        <ele>366</ele>
        <time>2016-03-20T11:01:15.000Z</time>
      </trkpt>
      <trkpt lat="47.50807" lon="6.71558">
        <ele>366</ele>
        <time>2016-03-20T11:01:16.000Z</time>
      </trkpt>
      <trkpt lat="47.50806" lon="6.71565">
        <ele>366</ele>
        <time>2016-03-20T11:01:17.000Z</time>
      </trkpt>
      <trkpt lat="47.50805" lon="6.71573">
        <ele>367</ele>
        <time>2016-03-20T11:01:18.000Z</time>
      </trkpt>
      <trkpt lat="47.50805" lon="6.71581">
        <ele>367</ele>
        <time>2016-03-20T11:01:19.000Z</time>
      </trkpt>
      <trkpt lat="47.50804" lon="6.71588">
        <ele>369</ele>
        <time>2016-03-20T11:01:20.000Z</time>
      </trkpt>
      <trkpt lat="47.50804" lon="6.71594">
        <ele>368</ele>
        <time>2016-03-20T11:01:21.000Z</time>
      </trkpt>
      <trkpt lat="47.50804" lon="6.716">
        <ele>368</ele>
        <time>2016-03-20T11:01:22.000Z</time>
      </trkpt>
      <trkpt lat="47.50804" lon="6.71605">
        <ele>368</ele>
        <time>2016-03-20T11:01:23.000Z</time>
      </trkpt>
      <trkpt lat="47.50804" lon="6.7161">
        <ele>368</ele>
        <time>2016-03-20T11:01:24.000Z</time>
      </trkpt>
      <trkpt lat="47.50803" lon="6.71614">
        <ele>368</ele>
        <time>2016-03-20T11:01:25.000Z</time>
      </trkpt>
      <trkpt lat="47.50802" lon="6.71618">
        <ele>368</ele>
        <time>2016-03-20T11:01:26.000Z</time>
      </trkpt>
      <trkpt lat="47.50799" lon="6.71623">
        <ele>368</ele>
        <time>2016-03-20T11:01:28.000Z</time>
      </trkpt>
      <trkpt lat="47.50799" lon="6.71626">
        <ele>368</ele>
        <time>2016-03-20T11:01:29.000Z</time>
      </trkpt>
      <trkpt lat="47.50799" lon="6.71629">
        <ele>368</ele>
        <time>2016-03-20T11:01:30.000Z</time>
      </trkpt>
      <trkpt lat="47.50799" lon="6.71633">
        <ele>368</ele>
        <time>2016-03-20T11:01:31.000Z</time>
      </trkpt>
      <trkpt lat="47.50799" lon="6.71636">
        <ele>368</ele>
        <time>2016-03-20T11:01:32.000Z</time>
      </trkpt>
      <trkpt lat="47.50799" lon="6.71639">
        <ele>368</ele>
        <time>2016-03-20T11:01:33.000Z</time>
      </trkpt>
      <trkpt lat="47.50799" lon="6.71645">
        <ele>369</ele>
        <time>2016-03-20T11:01:35.000Z</time>
      </trkpt>
      <trkpt lat="47.50798" lon="6.71648">
        <ele>369</ele>
        <time>2016-03-20T11:01:36.000Z</time>
      </trkpt>
      <trkpt lat="47.50797" lon="6.71651">
        <ele>368</ele>
        <time>2016-03-20T11:01:37.000Z</time>
      </trkpt>
      <trkpt lat="47.50795" lon="6.71653">
        <ele>368</ele>
        <time>2016-03-20T11:01:38.000Z</time>
      </trkpt>
      <trkpt lat="47.50793" lon="6.71655">
        <ele>368</ele>
        <time>2016-03-20T11:01:39.000Z</time>
      </trkpt>
      <trkpt lat="47.50791" lon="6.71657">
        <ele>367</ele>
        <time>2016-03-20T11:01:40.000Z</time>
      </trkpt>
      <trkpt lat="47.50788" lon="6.71657">
        <ele>367</ele>
        <time>2016-03-20T11:01:42.000Z</time>
      </trkpt>
      <trkpt lat="47.50784" lon="6.71657">
        <ele>366</ele>
        <time>2016-03-20T11:01:43.000Z</time>
      </trkpt>
      <trkpt lat="47.50774" lon="6.71656">
        <ele>364</ele>
        <time>2016-03-20T11:01:44.000Z</time>
      </trkpt>
      <trkpt lat="47.50769" lon="6.71654">
        <ele>364</ele>
        <time>2016-03-20T11:01:45.000Z</time>
      </trkpt>
      <trkpt lat="47.50765" lon="6.71652">
        <ele>363</ele>
        <time>2016-03-20T11:01:46.000Z</time>
      </trkpt>
      <trkpt lat="47.50759" lon="6.71651">
        <ele>362</ele>
        <time>2016-03-20T11:01:47.000Z</time>
      </trkpt>
      <trkpt lat="47.50754" lon="6.71651">
        <ele>362</ele>
        <time>2016-03-20T11:01:48.000Z</time>
      </trkpt>
      <trkpt lat="47.50749" lon="6.7165">
        <ele>356</ele>
        <time>2016-03-20T11:01:49.000Z</time>
      </trkpt>
      <trkpt lat="47.50745" lon="6.71649">
        <ele>356</ele>
        <time>2016-03-20T11:01:50.000Z</time>
      </trkpt>
      <trkpt lat="47.5074" lon="6.71648">
        <ele>356</ele>
        <time>2016-03-20T11:01:51.000Z</time>
      </trkpt>
      <trkpt lat="47.50734" lon="6.71647">
        <ele>355</ele>
        <time>2016-03-20T11:01:52.000Z</time>
      </trkpt>
      <trkpt lat="47.50728" lon="6.71645">
        <ele>355</ele>
        <time>2016-03-20T11:01:53.000Z</time>
      </trkpt>
      <trkpt lat="47.50724" lon="6.71644">
        <ele>355</ele>
        <time>2016-03-20T11:01:54.000Z</time>
      </trkpt>
      <trkpt lat="47.50718" lon="6.71643">
        <ele>354</ele>
        <time>2016-03-20T11:01:55.000Z</time>
      </trkpt>
      <trkpt lat="47.50713" lon="6.71642">
        <ele>354</ele>
        <time>2016-03-20T11:01:56.000Z</time>
      </trkpt>
      <trkpt lat="47.50709" lon="6.7164">
        <ele>354</ele>
        <time>2016-03-20T11:01:57.000Z</time>
      </trkpt>
      <trkpt lat="47.50705" lon="6.71638">
        <ele>354</ele>
        <time>2016-03-20T11:01:58.000Z</time>
      </trkpt>
      <trkpt lat="47.50701" lon="6.71636">
        <ele>353</ele>
        <time>2016-03-20T11:01:59.000Z</time>
      </trkpt>
      <trkpt lat="47.50697" lon="6.71635">
        <ele>353</ele>
        <time>2016-03-20T11:02:00.000Z</time>
      </trkpt>
      <trkpt lat="47.50693" lon="6.71638">
        <ele>353</ele>
        <time>2016-03-20T11:02:01.000Z</time>
      </trkpt>
      <trkpt lat="47.50688" lon="6.71638">
        <ele>353</ele>
        <time>2016-03-20T11:02:02.000Z</time>
      </trkpt>
      <trkpt lat="47.50687" lon="6.71638">
        <ele>353</ele>
        <time>2016-03-20T11:02:03.000Z</time>
      </trkpt>
      <trkpt lat="47.50683" lon="6.71637">
        <ele>353</ele>
        <time>2016-03-20T11:02:04.000Z</time>
      </trkpt>
      <trkpt lat="47.50679" lon="6.71637">
        <ele>353</ele>
        <time>2016-03-20T11:02:05.000Z</time>
      </trkpt>
      <trkpt lat="47.50676" lon="6.71638">
        <ele>353</ele>
        <time>2016-03-20T11:02:06.000Z</time>
      </trkpt>
      <trkpt lat="47.50672" lon="6.71637">
        <ele>352</ele>
        <time>2016-03-20T11:02:07.000Z</time>
      </trkpt>
      <trkpt lat="47.50668" lon="6.71637">
        <ele>352</ele>
        <time>2016-03-20T11:02:08.000Z</time>
      </trkpt>
      <trkpt lat="47.50664" lon="6.71636">
        <ele>350</ele>
        <time>2016-03-20T11:02:09.000Z</time>
      </trkpt>
      <trkpt lat="47.50661" lon="6.71635">
        <ele>350</ele>
        <time>2016-03-20T11:02:10.000Z</time>
      </trkpt>
      <trkpt lat="47.50657" lon="6.71634">
        <ele>350</ele>
        <time>2016-03-20T11:02:11.000Z</time>
      </trkpt>
      <trkpt lat="47.50654" lon="6.71633">
        <ele>350</ele>
        <time>2016-03-20T11:02:12.000Z</time>
      </trkpt>
      <trkpt lat="47.5065" lon="6.71633">
        <ele>350</ele>
        <time>2016-03-20T11:02:13.000Z</time>
      </trkpt>
      <trkpt lat="47.50647" lon="6.71635">
        <ele>350</ele>
        <time>2016-03-20T11:02:14.000Z</time>
      </trkpt>
      <trkpt lat="47.50643" lon="6.71637">
        <ele>350</ele>
        <time>2016-03-20T11:02:15.000Z</time>
      </trkpt>
      <trkpt lat="47.50644" lon="6.71652">
        <ele>350</ele>
        <time>2016-03-20T11:02:16.000Z</time>
      </trkpt>
      <trkpt lat="47.50642" lon="6.71658">
        <ele>350</ele>
        <time>2016-03-20T11:02:17.000Z</time>
      </trkpt>
      <trkpt lat="47.50639" lon="6.71664">
        <ele>350</ele>
        <time>2016-03-20T11:02:18.000Z</time>
      </trkpt>
      <trkpt lat="47.50636" lon="6.71671">
        <ele>349</ele>
        <time>2016-03-20T11:02:19.000Z</time>
      </trkpt>
      <trkpt lat="47.50634" lon="6.7168">
        <ele>349</ele>
        <time>2016-03-20T11:02:20.000Z</time>
      </trkpt>
      <trkpt lat="47.50632" lon="6.71687">
        <ele>349</ele>
        <time>2016-03-20T11:02:21.000Z</time>
      </trkpt>
      <trkpt lat="47.50631" lon="6.71694">
        <ele>349</ele>
        <time>2016-03-20T11:02:22.000Z</time>
      </trkpt>
      <trkpt lat="47.50629" lon="6.71701">
        <ele>349</ele>
        <time>2016-03-20T11:02:23.000Z</time>
      </trkpt>
      <trkpt lat="47.50627" lon="6.71707">
        <ele>349</ele>
        <time>2016-03-20T11:02:24.000Z</time>
      </trkpt>
      <trkpt lat="47.50625" lon="6.71715">
        <ele>348</ele>
        <time>2016-03-20T11:02:25.000Z</time>
      </trkpt>
      <trkpt lat="47.50623" lon="6.71721">
        <ele>348</ele>
        <time>2016-03-20T11:02:26.000Z</time>
      </trkpt>
      <trkpt lat="47.50623" lon="6.71728">
        <ele>348</ele>
        <time>2016-03-20T11:02:27.000Z</time>
      </trkpt>
      <trkpt lat="47.50621" lon="6.71736">
        <ele>348</ele>
        <time>2016-03-20T11:02:28.000Z</time>
      </trkpt>
      <trkpt lat="47.50619" lon="6.71743">
        <ele>348</ele>
        <time>2016-03-20T11:02:29.000Z</time>
      </trkpt>
      <trkpt lat="47.50618" lon="6.71751">
        <ele>347</ele>
        <time>2016-03-20T11:02:30.000Z</time>
      </trkpt>
      <trkpt lat="47.50616" lon="6.71758">
        <ele>347</ele>
        <time>2016-03-20T11:02:31.000Z</time>
      </trkpt>
      <trkpt lat="47.50614" lon="6.71765">
        <ele>347</ele>
        <time>2016-03-20T11:02:32.000Z</time>
      </trkpt>
      <trkpt lat="47.50612" lon="6.71772">
        <ele>347</ele>
        <time>2016-03-20T11:02:33.000Z</time>
      </trkpt>
      <trkpt lat="47.5061" lon="6.7178">
        <ele>347</ele>
        <time>2016-03-20T11:02:34.000Z</time>
      </trkpt>
      <trkpt lat="47.50608" lon="6.71787">
        <ele>346</ele>
        <time>2016-03-20T11:02:35.000Z</time>
      </trkpt>
      <trkpt lat="47.50606" lon="6.71793">
        <ele>346</ele>
        <time>2016-03-20T11:02:36.000Z</time>
      </trkpt>
      <trkpt lat="47.50604" lon="6.718">
        <ele>346</ele>
        <time>2016-03-20T11:02:37.000Z</time>
      </trkpt>
      <trkpt lat="47.50603" lon="6.71809">
        <ele>346</ele>
        <time>2016-03-20T11:02:38.000Z</time>
      </trkpt>
      <trkpt lat="47.50602" lon="6.71817">
        <ele>346</ele>
        <time>2016-03-20T11:02:39.000Z</time>
      </trkpt>
      <trkpt lat="47.50601" lon="6.71824">
        <ele>346</ele>
        <time>2016-03-20T11:02:40.000Z</time>
      </trkpt>
      <trkpt lat="47.506" lon="6.71831">
        <ele>345</ele>
        <time>2016-03-20T11:02:41.000Z</time>
      </trkpt>
      <trkpt lat="47.50599" lon="6.71838">
        <ele>345</ele>
        <time>2016-03-20T11:02:42.000Z</time>
      </trkpt>
      <trkpt lat="47.50597" lon="6.71846">
        <ele>345</ele>
        <time>2016-03-20T11:02:43.000Z</time>
      </trkpt>
      <trkpt lat="47.50596" lon="6.71854">
        <ele>345</ele>
        <time>2016-03-20T11:02:44.000Z</time>
      </trkpt>
      <trkpt lat="47.50594" lon="6.71861">
        <ele>345</ele>
        <time>2016-03-20T11:02:45.000Z</time>
      </trkpt>
      <trkpt lat="47.50592" lon="6.71868">
        <ele>345</ele>
        <time>2016-03-20T11:02:46.000Z</time>
      </trkpt>
      <trkpt lat="47.5059" lon="6.71875">
        <ele>345</ele>
        <time>2016-03-20T11:02:47.000Z</time>
      </trkpt>
      <trkpt lat="47.50588" lon="6.71881">
        <ele>345</ele>
        <time>2016-03-20T11:02:48.000Z</time>
      </trkpt>
      <trkpt lat="47.50586" lon="6.71888">
        <ele>345</ele>
        <time>2016-03-20T11:02:49.000Z</time>
      </trkpt>
      <trkpt lat="47.50585" lon="6.71896">
        <ele>345</ele>
        <time>2016-03-20T11:02:50.000Z</time>
      </trkpt>
      <trkpt lat="47.50583" lon="6.71903">
        <ele>345</ele>
        <time>2016-03-20T11:02:51.000Z</time>
      </trkpt>
      <trkpt lat="47.5058" lon="6.7191">
        <ele>345</ele>
        <time>2016-03-20T11:02:52.000Z</time>
      </trkpt>
      <trkpt lat="47.50578" lon="6.71917">
        <ele>345</ele>
        <time>2016-03-20T11:02:53.000Z</time>
      </trkpt>
      <trkpt lat="47.50576" lon="6.71924">
        <ele>345</ele>
        <time>2016-03-20T11:02:54.000Z</time>
      </trkpt>
      <trkpt lat="47.50573" lon="6.71931">
        <ele>345</ele>
        <time>2016-03-20T11:02:55.000Z</time>
      </trkpt>
      <trkpt lat="47.50571" lon="6.71938">
        <ele>345</ele>
        <time>2016-03-20T11:02:56.000Z</time>
      </trkpt>
      <trkpt lat="47.50567" lon="6.71945">
        <ele>345</ele>
        <time>2016-03-20T11:02:57.000Z</time>
      </trkpt>
      <trkpt lat="47.50565" lon="6.71952">
        <ele>345</ele>
        <time>2016-03-20T11:02:58.000Z</time>
      </trkpt>
      <trkpt lat="47.50562" lon="6.71959">
        <ele>345</ele>
        <time>2016-03-20T11:02:59.000Z</time>
      </trkpt>
      <trkpt lat="47.50559" lon="6.71964">
        <ele>345</ele>
        <time>2016-03-20T11:03:00.000Z</time>
      </trkpt>
      <trkpt lat="47.50556" lon="6.7197">
        <ele>345</ele>
        <time>2016-03-20T11:03:01.000Z</time>
      </trkpt>
      <trkpt lat="47.50553" lon="6.71976">
        <ele>345</ele>
        <time>2016-03-20T11:03:02.000Z</time>
      </trkpt>
      <trkpt lat="47.50549" lon="6.71982">
        <ele>345</ele>
        <time>2016-03-20T11:03:03.000Z</time>
      </trkpt>
      <trkpt lat="47.50546" lon="6.71988">
        <ele>345</ele>
        <time>2016-03-20T11:03:04.000Z</time>
      </trkpt>
      <trkpt lat="47.50544" lon="6.71995">
        <ele>345</ele>
        <time>2016-03-20T11:03:05.000Z</time>
      </trkpt>
      <trkpt lat="47.5054" lon="6.72">
        <ele>345</ele>
        <time>2016-03-20T11:03:06.000Z</time>
      </trkpt>
      <trkpt lat="47.50536" lon="6.72006">
        <ele>344</ele>
        <time>2016-03-20T11:03:07.000Z</time>
      </trkpt>
      <trkpt lat="47.50534" lon="6.72012">
        <ele>344</ele>
        <time>2016-03-20T11:03:08.000Z</time>
      </trkpt>
      <trkpt lat="47.50532" lon="6.7202">
        <ele>344</ele>
        <time>2016-03-20T11:03:09.000Z</time>
      </trkpt>
      <trkpt lat="47.5053" lon="6.72026">
        <ele>344</ele>
        <time>2016-03-20T11:03:10.000Z</time>
      </trkpt>
      <trkpt lat="47.50529" lon="6.72033">
        <ele>344</ele>
        <time>2016-03-20T11:03:11.000Z</time>
      </trkpt>
      <trkpt lat="47.50526" lon="6.72039">
        <ele>344</ele>
        <time>2016-03-20T11:03:12.000Z</time>
      </trkpt>
      <trkpt lat="47.50523" lon="6.72045">
        <ele>344</ele>
        <time>2016-03-20T11:03:13.000Z</time>
      </trkpt>
      <trkpt lat="47.5052" lon="6.72049">
        <ele>344</ele>
        <time>2016-03-20T11:03:14.000Z</time>
      </trkpt>
      <trkpt lat="47.50518" lon="6.72055">
        <ele>344</ele>
        <time>2016-03-20T11:03:15.000Z</time>
      </trkpt>
      <trkpt lat="47.50515" lon="6.7206">
        <ele>344</ele>
        <time>2016-03-20T11:03:16.000Z</time>
      </trkpt>
      <trkpt lat="47.50513" lon="6.72068">
        <ele>344</ele>
        <time>2016-03-20T11:03:17.000Z</time>
      </trkpt>
      <trkpt lat="47.50511" lon="6.72075">
        <ele>343</ele>
        <time>2016-03-20T11:03:18.000Z</time>
      </trkpt>
      <trkpt lat="47.50509" lon="6.72082">
        <ele>343</ele>
        <time>2016-03-20T11:03:19.000Z</time>
      </trkpt>
      <trkpt lat="47.50509" lon="6.7209">
        <ele>343</ele>
        <time>2016-03-20T11:03:20.000Z</time>
      </trkpt>
      <trkpt lat="47.50507" lon="6.72096">
        <ele>344</ele>
        <time>2016-03-20T11:03:21.000Z</time>
      </trkpt>
      <trkpt lat="47.50506" lon="6.72103">
        <ele>344</ele>
        <time>2016-03-20T11:03:22.000Z</time>
      </trkpt>
      <trkpt lat="47.50504" lon="6.72109">
        <ele>344</ele>
        <time>2016-03-20T11:03:23.000Z</time>
      </trkpt>
      <trkpt lat="47.50503" lon="6.72117">
        <ele>344</ele>
        <time>2016-03-20T11:03:24.000Z</time>
      </trkpt>
      <trkpt lat="47.50502" lon="6.72124">
        <ele>344</ele>
        <time>2016-03-20T11:03:25.000Z</time>
      </trkpt>
      <trkpt lat="47.50502" lon="6.7213">
        <ele>344</ele>
        <time>2016-03-20T11:03:26.000Z</time>
      </trkpt>
      <trkpt lat="47.50501" lon="6.72137">
        <ele>344</ele>
        <time>2016-03-20T11:03:27.000Z</time>
      </trkpt>
      <trkpt lat="47.50499" lon="6.72144">
        <ele>343</ele>
        <time>2016-03-20T11:03:28.000Z</time>
      </trkpt>
      <trkpt lat="47.50498" lon="6.7215">
        <ele>343</ele>
        <time>2016-03-20T11:03:29.000Z</time>
      </trkpt>
      <trkpt lat="47.50497" lon="6.72157">
        <ele>343</ele>
        <time>2016-03-20T11:03:30.000Z</time>
      </trkpt>
      <trkpt lat="47.50498" lon="6.72165">
        <ele>343</ele>
        <time>2016-03-20T11:03:31.000Z</time>
      </trkpt>
      <trkpt lat="47.50497" lon="6.72172">
        <ele>343</ele>
        <time>2016-03-20T11:03:32.000Z</time>
      </trkpt>
      <trkpt lat="47.50496" lon="6.72179">
        <ele>343</ele>
        <time>2016-03-20T11:03:33.000Z</time>
      </trkpt>
      <trkpt lat="47.50495" lon="6.72186">
        <ele>343</ele>
        <time>2016-03-20T11:03:34.000Z</time>
      </trkpt>
      <trkpt lat="47.50495" lon="6.72193">
        <ele>343</ele>
        <time>2016-03-20T11:03:35.000Z</time>
      </trkpt>
      <trkpt lat="47.50494" lon="6.722">
        <ele>343</ele>
        <time>2016-03-20T11:03:36.000Z</time>
      </trkpt>
      <trkpt lat="47.50493" lon="6.72205">
        <ele>343</ele>
        <time>2016-03-20T11:03:37.000Z</time>
      </trkpt>
      <trkpt lat="47.50491" lon="6.72211">
        <ele>343</ele>
        <time>2016-03-20T11:03:38.000Z</time>
      </trkpt>
      <trkpt lat="47.50489" lon="6.72217">
        <ele>343</ele>
        <time>2016-03-20T11:03:39.000Z</time>
      </trkpt>
      <trkpt lat="47.50487" lon="6.72223">
        <ele>343</ele>
        <time>2016-03-20T11:03:40.000Z</time>
      </trkpt>
      <trkpt lat="47.50484" lon="6.72227">
        <ele>343</ele>
        <time>2016-03-20T11:03:41.000Z</time>
      </trkpt>
      <trkpt lat="47.50481" lon="6.72232">
        <ele>343</ele>
        <time>2016-03-20T11:03:42.000Z</time>
      </trkpt>
      <trkpt lat="47.50478" lon="6.72237">
        <ele>343</ele>
        <time>2016-03-20T11:03:43.000Z</time>
      </trkpt>
      <trkpt lat="47.50475" lon="6.72241">
        <ele>343</ele>
        <time>2016-03-20T11:03:44.000Z</time>
      </trkpt>
      <trkpt lat="47.50471" lon="6.72244">
        <ele>343</ele>
        <time>2016-03-20T11:03:45.000Z</time>
      </trkpt>
      <trkpt lat="47.50467" lon="6.72248">
        <ele>343</ele>
        <time>2016-03-20T11:03:46.000Z</time>
      </trkpt>
      <trkpt lat="47.50464" lon="6.72251">
        <ele>343</ele>
        <time>2016-03-20T11:03:47.000Z</time>
      </trkpt>
      <trkpt lat="47.5046" lon="6.72255">
        <ele>343</ele>
        <time>2016-03-20T11:03:48.000Z</time>
      </trkpt>
      <trkpt lat="47.50457" lon="6.72258">
        <ele>343</ele>
        <time>2016-03-20T11:03:49.000Z</time>
      </trkpt>
      <trkpt lat="47.50453" lon="6.72261">
        <ele>343</ele>
        <time>2016-03-20T11:03:50.000Z</time>
      </trkpt>
      <trkpt lat="47.50449" lon="6.72264">
        <ele>343</ele>
        <time>2016-03-20T11:03:51.000Z</time>
      </trkpt>
      <trkpt lat="47.50445" lon="6.72268">
        <ele>343</ele>
        <time>2016-03-20T11:03:52.000Z</time>
      </trkpt>
      <trkpt lat="47.50441" lon="6.72271">
        <ele>343</ele>
        <time>2016-03-20T11:03:53.000Z</time>
      </trkpt>
      <trkpt lat="47.50435" lon="6.72276">
        <ele>343</ele>
        <time>2016-03-20T11:03:54.000Z</time>
      </trkpt>
      <trkpt lat="47.5043" lon="6.7228">
        <ele>343</ele>
        <time>2016-03-20T11:03:55.000Z</time>
      </trkpt>
      <trkpt lat="47.50426" lon="6.72283">
        <ele>343</ele>
        <time>2016-03-20T11:03:56.000Z</time>
      </trkpt>
      <trkpt lat="47.50421" lon="6.72286">
        <ele>343</ele>
        <time>2016-03-20T11:03:57.000Z</time>
      </trkpt>
      <trkpt lat="47.50419" lon="6.72289">
        <ele>343</ele>
        <time>2016-03-20T11:03:58.000Z</time>
      </trkpt>
      <trkpt lat="47.50415" lon="6.72291">
        <ele>343</ele>
        <time>2016-03-20T11:03:59.000Z</time>
      </trkpt>
      <trkpt lat="47.50411" lon="6.72294">
        <ele>343</ele>
        <time>2016-03-20T11:04:00.000Z</time>
      </trkpt>
      <trkpt lat="47.50407" lon="6.72297">
        <ele>343</ele>
        <time>2016-03-20T11:04:01.000Z</time>
      </trkpt>
      <trkpt lat="47.50403" lon="6.723">
        <ele>343</ele>
        <time>2016-03-20T11:04:02.000Z</time>
      </trkpt>
      <trkpt lat="47.504" lon="6.72303">
        <ele>343</ele>
        <time>2016-03-20T11:04:03.000Z</time>
      </trkpt>
      <trkpt lat="47.50396" lon="6.72306">
        <ele>343</ele>
        <time>2016-03-20T11:04:04.002Z</time>
      </trkpt>
      <trkpt lat="47.50392" lon="6.72307">
        <ele>343</ele>
        <time>2016-03-20T11:04:05.000Z</time>
      </trkpt>
      <trkpt lat="47.50388" lon="6.7231">
        <ele>343</ele>
        <time>2016-03-20T11:04:06.000Z</time>
      </trkpt>
      <trkpt lat="47.50384" lon="6.72313">
        <ele>343</ele>
        <time>2016-03-20T11:04:07.000Z</time>
      </trkpt>
      <trkpt lat="47.5038" lon="6.72316">
        <ele>343</ele>
        <time>2016-03-20T11:04:08.000Z</time>
      </trkpt>
      <trkpt lat="47.50377" lon="6.72318">
        <ele>343</ele>
        <time>2016-03-20T11:04:09.000Z</time>
      </trkpt>
      <trkpt lat="47.50373" lon="6.72321">
        <ele>343</ele>
        <time>2016-03-20T11:04:10.000Z</time>
      </trkpt>
      <trkpt lat="47.5037" lon="6.72323">
        <ele>343</ele>
        <time>2016-03-20T11:04:11.000Z</time>
      </trkpt>
      <trkpt lat="47.50367" lon="6.72326">
        <ele>343</ele>
        <time>2016-03-20T11:04:12.000Z</time>
      </trkpt>
      <trkpt lat="47.50364" lon="6.72327">
        <ele>343</ele>
        <time>2016-03-20T11:04:13.000Z</time>
      </trkpt>
      <trkpt lat="47.5036" lon="6.7233">
        <ele>343</ele>
        <time>2016-03-20T11:04:14.000Z</time>
      </trkpt>
      <trkpt lat="47.50357" lon="6.72332">
        <ele>343</ele>
        <time>2016-03-20T11:04:15.000Z</time>
      </trkpt>
      <trkpt lat="47.50354" lon="6.72334">
        <ele>343</ele>
        <time>2016-03-20T11:04:16.000Z</time>
      </trkpt>
      <trkpt lat="47.50351" lon="6.72336">
        <ele>343</ele>
        <time>2016-03-20T11:04:17.000Z</time>
      </trkpt>
      <trkpt lat="47.50347" lon="6.72338">
        <ele>343</ele>
        <time>2016-03-20T11:04:18.000Z</time>
      </trkpt>
      <trkpt lat="47.50344" lon="6.7234">
        <ele>343</ele>
        <time>2016-03-20T11:04:19.000Z</time>
      </trkpt>
      <trkpt lat="47.50341" lon="6.72341">
        <ele>343</ele>
        <time>2016-03-20T11:04:20.000Z</time>
      </trkpt>
      <trkpt lat="47.50338" lon="6.72343">
        <ele>343</ele>
        <time>2016-03-20T11:04:21.000Z</time>
      </trkpt>
      <trkpt lat="47.50334" lon="6.72346">
        <ele>343</ele>
        <time>2016-03-20T11:04:22.000Z</time>
      </trkpt>
      <trkpt lat="47.5033" lon="6.72348">
        <ele>343</ele>
        <time>2016-03-20T11:04:23.000Z</time>
      </trkpt>
      <trkpt lat="47.50327" lon="6.72348">
        <ele>343</ele>
        <time>2016-03-20T11:04:24.000Z</time>
      </trkpt>
      <trkpt lat="47.50324" lon="6.7235">
        <ele>343</ele>
        <time>2016-03-20T11:04:25.000Z</time>
      </trkpt>
      <trkpt lat="47.5032" lon="6.7235">
        <ele>343</ele>
        <time>2016-03-20T11:04:26.000Z</time>
      </trkpt>
      <trkpt lat="47.50316" lon="6.7235">
        <ele>343</ele>
        <time>2016-03-20T11:04:27.000Z</time>
      </trkpt>
      <trkpt lat="47.50313" lon="6.72351">
        <ele>343</ele>
        <time>2016-03-20T11:04:28.000Z</time>
      </trkpt>
      <trkpt lat="47.50309" lon="6.7235">
        <ele>343</ele>
        <time>2016-03-20T11:04:29.000Z</time>
      </trkpt>
      <trkpt lat="47.50307" lon="6.72349">
        <ele>343</ele>
        <time>2016-03-20T11:04:30.000Z</time>
      </trkpt>
      <trkpt lat="47.50305" lon="6.72348">
        <ele>343</ele>
        <time>2016-03-20T11:04:31.000Z</time>
      </trkpt>
      <trkpt lat="47.50302" lon="6.72349">
        <ele>343</ele>
        <time>2016-03-20T11:04:31.999Z</time>
      </trkpt>
      <trkpt lat="47.50297" lon="6.72354">
        <ele>343</ele>
        <time>2016-03-20T11:04:33.000Z</time>
      </trkpt>
      <trkpt lat="47.50293" lon="6.72355">
        <ele>343</ele>
        <time>2016-03-20T11:04:34.000Z</time>
      </trkpt>
      <trkpt lat="47.5029" lon="6.72358">
        <ele>343</ele>
        <time>2016-03-20T11:04:35.000Z</time>
      </trkpt>
      <trkpt lat="47.50286" lon="6.72359">
        <ele>343</ele>
        <time>2016-03-20T11:04:36.000Z</time>
      </trkpt>
      <trkpt lat="47.50282" lon="6.72362">
        <ele>343</ele>
        <time>2016-03-20T11:04:37.000Z</time>
      </trkpt>
      <trkpt lat="47.50278" lon="6.72362">
        <ele>343</ele>
        <time>2016-03-20T11:04:38.000Z</time>
      </trkpt>
      <trkpt lat="47.50275" lon="6.72362">
        <ele>343</ele>
        <time>2016-03-20T11:04:39.000Z</time>
      </trkpt>
      <trkpt lat="47.50271" lon="6.72363">
        <ele>343</ele>
        <time>2016-03-20T11:04:40.000Z</time>
      </trkpt>
      <trkpt lat="47.50267" lon="6.72364">
        <ele>343</ele>
        <time>2016-03-20T11:04:41.000Z</time>
      </trkpt>
      <trkpt lat="47.50264" lon="6.72365">
        <ele>343</ele>
        <time>2016-03-20T11:04:42.000Z</time>
      </trkpt>
      <trkpt lat="47.5026" lon="6.72367">
        <ele>343</ele>
        <time>2016-03-20T11:04:43.000Z</time>
      </trkpt>
      <trkpt lat="47.50256" lon="6.72369">
        <ele>343</ele>
        <time>2016-03-20T11:04:44.000Z</time>
      </trkpt>
      <trkpt lat="47.50253" lon="6.7237">
        <ele>343</ele>
        <time>2016-03-20T11:04:45.000Z</time>
      </trkpt>
      <trkpt lat="47.50249" lon="6.72373">
        <ele>345</ele>
        <time>2016-03-20T11:04:46.000Z</time>
      </trkpt>
      <trkpt lat="47.50245" lon="6.72374">
        <ele>345</ele>
        <time>2016-03-20T11:04:47.000Z</time>
      </trkpt>
      <trkpt lat="47.50241" lon="6.72376">
        <ele>345</ele>
        <time>2016-03-20T11:04:48.000Z</time>
      </trkpt>
      <trkpt lat="47.50238" lon="6.72377">
        <ele>345</ele>
        <time>2016-03-20T11:04:49.000Z</time>
      </trkpt>
      <trkpt lat="47.50234" lon="6.72379">
        <ele>345</ele>
        <time>2016-03-20T11:04:50.000Z</time>
      </trkpt>
      <trkpt lat="47.50231" lon="6.72381">
        <ele>345</ele>
        <time>2016-03-20T11:04:51.000Z</time>
      </trkpt>
      <trkpt lat="47.50228" lon="6.72383">
        <ele>345</ele>
        <time>2016-03-20T11:04:52.000Z</time>
      </trkpt>
      <trkpt lat="47.50224" lon="6.72385">
        <ele>345</ele>
        <time>2016-03-20T11:04:53.000Z</time>
      </trkpt>
      <trkpt lat="47.50221" lon="6.72387">
        <ele>346</ele>
        <time>2016-03-20T11:04:54.001Z</time>
      </trkpt>
      <trkpt lat="47.50216" lon="6.72388">
        <ele>346</ele>
        <time>2016-03-20T11:04:55.000Z</time>
      </trkpt>
      <trkpt lat="47.50213" lon="6.72389">
        <ele>346</ele>
        <time>2016-03-20T11:04:56.000Z</time>
      </trkpt>
      <trkpt lat="47.50209" lon="6.7239">
        <ele>346</ele>
        <time>2016-03-20T11:04:57.000Z</time>
      </trkpt>
      <trkpt lat="47.50206" lon="6.72392">
        <ele>346</ele>
        <time>2016-03-20T11:04:58.000Z</time>
      </trkpt>
      <trkpt lat="47.50204" lon="6.72394">
        <ele>346</ele>
        <time>2016-03-20T11:04:59.000Z</time>
      </trkpt>
      <trkpt lat="47.50201" lon="6.72396">
        <ele>346</ele>
        <time>2016-03-20T11:05:00.000Z</time>
      </trkpt>
      <trkpt lat="47.50197" lon="6.72397">
        <ele>346</ele>
        <time>2016-03-20T11:05:01.000Z</time>
      </trkpt>
      <trkpt lat="47.50192" lon="6.72398">
        <ele>347</ele>
        <time>2016-03-20T11:05:01.999Z</time>
      </trkpt>
      <trkpt lat="47.50191" lon="6.724">
        <ele>347</ele>
        <time>2016-03-20T11:05:03.000Z</time>
      </trkpt>
      <trkpt lat="47.50188" lon="6.72402">
        <ele>347</ele>
        <time>2016-03-20T11:05:04.000Z</time>
      </trkpt>
      <trkpt lat="47.50186" lon="6.72404">
        <ele>347</ele>
        <time>2016-03-20T11:05:05.000Z</time>
      </trkpt>
      <trkpt lat="47.50184" lon="6.72406">
        <ele>347</ele>
        <time>2016-03-20T11:05:06.000Z</time>
      </trkpt>
      <trkpt lat="47.50182" lon="6.72408">
        <ele>347</ele>
        <time>2016-03-20T11:05:07.000Z</time>
      </trkpt>
      <trkpt lat="47.50179" lon="6.7241">
        <ele>347</ele>
        <time>2016-03-20T11:05:08.000Z</time>
      </trkpt>
      <trkpt lat="47.50176" lon="6.72412">
        <ele>347</ele>
        <time>2016-03-20T11:05:09.000Z</time>
      </trkpt>
      <trkpt lat="47.50173" lon="6.72415">
        <ele>348</ele>
        <time>2016-03-20T11:05:10.000Z</time>
      </trkpt>
      <trkpt lat="47.5017" lon="6.72417">
        <ele>348</ele>
        <time>2016-03-20T11:05:11.000Z</time>
      </trkpt>
      <trkpt lat="47.50167" lon="6.72419">
        <ele>348</ele>
        <time>2016-03-20T11:05:12.000Z</time>
      </trkpt>
      <trkpt lat="47.50163" lon="6.72422">
        <ele>348</ele>
        <time>2016-03-20T11:05:13.000Z</time>
      </trkpt>
      <trkpt lat="47.5016" lon="6.72425">
        <ele>348</ele>
        <time>2016-03-20T11:05:14.000Z</time>
      </trkpt>
      <trkpt lat="47.50157" lon="6.72428">
        <ele>349</ele>
        <time>2016-03-20T11:05:15.000Z</time>
      </trkpt>
      <trkpt lat="47.50154" lon="6.7243">
        <ele>349</ele>
        <time>2016-03-20T11:05:16.000Z</time>
      </trkpt>
      <trkpt lat="47.50152" lon="6.72436">
        <ele>349</ele>
        <time>2016-03-20T11:05:17.000Z</time>
      </trkpt>
      <trkpt lat="47.5015" lon="6.72439">
        <ele>349</ele>
        <time>2016-03-20T11:05:18.000Z</time>
      </trkpt>
      <trkpt lat="47.50147" lon="6.72442">
        <ele>349</ele>
        <time>2016-03-20T11:05:19.000Z</time>
      </trkpt>
      <trkpt lat="47.50142" lon="6.72446">
        <ele>349</ele>
        <time>2016-03-20T11:05:20.000Z</time>
      </trkpt>
      <trkpt lat="47.50139" lon="6.72449">
        <ele>349</ele>
        <time>2016-03-20T11:05:20.999Z</time>
      </trkpt>
      <trkpt lat="47.50138" lon="6.72452">
        <ele>349</ele>
        <time>2016-03-20T11:05:22.000Z</time>
      </trkpt>
      <trkpt lat="47.50135" lon="6.72456">
        <ele>349</ele>
        <time>2016-03-20T11:05:23.000Z</time>
      </trkpt>
      <trkpt lat="47.50133" lon="6.72459">
        <ele>349</ele>
        <time>2016-03-20T11:05:23.999Z</time>
      </trkpt>
      <trkpt lat="47.50132" lon="6.72464">
        <ele>349</ele>
        <time>2016-03-20T11:05:24.999Z</time>
      </trkpt>
      <trkpt lat="47.5013" lon="6.72468">
        <ele>349</ele>
        <time>2016-03-20T11:05:26.000Z</time>
      </trkpt>
      <trkpt lat="47.50128" lon="6.72473">
        <ele>349</ele>
        <time>2016-03-20T11:05:27.000Z</time>
      </trkpt>
      <trkpt lat="47.50127" lon="6.72477">
        <ele>349</ele>
        <time>2016-03-20T11:05:28.000Z</time>
      </trkpt>
      <trkpt lat="47.50125" lon="6.72481">
        <ele>349</ele>
        <time>2016-03-20T11:05:29.000Z</time>
      </trkpt>
      <trkpt lat="47.50123" lon="6.72484">
        <ele>349</ele>
        <time>2016-03-20T11:05:30.000Z</time>
      </trkpt>
      <trkpt lat="47.50121" lon="6.72488">
        <ele>349</ele>
        <time>2016-03-20T11:05:31.000Z</time>
      </trkpt>
      <trkpt lat="47.50119" lon="6.72492">
        <ele>349</ele>
        <time>2016-03-20T11:05:32.000Z</time>
      </trkpt>
      <trkpt lat="47.50117" lon="6.72495">
        <ele>349</ele>
        <time>2016-03-20T11:05:33.000Z</time>
      </trkpt>
      <trkpt lat="47.50115" lon="6.72499">
        <ele>349</ele>
        <time>2016-03-20T11:05:34.000Z</time>
      </trkpt>
      <trkpt lat="47.50113" lon="6.72503">
        <ele>348</ele>
        <time>2016-03-20T11:05:35.001Z</time>
      </trkpt>
      <trkpt lat="47.50112" lon="6.72507">
        <ele>348</ele>
        <time>2016-03-20T11:05:36.000Z</time>
      </trkpt>
      <trkpt lat="47.5011" lon="6.72511">
        <ele>348</ele>
        <time>2016-03-20T11:05:37.000Z</time>
      </trkpt>
      <trkpt lat="47.50108" lon="6.72515">
        <ele>348</ele>
        <time>2016-03-20T11:05:38.000Z</time>
      </trkpt>
      <trkpt lat="47.50106" lon="6.72519">
        <ele>348</ele>
        <time>2016-03-20T11:05:39.000Z</time>
      </trkpt>
      <trkpt lat="47.50103" lon="6.72522">
        <ele>348</ele>
        <time>2016-03-20T11:05:40.000Z</time>
      </trkpt>
      <trkpt lat="47.50101" lon="6.72527">
        <ele>348</ele>
        <time>2016-03-20T11:05:41.000Z</time>
      </trkpt>
      <trkpt lat="47.50099" lon="6.72531">
        <ele>348</ele>
        <time>2016-03-20T11:05:42.000Z</time>
      </trkpt>
      <trkpt lat="47.50097" lon="6.72535">
        <ele>348</ele>
        <time>2016-03-20T11:05:43.000Z</time>
      </trkpt>
      <trkpt lat="47.50095" lon="6.7254">
        <ele>348</ele>
        <time>2016-03-20T11:05:44.000Z</time>
      </trkpt>
      <trkpt lat="47.50093" lon="6.72545">
        <ele>348</ele>
        <time>2016-03-20T11:05:45.000Z</time>
      </trkpt>
      <trkpt lat="47.50091" lon="6.72549">
        <ele>348</ele>
        <time>2016-03-20T11:05:46.000Z</time>
      </trkpt>
      <trkpt lat="47.50089" lon="6.72553">
        <ele>348</ele>
        <time>2016-03-20T11:05:47.000Z</time>
      </trkpt>
      <trkpt lat="47.50087" lon="6.72558">
        <ele>348</ele>
        <time>2016-03-20T11:05:48.000Z</time>
      </trkpt>
      <trkpt lat="47.50084" lon="6.72562">
        <ele>348</ele>
        <time>2016-03-20T11:05:49.000Z</time>
      </trkpt>
      <trkpt lat="47.50083" lon="6.72566">
        <ele>348</ele>
        <time>2016-03-20T11:05:50.000Z</time>
      </trkpt>
      <trkpt lat="47.50081" lon="6.7257">
        <ele>348</ele>
        <time>2016-03-20T11:05:51.000Z</time>
      </trkpt>
      <trkpt lat="47.50079" lon="6.72575">
        <ele>348</ele>
        <time>2016-03-20T11:05:52.000Z</time>
      </trkpt>
      <trkpt lat="47.50078" lon="6.7258">
        <ele>348</ele>
        <time>2016-03-20T11:05:53.000Z</time>
      </trkpt>
      <trkpt lat="47.50077" lon="6.72584">
        <ele>348</ele>
        <time>2016-03-20T11:05:54.000Z</time>
      </trkpt>
      <trkpt lat="47.50075" lon="6.72589">
        <ele>347</ele>
        <time>2016-03-20T11:05:55.000Z</time>
      </trkpt>
      <trkpt lat="47.50073" lon="6.72593">
        <ele>347</ele>
        <time>2016-03-20T11:05:56.000Z</time>
      </trkpt>
      <trkpt lat="47.5007" lon="6.72597">
        <ele>347</ele>
        <time>2016-03-20T11:05:57.000Z</time>
      </trkpt>
      <trkpt lat="47.50067" lon="6.72601">
        <ele>347</ele>
        <time>2016-03-20T11:05:58.000Z</time>
      </trkpt>
      <trkpt lat="47.50064" lon="6.72605">
        <ele>347</ele>
        <time>2016-03-20T11:05:59.000Z</time>
      </trkpt>
      <trkpt lat="47.50062" lon="6.72608">
        <ele>347</ele>
        <time>2016-03-20T11:06:00.000Z</time>
      </trkpt>
      <trkpt lat="47.50059" lon="6.72612">
        <ele>347</ele>
        <time>2016-03-20T11:06:01.000Z</time>
      </trkpt>
      <trkpt lat="47.50056" lon="6.72619">
        <ele>346</ele>
        <time>2016-03-20T11:06:02.000Z</time>
      </trkpt>
      <trkpt lat="47.50052" lon="6.72621">
        <ele>346</ele>
        <time>2016-03-20T11:06:03.000Z</time>
      </trkpt>
      <trkpt lat="47.50049" lon="6.72626">
        <ele>346</ele>
        <time>2016-03-20T11:06:04.000Z</time>
      </trkpt>
      <trkpt lat="47.50045" lon="6.7263">
        <ele>346</ele>
        <time>2016-03-20T11:06:05.000Z</time>
      </trkpt>
      <trkpt lat="47.50042" lon="6.72634">
        <ele>346</ele>
        <time>2016-03-20T11:06:06.000Z</time>
      </trkpt>
      <trkpt lat="47.50038" lon="6.72638">
        <ele>346</ele>
        <time>2016-03-20T11:06:07.000Z</time>
      </trkpt>
      <trkpt lat="47.50032" lon="6.72642">
        <ele>346</ele>
        <time>2016-03-20T11:06:08.000Z</time>
      </trkpt>
      <trkpt lat="47.50028" lon="6.72647">
        <ele>346</ele>
        <time>2016-03-20T11:06:09.000Z</time>
      </trkpt>
      <trkpt lat="47.50023" lon="6.72651">
        <ele>346</ele>
        <time>2016-03-20T11:06:10.000Z</time>
      </trkpt>
      <trkpt lat="47.50018" lon="6.72655">
        <ele>346</ele>
        <time>2016-03-20T11:06:11.000Z</time>
      </trkpt>
      <trkpt lat="47.50013" lon="6.72662">
        <ele>345</ele>
        <time>2016-03-20T11:06:12.000Z</time>
      </trkpt>
      <trkpt lat="47.50007" lon="6.72666">
        <ele>345</ele>
        <time>2016-03-20T11:06:13.000Z</time>
      </trkpt>
      <trkpt lat="47.50002" lon="6.72672">
        <ele>345</ele>
        <time>2016-03-20T11:06:14.000Z</time>
      </trkpt>
      <trkpt lat="47.49997" lon="6.72678">
        <ele>344</ele>
        <time>2016-03-20T11:06:15.000Z</time>
      </trkpt>
      <trkpt lat="47.49992" lon="6.72685">
        <ele>344</ele>
        <time>2016-03-20T11:06:16.000Z</time>
      </trkpt>
      <trkpt lat="47.49987" lon="6.72692">
        <ele>344</ele>
        <time>2016-03-20T11:06:17.000Z</time>
      </trkpt>
      <trkpt lat="47.49982" lon="6.72698">
        <ele>343</ele>
        <time>2016-03-20T11:06:18.000Z</time>
      </trkpt>
      <trkpt lat="47.49977" lon="6.72705">
        <ele>343</ele>
        <time>2016-03-20T11:06:19.000Z</time>
      </trkpt>
      <trkpt lat="47.49971" lon="6.72712">
        <ele>343</ele>
        <time>2016-03-20T11:06:20.000Z</time>
      </trkpt>
      <trkpt lat="47.49967" lon="6.7272">
        <ele>343</ele>
        <time>2016-03-20T11:06:21.000Z</time>
      </trkpt>
      <trkpt lat="47.49962" lon="6.72728">
        <ele>343</ele>
        <time>2016-03-20T11:06:22.000Z</time>
      </trkpt>
      <trkpt lat="47.49957" lon="6.72735">
        <ele>343</ele>
        <time>2016-03-20T11:06:23.000Z</time>
      </trkpt>
      <trkpt lat="47.49952" lon="6.72741">
        <ele>343</ele>
        <time>2016-03-20T11:06:24.000Z</time>
      </trkpt>
      <trkpt lat="47.49947" lon="6.72746">
        <ele>343</ele>
        <time>2016-03-20T11:06:25.000Z</time>
      </trkpt>
      <trkpt lat="47.49942" lon="6.7275">
        <ele>342</ele>
        <time>2016-03-20T11:06:26.000Z</time>
      </trkpt>
      <trkpt lat="47.49938" lon="6.72755">
        <ele>342</ele>
        <time>2016-03-20T11:06:27.000Z</time>
      </trkpt>
      <trkpt lat="47.49935" lon="6.72757">
        <ele>342</ele>
        <time>2016-03-20T11:06:28.000Z</time>
      </trkpt>
      <trkpt lat="47.49933" lon="6.72762">
        <ele>342</ele>
        <time>2016-03-20T11:06:29.000Z</time>
      </trkpt>
      <trkpt lat="47.49933" lon="6.72773">
        <ele>342</ele>
        <time>2016-03-20T11:06:30.000Z</time>
      </trkpt>
      <trkpt lat="47.49932" lon="6.7278">
        <ele>342</ele>
        <time>2016-03-20T11:06:31.000Z</time>
      </trkpt>
      <trkpt lat="47.49932" lon="6.7279">
        <ele>342</ele>
        <time>2016-03-20T11:06:32.000Z</time>
      </trkpt>
      <trkpt lat="47.49932" lon="6.72796">
        <ele>342</ele>
        <time>2016-03-20T11:06:33.000Z</time>
      </trkpt>
      <trkpt lat="47.49931" lon="6.72802">
        <ele>342</ele>
        <time>2016-03-20T11:06:34.000Z</time>
      </trkpt>
      <trkpt lat="47.49932" lon="6.72811">
        <ele>342</ele>
        <time>2016-03-20T11:06:35.000Z</time>
      </trkpt>
      <trkpt lat="47.49934" lon="6.72816">
        <ele>342</ele>
        <time>2016-03-20T11:06:36.000Z</time>
      </trkpt>
      <trkpt lat="47.49933" lon="6.7282">
        <ele>342</ele>
        <time>2016-03-20T11:06:37.000Z</time>
      </trkpt>
      <trkpt lat="47.49934" lon="6.72828">
        <ele>342</ele>
        <time>2016-03-20T11:06:38.000Z</time>
      </trkpt>
      <trkpt lat="47.49934" lon="6.72836">
        <ele>342</ele>
        <time>2016-03-20T11:06:39.000Z</time>
      </trkpt>
      <trkpt lat="47.49935" lon="6.7284">
        <ele>342</ele>
        <time>2016-03-20T11:06:40.000Z</time>
      </trkpt>
      <trkpt lat="47.49936" lon="6.72847">
        <ele>341</ele>
        <time>2016-03-20T11:06:41.000Z</time>
      </trkpt>
      <trkpt lat="47.49936" lon="6.72854">
        <ele>341</ele>
        <time>2016-03-20T11:06:42.000Z</time>
      </trkpt>
      <trkpt lat="47.49935" lon="6.72861">
        <ele>341</ele>
        <time>2016-03-20T11:06:43.000Z</time>
      </trkpt>
      <trkpt lat="47.49934" lon="6.72867">
        <ele>341</ele>
        <time>2016-03-20T11:06:44.000Z</time>
      </trkpt>
      <trkpt lat="47.49933" lon="6.72872">
        <ele>341</ele>
        <time>2016-03-20T11:06:45.000Z</time>
      </trkpt>
      <trkpt lat="47.49938" lon="6.72882">
        <ele>341</ele>
        <time>2016-03-20T11:06:46.000Z</time>
      </trkpt>
      <trkpt lat="47.49941" lon="6.72889">
        <ele>341</ele>
        <time>2016-03-20T11:06:47.000Z</time>
      </trkpt>
      <trkpt lat="47.49944" lon="6.72897">
        <ele>341</ele>
        <time>2016-03-20T11:06:48.000Z</time>
      </trkpt>
      <trkpt lat="47.49948" lon="6.72904">
        <ele>340</ele>
        <time>2016-03-20T11:06:49.000Z</time>
      </trkpt>
      <trkpt lat="47.4995" lon="6.7291">
        <ele>340</ele>
        <time>2016-03-20T11:06:50.000Z</time>
      </trkpt>
      <trkpt lat="47.49952" lon="6.72914">
        <ele>340</ele>
        <time>2016-03-20T11:06:51.000Z</time>
      </trkpt>
      <trkpt lat="47.49953" lon="6.72917">
        <ele>339</ele>
        <time>2016-03-20T11:06:52.000Z</time>
      </trkpt>
      <trkpt lat="47.49956" lon="6.72921">
        <ele>339</ele>
        <time>2016-03-20T11:06:53.000Z</time>
      </trkpt>
      <trkpt lat="47.4996" lon="6.72926">
        <ele>339</ele>
        <time>2016-03-20T11:06:54.000Z</time>
      </trkpt>
      <trkpt lat="47.49965" lon="6.7293">
        <ele>339</ele>
        <time>2016-03-20T11:06:55.000Z</time>
      </trkpt>
      <trkpt lat="47.49967" lon="6.72938">
        <ele>339</ele>
        <time>2016-03-20T11:06:56.000Z</time>
      </trkpt>
      <trkpt lat="47.4997" lon="6.72945">
        <ele>339</ele>
        <time>2016-03-20T11:06:57.000Z</time>
      </trkpt>
      <trkpt lat="47.49973" lon="6.72955">
        <ele>339</ele>
        <time>2016-03-20T11:06:58.000Z</time>
      </trkpt>
      <trkpt lat="47.49974" lon="6.72962">
        <ele>338</ele>
        <time>2016-03-20T11:06:59.000Z</time>
      </trkpt>
      <trkpt lat="47.49975" lon="6.72969">
        <ele>338</ele>
        <time>2016-03-20T11:07:00.000Z</time>
      </trkpt>
      <trkpt lat="47.49977" lon="6.72976">
        <ele>338</ele>
        <time>2016-03-20T11:07:01.000Z</time>
      </trkpt>
      <trkpt lat="47.4998" lon="6.72983">
        <ele>338</ele>
        <time>2016-03-20T11:07:02.000Z</time>
      </trkpt>
      <trkpt lat="47.49981" lon="6.72987">
        <ele>338</ele>
        <time>2016-03-20T11:07:03.000Z</time>
      </trkpt>
      <trkpt lat="47.49981" lon="6.72992">
        <ele>338</ele>
        <time>2016-03-20T11:07:04.000Z</time>
      </trkpt>
      <trkpt lat="47.49982" lon="6.72998">
        <ele>338</ele>
        <time>2016-03-20T11:07:05.000Z</time>
      </trkpt>
      <trkpt lat="47.4999" lon="6.73005">
        <ele>337</ele>
        <time>2016-03-20T11:07:06.000Z</time>
      </trkpt>
      <trkpt lat="47.49994" lon="6.73011">
        <ele>337</ele>
        <time>2016-03-20T11:07:07.000Z</time>
      </trkpt>
      <trkpt lat="47.49998" lon="6.73017">
        <ele>337</ele>
        <time>2016-03-20T11:07:08.000Z</time>
      </trkpt>
      <trkpt lat="47.5" lon="6.73022">
        <ele>337</ele>
        <time>2016-03-20T11:07:09.000Z</time>
      </trkpt>
      <trkpt lat="47.50005" lon="6.73027">
        <ele>337</ele>
        <time>2016-03-20T11:07:10.000Z</time>
      </trkpt>
      <trkpt lat="47.50007" lon="6.73031">
        <ele>337</ele>
        <time>2016-03-20T11:07:11.000Z</time>
      </trkpt>
      <trkpt lat="47.50009" lon="6.73034">
        <ele>337</ele>
        <time>2016-03-20T11:07:12.000Z</time>
      </trkpt>
      <trkpt lat="47.50012" lon="6.73038">
        <ele>337</ele>
        <time>2016-03-20T11:07:13.000Z</time>
      </trkpt>
      <trkpt lat="47.50019" lon="6.73045">
        <ele>337</ele>
        <time>2016-03-20T11:07:14.000Z</time>
      </trkpt>
      <trkpt lat="47.50021" lon="6.73047">
        <ele>337</ele>
        <time>2016-03-20T11:07:15.000Z</time>
      </trkpt>
      <trkpt lat="47.50023" lon="6.73048">
        <ele>337</ele>
        <time>2016-03-20T11:07:16.000Z</time>
      </trkpt>
      <trkpt lat="47.50026" lon="6.73052">
        <ele>337</ele>
        <time>2016-03-20T11:07:17.000Z</time>
      </trkpt>
      <trkpt lat="47.50029" lon="6.73056">
        <ele>337</ele>
        <time>2016-03-20T11:07:18.000Z</time>
      </trkpt>
      <trkpt lat="47.50032" lon="6.73061">
        <ele>337</ele>
        <time>2016-03-20T11:07:19.000Z</time>
      </trkpt>
      <trkpt lat="47.50033" lon="6.73064">
        <ele>337</ele>
        <time>2016-03-20T11:07:20.000Z</time>
      </trkpt>
      <trkpt lat="47.50036" lon="6.73067">
        <ele>337</ele>
        <time>2016-03-20T11:07:21.000Z</time>
      </trkpt>
      <trkpt lat="47.50041" lon="6.73072">
        <ele>337</ele>
        <time>2016-03-20T11:07:22.000Z</time>
      </trkpt>
      <trkpt lat="47.50044" lon="6.73076">
        <ele>337</ele>
        <time>2016-03-20T11:07:23.000Z</time>
      </trkpt>
      <trkpt lat="47.50047" lon="6.7308">
        <ele>337</ele>
        <time>2016-03-20T11:07:24.000Z</time>
      </trkpt>
      <trkpt lat="47.5005" lon="6.73083">
        <ele>337</ele>
        <time>2016-03-20T11:07:25.000Z</time>
      </trkpt>
      <trkpt lat="47.50054" lon="6.73087">
        <ele>337</ele>
        <time>2016-03-20T11:07:26.000Z</time>
      </trkpt>
      <trkpt lat="47.50057" lon="6.7309">
        <ele>337</ele>
        <time>2016-03-20T11:07:27.000Z</time>
      </trkpt>
      <trkpt lat="47.50061" lon="6.73093">
        <ele>337</ele>
        <time>2016-03-20T11:07:28.000Z</time>
      </trkpt>
      <trkpt lat="47.50064" lon="6.73097">
        <ele>337</ele>
        <time>2016-03-20T11:07:29.000Z</time>
      </trkpt>
      <trkpt lat="47.50067" lon="6.73101">
        <ele>337</ele>
        <time>2016-03-20T11:07:30.000Z</time>
      </trkpt>
      <trkpt lat="47.5007" lon="6.73105">
        <ele>337</ele>
        <time>2016-03-20T11:07:31.000Z</time>
      </trkpt>
      <trkpt lat="47.50073" lon="6.73109">
        <ele>337</ele>
        <time>2016-03-20T11:07:32.000Z</time>
      </trkpt>
      <trkpt lat="47.50076" lon="6.73114">
        <ele>337</ele>
        <time>2016-03-20T11:07:33.000Z</time>
      </trkpt>
      <trkpt lat="47.5008" lon="6.73118">
        <ele>337</ele>
        <time>2016-03-20T11:07:34.000Z</time>
      </trkpt>
      <trkpt lat="47.50084" lon="6.73122">
        <ele>339</ele>
        <time>2016-03-20T11:07:35.000Z</time>
      </trkpt>
      <trkpt lat="47.50088" lon="6.73126">
        <ele>339</ele>
        <time>2016-03-20T11:07:36.000Z</time>
      </trkpt>
      <trkpt lat="47.50093" lon="6.73129">
        <ele>339</ele>
        <time>2016-03-20T11:07:37.000Z</time>
      </trkpt>
      <trkpt lat="47.50099" lon="6.73131">
        <ele>339</ele>
        <time>2016-03-20T11:07:38.000Z</time>
      </trkpt>
      <trkpt lat="47.50104" lon="6.73131">
        <ele>339</ele>
        <time>2016-03-20T11:07:39.000Z</time>
      </trkpt>
      <trkpt lat="47.50108" lon="6.73132">
        <ele>339</ele>
        <time>2016-03-20T11:07:40.000Z</time>
      </trkpt>
      <trkpt lat="47.50118" lon="6.73129">
        <ele>339</ele>
        <time>2016-03-20T11:07:41.000Z</time>
      </trkpt>
      <trkpt lat="47.50123" lon="6.73129">
        <ele>339</ele>
        <time>2016-03-20T11:07:42.000Z</time>
      </trkpt>
      <trkpt lat="47.50129" lon="6.73131">
        <ele>340</ele>
        <time>2016-03-20T11:07:43.000Z</time>
      </trkpt>
      <trkpt lat="47.50132" lon="6.7313">
        <ele>340</ele>
        <time>2016-03-20T11:07:44.000Z</time>
      </trkpt>
      <trkpt lat="47.50136" lon="6.7313">
        <ele>340</ele>
        <time>2016-03-20T11:07:45.000Z</time>
      </trkpt>
      <trkpt lat="47.5014" lon="6.73131">
        <ele>340</ele>
        <time>2016-03-20T11:07:46.000Z</time>
      </trkpt>
      <trkpt lat="47.50144" lon="6.7313">
        <ele>340</ele>
        <time>2016-03-20T11:07:47.000Z</time>
      </trkpt>
      <trkpt lat="47.50147" lon="6.7313">
        <ele>340</ele>
        <time>2016-03-20T11:07:48.000Z</time>
      </trkpt>
      <trkpt lat="47.50151" lon="6.73131">
        <ele>340</ele>
        <time>2016-03-20T11:07:49.000Z</time>
      </trkpt>
      <trkpt lat="47.50154" lon="6.73132">
        <ele>340</ele>
        <time>2016-03-20T11:07:50.000Z</time>
      </trkpt>
      <trkpt lat="47.50157" lon="6.73133">
        <ele>340</ele>
        <time>2016-03-20T11:07:51.000Z</time>
      </trkpt>
      <trkpt lat="47.5016" lon="6.73135">
        <ele>340</ele>
        <time>2016-03-20T11:07:52.000Z</time>
      </trkpt>
      <trkpt lat="47.50163" lon="6.73136">
        <ele>340</ele>
        <time>2016-03-20T11:07:53.000Z</time>
      </trkpt>
      <trkpt lat="47.50165" lon="6.73138">
        <ele>340</ele>
        <time>2016-03-20T11:07:54.000Z</time>
      </trkpt>
      <trkpt lat="47.50167" lon="6.7314">
        <ele>340</ele>
        <time>2016-03-20T11:07:55.000Z</time>
      </trkpt>
      <trkpt lat="47.50168" lon="6.73144">
        <ele>341</ele>
        <time>2016-03-20T11:07:57.000Z</time>
      </trkpt>
      <trkpt lat="47.50169" lon="6.73147">
        <ele>342</ele>
        <time>2016-03-20T11:07:58.000Z</time>
      </trkpt>
      <trkpt lat="47.50169" lon="6.73153">
        <ele>342</ele>
        <time>2016-03-20T11:08:00.000Z</time>
      </trkpt>
      <trkpt lat="47.50168" lon="6.73156">
        <ele>342</ele>
        <time>2016-03-20T11:08:01.000Z</time>
      </trkpt>
      <trkpt lat="47.50167" lon="6.73159">
        <ele>341</ele>
        <time>2016-03-20T11:08:02.000Z</time>
      </trkpt>
      <trkpt lat="47.50165" lon="6.73164">
        <ele>342</ele>
        <time>2016-03-20T11:08:03.000Z</time>
      </trkpt>
      <trkpt lat="47.50163" lon="6.73168">
        <ele>342</ele>
        <time>2016-03-20T11:08:04.000Z</time>
      </trkpt>
      <trkpt lat="47.50161" lon="6.73172">
        <ele>342</ele>
        <time>2016-03-20T11:08:05.000Z</time>
      </trkpt>
      <trkpt lat="47.5016" lon="6.73177">
        <ele>341</ele>
        <time>2016-03-20T11:08:06.000Z</time>
      </trkpt>
      <trkpt lat="47.5016" lon="6.73181">
        <ele>341</ele>
        <time>2016-03-20T11:08:06.981Z</time>
      </trkpt>
      <trkpt lat="47.5016" lon="6.73186">
        <ele>341</ele>
        <time>2016-03-20T11:08:08.000Z</time>
      </trkpt>
      <trkpt lat="47.5016" lon="6.73191">
        <ele>341</ele>
        <time>2016-03-20T11:08:09.000Z</time>
      </trkpt>
      <trkpt lat="47.5016" lon="6.73194">
        <ele>341</ele>
        <time>2016-03-20T11:08:10.000Z</time>
      </trkpt>
      <trkpt lat="47.5016" lon="6.73198">
        <ele>341</ele>
        <time>2016-03-20T11:08:11.000Z</time>
      </trkpt>
      <trkpt lat="47.5016" lon="6.73201">
        <ele>341</ele>
        <time>2016-03-20T11:08:12.000Z</time>
      </trkpt>
      <trkpt lat="47.5016" lon="6.73205">
        <ele>341</ele>
        <time>2016-03-20T11:08:13.000Z</time>
      </trkpt>
      <trkpt lat="47.50158" lon="6.73211">
        <ele>341</ele>
        <time>2016-03-20T11:08:15.000Z</time>
      </trkpt>
      <trkpt lat="47.50157" lon="6.73213">
        <ele>341</ele>
        <time>2016-03-20T11:08:16.000Z</time>
      </trkpt>
      <trkpt lat="47.50155" lon="6.73215">
        <ele>341</ele>
        <time>2016-03-20T11:08:17.000Z</time>
      </trkpt>
      <trkpt lat="47.50152" lon="6.73217">
        <ele>341</ele>
        <time>2016-03-20T11:08:18.000Z</time>
      </trkpt>
      <trkpt lat="47.5015" lon="6.7322">
        <ele>341</ele>
        <time>2016-03-20T11:08:19.000Z</time>
      </trkpt>
      <trkpt lat="47.50148" lon="6.73223">
        <ele>341</ele>
        <time>2016-03-20T11:08:20.000Z</time>
      </trkpt>
      <trkpt lat="47.50146" lon="6.73227">
        <ele>341</ele>
        <time>2016-03-20T11:08:21.000Z</time>
      </trkpt>
      <trkpt lat="47.50145" lon="6.73231">
        <ele>341</ele>
        <time>2016-03-20T11:08:22.000Z</time>
      </trkpt>
      <trkpt lat="47.50144" lon="6.73234">
        <ele>341</ele>
        <time>2016-03-20T11:08:23.000Z</time>
      </trkpt>
      <trkpt lat="47.50142" lon="6.73238">
        <ele>341</ele>
        <time>2016-03-20T11:08:24.000Z</time>
      </trkpt>
      <trkpt lat="47.50141" lon="6.73242">
        <ele>341</ele>
        <time>2016-03-20T11:08:25.000Z</time>
      </trkpt>
      <trkpt lat="47.50139" lon="6.73246">
        <ele>341</ele>
        <time>2016-03-20T11:08:26.000Z</time>
      </trkpt>
      <trkpt lat="47.50138" lon="6.73251">
        <ele>343</ele>
        <time>2016-03-20T11:08:27.000Z</time>
      </trkpt>
      <trkpt lat="47.50136" lon="6.73256">
        <ele>343</ele>
        <time>2016-03-20T11:08:28.000Z</time>
      </trkpt>
      <trkpt lat="47.50134" lon="6.73261">
        <ele>343</ele>
        <time>2016-03-20T11:08:29.000Z</time>
      </trkpt>
      <trkpt lat="47.50132" lon="6.73266">
        <ele>343</ele>
        <time>2016-03-20T11:08:30.000Z</time>
      </trkpt>
      <trkpt lat="47.5013" lon="6.73271">
        <ele>343</ele>
        <time>2016-03-20T11:08:31.000Z</time>
      </trkpt>
      <trkpt lat="47.50129" lon="6.73276">
        <ele>343</ele>
        <time>2016-03-20T11:08:32.000Z</time>
      </trkpt>
      <trkpt lat="47.50127" lon="6.7328">
        <ele>343</ele>
        <time>2016-03-20T11:08:33.000Z</time>
      </trkpt>
      <trkpt lat="47.50125" lon="6.73285">
        <ele>343</ele>
        <time>2016-03-20T11:08:34.000Z</time>
      </trkpt>
      <trkpt lat="47.50123" lon="6.7329">
        <ele>343</ele>
        <time>2016-03-20T11:08:35.000Z</time>
      </trkpt>
      <trkpt lat="47.50121" lon="6.73295">
        <ele>343</ele>
        <time>2016-03-20T11:08:36.000Z</time>
      </trkpt>
      <trkpt lat="47.50119" lon="6.73298">
        <ele>343</ele>
        <time>2016-03-20T11:08:37.000Z</time>
      </trkpt>
      <trkpt lat="47.50116" lon="6.733">
        <ele>343</ele>
        <time>2016-03-20T11:08:38.000Z</time>
      </trkpt>
      <trkpt lat="47.50114" lon="6.73303">
        <ele>343</ele>
        <time>2016-03-20T11:08:39.000Z</time>
      </trkpt>
      <trkpt lat="47.50111" lon="6.73306">
        <ele>343</ele>
        <time>2016-03-20T11:08:40.000Z</time>
      </trkpt>
      <trkpt lat="47.50108" lon="6.73311">
        <ele>343</ele>
        <time>2016-03-20T11:08:41.000Z</time>
      </trkpt>
      <trkpt lat="47.50106" lon="6.73316">
        <ele>343</ele>
        <time>2016-03-20T11:08:42.000Z</time>
      </trkpt>
      <trkpt lat="47.50104" lon="6.73322">
        <ele>343</ele>
        <time>2016-03-20T11:08:43.000Z</time>
      </trkpt>
      <trkpt lat="47.50102" lon="6.73328">
        <ele>343</ele>
        <time>2016-03-20T11:08:44.000Z</time>
      </trkpt>
      <trkpt lat="47.50101" lon="6.73334">
        <ele>345</ele>
        <time>2016-03-20T11:08:45.000Z</time>
      </trkpt>
      <trkpt lat="47.50099" lon="6.7334">
        <ele>345</ele>
        <time>2016-03-20T11:08:46.000Z</time>
      </trkpt>
      <trkpt lat="47.50098" lon="6.73345">
        <ele>345</ele>
        <time>2016-03-20T11:08:47.000Z</time>
      </trkpt>
      <trkpt lat="47.50097" lon="6.7335">
        <ele>345</ele>
        <time>2016-03-20T11:08:48.000Z</time>
      </trkpt>
      <trkpt lat="47.50096" lon="6.73354">
        <ele>345</ele>
        <time>2016-03-20T11:08:49.000Z</time>
      </trkpt>
      <trkpt lat="47.50094" lon="6.73358">
        <ele>346</ele>
        <time>2016-03-20T11:08:50.000Z</time>
      </trkpt>
      <trkpt lat="47.50093" lon="6.73363">
        <ele>346</ele>
        <time>2016-03-20T11:08:51.000Z</time>
      </trkpt>
      <trkpt lat="47.50091" lon="6.73368">
        <ele>346</ele>
        <time>2016-03-20T11:08:52.000Z</time>
      </trkpt>
      <trkpt lat="47.50089" lon="6.73372">
        <ele>346</ele>
        <time>2016-03-20T11:08:53.000Z</time>
      </trkpt>
      <trkpt lat="47.50088" lon="6.73376">
        <ele>346</ele>
        <time>2016-03-20T11:08:54.000Z</time>
      </trkpt>
      <trkpt lat="47.50087" lon="6.73381">
        <ele>346</ele>
        <time>2016-03-20T11:08:55.000Z</time>
      </trkpt>
      <trkpt lat="47.50086" lon="6.73386">
        <ele>346</ele>
        <time>2016-03-20T11:08:56.000Z</time>
      </trkpt>
      <trkpt lat="47.50085" lon="6.7339">
        <ele>346</ele>
        <time>2016-03-20T11:08:57.000Z</time>
      </trkpt>
      <trkpt lat="47.50085" lon="6.73395">
        <ele>346</ele>
        <time>2016-03-20T11:08:58.000Z</time>
      </trkpt>
      <trkpt lat="47.50084" lon="6.73398">
        <ele>346</ele>
        <time>2016-03-20T11:08:59.000Z</time>
      </trkpt>
      <trkpt lat="47.50082" lon="6.73404">
        <ele>344</ele>
        <time>2016-03-20T11:09:01.000Z</time>
      </trkpt>
      <trkpt lat="47.50081" lon="6.73406">
        <ele>344</ele>
        <time>2016-03-20T11:09:02.000Z</time>
      </trkpt>
      <trkpt lat="47.50079" lon="6.7341">
        <ele>345</ele>
        <time>2016-03-20T11:09:04.000Z</time>
      </trkpt>
      <trkpt lat="47.50079" lon="6.73412">
        <ele>345</ele>
        <time>2016-03-20T11:09:05.000Z</time>
      </trkpt>
      <trkpt lat="47.50079" lon="6.73419">
        <ele>345</ele>
        <time>2016-03-20T11:09:14.000Z</time>
      </trkpt>
      <trkpt lat="47.50078" lon="6.73421">
        <ele>345</ele>
        <time>2016-03-20T11:09:15.000Z</time>
      </trkpt>
      <trkpt lat="47.50076" lon="6.73423">
        <ele>345</ele>
        <time>2016-03-20T11:09:16.000Z</time>
      </trkpt>
      <trkpt lat="47.50074" lon="6.73427">
        <ele>345</ele>
        <time>2016-03-20T11:09:17.000Z</time>
      </trkpt>
      <trkpt lat="47.50072" lon="6.73431">
        <ele>345</ele>
        <time>2016-03-20T11:09:18.000Z</time>
      </trkpt>
      <trkpt lat="47.5007" lon="6.73436">
        <ele>344</ele>
        <time>2016-03-20T11:09:19.000Z</time>
      </trkpt>
      <trkpt lat="47.50068" lon="6.73442">
        <ele>344</ele>
        <time>2016-03-20T11:09:20.000Z</time>
      </trkpt>
      <trkpt lat="47.50067" lon="6.73449">
        <ele>344</ele>
        <time>2016-03-20T11:09:21.000Z</time>
      </trkpt>
      <trkpt lat="47.50065" lon="6.73457">
        <ele>344</ele>
        <time>2016-03-20T11:09:22.000Z</time>
      </trkpt>
      <trkpt lat="47.50063" lon="6.73465">
        <ele>344</ele>
        <time>2016-03-20T11:09:23.000Z</time>
      </trkpt>
      <trkpt lat="47.50062" lon="6.73473">
        <ele>344</ele>
        <time>2016-03-20T11:09:24.000Z</time>
      </trkpt>
      <trkpt lat="47.5006" lon="6.7348">
        <ele>344</ele>
        <time>2016-03-20T11:09:25.000Z</time>
      </trkpt>
      <trkpt lat="47.50058" lon="6.73487">
        <ele>344</ele>
        <time>2016-03-20T11:09:26.000Z</time>
      </trkpt>
      <trkpt lat="47.50056" lon="6.73495">
        <ele>344</ele>
        <time>2016-03-20T11:09:27.000Z</time>
      </trkpt>
      <trkpt lat="47.50055" lon="6.73502">
        <ele>345</ele>
        <time>2016-03-20T11:09:28.000Z</time>
      </trkpt>
      <trkpt lat="47.50053" lon="6.73509">
        <ele>345</ele>
        <time>2016-03-20T11:09:29.000Z</time>
      </trkpt>
      <trkpt lat="47.50052" lon="6.73517">
        <ele>345</ele>
        <time>2016-03-20T11:09:30.000Z</time>
      </trkpt>
      <trkpt lat="47.50053" lon="6.7353">
        <ele>345</ele>
        <time>2016-03-20T11:09:31.000Z</time>
      </trkpt>
      <trkpt lat="47.50053" lon="6.73537">
        <ele>345</ele>
        <time>2016-03-20T11:09:32.000Z</time>
      </trkpt>
      <trkpt lat="47.50051" lon="6.73544">
        <ele>345</ele>
        <time>2016-03-20T11:09:33.000Z</time>
      </trkpt>
      <trkpt lat="47.50051" lon="6.73552">
        <ele>346</ele>
        <time>2016-03-20T11:09:34.000Z</time>
      </trkpt>
      <trkpt lat="47.50052" lon="6.73559">
        <ele>346</ele>
        <time>2016-03-20T11:09:35.000Z</time>
      </trkpt>
      <trkpt lat="47.50051" lon="6.73567">
        <ele>346</ele>
        <time>2016-03-20T11:09:36.000Z</time>
      </trkpt>
      <trkpt lat="47.50051" lon="6.73574">
        <ele>346</ele>
        <time>2016-03-20T11:09:37.000Z</time>
      </trkpt>
      <trkpt lat="47.5005" lon="6.7358">
        <ele>346</ele>
        <time>2016-03-20T11:09:38.000Z</time>
      </trkpt>
      <trkpt lat="47.50049" lon="6.73586">
        <ele>347</ele>
        <time>2016-03-20T11:09:39.000Z</time>
      </trkpt>
      <trkpt lat="47.5005" lon="6.73592">
        <ele>347</ele>
        <time>2016-03-20T11:09:40.000Z</time>
      </trkpt>
      <trkpt lat="47.5005" lon="6.73598">
        <ele>347</ele>
        <time>2016-03-20T11:09:41.000Z</time>
      </trkpt>
      <trkpt lat="47.5005" lon="6.73604">
        <ele>347</ele>
        <time>2016-03-20T11:09:42.000Z</time>
      </trkpt>
      <trkpt lat="47.5005" lon="6.73609">
        <ele>348</ele>
        <time>2016-03-20T11:09:43.000Z</time>
      </trkpt>
      <trkpt lat="47.5005" lon="6.73615">
        <ele>348</ele>
        <time>2016-03-20T11:09:44.000Z</time>
      </trkpt>
      <trkpt lat="47.5005" lon="6.7362">
        <ele>348</ele>
        <time>2016-03-20T11:09:45.000Z</time>
      </trkpt>
      <trkpt lat="47.5005" lon="6.73625">
        <ele>348</ele>
        <time>2016-03-20T11:09:46.000Z</time>
      </trkpt>
      <trkpt lat="47.50049" lon="6.73629">
        <ele>348</ele>
        <time>2016-03-20T11:09:47.000Z</time>
      </trkpt>
      <trkpt lat="47.50049" lon="6.73633">
        <ele>348</ele>
        <time>2016-03-20T11:09:48.000Z</time>
      </trkpt>
      <trkpt lat="47.50049" lon="6.73637">
        <ele>348</ele>
        <time>2016-03-20T11:09:49.001Z</time>
      </trkpt>
      <trkpt lat="47.50049" lon="6.73642">
        <ele>348</ele>
        <time>2016-03-20T11:09:50.000Z</time>
      </trkpt>
      <trkpt lat="47.50049" lon="6.73647">
        <ele>348</ele>
        <time>2016-03-20T11:09:51.000Z</time>
      </trkpt>
      <trkpt lat="47.50049" lon="6.73651">
        <ele>348</ele>
        <time>2016-03-20T11:09:52.001Z</time>
      </trkpt>
      <trkpt lat="47.50049" lon="6.73657">
        <ele>348</ele>
        <time>2016-03-20T11:09:53.000Z</time>
      </trkpt>
      <trkpt lat="47.50049" lon="6.73662">
        <ele>349</ele>
        <time>2016-03-20T11:09:54.000Z</time>
      </trkpt>
      <trkpt lat="47.50049" lon="6.73668">
        <ele>350</ele>
        <time>2016-03-20T11:09:55.000Z</time>
      </trkpt>
      <trkpt lat="47.50049" lon="6.73673">
        <ele>350</ele>
        <time>2016-03-20T11:09:56.000Z</time>
      </trkpt>
      <trkpt lat="47.50049" lon="6.73678">
        <ele>350</ele>
        <time>2016-03-20T11:09:57.000Z</time>
      </trkpt>
      <trkpt lat="47.50049" lon="6.73684">
        <ele>350</ele>
        <time>2016-03-20T11:09:58.000Z</time>
      </trkpt>
      <trkpt lat="47.50049" lon="6.73689">
        <ele>350</ele>
        <time>2016-03-20T11:09:59.000Z</time>
      </trkpt>
      <trkpt lat="47.50049" lon="6.73694">
        <ele>350</ele>
        <time>2016-03-20T11:10:00.000Z</time>
      </trkpt>
      <trkpt lat="47.50049" lon="6.737">
        <ele>350</ele>
        <time>2016-03-20T11:10:01.000Z</time>
      </trkpt>
      <trkpt lat="47.50049" lon="6.73705">
        <ele>350</ele>
        <time>2016-03-20T11:10:02.000Z</time>
      </trkpt>
      <trkpt lat="47.50049" lon="6.73711">
        <ele>350</ele>
        <time>2016-03-20T11:10:03.000Z</time>
      </trkpt>
      <trkpt lat="47.50049" lon="6.73716">
        <ele>350</ele>
        <time>2016-03-20T11:10:04.000Z</time>
      </trkpt>
      <trkpt lat="47.50049" lon="6.73722">
        <ele>350</ele>
        <time>2016-03-20T11:10:05.000Z</time>
      </trkpt>
      <trkpt lat="47.50048" lon="6.73727">
        <ele>350</ele>
        <time>2016-03-20T11:10:06.000Z</time>
      </trkpt>
      <trkpt lat="47.50048" lon="6.73733">
        <ele>351</ele>
        <time>2016-03-20T11:10:07.000Z</time>
      </trkpt>
      <trkpt lat="47.50049" lon="6.73738">
        <ele>351</ele>
        <time>2016-03-20T11:10:08.000Z</time>
      </trkpt>
      <trkpt lat="47.50049" lon="6.73744">
        <ele>351</ele>
        <time>2016-03-20T11:10:09.000Z</time>
      </trkpt>
      <trkpt lat="47.5005" lon="6.7375">
        <ele>351</ele>
        <time>2016-03-20T11:10:10.000Z</time>
      </trkpt>
      <trkpt lat="47.5005" lon="6.73756">
        <ele>352</ele>
        <time>2016-03-20T11:10:11.000Z</time>
      </trkpt>
      <trkpt lat="47.50051" lon="6.73762">
        <ele>352</ele>
        <time>2016-03-20T11:10:12.000Z</time>
      </trkpt>
      <trkpt lat="47.50051" lon="6.73767">
        <ele>352</ele>
        <time>2016-03-20T11:10:13.000Z</time>
      </trkpt>
      <trkpt lat="47.50052" lon="6.73772">
        <ele>352</ele>
        <time>2016-03-20T11:10:14.000Z</time>
      </trkpt>
      <trkpt lat="47.50052" lon="6.73778">
        <ele>352</ele>
        <time>2016-03-20T11:10:15.000Z</time>
      </trkpt>
      <trkpt lat="47.50052" lon="6.73783">
        <ele>352</ele>
        <time>2016-03-20T11:10:16.000Z</time>
      </trkpt>
      <trkpt lat="47.50053" lon="6.73789">
        <ele>352</ele>
        <time>2016-03-20T11:10:17.000Z</time>
      </trkpt>
      <trkpt lat="47.50054" lon="6.73796">
        <ele>352</ele>
        <time>2016-03-20T11:10:18.000Z</time>
      </trkpt>
      <trkpt lat="47.50055" lon="6.73802">
        <ele>352</ele>
        <time>2016-03-20T11:10:19.000Z</time>
      </trkpt>
      <trkpt lat="47.50056" lon="6.73808">
        <ele>353</ele>
        <time>2016-03-20T11:10:20.000Z</time>
      </trkpt>
      <trkpt lat="47.50057" lon="6.73813">
        <ele>353</ele>
        <time>2016-03-20T11:10:21.000Z</time>
      </trkpt>
      <trkpt lat="47.50058" lon="6.73818">
        <ele>353</ele>
        <time>2016-03-20T11:10:22.000Z</time>
      </trkpt>
      <trkpt lat="47.50059" lon="6.73822">
        <ele>353</ele>
        <time>2016-03-20T11:10:23.000Z</time>
      </trkpt>
      <trkpt lat="47.5006" lon="6.73826">
        <ele>354</ele>
        <time>2016-03-20T11:10:24.000Z</time>
      </trkpt>
      <trkpt lat="47.50061" lon="6.7383">
        <ele>354</ele>
        <time>2016-03-20T11:10:25.000Z</time>
      </trkpt>
      <trkpt lat="47.50062" lon="6.73834">
        <ele>354</ele>
        <time>2016-03-20T11:10:26.000Z</time>
      </trkpt>
      <trkpt lat="47.50064" lon="6.7384">
        <ele>354</ele>
        <time>2016-03-20T11:10:27.000Z</time>
      </trkpt>
      <trkpt lat="47.50064" lon="6.73845">
        <ele>354</ele>
        <time>2016-03-20T11:10:28.000Z</time>
      </trkpt>
      <trkpt lat="47.50065" lon="6.73851">
        <ele>354</ele>
        <time>2016-03-20T11:10:29.000Z</time>
      </trkpt>
      <trkpt lat="47.50067" lon="6.73856">
        <ele>354</ele>
        <time>2016-03-20T11:10:30.000Z</time>
      </trkpt>
      <trkpt lat="47.50067" lon="6.73861">
        <ele>354</ele>
        <time>2016-03-20T11:10:31.000Z</time>
      </trkpt>
      <trkpt lat="47.50068" lon="6.73867">
        <ele>354</ele>
        <time>2016-03-20T11:10:32.000Z</time>
      </trkpt>
      <trkpt lat="47.50069" lon="6.73873">
        <ele>353</ele>
        <time>2016-03-20T11:10:33.000Z</time>
      </trkpt>
      <trkpt lat="47.5007" lon="6.73879">
        <ele>353</ele>
        <time>2016-03-20T11:10:34.000Z</time>
      </trkpt>
      <trkpt lat="47.5007" lon="6.73885">
        <ele>354</ele>
        <time>2016-03-20T11:10:35.000Z</time>
      </trkpt>
      <trkpt lat="47.50072" lon="6.73894">
        <ele>354</ele>
        <time>2016-03-20T11:10:36.000Z</time>
      </trkpt>
      <trkpt lat="47.50073" lon="6.73899">
        <ele>354</ele>
        <time>2016-03-20T11:10:37.000Z</time>
      </trkpt>
      <trkpt lat="47.50073" lon="6.73905">
        <ele>354</ele>
        <time>2016-03-20T11:10:38.000Z</time>
      </trkpt>
      <trkpt lat="47.50073" lon="6.73911">
        <ele>355</ele>
        <time>2016-03-20T11:10:39.000Z</time>
      </trkpt>
      <trkpt lat="47.50074" lon="6.73916">
        <ele>355</ele>
        <time>2016-03-20T11:10:40.000Z</time>
      </trkpt>
      <trkpt lat="47.50074" lon="6.73921">
        <ele>355</ele>
        <time>2016-03-20T11:10:41.000Z</time>
      </trkpt>
      <trkpt lat="47.50074" lon="6.73928">
        <ele>355</ele>
        <time>2016-03-20T11:10:42.000Z</time>
      </trkpt>
      <trkpt lat="47.50075" lon="6.73933">
        <ele>355</ele>
        <time>2016-03-20T11:10:43.000Z</time>
      </trkpt>
      <trkpt lat="47.50075" lon="6.73936">
        <ele>355</ele>
        <time>2016-03-20T11:10:44.000Z</time>
      </trkpt>
      <trkpt lat="47.50075" lon="6.73939">
        <ele>355</ele>
        <time>2016-03-20T11:10:45.000Z</time>
      </trkpt>
      <trkpt lat="47.50075" lon="6.73943">
        <ele>355</ele>
        <time>2016-03-20T11:10:46.000Z</time>
      </trkpt>
      <trkpt lat="47.50076" lon="6.73946">
        <ele>355</ele>
        <time>2016-03-20T11:10:47.000Z</time>
      </trkpt>
      <trkpt lat="47.50077" lon="6.73949">
        <ele>355</ele>
        <time>2016-03-20T11:10:48.000Z</time>
      </trkpt>
      <trkpt lat="47.50078" lon="6.73953">
        <ele>355</ele>
        <time>2016-03-20T11:10:49.000Z</time>
      </trkpt>
      <trkpt lat="47.50078" lon="6.73958">
        <ele>355</ele>
        <time>2016-03-20T11:10:50.000Z</time>
      </trkpt>
      <trkpt lat="47.50079" lon="6.73962">
        <ele>355</ele>
        <time>2016-03-20T11:10:51.000Z</time>
      </trkpt>
      <trkpt lat="47.5008" lon="6.73966">
        <ele>355</ele>
        <time>2016-03-20T11:10:52.000Z</time>
      </trkpt>
      <trkpt lat="47.50081" lon="6.73971">
        <ele>355</ele>
        <time>2016-03-20T11:10:53.000Z</time>
      </trkpt>
      <trkpt lat="47.50083" lon="6.73975">
        <ele>355</ele>
        <time>2016-03-20T11:10:54.000Z</time>
      </trkpt>
      <trkpt lat="47.50084" lon="6.73981">
        <ele>361</ele>
        <time>2016-03-20T11:10:56.000Z</time>
      </trkpt>
      <trkpt lat="47.50085" lon="6.73984">
        <ele>361</ele>
        <time>2016-03-20T11:10:57.000Z</time>
      </trkpt>
      <trkpt lat="47.50087" lon="6.73987">
        <ele>360</ele>
        <time>2016-03-20T11:10:58.000Z</time>
      </trkpt>
      <trkpt lat="47.50088" lon="6.73991">
        <ele>360</ele>
        <time>2016-03-20T11:10:59.000Z</time>
      </trkpt>
      <trkpt lat="47.50089" lon="6.73996">
        <ele>359</ele>
        <time>2016-03-20T11:11:00.000Z</time>
      </trkpt>
      <trkpt lat="47.5009" lon="6.74001">
        <ele>360</ele>
        <time>2016-03-20T11:11:01.000Z</time>
      </trkpt>
      <trkpt lat="47.50091" lon="6.74005">
        <ele>360</ele>
        <time>2016-03-20T11:11:02.000Z</time>
      </trkpt>
      <trkpt lat="47.50092" lon="6.74009">
        <ele>361</ele>
        <time>2016-03-20T11:11:03.000Z</time>
      </trkpt>
      <trkpt lat="47.50092" lon="6.74012">
        <ele>362</ele>
        <time>2016-03-20T11:11:04.000Z</time>
      </trkpt>
      <trkpt lat="47.50093" lon="6.74016">
        <ele>363</ele>
        <time>2016-03-20T11:11:05.000Z</time>
      </trkpt>
      <trkpt lat="47.50094" lon="6.7402">
        <ele>363</ele>
        <time>2016-03-20T11:11:06.000Z</time>
      </trkpt>
      <trkpt lat="47.50094" lon="6.74024">
        <ele>364</ele>
        <time>2016-03-20T11:11:07.000Z</time>
      </trkpt>
      <trkpt lat="47.50094" lon="6.74028">
        <ele>365</ele>
        <time>2016-03-20T11:11:08.000Z</time>
      </trkpt>
      <trkpt lat="47.50095" lon="6.74031">
        <ele>365</ele>
        <time>2016-03-20T11:11:09.000Z</time>
      </trkpt>
      <trkpt lat="47.50097" lon="6.74034">
        <ele>365</ele>
        <time>2016-03-20T11:11:11.000Z</time>
      </trkpt>
      <trkpt lat="47.50098" lon="6.74037">
        <ele>366</ele>
        <time>2016-03-20T11:11:12.000Z</time>
      </trkpt>
      <trkpt lat="47.50099" lon="6.74039">
        <ele>366</ele>
        <time>2016-03-20T11:11:13.000Z</time>
      </trkpt>
      <trkpt lat="47.501" lon="6.74043">
        <ele>366</ele>
        <time>2016-03-20T11:11:14.000Z</time>
      </trkpt>
      <trkpt lat="47.50101" lon="6.74047">
        <ele>367</ele>
        <time>2016-03-20T11:11:15.000Z</time>
      </trkpt>
      <trkpt lat="47.50101" lon="6.74051">
        <ele>367</ele>
        <time>2016-03-20T11:11:16.000Z</time>
      </trkpt>
      <trkpt lat="47.50102" lon="6.74055">
        <ele>367</ele>
        <time>2016-03-20T11:11:17.000Z</time>
      </trkpt>
      <trkpt lat="47.50103" lon="6.74059">
        <ele>367</ele>
        <time>2016-03-20T11:11:18.000Z</time>
      </trkpt>
      <trkpt lat="47.50103" lon="6.74063">
        <ele>367</ele>
        <time>2016-03-20T11:11:19.000Z</time>
      </trkpt>
      <trkpt lat="47.50104" lon="6.74068">
        <ele>367</ele>
        <time>2016-03-20T11:11:20.000Z</time>
      </trkpt>
      <trkpt lat="47.50104" lon="6.74072">
        <ele>368</ele>
        <time>2016-03-20T11:11:21.000Z</time>
      </trkpt>
      <trkpt lat="47.50105" lon="6.74076">
        <ele>368</ele>
        <time>2016-03-20T11:11:22.000Z</time>
      </trkpt>
      <trkpt lat="47.50106" lon="6.74082">
        <ele>368</ele>
        <time>2016-03-20T11:11:24.000Z</time>
      </trkpt>
      <trkpt lat="47.50107" lon="6.74085">
        <ele>369</ele>
        <time>2016-03-20T11:11:25.000Z</time>
      </trkpt>
      <trkpt lat="47.50108" lon="6.74089">
        <ele>369</ele>
        <time>2016-03-20T11:11:26.000Z</time>
      </trkpt>
      <trkpt lat="47.50109" lon="6.74093">
        <ele>369</ele>
        <time>2016-03-20T11:11:27.000Z</time>
      </trkpt>
      <trkpt lat="47.5011" lon="6.74097">
        <ele>369</ele>
        <time>2016-03-20T11:11:28.000Z</time>
      </trkpt>
      <trkpt lat="47.50111" lon="6.74102">
        <ele>369</ele>
        <time>2016-03-20T11:11:29.000Z</time>
      </trkpt>
      <trkpt lat="47.50111" lon="6.74107">
        <ele>369</ele>
        <time>2016-03-20T11:11:30.000Z</time>
      </trkpt>
      <trkpt lat="47.50112" lon="6.74113">
        <ele>370</ele>
        <time>2016-03-20T11:11:31.000Z</time>
      </trkpt>
      <trkpt lat="47.50113" lon="6.74118">
        <ele>370</ele>
        <time>2016-03-20T11:11:32.000Z</time>
      </trkpt>
      <trkpt lat="47.50114" lon="6.74124">
        <ele>370</ele>
        <time>2016-03-20T11:11:33.000Z</time>
      </trkpt>
      <trkpt lat="47.50115" lon="6.74128">
        <ele>370</ele>
        <time>2016-03-20T11:11:34.000Z</time>
      </trkpt>
      <trkpt lat="47.50116" lon="6.74132">
        <ele>370</ele>
        <time>2016-03-20T11:11:35.000Z</time>
      </trkpt>
      <trkpt lat="47.50117" lon="6.74136">
        <ele>370</ele>
        <time>2016-03-20T11:11:36.000Z</time>
      </trkpt>
      <trkpt lat="47.50119" lon="6.7414">
        <ele>370</ele>
        <time>2016-03-20T11:11:37.000Z</time>
      </trkpt>
      <trkpt lat="47.50122" lon="6.74144">
        <ele>370</ele>
        <time>2016-03-20T11:11:38.000Z</time>
      </trkpt>
      <trkpt lat="47.50124" lon="6.7415">
        <ele>370</ele>
        <time>2016-03-20T11:11:39.000Z</time>
      </trkpt>
      <trkpt lat="47.50127" lon="6.74155">
        <ele>370</ele>
        <time>2016-03-20T11:11:40.000Z</time>
      </trkpt>
      <trkpt lat="47.50129" lon="6.74161">
        <ele>370</ele>
        <time>2016-03-20T11:11:41.000Z</time>
      </trkpt>
      <trkpt lat="47.50131" lon="6.74166">
        <ele>370</ele>
        <time>2016-03-20T11:11:42.000Z</time>
      </trkpt>
      <trkpt lat="47.50133" lon="6.74172">
        <ele>367</ele>
        <time>2016-03-20T11:11:43.000Z</time>
      </trkpt>
      <trkpt lat="47.50135" lon="6.74177">
        <ele>367</ele>
        <time>2016-03-20T11:11:44.000Z</time>
      </trkpt>
      <trkpt lat="47.50137" lon="6.74183">
        <ele>367</ele>
        <time>2016-03-20T11:11:45.000Z</time>
      </trkpt>
      <trkpt lat="47.50139" lon="6.74189">
        <ele>366</ele>
        <time>2016-03-20T11:11:46.000Z</time>
      </trkpt>
      <trkpt lat="47.50142" lon="6.74194">
        <ele>366</ele>
        <time>2016-03-20T11:11:47.000Z</time>
      </trkpt>
      <trkpt lat="47.50145" lon="6.742">
        <ele>366</ele>
        <time>2016-03-20T11:11:48.000Z</time>
      </trkpt>
      <trkpt lat="47.50148" lon="6.74206">
        <ele>366</ele>
        <time>2016-03-20T11:11:49.000Z</time>
      </trkpt>
      <trkpt lat="47.50152" lon="6.74212">
        <ele>365</ele>
        <time>2016-03-20T11:11:50.000Z</time>
      </trkpt>
      <trkpt lat="47.50164" lon="6.74222">
        <ele>365</ele>
        <time>2016-03-20T11:11:51.000Z</time>
      </trkpt>
      <trkpt lat="47.50169" lon="6.74228">
        <ele>368</ele>
        <time>2016-03-20T11:11:52.000Z</time>
      </trkpt>
      <trkpt lat="47.50173" lon="6.74235">
        <ele>367</ele>
        <time>2016-03-20T11:11:53.000Z</time>
      </trkpt>
      <trkpt lat="47.50177" lon="6.74242">
        <ele>366</ele>
        <time>2016-03-20T11:11:54.000Z</time>
      </trkpt>
      <trkpt lat="47.50179" lon="6.74248">
        <ele>366</ele>
        <time>2016-03-20T11:11:55.000Z</time>
      </trkpt>
      <trkpt lat="47.50184" lon="6.74255">
        <ele>363</ele>
        <time>2016-03-20T11:11:56.000Z</time>
      </trkpt>
      <trkpt lat="47.5019" lon="6.74262">
        <ele>364</ele>
        <time>2016-03-20T11:11:57.000Z</time>
      </trkpt>
      <trkpt lat="47.50195" lon="6.74269">
        <ele>364</ele>
        <time>2016-03-20T11:11:58.000Z</time>
      </trkpt>
      <trkpt lat="47.502" lon="6.74276">
        <ele>364</ele>
        <time>2016-03-20T11:11:59.000Z</time>
      </trkpt>
      <trkpt lat="47.50205" lon="6.74283">
        <ele>364</ele>
        <time>2016-03-20T11:12:00.000Z</time>
      </trkpt>
      <trkpt lat="47.50211" lon="6.74289">
        <ele>364</ele>
        <time>2016-03-20T11:12:01.000Z</time>
      </trkpt>
      <trkpt lat="47.50216" lon="6.74296">
        <ele>364</ele>
        <time>2016-03-20T11:12:02.000Z</time>
      </trkpt>
      <trkpt lat="47.50221" lon="6.74303">
        <ele>364</ele>
        <time>2016-03-20T11:12:03.000Z</time>
      </trkpt>
      <trkpt lat="47.50226" lon="6.7431">
        <ele>363</ele>
        <time>2016-03-20T11:12:04.000Z</time>
      </trkpt>
      <trkpt lat="47.50231" lon="6.74317">
        <ele>363</ele>
        <time>2016-03-20T11:12:05.000Z</time>
      </trkpt>
      <trkpt lat="47.50236" lon="6.74325">
        <ele>362</ele>
        <time>2016-03-20T11:12:06.000Z</time>
      </trkpt>
      <trkpt lat="47.5024" lon="6.74332">
        <ele>362</ele>
        <time>2016-03-20T11:12:07.000Z</time>
      </trkpt>
      <trkpt lat="47.50244" lon="6.74339">
        <ele>359</ele>
        <time>2016-03-20T11:12:07.999Z</time>
      </trkpt>
      <trkpt lat="47.50248" lon="6.74347">
        <ele>359</ele>
        <time>2016-03-20T11:12:09.000Z</time>
      </trkpt>
      <trkpt lat="47.50252" lon="6.74355">
        <ele>360</ele>
        <time>2016-03-20T11:12:10.000Z</time>
      </trkpt>
      <trkpt lat="47.50255" lon="6.74363">
        <ele>359</ele>
        <time>2016-03-20T11:12:11.000Z</time>
      </trkpt>
      <trkpt lat="47.50259" lon="6.74372">
        <ele>358</ele>
        <time>2016-03-20T11:12:12.000Z</time>
      </trkpt>
      <trkpt lat="47.50262" lon="6.7438">
        <ele>358</ele>
        <time>2016-03-20T11:12:13.000Z</time>
      </trkpt>
      <trkpt lat="47.50265" lon="6.74389">
        <ele>357</ele>
        <time>2016-03-20T11:12:14.000Z</time>
      </trkpt>
      <trkpt lat="47.50268" lon="6.74397">
        <ele>356</ele>
        <time>2016-03-20T11:12:15.000Z</time>
      </trkpt>
      <trkpt lat="47.50271" lon="6.74405">
        <ele>356</ele>
        <time>2016-03-20T11:12:16.000Z</time>
      </trkpt>
      <trkpt lat="47.50273" lon="6.74413">
        <ele>356</ele>
        <time>2016-03-20T11:12:17.000Z</time>
      </trkpt>
      <trkpt lat="47.50275" lon="6.74423">
        <ele>352</ele>
        <time>2016-03-20T11:12:18.000Z</time>
      </trkpt>
      <trkpt lat="47.50276" lon="6.74433">
        <ele>352</ele>
        <time>2016-03-20T11:12:19.000Z</time>
      </trkpt>
      <trkpt lat="47.50279" lon="6.74443">
        <ele>352</ele>
        <time>2016-03-20T11:12:20.000Z</time>
      </trkpt>
      <trkpt lat="47.50279" lon="6.74454">
        <ele>351</ele>
        <time>2016-03-20T11:12:21.000Z</time>
      </trkpt>
      <trkpt lat="47.50281" lon="6.74464">
        <ele>351</ele>
        <time>2016-03-20T11:12:22.000Z</time>
      </trkpt>
      <trkpt lat="47.50282" lon="6.74475">
        <ele>351</ele>
        <time>2016-03-20T11:12:23.000Z</time>
      </trkpt>
      <trkpt lat="47.50283" lon="6.74487">
        <ele>351</ele>
        <time>2016-03-20T11:12:24.000Z</time>
      </trkpt>
      <trkpt lat="47.50284" lon="6.74498">
        <ele>351</ele>
        <time>2016-03-20T11:12:25.000Z</time>
      </trkpt>
      <trkpt lat="47.50284" lon="6.7451">
        <ele>349</ele>
        <time>2016-03-20T11:12:26.000Z</time>
      </trkpt>
      <trkpt lat="47.50284" lon="6.74521">
        <ele>349</ele>
        <time>2016-03-20T11:12:27.000Z</time>
      </trkpt>
      <trkpt lat="47.50284" lon="6.74533">
        <ele>348</ele>
        <time>2016-03-20T11:12:28.000Z</time>
      </trkpt>
      <trkpt lat="47.50283" lon="6.74544">
        <ele>348</ele>
        <time>2016-03-20T11:12:29.000Z</time>
      </trkpt>
      <trkpt lat="47.50283" lon="6.74555">
        <ele>348</ele>
        <time>2016-03-20T11:12:30.000Z</time>
      </trkpt>
      <trkpt lat="47.50282" lon="6.74566">
        <ele>348</ele>
        <time>2016-03-20T11:12:31.000Z</time>
      </trkpt>
      <trkpt lat="47.50282" lon="6.74578">
        <ele>347</ele>
        <time>2016-03-20T11:12:32.000Z</time>
      </trkpt>
      <trkpt lat="47.50281" lon="6.74589">
        <ele>345</ele>
        <time>2016-03-20T11:12:33.000Z</time>
      </trkpt>
      <trkpt lat="47.50281" lon="6.74601">
        <ele>345</ele>
        <time>2016-03-20T11:12:34.000Z</time>
      </trkpt>
      <trkpt lat="47.50281" lon="6.74612">
        <ele>345</ele>
        <time>2016-03-20T11:12:35.000Z</time>
      </trkpt>
      <trkpt lat="47.50281" lon="6.74624">
        <ele>345</ele>
        <time>2016-03-20T11:12:36.000Z</time>
      </trkpt>
      <trkpt lat="47.50282" lon="6.74636">
        <ele>345</ele>
        <time>2016-03-20T11:12:37.000Z</time>
      </trkpt>
      <trkpt lat="47.50282" lon="6.74648">
        <ele>344</ele>
        <time>2016-03-20T11:12:38.000Z</time>
      </trkpt>
      <trkpt lat="47.50282" lon="6.7466">
        <ele>344</ele>
        <time>2016-03-20T11:12:39.000Z</time>
      </trkpt>
      <trkpt lat="47.50282" lon="6.74671">
        <ele>343</ele>
        <time>2016-03-20T11:12:40.000Z</time>
      </trkpt>
      <trkpt lat="47.50281" lon="6.74682">
        <ele>343</ele>
        <time>2016-03-20T11:12:41.000Z</time>
      </trkpt>
      <trkpt lat="47.50281" lon="6.74693">
        <ele>343</ele>
        <time>2016-03-20T11:12:42.000Z</time>
      </trkpt>
      <trkpt lat="47.50281" lon="6.74705">
        <ele>342</ele>
        <time>2016-03-20T11:12:43.000Z</time>
      </trkpt>
      <trkpt lat="47.5028" lon="6.74716">
        <ele>342</ele>
        <time>2016-03-20T11:12:44.000Z</time>
      </trkpt>
      <trkpt lat="47.50277" lon="6.74727">
        <ele>342</ele>
        <time>2016-03-20T11:12:45.000Z</time>
      </trkpt>
      <trkpt lat="47.50275" lon="6.74738">
        <ele>341</ele>
        <time>2016-03-20T11:12:46.000Z</time>
      </trkpt>
      <trkpt lat="47.50273" lon="6.74749">
        <ele>341</ele>
        <time>2016-03-20T11:12:47.000Z</time>
      </trkpt>
      <trkpt lat="47.5027" lon="6.7476">
        <ele>340</ele>
        <time>2016-03-20T11:12:48.000Z</time>
      </trkpt>
      <trkpt lat="47.50267" lon="6.74771">
        <ele>340</ele>
        <time>2016-03-20T11:12:49.000Z</time>
      </trkpt>
      <trkpt lat="47.50264" lon="6.74781">
        <ele>340</ele>
        <time>2016-03-20T11:12:50.000Z</time>
      </trkpt>
      <trkpt lat="47.50261" lon="6.74791">
        <ele>340</ele>
        <time>2016-03-20T11:12:51.000Z</time>
      </trkpt>
      <trkpt lat="47.50258" lon="6.74803">
        <ele>340</ele>
        <time>2016-03-20T11:12:52.000Z</time>
      </trkpt>
      <trkpt lat="47.50255" lon="6.74813">
        <ele>339</ele>
        <time>2016-03-20T11:12:53.000Z</time>
      </trkpt>
      <trkpt lat="47.50252" lon="6.74825">
        <ele>338</ele>
        <time>2016-03-20T11:12:54.000Z</time>
      </trkpt>
      <trkpt lat="47.5025" lon="6.74836">
        <ele>336</ele>
        <time>2016-03-20T11:12:55.000Z</time>
      </trkpt>
      <trkpt lat="47.50247" lon="6.74845">
        <ele>336</ele>
        <time>2016-03-20T11:12:56.000Z</time>
      </trkpt>
      <trkpt lat="47.50244" lon="6.74855">
        <ele>336</ele>
        <time>2016-03-20T11:12:57.000Z</time>
      </trkpt>
      <trkpt lat="47.50243" lon="6.74867">
        <ele>336</ele>
        <time>2016-03-20T11:12:58.000Z</time>
      </trkpt>
      <trkpt lat="47.50242" lon="6.74878">
        <ele>336</ele>
        <time>2016-03-20T11:12:59.000Z</time>
      </trkpt>
      <trkpt lat="47.5024" lon="6.74888">
        <ele>336</ele>
        <time>2016-03-20T11:13:00.000Z</time>
      </trkpt>
      <trkpt lat="47.50239" lon="6.74899">
        <ele>336</ele>
        <time>2016-03-20T11:13:01.000Z</time>
      </trkpt>
      <trkpt lat="47.50237" lon="6.74907">
        <ele>336</ele>
        <time>2016-03-20T11:13:02.000Z</time>
      </trkpt>
      <trkpt lat="47.50235" lon="6.74919">
        <ele>336</ele>
        <time>2016-03-20T11:13:03.000Z</time>
      </trkpt>
      <trkpt lat="47.50234" lon="6.7493">
        <ele>336</ele>
        <time>2016-03-20T11:13:04.000Z</time>
      </trkpt>
      <trkpt lat="47.50231" lon="6.74939">
        <ele>336</ele>
        <time>2016-03-20T11:13:05.000Z</time>
      </trkpt>
      <trkpt lat="47.50229" lon="6.74949">
        <ele>336</ele>
        <time>2016-03-20T11:13:06.000Z</time>
      </trkpt>
      <trkpt lat="47.50219" lon="6.74953">
        <ele>336</ele>
        <time>2016-03-20T11:13:07.000Z</time>
      </trkpt>
      <trkpt lat="47.50214" lon="6.7496">
        <ele>336</ele>
        <time>2016-03-20T11:13:08.000Z</time>
      </trkpt>
      <trkpt lat="47.50207" lon="6.74965">
        <ele>336</ele>
        <time>2016-03-20T11:13:09.000Z</time>
      </trkpt>
      <trkpt lat="47.502" lon="6.74973">
        <ele>335</ele>
        <time>2016-03-20T11:13:10.000Z</time>
      </trkpt>
      <trkpt lat="47.50195" lon="6.74981">
        <ele>335</ele>
        <time>2016-03-20T11:13:11.000Z</time>
      </trkpt>
      <trkpt lat="47.50193" lon="6.7499">
        <ele>335</ele>
        <time>2016-03-20T11:13:12.000Z</time>
      </trkpt>
      <trkpt lat="47.5019" lon="6.74998">
        <ele>335</ele>
        <time>2016-03-20T11:13:13.000Z</time>
      </trkpt>
      <trkpt lat="47.50189" lon="6.75013">
        <ele>334</ele>
        <time>2016-03-20T11:13:14.000Z</time>
      </trkpt>
      <trkpt lat="47.50187" lon="6.75023">
        <ele>333</ele>
        <time>2016-03-20T11:13:15.000Z</time>
      </trkpt>
      <trkpt lat="47.50185" lon="6.75033">
        <ele>333</ele>
        <time>2016-03-20T11:13:16.000Z</time>
      </trkpt>
      <trkpt lat="47.50183" lon="6.75044">
        <ele>333</ele>
        <time>2016-03-20T11:13:17.000Z</time>
      </trkpt>
      <trkpt lat="47.50181" lon="6.75054">
        <ele>332</ele>
        <time>2016-03-20T11:13:18.000Z</time>
      </trkpt>
      <trkpt lat="47.5018" lon="6.75062">
        <ele>332</ele>
        <time>2016-03-20T11:13:19.000Z</time>
      </trkpt>
      <trkpt lat="47.5018" lon="6.75068">
        <ele>331</ele>
        <time>2016-03-20T11:13:20.000Z</time>
      </trkpt>
      <trkpt lat="47.50179" lon="6.75076">
        <ele>331</ele>
        <time>2016-03-20T11:13:21.000Z</time>
      </trkpt>
      <trkpt lat="47.50178" lon="6.75083">
        <ele>330</ele>
        <time>2016-03-20T11:13:22.000Z</time>
      </trkpt>
      <trkpt lat="47.50178" lon="6.75087">
        <ele>329</ele>
        <time>2016-03-20T11:13:23.000Z</time>
      </trkpt>
      <trkpt lat="47.50177" lon="6.75094">
        <ele>329</ele>
        <time>2016-03-20T11:13:24.000Z</time>
      </trkpt>
      <trkpt lat="47.50177" lon="6.75101">
        <ele>329</ele>
        <time>2016-03-20T11:13:25.000Z</time>
      </trkpt>
      <trkpt lat="47.50174" lon="6.75104">
        <ele>329</ele>
        <time>2016-03-20T11:13:26.000Z</time>
      </trkpt>
      <trkpt lat="47.50172" lon="6.75108">
        <ele>329</ele>
        <time>2016-03-20T11:13:27.000Z</time>
      </trkpt>
      <trkpt lat="47.50169" lon="6.75114">
        <ele>328</ele>
        <time>2016-03-20T11:13:28.000Z</time>
      </trkpt>
      <trkpt lat="47.50164" lon="6.7512">
        <ele>327</ele>
        <time>2016-03-20T11:13:29.000Z</time>
      </trkpt>
      <trkpt lat="47.50158" lon="6.75123">
        <ele>327</ele>
        <time>2016-03-20T11:13:30.000Z</time>
      </trkpt>
      <trkpt lat="47.50152" lon="6.75128">
        <ele>326</ele>
        <time>2016-03-20T11:13:31.000Z</time>
      </trkpt>
      <trkpt lat="47.5015" lon="6.75133">
        <ele>326</ele>
        <time>2016-03-20T11:13:32.000Z</time>
      </trkpt>
      <trkpt lat="47.50145" lon="6.75138">
        <ele>326</ele>
        <time>2016-03-20T11:13:33.000Z</time>
      </trkpt>
      <trkpt lat="47.5014" lon="6.75142">
        <ele>326</ele>
        <time>2016-03-20T11:13:34.000Z</time>
      </trkpt>
      <trkpt lat="47.50136" lon="6.75146">
        <ele>326</ele>
        <time>2016-03-20T11:13:35.000Z</time>
      </trkpt>
      <trkpt lat="47.50131" lon="6.7515">
        <ele>326</ele>
        <time>2016-03-20T11:13:36.000Z</time>
      </trkpt>
      <trkpt lat="47.50126" lon="6.75155">
        <ele>326</ele>
        <time>2016-03-20T11:13:37.000Z</time>
      </trkpt>
      <trkpt lat="47.50121" lon="6.75159">
        <ele>326</ele>
        <time>2016-03-20T11:13:38.000Z</time>
      </trkpt>
      <trkpt lat="47.50116" lon="6.75164">
        <ele>326</ele>
        <time>2016-03-20T11:13:39.000Z</time>
      </trkpt>
      <trkpt lat="47.50111" lon="6.75168">
        <ele>323</ele>
        <time>2016-03-20T11:13:40.000Z</time>
      </trkpt>
      <trkpt lat="47.50107" lon="6.75174">
        <ele>323</ele>
        <time>2016-03-20T11:13:41.000Z</time>
      </trkpt>
      <trkpt lat="47.50101" lon="6.75178">
        <ele>323</ele>
        <time>2016-03-20T11:13:42.000Z</time>
      </trkpt>
      <trkpt lat="47.50095" lon="6.7518">
        <ele>323</ele>
        <time>2016-03-20T11:13:43.000Z</time>
      </trkpt>
      <trkpt lat="47.5009" lon="6.75185">
        <ele>323</ele>
        <time>2016-03-20T11:13:44.000Z</time>
      </trkpt>
      <trkpt lat="47.50084" lon="6.75187">
        <ele>323</ele>
        <time>2016-03-20T11:13:45.000Z</time>
      </trkpt>
      <trkpt lat="47.50078" lon="6.75189">
        <ele>323</ele>
        <time>2016-03-20T11:13:46.000Z</time>
      </trkpt>
      <trkpt lat="47.50073" lon="6.75192">
        <ele>323</ele>
        <time>2016-03-20T11:13:47.000Z</time>
      </trkpt>
      <trkpt lat="47.50068" lon="6.75193">
        <ele>323</ele>
        <time>2016-03-20T11:13:48.000Z</time>
      </trkpt>
      <trkpt lat="47.50064" lon="6.75194">
        <ele>323</ele>
        <time>2016-03-20T11:13:49.000Z</time>
      </trkpt>
      <trkpt lat="47.50057" lon="6.75197">
        <ele>322</ele>
        <time>2016-03-20T11:13:50.000Z</time>
      </trkpt>
      <trkpt lat="47.50051" lon="6.75197">
        <ele>322</ele>
        <time>2016-03-20T11:13:51.000Z</time>
      </trkpt>
      <trkpt lat="47.50046" lon="6.75198">
        <ele>322</ele>
        <time>2016-03-20T11:13:52.000Z</time>
      </trkpt>
      <trkpt lat="47.5004" lon="6.75199">
        <ele>322</ele>
        <time>2016-03-20T11:13:53.000Z</time>
      </trkpt>
      <trkpt lat="47.50035" lon="6.752">
        <ele>322</ele>
        <time>2016-03-20T11:13:54.001Z</time>
      </trkpt>
      <trkpt lat="47.5003" lon="6.75205">
        <ele>322</ele>
        <time>2016-03-20T11:13:55.000Z</time>
      </trkpt>
      <trkpt lat="47.50024" lon="6.75209">
        <ele>322</ele>
        <time>2016-03-20T11:13:56.000Z</time>
      </trkpt>
      <trkpt lat="47.50018" lon="6.75213">
        <ele>322</ele>
        <time>2016-03-20T11:13:56.999Z</time>
      </trkpt>
      <trkpt lat="47.50015" lon="6.75217">
        <ele>322</ele>
        <time>2016-03-20T11:13:58.000Z</time>
      </trkpt>
      <trkpt lat="47.50011" lon="6.75224">
        <ele>322</ele>
        <time>2016-03-20T11:13:59.000Z</time>
      </trkpt>
      <trkpt lat="47.50006" lon="6.75229">
        <ele>322</ele>
        <time>2016-03-20T11:14:00.000Z</time>
      </trkpt>
      <trkpt lat="47.50002" lon="6.75235">
        <ele>322</ele>
        <time>2016-03-20T11:14:01.001Z</time>
      </trkpt>
      <trkpt lat="47.50005" lon="6.75244">
        <ele>321</ele>
        <time>2016-03-20T11:14:02.000Z</time>
      </trkpt>
      <trkpt lat="47.50003" lon="6.75251">
        <ele>321</ele>
        <time>2016-03-20T11:14:03.000Z</time>
      </trkpt>
      <trkpt lat="47.50002" lon="6.75261">
        <ele>321</ele>
        <time>2016-03-20T11:14:04.000Z</time>
      </trkpt>
      <trkpt lat="47.50002" lon="6.7527">
        <ele>322</ele>
        <time>2016-03-20T11:14:05.000Z</time>
      </trkpt>
      <trkpt lat="47.50003" lon="6.75284">
        <ele>322</ele>
        <time>2016-03-20T11:14:06.000Z</time>
      </trkpt>
      <trkpt lat="47.50004" lon="6.7529">
        <ele>322</ele>
        <time>2016-03-20T11:14:07.000Z</time>
      </trkpt>
      <trkpt lat="47.50003" lon="6.75296">
        <ele>322</ele>
        <time>2016-03-20T11:14:08.000Z</time>
      </trkpt>
      <trkpt lat="47.50004" lon="6.75302">
        <ele>322</ele>
        <time>2016-03-20T11:14:09.001Z</time>
      </trkpt>
      <trkpt lat="47.50004" lon="6.75307">
        <ele>322</ele>
        <time>2016-03-20T11:14:10.000Z</time>
      </trkpt>
      <trkpt lat="47.50005" lon="6.75313">
        <ele>323</ele>
        <time>2016-03-20T11:14:10.999Z</time>
      </trkpt>
      <trkpt lat="47.50005" lon="6.75321">
        <ele>323</ele>
        <time>2016-03-20T11:14:12.000Z</time>
      </trkpt>
      <trkpt lat="47.50006" lon="6.75327">
        <ele>323</ele>
        <time>2016-03-20T11:14:13.000Z</time>
      </trkpt>
      <trkpt lat="47.50005" lon="6.75335">
        <ele>324</ele>
        <time>2016-03-20T11:14:14.000Z</time>
      </trkpt>
      <trkpt lat="47.50005" lon="6.75342">
        <ele>325</ele>
        <time>2016-03-20T11:14:15.000Z</time>
      </trkpt>
      <trkpt lat="47.50005" lon="6.75349">
        <ele>326</ele>
        <time>2016-03-20T11:14:16.000Z</time>
      </trkpt>
      <trkpt lat="47.50006" lon="6.75354">
        <ele>326</ele>
        <time>2016-03-20T11:14:17.000Z</time>
      </trkpt>
      <trkpt lat="47.50006" lon="6.75361">
        <ele>327</ele>
        <time>2016-03-20T11:14:18.000Z</time>
      </trkpt>
      <trkpt lat="47.50005" lon="6.75367">
        <ele>327</ele>
        <time>2016-03-20T11:14:19.000Z</time>
      </trkpt>
      <trkpt lat="47.50003" lon="6.75371">
        <ele>328</ele>
        <time>2016-03-20T11:14:20.000Z</time>
      </trkpt>
      <trkpt lat="47.50001" lon="6.75376">
        <ele>328</ele>
        <time>2016-03-20T11:14:21.000Z</time>
      </trkpt>
      <trkpt lat="47.5" lon="6.75379">
        <ele>327</ele>
        <time>2016-03-20T11:14:22.000Z</time>
      </trkpt>
      <trkpt lat="47.49998" lon="6.75384">
        <ele>327</ele>
        <time>2016-03-20T11:14:23.000Z</time>
      </trkpt>
      <trkpt lat="47.49996" lon="6.75388">
        <ele>327</ele>
        <time>2016-03-20T11:14:24.000Z</time>
      </trkpt>
      <trkpt lat="47.49994" lon="6.75391">
        <ele>327</ele>
        <time>2016-03-20T11:14:25.000Z</time>
      </trkpt>
      <trkpt lat="47.49991" lon="6.75395">
        <ele>328</ele>
        <time>2016-03-20T11:14:26.000Z</time>
      </trkpt>
      <trkpt lat="47.49989" lon="6.75398">
        <ele>328</ele>
        <time>2016-03-20T11:14:27.000Z</time>
      </trkpt>
      <trkpt lat="47.49986" lon="6.75401">
        <ele>328</ele>
        <time>2016-03-20T11:14:28.000Z</time>
      </trkpt>
      <trkpt lat="47.49984" lon="6.75403">
        <ele>328</ele>
        <time>2016-03-20T11:14:29.000Z</time>
      </trkpt>
      <trkpt lat="47.49982" lon="6.75407">
        <ele>328</ele>
        <time>2016-03-20T11:14:30.001Z</time>
      </trkpt>
      <trkpt lat="47.49981" lon="6.75413">
        <ele>328</ele>
        <time>2016-03-20T11:14:31.000Z</time>
      </trkpt>
      <trkpt lat="47.49981" lon="6.75417">
        <ele>334</ele>
        <time>2016-03-20T11:14:32.000Z</time>
      </trkpt>
      <trkpt lat="47.49982" lon="6.75422">
        <ele>334</ele>
        <time>2016-03-20T11:14:33.000Z</time>
      </trkpt>
      <trkpt lat="47.49983" lon="6.75426">
        <ele>334</ele>
        <time>2016-03-20T11:14:34.000Z</time>
      </trkpt>
      <trkpt lat="47.49985" lon="6.75428">
        <ele>334</ele>
        <time>2016-03-20T11:14:35.000Z</time>
      </trkpt>
      <trkpt lat="47.49986" lon="6.75431">
        <ele>334</ele>
        <time>2016-03-20T11:14:36.000Z</time>
      </trkpt>
      <trkpt lat="47.49989" lon="6.75435">
        <ele>335</ele>
        <time>2016-03-20T11:14:38.000Z</time>
      </trkpt>
      <trkpt lat="47.49991" lon="6.75437">
        <ele>335</ele>
        <time>2016-03-20T11:14:39.000Z</time>
      </trkpt>
      <trkpt lat="47.49993" lon="6.75441">
        <ele>335</ele>
        <time>2016-03-20T11:14:41.000Z</time>
      </trkpt>
      <trkpt lat="47.49993" lon="6.75443">
        <ele>336</ele>
        <time>2016-03-20T11:14:42.000Z</time>
      </trkpt>
      <trkpt lat="47.49994" lon="6.75448">
        <ele>336</ele>
        <time>2016-03-20T11:14:46.000Z</time>
      </trkpt>
      <trkpt lat="47.49995" lon="6.7545">
        <ele>336</ele>
        <time>2016-03-20T11:14:47.000Z</time>
      </trkpt>
      <trkpt lat="47.49995" lon="6.75455">
        <ele>337</ele>
        <time>2016-03-20T11:14:49.000Z</time>
      </trkpt>
      <trkpt lat="47.49996" lon="6.75457">
        <ele>337</ele>
        <time>2016-03-20T11:14:50.000Z</time>
      </trkpt>
      <trkpt lat="47.49997" lon="6.75462">
        <ele>338</ele>
        <time>2016-03-20T11:14:52.000Z</time>
      </trkpt>
      <trkpt lat="47.49998" lon="6.75464">
        <ele>338</ele>
        <time>2016-03-20T11:14:53.000Z</time>
      </trkpt>
      <trkpt lat="47.50001" lon="6.75469">
        <ele>339</ele>
        <time>2016-03-20T11:14:56.000Z</time>
      </trkpt>
      <trkpt lat="47.50001" lon="6.75471">
        <ele>339</ele>
        <time>2016-03-20T11:14:57.000Z</time>
      </trkpt>
      <trkpt lat="47.50002" lon="6.75475">
        <ele>340</ele>
        <time>2016-03-20T11:14:59.000Z</time>
      </trkpt>
      <trkpt lat="47.50002" lon="6.75478">
        <ele>340</ele>
        <time>2016-03-20T11:15:00.000Z</time>
      </trkpt>
      <trkpt lat="47.50003" lon="6.75483">
        <ele>341</ele>
        <time>2016-03-20T11:15:02.000Z</time>
      </trkpt>
      <trkpt lat="47.50004" lon="6.75485">
        <ele>341</ele>
        <time>2016-03-20T11:15:03.000Z</time>
      </trkpt>
      <trkpt lat="47.50004" lon="6.7549">
        <ele>342</ele>
        <time>2016-03-20T11:15:05.000Z</time>
      </trkpt>
      <trkpt lat="47.50005" lon="6.75493">
        <ele>342</ele>
        <time>2016-03-20T11:15:06.000Z</time>
      </trkpt>
      <trkpt lat="47.50005" lon="6.75497">
        <ele>343</ele>
        <time>2016-03-20T11:15:07.000Z</time>
      </trkpt>
      <trkpt lat="47.50005" lon="6.75501">
        <ele>344</ele>
        <time>2016-03-20T11:15:08.000Z</time>
      </trkpt>
      <trkpt lat="47.50006" lon="6.75507">
        <ele>344</ele>
        <time>2016-03-20T11:15:10.000Z</time>
      </trkpt>
      <trkpt lat="47.50007" lon="6.75509">
        <ele>345</ele>
        <time>2016-03-20T11:15:11.000Z</time>
      </trkpt>
      <trkpt lat="47.50008" lon="6.75515">
        <ele>345</ele>
        <time>2016-03-20T11:15:15.000Z</time>
      </trkpt>
      <trkpt lat="47.50009" lon="6.75517">
        <ele>345</ele>
        <time>2016-03-20T11:15:16.000Z</time>
      </trkpt>
      <trkpt lat="47.50009" lon="6.7552">
        <ele>345</ele>
        <time>2016-03-20T11:15:17.000Z</time>
      </trkpt>
      <trkpt lat="47.5001" lon="6.75524">
        <ele>345</ele>
        <time>2016-03-20T11:15:18.000Z</time>
      </trkpt>
      <trkpt lat="47.5001" lon="6.75529">
        <ele>346</ele>
        <time>2016-03-20T11:15:19.000Z</time>
      </trkpt>
      <trkpt lat="47.5001" lon="6.75532">
        <ele>346</ele>
        <time>2016-03-20T11:15:20.000Z</time>
      </trkpt>
      <trkpt lat="47.50011" lon="6.75538">
        <ele>346</ele>
        <time>2016-03-20T11:15:22.000Z</time>
      </trkpt>
      <trkpt lat="47.50011" lon="6.75541">
        <ele>346</ele>
        <time>2016-03-20T11:15:23.000Z</time>
      </trkpt>
      <trkpt lat="47.50013" lon="6.75546">
        <ele>347</ele>
        <time>2016-03-20T11:15:25.000Z</time>
      </trkpt>
      <trkpt lat="47.50013" lon="6.75547">
        <ele>347</ele>
        <time>2016-03-20T11:15:26.000Z</time>
      </trkpt>
      <trkpt lat="47.50015" lon="6.75551">
        <ele>347</ele>
        <time>2016-03-20T11:15:28.000Z</time>
      </trkpt>
      <trkpt lat="47.50016" lon="6.75554">
        <ele>347</ele>
        <time>2016-03-20T11:15:29.000Z</time>
      </trkpt>
      <trkpt lat="47.50017" lon="6.75558">
        <ele>347</ele>
        <time>2016-03-20T11:15:30.000Z</time>
      </trkpt>
      <trkpt lat="47.50018" lon="6.75561">
        <ele>347</ele>
        <time>2016-03-20T11:15:31.000Z</time>
      </trkpt>
      <trkpt lat="47.50019" lon="6.75565">
        <ele>348</ele>
        <time>2016-03-20T11:15:32.000Z</time>
      </trkpt>
      <trkpt lat="47.50019" lon="6.75568">
        <ele>348</ele>
        <time>2016-03-20T11:15:33.000Z</time>
      </trkpt>
      <trkpt lat="47.5002" lon="6.75574">
        <ele>348</ele>
        <time>2016-03-20T11:15:35.000Z</time>
      </trkpt>
      <trkpt lat="47.50021" lon="6.75577">
        <ele>348</ele>
        <time>2016-03-20T11:15:36.000Z</time>
      </trkpt>
      <trkpt lat="47.50023" lon="6.75582">
        <ele>348</ele>
        <time>2016-03-20T11:15:38.000Z</time>
      </trkpt>
      <trkpt lat="47.50024" lon="6.75586">
        <ele>353</ele>
        <time>2016-03-20T11:15:39.000Z</time>
      </trkpt>
      <trkpt lat="47.50026" lon="6.75589">
        <ele>353</ele>
        <time>2016-03-20T11:15:40.000Z</time>
      </trkpt>
      <trkpt lat="47.50028" lon="6.75592">
        <ele>353</ele>
        <time>2016-03-20T11:15:41.000Z</time>
      </trkpt>
      <trkpt lat="47.5003" lon="6.75595">
        <ele>353</ele>
        <time>2016-03-20T11:15:42.002Z</time>
      </trkpt>
      <trkpt lat="47.50031" lon="6.75599">
        <ele>353</ele>
        <time>2016-03-20T11:15:43.000Z</time>
      </trkpt>
      <trkpt lat="47.50032" lon="6.75606">
        <ele>353</ele>
        <time>2016-03-20T11:15:45.000Z</time>
      </trkpt>
      <trkpt lat="47.50032" lon="6.75608">
        <ele>354</ele>
        <time>2016-03-20T11:15:46.000Z</time>
      </trkpt>
      <trkpt lat="47.50032" lon="6.75612">
        <ele>354</ele>
        <time>2016-03-20T11:15:48.000Z</time>
      </trkpt>
      <trkpt lat="47.50033" lon="6.75615">
        <ele>354</ele>
        <time>2016-03-20T11:15:49.000Z</time>
      </trkpt>
      <trkpt lat="47.50034" lon="6.7562">
        <ele>354</ele>
        <time>2016-03-20T11:15:51.000Z</time>
      </trkpt>
      <trkpt lat="47.50035" lon="6.75623">
        <ele>354</ele>
        <time>2016-03-20T11:15:52.000Z</time>
      </trkpt>
      <trkpt lat="47.50037" lon="6.75627">
        <ele>354</ele>
        <time>2016-03-20T11:15:54.000Z</time>
      </trkpt>
      <trkpt lat="47.50038" lon="6.75629">
        <ele>355</ele>
        <time>2016-03-20T11:15:55.000Z</time>
      </trkpt>
      <trkpt lat="47.5004" lon="6.75634">
        <ele>355</ele>
        <time>2016-03-20T11:15:57.000Z</time>
      </trkpt>
      <trkpt lat="47.50041" lon="6.75636">
        <ele>355</ele>
        <time>2016-03-20T11:15:58.000Z</time>
      </trkpt>
      <trkpt lat="47.50042" lon="6.75641">
        <ele>355</ele>
        <time>2016-03-20T11:16:00.000Z</time>
      </trkpt>
      <trkpt lat="47.50043" lon="6.75643">
        <ele>355</ele>
        <time>2016-03-20T11:16:01.000Z</time>
      </trkpt>
      <trkpt lat="47.50046" lon="6.75647">
        <ele>355</ele>
        <time>2016-03-20T11:16:03.000Z</time>
      </trkpt>
      <trkpt lat="47.50047" lon="6.75649">
        <ele>355</ele>
        <time>2016-03-20T11:16:04.000Z</time>
      </trkpt>
      <trkpt lat="47.50049" lon="6.75652">
        <ele>355</ele>
        <time>2016-03-20T11:16:05.000Z</time>
      </trkpt>
      <trkpt lat="47.5005" lon="6.75655">
        <ele>355</ele>
        <time>2016-03-20T11:16:06.000Z</time>
      </trkpt>
      <trkpt lat="47.50052" lon="6.75658">
        <ele>355</ele>
        <time>2016-03-20T11:16:07.000Z</time>
      </trkpt>
      <trkpt lat="47.50053" lon="6.75661">
        <ele>355</ele>
        <time>2016-03-20T11:16:08.000Z</time>
      </trkpt>
      <trkpt lat="47.50054" lon="6.75664">
        <ele>355</ele>
        <time>2016-03-20T11:16:09.000Z</time>
      </trkpt>
      <trkpt lat="47.50056" lon="6.75667">
        <ele>362</ele>
        <time>2016-03-20T11:16:10.000Z</time>
      </trkpt>
      <trkpt lat="47.50057" lon="6.7567">
        <ele>361</ele>
        <time>2016-03-20T11:16:11.000Z</time>
      </trkpt>
      <trkpt lat="47.50058" lon="6.75673">
        <ele>361</ele>
        <time>2016-03-20T11:16:12.000Z</time>
      </trkpt>
      <trkpt lat="47.5006" lon="6.75677">
        <ele>361</ele>
        <time>2016-03-20T11:16:14.000Z</time>
      </trkpt>
      <trkpt lat="47.50062" lon="6.75679">
        <ele>361</ele>
        <time>2016-03-20T11:16:15.000Z</time>
      </trkpt>
      <trkpt lat="47.50063" lon="6.75682">
        <ele>361</ele>
        <time>2016-03-20T11:16:16.000Z</time>
      </trkpt>
      <trkpt lat="47.50064" lon="6.75685">
        <ele>362</ele>
        <time>2016-03-20T11:16:17.000Z</time>
      </trkpt>
      <trkpt lat="47.50066" lon="6.75688">
        <ele>362</ele>
        <time>2016-03-20T11:16:18.000Z</time>
      </trkpt>
      <trkpt lat="47.50068" lon="6.7569">
        <ele>362</ele>
        <time>2016-03-20T11:16:19.000Z</time>
      </trkpt>
      <trkpt lat="47.5007" lon="6.75693">
        <ele>362</ele>
        <time>2016-03-20T11:16:20.000Z</time>
      </trkpt>
      <trkpt lat="47.50072" lon="6.75696">
        <ele>362</ele>
        <time>2016-03-20T11:16:21.000Z</time>
      </trkpt>
      <trkpt lat="47.50074" lon="6.75698">
        <ele>363</ele>
        <time>2016-03-20T11:16:22.000Z</time>
      </trkpt>
      <trkpt lat="47.50076" lon="6.75701">
        <ele>363</ele>
        <time>2016-03-20T11:16:23.000Z</time>
      </trkpt>
      <trkpt lat="47.50079" lon="6.75705">
        <ele>363</ele>
        <time>2016-03-20T11:16:25.000Z</time>
      </trkpt>
      <trkpt lat="47.50081" lon="6.75707">
        <ele>364</ele>
        <time>2016-03-20T11:16:26.000Z</time>
      </trkpt>
      <trkpt lat="47.50083" lon="6.75709">
        <ele>364</ele>
        <time>2016-03-20T11:16:27.000Z</time>
      </trkpt>
      <trkpt lat="47.50084" lon="6.75711">
        <ele>360</ele>
        <time>2016-03-20T11:16:28.000Z</time>
      </trkpt>
      <trkpt lat="47.50087" lon="6.75715">
        <ele>360</ele>
        <time>2016-03-20T11:16:30.000Z</time>
      </trkpt>
      <trkpt lat="47.50089" lon="6.75717">
        <ele>360</ele>
        <time>2016-03-20T11:16:31.000Z</time>
      </trkpt>
      <trkpt lat="47.50092" lon="6.75719">
        <ele>361</ele>
        <time>2016-03-20T11:16:33.000Z</time>
      </trkpt>
      <trkpt lat="47.50094" lon="6.75721">
        <ele>361</ele>
        <time>2016-03-20T11:16:34.000Z</time>
      </trkpt>
      <trkpt lat="47.50096" lon="6.75722">
        <ele>361</ele>
        <time>2016-03-20T11:16:35.000Z</time>
      </trkpt>
      <trkpt lat="47.50098" lon="6.75725">
        <ele>361</ele>
        <time>2016-03-20T11:16:36.000Z</time>
      </trkpt>
      <trkpt lat="47.501" lon="6.75728">
        <ele>361</ele>
        <time>2016-03-20T11:16:37.000Z</time>
      </trkpt>
      <trkpt lat="47.50102" lon="6.75732">
        <ele>362</ele>
        <time>2016-03-20T11:16:38.000Z</time>
      </trkpt>
      <trkpt lat="47.50104" lon="6.75736">
        <ele>362</ele>
        <time>2016-03-20T11:16:39.000Z</time>
      </trkpt>
      <trkpt lat="47.50106" lon="6.75739">
        <ele>362</ele>
        <time>2016-03-20T11:16:40.000Z</time>
      </trkpt>
      <trkpt lat="47.50108" lon="6.75743">
        <ele>362</ele>
        <time>2016-03-20T11:16:41.000Z</time>
      </trkpt>
      <trkpt lat="47.5011" lon="6.75746">
        <ele>362</ele>
        <time>2016-03-20T11:16:42.000Z</time>
      </trkpt>
      <trkpt lat="47.50112" lon="6.75748">
        <ele>362</ele>
        <time>2016-03-20T11:16:43.000Z</time>
      </trkpt>
      <trkpt lat="47.50113" lon="6.75751">
        <ele>365</ele>
        <time>2016-03-20T11:16:44.000Z</time>
      </trkpt>
      <trkpt lat="47.50115" lon="6.75754">
        <ele>364</ele>
        <time>2016-03-20T11:16:45.000Z</time>
      </trkpt>
      <trkpt lat="47.50117" lon="6.75757">
        <ele>364</ele>
        <time>2016-03-20T11:16:46.000Z</time>
      </trkpt>
      <trkpt lat="47.50119" lon="6.7576">
        <ele>364</ele>
        <time>2016-03-20T11:16:47.000Z</time>
      </trkpt>
      <trkpt lat="47.50122" lon="6.75764">
        <ele>364</ele>
        <time>2016-03-20T11:16:48.000Z</time>
      </trkpt>
      <trkpt lat="47.50124" lon="6.75767">
        <ele>364</ele>
        <time>2016-03-20T11:16:49.000Z</time>
      </trkpt>
      <trkpt lat="47.50126" lon="6.7577">
        <ele>364</ele>
        <time>2016-03-20T11:16:50.000Z</time>
      </trkpt>
      <trkpt lat="47.50128" lon="6.75772">
        <ele>364</ele>
        <time>2016-03-20T11:16:51.000Z</time>
      </trkpt>
      <trkpt lat="47.50129" lon="6.75775">
        <ele>364</ele>
        <time>2016-03-20T11:16:52.000Z</time>
      </trkpt>
      <trkpt lat="47.50131" lon="6.75778">
        <ele>364</ele>
        <time>2016-03-20T11:16:53.000Z</time>
      </trkpt>
      <trkpt lat="47.50132" lon="6.75781">
        <ele>364</ele>
        <time>2016-03-20T11:16:54.000Z</time>
      </trkpt>
      <trkpt lat="47.50134" lon="6.75783">
        <ele>363</ele>
        <time>2016-03-20T11:16:55.000Z</time>
      </trkpt>
      <trkpt lat="47.50135" lon="6.75786">
        <ele>363</ele>
        <time>2016-03-20T11:16:56.000Z</time>
      </trkpt>
      <trkpt lat="47.50138" lon="6.75791">
        <ele>363</ele>
        <time>2016-03-20T11:16:58.000Z</time>
      </trkpt>
      <trkpt lat="47.5014" lon="6.75793">
        <ele>363</ele>
        <time>2016-03-20T11:16:59.000Z</time>
      </trkpt>
      <trkpt lat="47.50143" lon="6.75797">
        <ele>363</ele>
        <time>2016-03-20T11:17:01.000Z</time>
      </trkpt>
      <trkpt lat="47.50145" lon="6.75799">
        <ele>363</ele>
        <time>2016-03-20T11:17:02.000Z</time>
      </trkpt>
      <trkpt lat="47.50149" lon="6.75803">
        <ele>363</ele>
        <time>2016-03-20T11:17:04.000Z</time>
      </trkpt>
      <trkpt lat="47.5015" lon="6.75804">
        <ele>363</ele>
        <time>2016-03-20T11:17:05.000Z</time>
      </trkpt>
      <trkpt lat="47.50152" lon="6.75807">
        <ele>363</ele>
        <time>2016-03-20T11:17:06.000Z</time>
      </trkpt>
      <trkpt lat="47.50155" lon="6.75809">
        <ele>362</ele>
        <time>2016-03-20T11:17:07.000Z</time>
      </trkpt>
      <trkpt lat="47.50157" lon="6.75811">
        <ele>362</ele>
        <time>2016-03-20T11:17:08.000Z</time>
      </trkpt>
      <trkpt lat="47.50159" lon="6.75814">
        <ele>362</ele>
        <time>2016-03-20T11:17:09.000Z</time>
      </trkpt>
      <trkpt lat="47.50162" lon="6.75819">
        <ele>361</ele>
        <time>2016-03-20T11:17:11.000Z</time>
      </trkpt>
      <trkpt lat="47.50163" lon="6.75821">
        <ele>361</ele>
        <time>2016-03-20T11:17:12.000Z</time>
      </trkpt>
      <trkpt lat="47.50165" lon="6.75823">
        <ele>361</ele>
        <time>2016-03-20T11:17:13.000Z</time>
      </trkpt>
      <trkpt lat="47.50168" lon="6.75826">
        <ele>360</ele>
        <time>2016-03-20T11:17:14.000Z</time>
      </trkpt>
      <trkpt lat="47.50171" lon="6.75829">
        <ele>360</ele>
        <time>2016-03-20T11:17:15.000Z</time>
      </trkpt>
      <trkpt lat="47.50173" lon="6.75832">
        <ele>360</ele>
        <time>2016-03-20T11:17:16.000Z</time>
      </trkpt>
      <trkpt lat="47.50174" lon="6.75834">
        <ele>361</ele>
        <time>2016-03-20T11:17:17.000Z</time>
      </trkpt>
      <trkpt lat="47.50175" lon="6.75837">
        <ele>361</ele>
        <time>2016-03-20T11:17:18.000Z</time>
      </trkpt>
      <trkpt lat="47.50177" lon="6.75843">
        <ele>362</ele>
        <time>2016-03-20T11:17:21.000Z</time>
      </trkpt>
      <trkpt lat="47.50177" lon="6.75844">
        <ele>362</ele>
        <time>2016-03-20T11:17:22.000Z</time>
      </trkpt>
      <trkpt lat="47.5018" lon="6.75848">
        <ele>363</ele>
        <time>2016-03-20T11:17:27.000Z</time>
      </trkpt>
      <trkpt lat="47.50181" lon="6.75849">
        <ele>363</ele>
        <time>2016-03-20T11:17:28.000Z</time>
      </trkpt>
      <trkpt lat="47.50182" lon="6.75855">
        <ele>363</ele>
        <time>2016-03-20T11:17:31.000Z</time>
      </trkpt>
      <trkpt lat="47.50182" lon="6.75858">
        <ele>363</ele>
        <time>2016-03-20T11:17:32.000Z</time>
      </trkpt>
      <trkpt lat="47.50184" lon="6.75864">
        <ele>364</ele>
        <time>2016-03-20T11:17:34.000Z</time>
      </trkpt>
      <trkpt lat="47.50185" lon="6.75866">
        <ele>364</ele>
        <time>2016-03-20T11:17:35.000Z</time>
      </trkpt>
      <trkpt lat="47.50186" lon="6.7587">
        <ele>364</ele>
        <time>2016-03-20T11:17:37.000Z</time>
      </trkpt>
      <trkpt lat="47.50187" lon="6.75873">
        <ele>364</ele>
        <time>2016-03-20T11:17:38.000Z</time>
      </trkpt>
      <trkpt lat="47.50187" lon="6.75878">
        <ele>364</ele>
        <time>2016-03-20T11:17:40.000Z</time>
      </trkpt>
      <trkpt lat="47.50188" lon="6.75882">
        <ele>364</ele>
        <time>2016-03-20T11:17:41.000Z</time>
      </trkpt>
      <trkpt lat="47.50188" lon="6.75885">
        <ele>364</ele>
        <time>2016-03-20T11:17:42.000Z</time>
      </trkpt>
      <trkpt lat="47.50189" lon="6.75888">
        <ele>364</ele>
        <time>2016-03-20T11:17:43.000Z</time>
      </trkpt>
      <trkpt lat="47.50191" lon="6.75894">
        <ele>365</ele>
        <time>2016-03-20T11:17:45.000Z</time>
      </trkpt>
      <trkpt lat="47.50192" lon="6.75897">
        <ele>365</ele>
        <time>2016-03-20T11:17:46.000Z</time>
      </trkpt>
      <trkpt lat="47.50194" lon="6.75903">
        <ele>365</ele>
        <time>2016-03-20T11:17:50.000Z</time>
      </trkpt>
      <trkpt lat="47.50194" lon="6.75904">
        <ele>365</ele>
        <time>2016-03-20T11:17:51.000Z</time>
      </trkpt>
      <trkpt lat="47.50197" lon="6.75907">
        <ele>365</ele>
        <time>2016-03-20T11:17:54.000Z</time>
      </trkpt>
      <trkpt lat="47.50198" lon="6.75913">
        <ele>365</ele>
        <time>2016-03-20T11:17:55.000Z</time>
      </trkpt>
      <trkpt lat="47.50199" lon="6.75916">
        <ele>365</ele>
        <time>2016-03-20T11:17:56.000Z</time>
      </trkpt>
      <trkpt lat="47.50199" lon="6.7592">
        <ele>367</ele>
        <time>2016-03-20T11:17:57.000Z</time>
      </trkpt>
      <trkpt lat="47.50199" lon="6.75923">
        <ele>367</ele>
        <time>2016-03-20T11:17:58.000Z</time>
      </trkpt>
      <trkpt lat="47.502" lon="6.75927">
        <ele>367</ele>
        <time>2016-03-20T11:17:59.000Z</time>
      </trkpt>
      <trkpt lat="47.502" lon="6.7593">
        <ele>367</ele>
        <time>2016-03-20T11:17:59.999Z</time>
      </trkpt>
      <trkpt lat="47.50201" lon="6.75934">
        <ele>367</ele>
        <time>2016-03-20T11:18:01.000Z</time>
      </trkpt>
      <trkpt lat="47.50203" lon="6.75939">
        <ele>367</ele>
        <time>2016-03-20T11:18:03.000Z</time>
      </trkpt>
      <trkpt lat="47.50204" lon="6.75942">
        <ele>367</ele>
        <time>2016-03-20T11:18:04.000Z</time>
      </trkpt>
      <trkpt lat="47.50205" lon="6.75948">
        <ele>367</ele>
        <time>2016-03-20T11:18:06.000Z</time>
      </trkpt>
      <trkpt lat="47.50205" lon="6.7595">
        <ele>367</ele>
        <time>2016-03-20T11:18:07.001Z</time>
      </trkpt>
      <trkpt lat="47.50208" lon="6.75953">
        <ele>368</ele>
        <time>2016-03-20T11:18:13.000Z</time>
      </trkpt>
      <trkpt lat="47.50209" lon="6.75955">
        <ele>368</ele>
        <time>2016-03-20T11:18:14.000Z</time>
      </trkpt>
      <trkpt lat="47.5021" lon="6.75961">
        <ele>368</ele>
        <time>2016-03-20T11:18:20.000Z</time>
      </trkpt>
      <trkpt lat="47.50211" lon="6.75962">
        <ele>368</ele>
        <time>2016-03-20T11:18:21.000Z</time>
      </trkpt>
      <trkpt lat="47.50212" lon="6.75968">
        <ele>368</ele>
        <time>2016-03-20T11:18:28.000Z</time>
      </trkpt>
      <trkpt lat="47.50212" lon="6.75969">
        <ele>368</ele>
        <time>2016-03-20T11:18:29.000Z</time>
      </trkpt>
      <trkpt lat="47.50209" lon="6.75974">
        <ele>368</ele>
        <time>2016-03-20T11:18:34.000Z</time>
      </trkpt>
      <trkpt lat="47.50209" lon="6.75975">
        <ele>368</ele>
        <time>2016-03-20T11:18:35.000Z</time>
      </trkpt>
      <trkpt lat="47.5021" lon="6.7598">
        <ele>368</ele>
        <time>2016-03-20T11:18:39.000Z</time>
      </trkpt>
      <trkpt lat="47.50211" lon="6.75981">
        <ele>368</ele>
        <time>2016-03-20T11:18:40.000Z</time>
      </trkpt>
      <trkpt lat="47.50209" lon="6.75986">
        <ele>368</ele>
        <time>2016-03-20T11:18:49.000Z</time>
      </trkpt>
      <trkpt lat="47.50208" lon="6.75986">
        <ele>368</ele>
        <time>2016-03-20T11:18:50.000Z</time>
      </trkpt>
      <trkpt lat="47.50208" lon="6.75992">
        <ele>369</ele>
        <time>2016-03-20T11:18:57.000Z</time>
      </trkpt>
      <trkpt lat="47.50207" lon="6.75993">
        <ele>369</ele>
        <time>2016-03-20T11:18:58.000Z</time>
      </trkpt>
      <trkpt lat="47.50205" lon="6.75997">
        <ele>369</ele>
        <time>2016-03-20T11:19:02.000Z</time>
      </trkpt>
      <trkpt lat="47.50205" lon="6.75999">
        <ele>369</ele>
        <time>2016-03-20T11:19:03.000Z</time>
      </trkpt>
      <trkpt lat="47.50203" lon="6.76001">
        <ele>372</ele>
        <time>2016-03-20T11:19:05.001Z</time>
      </trkpt>
      <trkpt lat="47.50201" lon="6.76002">
        <ele>372</ele>
        <time>2016-03-20T11:19:06.000Z</time>
      </trkpt>
      <trkpt lat="47.50197" lon="6.76003">
        <ele>372</ele>
        <time>2016-03-20T11:19:16.999Z</time>
      </trkpt>
      <trkpt lat="47.50195" lon="6.76003">
        <ele>372</ele>
        <time>2016-03-20T11:19:18.000Z</time>
      </trkpt>
      <trkpt lat="47.50191" lon="6.76002">
        <ele>372</ele>
        <time>2016-03-20T11:19:21.000Z</time>
      </trkpt>
      <trkpt lat="47.50188" lon="6.76">
        <ele>372</ele>
        <time>2016-03-20T11:19:22.000Z</time>
      </trkpt>
      <trkpt lat="47.50185" lon="6.75999">
        <ele>369</ele>
        <time>2016-03-20T11:19:24.000Z</time>
      </trkpt>
      <trkpt lat="47.50183" lon="6.76">
        <ele>369</ele>
        <time>2016-03-20T11:19:25.000Z</time>
      </trkpt>
      <trkpt lat="47.50179" lon="6.76001">
        <ele>371</ele>
        <time>2016-03-20T11:19:27.000Z</time>
      </trkpt>
      <trkpt lat="47.50178" lon="6.76001">
        <ele>371</ele>
        <time>2016-03-20T11:19:27.999Z</time>
      </trkpt>
      <trkpt lat="47.50174" lon="6.76002">
        <ele>371</ele>
        <time>2016-03-20T11:19:33.000Z</time>
      </trkpt>
      <trkpt lat="47.50172" lon="6.76003">
        <ele>371</ele>
        <time>2016-03-20T11:19:34.000Z</time>
      </trkpt>
      <trkpt lat="47.5017" lon="6.76008">
        <ele>371</ele>
        <time>2016-03-20T11:19:37.000Z</time>
      </trkpt>
      <trkpt lat="47.50169" lon="6.7601">
        <ele>371</ele>
        <time>2016-03-20T11:19:38.000Z</time>
      </trkpt>
      <trkpt lat="47.50165" lon="6.76013">
        <ele>374</ele>
        <time>2016-03-20T11:19:41.000Z</time>
      </trkpt>
      <trkpt lat="47.50162" lon="6.76013">
        <ele>374</ele>
        <time>2016-03-20T11:19:42.000Z</time>
      </trkpt>
      <trkpt lat="47.50158" lon="6.76012">
        <ele>374</ele>
        <time>2016-03-20T11:19:44.000Z</time>
      </trkpt>
      <trkpt lat="47.50155" lon="6.76013">
        <ele>375</ele>
        <time>2016-03-20T11:19:45.000Z</time>
      </trkpt>
      <trkpt lat="47.50151" lon="6.76013">
        <ele>375</ele>
        <time>2016-03-20T11:19:47.000Z</time>
      </trkpt>
      <trkpt lat="47.50149" lon="6.76013">
        <ele>375</ele>
        <time>2016-03-20T11:19:48.000Z</time>
      </trkpt>
      <trkpt lat="47.50146" lon="6.76012">
        <ele>376</ele>
        <time>2016-03-20T11:19:51.000Z</time>
      </trkpt>
      <trkpt lat="47.50144" lon="6.76012">
        <ele>376</ele>
        <time>2016-03-20T11:19:52.000Z</time>
      </trkpt>
      <trkpt lat="47.50141" lon="6.76011">
        <ele>376</ele>
        <time>2016-03-20T11:19:54.000Z</time>
      </trkpt>
      <trkpt lat="47.5014" lon="6.76011">
        <ele>376</ele>
        <time>2016-03-20T11:19:55.000Z</time>
      </trkpt>
      <trkpt lat="47.50136" lon="6.76013">
        <ele>377</ele>
        <time>2016-03-20T11:19:58.000Z</time>
      </trkpt>
      <trkpt lat="47.50135" lon="6.76013">
        <ele>377</ele>
        <time>2016-03-20T11:19:59.000Z</time>
      </trkpt>
      <trkpt lat="47.50132" lon="6.76014">
        <ele>377</ele>
        <time>2016-03-20T11:20:01.000Z</time>
      </trkpt>
      <trkpt lat="47.50131" lon="6.76015">
        <ele>377</ele>
        <time>2016-03-20T11:20:02.000Z</time>
      </trkpt>
      <trkpt lat="47.50127" lon="6.76016">
        <ele>377</ele>
        <time>2016-03-20T11:20:05.000Z</time>
      </trkpt>
      <trkpt lat="47.50126" lon="6.76016">
        <ele>378</ele>
        <time>2016-03-20T11:20:06.000Z</time>
      </trkpt>
      <trkpt lat="47.50122" lon="6.7602">
        <ele>378</ele>
        <time>2016-03-20T11:20:09.000Z</time>
      </trkpt>
      <trkpt lat="47.50121" lon="6.7602">
        <ele>378</ele>
        <time>2016-03-20T11:20:10.000Z</time>
      </trkpt>
      <trkpt lat="47.50118" lon="6.76024">
        <ele>378</ele>
        <time>2016-03-20T11:20:14.000Z</time>
      </trkpt>
      <trkpt lat="47.50117" lon="6.76026">
        <ele>378</ele>
        <time>2016-03-20T11:20:15.000Z</time>
      </trkpt>
      <trkpt lat="47.50116" lon="6.76031">
        <ele>379</ele>
        <time>2016-03-20T11:20:18.000Z</time>
      </trkpt>
      <trkpt lat="47.50115" lon="6.76033">
        <ele>379</ele>
        <time>2016-03-20T11:20:19.000Z</time>
      </trkpt>
      <trkpt lat="47.50114" lon="6.76038">
        <ele>379</ele>
        <time>2016-03-20T11:20:21.000Z</time>
      </trkpt>
      <trkpt lat="47.50113" lon="6.76041">
        <ele>379</ele>
        <time>2016-03-20T11:20:22.000Z</time>
      </trkpt>
      <trkpt lat="47.50111" lon="6.76046">
        <ele>380</ele>
        <time>2016-03-20T11:20:25.000Z</time>
      </trkpt>
      <trkpt lat="47.5011" lon="6.76047">
        <ele>380</ele>
        <time>2016-03-20T11:20:26.000Z</time>
      </trkpt>
      <trkpt lat="47.50108" lon="6.76052">
        <ele>380</ele>
        <time>2016-03-20T11:20:29.000Z</time>
      </trkpt>
      <trkpt lat="47.50108" lon="6.76055">
        <ele>381</ele>
        <time>2016-03-20T11:20:30.000Z</time>
      </trkpt>
      <trkpt lat="47.50107" lon="6.76061">
        <ele>381</ele>
        <time>2016-03-20T11:20:34.000Z</time>
      </trkpt>
      <trkpt lat="47.50107" lon="6.76063">
        <ele>381</ele>
        <time>2016-03-20T11:20:35.000Z</time>
      </trkpt>
      <trkpt lat="47.50106" lon="6.76069">
        <ele>382</ele>
        <time>2016-03-20T11:20:37.000Z</time>
      </trkpt>
      <trkpt lat="47.50106" lon="6.76073">
        <ele>382</ele>
        <time>2016-03-20T11:20:38.000Z</time>
      </trkpt>
      <trkpt lat="47.50106" lon="6.76076">
        <ele>382</ele>
        <time>2016-03-20T11:20:39.000Z</time>
      </trkpt>
      <trkpt lat="47.50105" lon="6.7608">
        <ele>383</ele>
        <time>2016-03-20T11:20:40.000Z</time>
      </trkpt>
      <trkpt lat="47.50105" lon="6.76084">
        <ele>386</ele>
        <time>2016-03-20T11:20:41.000Z</time>
      </trkpt>
      <trkpt lat="47.50105" lon="6.76087">
        <ele>386</ele>
        <time>2016-03-20T11:20:42.000Z</time>
      </trkpt>
      <trkpt lat="47.50105" lon="6.76091">
        <ele>386</ele>
        <time>2016-03-20T11:20:43.000Z</time>
      </trkpt>
      <trkpt lat="47.50104" lon="6.76095">
        <ele>386</ele>
        <time>2016-03-20T11:20:44.000Z</time>
      </trkpt>
      <trkpt lat="47.50104" lon="6.76102">
        <ele>386</ele>
        <time>2016-03-20T11:20:46.000Z</time>
      </trkpt>
      <trkpt lat="47.50104" lon="6.76105">
        <ele>386</ele>
        <time>2016-03-20T11:20:47.000Z</time>
      </trkpt>
      <trkpt lat="47.50104" lon="6.76108">
        <ele>386</ele>
        <time>2016-03-20T11:20:48.000Z</time>
      </trkpt>
      <trkpt lat="47.50104" lon="6.76111">
        <ele>386</ele>
        <time>2016-03-20T11:20:49.000Z</time>
      </trkpt>
      <trkpt lat="47.50104" lon="6.76115">
        <ele>386</ele>
        <time>2016-03-20T11:20:50.000Z</time>
      </trkpt>
      <trkpt lat="47.50104" lon="6.76119">
        <ele>386</ele>
        <time>2016-03-20T11:20:51.000Z</time>
      </trkpt>
      <trkpt lat="47.50105" lon="6.76122">
        <ele>386</ele>
        <time>2016-03-20T11:20:52.000Z</time>
      </trkpt>
      <trkpt lat="47.50105" lon="6.76126">
        <ele>386</ele>
        <time>2016-03-20T11:20:53.000Z</time>
      </trkpt>
      <trkpt lat="47.50105" lon="6.76132">
        <ele>386</ele>
        <time>2016-03-20T11:20:55.000Z</time>
      </trkpt>
      <trkpt lat="47.50104" lon="6.76135">
        <ele>387</ele>
        <time>2016-03-20T11:20:56.000Z</time>
      </trkpt>
      <trkpt lat="47.50106" lon="6.76142">
        <ele>387</ele>
        <time>2016-03-20T11:20:58.000Z</time>
      </trkpt>
      <trkpt lat="47.50107" lon="6.76144">
        <ele>387</ele>
        <time>2016-03-20T11:20:59.000Z</time>
      </trkpt>
      <trkpt lat="47.50109" lon="6.76149">
        <ele>387</ele>
        <time>2016-03-20T11:21:01.000Z</time>
      </trkpt>
      <trkpt lat="47.50108" lon="6.76151">
        <ele>387</ele>
        <time>2016-03-20T11:21:02.000Z</time>
      </trkpt>
      <trkpt lat="47.50108" lon="6.76155">
        <ele>388</ele>
        <time>2016-03-20T11:21:03.000Z</time>
      </trkpt>
      <trkpt lat="47.50108" lon="6.76158">
        <ele>388</ele>
        <time>2016-03-20T11:21:04.000Z</time>
      </trkpt>
      <trkpt lat="47.50108" lon="6.76164">
        <ele>388</ele>
        <time>2016-03-20T11:21:06.000Z</time>
      </trkpt>
      <trkpt lat="47.50109" lon="6.76167">
        <ele>388</ele>
        <time>2016-03-20T11:21:07.000Z</time>
      </trkpt>
      <trkpt lat="47.5011" lon="6.76172">
        <ele>391</ele>
        <time>2016-03-20T11:21:09.000Z</time>
      </trkpt>
      <trkpt lat="47.50111" lon="6.76176">
        <ele>391</ele>
        <time>2016-03-20T11:21:10.000Z</time>
      </trkpt>
      <trkpt lat="47.50112" lon="6.76179">
        <ele>391</ele>
        <time>2016-03-20T11:21:11.000Z</time>
      </trkpt>
      <trkpt lat="47.50113" lon="6.76183">
        <ele>391</ele>
        <time>2016-03-20T11:21:12.000Z</time>
      </trkpt>
      <trkpt lat="47.50114" lon="6.76189">
        <ele>391</ele>
        <time>2016-03-20T11:21:14.000Z</time>
      </trkpt>
      <trkpt lat="47.50114" lon="6.76191">
        <ele>391</ele>
        <time>2016-03-20T11:21:15.000Z</time>
      </trkpt>
      <trkpt lat="47.50115" lon="6.76194">
        <ele>391</ele>
        <time>2016-03-20T11:21:16.000Z</time>
      </trkpt>
      <trkpt lat="47.50116" lon="6.76198">
        <ele>391</ele>
        <time>2016-03-20T11:21:17.000Z</time>
      </trkpt>
      <trkpt lat="47.50117" lon="6.76204">
        <ele>391</ele>
        <time>2016-03-20T11:21:18.000Z</time>
      </trkpt>
      <trkpt lat="47.50118" lon="6.7621">
        <ele>391</ele>
        <time>2016-03-20T11:21:19.000Z</time>
      </trkpt>
      <trkpt lat="47.50119" lon="6.76216">
        <ele>392</ele>
        <time>2016-03-20T11:21:20.000Z</time>
      </trkpt>
      <trkpt lat="47.5012" lon="6.76222">
        <ele>392</ele>
        <time>2016-03-20T11:21:21.000Z</time>
      </trkpt>
      <trkpt lat="47.50121" lon="6.76228">
        <ele>392</ele>
        <time>2016-03-20T11:21:22.000Z</time>
      </trkpt>
      <trkpt lat="47.50123" lon="6.76234">
        <ele>392</ele>
        <time>2016-03-20T11:21:23.000Z</time>
      </trkpt>
      <trkpt lat="47.50124" lon="6.76239">
        <ele>392</ele>
        <time>2016-03-20T11:21:24.000Z</time>
      </trkpt>
      <trkpt lat="47.50125" lon="6.76244">
        <ele>392</ele>
        <time>2016-03-20T11:21:25.000Z</time>
      </trkpt>
      <trkpt lat="47.50126" lon="6.76249">
        <ele>392</ele>
        <time>2016-03-20T11:21:26.000Z</time>
      </trkpt>
      <trkpt lat="47.50126" lon="6.76253">
        <ele>396</ele>
        <time>2016-03-20T11:21:27.000Z</time>
      </trkpt>
      <trkpt lat="47.50126" lon="6.76258">
        <ele>396</ele>
        <time>2016-03-20T11:21:28.000Z</time>
      </trkpt>
      <trkpt lat="47.50127" lon="6.76262">
        <ele>396</ele>
        <time>2016-03-20T11:21:29.000Z</time>
      </trkpt>
      <trkpt lat="47.50128" lon="6.76266">
        <ele>396</ele>
        <time>2016-03-20T11:21:30.000Z</time>
      </trkpt>
      <trkpt lat="47.50129" lon="6.76271">
        <ele>396</ele>
        <time>2016-03-20T11:21:31.000Z</time>
      </trkpt>
      <trkpt lat="47.50129" lon="6.76276">
        <ele>396</ele>
        <time>2016-03-20T11:21:32.000Z</time>
      </trkpt>
      <trkpt lat="47.50129" lon="6.7628">
        <ele>396</ele>
        <time>2016-03-20T11:21:33.000Z</time>
      </trkpt>
      <trkpt lat="47.50131" lon="6.76285">
        <ele>396</ele>
        <time>2016-03-20T11:21:34.000Z</time>
      </trkpt>
      <trkpt lat="47.50132" lon="6.76291">
        <ele>397</ele>
        <time>2016-03-20T11:21:35.000Z</time>
      </trkpt>
      <trkpt lat="47.50133" lon="6.76297">
        <ele>397</ele>
        <time>2016-03-20T11:21:36.000Z</time>
      </trkpt>
      <trkpt lat="47.50134" lon="6.76302">
        <ele>397</ele>
        <time>2016-03-20T11:21:37.000Z</time>
      </trkpt>
      <trkpt lat="47.50135" lon="6.76306">
        <ele>397</ele>
        <time>2016-03-20T11:21:38.000Z</time>
      </trkpt>
      <trkpt lat="47.50136" lon="6.7631">
        <ele>397</ele>
        <time>2016-03-20T11:21:39.000Z</time>
      </trkpt>
      <trkpt lat="47.50137" lon="6.76314">
        <ele>396</ele>
        <time>2016-03-20T11:21:40.000Z</time>
      </trkpt>
      <trkpt lat="47.50139" lon="6.76319">
        <ele>396</ele>
        <time>2016-03-20T11:21:41.000Z</time>
      </trkpt>
      <trkpt lat="47.50141" lon="6.76323">
        <ele>396</ele>
        <time>2016-03-20T11:21:42.000Z</time>
      </trkpt>
      <trkpt lat="47.50143" lon="6.76328">
        <ele>395</ele>
        <time>2016-03-20T11:21:43.000Z</time>
      </trkpt>
      <trkpt lat="47.50144" lon="6.76332">
        <ele>395</ele>
        <time>2016-03-20T11:21:44.000Z</time>
      </trkpt>
      <trkpt lat="47.50145" lon="6.76336">
        <ele>398</ele>
        <time>2016-03-20T11:21:45.000Z</time>
      </trkpt>
      <trkpt lat="47.50147" lon="6.76341">
        <ele>398</ele>
        <time>2016-03-20T11:21:46.000Z</time>
      </trkpt>
      <trkpt lat="47.50148" lon="6.76345">
        <ele>398</ele>
        <time>2016-03-20T11:21:47.000Z</time>
      </trkpt>
      <trkpt lat="47.50149" lon="6.7635">
        <ele>398</ele>
        <time>2016-03-20T11:21:48.000Z</time>
      </trkpt>
      <trkpt lat="47.5015" lon="6.76355">
        <ele>399</ele>
        <time>2016-03-20T11:21:49.000Z</time>
      </trkpt>
      <trkpt lat="47.50151" lon="6.7636">
        <ele>399</ele>
        <time>2016-03-20T11:21:50.000Z</time>
      </trkpt>
      <trkpt lat="47.50152" lon="6.76365">
        <ele>400</ele>
        <time>2016-03-20T11:21:51.000Z</time>
      </trkpt>
      <trkpt lat="47.50153" lon="6.76369">
        <ele>400</ele>
        <time>2016-03-20T11:21:52.000Z</time>
      </trkpt>
      <trkpt lat="47.50154" lon="6.76373">
        <ele>400</ele>
        <time>2016-03-20T11:21:53.000Z</time>
      </trkpt>
      <trkpt lat="47.50155" lon="6.76377">
        <ele>400</ele>
        <time>2016-03-20T11:21:54.000Z</time>
      </trkpt>
      <trkpt lat="47.50155" lon="6.7638">
        <ele>401</ele>
        <time>2016-03-20T11:21:55.000Z</time>
      </trkpt>
      <trkpt lat="47.50156" lon="6.76383">
        <ele>401</ele>
        <time>2016-03-20T11:21:56.000Z</time>
      </trkpt>
      <trkpt lat="47.50158" lon="6.76388">
        <ele>401</ele>
        <time>2016-03-20T11:21:57.000Z</time>
      </trkpt>
      <trkpt lat="47.50159" lon="6.76392">
        <ele>401</ele>
        <time>2016-03-20T11:21:58.000Z</time>
      </trkpt>
      <trkpt lat="47.50161" lon="6.76397">
        <ele>401</ele>
        <time>2016-03-20T11:21:59.000Z</time>
      </trkpt>
      <trkpt lat="47.50162" lon="6.76402">
        <ele>400</ele>
        <time>2016-03-20T11:22:00.000Z</time>
      </trkpt>
      <trkpt lat="47.50164" lon="6.76407">
        <ele>400</ele>
        <time>2016-03-20T11:22:01.000Z</time>
      </trkpt>
      <trkpt lat="47.50166" lon="6.76411">
        <ele>400</ele>
        <time>2016-03-20T11:22:02.000Z</time>
      </trkpt>
      <trkpt lat="47.50167" lon="6.76416">
        <ele>399</ele>
        <time>2016-03-20T11:22:03.000Z</time>
      </trkpt>
      <trkpt lat="47.50168" lon="6.7642">
        <ele>399</ele>
        <time>2016-03-20T11:22:04.000Z</time>
      </trkpt>
      <trkpt lat="47.50169" lon="6.76424">
        <ele>398</ele>
        <time>2016-03-20T11:22:05.000Z</time>
      </trkpt>
      <trkpt lat="47.5017" lon="6.76428">
        <ele>398</ele>
        <time>2016-03-20T11:22:06.000Z</time>
      </trkpt>
      <trkpt lat="47.50171" lon="6.76431">
        <ele>398</ele>
        <time>2016-03-20T11:22:07.000Z</time>
      </trkpt>
      <trkpt lat="47.50172" lon="6.76435">
        <ele>397</ele>
        <time>2016-03-20T11:22:08.000Z</time>
      </trkpt>
      <trkpt lat="47.50173" lon="6.76437">
        <ele>397</ele>
        <time>2016-03-20T11:22:09.000Z</time>
      </trkpt>
      <trkpt lat="47.50174" lon="6.76441">
        <ele>397</ele>
        <time>2016-03-20T11:22:10.000Z</time>
      </trkpt>
      <trkpt lat="47.50176" lon="6.76444">
        <ele>397</ele>
        <time>2016-03-20T11:22:11.000Z</time>
      </trkpt>
      <trkpt lat="47.50178" lon="6.76447">
        <ele>397</ele>
        <time>2016-03-20T11:22:12.000Z</time>
      </trkpt>
      <trkpt lat="47.5018" lon="6.76452">
        <ele>397</ele>
        <time>2016-03-20T11:22:13.000Z</time>
      </trkpt>
      <trkpt lat="47.50182" lon="6.76455">
        <ele>397</ele>
        <time>2016-03-20T11:22:14.000Z</time>
      </trkpt>
      <trkpt lat="47.50184" lon="6.76459">
        <ele>397</ele>
        <time>2016-03-20T11:22:15.000Z</time>
      </trkpt>
      <trkpt lat="47.50186" lon="6.76464">
        <ele>397</ele>
        <time>2016-03-20T11:22:16.000Z</time>
      </trkpt>
      <trkpt lat="47.50187" lon="6.76468">
        <ele>398</ele>
        <time>2016-03-20T11:22:17.000Z</time>
      </trkpt>
      <trkpt lat="47.50188" lon="6.76472">
        <ele>398</ele>
        <time>2016-03-20T11:22:18.000Z</time>
      </trkpt>
      <trkpt lat="47.50189" lon="6.76476">
        <ele>398</ele>
        <time>2016-03-20T11:22:19.000Z</time>
      </trkpt>
      <trkpt lat="47.50189" lon="6.7648">
        <ele>398</ele>
        <time>2016-03-20T11:22:20.000Z</time>
      </trkpt>
      <trkpt lat="47.5019" lon="6.76483">
        <ele>398</ele>
        <time>2016-03-20T11:22:21.000Z</time>
      </trkpt>
      <trkpt lat="47.50191" lon="6.76487">
        <ele>399</ele>
        <time>2016-03-20T11:22:22.000Z</time>
      </trkpt>
      <trkpt lat="47.50192" lon="6.7649">
        <ele>399</ele>
        <time>2016-03-20T11:22:23.000Z</time>
      </trkpt>
      <trkpt lat="47.50194" lon="6.76494">
        <ele>399</ele>
        <time>2016-03-20T11:22:24.000Z</time>
      </trkpt>
      <trkpt lat="47.50195" lon="6.76497">
        <ele>399</ele>
        <time>2016-03-20T11:22:25.000Z</time>
      </trkpt>
      <trkpt lat="47.50196" lon="6.76503">
        <ele>402</ele>
        <time>2016-03-20T11:22:34.000Z</time>
      </trkpt>
      <trkpt lat="47.50195" lon="6.76504">
        <ele>402</ele>
        <time>2016-03-20T11:22:35.000Z</time>
      </trkpt>
      <trkpt lat="47.50194" lon="6.76509">
        <ele>402</ele>
        <time>2016-03-20T11:22:37.000Z</time>
      </trkpt>
      <trkpt lat="47.50193" lon="6.76512">
        <ele>402</ele>
        <time>2016-03-20T11:22:38.000Z</time>
      </trkpt>
      <trkpt lat="47.50194" lon="6.76517">
        <ele>402</ele>
        <time>2016-03-20T11:22:40.000Z</time>
      </trkpt>
      <trkpt lat="47.50194" lon="6.7652">
        <ele>402</ele>
        <time>2016-03-20T11:22:41.000Z</time>
      </trkpt>
      <trkpt lat="47.50193" lon="6.76526">
        <ele>402</ele>
        <time>2016-03-20T11:22:44.000Z</time>
      </trkpt>
      <trkpt lat="47.50193" lon="6.76527">
        <ele>402</ele>
        <time>2016-03-20T11:22:45.000Z</time>
      </trkpt>
      <trkpt lat="47.50191" lon="6.76532">
        <ele>402</ele>
        <time>2016-03-20T11:22:48.000Z</time>
      </trkpt>
      <trkpt lat="47.5019" lon="6.76534">
        <ele>402</ele>
        <time>2016-03-20T11:22:49.000Z</time>
      </trkpt>
      <trkpt lat="47.50188" lon="6.76538">
        <ele>402</ele>
        <time>2016-03-20T11:22:51.000Z</time>
      </trkpt>
      <trkpt lat="47.50187" lon="6.7654">
        <ele>402</ele>
        <time>2016-03-20T11:22:52.000Z</time>
      </trkpt>
      <trkpt lat="47.50188" lon="6.76546">
        <ele>402</ele>
        <time>2016-03-20T11:22:57.000Z</time>
      </trkpt>
      <trkpt lat="47.50188" lon="6.76546">
        <ele>402</ele>
        <time>2016-03-20T11:22:58.000Z</time>
      </trkpt>
      <trkpt lat="47.50187" lon="6.76551">
        <ele>402</ele>
        <time>2016-03-20T11:23:16.000Z</time>
      </trkpt>
      <trkpt lat="47.50187" lon="6.76553">
        <ele>402</ele>
        <time>2016-03-20T11:23:17.000Z</time>
      </trkpt>
      <trkpt lat="47.50185" lon="6.76557">
        <ele>403</ele>
        <time>2016-03-20T11:23:19.000Z</time>
      </trkpt>
      <trkpt lat="47.50184" lon="6.7656">
        <ele>403</ele>
        <time>2016-03-20T11:23:20.000Z</time>
      </trkpt>
      <trkpt lat="47.50184" lon="6.76565">
        <ele>403</ele>
        <time>2016-03-20T11:23:23.000Z</time>
      </trkpt>
      <trkpt lat="47.50184" lon="6.76566">
        <ele>403</ele>
        <time>2016-03-20T11:23:24.000Z</time>
      </trkpt>
      <trkpt lat="47.50184" lon="6.76569">
        <ele>403</ele>
        <time>2016-03-20T11:23:29.000Z</time>
      </trkpt>
      <trkpt lat="47.50185" lon="6.76573">
        <ele>403</ele>
        <time>2016-03-20T11:23:30.000Z</time>
      </trkpt>
      <trkpt lat="47.50186" lon="6.76577">
        <ele>404</ele>
        <time>2016-03-20T11:23:32.000Z</time>
      </trkpt>
      <trkpt lat="47.50186" lon="6.76581">
        <ele>404</ele>
        <time>2016-03-20T11:23:33.000Z</time>
      </trkpt>
      <trkpt lat="47.50187" lon="6.76587">
        <ele>404</ele>
        <time>2016-03-20T11:23:36.000Z</time>
      </trkpt>
      <trkpt lat="47.50188" lon="6.76588">
        <ele>404</ele>
        <time>2016-03-20T11:23:37.000Z</time>
      </trkpt>
      <trkpt lat="47.5019" lon="6.76593">
        <ele>404</ele>
        <time>2016-03-20T11:23:40.000Z</time>
      </trkpt>
      <trkpt lat="47.50191" lon="6.76596">
        <ele>403</ele>
        <time>2016-03-20T11:23:41.000Z</time>
      </trkpt>
      <trkpt lat="47.50193" lon="6.76601">
        <ele>403</ele>
        <time>2016-03-20T11:23:43.000Z</time>
      </trkpt>
      <trkpt lat="47.50194" lon="6.76603">
        <ele>403</ele>
        <time>2016-03-20T11:23:44.000Z</time>
      </trkpt>
      <trkpt lat="47.50194" lon="6.76609">
        <ele>403</ele>
        <time>2016-03-20T11:23:48.000Z</time>
      </trkpt>
      <trkpt lat="47.50194" lon="6.7661">
        <ele>403</ele>
        <time>2016-03-20T11:23:49.000Z</time>
      </trkpt>
      <trkpt lat="47.50196" lon="6.76616">
        <ele>403</ele>
        <time>2016-03-20T11:24:36.000Z</time>
      </trkpt>
      <trkpt lat="47.50196" lon="6.76617">
        <ele>403</ele>
        <time>2016-03-20T11:24:37.000Z</time>
      </trkpt>
      <trkpt lat="47.50197" lon="6.76622">
        <ele>402</ele>
        <time>2016-03-20T11:25:11.000Z</time>
      </trkpt>
      <trkpt lat="47.50198" lon="6.76623">
        <ele>402</ele>
        <time>2016-03-20T11:25:12.000Z</time>
      </trkpt>
      <trkpt lat="47.502" lon="6.76627">
        <ele>402</ele>
        <time>2016-03-20T11:25:14.999Z</time>
      </trkpt>
      <trkpt lat="47.50201" lon="6.7663">
        <ele>402</ele>
        <time>2016-03-20T11:25:16.000Z</time>
      </trkpt>
      <trkpt lat="47.50202" lon="6.76633">
        <ele>402</ele>
        <time>2016-03-20T11:25:17.000Z</time>
      </trkpt>
      <trkpt lat="47.50202" lon="6.76636">
        <ele>402</ele>
        <time>2016-03-20T11:25:18.000Z</time>
      </trkpt>
      <trkpt lat="47.50204" lon="6.76641">
        <ele>402</ele>
        <time>2016-03-20T11:25:19.000Z</time>
      </trkpt>
      <trkpt lat="47.50204" lon="6.76644">
        <ele>402</ele>
        <time>2016-03-20T11:25:20.000Z</time>
      </trkpt>
      <trkpt lat="47.50206" lon="6.76649">
        <ele>402</ele>
        <time>2016-03-20T11:25:21.000Z</time>
      </trkpt>
      <trkpt lat="47.50207" lon="6.76653">
        <ele>402</ele>
        <time>2016-03-20T11:25:22.000Z</time>
      </trkpt>
      <trkpt lat="47.50208" lon="6.76656">
        <ele>402</ele>
        <time>2016-03-20T11:25:23.000Z</time>
      </trkpt>
      <trkpt lat="47.50209" lon="6.7666">
        <ele>402</ele>
        <time>2016-03-20T11:25:24.000Z</time>
      </trkpt>
      <trkpt lat="47.50211" lon="6.76665">
        <ele>402</ele>
        <time>2016-03-20T11:25:26.001Z</time>
      </trkpt>
      <trkpt lat="47.50212" lon="6.76669">
        <ele>402</ele>
        <time>2016-03-20T11:25:27.000Z</time>
      </trkpt>
      <trkpt lat="47.50212" lon="6.76673">
        <ele>402</ele>
        <time>2016-03-20T11:25:28.000Z</time>
      </trkpt>
      <trkpt lat="47.50214" lon="6.76678">
        <ele>402</ele>
        <time>2016-03-20T11:25:29.000Z</time>
      </trkpt>
      <trkpt lat="47.50215" lon="6.76689">
        <ele>402</ele>
        <time>2016-03-20T11:25:30.000Z</time>
      </trkpt>
      <trkpt lat="47.50216" lon="6.76696">
        <ele>402</ele>
        <time>2016-03-20T11:25:31.000Z</time>
      </trkpt>
      <trkpt lat="47.50218" lon="6.76698">
        <ele>402</ele>
        <time>2016-03-20T11:25:32.000Z</time>
      </trkpt>
      <trkpt lat="47.50219" lon="6.76703">
        <ele>402</ele>
        <time>2016-03-20T11:25:33.000Z</time>
      </trkpt>
      <trkpt lat="47.5022" lon="6.76709">
        <ele>402</ele>
        <time>2016-03-20T11:25:34.000Z</time>
      </trkpt>
      <trkpt lat="47.50221" lon="6.76713">
        <ele>402</ele>
        <time>2016-03-20T11:25:35.000Z</time>
      </trkpt>
      <trkpt lat="47.50222" lon="6.76718">
        <ele>402</ele>
        <time>2016-03-20T11:25:36.002Z</time>
      </trkpt>
      <trkpt lat="47.50226" lon="6.76721">
        <ele>402</ele>
        <time>2016-03-20T11:25:38.000Z</time>
      </trkpt>
      <trkpt lat="47.50229" lon="6.76726">
        <ele>402</ele>
        <time>2016-03-20T11:25:39.000Z</time>
      </trkpt>
      <trkpt lat="47.50235" lon="6.76733">
        <ele>401</ele>
        <time>2016-03-20T11:25:40.000Z</time>
      </trkpt>
      <trkpt lat="47.50237" lon="6.76738">
        <ele>401</ele>
        <time>2016-03-20T11:25:41.000Z</time>
      </trkpt>
      <trkpt lat="47.50239" lon="6.76741">
        <ele>401</ele>
        <time>2016-03-20T11:25:42.000Z</time>
      </trkpt>
      <trkpt lat="47.50244" lon="6.76744">
        <ele>401</ele>
        <time>2016-03-20T11:25:43.000Z</time>
      </trkpt>
      <trkpt lat="47.50247" lon="6.76745">
        <ele>400</ele>
        <time>2016-03-20T11:25:44.000Z</time>
      </trkpt>
      <trkpt lat="47.50251" lon="6.76745">
        <ele>400</ele>
        <time>2016-03-20T11:25:45.000Z</time>
      </trkpt>
      <trkpt lat="47.50256" lon="6.76745">
        <ele>400</ele>
        <time>2016-03-20T11:25:46.000Z</time>
      </trkpt>
      <trkpt lat="47.50259" lon="6.76743">
        <ele>399</ele>
        <time>2016-03-20T11:25:47.000Z</time>
      </trkpt>
      <trkpt lat="47.50264" lon="6.76743">
        <ele>399</ele>
        <time>2016-03-20T11:25:48.000Z</time>
      </trkpt>
      <trkpt lat="47.50268" lon="6.76743">
        <ele>399</ele>
        <time>2016-03-20T11:25:49.000Z</time>
      </trkpt>
      <trkpt lat="47.50271" lon="6.76742">
        <ele>399</ele>
        <time>2016-03-20T11:25:49.999Z</time>
      </trkpt>
      <trkpt lat="47.50275" lon="6.7674">
        <ele>399</ele>
        <time>2016-03-20T11:25:51.000Z</time>
      </trkpt>
      <trkpt lat="47.50279" lon="6.76738">
        <ele>399</ele>
        <time>2016-03-20T11:25:52.000Z</time>
      </trkpt>
      <trkpt lat="47.50283" lon="6.76736">
        <ele>399</ele>
        <time>2016-03-20T11:25:53.000Z</time>
      </trkpt>
      <trkpt lat="47.50286" lon="6.76733">
        <ele>399</ele>
        <time>2016-03-20T11:25:54.000Z</time>
      </trkpt>
      <trkpt lat="47.50291" lon="6.76732">
        <ele>399</ele>
        <time>2016-03-20T11:25:55.001Z</time>
      </trkpt>
      <trkpt lat="47.50295" lon="6.76731">
        <ele>399</ele>
        <time>2016-03-20T11:25:56.000Z</time>
      </trkpt>
      <trkpt lat="47.503" lon="6.7673">
        <ele>399</ele>
        <time>2016-03-20T11:25:57.000Z</time>
      </trkpt>
      <trkpt lat="47.50306" lon="6.76728">
        <ele>398</ele>
        <time>2016-03-20T11:25:58.000Z</time>
      </trkpt>
      <trkpt lat="47.50309" lon="6.76728">
        <ele>398</ele>
        <time>2016-03-20T11:25:59.000Z</time>
      </trkpt>
      <trkpt lat="47.50314" lon="6.76727">
        <ele>398</ele>
        <time>2016-03-20T11:26:00.000Z</time>
      </trkpt>
      <trkpt lat="47.50319" lon="6.76718">
        <ele>398</ele>
        <time>2016-03-20T11:26:01.000Z</time>
      </trkpt>
      <trkpt lat="47.50323" lon="6.76717">
        <ele>398</ele>
        <time>2016-03-20T11:26:02.000Z</time>
      </trkpt>
      <trkpt lat="47.50326" lon="6.76715">
        <ele>398</ele>
        <time>2016-03-20T11:26:03.000Z</time>
      </trkpt>
      <trkpt lat="47.50329" lon="6.76715">
        <ele>398</ele>
        <time>2016-03-20T11:26:04.000Z</time>
      </trkpt>
      <trkpt lat="47.50333" lon="6.76715">
        <ele>398</ele>
        <time>2016-03-20T11:26:05.000Z</time>
      </trkpt>
      <trkpt lat="47.50337" lon="6.76713">
        <ele>398</ele>
        <time>2016-03-20T11:26:06.000Z</time>
      </trkpt>
      <trkpt lat="47.5034" lon="6.76714">
        <ele>398</ele>
        <time>2016-03-20T11:26:07.000Z</time>
      </trkpt>
      <trkpt lat="47.50345" lon="6.76713">
        <ele>398</ele>
        <time>2016-03-20T11:26:08.000Z</time>
      </trkpt>
      <trkpt lat="47.50348" lon="6.76713">
        <ele>398</ele>
        <time>2016-03-20T11:26:09.000Z</time>
      </trkpt>
      <trkpt lat="47.50351" lon="6.76712">
        <ele>398</ele>
        <time>2016-03-20T11:26:10.000Z</time>
      </trkpt>
      <trkpt lat="47.50356" lon="6.76709">
        <ele>398</ele>
        <time>2016-03-20T11:26:11.000Z</time>
      </trkpt>
      <trkpt lat="47.50359" lon="6.76709">
        <ele>398</ele>
        <time>2016-03-20T11:26:12.000Z</time>
      </trkpt>
      <trkpt lat="47.50362" lon="6.76709">
        <ele>398</ele>
        <time>2016-03-20T11:26:13.000Z</time>
      </trkpt>
      <trkpt lat="47.50365" lon="6.7671">
        <ele>398</ele>
        <time>2016-03-20T11:26:14.000Z</time>
      </trkpt>
      <trkpt lat="47.50369" lon="6.76709">
        <ele>398</ele>
        <time>2016-03-20T11:26:15.000Z</time>
      </trkpt>
      <trkpt lat="47.50372" lon="6.76709">
        <ele>398</ele>
        <time>2016-03-20T11:26:16.000Z</time>
      </trkpt>
      <trkpt lat="47.50377" lon="6.76704">
        <ele>397</ele>
        <time>2016-03-20T11:26:17.000Z</time>
      </trkpt>
      <trkpt lat="47.50381" lon="6.76703">
        <ele>397</ele>
        <time>2016-03-20T11:26:18.000Z</time>
      </trkpt>
      <trkpt lat="47.50384" lon="6.76703">
        <ele>397</ele>
        <time>2016-03-20T11:26:19.000Z</time>
      </trkpt>
      <trkpt lat="47.50388" lon="6.76702">
        <ele>397</ele>
        <time>2016-03-20T11:26:20.000Z</time>
      </trkpt>
      <trkpt lat="47.50392" lon="6.76701">
        <ele>397</ele>
        <time>2016-03-20T11:26:21.000Z</time>
      </trkpt>
      <trkpt lat="47.50395" lon="6.767">
        <ele>397</ele>
        <time>2016-03-20T11:26:22.000Z</time>
      </trkpt>
      <trkpt lat="47.50399" lon="6.76699">
        <ele>397</ele>
        <time>2016-03-20T11:26:23.000Z</time>
      </trkpt>
      <trkpt lat="47.50402" lon="6.76698">
        <ele>397</ele>
        <time>2016-03-20T11:26:24.000Z</time>
      </trkpt>
      <trkpt lat="47.50406" lon="6.76697">
        <ele>397</ele>
        <time>2016-03-20T11:26:25.000Z</time>
      </trkpt>
      <trkpt lat="47.50409" lon="6.76696">
        <ele>397</ele>
        <time>2016-03-20T11:26:26.000Z</time>
      </trkpt>
      <trkpt lat="47.50413" lon="6.76695">
        <ele>397</ele>
        <time>2016-03-20T11:26:27.000Z</time>
      </trkpt>
      <trkpt lat="47.50416" lon="6.76694">
        <ele>397</ele>
        <time>2016-03-20T11:26:28.000Z</time>
      </trkpt>
      <trkpt lat="47.5042" lon="6.76693">
        <ele>397</ele>
        <time>2016-03-20T11:26:29.000Z</time>
      </trkpt>
      <trkpt lat="47.50423" lon="6.76693">
        <ele>397</ele>
        <time>2016-03-20T11:26:30.000Z</time>
      </trkpt>
      <trkpt lat="47.50427" lon="6.76693">
        <ele>397</ele>
        <time>2016-03-20T11:26:31.000Z</time>
      </trkpt>
      <trkpt lat="47.5043" lon="6.76692">
        <ele>397</ele>
        <time>2016-03-20T11:26:32.000Z</time>
      </trkpt>
      <trkpt lat="47.50433" lon="6.76692">
        <ele>397</ele>
        <time>2016-03-20T11:26:33.000Z</time>
      </trkpt>
      <trkpt lat="47.50438" lon="6.76689">
        <ele>397</ele>
        <time>2016-03-20T11:26:34.000Z</time>
      </trkpt>
      <trkpt lat="47.50443" lon="6.76687">
        <ele>397</ele>
        <time>2016-03-20T11:26:35.000Z</time>
      </trkpt>
      <trkpt lat="47.50446" lon="6.76684">
        <ele>397</ele>
        <time>2016-03-20T11:26:36.000Z</time>
      </trkpt>
      <trkpt lat="47.50449" lon="6.76682">
        <ele>397</ele>
        <time>2016-03-20T11:26:37.000Z</time>
      </trkpt>
      <trkpt lat="47.50453" lon="6.76679">
        <ele>397</ele>
        <time>2016-03-20T11:26:38.000Z</time>
      </trkpt>
      <trkpt lat="47.50457" lon="6.76676">
        <ele>397</ele>
        <time>2016-03-20T11:26:39.000Z</time>
      </trkpt>
      <trkpt lat="47.5046" lon="6.76678">
        <ele>397</ele>
        <time>2016-03-20T11:26:40.000Z</time>
      </trkpt>
      <trkpt lat="47.50464" lon="6.76676">
        <ele>397</ele>
        <time>2016-03-20T11:26:41.000Z</time>
      </trkpt>
      <trkpt lat="47.50468" lon="6.76675">
        <ele>397</ele>
        <time>2016-03-20T11:26:42.000Z</time>
      </trkpt>
      <trkpt lat="47.50471" lon="6.76672">
        <ele>397</ele>
        <time>2016-03-20T11:26:43.000Z</time>
      </trkpt>
      <trkpt lat="47.50475" lon="6.76671">
        <ele>397</ele>
        <time>2016-03-20T11:26:44.000Z</time>
      </trkpt>
      <trkpt lat="47.50479" lon="6.7667">
        <ele>397</ele>
        <time>2016-03-20T11:26:45.000Z</time>
      </trkpt>
      <trkpt lat="47.50482" lon="6.76669">
        <ele>398</ele>
        <time>2016-03-20T11:26:46.000Z</time>
      </trkpt>
      <trkpt lat="47.50485" lon="6.76668">
        <ele>398</ele>
        <time>2016-03-20T11:26:47.000Z</time>
      </trkpt>
      <trkpt lat="47.50489" lon="6.76667">
        <ele>398</ele>
        <time>2016-03-20T11:26:48.000Z</time>
      </trkpt>
      <trkpt lat="47.50492" lon="6.76664">
        <ele>399</ele>
        <time>2016-03-20T11:26:49.000Z</time>
      </trkpt>
      <trkpt lat="47.50495" lon="6.76663">
        <ele>399</ele>
        <time>2016-03-20T11:26:50.000Z</time>
      </trkpt>
      <trkpt lat="47.50498" lon="6.76662">
        <ele>399</ele>
        <time>2016-03-20T11:26:51.000Z</time>
      </trkpt>
      <trkpt lat="47.50502" lon="6.76661">
        <ele>399</ele>
        <time>2016-03-20T11:26:52.000Z</time>
      </trkpt>
      <trkpt lat="47.50505" lon="6.76661">
        <ele>399</ele>
        <time>2016-03-20T11:26:53.000Z</time>
      </trkpt>
      <trkpt lat="47.50508" lon="6.76661">
        <ele>399</ele>
        <time>2016-03-20T11:26:54.000Z</time>
      </trkpt>
      <trkpt lat="47.50512" lon="6.7666">
        <ele>399</ele>
        <time>2016-03-20T11:26:55.000Z</time>
      </trkpt>
      <trkpt lat="47.50515" lon="6.7666">
        <ele>399</ele>
        <time>2016-03-20T11:26:56.000Z</time>
      </trkpt>
      <trkpt lat="47.50518" lon="6.76659">
        <ele>399</ele>
        <time>2016-03-20T11:26:57.000Z</time>
      </trkpt>
      <trkpt lat="47.50522" lon="6.76658">
        <ele>399</ele>
        <time>2016-03-20T11:26:58.000Z</time>
      </trkpt>
      <trkpt lat="47.50525" lon="6.76657">
        <ele>399</ele>
        <time>2016-03-20T11:26:59.000Z</time>
      </trkpt>
      <trkpt lat="47.50528" lon="6.76655">
        <ele>399</ele>
        <time>2016-03-20T11:27:00.000Z</time>
      </trkpt>
      <trkpt lat="47.50532" lon="6.76655">
        <ele>399</ele>
        <time>2016-03-20T11:27:01.000Z</time>
      </trkpt>
      <trkpt lat="47.50535" lon="6.76655">
        <ele>399</ele>
        <time>2016-03-20T11:27:02.000Z</time>
      </trkpt>
      <trkpt lat="47.50538" lon="6.76656">
        <ele>399</ele>
        <time>2016-03-20T11:27:03.000Z</time>
      </trkpt>
      <trkpt lat="47.50541" lon="6.76657">
        <ele>399</ele>
        <time>2016-03-20T11:27:04.000Z</time>
      </trkpt>
      <trkpt lat="47.50544" lon="6.76657">
        <ele>399</ele>
        <time>2016-03-20T11:27:05.000Z</time>
      </trkpt>
      <trkpt lat="47.50548" lon="6.76657">
        <ele>399</ele>
        <time>2016-03-20T11:27:06.000Z</time>
      </trkpt>
      <trkpt lat="47.50552" lon="6.76656">
        <ele>399</ele>
        <time>2016-03-20T11:27:07.000Z</time>
      </trkpt>
      <trkpt lat="47.50556" lon="6.76655">
        <ele>399</ele>
        <time>2016-03-20T11:27:08.000Z</time>
      </trkpt>
      <trkpt lat="47.5056" lon="6.76654">
        <ele>399</ele>
        <time>2016-03-20T11:27:09.000Z</time>
      </trkpt>
      <trkpt lat="47.50564" lon="6.76653">
        <ele>399</ele>
        <time>2016-03-20T11:27:10.000Z</time>
      </trkpt>
      <trkpt lat="47.50567" lon="6.76652">
        <ele>399</ele>
        <time>2016-03-20T11:27:11.000Z</time>
      </trkpt>
      <trkpt lat="47.50571" lon="6.76651">
        <ele>399</ele>
        <time>2016-03-20T11:27:12.000Z</time>
      </trkpt>
      <trkpt lat="47.50575" lon="6.7665">
        <ele>399</ele>
        <time>2016-03-20T11:27:13.000Z</time>
      </trkpt>
      <trkpt lat="47.5058" lon="6.76648">
        <ele>399</ele>
        <time>2016-03-20T11:27:14.000Z</time>
      </trkpt>
      <trkpt lat="47.50584" lon="6.76645">
        <ele>398</ele>
        <time>2016-03-20T11:27:15.000Z</time>
      </trkpt>
      <trkpt lat="47.50589" lon="6.76642">
        <ele>398</ele>
        <time>2016-03-20T11:27:16.000Z</time>
      </trkpt>
      <trkpt lat="47.50593" lon="6.7664">
        <ele>398</ele>
        <time>2016-03-20T11:27:17.000Z</time>
      </trkpt>
      <trkpt lat="47.50598" lon="6.76637">
        <ele>398</ele>
        <time>2016-03-20T11:27:18.000Z</time>
      </trkpt>
      <trkpt lat="47.50602" lon="6.76635">
        <ele>398</ele>
        <time>2016-03-20T11:27:19.000Z</time>
      </trkpt>
      <trkpt lat="47.50606" lon="6.76633">
        <ele>397</ele>
        <time>2016-03-20T11:27:20.000Z</time>
      </trkpt>
      <trkpt lat="47.5061" lon="6.7663">
        <ele>397</ele>
        <time>2016-03-20T11:27:21.000Z</time>
      </trkpt>
      <trkpt lat="47.50615" lon="6.76628">
        <ele>397</ele>
        <time>2016-03-20T11:27:22.000Z</time>
      </trkpt>
      <trkpt lat="47.50619" lon="6.76625">
        <ele>397</ele>
        <time>2016-03-20T11:27:23.000Z</time>
      </trkpt>
      <trkpt lat="47.50623" lon="6.76623">
        <ele>397</ele>
        <time>2016-03-20T11:27:24.000Z</time>
      </trkpt>
      <trkpt lat="47.50626" lon="6.76621">
        <ele>397</ele>
        <time>2016-03-20T11:27:25.000Z</time>
      </trkpt>
      <trkpt lat="47.5063" lon="6.76619">
        <ele>397</ele>
        <time>2016-03-20T11:27:26.000Z</time>
      </trkpt>
      <trkpt lat="47.50634" lon="6.76618">
        <ele>397</ele>
        <time>2016-03-20T11:27:27.001Z</time>
      </trkpt>
      <trkpt lat="47.50637" lon="6.76617">
        <ele>397</ele>
        <time>2016-03-20T11:27:28.000Z</time>
      </trkpt>
      <trkpt lat="47.50641" lon="6.76614">
        <ele>397</ele>
        <time>2016-03-20T11:27:29.000Z</time>
      </trkpt>
      <trkpt lat="47.50644" lon="6.76613">
        <ele>397</ele>
        <time>2016-03-20T11:27:29.999Z</time>
      </trkpt>
      <trkpt lat="47.50649" lon="6.76608">
        <ele>397</ele>
        <time>2016-03-20T11:27:31.000Z</time>
      </trkpt>
      <trkpt lat="47.50653" lon="6.76605">
        <ele>397</ele>
        <time>2016-03-20T11:27:32.000Z</time>
      </trkpt>
      <trkpt lat="47.50659" lon="6.76603">
        <ele>397</ele>
        <time>2016-03-20T11:27:33.000Z</time>
      </trkpt>
      <trkpt lat="47.50665" lon="6.766">
        <ele>397</ele>
        <time>2016-03-20T11:27:34.000Z</time>
      </trkpt>
      <trkpt lat="47.5067" lon="6.766">
        <ele>396</ele>
        <time>2016-03-20T11:27:35.000Z</time>
      </trkpt>
      <trkpt lat="47.50675" lon="6.76598">
        <ele>396</ele>
        <time>2016-03-20T11:27:36.000Z</time>
      </trkpt>
      <trkpt lat="47.5068" lon="6.76598">
        <ele>396</ele>
        <time>2016-03-20T11:27:37.000Z</time>
      </trkpt>
      <trkpt lat="47.50686" lon="6.76597">
        <ele>395</ele>
        <time>2016-03-20T11:27:38.000Z</time>
      </trkpt>
      <trkpt lat="47.50691" lon="6.76596">
        <ele>395</ele>
        <time>2016-03-20T11:27:39.000Z</time>
      </trkpt>
      <trkpt lat="47.50697" lon="6.76596">
        <ele>395</ele>
        <time>2016-03-20T11:27:40.000Z</time>
      </trkpt>
      <trkpt lat="47.50701" lon="6.76597">
        <ele>395</ele>
        <time>2016-03-20T11:27:41.000Z</time>
      </trkpt>
      <trkpt lat="47.50707" lon="6.76597">
        <ele>395</ele>
        <time>2016-03-20T11:27:42.000Z</time>
      </trkpt>
      <trkpt lat="47.50713" lon="6.76598">
        <ele>395</ele>
        <time>2016-03-20T11:27:43.000Z</time>
      </trkpt>
      <trkpt lat="47.50717" lon="6.76599">
        <ele>394</ele>
        <time>2016-03-20T11:27:44.000Z</time>
      </trkpt>
      <trkpt lat="47.50722" lon="6.766">
        <ele>394</ele>
        <time>2016-03-20T11:27:45.000Z</time>
      </trkpt>
      <trkpt lat="47.50727" lon="6.766">
        <ele>394</ele>
        <time>2016-03-20T11:27:46.000Z</time>
      </trkpt>
      <trkpt lat="47.50731" lon="6.76601">
        <ele>394</ele>
        <time>2016-03-20T11:27:47.000Z</time>
      </trkpt>
      <trkpt lat="47.50735" lon="6.76601">
        <ele>394</ele>
        <time>2016-03-20T11:27:48.000Z</time>
      </trkpt>
      <trkpt lat="47.50738" lon="6.76602">
        <ele>394</ele>
        <time>2016-03-20T11:27:49.000Z</time>
      </trkpt>
      <trkpt lat="47.50742" lon="6.76603">
        <ele>394</ele>
        <time>2016-03-20T11:27:50.000Z</time>
      </trkpt>
      <trkpt lat="47.50746" lon="6.76603">
        <ele>394</ele>
        <time>2016-03-20T11:27:51.000Z</time>
      </trkpt>
      <trkpt lat="47.5075" lon="6.76603">
        <ele>392</ele>
        <time>2016-03-20T11:27:52.000Z</time>
      </trkpt>
      <trkpt lat="47.50755" lon="6.76604">
        <ele>392</ele>
        <time>2016-03-20T11:27:53.000Z</time>
      </trkpt>
      <trkpt lat="47.50759" lon="6.76603">
        <ele>392</ele>
        <time>2016-03-20T11:27:54.000Z</time>
      </trkpt>
      <trkpt lat="47.50763" lon="6.76603">
        <ele>392</ele>
        <time>2016-03-20T11:27:55.000Z</time>
      </trkpt>
      <trkpt lat="47.50768" lon="6.76603">
        <ele>392</ele>
        <time>2016-03-20T11:27:56.000Z</time>
      </trkpt>
      <trkpt lat="47.50772" lon="6.76602">
        <ele>392</ele>
        <time>2016-03-20T11:27:57.000Z</time>
      </trkpt>
      <trkpt lat="47.50775" lon="6.76602">
        <ele>392</ele>
        <time>2016-03-20T11:27:58.000Z</time>
      </trkpt>
      <trkpt lat="47.50779" lon="6.76601">
        <ele>391</ele>
        <time>2016-03-20T11:27:59.000Z</time>
      </trkpt>
      <trkpt lat="47.50782" lon="6.766">
        <ele>391</ele>
        <time>2016-03-20T11:28:00.000Z</time>
      </trkpt>
      <trkpt lat="47.50785" lon="6.76599">
        <ele>391</ele>
        <time>2016-03-20T11:28:01.000Z</time>
      </trkpt>
      <trkpt lat="47.50788" lon="6.76598">
        <ele>391</ele>
        <time>2016-03-20T11:28:02.000Z</time>
      </trkpt>
      <trkpt lat="47.5079" lon="6.76595">
        <ele>391</ele>
        <time>2016-03-20T11:28:15.000Z</time>
      </trkpt>
      <trkpt lat="47.50792" lon="6.76595">
        <ele>391</ele>
        <time>2016-03-20T11:28:16.000Z</time>
      </trkpt>
      <trkpt lat="47.50795" lon="6.76595">
        <ele>391</ele>
        <time>2016-03-20T11:28:17.000Z</time>
      </trkpt>
      <trkpt lat="47.50798" lon="6.76595">
        <ele>391</ele>
        <time>2016-03-20T11:28:18.000Z</time>
      </trkpt>
      <trkpt lat="47.50801" lon="6.76595">
        <ele>391</ele>
        <time>2016-03-20T11:28:19.000Z</time>
      </trkpt>
      <trkpt lat="47.50804" lon="6.76596">
        <ele>391</ele>
        <time>2016-03-20T11:28:20.000Z</time>
      </trkpt>
      <trkpt lat="47.50805" lon="6.76598">
        <ele>390</ele>
        <time>2016-03-20T11:28:21.000Z</time>
      </trkpt>
      <trkpt lat="47.50807" lon="6.76602">
        <ele>390</ele>
        <time>2016-03-20T11:28:22.000Z</time>
      </trkpt>
      <trkpt lat="47.50808" lon="6.76606">
        <ele>390</ele>
        <time>2016-03-20T11:28:23.000Z</time>
      </trkpt>
      <trkpt lat="47.5081" lon="6.76611">
        <ele>390</ele>
        <time>2016-03-20T11:28:24.000Z</time>
      </trkpt>
      <trkpt lat="47.50814" lon="6.76621">
        <ele>390</ele>
        <time>2016-03-20T11:28:25.000Z</time>
      </trkpt>
      <trkpt lat="47.50817" lon="6.76626">
        <ele>390</ele>
        <time>2016-03-20T11:28:26.000Z</time>
      </trkpt>
      <trkpt lat="47.5082" lon="6.76633">
        <ele>390</ele>
        <time>2016-03-20T11:28:27.000Z</time>
      </trkpt>
      <trkpt lat="47.50824" lon="6.7664">
        <ele>390</ele>
        <time>2016-03-20T11:28:28.000Z</time>
      </trkpt>
      <trkpt lat="47.50827" lon="6.76648">
        <ele>390</ele>
        <time>2016-03-20T11:28:29.000Z</time>
      </trkpt>
      <trkpt lat="47.5083" lon="6.76655">
        <ele>390</ele>
        <time>2016-03-20T11:28:30.000Z</time>
      </trkpt>
      <trkpt lat="47.50834" lon="6.76666">
        <ele>389</ele>
        <time>2016-03-20T11:28:31.000Z</time>
      </trkpt>
      <trkpt lat="47.50836" lon="6.76676">
        <ele>387</ele>
        <time>2016-03-20T11:28:31.999Z</time>
      </trkpt>
      <trkpt lat="47.5084" lon="6.76684">
        <ele>386</ele>
        <time>2016-03-20T11:28:33.000Z</time>
      </trkpt>
      <trkpt lat="47.50845" lon="6.76692">
        <ele>385</ele>
        <time>2016-03-20T11:28:34.000Z</time>
      </trkpt>
      <trkpt lat="47.5085" lon="6.76699">
        <ele>385</ele>
        <time>2016-03-20T11:28:35.000Z</time>
      </trkpt>
      <trkpt lat="47.50853" lon="6.76709">
        <ele>384</ele>
        <time>2016-03-20T11:28:36.000Z</time>
      </trkpt>
      <trkpt lat="47.50857" lon="6.76718">
        <ele>384</ele>
        <time>2016-03-20T11:28:37.000Z</time>
      </trkpt>
      <trkpt lat="47.50861" lon="6.76726">
        <ele>384</ele>
        <time>2016-03-20T11:28:38.000Z</time>
      </trkpt>
      <trkpt lat="47.50864" lon="6.76736">
        <ele>384</ele>
        <time>2016-03-20T11:28:39.000Z</time>
      </trkpt>
      <trkpt lat="47.50867" lon="6.76746">
        <ele>383</ele>
        <time>2016-03-20T11:28:40.000Z</time>
      </trkpt>
      <trkpt lat="47.50871" lon="6.76754">
        <ele>382</ele>
        <time>2016-03-20T11:28:41.002Z</time>
      </trkpt>
      <trkpt lat="47.50874" lon="6.76764">
        <ele>382</ele>
        <time>2016-03-20T11:28:42.000Z</time>
      </trkpt>
      <trkpt lat="47.50877" lon="6.76773">
        <ele>382</ele>
        <time>2016-03-20T11:28:43.000Z</time>
      </trkpt>
      <trkpt lat="47.5088" lon="6.76783">
        <ele>382</ele>
        <time>2016-03-20T11:28:44.000Z</time>
      </trkpt>
      <trkpt lat="47.50884" lon="6.76791">
        <ele>381</ele>
        <time>2016-03-20T11:28:45.000Z</time>
      </trkpt>
      <trkpt lat="47.50888" lon="6.768">
        <ele>381</ele>
        <time>2016-03-20T11:28:46.000Z</time>
      </trkpt>
      <trkpt lat="47.50891" lon="6.76809">
        <ele>381</ele>
        <time>2016-03-20T11:28:47.000Z</time>
      </trkpt>
      <trkpt lat="47.50895" lon="6.76817">
        <ele>381</ele>
        <time>2016-03-20T11:28:48.000Z</time>
      </trkpt>
      <trkpt lat="47.50899" lon="6.76825">
        <ele>381</ele>
        <time>2016-03-20T11:28:49.000Z</time>
      </trkpt>
      <trkpt lat="47.50902" lon="6.76833">
        <ele>380</ele>
        <time>2016-03-20T11:28:50.000Z</time>
      </trkpt>
      <trkpt lat="47.50906" lon="6.76842">
        <ele>380</ele>
        <time>2016-03-20T11:28:51.000Z</time>
      </trkpt>
      <trkpt lat="47.50909" lon="6.76851">
        <ele>380</ele>
        <time>2016-03-20T11:28:52.000Z</time>
      </trkpt>
      <trkpt lat="47.50913" lon="6.76859">
        <ele>380</ele>
        <time>2016-03-20T11:28:53.000Z</time>
      </trkpt>
      <trkpt lat="47.50917" lon="6.76867">
        <ele>379</ele>
        <time>2016-03-20T11:28:54.000Z</time>
      </trkpt>
      <trkpt lat="47.5092" lon="6.76877">
        <ele>378</ele>
        <time>2016-03-20T11:28:55.000Z</time>
      </trkpt>
      <trkpt lat="47.50924" lon="6.76886">
        <ele>378</ele>
        <time>2016-03-20T11:28:56.000Z</time>
      </trkpt>
      <trkpt lat="47.50928" lon="6.76894">
        <ele>378</ele>
        <time>2016-03-20T11:28:57.000Z</time>
      </trkpt>
      <trkpt lat="47.50934" lon="6.76898">
        <ele>378</ele>
        <time>2016-03-20T11:28:58.000Z</time>
      </trkpt>
      <trkpt lat="47.50941" lon="6.76903">
        <ele>378</ele>
        <time>2016-03-20T11:28:59.000Z</time>
      </trkpt>
      <trkpt lat="47.50946" lon="6.76908">
        <ele>378</ele>
        <time>2016-03-20T11:29:00.000Z</time>
      </trkpt>
      <trkpt lat="47.50947" lon="6.76909">
        <ele>378</ele>
        <time>2016-03-20T11:29:00.111Z</time>
      </trkpt>
      <trkpt lat="47.50955" lon="6.76919">
        <ele>374</ele>
        <time>2016-03-20T11:29:02.000Z</time>
      </trkpt>
      <trkpt lat="47.50959" lon="6.76925">
        <ele>374</ele>
        <time>2016-03-20T11:29:03.000Z</time>
      </trkpt>
      <trkpt lat="47.50962" lon="6.76934">
        <ele>374</ele>
        <time>2016-03-20T11:29:04.000Z</time>
      </trkpt>
      <trkpt lat="47.50966" lon="6.76938">
        <ele>374</ele>
        <time>2016-03-20T11:29:05.000Z</time>
      </trkpt>
      <trkpt lat="47.50973" lon="6.76945">
        <ele>374</ele>
        <time>2016-03-20T11:29:06.000Z</time>
      </trkpt>
      <trkpt lat="47.5098" lon="6.76948">
        <ele>374</ele>
        <time>2016-03-20T11:29:07.000Z</time>
      </trkpt>
      <trkpt lat="47.50986" lon="6.76948">
        <ele>374</ele>
        <time>2016-03-20T11:29:08.000Z</time>
      </trkpt>
      <trkpt lat="47.50993" lon="6.76947">
        <ele>374</ele>
        <time>2016-03-20T11:29:09.000Z</time>
      </trkpt>
      <trkpt lat="47.51" lon="6.76948">
        <ele>374</ele>
        <time>2016-03-20T11:29:10.000Z</time>
      </trkpt>
      <trkpt lat="47.51007" lon="6.7695">
        <ele>375</ele>
        <time>2016-03-20T11:29:11.000Z</time>
      </trkpt>
      <trkpt lat="47.51013" lon="6.76954">
        <ele>375</ele>
        <time>2016-03-20T11:29:12.000Z</time>
      </trkpt>
      <trkpt lat="47.51019" lon="6.76956">
        <ele>375</ele>
        <time>2016-03-20T11:29:13.000Z</time>
      </trkpt>
      <trkpt lat="47.51025" lon="6.76961">
        <ele>375</ele>
        <time>2016-03-20T11:29:14.000Z</time>
      </trkpt>
      <trkpt lat="47.51031" lon="6.76965">
        <ele>375</ele>
        <time>2016-03-20T11:29:15.000Z</time>
      </trkpt>
      <trkpt lat="47.51036" lon="6.7697">
        <ele>375</ele>
        <time>2016-03-20T11:29:16.000Z</time>
      </trkpt>
      <trkpt lat="47.51041" lon="6.76975">
        <ele>375</ele>
        <time>2016-03-20T11:29:17.000Z</time>
      </trkpt>
      <trkpt lat="47.51046" lon="6.7698">
        <ele>375</ele>
        <time>2016-03-20T11:29:18.000Z</time>
      </trkpt>
      <trkpt lat="47.51051" lon="6.76985">
        <ele>375</ele>
        <time>2016-03-20T11:29:19.000Z</time>
      </trkpt>
      <trkpt lat="47.51057" lon="6.76991">
        <ele>375</ele>
        <time>2016-03-20T11:29:20.000Z</time>
      </trkpt>
      <trkpt lat="47.51061" lon="6.76996">
        <ele>375</ele>
        <time>2016-03-20T11:29:21.000Z</time>
      </trkpt>
      <trkpt lat="47.51067" lon="6.77001">
        <ele>373</ele>
        <time>2016-03-20T11:29:22.000Z</time>
      </trkpt>
      <trkpt lat="47.51074" lon="6.77003">
        <ele>374</ele>
        <time>2016-03-20T11:29:23.000Z</time>
      </trkpt>
      <trkpt lat="47.5108" lon="6.77007">
        <ele>374</ele>
        <time>2016-03-20T11:29:24.000Z</time>
      </trkpt>
      <trkpt lat="47.51085" lon="6.77012">
        <ele>375</ele>
        <time>2016-03-20T11:29:25.000Z</time>
      </trkpt>
      <trkpt lat="47.5109" lon="6.77017">
        <ele>375</ele>
        <time>2016-03-20T11:29:25.999Z</time>
      </trkpt>
      <trkpt lat="47.51095" lon="6.77023">
        <ele>375</ele>
        <time>2016-03-20T11:29:27.000Z</time>
      </trkpt>
      <trkpt lat="47.51101" lon="6.77028">
        <ele>375</ele>
        <time>2016-03-20T11:29:28.000Z</time>
      </trkpt>
      <trkpt lat="47.51106" lon="6.77033">
        <ele>375</ele>
        <time>2016-03-20T11:29:29.000Z</time>
      </trkpt>
      <trkpt lat="47.51111" lon="6.77036">
        <ele>375</ele>
        <time>2016-03-20T11:29:30.000Z</time>
      </trkpt>
      <trkpt lat="47.51115" lon="6.77041">
        <ele>375</ele>
        <time>2016-03-20T11:29:31.000Z</time>
      </trkpt>
      <trkpt lat="47.5112" lon="6.77045">
        <ele>375</ele>
        <time>2016-03-20T11:29:32.000Z</time>
      </trkpt>
      <trkpt lat="47.51124" lon="6.7705">
        <ele>375</ele>
        <time>2016-03-20T11:29:33.000Z</time>
      </trkpt>
      <trkpt lat="47.51126" lon="6.77056">
        <ele>375</ele>
        <time>2016-03-20T11:29:34.000Z</time>
      </trkpt>
      <trkpt lat="47.51132" lon="6.77057">
        <ele>375</ele>
        <time>2016-03-20T11:29:35.000Z</time>
      </trkpt>
      <trkpt lat="47.51137" lon="6.77061">
        <ele>376</ele>
        <time>2016-03-20T11:29:36.000Z</time>
      </trkpt>
      <trkpt lat="47.51142" lon="6.77064">
        <ele>376</ele>
        <time>2016-03-20T11:29:37.000Z</time>
      </trkpt>
      <trkpt lat="47.51146" lon="6.77067">
        <ele>376</ele>
        <time>2016-03-20T11:29:38.000Z</time>
      </trkpt>
      <trkpt lat="47.51148" lon="6.77072">
        <ele>376</ele>
        <time>2016-03-20T11:29:39.000Z</time>
      </trkpt>
      <trkpt lat="47.51151" lon="6.77078">
        <ele>377</ele>
        <time>2016-03-20T11:29:40.000Z</time>
      </trkpt>
      <trkpt lat="47.51156" lon="6.77083">
        <ele>377</ele>
        <time>2016-03-20T11:29:41.000Z</time>
      </trkpt>
      <trkpt lat="47.5116" lon="6.77086">
        <ele>377</ele>
        <time>2016-03-20T11:29:42.000Z</time>
      </trkpt>
      <trkpt lat="47.51163" lon="6.77092">
        <ele>376</ele>
        <time>2016-03-20T11:29:43.000Z</time>
      </trkpt>
      <trkpt lat="47.51166" lon="6.77097">
        <ele>376</ele>
        <time>2016-03-20T11:29:44.000Z</time>
      </trkpt>
      <trkpt lat="47.51169" lon="6.77102">
        <ele>378</ele>
        <time>2016-03-20T11:29:45.000Z</time>
      </trkpt>
      <trkpt lat="47.51175" lon="6.77104">
        <ele>378</ele>
        <time>2016-03-20T11:29:46.000Z</time>
      </trkpt>
      <trkpt lat="47.51179" lon="6.77108">
        <ele>378</ele>
        <time>2016-03-20T11:29:47.000Z</time>
      </trkpt>
      <trkpt lat="47.51182" lon="6.77115">
        <ele>378</ele>
        <time>2016-03-20T11:29:48.000Z</time>
      </trkpt>
      <trkpt lat="47.51185" lon="6.77121">
        <ele>378</ele>
        <time>2016-03-20T11:29:49.000Z</time>
      </trkpt>
      <trkpt lat="47.51187" lon="6.77126">
        <ele>378</ele>
        <time>2016-03-20T11:29:50.000Z</time>
      </trkpt>
      <trkpt lat="47.51191" lon="6.77131">
        <ele>378</ele>
        <time>2016-03-20T11:29:51.000Z</time>
      </trkpt>
      <trkpt lat="47.51194" lon="6.77137">
        <ele>378</ele>
        <time>2016-03-20T11:29:52.000Z</time>
      </trkpt>
      <trkpt lat="47.51197" lon="6.77143">
        <ele>378</ele>
        <time>2016-03-20T11:29:53.000Z</time>
      </trkpt>
      <trkpt lat="47.51198" lon="6.77148">
        <ele>378</ele>
        <time>2016-03-20T11:29:54.000Z</time>
      </trkpt>
      <trkpt lat="47.51201" lon="6.77153">
        <ele>378</ele>
        <time>2016-03-20T11:29:55.000Z</time>
      </trkpt>
      <trkpt lat="47.51204" lon="6.77158">
        <ele>378</ele>
        <time>2016-03-20T11:29:56.000Z</time>
      </trkpt>
      <trkpt lat="47.51206" lon="6.77163">
        <ele>378</ele>
        <time>2016-03-20T11:29:57.000Z</time>
      </trkpt>
      <trkpt lat="47.51208" lon="6.77167">
        <ele>376</ele>
        <time>2016-03-20T11:29:58.000Z</time>
      </trkpt>
      <trkpt lat="47.51209" lon="6.77171">
        <ele>376</ele>
        <time>2016-03-20T11:29:59.000Z</time>
      </trkpt>
      <trkpt lat="47.51211" lon="6.77174">
        <ele>376</ele>
        <time>2016-03-20T11:30:00.000Z</time>
      </trkpt>
      <trkpt lat="47.51213" lon="6.77178">
        <ele>376</ele>
        <time>2016-03-20T11:30:01.000Z</time>
      </trkpt>
      <trkpt lat="47.51214" lon="6.77183">
        <ele>376</ele>
        <time>2016-03-20T11:30:02.000Z</time>
      </trkpt>
      <trkpt lat="47.51216" lon="6.77187">
        <ele>376</ele>
        <time>2016-03-20T11:30:03.000Z</time>
      </trkpt>
      <trkpt lat="47.51217" lon="6.77191">
        <ele>376</ele>
        <time>2016-03-20T11:30:04.000Z</time>
      </trkpt>
      <trkpt lat="47.51219" lon="6.77194">
        <ele>376</ele>
        <time>2016-03-20T11:30:05.000Z</time>
      </trkpt>
      <trkpt lat="47.5122" lon="6.77198">
        <ele>376</ele>
        <time>2016-03-20T11:30:07.000Z</time>
      </trkpt>
      <trkpt lat="47.51222" lon="6.772">
        <ele>376</ele>
        <time>2016-03-20T11:30:08.000Z</time>
      </trkpt>
      <trkpt lat="47.51224" lon="6.77203">
        <ele>376</ele>
        <time>2016-03-20T11:30:09.000Z</time>
      </trkpt>
      <trkpt lat="47.51227" lon="6.77208">
        <ele>376</ele>
        <time>2016-03-20T11:30:10.000Z</time>
      </trkpt>
      <trkpt lat="47.5123" lon="6.77213">
        <ele>376</ele>
        <time>2016-03-20T11:30:11.000Z</time>
      </trkpt>
      <trkpt lat="47.51233" lon="6.77218">
        <ele>376</ele>
        <time>2016-03-20T11:30:12.000Z</time>
      </trkpt>
      <trkpt lat="47.51236" lon="6.77222">
        <ele>376</ele>
        <time>2016-03-20T11:30:13.000Z</time>
      </trkpt>
      <trkpt lat="47.51239" lon="6.77227">
        <ele>376</ele>
        <time>2016-03-20T11:30:14.000Z</time>
      </trkpt>
      <trkpt lat="47.51241" lon="6.77232">
        <ele>377</ele>
        <time>2016-03-20T11:30:15.000Z</time>
      </trkpt>
      <trkpt lat="47.51244" lon="6.77236">
        <ele>377</ele>
        <time>2016-03-20T11:30:16.000Z</time>
      </trkpt>
      <trkpt lat="47.51246" lon="6.77239">
        <ele>377</ele>
        <time>2016-03-20T11:30:17.000Z</time>
      </trkpt>
      <trkpt lat="47.51248" lon="6.77242">
        <ele>378</ele>
        <time>2016-03-20T11:30:18.000Z</time>
      </trkpt>
      <trkpt lat="47.51249" lon="6.77244">
        <ele>378</ele>
        <time>2016-03-20T11:30:19.001Z</time>
      </trkpt>
      <trkpt lat="47.51262" lon="6.7725">
        <ele>378</ele>
        <time>2016-03-20T11:30:20.000Z</time>
      </trkpt>
      <trkpt lat="47.51265" lon="6.77252">
        <ele>378</ele>
        <time>2016-03-20T11:30:21.001Z</time>
      </trkpt>
      <trkpt lat="47.51269" lon="6.77262">
        <ele>377</ele>
        <time>2016-03-20T11:30:22.000Z</time>
      </trkpt>
      <trkpt lat="47.51272" lon="6.77265">
        <ele>377</ele>
        <time>2016-03-20T11:30:23.001Z</time>
      </trkpt>
      <trkpt lat="47.51278" lon="6.77269">
        <ele>377</ele>
        <time>2016-03-20T11:30:24.000Z</time>
      </trkpt>
      <trkpt lat="47.51284" lon="6.77273">
        <ele>377</ele>
        <time>2016-03-20T11:30:25.000Z</time>
      </trkpt>
      <trkpt lat="47.51288" lon="6.77274">
        <ele>377</ele>
        <time>2016-03-20T11:30:26.000Z</time>
      </trkpt>
      <trkpt lat="47.51292" lon="6.77276">
        <ele>377</ele>
        <time>2016-03-20T11:30:27.000Z</time>
      </trkpt>
      <trkpt lat="47.51301" lon="6.77277">
        <ele>377</ele>
        <time>2016-03-20T11:30:28.000Z</time>
      </trkpt>
      <trkpt lat="47.51306" lon="6.77279">
        <ele>377</ele>
        <time>2016-03-20T11:30:28.999Z</time>
      </trkpt>
      <trkpt lat="47.51312" lon="6.77285">
        <ele>377</ele>
        <time>2016-03-20T11:30:30.000Z</time>
      </trkpt>
      <trkpt lat="47.51318" lon="6.77288">
        <ele>377</ele>
        <time>2016-03-20T11:30:31.000Z</time>
      </trkpt>
      <trkpt lat="47.51324" lon="6.77289">
        <ele>378</ele>
        <time>2016-03-20T11:30:32.000Z</time>
      </trkpt>
      <trkpt lat="47.5133" lon="6.77288">
        <ele>378</ele>
        <time>2016-03-20T11:30:33.000Z</time>
      </trkpt>
      <trkpt lat="47.51336" lon="6.77286">
        <ele>378</ele>
        <time>2016-03-20T11:30:34.000Z</time>
      </trkpt>
      <trkpt lat="47.51341" lon="6.77287">
        <ele>378</ele>
        <time>2016-03-20T11:30:35.000Z</time>
      </trkpt>
      <trkpt lat="47.51346" lon="6.77287">
        <ele>378</ele>
        <time>2016-03-20T11:30:36.001Z</time>
      </trkpt>
      <trkpt lat="47.51353" lon="6.7728">
        <ele>378</ele>
        <time>2016-03-20T11:30:37.000Z</time>
      </trkpt>
      <trkpt lat="47.51362" lon="6.7727">
        <ele>378</ele>
        <time>2016-03-20T11:30:38.000Z</time>
      </trkpt>
      <trkpt lat="47.5137" lon="6.77264">
        <ele>378</ele>
        <time>2016-03-20T11:30:39.000Z</time>
      </trkpt>
      <trkpt lat="47.51378" lon="6.77259">
        <ele>377</ele>
        <time>2016-03-20T11:30:40.000Z</time>
      </trkpt>
      <trkpt lat="47.51386" lon="6.77255">
        <ele>377</ele>
        <time>2016-03-20T11:30:41.000Z</time>
      </trkpt>
      <trkpt lat="47.51394" lon="6.77251">
        <ele>377</ele>
        <time>2016-03-20T11:30:42.000Z</time>
      </trkpt>
      <trkpt lat="47.51401" lon="6.77248">
        <ele>376</ele>
        <time>2016-03-20T11:30:43.000Z</time>
      </trkpt>
      <trkpt lat="47.51409" lon="6.77245">
        <ele>376</ele>
        <time>2016-03-20T11:30:44.000Z</time>
      </trkpt>
      <trkpt lat="47.51417" lon="6.77239">
        <ele>376</ele>
        <time>2016-03-20T11:30:45.000Z</time>
      </trkpt>
      <trkpt lat="47.51425" lon="6.77235">
        <ele>376</ele>
        <time>2016-03-20T11:30:46.000Z</time>
      </trkpt>
      <trkpt lat="47.51432" lon="6.77232">
        <ele>375</ele>
        <time>2016-03-20T11:30:47.000Z</time>
      </trkpt>
      <trkpt lat="47.51439" lon="6.77229">
        <ele>375</ele>
        <time>2016-03-20T11:30:48.000Z</time>
      </trkpt>
      <trkpt lat="47.51447" lon="6.77225">
        <ele>375</ele>
        <time>2016-03-20T11:30:49.000Z</time>
      </trkpt>
      <trkpt lat="47.51454" lon="6.77222">
        <ele>375</ele>
        <time>2016-03-20T11:30:50.000Z</time>
      </trkpt>
      <trkpt lat="47.5146" lon="6.77219">
        <ele>375</ele>
        <time>2016-03-20T11:30:51.000Z</time>
      </trkpt>
      <trkpt lat="47.51466" lon="6.77216">
        <ele>375</ele>
        <time>2016-03-20T11:30:52.000Z</time>
      </trkpt>
      <trkpt lat="47.51471" lon="6.77214">
        <ele>375</ele>
        <time>2016-03-20T11:30:53.000Z</time>
      </trkpt>
      <trkpt lat="47.51474" lon="6.77215">
        <ele>375</ele>
        <time>2016-03-20T11:30:54.000Z</time>
      </trkpt>
      <trkpt lat="47.51478" lon="6.77215">
        <ele>375</ele>
        <time>2016-03-20T11:30:55.000Z</time>
      </trkpt>
      <trkpt lat="47.5148" lon="6.77219">
        <ele>375</ele>
        <time>2016-03-20T11:30:56.000Z</time>
      </trkpt>
      <trkpt lat="47.5148" lon="6.77224">
        <ele>375</ele>
        <time>2016-03-20T11:30:57.000Z</time>
      </trkpt>
      <trkpt lat="47.5148" lon="6.7723">
        <ele>375</ele>
        <time>2016-03-20T11:30:58.000Z</time>
      </trkpt>
      <trkpt lat="47.51481" lon="6.77236">
        <ele>375</ele>
        <time>2016-03-20T11:30:59.000Z</time>
      </trkpt>
      <trkpt lat="47.51481" lon="6.77244">
        <ele>375</ele>
        <time>2016-03-20T11:31:00.000Z</time>
      </trkpt>
      <trkpt lat="47.51481" lon="6.7725">
        <ele>376</ele>
        <time>2016-03-20T11:31:01.000Z</time>
      </trkpt>
      <trkpt lat="47.51481" lon="6.77258">
        <ele>376</ele>
        <time>2016-03-20T11:31:02.000Z</time>
      </trkpt>
      <trkpt lat="47.51482" lon="6.77265">
        <ele>376</ele>
        <time>2016-03-20T11:31:03.000Z</time>
      </trkpt>
      <trkpt lat="47.51482" lon="6.77273">
        <ele>377</ele>
        <time>2016-03-20T11:31:04.000Z</time>
      </trkpt>
      <trkpt lat="47.51483" lon="6.7728">
        <ele>377</ele>
        <time>2016-03-20T11:31:05.000Z</time>
      </trkpt>
      <trkpt lat="47.51483" lon="6.77287">
        <ele>377</ele>
        <time>2016-03-20T11:31:06.000Z</time>
      </trkpt>
      <trkpt lat="47.51482" lon="6.77292">
        <ele>377</ele>
        <time>2016-03-20T11:31:07.000Z</time>
      </trkpt>
      <trkpt lat="47.51483" lon="6.77298">
        <ele>377</ele>
        <time>2016-03-20T11:31:08.000Z</time>
      </trkpt>
      <trkpt lat="47.51483" lon="6.77304">
        <ele>377</ele>
        <time>2016-03-20T11:31:09.000Z</time>
      </trkpt>
      <trkpt lat="47.51484" lon="6.7731">
        <ele>377</ele>
        <time>2016-03-20T11:31:10.000Z</time>
      </trkpt>
      <trkpt lat="47.51486" lon="6.77315">
        <ele>377</ele>
        <time>2016-03-20T11:31:11.000Z</time>
      </trkpt>
      <trkpt lat="47.51489" lon="6.7732">
        <ele>377</ele>
        <time>2016-03-20T11:31:12.000Z</time>
      </trkpt>
      <trkpt lat="47.51492" lon="6.77324">
        <ele>377</ele>
        <time>2016-03-20T11:31:13.000Z</time>
      </trkpt>
      <trkpt lat="47.51495" lon="6.77327">
        <ele>378</ele>
        <time>2016-03-20T11:31:14.000Z</time>
      </trkpt>
      <trkpt lat="47.51498" lon="6.7733">
        <ele>378</ele>
        <time>2016-03-20T11:31:15.000Z</time>
      </trkpt>
      <trkpt lat="47.51501" lon="6.77333">
        <ele>378</ele>
        <time>2016-03-20T11:31:16.000Z</time>
      </trkpt>
      <trkpt lat="47.51504" lon="6.77335">
        <ele>378</ele>
        <time>2016-03-20T11:31:17.000Z</time>
      </trkpt>
      <trkpt lat="47.51506" lon="6.77338">
        <ele>379</ele>
        <time>2016-03-20T11:31:18.000Z</time>
      </trkpt>
      <trkpt lat="47.51508" lon="6.77341">
        <ele>379</ele>
        <time>2016-03-20T11:31:19.000Z</time>
      </trkpt>
      <trkpt lat="47.51511" lon="6.77344">
        <ele>379</ele>
        <time>2016-03-20T11:31:20.000Z</time>
      </trkpt>
      <trkpt lat="47.51515" lon="6.77347">
        <ele>379</ele>
        <time>2016-03-20T11:31:21.000Z</time>
      </trkpt>
      <trkpt lat="47.51517" lon="6.7735">
        <ele>380</ele>
        <time>2016-03-20T11:31:22.000Z</time>
      </trkpt>
      <trkpt lat="47.5152" lon="6.77353">
        <ele>380</ele>
        <time>2016-03-20T11:31:23.000Z</time>
      </trkpt>
      <trkpt lat="47.51522" lon="6.77357">
        <ele>380</ele>
        <time>2016-03-20T11:31:24.000Z</time>
      </trkpt>
      <trkpt lat="47.51524" lon="6.7736">
        <ele>380</ele>
        <time>2016-03-20T11:31:25.000Z</time>
      </trkpt>
      <trkpt lat="47.51527" lon="6.77364">
        <ele>380</ele>
        <time>2016-03-20T11:31:26.000Z</time>
      </trkpt>
      <trkpt lat="47.5153" lon="6.77367">
        <ele>380</ele>
        <time>2016-03-20T11:31:27.000Z</time>
      </trkpt>
      <trkpt lat="47.51532" lon="6.77371">
        <ele>380</ele>
        <time>2016-03-20T11:31:28.000Z</time>
      </trkpt>
      <trkpt lat="47.51534" lon="6.77374">
        <ele>380</ele>
        <time>2016-03-20T11:31:29.000Z</time>
      </trkpt>
      <trkpt lat="47.51539" lon="6.77377">
        <ele>380</ele>
        <time>2016-03-20T11:31:30.000Z</time>
      </trkpt>
      <trkpt lat="47.51542" lon="6.77379">
        <ele>381</ele>
        <time>2016-03-20T11:31:31.000Z</time>
      </trkpt>
      <trkpt lat="47.51544" lon="6.77382">
        <ele>381</ele>
        <time>2016-03-20T11:31:31.999Z</time>
      </trkpt>
      <trkpt lat="47.51547" lon="6.77384">
        <ele>381</ele>
        <time>2016-03-20T11:31:33.000Z</time>
      </trkpt>
      <trkpt lat="47.5155" lon="6.77386">
        <ele>381</ele>
        <time>2016-03-20T11:31:33.999Z</time>
      </trkpt>
      <trkpt lat="47.51552" lon="6.77387">
        <ele>381</ele>
        <time>2016-03-20T11:31:35.001Z</time>
      </trkpt>
      <trkpt lat="47.51554" lon="6.77389">
        <ele>381</ele>
        <time>2016-03-20T11:31:36.000Z</time>
      </trkpt>
      <trkpt lat="47.51556" lon="6.77392">
        <ele>381</ele>
        <time>2016-03-20T11:31:37.000Z</time>
      </trkpt>
      <trkpt lat="47.51558" lon="6.77394">
        <ele>381</ele>
        <time>2016-03-20T11:31:38.000Z</time>
      </trkpt>
      <trkpt lat="47.5156" lon="6.77396">
        <ele>381</ele>
        <time>2016-03-20T11:31:39.000Z</time>
      </trkpt>
      <trkpt lat="47.51562" lon="6.77399">
        <ele>381</ele>
        <time>2016-03-20T11:31:40.000Z</time>
      </trkpt>
      <trkpt lat="47.51564" lon="6.77402">
        <ele>381</ele>
        <time>2016-03-20T11:31:41.000Z</time>
      </trkpt>
      <trkpt lat="47.51567" lon="6.77406">
        <ele>382</ele>
        <time>2016-03-20T11:31:42.000Z</time>
      </trkpt>
      <trkpt lat="47.51571" lon="6.7741">
        <ele>382</ele>
        <time>2016-03-20T11:31:43.000Z</time>
      </trkpt>
      <trkpt lat="47.51574" lon="6.77415">
        <ele>382</ele>
        <time>2016-03-20T11:31:44.000Z</time>
      </trkpt>
      <trkpt lat="47.51576" lon="6.77418">
        <ele>383</ele>
        <time>2016-03-20T11:31:45.000Z</time>
      </trkpt>
      <trkpt lat="47.51579" lon="6.77421">
        <ele>383</ele>
        <time>2016-03-20T11:31:46.000Z</time>
      </trkpt>
      <trkpt lat="47.51582" lon="6.77423">
        <ele>383</ele>
        <time>2016-03-20T11:31:47.000Z</time>
      </trkpt>
      <trkpt lat="47.51584" lon="6.77426">
        <ele>384</ele>
        <time>2016-03-20T11:31:48.000Z</time>
      </trkpt>
      <trkpt lat="47.51587" lon="6.77429">
        <ele>384</ele>
        <time>2016-03-20T11:31:49.000Z</time>
      </trkpt>
      <trkpt lat="47.5159" lon="6.77433">
        <ele>384</ele>
        <time>2016-03-20T11:31:50.000Z</time>
      </trkpt>
      <trkpt lat="47.51593" lon="6.77437">
        <ele>385</ele>
        <time>2016-03-20T11:31:51.000Z</time>
      </trkpt>
      <trkpt lat="47.51596" lon="6.77441">
        <ele>385</ele>
        <time>2016-03-20T11:31:52.000Z</time>
      </trkpt>
      <trkpt lat="47.51598" lon="6.77445">
        <ele>385</ele>
        <time>2016-03-20T11:31:53.000Z</time>
      </trkpt>
      <trkpt lat="47.51601" lon="6.77448">
        <ele>385</ele>
        <time>2016-03-20T11:31:54.000Z</time>
      </trkpt>
      <trkpt lat="47.51603" lon="6.77451">
        <ele>385</ele>
        <time>2016-03-20T11:31:55.001Z</time>
      </trkpt>
      <trkpt lat="47.51608" lon="6.77452">
        <ele>385</ele>
        <time>2016-03-20T11:31:56.000Z</time>
      </trkpt>
      <trkpt lat="47.51611" lon="6.77454">
        <ele>385</ele>
        <time>2016-03-20T11:31:57.000Z</time>
      </trkpt>
      <trkpt lat="47.51613" lon="6.77455">
        <ele>385</ele>
        <time>2016-03-20T11:31:57.999Z</time>
      </trkpt>
      <trkpt lat="47.51617" lon="6.77457">
        <ele>386</ele>
        <time>2016-03-20T11:31:59.000Z</time>
      </trkpt>
      <trkpt lat="47.51619" lon="6.77459">
        <ele>386</ele>
        <time>2016-03-20T11:32:00.000Z</time>
      </trkpt>
      <trkpt lat="47.51622" lon="6.77461">
        <ele>386</ele>
        <time>2016-03-20T11:32:01.000Z</time>
      </trkpt>
      <trkpt lat="47.51625" lon="6.77462">
        <ele>386</ele>
        <time>2016-03-20T11:32:02.000Z</time>
      </trkpt>
      <trkpt lat="47.51627" lon="6.77466">
        <ele>386</ele>
        <time>2016-03-20T11:32:03.000Z</time>
      </trkpt>
      <trkpt lat="47.51629" lon="6.77469">
        <ele>386</ele>
        <time>2016-03-20T11:32:04.000Z</time>
      </trkpt>
      <trkpt lat="47.51632" lon="6.77472">
        <ele>386</ele>
        <time>2016-03-20T11:32:05.000Z</time>
      </trkpt>
      <trkpt lat="47.51634" lon="6.77476">
        <ele>386</ele>
        <time>2016-03-20T11:32:06.000Z</time>
      </trkpt>
      <trkpt lat="47.51637" lon="6.7748">
        <ele>386</ele>
        <time>2016-03-20T11:32:07.000Z</time>
      </trkpt>
      <trkpt lat="47.5164" lon="6.77484">
        <ele>387</ele>
        <time>2016-03-20T11:32:08.000Z</time>
      </trkpt>
      <trkpt lat="47.51642" lon="6.77488">
        <ele>387</ele>
        <time>2016-03-20T11:32:09.000Z</time>
      </trkpt>
      <trkpt lat="47.51645" lon="6.77493">
        <ele>387</ele>
        <time>2016-03-20T11:32:09.999Z</time>
      </trkpt>
      <trkpt lat="47.51647" lon="6.77497">
        <ele>387</ele>
        <time>2016-03-20T11:32:11.000Z</time>
      </trkpt>
      <trkpt lat="47.51649" lon="6.77501">
        <ele>388</ele>
        <time>2016-03-20T11:32:12.000Z</time>
      </trkpt>
      <trkpt lat="47.51651" lon="6.77505">
        <ele>388</ele>
        <time>2016-03-20T11:32:13.000Z</time>
      </trkpt>
      <trkpt lat="47.51652" lon="6.77507">
        <ele>388</ele>
        <time>2016-03-20T11:32:14.000Z</time>
      </trkpt>
      <trkpt lat="47.51654" lon="6.77508">
        <ele>388</ele>
        <time>2016-03-20T11:32:15.000Z</time>
      </trkpt>
      <trkpt lat="47.51657" lon="6.7751">
        <ele>388</ele>
        <time>2016-03-20T11:32:16.000Z</time>
      </trkpt>
      <trkpt lat="47.51659" lon="6.77513">
        <ele>388</ele>
        <time>2016-03-20T11:32:17.000Z</time>
      </trkpt>
      <trkpt lat="47.51662" lon="6.77516">
        <ele>388</ele>
        <time>2016-03-20T11:32:18.000Z</time>
      </trkpt>
      <trkpt lat="47.51665" lon="6.7752">
        <ele>388</ele>
        <time>2016-03-20T11:32:18.999Z</time>
      </trkpt>
      <trkpt lat="47.51668" lon="6.77524">
        <ele>390</ele>
        <time>2016-03-20T11:32:20.000Z</time>
      </trkpt>
      <trkpt lat="47.51671" lon="6.77527">
        <ele>390</ele>
        <time>2016-03-20T11:32:21.000Z</time>
      </trkpt>
      <trkpt lat="47.51673" lon="6.77531">
        <ele>390</ele>
        <time>2016-03-20T11:32:22.000Z</time>
      </trkpt>
      <trkpt lat="47.51674" lon="6.77534">
        <ele>390</ele>
        <time>2016-03-20T11:32:23.000Z</time>
      </trkpt>
      <trkpt lat="47.51677" lon="6.77537">
        <ele>390</ele>
        <time>2016-03-20T11:32:24.000Z</time>
      </trkpt>
      <trkpt lat="47.51679" lon="6.7754">
        <ele>390</ele>
        <time>2016-03-20T11:32:25.000Z</time>
      </trkpt>
      <trkpt lat="47.51682" lon="6.77543">
        <ele>390</ele>
        <time>2016-03-20T11:32:26.000Z</time>
      </trkpt>
      <trkpt lat="47.51684" lon="6.77546">
        <ele>390</ele>
        <time>2016-03-20T11:32:27.000Z</time>
      </trkpt>
      <trkpt lat="47.51689" lon="6.77552">
        <ele>390</ele>
        <time>2016-03-20T11:32:28.000Z</time>
      </trkpt>
      <trkpt lat="47.51691" lon="6.77557">
        <ele>390</ele>
        <time>2016-03-20T11:32:29.000Z</time>
      </trkpt>
      <trkpt lat="47.51692" lon="6.77561">
        <ele>390</ele>
        <time>2016-03-20T11:32:30.001Z</time>
      </trkpt>
      <trkpt lat="47.51694" lon="6.77566">
        <ele>390</ele>
        <time>2016-03-20T11:32:33.000Z</time>
      </trkpt>
      <trkpt lat="47.51696" lon="6.77567">
        <ele>390</ele>
        <time>2016-03-20T11:32:34.000Z</time>
      </trkpt>
      <trkpt lat="47.51698" lon="6.77567">
        <ele>390</ele>
        <time>2016-03-20T11:32:34.999Z</time>
      </trkpt>
      <trkpt lat="47.517" lon="6.77564">
        <ele>390</ele>
        <time>2016-03-20T11:32:36.000Z</time>
      </trkpt>
      <trkpt lat="47.51702" lon="6.77562">
        <ele>390</ele>
        <time>2016-03-20T11:32:37.000Z</time>
      </trkpt>
      <trkpt lat="47.51704" lon="6.77561">
        <ele>390</ele>
        <time>2016-03-20T11:32:38.000Z</time>
      </trkpt>
      <trkpt lat="47.51707" lon="6.7756">
        <ele>390</ele>
        <time>2016-03-20T11:32:39.000Z</time>
      </trkpt>
      <trkpt lat="47.51709" lon="6.77558">
        <ele>390</ele>
        <time>2016-03-20T11:32:40.000Z</time>
      </trkpt>
      <trkpt lat="47.51712" lon="6.77556">
        <ele>390</ele>
        <time>2016-03-20T11:32:41.000Z</time>
      </trkpt>
      <trkpt lat="47.51714" lon="6.77553">
        <ele>390</ele>
        <time>2016-03-20T11:32:42.000Z</time>
      </trkpt>
      <trkpt lat="47.51716" lon="6.77549">
        <ele>390</ele>
        <time>2016-03-20T11:32:43.000Z</time>
      </trkpt>
      <trkpt lat="47.51718" lon="6.77546">
        <ele>390</ele>
        <time>2016-03-20T11:32:44.000Z</time>
      </trkpt>
      <trkpt lat="47.51719" lon="6.77541">
        <ele>390</ele>
        <time>2016-03-20T11:32:45.000Z</time>
      </trkpt>
      <trkpt lat="47.51721" lon="6.77535">
        <ele>390</ele>
        <time>2016-03-20T11:32:46.000Z</time>
      </trkpt>
      <trkpt lat="47.51722" lon="6.77529">
        <ele>390</ele>
        <time>2016-03-20T11:32:47.000Z</time>
      </trkpt>
      <trkpt lat="47.51723" lon="6.77523">
        <ele>390</ele>
        <time>2016-03-20T11:32:48.000Z</time>
      </trkpt>
      <trkpt lat="47.51724" lon="6.77516">
        <ele>390</ele>
        <time>2016-03-20T11:32:49.000Z</time>
      </trkpt>
      <trkpt lat="47.51726" lon="6.7751">
        <ele>390</ele>
        <time>2016-03-20T11:32:50.000Z</time>
      </trkpt>
      <trkpt lat="47.51727" lon="6.77504">
        <ele>390</ele>
        <time>2016-03-20T11:32:51.000Z</time>
      </trkpt>
      <trkpt lat="47.51728" lon="6.77498">
        <ele>389</ele>
        <time>2016-03-20T11:32:52.000Z</time>
      </trkpt>
      <trkpt lat="47.5173" lon="6.77493">
        <ele>389</ele>
        <time>2016-03-20T11:32:53.000Z</time>
      </trkpt>
      <trkpt lat="47.51733" lon="6.77489">
        <ele>389</ele>
        <time>2016-03-20T11:32:54.000Z</time>
      </trkpt>
      <trkpt lat="47.51737" lon="6.77486">
        <ele>389</ele>
        <time>2016-03-20T11:32:55.000Z</time>
      </trkpt>
      <trkpt lat="47.51741" lon="6.77486">
        <ele>389</ele>
        <time>2016-03-20T11:32:56.000Z</time>
      </trkpt>
      <trkpt lat="47.51745" lon="6.77486">
        <ele>389</ele>
        <time>2016-03-20T11:32:57.000Z</time>
      </trkpt>
      <trkpt lat="47.51749" lon="6.77487">
        <ele>389</ele>
        <time>2016-03-20T11:32:58.000Z</time>
      </trkpt>
      <trkpt lat="47.51754" lon="6.77488">
        <ele>389</ele>
        <time>2016-03-20T11:32:59.000Z</time>
      </trkpt>
      <trkpt lat="47.51758" lon="6.77488">
        <ele>389</ele>
        <time>2016-03-20T11:33:00.000Z</time>
      </trkpt>
      <trkpt lat="47.51762" lon="6.77488">
        <ele>389</ele>
        <time>2016-03-20T11:33:01.000Z</time>
      </trkpt>
      <trkpt lat="47.51767" lon="6.77488">
        <ele>389</ele>
        <time>2016-03-20T11:33:02.000Z</time>
      </trkpt>
      <trkpt lat="47.51771" lon="6.77487">
        <ele>389</ele>
        <time>2016-03-20T11:33:03.000Z</time>
      </trkpt>
      <trkpt lat="47.51774" lon="6.77487">
        <ele>388</ele>
        <time>2016-03-20T11:33:04.000Z</time>
      </trkpt>
      <trkpt lat="47.51778" lon="6.77488">
        <ele>388</ele>
        <time>2016-03-20T11:33:05.000Z</time>
      </trkpt>
      <trkpt lat="47.51781" lon="6.77489">
        <ele>388</ele>
        <time>2016-03-20T11:33:06.000Z</time>
      </trkpt>
      <trkpt lat="47.51784" lon="6.77491">
        <ele>388</ele>
        <time>2016-03-20T11:33:07.000Z</time>
      </trkpt>
      <trkpt lat="47.51786" lon="6.77493">
        <ele>388</ele>
        <time>2016-03-20T11:33:08.000Z</time>
      </trkpt>
      <trkpt lat="47.51788" lon="6.77496">
        <ele>388</ele>
        <time>2016-03-20T11:33:09.000Z</time>
      </trkpt>
      <trkpt lat="47.5179" lon="6.77498">
        <ele>388</ele>
        <time>2016-03-20T11:33:10.000Z</time>
      </trkpt>
      <trkpt lat="47.51793" lon="6.775">
        <ele>388</ele>
        <time>2016-03-20T11:33:12.000Z</time>
      </trkpt>
      <trkpt lat="47.51794" lon="6.775">
        <ele>389</ele>
        <time>2016-03-20T11:33:13.000Z</time>
      </trkpt>
      <trkpt lat="47.51799" lon="6.775">
        <ele>389</ele>
        <time>2016-03-20T11:33:15.000Z</time>
      </trkpt>
      <trkpt lat="47.51802" lon="6.775">
        <ele>388</ele>
        <time>2016-03-20T11:33:16.000Z</time>
      </trkpt>
      <trkpt lat="47.51804" lon="6.77489">
        <ele>388</ele>
        <time>2016-03-20T11:33:17.000Z</time>
      </trkpt>
      <trkpt lat="47.51804" lon="6.77482">
        <ele>388</ele>
        <time>2016-03-20T11:33:18.000Z</time>
      </trkpt>
      <trkpt lat="47.51806" lon="6.77479">
        <ele>388</ele>
        <time>2016-03-20T11:33:19.000Z</time>
      </trkpt>
      <trkpt lat="47.51809" lon="6.77473">
        <ele>388</ele>
        <time>2016-03-20T11:33:20.000Z</time>
      </trkpt>
      <trkpt lat="47.51808" lon="6.77468">
        <ele>388</ele>
        <time>2016-03-20T11:33:21.000Z</time>
      </trkpt>
      <trkpt lat="47.51807" lon="6.77465">
        <ele>388</ele>
        <time>2016-03-20T11:33:22.000Z</time>
      </trkpt>
      <trkpt lat="47.51804" lon="6.77461">
        <ele>388</ele>
        <time>2016-03-20T11:33:25.000Z</time>
      </trkpt>
      <trkpt lat="47.51802" lon="6.77463">
        <ele>388</ele>
        <time>2016-03-20T11:33:26.000Z</time>
      </trkpt>
      <trkpt lat="47.51806" lon="6.77464">
        <ele>388</ele>
        <time>2016-03-20T11:33:42.000Z</time>
      </trkpt>
      <trkpt lat="47.51807" lon="6.77465">
        <ele>388</ele>
        <time>2016-03-20T11:33:43.000Z</time>
      </trkpt>
      <trkpt lat="47.51809" lon="6.77459">
        <ele>388</ele>
        <time>2016-03-20T11:33:54.000Z</time>
      </trkpt>
      <trkpt lat="47.51809" lon="6.77458">
        <ele>388</ele>
        <time>2016-03-20T11:33:55.000Z</time>
      </trkpt>
      <trkpt lat="47.51805" lon="6.77459">
        <ele>388</ele>
        <time>2016-03-20T11:33:58.000Z</time>
      </trkpt>
      <trkpt lat="47.51804" lon="6.7746">
        <ele>388</ele>
        <time>2016-03-20T11:33:59.000Z</time>
      </trkpt>
      <trkpt lat="47.51807" lon="6.77463">
        <ele>388</ele>
        <time>2016-03-20T11:34:09.000Z</time>
      </trkpt>
      <trkpt lat="47.51807" lon="6.77464">
        <ele>388</ele>
        <time>2016-03-20T11:34:10.000Z</time>
      </trkpt>
      <trkpt lat="47.51807" lon="6.7747">
        <ele>388</ele>
        <time>2016-03-20T11:34:13.000Z</time>
      </trkpt>
      <trkpt lat="47.51807" lon="6.77471">
        <ele>388</ele>
        <time>2016-03-20T11:34:14.000Z</time>
      </trkpt>
      <trkpt lat="47.51808" lon="6.77477">
        <ele>388</ele>
        <time>2016-03-20T11:34:18.000Z</time>
      </trkpt>
      <trkpt lat="47.51809" lon="6.77478">
        <ele>388</ele>
        <time>2016-03-20T11:34:19.000Z</time>
      </trkpt>
      <trkpt lat="47.51808" lon="6.77484">
        <ele>388</ele>
        <time>2016-03-20T11:39:18.000Z</time>
      </trkpt>
      <trkpt lat="47.51808" lon="6.77485">
        <ele>388</ele>
        <time>2016-03-20T11:39:19.000Z</time>
      </trkpt>
      <trkpt lat="47.51811" lon="6.77481">
        <ele>388</ele>
        <time>2016-03-20T11:39:55.000Z</time>
      </trkpt>
      <trkpt lat="47.51812" lon="6.7748">
        <ele>388</ele>
        <time>2016-03-20T11:39:56.000Z</time>
      </trkpt>
      <trkpt lat="47.51808" lon="6.77484">
        <ele>388</ele>
        <time>2016-03-20T11:42:26.000Z</time>
      </trkpt>
      <trkpt lat="47.51807" lon="6.77484">
        <ele>388</ele>
        <time>2016-03-20T11:42:26.999Z</time>
      </trkpt>
      <trkpt lat="47.51808" lon="6.7748">
        <ele>388</ele>
        <time>2016-03-20T11:49:25.000Z</time>
      </trkpt>
    </trkseg>
  </trk>
</gpx>